<?xml version="1.0" encoding="utf-8"?>
<gpx xmlns:xsi="http://www.w3.org/2001/XMLSchema-instance" xmlns:xsd="http://www.w3.org/2001/XMLSchema" version="1.1" creator="Shapelink.com" xmlns="http://www.topografix.com/GPX/1/1" xmlns:gpxtpx="http://www.garmin.com/xmlschemas/TrackPointExtension/v1">
  <metadata>
    <name>Sykling 80.00 km, 2013-05-05</name>
    <desc></desc>
    <author><name>Mikael Blom</name></author> 
    <time>2013-05-05T10:25:47Z</time>
  </metadata>
  <trk>
    <name>Sykling 80.00 km, 2013-05-05</name>
    <trkseg>
      <trkpt lat="59.9552248" lon="17.4811319">
        <ele>32.3416</ele>
        <time>2013-05-05T10:25:47Z</time>
      </trkpt>
      <trkpt lat="59.9552371" lon="17.4810176">
        <ele>32.8223</ele>
        <time>2013-05-05T10:25:48Z</time>
      </trkpt>
      <trkpt lat="59.955249" lon="17.4809046">
        <ele>32.8223</ele>
        <time>2013-05-05T10:25:49Z</time>
      </trkpt>
      <trkpt lat="59.955261" lon="17.4807903">
        <ele>33.3029</ele>
        <time>2013-05-05T10:25:50Z</time>
      </trkpt>
      <trkpt lat="59.9552711" lon="17.4806808">
        <ele>33.7834</ele>
        <time>2013-05-05T10:25:51Z</time>
      </trkpt>
      <trkpt lat="59.9552805" lon="17.4805768">
        <ele>34.2642</ele>
        <time>2013-05-05T10:25:52Z</time>
      </trkpt>
      <trkpt lat="59.955292" lon="17.4804779">
        <ele>34.7449</ele>
        <time>2013-05-05T10:25:53Z</time>
      </trkpt>
      <trkpt lat="59.9553035" lon="17.4803814">
        <ele>35.2255</ele>
        <time>2013-05-05T10:25:54Z</time>
      </trkpt>
      <trkpt lat="59.9553153" lon="17.480285">
        <ele>35.2255</ele>
        <time>2013-05-05T10:25:55Z</time>
      </trkpt>
      <trkpt lat="59.9553278" lon="17.4801844">
        <ele>35.7061</ele>
        <time>2013-05-05T10:25:56Z</time>
      </trkpt>
      <trkpt lat="59.9553402" lon="17.4800789">
        <ele>36.1868</ele>
        <time>2013-05-05T10:25:57Z</time>
      </trkpt>
      <trkpt lat="59.9553532" lon="17.47997">
        <ele>36.6675</ele>
        <time>2013-05-05T10:25:58Z</time>
      </trkpt>
      <trkpt lat="59.955366" lon="17.4798577">
        <ele>36.6675</ele>
        <time>2013-05-05T10:25:59Z</time>
      </trkpt>
      <trkpt lat="59.9553784" lon="17.4797434">
        <ele>36.6675</ele>
        <time>2013-05-05T10:26:00Z</time>
      </trkpt>
      <trkpt lat="59.9553908" lon="17.4796282">
        <ele>37.1481</ele>
        <time>2013-05-05T10:26:01Z</time>
      </trkpt>
      <trkpt lat="59.955403" lon="17.4795121">
        <ele>37.1481</ele>
        <time>2013-05-05T10:26:02Z</time>
      </trkpt>
      <trkpt lat="59.9554158" lon="17.4793949">
        <ele>37.1481</ele>
        <time>2013-05-05T10:26:03Z</time>
      </trkpt>
      <trkpt lat="59.9554283" lon="17.4792786">
        <ele>37.1481</ele>
        <time>2013-05-05T10:26:04Z</time>
      </trkpt>
      <trkpt lat="59.9554406" lon="17.4791631">
        <ele>37.1481</ele>
        <time>2013-05-05T10:26:05Z</time>
      </trkpt>
      <trkpt lat="59.9554526" lon="17.4790482">
        <ele>37.1481</ele>
        <time>2013-05-05T10:26:06Z</time>
      </trkpt>
      <trkpt lat="59.9554649" lon="17.4789344">
        <ele>37.1481</ele>
        <time>2013-05-05T10:26:07Z</time>
      </trkpt>
      <trkpt lat="59.9554769" lon="17.4788207">
        <ele>37.6287</ele>
        <time>2013-05-05T10:26:08Z</time>
      </trkpt>
      <trkpt lat="59.9554888" lon="17.4787088">
        <ele>37.6287</ele>
        <time>2013-05-05T10:26:09Z</time>
      </trkpt>
      <trkpt lat="59.9555023" lon="17.4785989">
        <ele>38.1094</ele>
        <time>2013-05-05T10:26:10Z</time>
      </trkpt>
      <trkpt lat="59.9555157" lon="17.4784902">
        <ele>38.5901</ele>
        <time>2013-05-05T10:26:11Z</time>
      </trkpt>
      <trkpt lat="59.9555292" lon="17.4783817">
        <ele>38.5901</ele>
        <time>2013-05-05T10:26:12Z</time>
      </trkpt>
      <trkpt lat="59.9555418" lon="17.4782726">
        <ele>38.5901</ele>
        <time>2013-05-05T10:26:13Z</time>
      </trkpt>
      <trkpt lat="59.9555548" lon="17.4781638">
        <ele>38.5901</ele>
        <time>2013-05-05T10:26:14Z</time>
      </trkpt>
      <trkpt lat="59.955569" lon="17.4780548">
        <ele>38.5901</ele>
        <time>2013-05-05T10:26:15Z</time>
      </trkpt>
      <trkpt lat="59.9555852" lon="17.477942">
        <ele>38.5901</ele>
        <time>2013-05-05T10:26:16Z</time>
      </trkpt>
      <trkpt lat="59.9556038" lon="17.4778264">
        <ele>39.0707</ele>
        <time>2013-05-05T10:26:17Z</time>
      </trkpt>
      <trkpt lat="59.955623" lon="17.4777083">
        <ele>39.0707</ele>
        <time>2013-05-05T10:26:18Z</time>
      </trkpt>
      <trkpt lat="59.9556431" lon="17.4775909">
        <ele>39.0707</ele>
        <time>2013-05-05T10:26:19Z</time>
      </trkpt>
      <trkpt lat="59.9556645" lon="17.4774747">
        <ele>39.5513</ele>
        <time>2013-05-05T10:26:20Z</time>
      </trkpt>
      <trkpt lat="59.9556873" lon="17.4773597">
        <ele>39.5513</ele>
        <time>2013-05-05T10:26:21Z</time>
      </trkpt>
      <trkpt lat="59.9557097" lon="17.4772459">
        <ele>39.5513</ele>
        <time>2013-05-05T10:26:22Z</time>
      </trkpt>
      <trkpt lat="59.9557337" lon="17.4771314">
        <ele>39.5513</ele>
        <time>2013-05-05T10:26:23Z</time>
      </trkpt>
      <trkpt lat="59.9557586" lon="17.4770149">
        <ele>39.5513</ele>
        <time>2013-05-05T10:26:24Z</time>
      </trkpt>
      <trkpt lat="59.955785" lon="17.4768937">
        <ele>39.5513</ele>
        <time>2013-05-05T10:26:25Z</time>
      </trkpt>
      <trkpt lat="59.9558121" lon="17.4767676">
        <ele>39.5513</ele>
        <time>2013-05-05T10:26:26Z</time>
      </trkpt>
      <trkpt lat="59.955839" lon="17.4766408">
        <ele>39.5513</ele>
        <time>2013-05-05T10:26:27Z</time>
      </trkpt>
      <trkpt lat="59.9558653" lon="17.4765118">
        <ele>39.0707</ele>
        <time>2013-05-05T10:26:28Z</time>
      </trkpt>
      <trkpt lat="59.9558924" lon="17.4763848">
        <ele>39.0707</ele>
        <time>2013-05-05T10:26:29Z</time>
      </trkpt>
      <trkpt lat="59.9559183" lon="17.4762577">
        <ele>39.0707</ele>
        <time>2013-05-05T10:26:30Z</time>
      </trkpt>
      <trkpt lat="59.9559441" lon="17.4761327">
        <ele>39.0707</ele>
        <time>2013-05-05T10:26:31Z</time>
      </trkpt>
      <trkpt lat="59.9559695" lon="17.4760098">
        <ele>38.5901</ele>
        <time>2013-05-05T10:26:32Z</time>
      </trkpt>
      <trkpt lat="59.9559965" lon="17.4758888">
        <ele>38.5901</ele>
        <time>2013-05-05T10:26:33Z</time>
      </trkpt>
      <trkpt lat="59.9560228" lon="17.4757696">
        <ele>38.5901</ele>
        <time>2013-05-05T10:26:34Z</time>
      </trkpt>
      <trkpt lat="59.9560461" lon="17.4756473">
        <ele>38.1094</ele>
        <time>2013-05-05T10:26:35Z</time>
      </trkpt>
      <trkpt lat="59.9560699" lon="17.4755282">
        <ele>38.1094</ele>
        <time>2013-05-05T10:26:36Z</time>
      </trkpt>
      <trkpt lat="59.956096" lon="17.4754123">
        <ele>37.6287</ele>
        <time>2013-05-05T10:26:37Z</time>
      </trkpt>
      <trkpt lat="59.9561243" lon="17.4752961">
        <ele>37.6287</ele>
        <time>2013-05-05T10:26:38Z</time>
      </trkpt>
      <trkpt lat="59.9561555" lon="17.4751854">
        <ele>37.6287</ele>
        <time>2013-05-05T10:26:39Z</time>
      </trkpt>
      <trkpt lat="59.9561893" lon="17.475073">
        <ele>37.6287</ele>
        <time>2013-05-05T10:26:40Z</time>
      </trkpt>
      <trkpt lat="59.9562214" lon="17.4749546">
        <ele>37.6287</ele>
        <time>2013-05-05T10:26:41Z</time>
      </trkpt>
      <trkpt lat="59.9562544" lon="17.4748377">
        <ele>37.1481</ele>
        <time>2013-05-05T10:26:42Z</time>
      </trkpt>
      <trkpt lat="59.9562887" lon="17.4747231">
        <ele>37.1481</ele>
        <time>2013-05-05T10:26:43Z</time>
      </trkpt>
      <trkpt lat="59.9563233" lon="17.4746098">
        <ele>36.6675</ele>
        <time>2013-05-05T10:26:44Z</time>
      </trkpt>
      <trkpt lat="59.9563605" lon="17.4745005">
        <ele>35.7061</ele>
        <time>2013-05-05T10:26:45Z</time>
      </trkpt>
      <trkpt lat="59.956404" lon="17.4743899">
        <ele>35.2255</ele>
        <time>2013-05-05T10:26:46Z</time>
      </trkpt>
      <trkpt lat="59.9564482" lon="17.4742838">
        <ele>34.7449</ele>
        <time>2013-05-05T10:26:47Z</time>
      </trkpt>
      <trkpt lat="59.9564928" lon="17.4741803">
        <ele>34.2642</ele>
        <time>2013-05-05T10:26:48Z</time>
      </trkpt>
      <trkpt lat="59.9565416" lon="17.4740845">
        <ele>34.2642</ele>
        <time>2013-05-05T10:26:49Z</time>
      </trkpt>
      <trkpt lat="59.9565929" lon="17.4739978">
        <ele>33.7834</ele>
        <time>2013-05-05T10:26:50Z</time>
      </trkpt>
      <trkpt lat="59.9566488" lon="17.4739187">
        <ele>33.7834</ele>
        <time>2013-05-05T10:26:51Z</time>
      </trkpt>
      <trkpt lat="59.9567045" lon="17.4738443">
        <ele>34.2642</ele>
        <time>2013-05-05T10:26:52Z</time>
      </trkpt>
      <trkpt lat="59.9567607" lon="17.4737742">
        <ele>34.2642</ele>
        <time>2013-05-05T10:26:53Z</time>
      </trkpt>
      <trkpt lat="59.9568182" lon="17.4737084">
        <ele>34.2642</ele>
        <time>2013-05-05T10:26:54Z</time>
      </trkpt>
      <trkpt lat="59.9568766" lon="17.473643">
        <ele>34.2642</ele>
        <time>2013-05-05T10:26:55Z</time>
      </trkpt>
      <trkpt lat="59.9569376" lon="17.4735761">
        <ele>34.7449</ele>
        <time>2013-05-05T10:26:56Z</time>
      </trkpt>
      <trkpt lat="59.9569983" lon="17.47351">
        <ele>34.7449</ele>
        <time>2013-05-05T10:26:57Z</time>
      </trkpt>
      <trkpt lat="59.9570608" lon="17.4734435">
        <ele>34.2642</ele>
        <time>2013-05-05T10:26:58Z</time>
      </trkpt>
      <trkpt lat="59.9571219" lon="17.4733803">
        <ele>34.2642</ele>
        <time>2013-05-05T10:26:59Z</time>
      </trkpt>
      <trkpt lat="59.9571834" lon="17.4733172">
        <ele>34.2642</ele>
        <time>2013-05-05T10:27:00Z</time>
      </trkpt>
      <trkpt lat="59.9572452" lon="17.4732529">
        <ele>34.2642</ele>
        <time>2013-05-05T10:27:01Z</time>
      </trkpt>
      <trkpt lat="59.9573089" lon="17.4731905">
        <ele>34.2642</ele>
        <time>2013-05-05T10:27:02Z</time>
      </trkpt>
      <trkpt lat="59.9573724" lon="17.4731252">
        <ele>34.2642</ele>
        <time>2013-05-05T10:27:03Z</time>
      </trkpt>
      <trkpt lat="59.9574387" lon="17.4730599">
        <ele>33.7834</ele>
        <time>2013-05-05T10:27:04Z</time>
      </trkpt>
      <trkpt lat="59.9575049" lon="17.4729962">
        <ele>33.7834</ele>
        <time>2013-05-05T10:27:05Z</time>
      </trkpt>
      <trkpt lat="59.9575682" lon="17.4729325">
        <ele>33.7834</ele>
        <time>2013-05-05T10:27:06Z</time>
      </trkpt>
      <trkpt lat="59.9576319" lon="17.4728672">
        <ele>33.7834</ele>
        <time>2013-05-05T10:27:07Z</time>
      </trkpt>
      <trkpt lat="59.957694" lon="17.4728044">
        <ele>33.7834</ele>
        <time>2013-05-05T10:27:08Z</time>
      </trkpt>
      <trkpt lat="59.9577581" lon="17.4727409">
        <ele>33.7834</ele>
        <time>2013-05-05T10:27:09Z</time>
      </trkpt>
      <trkpt lat="59.9578238" lon="17.4726766">
        <ele>33.7834</ele>
        <time>2013-05-05T10:27:10Z</time>
      </trkpt>
      <trkpt lat="59.9578907" lon="17.4726082">
        <ele>33.7834</ele>
        <time>2013-05-05T10:27:11Z</time>
      </trkpt>
      <trkpt lat="59.957955" lon="17.4725411">
        <ele>33.7834</ele>
        <time>2013-05-05T10:27:12Z</time>
      </trkpt>
      <trkpt lat="59.9580193" lon="17.472477">
        <ele>34.2642</ele>
        <time>2013-05-05T10:27:13Z</time>
      </trkpt>
      <trkpt lat="59.9580836" lon="17.4724101">
        <ele>34.2642</ele>
        <time>2013-05-05T10:27:14Z</time>
      </trkpt>
      <trkpt lat="59.9581478" lon="17.4723445">
        <ele>34.2642</ele>
        <time>2013-05-05T10:27:15Z</time>
      </trkpt>
      <trkpt lat="59.9582125" lon="17.4722775">
        <ele>34.2642</ele>
        <time>2013-05-05T10:27:16Z</time>
      </trkpt>
      <trkpt lat="59.9582777" lon="17.4722094">
        <ele>34.2642</ele>
        <time>2013-05-05T10:27:17Z</time>
      </trkpt>
      <trkpt lat="59.9583429" lon="17.4721428">
        <ele>34.7449</ele>
        <time>2013-05-05T10:27:18Z</time>
      </trkpt>
      <trkpt lat="59.9584073" lon="17.4720777">
        <ele>34.7449</ele>
        <time>2013-05-05T10:27:19Z</time>
      </trkpt>
      <trkpt lat="59.9584699" lon="17.4720151">
        <ele>34.7449</ele>
        <time>2013-05-05T10:27:20Z</time>
      </trkpt>
      <trkpt lat="59.9585309" lon="17.4719529">
        <ele>34.7449</ele>
        <time>2013-05-05T10:27:21Z</time>
      </trkpt>
      <trkpt lat="59.9585911" lon="17.4718882">
        <ele>34.7449</ele>
        <time>2013-05-05T10:27:22Z</time>
      </trkpt>
      <trkpt lat="59.9586527" lon="17.4718268">
        <ele>35.2255</ele>
        <time>2013-05-05T10:27:23Z</time>
      </trkpt>
      <trkpt lat="59.9587143" lon="17.4717633">
        <ele>35.2255</ele>
        <time>2013-05-05T10:27:24Z</time>
      </trkpt>
      <trkpt lat="59.9587741" lon="17.4716996">
        <ele>35.2255</ele>
        <time>2013-05-05T10:27:25Z</time>
      </trkpt>
      <trkpt lat="59.9588342" lon="17.4716384">
        <ele>35.7061</ele>
        <time>2013-05-05T10:27:26Z</time>
      </trkpt>
      <trkpt lat="59.9588957" lon="17.4715779">
        <ele>35.7061</ele>
        <time>2013-05-05T10:27:27Z</time>
      </trkpt>
      <trkpt lat="59.9589576" lon="17.4715167">
        <ele>35.7061</ele>
        <time>2013-05-05T10:27:28Z</time>
      </trkpt>
      <trkpt lat="59.9590202" lon="17.4714555">
        <ele>35.7061</ele>
        <time>2013-05-05T10:27:29Z</time>
      </trkpt>
      <trkpt lat="59.9590836" lon="17.4713941">
        <ele>35.7061</ele>
        <time>2013-05-05T10:27:30Z</time>
      </trkpt>
      <trkpt lat="59.9591465" lon="17.4713347">
        <ele>35.7061</ele>
        <time>2013-05-05T10:27:31Z</time>
      </trkpt>
      <trkpt lat="59.9592083" lon="17.4712784">
        <ele>35.7061</ele>
        <time>2013-05-05T10:27:32Z</time>
      </trkpt>
      <trkpt lat="59.9592714" lon="17.4712218">
        <ele>35.7061</ele>
        <time>2013-05-05T10:27:33Z</time>
      </trkpt>
      <trkpt lat="59.9593387" lon="17.4711628">
        <ele>35.7061</ele>
        <time>2013-05-05T10:27:34Z</time>
      </trkpt>
      <trkpt lat="59.9594064" lon="17.471107">
        <ele>35.7061</ele>
        <time>2013-05-05T10:27:35Z</time>
      </trkpt>
      <trkpt lat="59.9594763" lon="17.4710547">
        <ele>35.7061</ele>
        <time>2013-05-05T10:27:36Z</time>
      </trkpt>
      <trkpt lat="59.9595475" lon="17.4710037">
        <ele>35.2255</ele>
        <time>2013-05-05T10:27:37Z</time>
      </trkpt>
      <trkpt lat="59.9596184" lon="17.4709516">
        <ele>35.2255</ele>
        <time>2013-05-05T10:27:38Z</time>
      </trkpt>
      <trkpt lat="59.9596898" lon="17.4709017">
        <ele>35.2255</ele>
        <time>2013-05-05T10:27:39Z</time>
      </trkpt>
      <trkpt lat="59.9597613" lon="17.4708548">
        <ele>35.2255</ele>
        <time>2013-05-05T10:27:40Z</time>
      </trkpt>
      <trkpt lat="59.9598319" lon="17.4708085">
        <ele>35.2255</ele>
        <time>2013-05-05T10:27:41Z</time>
      </trkpt>
      <trkpt lat="59.9599013" lon="17.4707633">
        <ele>35.2255</ele>
        <time>2013-05-05T10:27:42Z</time>
      </trkpt>
      <trkpt lat="59.9599686" lon="17.4707185">
        <ele>35.2255</ele>
        <time>2013-05-05T10:27:43Z</time>
      </trkpt>
      <trkpt lat="59.9600333" lon="17.4706744">
        <ele>35.2255</ele>
        <time>2013-05-05T10:27:44Z</time>
      </trkpt>
      <trkpt lat="59.9600969" lon="17.4706315">
        <ele>35.7061</ele>
        <time>2013-05-05T10:27:45Z</time>
      </trkpt>
      <trkpt lat="59.9601608" lon="17.4705873">
        <ele>35.7061</ele>
        <time>2013-05-05T10:27:46Z</time>
      </trkpt>
      <trkpt lat="59.9602249" lon="17.4705445">
        <ele>35.7061</ele>
        <time>2013-05-05T10:27:47Z</time>
      </trkpt>
      <trkpt lat="59.9602898" lon="17.4705015">
        <ele>35.7061</ele>
        <time>2013-05-05T10:27:48Z</time>
      </trkpt>
      <trkpt lat="59.9603548" lon="17.4704593">
        <ele>35.7061</ele>
        <time>2013-05-05T10:27:49Z</time>
      </trkpt>
      <trkpt lat="59.9604199" lon="17.4704178">
        <ele>35.7061</ele>
        <time>2013-05-05T10:27:50Z</time>
      </trkpt>
      <trkpt lat="59.9604856" lon="17.4703754">
        <ele>35.7061</ele>
        <time>2013-05-05T10:27:51Z</time>
      </trkpt>
      <trkpt lat="59.9605488" lon="17.4703339">
        <ele>35.7061</ele>
        <time>2013-05-05T10:27:52Z</time>
      </trkpt>
      <trkpt lat="59.9606116" lon="17.4702926">
        <ele>35.7061</ele>
        <time>2013-05-05T10:27:53Z</time>
      </trkpt>
      <trkpt lat="59.9606743" lon="17.4702526">
        <ele>36.1868</ele>
        <time>2013-05-05T10:27:54Z</time>
      </trkpt>
      <trkpt lat="59.9607368" lon="17.4702101">
        <ele>36.1868</ele>
        <time>2013-05-05T10:27:55Z</time>
      </trkpt>
      <trkpt lat="59.9607986" lon="17.4701703">
        <ele>36.6675</ele>
        <time>2013-05-05T10:27:56Z</time>
      </trkpt>
      <trkpt lat="59.9608576" lon="17.4701326">
        <ele>37.1481</ele>
        <time>2013-05-05T10:27:57Z</time>
      </trkpt>
      <trkpt lat="59.9609166" lon="17.4700931">
        <ele>37.1481</ele>
        <time>2013-05-05T10:27:58Z</time>
      </trkpt>
      <trkpt lat="59.9609736" lon="17.470054">
        <ele>37.1481</ele>
        <time>2013-05-05T10:27:59Z</time>
      </trkpt>
      <trkpt lat="59.9610311" lon="17.4700164">
        <ele>37.6287</ele>
        <time>2013-05-05T10:28:00Z</time>
      </trkpt>
      <trkpt lat="59.9610881" lon="17.4699796">
        <ele>37.6287</ele>
        <time>2013-05-05T10:28:01Z</time>
      </trkpt>
      <trkpt lat="59.9611445" lon="17.4699452">
        <ele>37.6287</ele>
        <time>2013-05-05T10:28:02Z</time>
      </trkpt>
      <trkpt lat="59.9612021" lon="17.4699104">
        <ele>38.1094</ele>
        <time>2013-05-05T10:28:03Z</time>
      </trkpt>
      <trkpt lat="59.9612622" lon="17.4698725">
        <ele>38.1094</ele>
        <time>2013-05-05T10:28:04Z</time>
      </trkpt>
      <trkpt lat="59.9613213" lon="17.4698317">
        <ele>38.1094</ele>
        <time>2013-05-05T10:28:05Z</time>
      </trkpt>
      <trkpt lat="59.9613792" lon="17.4697907">
        <ele>38.1094</ele>
        <time>2013-05-05T10:28:06Z</time>
      </trkpt>
      <trkpt lat="59.961439" lon="17.4697503">
        <ele>38.1094</ele>
        <time>2013-05-05T10:28:07Z</time>
      </trkpt>
      <trkpt lat="59.9614974" lon="17.4697099">
        <ele>38.5901</ele>
        <time>2013-05-05T10:28:08Z</time>
      </trkpt>
      <trkpt lat="59.9615568" lon="17.4696704">
        <ele>39.0707</ele>
        <time>2013-05-05T10:28:09Z</time>
      </trkpt>
      <trkpt lat="59.9616206" lon="17.4696261">
        <ele>39.5513</ele>
        <time>2013-05-05T10:28:10Z</time>
      </trkpt>
      <trkpt lat="59.9616858" lon="17.4695828">
        <ele>39.5513</ele>
        <time>2013-05-05T10:28:11Z</time>
      </trkpt>
      <trkpt lat="59.9617521" lon="17.4695417">
        <ele>40.0321</ele>
        <time>2013-05-05T10:28:12Z</time>
      </trkpt>
      <trkpt lat="59.9618165" lon="17.4694997">
        <ele>40.5128</ele>
        <time>2013-05-05T10:28:13Z</time>
      </trkpt>
      <trkpt lat="59.9618828" lon="17.4694574">
        <ele>40.5128</ele>
        <time>2013-05-05T10:28:14Z</time>
      </trkpt>
      <trkpt lat="59.961947" lon="17.4694177">
        <ele>40.9934</ele>
        <time>2013-05-05T10:28:15Z</time>
      </trkpt>
      <trkpt lat="59.9620097" lon="17.4693758">
        <ele>41.474</ele>
        <time>2013-05-05T10:28:16Z</time>
      </trkpt>
      <trkpt lat="59.9620734" lon="17.4693328">
        <ele>41.474</ele>
        <time>2013-05-05T10:28:17Z</time>
      </trkpt>
      <trkpt lat="59.9621369" lon="17.469296">
        <ele>41.9547</ele>
        <time>2013-05-05T10:28:18Z</time>
      </trkpt>
      <trkpt lat="59.9621997" lon="17.4692544">
        <ele>41.9547</ele>
        <time>2013-05-05T10:28:19Z</time>
      </trkpt>
      <trkpt lat="59.9622663" lon="17.469208">
        <ele>42.4354</ele>
        <time>2013-05-05T10:28:20Z</time>
      </trkpt>
      <trkpt lat="59.9623333" lon="17.4691663">
        <ele>42.4354</ele>
        <time>2013-05-05T10:28:21Z</time>
      </trkpt>
      <trkpt lat="59.962396" lon="17.4691246">
        <ele>42.916</ele>
        <time>2013-05-05T10:28:22Z</time>
      </trkpt>
      <trkpt lat="59.9624588" lon="17.4690816">
        <ele>42.916</ele>
        <time>2013-05-05T10:28:23Z</time>
      </trkpt>
      <trkpt lat="59.9625224" lon="17.4690406">
        <ele>43.3966</ele>
        <time>2013-05-05T10:28:24Z</time>
      </trkpt>
      <trkpt lat="59.9625939" lon="17.4689939">
        <ele>42.916</ele>
        <time>2013-05-05T10:28:25Z</time>
      </trkpt>
      <trkpt lat="59.9626633" lon="17.468951">
        <ele>42.916</ele>
        <time>2013-05-05T10:28:26Z</time>
      </trkpt>
      <trkpt lat="59.9627331" lon="17.4689054">
        <ele>42.916</ele>
        <time>2013-05-05T10:28:27Z</time>
      </trkpt>
      <trkpt lat="59.9627983" lon="17.4688612">
        <ele>43.3966</ele>
        <time>2013-05-05T10:28:28Z</time>
      </trkpt>
      <trkpt lat="59.9628674" lon="17.4688108">
        <ele>42.916</ele>
        <time>2013-05-05T10:28:29Z</time>
      </trkpt>
      <trkpt lat="59.9629408" lon="17.4687604">
        <ele>42.916</ele>
        <time>2013-05-05T10:28:30Z</time>
      </trkpt>
      <trkpt lat="59.9630124" lon="17.468711">
        <ele>42.916</ele>
        <time>2013-05-05T10:28:31Z</time>
      </trkpt>
      <trkpt lat="59.9630839" lon="17.4686556">
        <ele>42.916</ele>
        <time>2013-05-05T10:28:32Z</time>
      </trkpt>
      <trkpt lat="59.9631545" lon="17.4686053">
        <ele>42.916</ele>
        <time>2013-05-05T10:28:33Z</time>
      </trkpt>
      <trkpt lat="59.9632243" lon="17.4685589">
        <ele>42.4354</ele>
        <time>2013-05-05T10:28:34Z</time>
      </trkpt>
      <trkpt lat="59.9632954" lon="17.4685085">
        <ele>42.4354</ele>
        <time>2013-05-05T10:28:35Z</time>
      </trkpt>
      <trkpt lat="59.9633667" lon="17.4684583">
        <ele>42.4354</ele>
        <time>2013-05-05T10:28:36Z</time>
      </trkpt>
      <trkpt lat="59.9634387" lon="17.4684095">
        <ele>42.4354</ele>
        <time>2013-05-05T10:28:37Z</time>
      </trkpt>
      <trkpt lat="59.9635093" lon="17.4683642">
        <ele>41.9547</ele>
        <time>2013-05-05T10:28:38Z</time>
      </trkpt>
      <trkpt lat="59.9635842" lon="17.468319">
        <ele>41.9547</ele>
        <time>2013-05-05T10:28:39Z</time>
      </trkpt>
      <trkpt lat="59.9636563" lon="17.4682755">
        <ele>41.9547</ele>
        <time>2013-05-05T10:28:40Z</time>
      </trkpt>
      <trkpt lat="59.9637271" lon="17.4682309">
        <ele>41.9547</ele>
        <time>2013-05-05T10:28:41Z</time>
      </trkpt>
      <trkpt lat="59.963795" lon="17.4681951">
        <ele>41.474</ele>
        <time>2013-05-05T10:28:42Z</time>
      </trkpt>
      <trkpt lat="59.9638657" lon="17.4681627">
        <ele>41.474</ele>
        <time>2013-05-05T10:28:43Z</time>
      </trkpt>
      <trkpt lat="59.9639353" lon="17.4681362">
        <ele>41.474</ele>
        <time>2013-05-05T10:28:44Z</time>
      </trkpt>
      <trkpt lat="59.9640081" lon="17.4681139">
        <ele>41.474</ele>
        <time>2013-05-05T10:28:45Z</time>
      </trkpt>
      <trkpt lat="59.9640765" lon="17.4680992">
        <ele>40.9934</ele>
        <time>2013-05-05T10:28:46Z</time>
      </trkpt>
      <trkpt lat="59.9641467" lon="17.4680932">
        <ele>40.9934</ele>
        <time>2013-05-05T10:28:47Z</time>
      </trkpt>
      <trkpt lat="59.9642185" lon="17.4680925">
        <ele>40.9934</ele>
        <time>2013-05-05T10:28:48Z</time>
      </trkpt>
      <trkpt lat="59.9642923" lon="17.4680982">
        <ele>40.5128</ele>
        <time>2013-05-05T10:28:49Z</time>
      </trkpt>
      <trkpt lat="59.964365" lon="17.4681113">
        <ele>40.5128</ele>
        <time>2013-05-05T10:28:50Z</time>
      </trkpt>
      <trkpt lat="59.9644399" lon="17.4681216">
        <ele>40.9934</ele>
        <time>2013-05-05T10:28:51Z</time>
      </trkpt>
      <trkpt lat="59.964513" lon="17.4681326">
        <ele>40.5128</ele>
        <time>2013-05-05T10:28:52Z</time>
      </trkpt>
      <trkpt lat="59.9645882" lon="17.4681454">
        <ele>40.5128</ele>
        <time>2013-05-05T10:28:53Z</time>
      </trkpt>
      <trkpt lat="59.9646618" lon="17.4681612">
        <ele>40.5128</ele>
        <time>2013-05-05T10:28:54Z</time>
      </trkpt>
      <trkpt lat="59.9647343" lon="17.4681782">
        <ele>40.0321</ele>
        <time>2013-05-05T10:28:55Z</time>
      </trkpt>
      <trkpt lat="59.9648077" lon="17.4681928">
        <ele>39.5513</ele>
        <time>2013-05-05T10:28:56Z</time>
      </trkpt>
      <trkpt lat="59.9648795" lon="17.4682082">
        <ele>39.0707</ele>
        <time>2013-05-05T10:28:57Z</time>
      </trkpt>
      <trkpt lat="59.9649514" lon="17.4682222">
        <ele>38.5901</ele>
        <time>2013-05-05T10:28:58Z</time>
      </trkpt>
      <trkpt lat="59.9650254" lon="17.4682325">
        <ele>38.5901</ele>
        <time>2013-05-05T10:28:59Z</time>
      </trkpt>
      <trkpt lat="59.9651011" lon="17.4682455">
        <ele>39.0707</ele>
        <time>2013-05-05T10:29:00Z</time>
      </trkpt>
      <trkpt lat="59.9651767" lon="17.468256">
        <ele>39.0707</ele>
        <time>2013-05-05T10:29:01Z</time>
      </trkpt>
      <trkpt lat="59.965254" lon="17.4682673">
        <ele>39.5513</ele>
        <time>2013-05-05T10:29:02Z</time>
      </trkpt>
      <trkpt lat="59.9653298" lon="17.4682812">
        <ele>39.5513</ele>
        <time>2013-05-05T10:29:03Z</time>
      </trkpt>
      <trkpt lat="59.9654023" lon="17.4682937">
        <ele>39.0707</ele>
        <time>2013-05-05T10:29:04Z</time>
      </trkpt>
      <trkpt lat="59.9654656" lon="17.4683106">
        <ele>38.5901</ele>
        <time>2013-05-05T10:29:05Z</time>
      </trkpt>
      <trkpt lat="59.96553" lon="17.4683258">
        <ele>38.1094</ele>
        <time>2013-05-05T10:29:06Z</time>
      </trkpt>
      <trkpt lat="59.9655973" lon="17.4683354">
        <ele>37.6287</ele>
        <time>2013-05-05T10:29:07Z</time>
      </trkpt>
      <trkpt lat="59.9656655" lon="17.4683497">
        <ele>36.6675</ele>
        <time>2013-05-05T10:29:08Z</time>
      </trkpt>
      <trkpt lat="59.9657372" lon="17.4683651">
        <ele>36.1868</ele>
        <time>2013-05-05T10:29:09Z</time>
      </trkpt>
      <trkpt lat="59.9658101" lon="17.4683798">
        <ele>35.7061</ele>
        <time>2013-05-05T10:29:10Z</time>
      </trkpt>
      <trkpt lat="59.9658827" lon="17.468396">
        <ele>35.2255</ele>
        <time>2013-05-05T10:29:11Z</time>
      </trkpt>
      <trkpt lat="59.9659538" lon="17.4684092">
        <ele>34.7449</ele>
        <time>2013-05-05T10:29:12Z</time>
      </trkpt>
      <trkpt lat="59.9660278" lon="17.4684201">
        <ele>34.7449</ele>
        <time>2013-05-05T10:29:13Z</time>
      </trkpt>
      <trkpt lat="59.9660998" lon="17.4684325">
        <ele>34.2642</ele>
        <time>2013-05-05T10:29:14Z</time>
      </trkpt>
      <trkpt lat="59.9661745" lon="17.468438">
        <ele>34.2642</ele>
        <time>2013-05-05T10:29:15Z</time>
      </trkpt>
      <trkpt lat="59.9662537" lon="17.4684277">
        <ele>33.7834</ele>
        <time>2013-05-05T10:29:16Z</time>
      </trkpt>
      <trkpt lat="59.9663333" lon="17.4684056">
        <ele>33.3029</ele>
        <time>2013-05-05T10:29:17Z</time>
      </trkpt>
      <trkpt lat="59.9664147" lon="17.4683615">
        <ele>33.3029</ele>
        <time>2013-05-05T10:29:18Z</time>
      </trkpt>
      <trkpt lat="59.9664943" lon="17.4683097">
        <ele>33.3029</ele>
        <time>2013-05-05T10:29:19Z</time>
      </trkpt>
      <trkpt lat="59.9665746" lon="17.468235">
        <ele>33.7834</ele>
        <time>2013-05-05T10:29:20Z</time>
      </trkpt>
      <trkpt lat="59.9666519" lon="17.468144">
        <ele>34.2642</ele>
        <time>2013-05-05T10:29:21Z</time>
      </trkpt>
      <trkpt lat="59.9667466" lon="17.4680305">
        <ele>33.7834</ele>
        <time>2013-05-05T10:29:22Z</time>
      </trkpt>
      <trkpt lat="59.9668264" lon="17.4679295">
        <ele>33.7834</ele>
        <time>2013-05-05T10:29:23Z</time>
      </trkpt>
      <trkpt lat="59.9669011" lon="17.4677751">
        <ele>33.3029</ele>
        <time>2013-05-05T10:29:24Z</time>
      </trkpt>
      <trkpt lat="59.9669545" lon="17.4676955">
        <ele>33.3029</ele>
        <time>2013-05-05T10:29:25Z</time>
      </trkpt>
      <trkpt lat="59.9670212" lon="17.4675814">
        <ele>32.8223</ele>
        <time>2013-05-05T10:29:26Z</time>
      </trkpt>
      <trkpt lat="59.9670912" lon="17.4674752">
        <ele>32.8223</ele>
        <time>2013-05-05T10:29:27Z</time>
      </trkpt>
      <trkpt lat="59.9671599" lon="17.4673725">
        <ele>32.8223</ele>
        <time>2013-05-05T10:29:28Z</time>
      </trkpt>
      <trkpt lat="59.9672286" lon="17.4672789">
        <ele>32.8223</ele>
        <time>2013-05-05T10:29:29Z</time>
      </trkpt>
      <trkpt lat="59.9672952" lon="17.4671872">
        <ele>32.8223</ele>
        <time>2013-05-05T10:29:30Z</time>
      </trkpt>
      <trkpt lat="59.9673621" lon="17.467099">
        <ele>32.3416</ele>
        <time>2013-05-05T10:29:31Z</time>
      </trkpt>
      <trkpt lat="59.9674306" lon="17.4670155">
        <ele>32.3416</ele>
        <time>2013-05-05T10:29:32Z</time>
      </trkpt>
      <trkpt lat="59.9674979" lon="17.4669283">
        <ele>32.3416</ele>
        <time>2013-05-05T10:29:33Z</time>
      </trkpt>
      <trkpt lat="59.9675648" lon="17.4668382">
        <ele>31.8607</ele>
        <time>2013-05-05T10:29:34Z</time>
      </trkpt>
      <trkpt lat="59.967632" lon="17.4667468">
        <ele>31.8607</ele>
        <time>2013-05-05T10:29:35Z</time>
      </trkpt>
      <trkpt lat="59.9676987" lon="17.4666547">
        <ele>31.8607</ele>
        <time>2013-05-05T10:29:36Z</time>
      </trkpt>
      <trkpt lat="59.967765" lon="17.4665623">
        <ele>31.3801</ele>
        <time>2013-05-05T10:29:37Z</time>
      </trkpt>
      <trkpt lat="59.9678308" lon="17.4664701">
        <ele>31.8607</ele>
        <time>2013-05-05T10:29:38Z</time>
      </trkpt>
      <trkpt lat="59.9678953" lon="17.4663796">
        <ele>31.8607</ele>
        <time>2013-05-05T10:29:39Z</time>
      </trkpt>
      <trkpt lat="59.9679584" lon="17.4662908">
        <ele>31.8607</ele>
        <time>2013-05-05T10:29:40Z</time>
      </trkpt>
      <trkpt lat="59.9680206" lon="17.4662008">
        <ele>31.8607</ele>
        <time>2013-05-05T10:29:41Z</time>
      </trkpt>
      <trkpt lat="59.9680839" lon="17.4661104">
        <ele>31.8607</ele>
        <time>2013-05-05T10:29:42Z</time>
      </trkpt>
      <trkpt lat="59.968148" lon="17.4660196">
        <ele>31.8607</ele>
        <time>2013-05-05T10:29:43Z</time>
      </trkpt>
      <trkpt lat="59.968211" lon="17.4659288">
        <ele>31.8607</ele>
        <time>2013-05-05T10:29:44Z</time>
      </trkpt>
      <trkpt lat="59.9682724" lon="17.4658369">
        <ele>32.3416</ele>
        <time>2013-05-05T10:29:45Z</time>
      </trkpt>
      <trkpt lat="59.9683353" lon="17.465749">
        <ele>32.3416</ele>
        <time>2013-05-05T10:29:46Z</time>
      </trkpt>
      <trkpt lat="59.9683975" lon="17.4656618">
        <ele>32.8223</ele>
        <time>2013-05-05T10:29:47Z</time>
      </trkpt>
      <trkpt lat="59.9684594" lon="17.4655741">
        <ele>32.8223</ele>
        <time>2013-05-05T10:29:48Z</time>
      </trkpt>
      <trkpt lat="59.9685216" lon="17.4654849">
        <ele>32.8223</ele>
        <time>2013-05-05T10:29:49Z</time>
      </trkpt>
      <trkpt lat="59.9685832" lon="17.4653959">
        <ele>32.8223</ele>
        <time>2013-05-05T10:29:50Z</time>
      </trkpt>
      <trkpt lat="59.9686436" lon="17.4653078">
        <ele>32.8223</ele>
        <time>2013-05-05T10:29:51Z</time>
      </trkpt>
      <trkpt lat="59.9687029" lon="17.4652218">
        <ele>32.8223</ele>
        <time>2013-05-05T10:29:52Z</time>
      </trkpt>
      <trkpt lat="59.9687624" lon="17.4651368">
        <ele>32.8223</ele>
        <time>2013-05-05T10:29:53Z</time>
      </trkpt>
      <trkpt lat="59.9688219" lon="17.4650512">
        <ele>32.8223</ele>
        <time>2013-05-05T10:29:54Z</time>
      </trkpt>
      <trkpt lat="59.9688808" lon="17.4649655">
        <ele>33.3029</ele>
        <time>2013-05-05T10:29:55Z</time>
      </trkpt>
      <trkpt lat="59.9689391" lon="17.4648794">
        <ele>33.3029</ele>
        <time>2013-05-05T10:29:56Z</time>
      </trkpt>
      <trkpt lat="59.9689989" lon="17.4647935">
        <ele>33.3029</ele>
        <time>2013-05-05T10:29:57Z</time>
      </trkpt>
      <trkpt lat="59.9690596" lon="17.4647047">
        <ele>32.8223</ele>
        <time>2013-05-05T10:29:58Z</time>
      </trkpt>
      <trkpt lat="59.9691209" lon="17.4646148">
        <ele>32.8223</ele>
        <time>2013-05-05T10:29:59Z</time>
      </trkpt>
      <trkpt lat="59.9691825" lon="17.4645265">
        <ele>32.8223</ele>
        <time>2013-05-05T10:30:00Z</time>
      </trkpt>
      <trkpt lat="59.9692442" lon="17.4644372">
        <ele>32.8223</ele>
        <time>2013-05-05T10:30:01Z</time>
      </trkpt>
      <trkpt lat="59.9693063" lon="17.4643464">
        <ele>32.8223</ele>
        <time>2013-05-05T10:30:02Z</time>
      </trkpt>
      <trkpt lat="59.96937" lon="17.464254">
        <ele>32.3416</ele>
        <time>2013-05-05T10:30:03Z</time>
      </trkpt>
      <trkpt lat="59.9694353" lon="17.4641604">
        <ele>32.3416</ele>
        <time>2013-05-05T10:30:04Z</time>
      </trkpt>
      <trkpt lat="59.9695014" lon="17.464066">
        <ele>32.3416</ele>
        <time>2013-05-05T10:30:05Z</time>
      </trkpt>
      <trkpt lat="59.9695667" lon="17.4639715">
        <ele>32.3416</ele>
        <time>2013-05-05T10:30:06Z</time>
      </trkpt>
      <trkpt lat="59.9696322" lon="17.4638782">
        <ele>32.3416</ele>
        <time>2013-05-05T10:30:07Z</time>
      </trkpt>
      <trkpt lat="59.9696979" lon="17.4637844">
        <ele>32.3416</ele>
        <time>2013-05-05T10:30:08Z</time>
      </trkpt>
      <trkpt lat="59.9697635" lon="17.4636913">
        <ele>32.3416</ele>
        <time>2013-05-05T10:30:09Z</time>
      </trkpt>
      <trkpt lat="59.9698282" lon="17.4635998">
        <ele>32.3416</ele>
        <time>2013-05-05T10:30:10Z</time>
      </trkpt>
      <trkpt lat="59.9698915" lon="17.4635088">
        <ele>31.8607</ele>
        <time>2013-05-05T10:30:11Z</time>
      </trkpt>
      <trkpt lat="59.9699543" lon="17.4634195">
        <ele>31.8607</ele>
        <time>2013-05-05T10:30:12Z</time>
      </trkpt>
      <trkpt lat="59.9700185" lon="17.4633307">
        <ele>32.3416</ele>
        <time>2013-05-05T10:30:13Z</time>
      </trkpt>
      <trkpt lat="59.9700839" lon="17.4632398">
        <ele>32.3416</ele>
        <time>2013-05-05T10:30:14Z</time>
      </trkpt>
      <trkpt lat="59.9701485" lon="17.4631486">
        <ele>32.3416</ele>
        <time>2013-05-05T10:30:15Z</time>
      </trkpt>
      <trkpt lat="59.9702105" lon="17.4630608">
        <ele>32.3416</ele>
        <time>2013-05-05T10:30:16Z</time>
      </trkpt>
      <trkpt lat="59.9702696" lon="17.4629783">
        <ele>32.3416</ele>
        <time>2013-05-05T10:30:17Z</time>
      </trkpt>
      <trkpt lat="59.9703274" lon="17.4628963">
        <ele>32.3416</ele>
        <time>2013-05-05T10:30:18Z</time>
      </trkpt>
      <trkpt lat="59.9703853" lon="17.4628137">
        <ele>32.3416</ele>
        <time>2013-05-05T10:30:19Z</time>
      </trkpt>
      <trkpt lat="59.9704433" lon="17.4627317">
        <ele>32.3416</ele>
        <time>2013-05-05T10:30:20Z</time>
      </trkpt>
      <trkpt lat="59.9705008" lon="17.46265">
        <ele>32.3416</ele>
        <time>2013-05-05T10:30:21Z</time>
      </trkpt>
      <trkpt lat="59.9705573" lon="17.4625697">
        <ele>32.3416</ele>
        <time>2013-05-05T10:30:22Z</time>
      </trkpt>
      <trkpt lat="59.9706138" lon="17.46249">
        <ele>32.3416</ele>
        <time>2013-05-05T10:30:23Z</time>
      </trkpt>
      <trkpt lat="59.9706712" lon="17.4624066">
        <ele>32.3416</ele>
        <time>2013-05-05T10:30:24Z</time>
      </trkpt>
      <trkpt lat="59.9707302" lon="17.4623221">
        <ele>32.3416</ele>
        <time>2013-05-05T10:30:25Z</time>
      </trkpt>
      <trkpt lat="59.9707907" lon="17.4622376">
        <ele>32.8223</ele>
        <time>2013-05-05T10:30:26Z</time>
      </trkpt>
      <trkpt lat="59.9708525" lon="17.4621484">
        <ele>32.8223</ele>
        <time>2013-05-05T10:30:27Z</time>
      </trkpt>
      <trkpt lat="59.9709168" lon="17.4620536">
        <ele>32.8223</ele>
        <time>2013-05-05T10:30:28Z</time>
      </trkpt>
      <trkpt lat="59.9709821" lon="17.4619497">
        <ele>32.8223</ele>
        <time>2013-05-05T10:30:29Z</time>
      </trkpt>
      <trkpt lat="59.9710486" lon="17.4618393">
        <ele>32.8223</ele>
        <time>2013-05-05T10:30:30Z</time>
      </trkpt>
      <trkpt lat="59.9711178" lon="17.4617289">
        <ele>32.8223</ele>
        <time>2013-05-05T10:30:31Z</time>
      </trkpt>
      <trkpt lat="59.9711899" lon="17.46162">
        <ele>33.3029</ele>
        <time>2013-05-05T10:30:32Z</time>
      </trkpt>
      <trkpt lat="59.9712643" lon="17.4615145">
        <ele>33.3029</ele>
        <time>2013-05-05T10:30:33Z</time>
      </trkpt>
      <trkpt lat="59.971339" lon="17.4614119">
        <ele>33.3029</ele>
        <time>2013-05-05T10:30:34Z</time>
      </trkpt>
      <trkpt lat="59.9714154" lon="17.4613117">
        <ele>33.3029</ele>
        <time>2013-05-05T10:30:35Z</time>
      </trkpt>
      <trkpt lat="59.9714931" lon="17.4612123">
        <ele>33.3029</ele>
        <time>2013-05-05T10:30:36Z</time>
      </trkpt>
      <trkpt lat="59.9715696" lon="17.4611085">
        <ele>33.3029</ele>
        <time>2013-05-05T10:30:37Z</time>
      </trkpt>
      <trkpt lat="59.9716451" lon="17.461001">
        <ele>33.7834</ele>
        <time>2013-05-05T10:30:38Z</time>
      </trkpt>
      <trkpt lat="59.9717207" lon="17.4608943">
        <ele>33.7834</ele>
        <time>2013-05-05T10:30:39Z</time>
      </trkpt>
      <trkpt lat="59.9717967" lon="17.4607876">
        <ele>33.7834</ele>
        <time>2013-05-05T10:30:40Z</time>
      </trkpt>
      <trkpt lat="59.9718715" lon="17.4606787">
        <ele>33.7834</ele>
        <time>2013-05-05T10:30:41Z</time>
      </trkpt>
      <trkpt lat="59.9719454" lon="17.4605707">
        <ele>34.2642</ele>
        <time>2013-05-05T10:30:42Z</time>
      </trkpt>
      <trkpt lat="59.9720192" lon="17.4604651">
        <ele>34.2642</ele>
        <time>2013-05-05T10:30:43Z</time>
      </trkpt>
      <trkpt lat="59.9720935" lon="17.4603608">
        <ele>34.2642</ele>
        <time>2013-05-05T10:30:44Z</time>
      </trkpt>
      <trkpt lat="59.9721672" lon="17.4602556">
        <ele>34.7449</ele>
        <time>2013-05-05T10:30:45Z</time>
      </trkpt>
      <trkpt lat="59.9722397" lon="17.4601491">
        <ele>34.7449</ele>
        <time>2013-05-05T10:30:46Z</time>
      </trkpt>
      <trkpt lat="59.9723119" lon="17.4600439">
        <ele>34.7449</ele>
        <time>2013-05-05T10:30:47Z</time>
      </trkpt>
      <trkpt lat="59.9723838" lon="17.4599413">
        <ele>34.7449</ele>
        <time>2013-05-05T10:30:48Z</time>
      </trkpt>
      <trkpt lat="59.9724545" lon="17.4598393">
        <ele>34.7449</ele>
        <time>2013-05-05T10:30:49Z</time>
      </trkpt>
      <trkpt lat="59.9725243" lon="17.4597382">
        <ele>34.7449</ele>
        <time>2013-05-05T10:30:50Z</time>
      </trkpt>
      <trkpt lat="59.9725946" lon="17.459642">
        <ele>34.7449</ele>
        <time>2013-05-05T10:30:51Z</time>
      </trkpt>
      <trkpt lat="59.972664" lon="17.4595521">
        <ele>35.2255</ele>
        <time>2013-05-05T10:30:52Z</time>
      </trkpt>
      <trkpt lat="59.9727319" lon="17.4594672">
        <ele>35.2255</ele>
        <time>2013-05-05T10:30:53Z</time>
      </trkpt>
      <trkpt lat="59.9727995" lon="17.4593861">
        <ele>35.2255</ele>
        <time>2013-05-05T10:30:54Z</time>
      </trkpt>
      <trkpt lat="59.9728697" lon="17.4593122">
        <ele>35.2255</ele>
        <time>2013-05-05T10:30:55Z</time>
      </trkpt>
      <trkpt lat="59.9729437" lon="17.4592435">
        <ele>35.2255</ele>
        <time>2013-05-05T10:30:56Z</time>
      </trkpt>
      <trkpt lat="59.97302" lon="17.4591747">
        <ele>35.2255</ele>
        <time>2013-05-05T10:30:57Z</time>
      </trkpt>
      <trkpt lat="59.9730981" lon="17.4591047">
        <ele>35.2255</ele>
        <time>2013-05-05T10:30:58Z</time>
      </trkpt>
      <trkpt lat="59.9731779" lon="17.4590358">
        <ele>35.7061</ele>
        <time>2013-05-05T10:30:59Z</time>
      </trkpt>
      <trkpt lat="59.9732586" lon="17.4589685">
        <ele>35.7061</ele>
        <time>2013-05-05T10:31:00Z</time>
      </trkpt>
      <trkpt lat="59.973339" lon="17.4589047">
        <ele>35.7061</ele>
        <time>2013-05-05T10:31:01Z</time>
      </trkpt>
      <trkpt lat="59.9734193" lon="17.4588426">
        <ele>35.7061</ele>
        <time>2013-05-05T10:31:02Z</time>
      </trkpt>
      <trkpt lat="59.9734981" lon="17.4587813">
        <ele>35.7061</ele>
        <time>2013-05-05T10:31:03Z</time>
      </trkpt>
      <trkpt lat="59.9735748" lon="17.4587223">
        <ele>35.7061</ele>
        <time>2013-05-05T10:31:04Z</time>
      </trkpt>
      <trkpt lat="59.9736499" lon="17.458665">
        <ele>36.1868</ele>
        <time>2013-05-05T10:31:05Z</time>
      </trkpt>
      <trkpt lat="59.9737233" lon="17.4586091">
        <ele>36.1868</ele>
        <time>2013-05-05T10:31:06Z</time>
      </trkpt>
      <trkpt lat="59.9737953" lon="17.458555">
        <ele>36.1868</ele>
        <time>2013-05-05T10:31:07Z</time>
      </trkpt>
      <trkpt lat="59.9738658" lon="17.458502">
        <ele>36.1868</ele>
        <time>2013-05-05T10:31:08Z</time>
      </trkpt>
      <trkpt lat="59.9739351" lon="17.4584483">
        <ele>36.1868</ele>
        <time>2013-05-05T10:31:09Z</time>
      </trkpt>
      <trkpt lat="59.974004" lon="17.4583936">
        <ele>36.1868</ele>
        <time>2013-05-05T10:31:10Z</time>
      </trkpt>
      <trkpt lat="59.974074" lon="17.4583385">
        <ele>36.1868</ele>
        <time>2013-05-05T10:31:11Z</time>
      </trkpt>
      <trkpt lat="59.9741449" lon="17.4582855">
        <ele>36.6675</ele>
        <time>2013-05-05T10:31:12Z</time>
      </trkpt>
      <trkpt lat="59.9742149" lon="17.4582329">
        <ele>36.6675</ele>
        <time>2013-05-05T10:31:13Z</time>
      </trkpt>
      <trkpt lat="59.9742834" lon="17.4581785">
        <ele>37.1481</ele>
        <time>2013-05-05T10:31:14Z</time>
      </trkpt>
      <trkpt lat="59.9743505" lon="17.4581241">
        <ele>37.6287</ele>
        <time>2013-05-05T10:31:15Z</time>
      </trkpt>
      <trkpt lat="59.9744157" lon="17.4580717">
        <ele>38.1094</ele>
        <time>2013-05-05T10:31:16Z</time>
      </trkpt>
      <trkpt lat="59.974478" lon="17.4580221">
        <ele>38.5901</ele>
        <time>2013-05-05T10:31:17Z</time>
      </trkpt>
      <trkpt lat="59.974536" lon="17.4579745">
        <ele>39.0707</ele>
        <time>2013-05-05T10:31:18Z</time>
      </trkpt>
      <trkpt lat="59.9745913" lon="17.4579234">
        <ele>39.5513</ele>
        <time>2013-05-05T10:31:19Z</time>
      </trkpt>
      <trkpt lat="59.9746454" lon="17.4578672">
        <ele>40.0321</ele>
        <time>2013-05-05T10:31:20Z</time>
      </trkpt>
      <trkpt lat="59.9747017" lon="17.457806">
        <ele>40.0321</ele>
        <time>2013-05-05T10:31:21Z</time>
      </trkpt>
      <trkpt lat="59.9747621" lon="17.457737">
        <ele>40.5128</ele>
        <time>2013-05-05T10:31:22Z</time>
      </trkpt>
      <trkpt lat="59.9748262" lon="17.457664">
        <ele>40.5128</ele>
        <time>2013-05-05T10:31:23Z</time>
      </trkpt>
      <trkpt lat="59.974892" lon="17.4575886">
        <ele>40.5128</ele>
        <time>2013-05-05T10:31:24Z</time>
      </trkpt>
      <trkpt lat="59.9749588" lon="17.4575102">
        <ele>40.5128</ele>
        <time>2013-05-05T10:31:25Z</time>
      </trkpt>
      <trkpt lat="59.9750261" lon="17.457432">
        <ele>40.5128</ele>
        <time>2013-05-05T10:31:26Z</time>
      </trkpt>
      <trkpt lat="59.9750948" lon="17.4573528">
        <ele>40.5128</ele>
        <time>2013-05-05T10:31:27Z</time>
      </trkpt>
      <trkpt lat="59.9751639" lon="17.457271">
        <ele>40.5128</ele>
        <time>2013-05-05T10:31:28Z</time>
      </trkpt>
      <trkpt lat="59.9752343" lon="17.4571907">
        <ele>40.5128</ele>
        <time>2013-05-05T10:31:29Z</time>
      </trkpt>
      <trkpt lat="59.975306" lon="17.4571076">
        <ele>40.0321</ele>
        <time>2013-05-05T10:31:30Z</time>
      </trkpt>
      <trkpt lat="59.975379" lon="17.4570238">
        <ele>40.0321</ele>
        <time>2013-05-05T10:31:31Z</time>
      </trkpt>
      <trkpt lat="59.9754518" lon="17.4569425">
        <ele>40.0321</ele>
        <time>2013-05-05T10:31:32Z</time>
      </trkpt>
      <trkpt lat="59.9755234" lon="17.4568618">
        <ele>40.0321</ele>
        <time>2013-05-05T10:31:33Z</time>
      </trkpt>
      <trkpt lat="59.9755931" lon="17.4567798">
        <ele>40.0321</ele>
        <time>2013-05-05T10:31:34Z</time>
      </trkpt>
      <trkpt lat="59.9756602" lon="17.4566914">
        <ele>40.0321</ele>
        <time>2013-05-05T10:31:35Z</time>
      </trkpt>
      <trkpt lat="59.975727" lon="17.4566017">
        <ele>40.5128</ele>
        <time>2013-05-05T10:31:36Z</time>
      </trkpt>
      <trkpt lat="59.9757939" lon="17.4565136">
        <ele>40.5128</ele>
        <time>2013-05-05T10:31:37Z</time>
      </trkpt>
      <trkpt lat="59.9758596" lon="17.4564231">
        <ele>40.5128</ele>
        <time>2013-05-05T10:31:38Z</time>
      </trkpt>
      <trkpt lat="59.9759245" lon="17.4563297">
        <ele>40.5128</ele>
        <time>2013-05-05T10:31:39Z</time>
      </trkpt>
      <trkpt lat="59.9759892" lon="17.4562345">
        <ele>40.9934</ele>
        <time>2013-05-05T10:31:40Z</time>
      </trkpt>
      <trkpt lat="59.9760522" lon="17.456136">
        <ele>40.9934</ele>
        <time>2013-05-05T10:31:41Z</time>
      </trkpt>
      <trkpt lat="59.9761146" lon="17.4560359">
        <ele>40.5128</ele>
        <time>2013-05-05T10:31:42Z</time>
      </trkpt>
      <trkpt lat="59.9761761" lon="17.455935">
        <ele>40.5128</ele>
        <time>2013-05-05T10:31:43Z</time>
      </trkpt>
      <trkpt lat="59.9762368" lon="17.455835">
        <ele>40.9934</ele>
        <time>2013-05-05T10:31:44Z</time>
      </trkpt>
      <trkpt lat="59.9762971" lon="17.4557356">
        <ele>40.9934</ele>
        <time>2013-05-05T10:31:45Z</time>
      </trkpt>
      <trkpt lat="59.9763574" lon="17.4556372">
        <ele>40.9934</ele>
        <time>2013-05-05T10:31:46Z</time>
      </trkpt>
      <trkpt lat="59.9764175" lon="17.4555383">
        <ele>40.9934</ele>
        <time>2013-05-05T10:31:47Z</time>
      </trkpt>
      <trkpt lat="59.9764781" lon="17.4554377">
        <ele>40.9934</ele>
        <time>2013-05-05T10:31:48Z</time>
      </trkpt>
      <trkpt lat="59.9765392" lon="17.4553377">
        <ele>40.5128</ele>
        <time>2013-05-05T10:31:49Z</time>
      </trkpt>
      <trkpt lat="59.976602" lon="17.455237">
        <ele>40.9934</ele>
        <time>2013-05-05T10:31:50Z</time>
      </trkpt>
      <trkpt lat="59.9766645" lon="17.4551336">
        <ele>40.9934</ele>
        <time>2013-05-05T10:31:51Z</time>
      </trkpt>
      <trkpt lat="59.9767268" lon="17.4550303">
        <ele>40.9934</ele>
        <time>2013-05-05T10:31:52Z</time>
      </trkpt>
      <trkpt lat="59.976791" lon="17.4549274">
        <ele>40.9934</ele>
        <time>2013-05-05T10:31:53Z</time>
      </trkpt>
      <trkpt lat="59.976854" lon="17.4548233">
        <ele>40.9934</ele>
        <time>2013-05-05T10:31:54Z</time>
      </trkpt>
      <trkpt lat="59.9769169" lon="17.4547197">
        <ele>40.9934</ele>
        <time>2013-05-05T10:31:55Z</time>
      </trkpt>
      <trkpt lat="59.9769806" lon="17.4546161">
        <ele>40.9934</ele>
        <time>2013-05-05T10:31:56Z</time>
      </trkpt>
      <trkpt lat="59.9770436" lon="17.4545128">
        <ele>40.9934</ele>
        <time>2013-05-05T10:31:57Z</time>
      </trkpt>
      <trkpt lat="59.9771068" lon="17.45441">
        <ele>40.9934</ele>
        <time>2013-05-05T10:31:58Z</time>
      </trkpt>
      <trkpt lat="59.9771695" lon="17.4543043">
        <ele>40.5128</ele>
        <time>2013-05-05T10:31:59Z</time>
      </trkpt>
      <trkpt lat="59.9772339" lon="17.4541967">
        <ele>40.9934</ele>
        <time>2013-05-05T10:32:00Z</time>
      </trkpt>
      <trkpt lat="59.9772976" lon="17.4540892">
        <ele>40.5128</ele>
        <time>2013-05-05T10:32:01Z</time>
      </trkpt>
      <trkpt lat="59.9773618" lon="17.4539815">
        <ele>40.5128</ele>
        <time>2013-05-05T10:32:02Z</time>
      </trkpt>
      <trkpt lat="59.9774264" lon="17.4538728">
        <ele>40.5128</ele>
        <time>2013-05-05T10:32:03Z</time>
      </trkpt>
      <trkpt lat="59.9774909" lon="17.4537651">
        <ele>40.5128</ele>
        <time>2013-05-05T10:32:04Z</time>
      </trkpt>
      <trkpt lat="59.9775566" lon="17.4536578">
        <ele>40.5128</ele>
        <time>2013-05-05T10:32:05Z</time>
      </trkpt>
      <trkpt lat="59.9776222" lon="17.4535505">
        <ele>40.5128</ele>
        <time>2013-05-05T10:32:06Z</time>
      </trkpt>
      <trkpt lat="59.9776878" lon="17.4534428">
        <ele>40.5128</ele>
        <time>2013-05-05T10:32:07Z</time>
      </trkpt>
      <trkpt lat="59.9777538" lon="17.4533346">
        <ele>40.5128</ele>
        <time>2013-05-05T10:32:08Z</time>
      </trkpt>
      <trkpt lat="59.9778198" lon="17.4532262">
        <ele>40.5128</ele>
        <time>2013-05-05T10:32:09Z</time>
      </trkpt>
      <trkpt lat="59.977887" lon="17.453119">
        <ele>40.5128</ele>
        <time>2013-05-05T10:32:10Z</time>
      </trkpt>
      <trkpt lat="59.9779564" lon="17.4530151">
        <ele>40.5128</ele>
        <time>2013-05-05T10:32:11Z</time>
      </trkpt>
      <trkpt lat="59.9780266" lon="17.452913">
        <ele>40.5128</ele>
        <time>2013-05-05T10:32:12Z</time>
      </trkpt>
      <trkpt lat="59.9780968" lon="17.4528153">
        <ele>40.0321</ele>
        <time>2013-05-05T10:32:13Z</time>
      </trkpt>
      <trkpt lat="59.9781667" lon="17.4527247">
        <ele>40.0321</ele>
        <time>2013-05-05T10:32:14Z</time>
      </trkpt>
      <trkpt lat="59.9782381" lon="17.4526409">
        <ele>40.0321</ele>
        <time>2013-05-05T10:32:15Z</time>
      </trkpt>
      <trkpt lat="59.9783087" lon="17.4525627">
        <ele>40.0321</ele>
        <time>2013-05-05T10:32:16Z</time>
      </trkpt>
      <trkpt lat="59.9783787" lon="17.4524897">
        <ele>40.0321</ele>
        <time>2013-05-05T10:32:17Z</time>
      </trkpt>
      <trkpt lat="59.9784467" lon="17.4524214">
        <ele>40.5128</ele>
        <time>2013-05-05T10:32:18Z</time>
      </trkpt>
      <trkpt lat="59.9785133" lon="17.4523566">
        <ele>40.5128</ele>
        <time>2013-05-05T10:32:19Z</time>
      </trkpt>
      <trkpt lat="59.9785788" lon="17.4522942">
        <ele>40.5128</ele>
        <time>2013-05-05T10:32:20Z</time>
      </trkpt>
      <trkpt lat="59.9786417" lon="17.4522331">
        <ele>40.5128</ele>
        <time>2013-05-05T10:32:21Z</time>
      </trkpt>
      <trkpt lat="59.9787045" lon="17.452173">
        <ele>40.5128</ele>
        <time>2013-05-05T10:32:22Z</time>
      </trkpt>
      <trkpt lat="59.9787665" lon="17.4521147">
        <ele>40.5128</ele>
        <time>2013-05-05T10:32:23Z</time>
      </trkpt>
      <trkpt lat="59.9788276" lon="17.4520583">
        <ele>40.5128</ele>
        <time>2013-05-05T10:32:24Z</time>
      </trkpt>
      <trkpt lat="59.9788909" lon="17.4520055">
        <ele>40.5128</ele>
        <time>2013-05-05T10:32:25Z</time>
      </trkpt>
      <trkpt lat="59.9789557" lon="17.4519534">
        <ele>40.9934</ele>
        <time>2013-05-05T10:32:26Z</time>
      </trkpt>
      <trkpt lat="59.9790209" lon="17.4519018">
        <ele>41.474</ele>
        <time>2013-05-05T10:32:27Z</time>
      </trkpt>
      <trkpt lat="59.9790842" lon="17.4518469">
        <ele>41.9547</ele>
        <time>2013-05-05T10:32:28Z</time>
      </trkpt>
      <trkpt lat="59.9791433" lon="17.4517944">
        <ele>41.9547</ele>
        <time>2013-05-05T10:32:29Z</time>
      </trkpt>
      <trkpt lat="59.9792014" lon="17.4517386">
        <ele>41.9547</ele>
        <time>2013-05-05T10:32:30Z</time>
      </trkpt>
      <trkpt lat="59.9792588" lon="17.4516826">
        <ele>41.9547</ele>
        <time>2013-05-05T10:32:31Z</time>
      </trkpt>
      <trkpt lat="59.9793158" lon="17.4516281">
        <ele>42.4354</ele>
        <time>2013-05-05T10:32:32Z</time>
      </trkpt>
      <trkpt lat="59.9793722" lon="17.4515692">
        <ele>42.916</ele>
        <time>2013-05-05T10:32:33Z</time>
      </trkpt>
      <trkpt lat="59.9794272" lon="17.4515068">
        <ele>42.916</ele>
        <time>2013-05-05T10:32:34Z</time>
      </trkpt>
      <trkpt lat="59.979479" lon="17.4514393">
        <ele>42.916</ele>
        <time>2013-05-05T10:32:35Z</time>
      </trkpt>
      <trkpt lat="59.9795276" lon="17.4513631">
        <ele>42.916</ele>
        <time>2013-05-05T10:32:36Z</time>
      </trkpt>
      <trkpt lat="59.9795756" lon="17.4512839">
        <ele>42.916</ele>
        <time>2013-05-05T10:32:37Z</time>
      </trkpt>
      <trkpt lat="59.9796243" lon="17.4512045">
        <ele>42.4354</ele>
        <time>2013-05-05T10:32:38Z</time>
      </trkpt>
      <trkpt lat="59.9796747" lon="17.4511232">
        <ele>42.4354</ele>
        <time>2013-05-05T10:32:39Z</time>
      </trkpt>
      <trkpt lat="59.9797224" lon="17.4510371">
        <ele>42.4354</ele>
        <time>2013-05-05T10:32:40Z</time>
      </trkpt>
      <trkpt lat="59.9797685" lon="17.4509471">
        <ele>42.4354</ele>
        <time>2013-05-05T10:32:41Z</time>
      </trkpt>
      <trkpt lat="59.9798163" lon="17.4508557">
        <ele>42.916</ele>
        <time>2013-05-05T10:32:42Z</time>
      </trkpt>
      <trkpt lat="59.9798642" lon="17.4507632">
        <ele>42.916</ele>
        <time>2013-05-05T10:32:43Z</time>
      </trkpt>
      <trkpt lat="59.9799113" lon="17.4506725">
        <ele>42.916</ele>
        <time>2013-05-05T10:32:44Z</time>
      </trkpt>
      <trkpt lat="59.9799605" lon="17.4505803">
        <ele>42.916</ele>
        <time>2013-05-05T10:32:45Z</time>
      </trkpt>
      <trkpt lat="59.9800088" lon="17.4504846">
        <ele>42.916</ele>
        <time>2013-05-05T10:32:46Z</time>
      </trkpt>
      <trkpt lat="59.9800528" lon="17.450385">
        <ele>42.916</ele>
        <time>2013-05-05T10:32:47Z</time>
      </trkpt>
      <trkpt lat="59.9801" lon="17.4502918">
        <ele>42.916</ele>
        <time>2013-05-05T10:32:48Z</time>
      </trkpt>
      <trkpt lat="59.9801476" lon="17.4502011">
        <ele>42.916</ele>
        <time>2013-05-05T10:32:49Z</time>
      </trkpt>
      <trkpt lat="59.9801954" lon="17.4501116">
        <ele>42.916</ele>
        <time>2013-05-05T10:32:50Z</time>
      </trkpt>
      <trkpt lat="59.980241" lon="17.4500212">
        <ele>42.916</ele>
        <time>2013-05-05T10:32:51Z</time>
      </trkpt>
      <trkpt lat="59.980286" lon="17.4499261">
        <ele>42.916</ele>
        <time>2013-05-05T10:32:52Z</time>
      </trkpt>
      <trkpt lat="59.9803274" lon="17.44983">
        <ele>42.916</ele>
        <time>2013-05-05T10:32:53Z</time>
      </trkpt>
      <trkpt lat="59.9803694" lon="17.4497381">
        <ele>42.4354</ele>
        <time>2013-05-05T10:32:54Z</time>
      </trkpt>
      <trkpt lat="59.980411" lon="17.4496472">
        <ele>42.4354</ele>
        <time>2013-05-05T10:32:55Z</time>
      </trkpt>
      <trkpt lat="59.9804508" lon="17.4495534">
        <ele>42.4354</ele>
        <time>2013-05-05T10:32:56Z</time>
      </trkpt>
      <trkpt lat="59.9804927" lon="17.449463">
        <ele>42.4354</ele>
        <time>2013-05-05T10:32:57Z</time>
      </trkpt>
      <trkpt lat="59.9805347" lon="17.4493722">
        <ele>42.4354</ele>
        <time>2013-05-05T10:32:58Z</time>
      </trkpt>
      <trkpt lat="59.9805775" lon="17.4492807">
        <ele>42.4354</ele>
        <time>2013-05-05T10:32:59Z</time>
      </trkpt>
      <trkpt lat="59.9806206" lon="17.4491883">
        <ele>42.4354</ele>
        <time>2013-05-05T10:33:00Z</time>
      </trkpt>
      <trkpt lat="59.9806652" lon="17.4490948">
        <ele>42.4354</ele>
        <time>2013-05-05T10:33:01Z</time>
      </trkpt>
      <trkpt lat="59.9807108" lon="17.4490005">
        <ele>42.916</ele>
        <time>2013-05-05T10:33:02Z</time>
      </trkpt>
      <trkpt lat="59.9807579" lon="17.448906">
        <ele>42.916</ele>
        <time>2013-05-05T10:33:03Z</time>
      </trkpt>
      <trkpt lat="59.9808035" lon="17.4488109">
        <ele>42.916</ele>
        <time>2013-05-05T10:33:04Z</time>
      </trkpt>
      <trkpt lat="59.9808481" lon="17.4487163">
        <ele>43.3966</ele>
        <time>2013-05-05T10:33:05Z</time>
      </trkpt>
      <trkpt lat="59.9808916" lon="17.4486237">
        <ele>43.3966</ele>
        <time>2013-05-05T10:33:06Z</time>
      </trkpt>
      <trkpt lat="59.9809339" lon="17.4485361">
        <ele>43.3966</ele>
        <time>2013-05-05T10:33:07Z</time>
      </trkpt>
      <trkpt lat="59.9809758" lon="17.4484481">
        <ele>43.8773</ele>
        <time>2013-05-05T10:33:08Z</time>
      </trkpt>
      <trkpt lat="59.9810159" lon="17.4483596">
        <ele>43.8773</ele>
        <time>2013-05-05T10:33:09Z</time>
      </trkpt>
      <trkpt lat="59.9810547" lon="17.4482708">
        <ele>43.8773</ele>
        <time>2013-05-05T10:33:10Z</time>
      </trkpt>
      <trkpt lat="59.981095" lon="17.4481819">
        <ele>43.8773</ele>
        <time>2013-05-05T10:33:11Z</time>
      </trkpt>
      <trkpt lat="59.9811336" lon="17.4480888">
        <ele>43.3966</ele>
        <time>2013-05-05T10:33:12Z</time>
      </trkpt>
      <trkpt lat="59.9811753" lon="17.447996">
        <ele>43.3966</ele>
        <time>2013-05-05T10:33:13Z</time>
      </trkpt>
      <trkpt lat="59.9812164" lon="17.4479051">
        <ele>43.3966</ele>
        <time>2013-05-05T10:33:14Z</time>
      </trkpt>
      <trkpt lat="59.9812546" lon="17.4478147">
        <ele>43.3966</ele>
        <time>2013-05-05T10:33:15Z</time>
      </trkpt>
      <trkpt lat="59.9812899" lon="17.447727">
        <ele>43.3966</ele>
        <time>2013-05-05T10:33:16Z</time>
      </trkpt>
      <trkpt lat="59.9813247" lon="17.4476412">
        <ele>43.3966</ele>
        <time>2013-05-05T10:33:17Z</time>
      </trkpt>
      <trkpt lat="59.9813594" lon="17.4475537">
        <ele>44.358</ele>
        <time>2013-05-05T10:33:18Z</time>
      </trkpt>
      <trkpt lat="59.9813925" lon="17.4474701">
        <ele>44.358</ele>
        <time>2013-05-05T10:33:19Z</time>
      </trkpt>
      <trkpt lat="59.9814249" lon="17.4473929">
        <ele>44.358</ele>
        <time>2013-05-05T10:33:20Z</time>
      </trkpt>
      <trkpt lat="59.9814567" lon="17.4473178">
        <ele>44.8386</ele>
        <time>2013-05-05T10:33:21Z</time>
      </trkpt>
      <trkpt lat="59.9814863" lon="17.4472432">
        <ele>44.8386</ele>
        <time>2013-05-05T10:33:22Z</time>
      </trkpt>
      <trkpt lat="59.9815132" lon="17.4471666">
        <ele>45.3192</ele>
        <time>2013-05-05T10:33:23Z</time>
      </trkpt>
      <trkpt lat="59.9815395" lon="17.4470872">
        <ele>45.3192</ele>
        <time>2013-05-05T10:33:24Z</time>
      </trkpt>
      <trkpt lat="59.9815665" lon="17.4470066">
        <ele>45.3192</ele>
        <time>2013-05-05T10:33:25Z</time>
      </trkpt>
      <trkpt lat="59.9815958" lon="17.4469271">
        <ele>45.7999</ele>
        <time>2013-05-05T10:33:26Z</time>
      </trkpt>
      <trkpt lat="59.9816255" lon="17.4468459">
        <ele>45.7999</ele>
        <time>2013-05-05T10:33:27Z</time>
      </trkpt>
      <trkpt lat="59.9816541" lon="17.4467601">
        <ele>45.7999</ele>
        <time>2013-05-05T10:33:28Z</time>
      </trkpt>
      <trkpt lat="59.981682" lon="17.4466754">
        <ele>45.7999</ele>
        <time>2013-05-05T10:33:29Z</time>
      </trkpt>
      <trkpt lat="59.9817122" lon="17.4465885">
        <ele>46.2806</ele>
        <time>2013-05-05T10:33:30Z</time>
      </trkpt>
      <trkpt lat="59.9817438" lon="17.4464995">
        <ele>46.2806</ele>
        <time>2013-05-05T10:33:31Z</time>
      </trkpt>
      <trkpt lat="59.9817774" lon="17.4464089">
        <ele>46.2806</ele>
        <time>2013-05-05T10:33:32Z</time>
      </trkpt>
      <trkpt lat="59.9818121" lon="17.4463192">
        <ele>46.2806</ele>
        <time>2013-05-05T10:33:33Z</time>
      </trkpt>
      <trkpt lat="59.9818486" lon="17.4462305">
        <ele>46.2806</ele>
        <time>2013-05-05T10:33:34Z</time>
      </trkpt>
      <trkpt lat="59.9818857" lon="17.4461436">
        <ele>46.2806</ele>
        <time>2013-05-05T10:33:35Z</time>
      </trkpt>
      <trkpt lat="59.9819246" lon="17.4460608">
        <ele>46.7612</ele>
        <time>2013-05-05T10:33:36Z</time>
      </trkpt>
      <trkpt lat="59.9819638" lon="17.4459803">
        <ele>46.7612</ele>
        <time>2013-05-05T10:33:37Z</time>
      </trkpt>
      <trkpt lat="59.9820026" lon="17.4459037">
        <ele>47.2418</ele>
        <time>2013-05-05T10:33:38Z</time>
      </trkpt>
      <trkpt lat="59.9820427" lon="17.4458322">
        <ele>47.7225</ele>
        <time>2013-05-05T10:33:39Z</time>
      </trkpt>
      <trkpt lat="59.9820829" lon="17.4457621">
        <ele>47.7225</ele>
        <time>2013-05-05T10:33:40Z</time>
      </trkpt>
      <trkpt lat="59.9821249" lon="17.4456935">
        <ele>48.2034</ele>
        <time>2013-05-05T10:33:41Z</time>
      </trkpt>
      <trkpt lat="59.9821672" lon="17.4456251">
        <ele>47.7225</ele>
        <time>2013-05-05T10:33:42Z</time>
      </trkpt>
      <trkpt lat="59.9822103" lon="17.4455556">
        <ele>47.7225</ele>
        <time>2013-05-05T10:33:43Z</time>
      </trkpt>
      <trkpt lat="59.9822561" lon="17.4454813">
        <ele>48.2034</ele>
        <time>2013-05-05T10:33:44Z</time>
      </trkpt>
      <trkpt lat="59.9823057" lon="17.4454059">
        <ele>48.2034</ele>
        <time>2013-05-05T10:33:45Z</time>
      </trkpt>
      <trkpt lat="59.9823576" lon="17.4453291">
        <ele>48.2034</ele>
        <time>2013-05-05T10:33:46Z</time>
      </trkpt>
      <trkpt lat="59.9824117" lon="17.4452522">
        <ele>47.7225</ele>
        <time>2013-05-05T10:33:47Z</time>
      </trkpt>
      <trkpt lat="59.9824673" lon="17.4451734">
        <ele>47.7225</ele>
        <time>2013-05-05T10:33:48Z</time>
      </trkpt>
      <trkpt lat="59.9825247" lon="17.4450932">
        <ele>47.2418</ele>
        <time>2013-05-05T10:33:49Z</time>
      </trkpt>
      <trkpt lat="59.9825828" lon="17.4450086">
        <ele>46.7612</ele>
        <time>2013-05-05T10:33:50Z</time>
      </trkpt>
      <trkpt lat="59.9826441" lon="17.4449225">
        <ele>46.7612</ele>
        <time>2013-05-05T10:33:51Z</time>
      </trkpt>
      <trkpt lat="59.9827063" lon="17.4448334">
        <ele>46.2806</ele>
        <time>2013-05-05T10:33:52Z</time>
      </trkpt>
      <trkpt lat="59.9827697" lon="17.4447388">
        <ele>46.2806</ele>
        <time>2013-05-05T10:33:53Z</time>
      </trkpt>
      <trkpt lat="59.9828342" lon="17.4446432">
        <ele>46.2806</ele>
        <time>2013-05-05T10:33:54Z</time>
      </trkpt>
      <trkpt lat="59.9828997" lon="17.4445472">
        <ele>46.2806</ele>
        <time>2013-05-05T10:33:55Z</time>
      </trkpt>
      <trkpt lat="59.9829657" lon="17.4444526">
        <ele>46.2806</ele>
        <time>2013-05-05T10:33:56Z</time>
      </trkpt>
      <trkpt lat="59.9830297" lon="17.4443576">
        <ele>46.2806</ele>
        <time>2013-05-05T10:33:57Z</time>
      </trkpt>
      <trkpt lat="59.9830905" lon="17.4442633">
        <ele>46.7612</ele>
        <time>2013-05-05T10:33:58Z</time>
      </trkpt>
      <trkpt lat="59.983149" lon="17.4441718">
        <ele>46.2806</ele>
        <time>2013-05-05T10:33:59Z</time>
      </trkpt>
      <trkpt lat="59.9832055" lon="17.444085">
        <ele>46.2806</ele>
        <time>2013-05-05T10:34:00Z</time>
      </trkpt>
      <trkpt lat="59.9832599" lon="17.4440029">
        <ele>46.2806</ele>
        <time>2013-05-05T10:34:01Z</time>
      </trkpt>
      <trkpt lat="59.983313" lon="17.4439229">
        <ele>46.7612</ele>
        <time>2013-05-05T10:34:02Z</time>
      </trkpt>
      <trkpt lat="59.9833649" lon="17.4438427">
        <ele>46.7612</ele>
        <time>2013-05-05T10:34:03Z</time>
      </trkpt>
      <trkpt lat="59.9834177" lon="17.4437632">
        <ele>46.7612</ele>
        <time>2013-05-05T10:34:04Z</time>
      </trkpt>
      <trkpt lat="59.9834712" lon="17.4436834">
        <ele>46.7612</ele>
        <time>2013-05-05T10:34:05Z</time>
      </trkpt>
      <trkpt lat="59.9835247" lon="17.4436022">
        <ele>46.2806</ele>
        <time>2013-05-05T10:34:06Z</time>
      </trkpt>
      <trkpt lat="59.9835785" lon="17.4435194">
        <ele>46.2806</ele>
        <time>2013-05-05T10:34:07Z</time>
      </trkpt>
      <trkpt lat="59.9836322" lon="17.443435">
        <ele>46.2806</ele>
        <time>2013-05-05T10:34:08Z</time>
      </trkpt>
      <trkpt lat="59.9836861" lon="17.4433497">
        <ele>46.2806</ele>
        <time>2013-05-05T10:34:09Z</time>
      </trkpt>
      <trkpt lat="59.9837411" lon="17.4432625">
        <ele>46.2806</ele>
        <time>2013-05-05T10:34:10Z</time>
      </trkpt>
      <trkpt lat="59.9837964" lon="17.4431733">
        <ele>45.7999</ele>
        <time>2013-05-05T10:34:11Z</time>
      </trkpt>
      <trkpt lat="59.9838515" lon="17.4430811">
        <ele>45.7999</ele>
        <time>2013-05-05T10:34:12Z</time>
      </trkpt>
      <trkpt lat="59.9839053" lon="17.4429856">
        <ele>45.7999</ele>
        <time>2013-05-05T10:34:13Z</time>
      </trkpt>
      <trkpt lat="59.9839569" lon="17.4428863">
        <ele>45.7999</ele>
        <time>2013-05-05T10:34:14Z</time>
      </trkpt>
      <trkpt lat="59.9840068" lon="17.4427847">
        <ele>45.7999</ele>
        <time>2013-05-05T10:34:15Z</time>
      </trkpt>
      <trkpt lat="59.9840554" lon="17.4426831">
        <ele>45.7999</ele>
        <time>2013-05-05T10:34:16Z</time>
      </trkpt>
      <trkpt lat="59.984102" lon="17.4425794">
        <ele>45.7999</ele>
        <time>2013-05-05T10:34:17Z</time>
      </trkpt>
      <trkpt lat="59.9841474" lon="17.4424751">
        <ele>45.7999</ele>
        <time>2013-05-05T10:34:18Z</time>
      </trkpt>
      <trkpt lat="59.9841911" lon="17.4423688">
        <ele>45.7999</ele>
        <time>2013-05-05T10:34:19Z</time>
      </trkpt>
      <trkpt lat="59.9842336" lon="17.4422612">
        <ele>45.7999</ele>
        <time>2013-05-05T10:34:20Z</time>
      </trkpt>
      <trkpt lat="59.9842762" lon="17.4421524">
        <ele>45.7999</ele>
        <time>2013-05-05T10:34:21Z</time>
      </trkpt>
      <trkpt lat="59.9843198" lon="17.4420421">
        <ele>45.3192</ele>
        <time>2013-05-05T10:34:22Z</time>
      </trkpt>
      <trkpt lat="59.9843634" lon="17.4419285">
        <ele>45.3192</ele>
        <time>2013-05-05T10:34:23Z</time>
      </trkpt>
      <trkpt lat="59.9844072" lon="17.441812">
        <ele>45.3192</ele>
        <time>2013-05-05T10:34:24Z</time>
      </trkpt>
      <trkpt lat="59.9844514" lon="17.4416942">
        <ele>44.8386</ele>
        <time>2013-05-05T10:34:25Z</time>
      </trkpt>
      <trkpt lat="59.9844963" lon="17.4415755">
        <ele>44.8386</ele>
        <time>2013-05-05T10:34:26Z</time>
      </trkpt>
      <trkpt lat="59.9845415" lon="17.4414562">
        <ele>44.8386</ele>
        <time>2013-05-05T10:34:27Z</time>
      </trkpt>
      <trkpt lat="59.9845871" lon="17.4413381">
        <ele>44.8386</ele>
        <time>2013-05-05T10:34:28Z</time>
      </trkpt>
      <trkpt lat="59.9846326" lon="17.4412219">
        <ele>44.358</ele>
        <time>2013-05-05T10:34:29Z</time>
      </trkpt>
      <trkpt lat="59.9846772" lon="17.4411038">
        <ele>44.8386</ele>
        <time>2013-05-05T10:34:30Z</time>
      </trkpt>
      <trkpt lat="59.984721" lon="17.4409876">
        <ele>44.8386</ele>
        <time>2013-05-05T10:34:31Z</time>
      </trkpt>
      <trkpt lat="59.9847642" lon="17.4408731">
        <ele>44.8386</ele>
        <time>2013-05-05T10:34:32Z</time>
      </trkpt>
      <trkpt lat="59.9848071" lon="17.4407613">
        <ele>44.8386</ele>
        <time>2013-05-05T10:34:33Z</time>
      </trkpt>
      <trkpt lat="59.9848497" lon="17.4406491">
        <ele>44.8386</ele>
        <time>2013-05-05T10:34:34Z</time>
      </trkpt>
      <trkpt lat="59.9848909" lon="17.4405361">
        <ele>44.8386</ele>
        <time>2013-05-05T10:34:35Z</time>
      </trkpt>
      <trkpt lat="59.9849314" lon="17.4404221">
        <ele>44.8386</ele>
        <time>2013-05-05T10:34:36Z</time>
      </trkpt>
      <trkpt lat="59.9849735" lon="17.4403109">
        <ele>44.8386</ele>
        <time>2013-05-05T10:34:37Z</time>
      </trkpt>
      <trkpt lat="59.9850165" lon="17.4402003">
        <ele>44.8386</ele>
        <time>2013-05-05T10:34:38Z</time>
      </trkpt>
      <trkpt lat="59.9850585" lon="17.4400884">
        <ele>44.8386</ele>
        <time>2013-05-05T10:34:39Z</time>
      </trkpt>
      <trkpt lat="59.9851007" lon="17.4399761">
        <ele>44.8386</ele>
        <time>2013-05-05T10:34:40Z</time>
      </trkpt>
      <trkpt lat="59.9851429" lon="17.439863">
        <ele>44.8386</ele>
        <time>2013-05-05T10:34:41Z</time>
      </trkpt>
      <trkpt lat="59.9851852" lon="17.4397497">
        <ele>44.8386</ele>
        <time>2013-05-05T10:34:42Z</time>
      </trkpt>
      <trkpt lat="59.9852289" lon="17.4396368">
        <ele>44.8386</ele>
        <time>2013-05-05T10:34:43Z</time>
      </trkpt>
      <trkpt lat="59.9852733" lon="17.4395242">
        <ele>44.358</ele>
        <time>2013-05-05T10:34:44Z</time>
      </trkpt>
      <trkpt lat="59.9853179" lon="17.43941">
        <ele>44.358</ele>
        <time>2013-05-05T10:34:45Z</time>
      </trkpt>
      <trkpt lat="59.9853625" lon="17.4392934">
        <ele>44.358</ele>
        <time>2013-05-05T10:34:46Z</time>
      </trkpt>
      <trkpt lat="59.9854071" lon="17.4391772">
        <ele>44.358</ele>
        <time>2013-05-05T10:34:47Z</time>
      </trkpt>
      <trkpt lat="59.9854511" lon="17.439064">
        <ele>44.358</ele>
        <time>2013-05-05T10:34:48Z</time>
      </trkpt>
      <trkpt lat="59.9854946" lon="17.4389536">
        <ele>44.358</ele>
        <time>2013-05-05T10:34:49Z</time>
      </trkpt>
      <trkpt lat="59.9855377" lon="17.4388433">
        <ele>44.358</ele>
        <time>2013-05-05T10:34:50Z</time>
      </trkpt>
      <trkpt lat="59.9855791" lon="17.4387265">
        <ele>44.8386</ele>
        <time>2013-05-05T10:34:51Z</time>
      </trkpt>
      <trkpt lat="59.9856203" lon="17.4386138">
        <ele>45.3192</ele>
        <time>2013-05-05T10:34:52Z</time>
      </trkpt>
      <trkpt lat="59.9856583" lon="17.4384971">
        <ele>45.7999</ele>
        <time>2013-05-05T10:34:53Z</time>
      </trkpt>
      <trkpt lat="59.9856914" lon="17.4383792">
        <ele>45.7999</ele>
        <time>2013-05-05T10:34:54Z</time>
      </trkpt>
      <trkpt lat="59.9857247" lon="17.4382657">
        <ele>46.2806</ele>
        <time>2013-05-05T10:34:55Z</time>
      </trkpt>
      <trkpt lat="59.9857544" lon="17.4381486">
        <ele>46.2806</ele>
        <time>2013-05-05T10:34:56Z</time>
      </trkpt>
      <trkpt lat="59.9857848" lon="17.4380315">
        <ele>46.7612</ele>
        <time>2013-05-05T10:34:57Z</time>
      </trkpt>
      <trkpt lat="59.9858127" lon="17.4379088">
        <ele>46.7612</ele>
        <time>2013-05-05T10:34:58Z</time>
      </trkpt>
      <trkpt lat="59.9858404" lon="17.4377855">
        <ele>47.2418</ele>
        <time>2013-05-05T10:34:59Z</time>
      </trkpt>
      <trkpt lat="59.9858656" lon="17.4376601">
        <ele>47.2418</ele>
        <time>2013-05-05T10:35:00Z</time>
      </trkpt>
      <trkpt lat="59.9858892" lon="17.4375318">
        <ele>47.2418</ele>
        <time>2013-05-05T10:35:01Z</time>
      </trkpt>
      <trkpt lat="59.9859116" lon="17.4374032">
        <ele>46.7612</ele>
        <time>2013-05-05T10:35:02Z</time>
      </trkpt>
      <trkpt lat="59.9859366" lon="17.4372771">
        <ele>47.2418</ele>
        <time>2013-05-05T10:35:03Z</time>
      </trkpt>
      <trkpt lat="59.9859616" lon="17.4371513">
        <ele>47.7225</ele>
        <time>2013-05-05T10:35:04Z</time>
      </trkpt>
      <trkpt lat="59.9859853" lon="17.4370233">
        <ele>47.7225</ele>
        <time>2013-05-05T10:35:05Z</time>
      </trkpt>
      <trkpt lat="59.9860083" lon="17.4368955">
        <ele>47.7225</ele>
        <time>2013-05-05T10:35:06Z</time>
      </trkpt>
      <trkpt lat="59.9860302" lon="17.4367655">
        <ele>47.7225</ele>
        <time>2013-05-05T10:35:07Z</time>
      </trkpt>
      <trkpt lat="59.9860551" lon="17.4366391">
        <ele>48.2034</ele>
        <time>2013-05-05T10:35:08Z</time>
      </trkpt>
      <trkpt lat="59.986081" lon="17.4365215">
        <ele>48.684</ele>
        <time>2013-05-05T10:35:09Z</time>
      </trkpt>
      <trkpt lat="59.9861058" lon="17.4364102">
        <ele>48.684</ele>
        <time>2013-05-05T10:35:10Z</time>
      </trkpt>
      <trkpt lat="59.9861316" lon="17.4362977">
        <ele>48.684</ele>
        <time>2013-05-05T10:35:11Z</time>
      </trkpt>
      <trkpt lat="59.986155" lon="17.4361848">
        <ele>48.2034</ele>
        <time>2013-05-05T10:35:12Z</time>
      </trkpt>
      <trkpt lat="59.9861758" lon="17.4360698">
        <ele>47.7225</ele>
        <time>2013-05-05T10:35:13Z</time>
      </trkpt>
      <trkpt lat="59.9862025" lon="17.4359554">
        <ele>47.7225</ele>
        <time>2013-05-05T10:35:14Z</time>
      </trkpt>
      <trkpt lat="59.9862285" lon="17.4358422">
        <ele>47.7225</ele>
        <time>2013-05-05T10:35:15Z</time>
      </trkpt>
      <trkpt lat="59.9862571" lon="17.4357269">
        <ele>47.7225</ele>
        <time>2013-05-05T10:35:16Z</time>
      </trkpt>
      <trkpt lat="59.9862856" lon="17.4356123">
        <ele>47.7225</ele>
        <time>2013-05-05T10:35:17Z</time>
      </trkpt>
      <trkpt lat="59.9863146" lon="17.4355">
        <ele>47.2418</ele>
        <time>2013-05-05T10:35:18Z</time>
      </trkpt>
      <trkpt lat="59.9863442" lon="17.4353916">
        <ele>47.2418</ele>
        <time>2013-05-05T10:35:19Z</time>
      </trkpt>
      <trkpt lat="59.9863737" lon="17.4352874">
        <ele>47.2418</ele>
        <time>2013-05-05T10:35:20Z</time>
      </trkpt>
      <trkpt lat="59.9864053" lon="17.4351928">
        <ele>46.7612</ele>
        <time>2013-05-05T10:35:21Z</time>
      </trkpt>
      <trkpt lat="59.9864375" lon="17.435097">
        <ele>46.7612</ele>
        <time>2013-05-05T10:35:22Z</time>
      </trkpt>
      <trkpt lat="59.9864705" lon="17.4350007">
        <ele>46.7612</ele>
        <time>2013-05-05T10:35:23Z</time>
      </trkpt>
      <trkpt lat="59.9865037" lon="17.4349017">
        <ele>46.2806</ele>
        <time>2013-05-05T10:35:24Z</time>
      </trkpt>
      <trkpt lat="59.9865369" lon="17.4348037">
        <ele>46.2806</ele>
        <time>2013-05-05T10:35:25Z</time>
      </trkpt>
      <trkpt lat="59.9865701" lon="17.4346991">
        <ele>46.2806</ele>
        <time>2013-05-05T10:35:26Z</time>
      </trkpt>
      <trkpt lat="59.9866027" lon="17.4345926">
        <ele>45.7999</ele>
        <time>2013-05-05T10:35:27Z</time>
      </trkpt>
      <trkpt lat="59.9866347" lon="17.4344811">
        <ele>45.3192</ele>
        <time>2013-05-05T10:35:28Z</time>
      </trkpt>
      <trkpt lat="59.9866684" lon="17.4343742">
        <ele>45.3192</ele>
        <time>2013-05-05T10:35:29Z</time>
      </trkpt>
      <trkpt lat="59.986702" lon="17.4342666">
        <ele>45.3192</ele>
        <time>2013-05-05T10:35:30Z</time>
      </trkpt>
      <trkpt lat="59.9867368" lon="17.4341625">
        <ele>44.8386</ele>
        <time>2013-05-05T10:35:31Z</time>
      </trkpt>
      <trkpt lat="59.9867713" lon="17.4340544">
        <ele>44.8386</ele>
        <time>2013-05-05T10:35:32Z</time>
      </trkpt>
      <trkpt lat="59.9868047" lon="17.4339429">
        <ele>45.3192</ele>
        <time>2013-05-05T10:35:33Z</time>
      </trkpt>
      <trkpt lat="59.9868398" lon="17.4338354">
        <ele>45.3192</ele>
        <time>2013-05-05T10:35:34Z</time>
      </trkpt>
      <trkpt lat="59.9868755" lon="17.4337294">
        <ele>45.3192</ele>
        <time>2013-05-05T10:35:35Z</time>
      </trkpt>
      <trkpt lat="59.9869122" lon="17.4336233">
        <ele>44.8386</ele>
        <time>2013-05-05T10:35:36Z</time>
      </trkpt>
      <trkpt lat="59.9869496" lon="17.4335098">
        <ele>44.8386</ele>
        <time>2013-05-05T10:35:37Z</time>
      </trkpt>
      <trkpt lat="59.9869901" lon="17.4334057">
        <ele>44.8386</ele>
        <time>2013-05-05T10:35:38Z</time>
      </trkpt>
      <trkpt lat="59.9870295" lon="17.4332958">
        <ele>44.8386</ele>
        <time>2013-05-05T10:35:39Z</time>
      </trkpt>
      <trkpt lat="59.9870683" lon="17.4331844">
        <ele>45.3192</ele>
        <time>2013-05-05T10:35:40Z</time>
      </trkpt>
      <trkpt lat="59.9871071" lon="17.4330767">
        <ele>44.8386</ele>
        <time>2013-05-05T10:35:41Z</time>
      </trkpt>
      <trkpt lat="59.9871461" lon="17.4329644">
        <ele>44.358</ele>
        <time>2013-05-05T10:35:42Z</time>
      </trkpt>
      <trkpt lat="59.9871843" lon="17.4328488">
        <ele>44.8386</ele>
        <time>2013-05-05T10:35:43Z</time>
      </trkpt>
      <trkpt lat="59.9872247" lon="17.4327398">
        <ele>44.358</ele>
        <time>2013-05-05T10:35:44Z</time>
      </trkpt>
      <trkpt lat="59.9872615" lon="17.4326183">
        <ele>45.3192</ele>
        <time>2013-05-05T10:35:45Z</time>
      </trkpt>
      <trkpt lat="59.9872973" lon="17.4325005">
        <ele>45.3192</ele>
        <time>2013-05-05T10:35:46Z</time>
      </trkpt>
      <trkpt lat="59.987334" lon="17.4323852">
        <ele>45.3192</ele>
        <time>2013-05-05T10:35:47Z</time>
      </trkpt>
      <trkpt lat="59.987372" lon="17.4322719">
        <ele>45.3192</ele>
        <time>2013-05-05T10:35:48Z</time>
      </trkpt>
      <trkpt lat="59.9874101" lon="17.4321621">
        <ele>45.3192</ele>
        <time>2013-05-05T10:35:49Z</time>
      </trkpt>
      <trkpt lat="59.9874475" lon="17.4320499">
        <ele>44.8386</ele>
        <time>2013-05-05T10:35:50Z</time>
      </trkpt>
      <trkpt lat="59.9874869" lon="17.4319378">
        <ele>44.8386</ele>
        <time>2013-05-05T10:35:51Z</time>
      </trkpt>
      <trkpt lat="59.9875255" lon="17.4318273">
        <ele>44.8386</ele>
        <time>2013-05-05T10:35:52Z</time>
      </trkpt>
      <trkpt lat="59.987564" lon="17.4317143">
        <ele>45.3192</ele>
        <time>2013-05-05T10:35:53Z</time>
      </trkpt>
      <trkpt lat="59.9876035" lon="17.4316013">
        <ele>45.7999</ele>
        <time>2013-05-05T10:35:54Z</time>
      </trkpt>
      <trkpt lat="59.9876412" lon="17.4314885">
        <ele>45.3192</ele>
        <time>2013-05-05T10:35:55Z</time>
      </trkpt>
      <trkpt lat="59.9876776" lon="17.4313689">
        <ele>45.7999</ele>
        <time>2013-05-05T10:35:56Z</time>
      </trkpt>
      <trkpt lat="59.9877169" lon="17.4312547">
        <ele>45.7999</ele>
        <time>2013-05-05T10:35:57Z</time>
      </trkpt>
      <trkpt lat="59.9877566" lon="17.4311384">
        <ele>45.3192</ele>
        <time>2013-05-05T10:35:58Z</time>
      </trkpt>
      <trkpt lat="59.9877962" lon="17.4310204">
        <ele>45.3192</ele>
        <time>2013-05-05T10:35:59Z</time>
      </trkpt>
      <trkpt lat="59.9878355" lon="17.4309016">
        <ele>45.3192</ele>
        <time>2013-05-05T10:36:00Z</time>
      </trkpt>
      <trkpt lat="59.9878747" lon="17.4307866">
        <ele>45.7999</ele>
        <time>2013-05-05T10:36:01Z</time>
      </trkpt>
      <trkpt lat="59.9879117" lon="17.4306704">
        <ele>45.7999</ele>
        <time>2013-05-05T10:36:02Z</time>
      </trkpt>
      <trkpt lat="59.9879458" lon="17.4305542">
        <ele>46.2806</ele>
        <time>2013-05-05T10:36:03Z</time>
      </trkpt>
      <trkpt lat="59.987979" lon="17.4304459">
        <ele>46.7612</ele>
        <time>2013-05-05T10:36:04Z</time>
      </trkpt>
      <trkpt lat="59.9880111" lon="17.4303396">
        <ele>46.7612</ele>
        <time>2013-05-05T10:36:05Z</time>
      </trkpt>
      <trkpt lat="59.9880426" lon="17.4302366">
        <ele>46.2806</ele>
        <time>2013-05-05T10:36:06Z</time>
      </trkpt>
      <trkpt lat="59.9880707" lon="17.4301292">
        <ele>46.2806</ele>
        <time>2013-05-05T10:36:07Z</time>
      </trkpt>
      <trkpt lat="59.9880959" lon="17.4300208">
        <ele>46.2806</ele>
        <time>2013-05-05T10:36:08Z</time>
      </trkpt>
      <trkpt lat="59.9881195" lon="17.4299103">
        <ele>46.2806</ele>
        <time>2013-05-05T10:36:09Z</time>
      </trkpt>
      <trkpt lat="59.9881378" lon="17.4297955">
        <ele>46.2806</ele>
        <time>2013-05-05T10:36:10Z</time>
      </trkpt>
      <trkpt lat="59.988151" lon="17.4296749">
        <ele>46.2806</ele>
        <time>2013-05-05T10:36:11Z</time>
      </trkpt>
      <trkpt lat="59.9881618" lon="17.4295481">
        <ele>45.7999</ele>
        <time>2013-05-05T10:36:12Z</time>
      </trkpt>
      <trkpt lat="59.9881691" lon="17.4294129">
        <ele>46.2806</ele>
        <time>2013-05-05T10:36:13Z</time>
      </trkpt>
      <trkpt lat="59.9881717" lon="17.4292775">
        <ele>46.2806</ele>
        <time>2013-05-05T10:36:14Z</time>
      </trkpt>
      <trkpt lat="59.9881691" lon="17.4291359">
        <ele>45.7999</ele>
        <time>2013-05-05T10:36:15Z</time>
      </trkpt>
      <trkpt lat="59.9881618" lon="17.4289891">
        <ele>45.7999</ele>
        <time>2013-05-05T10:36:16Z</time>
      </trkpt>
      <trkpt lat="59.9881556" lon="17.4288399">
        <ele>46.2806</ele>
        <time>2013-05-05T10:36:17Z</time>
      </trkpt>
      <trkpt lat="59.9881458" lon="17.4286887">
        <ele>46.7612</ele>
        <time>2013-05-05T10:36:18Z</time>
      </trkpt>
      <trkpt lat="59.9881359" lon="17.4285347">
        <ele>47.2418</ele>
        <time>2013-05-05T10:36:19Z</time>
      </trkpt>
      <trkpt lat="59.9881307" lon="17.4283893">
        <ele>47.2418</ele>
        <time>2013-05-05T10:36:20Z</time>
      </trkpt>
      <trkpt lat="59.988123" lon="17.4282479">
        <ele>47.2418</ele>
        <time>2013-05-05T10:36:21Z</time>
      </trkpt>
      <trkpt lat="59.9881157" lon="17.4281105">
        <ele>47.2418</ele>
        <time>2013-05-05T10:36:22Z</time>
      </trkpt>
      <trkpt lat="59.9881107" lon="17.4279728">
        <ele>47.7225</ele>
        <time>2013-05-05T10:36:23Z</time>
      </trkpt>
      <trkpt lat="59.988106" lon="17.4278379">
        <ele>48.2034</ele>
        <time>2013-05-05T10:36:24Z</time>
      </trkpt>
      <trkpt lat="59.9880992" lon="17.427701">
        <ele>48.684</ele>
        <time>2013-05-05T10:36:25Z</time>
      </trkpt>
      <trkpt lat="59.9880909" lon="17.4275706">
        <ele>48.684</ele>
        <time>2013-05-05T10:36:26Z</time>
      </trkpt>
      <trkpt lat="59.9880839" lon="17.4274439">
        <ele>49.1646</ele>
        <time>2013-05-05T10:36:27Z</time>
      </trkpt>
      <trkpt lat="59.9880779" lon="17.4273165">
        <ele>49.6453</ele>
        <time>2013-05-05T10:36:28Z</time>
      </trkpt>
      <trkpt lat="59.9880694" lon="17.4271942">
        <ele>49.6453</ele>
        <time>2013-05-05T10:36:29Z</time>
      </trkpt>
      <trkpt lat="59.9880607" lon="17.4270666">
        <ele>50.126</ele>
        <time>2013-05-05T10:36:30Z</time>
      </trkpt>
      <trkpt lat="59.9880515" lon="17.4269519">
        <ele>50.126</ele>
        <time>2013-05-05T10:36:31Z</time>
      </trkpt>
      <trkpt lat="59.9880442" lon="17.4268305">
        <ele>50.6066</ele>
        <time>2013-05-05T10:36:32Z</time>
      </trkpt>
      <trkpt lat="59.9880371" lon="17.4267068">
        <ele>51.0872</ele>
        <time>2013-05-05T10:36:33Z</time>
      </trkpt>
      <trkpt lat="59.9880282" lon="17.4265768">
        <ele>51.5679</ele>
        <time>2013-05-05T10:36:34Z</time>
      </trkpt>
      <trkpt lat="59.9880193" lon="17.4264463">
        <ele>52.0486</ele>
        <time>2013-05-05T10:36:35Z</time>
      </trkpt>
      <trkpt lat="59.9880124" lon="17.4263178">
        <ele>52.0486</ele>
        <time>2013-05-05T10:36:36Z</time>
      </trkpt>
      <trkpt lat="59.9880036" lon="17.4261867">
        <ele>52.5292</ele>
        <time>2013-05-05T10:36:37Z</time>
      </trkpt>
      <trkpt lat="59.9879949" lon="17.426052">
        <ele>52.5292</ele>
        <time>2013-05-05T10:36:38Z</time>
      </trkpt>
      <trkpt lat="59.9879874" lon="17.4259192">
        <ele>52.5292</ele>
        <time>2013-05-05T10:36:39Z</time>
      </trkpt>
      <trkpt lat="59.9879816" lon="17.4257913">
        <ele>52.5292</ele>
        <time>2013-05-05T10:36:40Z</time>
      </trkpt>
      <trkpt lat="59.9879788" lon="17.4256656">
        <ele>52.5292</ele>
        <time>2013-05-05T10:36:41Z</time>
      </trkpt>
      <trkpt lat="59.9879759" lon="17.4255383">
        <ele>53.0098</ele>
        <time>2013-05-05T10:36:42Z</time>
      </trkpt>
      <trkpt lat="59.9879744" lon="17.4254162">
        <ele>53.0098</ele>
        <time>2013-05-05T10:36:43Z</time>
      </trkpt>
      <trkpt lat="59.9879666" lon="17.4253003">
        <ele>52.5292</ele>
        <time>2013-05-05T10:36:44Z</time>
      </trkpt>
      <trkpt lat="59.9879618" lon="17.425189">
        <ele>52.5292</ele>
        <time>2013-05-05T10:36:45Z</time>
      </trkpt>
      <trkpt lat="59.9879565" lon="17.4250781">
        <ele>52.5292</ele>
        <time>2013-05-05T10:36:46Z</time>
      </trkpt>
      <trkpt lat="59.9879498" lon="17.4249699">
        <ele>52.5292</ele>
        <time>2013-05-05T10:36:47Z</time>
      </trkpt>
      <trkpt lat="59.9879451" lon="17.4248647">
        <ele>53.0098</ele>
        <time>2013-05-05T10:36:48Z</time>
      </trkpt>
      <trkpt lat="59.9879395" lon="17.4247606">
        <ele>53.0098</ele>
        <time>2013-05-05T10:36:49Z</time>
      </trkpt>
      <trkpt lat="59.9879332" lon="17.4246565">
        <ele>53.0098</ele>
        <time>2013-05-05T10:36:50Z</time>
      </trkpt>
      <trkpt lat="59.9879297" lon="17.4245546">
        <ele>53.4905</ele>
        <time>2013-05-05T10:36:51Z</time>
      </trkpt>
      <trkpt lat="59.9879278" lon="17.4244488">
        <ele>53.4905</ele>
        <time>2013-05-05T10:36:52Z</time>
      </trkpt>
      <trkpt lat="59.9879254" lon="17.4243352">
        <ele>53.9712</ele>
        <time>2013-05-05T10:36:53Z</time>
      </trkpt>
      <trkpt lat="59.9879195" lon="17.4242177">
        <ele>54.4518</ele>
        <time>2013-05-05T10:36:54Z</time>
      </trkpt>
      <trkpt lat="59.987913" lon="17.424092">
        <ele>54.4518</ele>
        <time>2013-05-05T10:36:55Z</time>
      </trkpt>
      <trkpt lat="59.9879075" lon="17.4239627">
        <ele>54.9324</ele>
        <time>2013-05-05T10:36:56Z</time>
      </trkpt>
      <trkpt lat="59.9879009" lon="17.4238267">
        <ele>54.9324</ele>
        <time>2013-05-05T10:36:57Z</time>
      </trkpt>
      <trkpt lat="59.9878941" lon="17.423684">
        <ele>54.4518</ele>
        <time>2013-05-05T10:36:58Z</time>
      </trkpt>
      <trkpt lat="59.9878876" lon="17.4235371">
        <ele>54.9324</ele>
        <time>2013-05-05T10:36:59Z</time>
      </trkpt>
      <trkpt lat="59.9878812" lon="17.4233889">
        <ele>54.9324</ele>
        <time>2013-05-05T10:37:00Z</time>
      </trkpt>
      <trkpt lat="59.9878754" lon="17.4232419">
        <ele>54.4518</ele>
        <time>2013-05-05T10:37:01Z</time>
      </trkpt>
      <trkpt lat="59.9878697" lon="17.4230935">
        <ele>54.4518</ele>
        <time>2013-05-05T10:37:02Z</time>
      </trkpt>
      <trkpt lat="59.9878639" lon="17.4229436">
        <ele>54.4518</ele>
        <time>2013-05-05T10:37:03Z</time>
      </trkpt>
      <trkpt lat="59.9878563" lon="17.4227917">
        <ele>54.4518</ele>
        <time>2013-05-05T10:37:04Z</time>
      </trkpt>
      <trkpt lat="59.987849" lon="17.4226394">
        <ele>54.4518</ele>
        <time>2013-05-05T10:37:05Z</time>
      </trkpt>
      <trkpt lat="59.9878427" lon="17.4224891">
        <ele>54.4518</ele>
        <time>2013-05-05T10:37:06Z</time>
      </trkpt>
      <trkpt lat="59.987836" lon="17.4223431">
        <ele>54.9324</ele>
        <time>2013-05-05T10:37:07Z</time>
      </trkpt>
      <trkpt lat="59.9878303" lon="17.4222018">
        <ele>54.9324</ele>
        <time>2013-05-05T10:37:08Z</time>
      </trkpt>
      <trkpt lat="59.9878239" lon="17.4220619">
        <ele>55.4131</ele>
        <time>2013-05-05T10:37:09Z</time>
      </trkpt>
      <trkpt lat="59.9878174" lon="17.4219274">
        <ele>55.4131</ele>
        <time>2013-05-05T10:37:10Z</time>
      </trkpt>
      <trkpt lat="59.98781" lon="17.4217925">
        <ele>54.9324</ele>
        <time>2013-05-05T10:37:11Z</time>
      </trkpt>
      <trkpt lat="59.9878026" lon="17.4216558">
        <ele>54.9324</ele>
        <time>2013-05-05T10:37:12Z</time>
      </trkpt>
      <trkpt lat="59.9877955" lon="17.4215132">
        <ele>54.4518</ele>
        <time>2013-05-05T10:37:13Z</time>
      </trkpt>
      <trkpt lat="59.9877878" lon="17.4213646">
        <ele>53.9712</ele>
        <time>2013-05-05T10:37:14Z</time>
      </trkpt>
      <trkpt lat="59.9877806" lon="17.4212122">
        <ele>53.4905</ele>
        <time>2013-05-05T10:37:15Z</time>
      </trkpt>
      <trkpt lat="59.9877745" lon="17.4210575">
        <ele>53.4905</ele>
        <time>2013-05-05T10:37:16Z</time>
      </trkpt>
      <trkpt lat="59.9877679" lon="17.4209004">
        <ele>53.0098</ele>
        <time>2013-05-05T10:37:17Z</time>
      </trkpt>
      <trkpt lat="59.9877598" lon="17.4207409">
        <ele>53.0098</ele>
        <time>2013-05-05T10:37:18Z</time>
      </trkpt>
      <trkpt lat="59.9877514" lon="17.4205796">
        <ele>53.0098</ele>
        <time>2013-05-05T10:37:19Z</time>
      </trkpt>
      <trkpt lat="59.9877439" lon="17.4204228">
        <ele>52.5292</ele>
        <time>2013-05-05T10:37:20Z</time>
      </trkpt>
      <trkpt lat="59.9877365" lon="17.4202695">
        <ele>52.0486</ele>
        <time>2013-05-05T10:37:21Z</time>
      </trkpt>
      <trkpt lat="59.9877288" lon="17.4201159">
        <ele>51.5679</ele>
        <time>2013-05-05T10:37:22Z</time>
      </trkpt>
      <trkpt lat="59.9877206" lon="17.4199608">
        <ele>51.5679</ele>
        <time>2013-05-05T10:37:23Z</time>
      </trkpt>
      <trkpt lat="59.9877117" lon="17.4198064">
        <ele>51.5679</ele>
        <time>2013-05-05T10:37:24Z</time>
      </trkpt>
      <trkpt lat="59.9877044" lon="17.4196532">
        <ele>51.0872</ele>
        <time>2013-05-05T10:37:25Z</time>
      </trkpt>
      <trkpt lat="59.9876983" lon="17.4194988">
        <ele>50.6066</ele>
        <time>2013-05-05T10:37:26Z</time>
      </trkpt>
      <trkpt lat="59.9876921" lon="17.4193405">
        <ele>50.126</ele>
        <time>2013-05-05T10:37:27Z</time>
      </trkpt>
      <trkpt lat="59.9876849" lon="17.4191816">
        <ele>49.6453</ele>
        <time>2013-05-05T10:37:28Z</time>
      </trkpt>
      <trkpt lat="59.9876775" lon="17.4190219">
        <ele>48.684</ele>
        <time>2013-05-05T10:37:29Z</time>
      </trkpt>
      <trkpt lat="59.9876702" lon="17.4188584">
        <ele>48.2034</ele>
        <time>2013-05-05T10:37:30Z</time>
      </trkpt>
      <trkpt lat="59.9876625" lon="17.4186896">
        <ele>47.7225</ele>
        <time>2013-05-05T10:37:31Z</time>
      </trkpt>
      <trkpt lat="59.9876546" lon="17.4185189">
        <ele>46.7612</ele>
        <time>2013-05-05T10:37:32Z</time>
      </trkpt>
      <trkpt lat="59.9876458" lon="17.4183454">
        <ele>46.2806</ele>
        <time>2013-05-05T10:37:33Z</time>
      </trkpt>
      <trkpt lat="59.9876375" lon="17.418169">
        <ele>45.7999</ele>
        <time>2013-05-05T10:37:34Z</time>
      </trkpt>
      <trkpt lat="59.9876286" lon="17.4179891">
        <ele>45.3192</ele>
        <time>2013-05-05T10:37:35Z</time>
      </trkpt>
      <trkpt lat="59.98762" lon="17.4178079">
        <ele>44.8386</ele>
        <time>2013-05-05T10:37:36Z</time>
      </trkpt>
      <trkpt lat="59.9876117" lon="17.4176251">
        <ele>44.8386</ele>
        <time>2013-05-05T10:37:37Z</time>
      </trkpt>
      <trkpt lat="59.9876033" lon="17.4174416">
        <ele>44.8386</ele>
        <time>2013-05-05T10:37:38Z</time>
      </trkpt>
      <trkpt lat="59.987595" lon="17.4172571">
        <ele>44.8386</ele>
        <time>2013-05-05T10:37:39Z</time>
      </trkpt>
      <trkpt lat="59.9875874" lon="17.4170745">
        <ele>44.358</ele>
        <time>2013-05-05T10:37:40Z</time>
      </trkpt>
      <trkpt lat="59.9875801" lon="17.4168947">
        <ele>44.358</ele>
        <time>2013-05-05T10:37:41Z</time>
      </trkpt>
      <trkpt lat="59.9875716" lon="17.4167154">
        <ele>44.358</ele>
        <time>2013-05-05T10:37:42Z</time>
      </trkpt>
      <trkpt lat="59.987563" lon="17.4165365">
        <ele>44.358</ele>
        <time>2013-05-05T10:37:43Z</time>
      </trkpt>
      <trkpt lat="59.9875552" lon="17.4163589">
        <ele>44.358</ele>
        <time>2013-05-05T10:37:44Z</time>
      </trkpt>
      <trkpt lat="59.9875471" lon="17.4161839">
        <ele>44.358</ele>
        <time>2013-05-05T10:37:45Z</time>
      </trkpt>
      <trkpt lat="59.9875392" lon="17.4160112">
        <ele>44.358</ele>
        <time>2013-05-05T10:37:46Z</time>
      </trkpt>
      <trkpt lat="59.9875313" lon="17.4158405">
        <ele>44.358</ele>
        <time>2013-05-05T10:37:47Z</time>
      </trkpt>
      <trkpt lat="59.9875231" lon="17.415672">
        <ele>44.358</ele>
        <time>2013-05-05T10:37:48Z</time>
      </trkpt>
      <trkpt lat="59.9875155" lon="17.4155058">
        <ele>44.358</ele>
        <time>2013-05-05T10:37:49Z</time>
      </trkpt>
      <trkpt lat="59.9875091" lon="17.4153426">
        <ele>44.358</ele>
        <time>2013-05-05T10:37:50Z</time>
      </trkpt>
      <trkpt lat="59.9875022" lon="17.4151827">
        <ele>44.358</ele>
        <time>2013-05-05T10:37:51Z</time>
      </trkpt>
      <trkpt lat="59.9874953" lon="17.4150257">
        <ele>44.358</ele>
        <time>2013-05-05T10:37:52Z</time>
      </trkpt>
      <trkpt lat="59.9874895" lon="17.4148695">
        <ele>44.358</ele>
        <time>2013-05-05T10:37:53Z</time>
      </trkpt>
      <trkpt lat="59.9874841" lon="17.4147139">
        <ele>44.8386</ele>
        <time>2013-05-05T10:37:54Z</time>
      </trkpt>
      <trkpt lat="59.9874785" lon="17.4145624">
        <ele>44.8386</ele>
        <time>2013-05-05T10:37:55Z</time>
      </trkpt>
      <trkpt lat="59.9874725" lon="17.414414">
        <ele>44.8386</ele>
        <time>2013-05-05T10:37:56Z</time>
      </trkpt>
      <trkpt lat="59.9874661" lon="17.4142679">
        <ele>44.8386</ele>
        <time>2013-05-05T10:37:57Z</time>
      </trkpt>
      <trkpt lat="59.9874588" lon="17.4141246">
        <ele>44.8386</ele>
        <time>2013-05-05T10:37:58Z</time>
      </trkpt>
      <trkpt lat="59.9874512" lon="17.4139825">
        <ele>44.358</ele>
        <time>2013-05-05T10:37:59Z</time>
      </trkpt>
      <trkpt lat="59.9874449" lon="17.4138456">
        <ele>44.358</ele>
        <time>2013-05-05T10:38:00Z</time>
      </trkpt>
      <trkpt lat="59.9874392" lon="17.4137097">
        <ele>44.358</ele>
        <time>2013-05-05T10:38:01Z</time>
      </trkpt>
      <trkpt lat="59.9874324" lon="17.4135746">
        <ele>44.358</ele>
        <time>2013-05-05T10:38:02Z</time>
      </trkpt>
      <trkpt lat="59.9874256" lon="17.4134431">
        <ele>44.8386</ele>
        <time>2013-05-05T10:38:03Z</time>
      </trkpt>
      <trkpt lat="59.9874185" lon="17.4133165">
        <ele>44.8386</ele>
        <time>2013-05-05T10:38:04Z</time>
      </trkpt>
      <trkpt lat="59.9874118" lon="17.4131904">
        <ele>45.3192</ele>
        <time>2013-05-05T10:38:05Z</time>
      </trkpt>
      <trkpt lat="59.9874035" lon="17.4130654">
        <ele>45.3192</ele>
        <time>2013-05-05T10:38:06Z</time>
      </trkpt>
      <trkpt lat="59.9873916" lon="17.4129369">
        <ele>45.3192</ele>
        <time>2013-05-05T10:38:07Z</time>
      </trkpt>
      <trkpt lat="59.987381" lon="17.4128107">
        <ele>45.3192</ele>
        <time>2013-05-05T10:38:08Z</time>
      </trkpt>
      <trkpt lat="59.9873743" lon="17.4126848">
        <ele>45.7999</ele>
        <time>2013-05-05T10:38:09Z</time>
      </trkpt>
      <trkpt lat="59.9873681" lon="17.4125584">
        <ele>45.7999</ele>
        <time>2013-05-05T10:38:10Z</time>
      </trkpt>
      <trkpt lat="59.9873626" lon="17.4124351">
        <ele>45.7999</ele>
        <time>2013-05-05T10:38:11Z</time>
      </trkpt>
      <trkpt lat="59.9873584" lon="17.4123116">
        <ele>45.7999</ele>
        <time>2013-05-05T10:38:12Z</time>
      </trkpt>
      <trkpt lat="59.9873538" lon="17.4121859">
        <ele>45.7999</ele>
        <time>2013-05-05T10:38:13Z</time>
      </trkpt>
      <trkpt lat="59.9873486" lon="17.4120607">
        <ele>45.7999</ele>
        <time>2013-05-05T10:38:14Z</time>
      </trkpt>
      <trkpt lat="59.9873422" lon="17.4119364">
        <ele>45.7999</ele>
        <time>2013-05-05T10:38:15Z</time>
      </trkpt>
      <trkpt lat="59.9873355" lon="17.4118149">
        <ele>45.3192</ele>
        <time>2013-05-05T10:38:16Z</time>
      </trkpt>
      <trkpt lat="59.9873294" lon="17.4116891">
        <ele>45.3192</ele>
        <time>2013-05-05T10:38:17Z</time>
      </trkpt>
      <trkpt lat="59.9873237" lon="17.4115628">
        <ele>45.3192</ele>
        <time>2013-05-05T10:38:18Z</time>
      </trkpt>
      <trkpt lat="59.9873181" lon="17.4114359">
        <ele>45.3192</ele>
        <time>2013-05-05T10:38:19Z</time>
      </trkpt>
      <trkpt lat="59.987314" lon="17.4113064">
        <ele>45.3192</ele>
        <time>2013-05-05T10:38:20Z</time>
      </trkpt>
      <trkpt lat="59.9873095" lon="17.4111763">
        <ele>45.3192</ele>
        <time>2013-05-05T10:38:21Z</time>
      </trkpt>
      <trkpt lat="59.9873057" lon="17.4110472">
        <ele>45.7999</ele>
        <time>2013-05-05T10:38:22Z</time>
      </trkpt>
      <trkpt lat="59.9873009" lon="17.4109184">
        <ele>45.7999</ele>
        <time>2013-05-05T10:38:23Z</time>
      </trkpt>
      <trkpt lat="59.9872952" lon="17.41079">
        <ele>45.7999</ele>
        <time>2013-05-05T10:38:24Z</time>
      </trkpt>
      <trkpt lat="59.9872896" lon="17.4106614">
        <ele>45.7999</ele>
        <time>2013-05-05T10:38:25Z</time>
      </trkpt>
      <trkpt lat="59.9872836" lon="17.4105312">
        <ele>45.7999</ele>
        <time>2013-05-05T10:38:26Z</time>
      </trkpt>
      <trkpt lat="59.9872771" lon="17.4103992">
        <ele>45.7999</ele>
        <time>2013-05-05T10:38:27Z</time>
      </trkpt>
      <trkpt lat="59.9872717" lon="17.4102676">
        <ele>45.3192</ele>
        <time>2013-05-05T10:38:28Z</time>
      </trkpt>
      <trkpt lat="59.9872655" lon="17.4101342">
        <ele>45.3192</ele>
        <time>2013-05-05T10:38:29Z</time>
      </trkpt>
      <trkpt lat="59.9872593" lon="17.4100034">
        <ele>45.3192</ele>
        <time>2013-05-05T10:38:30Z</time>
      </trkpt>
      <trkpt lat="59.9872531" lon="17.4098745">
        <ele>45.7999</ele>
        <time>2013-05-05T10:38:31Z</time>
      </trkpt>
      <trkpt lat="59.987247" lon="17.4097477">
        <ele>45.7999</ele>
        <time>2013-05-05T10:38:32Z</time>
      </trkpt>
      <trkpt lat="59.9872416" lon="17.4096227">
        <ele>46.2806</ele>
        <time>2013-05-05T10:38:33Z</time>
      </trkpt>
      <trkpt lat="59.9872362" lon="17.4094968">
        <ele>46.2806</ele>
        <time>2013-05-05T10:38:34Z</time>
      </trkpt>
      <trkpt lat="59.9872299" lon="17.409369">
        <ele>46.2806</ele>
        <time>2013-05-05T10:38:35Z</time>
      </trkpt>
      <trkpt lat="59.9872235" lon="17.4092396">
        <ele>46.2806</ele>
        <time>2013-05-05T10:38:36Z</time>
      </trkpt>
      <trkpt lat="59.9872169" lon="17.4091103">
        <ele>46.2806</ele>
        <time>2013-05-05T10:38:37Z</time>
      </trkpt>
      <trkpt lat="59.9872108" lon="17.4089805">
        <ele>45.7999</ele>
        <time>2013-05-05T10:38:38Z</time>
      </trkpt>
      <trkpt lat="59.987205" lon="17.4088508">
        <ele>45.7999</ele>
        <time>2013-05-05T10:38:39Z</time>
      </trkpt>
      <trkpt lat="59.9871986" lon="17.408722">
        <ele>45.7999</ele>
        <time>2013-05-05T10:38:40Z</time>
      </trkpt>
      <trkpt lat="59.987192" lon="17.4085935">
        <ele>45.7999</ele>
        <time>2013-05-05T10:38:41Z</time>
      </trkpt>
      <trkpt lat="59.9871859" lon="17.4084639">
        <ele>45.7999</ele>
        <time>2013-05-05T10:38:42Z</time>
      </trkpt>
      <trkpt lat="59.9871801" lon="17.4083317">
        <ele>45.7999</ele>
        <time>2013-05-05T10:38:43Z</time>
      </trkpt>
      <trkpt lat="59.9871734" lon="17.4081981">
        <ele>45.7999</ele>
        <time>2013-05-05T10:38:44Z</time>
      </trkpt>
      <trkpt lat="59.9871662" lon="17.4080665">
        <ele>45.3192</ele>
        <time>2013-05-05T10:38:45Z</time>
      </trkpt>
      <trkpt lat="59.9871591" lon="17.4079339">
        <ele>45.3192</ele>
        <time>2013-05-05T10:38:46Z</time>
      </trkpt>
      <trkpt lat="59.9871518" lon="17.4077973">
        <ele>45.3192</ele>
        <time>2013-05-05T10:38:47Z</time>
      </trkpt>
      <trkpt lat="59.9871453" lon="17.4076566">
        <ele>44.8386</ele>
        <time>2013-05-05T10:38:48Z</time>
      </trkpt>
      <trkpt lat="59.9871392" lon="17.4075113">
        <ele>44.8386</ele>
        <time>2013-05-05T10:38:49Z</time>
      </trkpt>
      <trkpt lat="59.987132" lon="17.4073622">
        <ele>44.358</ele>
        <time>2013-05-05T10:38:50Z</time>
      </trkpt>
      <trkpt lat="59.9871237" lon="17.4072094">
        <ele>44.358</ele>
        <time>2013-05-05T10:38:51Z</time>
      </trkpt>
      <trkpt lat="59.9871159" lon="17.4070566">
        <ele>44.358</ele>
        <time>2013-05-05T10:38:52Z</time>
      </trkpt>
      <trkpt lat="59.9871082" lon="17.4069064">
        <ele>44.358</ele>
        <time>2013-05-05T10:38:53Z</time>
      </trkpt>
      <trkpt lat="59.9871011" lon="17.4067587">
        <ele>44.358</ele>
        <time>2013-05-05T10:38:54Z</time>
      </trkpt>
      <trkpt lat="59.987095" lon="17.4066125">
        <ele>43.8773</ele>
        <time>2013-05-05T10:38:55Z</time>
      </trkpt>
      <trkpt lat="59.9870885" lon="17.4064674">
        <ele>44.358</ele>
        <time>2013-05-05T10:38:56Z</time>
      </trkpt>
      <trkpt lat="59.9870823" lon="17.4063255">
        <ele>44.358</ele>
        <time>2013-05-05T10:38:57Z</time>
      </trkpt>
      <trkpt lat="59.987075" lon="17.4061901">
        <ele>44.358</ele>
        <time>2013-05-05T10:38:58Z</time>
      </trkpt>
      <trkpt lat="59.9870677" lon="17.40606">
        <ele>43.8773</ele>
        <time>2013-05-05T10:38:59Z</time>
      </trkpt>
      <trkpt lat="59.987062" lon="17.4059306">
        <ele>44.358</ele>
        <time>2013-05-05T10:39:00Z</time>
      </trkpt>
      <trkpt lat="59.9870564" lon="17.4058024">
        <ele>44.358</ele>
        <time>2013-05-05T10:39:01Z</time>
      </trkpt>
      <trkpt lat="59.9870502" lon="17.4056761">
        <ele>44.8386</ele>
        <time>2013-05-05T10:39:02Z</time>
      </trkpt>
      <trkpt lat="59.9870433" lon="17.4055512">
        <ele>44.8386</ele>
        <time>2013-05-05T10:39:03Z</time>
      </trkpt>
      <trkpt lat="59.9870366" lon="17.4054255">
        <ele>44.8386</ele>
        <time>2013-05-05T10:39:04Z</time>
      </trkpt>
      <trkpt lat="59.9870311" lon="17.4052981">
        <ele>44.8386</ele>
        <time>2013-05-05T10:39:05Z</time>
      </trkpt>
      <trkpt lat="59.9870262" lon="17.4051694">
        <ele>44.8386</ele>
        <time>2013-05-05T10:39:06Z</time>
      </trkpt>
      <trkpt lat="59.9870211" lon="17.4050377">
        <ele>44.8386</ele>
        <time>2013-05-05T10:39:07Z</time>
      </trkpt>
      <trkpt lat="59.9870161" lon="17.404903">
        <ele>45.3192</ele>
        <time>2013-05-05T10:39:08Z</time>
      </trkpt>
      <trkpt lat="59.9870104" lon="17.4047658">
        <ele>45.3192</ele>
        <time>2013-05-05T10:39:09Z</time>
      </trkpt>
      <trkpt lat="59.9870046" lon="17.4046281">
        <ele>45.3192</ele>
        <time>2013-05-05T10:39:10Z</time>
      </trkpt>
      <trkpt lat="59.9869979" lon="17.4044919">
        <ele>45.3192</ele>
        <time>2013-05-05T10:39:11Z</time>
      </trkpt>
      <trkpt lat="59.9869906" lon="17.4043607">
        <ele>45.3192</ele>
        <time>2013-05-05T10:39:12Z</time>
      </trkpt>
      <trkpt lat="59.9869839" lon="17.4042317">
        <ele>45.3192</ele>
        <time>2013-05-05T10:39:13Z</time>
      </trkpt>
      <trkpt lat="59.9869771" lon="17.4041004">
        <ele>45.3192</ele>
        <time>2013-05-05T10:39:14Z</time>
      </trkpt>
      <trkpt lat="59.9869697" lon="17.4039676">
        <ele>45.3192</ele>
        <time>2013-05-05T10:39:15Z</time>
      </trkpt>
      <trkpt lat="59.9869612" lon="17.4038339">
        <ele>45.3192</ele>
        <time>2013-05-05T10:39:16Z</time>
      </trkpt>
      <trkpt lat="59.9869526" lon="17.4036983">
        <ele>45.3192</ele>
        <time>2013-05-05T10:39:17Z</time>
      </trkpt>
      <trkpt lat="59.9869435" lon="17.4035607">
        <ele>45.7999</ele>
        <time>2013-05-05T10:39:18Z</time>
      </trkpt>
      <trkpt lat="59.9869334" lon="17.4034221">
        <ele>45.7999</ele>
        <time>2013-05-05T10:39:19Z</time>
      </trkpt>
      <trkpt lat="59.9869215" lon="17.4032865">
        <ele>45.7999</ele>
        <time>2013-05-05T10:39:20Z</time>
      </trkpt>
      <trkpt lat="59.9869082" lon="17.403156">
        <ele>45.7999</ele>
        <time>2013-05-05T10:39:21Z</time>
      </trkpt>
      <trkpt lat="59.9868938" lon="17.4030249">
        <ele>45.7999</ele>
        <time>2013-05-05T10:39:22Z</time>
      </trkpt>
      <trkpt lat="59.986879" lon="17.4028921">
        <ele>45.7999</ele>
        <time>2013-05-05T10:39:23Z</time>
      </trkpt>
      <trkpt lat="59.9868632" lon="17.4027519">
        <ele>45.3192</ele>
        <time>2013-05-05T10:39:24Z</time>
      </trkpt>
      <trkpt lat="59.9868467" lon="17.4026028">
        <ele>45.3192</ele>
        <time>2013-05-05T10:39:25Z</time>
      </trkpt>
      <trkpt lat="59.9868285" lon="17.4024489">
        <ele>44.8386</ele>
        <time>2013-05-05T10:39:26Z</time>
      </trkpt>
      <trkpt lat="59.9868093" lon="17.402293">
        <ele>44.358</ele>
        <time>2013-05-05T10:39:27Z</time>
      </trkpt>
      <trkpt lat="59.9867901" lon="17.4021375">
        <ele>44.358</ele>
        <time>2013-05-05T10:39:28Z</time>
      </trkpt>
      <trkpt lat="59.9867708" lon="17.4019844">
        <ele>43.8773</ele>
        <time>2013-05-05T10:39:29Z</time>
      </trkpt>
      <trkpt lat="59.9867516" lon="17.4018343">
        <ele>43.8773</ele>
        <time>2013-05-05T10:39:30Z</time>
      </trkpt>
      <trkpt lat="59.986732" lon="17.4016848">
        <ele>43.3966</ele>
        <time>2013-05-05T10:39:31Z</time>
      </trkpt>
      <trkpt lat="59.986713" lon="17.4015387">
        <ele>43.3966</ele>
        <time>2013-05-05T10:39:32Z</time>
      </trkpt>
      <trkpt lat="59.9866951" lon="17.4013938">
        <ele>43.3966</ele>
        <time>2013-05-05T10:39:33Z</time>
      </trkpt>
      <trkpt lat="59.9866777" lon="17.4012539">
        <ele>43.8773</ele>
        <time>2013-05-05T10:39:34Z</time>
      </trkpt>
      <trkpt lat="59.9866623" lon="17.40112">
        <ele>43.8773</ele>
        <time>2013-05-05T10:39:35Z</time>
      </trkpt>
      <trkpt lat="59.9866524" lon="17.401001">
        <ele>43.8773</ele>
        <time>2013-05-05T10:39:36Z</time>
      </trkpt>
      <trkpt lat="59.9866421" lon="17.4008715">
        <ele>43.8773</ele>
        <time>2013-05-05T10:39:37Z</time>
      </trkpt>
      <trkpt lat="59.9866274" lon="17.400737">
        <ele>43.8773</ele>
        <time>2013-05-05T10:39:38Z</time>
      </trkpt>
      <trkpt lat="59.9866105" lon="17.4005949">
        <ele>43.8773</ele>
        <time>2013-05-05T10:39:39Z</time>
      </trkpt>
      <trkpt lat="59.9865954" lon="17.4004598">
        <ele>43.8773</ele>
        <time>2013-05-05T10:39:40Z</time>
      </trkpt>
      <trkpt lat="59.9865797" lon="17.4003229">
        <ele>43.8773</ele>
        <time>2013-05-05T10:39:41Z</time>
      </trkpt>
      <trkpt lat="59.9865643" lon="17.4001812">
        <ele>43.8773</ele>
        <time>2013-05-05T10:39:42Z</time>
      </trkpt>
      <trkpt lat="59.9865483" lon="17.4000351">
        <ele>43.3966</ele>
        <time>2013-05-05T10:39:43Z</time>
      </trkpt>
      <trkpt lat="59.9865311" lon="17.3998871">
        <ele>42.916</ele>
        <time>2013-05-05T10:39:44Z</time>
      </trkpt>
      <trkpt lat="59.9865135" lon="17.3997364">
        <ele>42.4354</ele>
        <time>2013-05-05T10:39:45Z</time>
      </trkpt>
      <trkpt lat="59.9864964" lon="17.3995857">
        <ele>41.9547</ele>
        <time>2013-05-05T10:39:46Z</time>
      </trkpt>
      <trkpt lat="59.9864799" lon="17.3994336">
        <ele>41.474</ele>
        <time>2013-05-05T10:39:47Z</time>
      </trkpt>
      <trkpt lat="59.9864647" lon="17.3992745">
        <ele>40.5128</ele>
        <time>2013-05-05T10:39:48Z</time>
      </trkpt>
      <trkpt lat="59.9864478" lon="17.3991118">
        <ele>40.0321</ele>
        <time>2013-05-05T10:39:49Z</time>
      </trkpt>
      <trkpt lat="59.9864311" lon="17.3989492">
        <ele>39.5513</ele>
        <time>2013-05-05T10:39:50Z</time>
      </trkpt>
      <trkpt lat="59.9864141" lon="17.398785">
        <ele>39.0707</ele>
        <time>2013-05-05T10:39:51Z</time>
      </trkpt>
      <trkpt lat="59.9863957" lon="17.3986261">
        <ele>38.5901</ele>
        <time>2013-05-05T10:39:52Z</time>
      </trkpt>
      <trkpt lat="59.986376" lon="17.3984715">
        <ele>38.1094</ele>
        <time>2013-05-05T10:39:53Z</time>
      </trkpt>
      <trkpt lat="59.9863555" lon="17.3983183">
        <ele>38.1094</ele>
        <time>2013-05-05T10:39:54Z</time>
      </trkpt>
      <trkpt lat="59.9863348" lon="17.3981644">
        <ele>38.1094</ele>
        <time>2013-05-05T10:39:55Z</time>
      </trkpt>
      <trkpt lat="59.986314" lon="17.3980097">
        <ele>37.6287</ele>
        <time>2013-05-05T10:39:56Z</time>
      </trkpt>
      <trkpt lat="59.9862933" lon="17.3978566">
        <ele>37.6287</ele>
        <time>2013-05-05T10:39:57Z</time>
      </trkpt>
      <trkpt lat="59.9862738" lon="17.3977054">
        <ele>37.6287</ele>
        <time>2013-05-05T10:39:58Z</time>
      </trkpt>
      <trkpt lat="59.9862561" lon="17.3975568">
        <ele>37.6287</ele>
        <time>2013-05-05T10:39:59Z</time>
      </trkpt>
      <trkpt lat="59.9862385" lon="17.3974105">
        <ele>37.6287</ele>
        <time>2013-05-05T10:40:00Z</time>
      </trkpt>
      <trkpt lat="59.9862208" lon="17.3972661">
        <ele>37.1481</ele>
        <time>2013-05-05T10:40:01Z</time>
      </trkpt>
      <trkpt lat="59.9862028" lon="17.3971236">
        <ele>37.1481</ele>
        <time>2013-05-05T10:40:02Z</time>
      </trkpt>
      <trkpt lat="59.986185" lon="17.3969808">
        <ele>37.1481</ele>
        <time>2013-05-05T10:40:03Z</time>
      </trkpt>
      <trkpt lat="59.9861675" lon="17.3968403">
        <ele>37.1481</ele>
        <time>2013-05-05T10:40:04Z</time>
      </trkpt>
      <trkpt lat="59.9861505" lon="17.396703">
        <ele>37.1481</ele>
        <time>2013-05-05T10:40:05Z</time>
      </trkpt>
      <trkpt lat="59.9861343" lon="17.3965662">
        <ele>37.1481</ele>
        <time>2013-05-05T10:40:06Z</time>
      </trkpt>
      <trkpt lat="59.9861171" lon="17.396427">
        <ele>37.1481</ele>
        <time>2013-05-05T10:40:07Z</time>
      </trkpt>
      <trkpt lat="59.9860996" lon="17.396289">
        <ele>37.6287</ele>
        <time>2013-05-05T10:40:08Z</time>
      </trkpt>
      <trkpt lat="59.986082" lon="17.3961504">
        <ele>37.6287</ele>
        <time>2013-05-05T10:40:09Z</time>
      </trkpt>
      <trkpt lat="59.9860643" lon="17.3960106">
        <ele>37.1481</ele>
        <time>2013-05-05T10:40:10Z</time>
      </trkpt>
      <trkpt lat="59.9860467" lon="17.3958717">
        <ele>37.1481</ele>
        <time>2013-05-05T10:40:11Z</time>
      </trkpt>
      <trkpt lat="59.9860255" lon="17.3957216">
        <ele>38.1094</ele>
        <time>2013-05-05T10:40:12Z</time>
      </trkpt>
      <trkpt lat="59.9860079" lon="17.3955818">
        <ele>38.1094</ele>
        <time>2013-05-05T10:40:13Z</time>
      </trkpt>
      <trkpt lat="59.9859908" lon="17.3954407">
        <ele>38.1094</ele>
        <time>2013-05-05T10:40:14Z</time>
      </trkpt>
      <trkpt lat="59.9859722" lon="17.3952991">
        <ele>38.1094</ele>
        <time>2013-05-05T10:40:15Z</time>
      </trkpt>
      <trkpt lat="59.9859536" lon="17.395158">
        <ele>37.6287</ele>
        <time>2013-05-05T10:40:16Z</time>
      </trkpt>
      <trkpt lat="59.9859361" lon="17.3950163">
        <ele>37.6287</ele>
        <time>2013-05-05T10:40:17Z</time>
      </trkpt>
      <trkpt lat="59.9859192" lon="17.3948761">
        <ele>37.6287</ele>
        <time>2013-05-05T10:40:18Z</time>
      </trkpt>
      <trkpt lat="59.9859029" lon="17.3947399">
        <ele>37.6287</ele>
        <time>2013-05-05T10:40:19Z</time>
      </trkpt>
      <trkpt lat="59.9858848" lon="17.3946005">
        <ele>37.6287</ele>
        <time>2013-05-05T10:40:20Z</time>
      </trkpt>
      <trkpt lat="59.9858669" lon="17.3944652">
        <ele>38.1094</ele>
        <time>2013-05-05T10:40:21Z</time>
      </trkpt>
      <trkpt lat="59.9858499" lon="17.3943368">
        <ele>38.1094</ele>
        <time>2013-05-05T10:40:22Z</time>
      </trkpt>
      <trkpt lat="59.9858329" lon="17.3942084">
        <ele>38.1094</ele>
        <time>2013-05-05T10:40:23Z</time>
      </trkpt>
      <trkpt lat="59.9858162" lon="17.394081">
        <ele>38.1094</ele>
        <time>2013-05-05T10:40:24Z</time>
      </trkpt>
      <trkpt lat="59.9857996" lon="17.3939541">
        <ele>38.1094</ele>
        <time>2013-05-05T10:40:25Z</time>
      </trkpt>
      <trkpt lat="59.9857831" lon="17.393829">
        <ele>38.1094</ele>
        <time>2013-05-05T10:40:26Z</time>
      </trkpt>
      <trkpt lat="59.9857677" lon="17.3937065">
        <ele>38.1094</ele>
        <time>2013-05-05T10:40:27Z</time>
      </trkpt>
      <trkpt lat="59.9857535" lon="17.3935832">
        <ele>38.1094</ele>
        <time>2013-05-05T10:40:28Z</time>
      </trkpt>
      <trkpt lat="59.9857387" lon="17.3934581">
        <ele>37.6287</ele>
        <time>2013-05-05T10:40:29Z</time>
      </trkpt>
      <trkpt lat="59.9857233" lon="17.3933329">
        <ele>37.6287</ele>
        <time>2013-05-05T10:40:30Z</time>
      </trkpt>
      <trkpt lat="59.9857073" lon="17.3932098">
        <ele>37.6287</ele>
        <time>2013-05-05T10:40:31Z</time>
      </trkpt>
      <trkpt lat="59.985692" lon="17.393089">
        <ele>37.6287</ele>
        <time>2013-05-05T10:40:32Z</time>
      </trkpt>
      <trkpt lat="59.9856776" lon="17.3929676">
        <ele>37.6287</ele>
        <time>2013-05-05T10:40:33Z</time>
      </trkpt>
      <trkpt lat="59.9856631" lon="17.3928436">
        <ele>37.1481</ele>
        <time>2013-05-05T10:40:34Z</time>
      </trkpt>
      <trkpt lat="59.9856486" lon="17.3927172">
        <ele>37.1481</ele>
        <time>2013-05-05T10:40:35Z</time>
      </trkpt>
      <trkpt lat="59.9856332" lon="17.3925889">
        <ele>37.1481</ele>
        <time>2013-05-05T10:40:36Z</time>
      </trkpt>
      <trkpt lat="59.9856149" lon="17.3924508">
        <ele>37.6287</ele>
        <time>2013-05-05T10:40:37Z</time>
      </trkpt>
      <trkpt lat="59.9855978" lon="17.3923182">
        <ele>37.1481</ele>
        <time>2013-05-05T10:40:38Z</time>
      </trkpt>
      <trkpt lat="59.985581" lon="17.3921845">
        <ele>37.6287</ele>
        <time>2013-05-05T10:40:39Z</time>
      </trkpt>
      <trkpt lat="59.9855639" lon="17.3920504">
        <ele>37.6287</ele>
        <time>2013-05-05T10:40:40Z</time>
      </trkpt>
      <trkpt lat="59.985547" lon="17.3919157">
        <ele>38.1094</ele>
        <time>2013-05-05T10:40:41Z</time>
      </trkpt>
      <trkpt lat="59.9855304" lon="17.3917773">
        <ele>38.5901</ele>
        <time>2013-05-05T10:40:42Z</time>
      </trkpt>
      <trkpt lat="59.9855174" lon="17.3916492">
        <ele>39.0707</ele>
        <time>2013-05-05T10:40:43Z</time>
      </trkpt>
      <trkpt lat="59.985504" lon="17.3915246">
        <ele>39.0707</ele>
        <time>2013-05-05T10:40:44Z</time>
      </trkpt>
      <trkpt lat="59.9854887" lon="17.3913995">
        <ele>40.0321</ele>
        <time>2013-05-05T10:40:45Z</time>
      </trkpt>
      <trkpt lat="59.9854723" lon="17.3912759">
        <ele>40.5128</ele>
        <time>2013-05-05T10:40:46Z</time>
      </trkpt>
      <trkpt lat="59.9854571" lon="17.3911545">
        <ele>40.9934</ele>
        <time>2013-05-05T10:40:47Z</time>
      </trkpt>
      <trkpt lat="59.9854418" lon="17.3910309">
        <ele>41.474</ele>
        <time>2013-05-05T10:40:48Z</time>
      </trkpt>
      <trkpt lat="59.9854252" lon="17.3909066">
        <ele>41.9547</ele>
        <time>2013-05-05T10:40:49Z</time>
      </trkpt>
      <trkpt lat="59.9854082" lon="17.3907812">
        <ele>41.9547</ele>
        <time>2013-05-05T10:40:50Z</time>
      </trkpt>
      <trkpt lat="59.9853915" lon="17.3906546">
        <ele>42.4354</ele>
        <time>2013-05-05T10:40:51Z</time>
      </trkpt>
      <trkpt lat="59.9853759" lon="17.3905288">
        <ele>42.4354</ele>
        <time>2013-05-05T10:40:52Z</time>
      </trkpt>
      <trkpt lat="59.985361" lon="17.3904001">
        <ele>42.4354</ele>
        <time>2013-05-05T10:40:53Z</time>
      </trkpt>
      <trkpt lat="59.9853437" lon="17.3902729">
        <ele>42.4354</ele>
        <time>2013-05-05T10:40:54Z</time>
      </trkpt>
      <trkpt lat="59.9853248" lon="17.3901467">
        <ele>42.916</ele>
        <time>2013-05-05T10:40:55Z</time>
      </trkpt>
      <trkpt lat="59.9853079" lon="17.390023">
        <ele>42.916</ele>
        <time>2013-05-05T10:40:56Z</time>
      </trkpt>
      <trkpt lat="59.985292" lon="17.3899015">
        <ele>42.916</ele>
        <time>2013-05-05T10:40:57Z</time>
      </trkpt>
      <trkpt lat="59.9852755" lon="17.3897777">
        <ele>43.3966</ele>
        <time>2013-05-05T10:40:58Z</time>
      </trkpt>
      <trkpt lat="59.9852595" lon="17.3896547">
        <ele>43.8773</ele>
        <time>2013-05-05T10:40:59Z</time>
      </trkpt>
      <trkpt lat="59.985246" lon="17.3895383">
        <ele>43.8773</ele>
        <time>2013-05-05T10:41:00Z</time>
      </trkpt>
      <trkpt lat="59.9852333" lon="17.3894285">
        <ele>44.358</ele>
        <time>2013-05-05T10:41:01Z</time>
      </trkpt>
      <trkpt lat="59.9852221" lon="17.3893261">
        <ele>44.358</ele>
        <time>2013-05-05T10:41:02Z</time>
      </trkpt>
      <trkpt lat="59.98521" lon="17.3892265">
        <ele>44.8386</ele>
        <time>2013-05-05T10:41:03Z</time>
      </trkpt>
      <trkpt lat="59.9851966" lon="17.3891271">
        <ele>44.8386</ele>
        <time>2013-05-05T10:41:04Z</time>
      </trkpt>
      <trkpt lat="59.9851822" lon="17.3890273">
        <ele>45.3192</ele>
        <time>2013-05-05T10:41:05Z</time>
      </trkpt>
      <trkpt lat="59.9851684" lon="17.3889268">
        <ele>45.7999</ele>
        <time>2013-05-05T10:41:06Z</time>
      </trkpt>
      <trkpt lat="59.9851559" lon="17.3888267">
        <ele>45.7999</ele>
        <time>2013-05-05T10:41:07Z</time>
      </trkpt>
      <trkpt lat="59.9851421" lon="17.3887252">
        <ele>46.2806</ele>
        <time>2013-05-05T10:41:08Z</time>
      </trkpt>
      <trkpt lat="59.985128" lon="17.3886244">
        <ele>46.7612</ele>
        <time>2013-05-05T10:41:09Z</time>
      </trkpt>
      <trkpt lat="59.9851139" lon="17.3885231">
        <ele>47.2418</ele>
        <time>2013-05-05T10:41:10Z</time>
      </trkpt>
      <trkpt lat="59.9851003" lon="17.3884269">
        <ele>47.2418</ele>
        <time>2013-05-05T10:41:11Z</time>
      </trkpt>
      <trkpt lat="59.9850869" lon="17.388333">
        <ele>47.7225</ele>
        <time>2013-05-05T10:41:12Z</time>
      </trkpt>
      <trkpt lat="59.9850725" lon="17.3882392">
        <ele>48.2034</ele>
        <time>2013-05-05T10:41:13Z</time>
      </trkpt>
      <trkpt lat="59.9850595" lon="17.3881498">
        <ele>48.684</ele>
        <time>2013-05-05T10:41:14Z</time>
      </trkpt>
      <trkpt lat="59.9850491" lon="17.3880617">
        <ele>49.1646</ele>
        <time>2013-05-05T10:41:15Z</time>
      </trkpt>
      <trkpt lat="59.9850417" lon="17.3879706">
        <ele>49.1646</ele>
        <time>2013-05-05T10:41:16Z</time>
      </trkpt>
      <trkpt lat="59.9850387" lon="17.3878719">
        <ele>50.126</ele>
        <time>2013-05-05T10:41:17Z</time>
      </trkpt>
      <trkpt lat="59.9850464" lon="17.3877728">
        <ele>50.6066</ele>
        <time>2013-05-05T10:41:18Z</time>
      </trkpt>
      <trkpt lat="59.9850645" lon="17.3876777">
        <ele>50.6066</ele>
        <time>2013-05-05T10:41:19Z</time>
      </trkpt>
      <trkpt lat="59.9850911" lon="17.3875875">
        <ele>51.0872</ele>
        <time>2013-05-05T10:41:20Z</time>
      </trkpt>
      <trkpt lat="59.9851264" lon="17.3875116">
        <ele>50.6066</ele>
        <time>2013-05-05T10:41:21Z</time>
      </trkpt>
      <trkpt lat="59.9851675" lon="17.3874479">
        <ele>50.6066</ele>
        <time>2013-05-05T10:41:22Z</time>
      </trkpt>
      <trkpt lat="59.9852126" lon="17.3873908">
        <ele>51.0872</ele>
        <time>2013-05-05T10:41:23Z</time>
      </trkpt>
      <trkpt lat="59.9852563" lon="17.3873314">
        <ele>51.0872</ele>
        <time>2013-05-05T10:41:24Z</time>
      </trkpt>
      <trkpt lat="59.9852961" lon="17.3872697">
        <ele>51.0872</ele>
        <time>2013-05-05T10:41:25Z</time>
      </trkpt>
      <trkpt lat="59.9853365" lon="17.387206">
        <ele>50.6066</ele>
        <time>2013-05-05T10:41:26Z</time>
      </trkpt>
      <trkpt lat="59.9853779" lon="17.3871396">
        <ele>50.6066</ele>
        <time>2013-05-05T10:41:27Z</time>
      </trkpt>
      <trkpt lat="59.9854185" lon="17.3870708">
        <ele>50.6066</ele>
        <time>2013-05-05T10:41:28Z</time>
      </trkpt>
      <trkpt lat="59.9854608" lon="17.3870001">
        <ele>50.126</ele>
        <time>2013-05-05T10:41:29Z</time>
      </trkpt>
      <trkpt lat="59.9855049" lon="17.3869246">
        <ele>50.126</ele>
        <time>2013-05-05T10:41:30Z</time>
      </trkpt>
      <trkpt lat="59.9855504" lon="17.3868437">
        <ele>49.6453</ele>
        <time>2013-05-05T10:41:31Z</time>
      </trkpt>
      <trkpt lat="59.9855956" lon="17.3867546">
        <ele>49.6453</ele>
        <time>2013-05-05T10:41:32Z</time>
      </trkpt>
      <trkpt lat="59.9856396" lon="17.3866601">
        <ele>49.6453</ele>
        <time>2013-05-05T10:41:33Z</time>
      </trkpt>
      <trkpt lat="59.9856801" lon="17.3865588">
        <ele>49.1646</ele>
        <time>2013-05-05T10:41:34Z</time>
      </trkpt>
      <trkpt lat="59.9857157" lon="17.3864522">
        <ele>49.1646</ele>
        <time>2013-05-05T10:41:35Z</time>
      </trkpt>
      <trkpt lat="59.9857475" lon="17.3863419">
        <ele>48.684</ele>
        <time>2013-05-05T10:41:36Z</time>
      </trkpt>
      <trkpt lat="59.9857759" lon="17.3862275">
        <ele>48.684</ele>
        <time>2013-05-05T10:41:37Z</time>
      </trkpt>
      <trkpt lat="59.9858007" lon="17.3861088">
        <ele>48.2034</ele>
        <time>2013-05-05T10:41:38Z</time>
      </trkpt>
      <trkpt lat="59.9858216" lon="17.3859838">
        <ele>48.2034</ele>
        <time>2013-05-05T10:41:39Z</time>
      </trkpt>
      <trkpt lat="59.9858404" lon="17.3858532">
        <ele>48.2034</ele>
        <time>2013-05-05T10:41:40Z</time>
      </trkpt>
      <trkpt lat="59.9858593" lon="17.3857163">
        <ele>48.2034</ele>
        <time>2013-05-05T10:41:41Z</time>
      </trkpt>
      <trkpt lat="59.9858779" lon="17.3855764">
        <ele>47.7225</ele>
        <time>2013-05-05T10:41:42Z</time>
      </trkpt>
      <trkpt lat="59.9858959" lon="17.3854344">
        <ele>47.7225</ele>
        <time>2013-05-05T10:41:43Z</time>
      </trkpt>
      <trkpt lat="59.9859053" lon="17.3852765">
        <ele>47.7225</ele>
        <time>2013-05-05T10:41:44Z</time>
      </trkpt>
      <trkpt lat="59.9859202" lon="17.385135">
        <ele>47.7225</ele>
        <time>2013-05-05T10:41:45Z</time>
      </trkpt>
      <trkpt lat="59.9859337" lon="17.3849991">
        <ele>47.7225</ele>
        <time>2013-05-05T10:41:46Z</time>
      </trkpt>
      <trkpt lat="59.9859493" lon="17.3848743">
        <ele>47.7225</ele>
        <time>2013-05-05T10:41:47Z</time>
      </trkpt>
      <trkpt lat="59.9859642" lon="17.3847557">
        <ele>47.7225</ele>
        <time>2013-05-05T10:41:48Z</time>
      </trkpt>
      <trkpt lat="59.9859767" lon="17.3846414">
        <ele>47.7225</ele>
        <time>2013-05-05T10:41:49Z</time>
      </trkpt>
      <trkpt lat="59.9859872" lon="17.3845308">
        <ele>47.7225</ele>
        <time>2013-05-05T10:41:50Z</time>
      </trkpt>
      <trkpt lat="59.9859922" lon="17.3844231">
        <ele>48.2034</ele>
        <time>2013-05-05T10:41:51Z</time>
      </trkpt>
      <trkpt lat="59.985997" lon="17.3843118">
        <ele>48.2034</ele>
        <time>2013-05-05T10:41:52Z</time>
      </trkpt>
      <trkpt lat="59.9860016" lon="17.3841963">
        <ele>48.2034</ele>
        <time>2013-05-05T10:41:53Z</time>
      </trkpt>
      <trkpt lat="59.9860055" lon="17.3840742">
        <ele>48.2034</ele>
        <time>2013-05-05T10:41:54Z</time>
      </trkpt>
      <trkpt lat="59.9860111" lon="17.3839457">
        <ele>47.7225</ele>
        <time>2013-05-05T10:41:55Z</time>
      </trkpt>
      <trkpt lat="59.9860213" lon="17.3838095">
        <ele>47.7225</ele>
        <time>2013-05-05T10:41:56Z</time>
      </trkpt>
      <trkpt lat="59.9860376" lon="17.383668">
        <ele>47.2418</ele>
        <time>2013-05-05T10:41:57Z</time>
      </trkpt>
      <trkpt lat="59.9860602" lon="17.3835211">
        <ele>47.2418</ele>
        <time>2013-05-05T10:41:58Z</time>
      </trkpt>
      <trkpt lat="59.986088" lon="17.3833704">
        <ele>46.7612</ele>
        <time>2013-05-05T10:41:59Z</time>
      </trkpt>
      <trkpt lat="59.9861207" lon="17.3832204">
        <ele>46.2806</ele>
        <time>2013-05-05T10:42:00Z</time>
      </trkpt>
      <trkpt lat="59.9861551" lon="17.3830717">
        <ele>46.2806</ele>
        <time>2013-05-05T10:42:01Z</time>
      </trkpt>
      <trkpt lat="59.9861882" lon="17.3829276">
        <ele>45.7999</ele>
        <time>2013-05-05T10:42:02Z</time>
      </trkpt>
      <trkpt lat="59.9862198" lon="17.3827904">
        <ele>45.7999</ele>
        <time>2013-05-05T10:42:03Z</time>
      </trkpt>
      <trkpt lat="59.9862499" lon="17.3826619">
        <ele>45.3192</ele>
        <time>2013-05-05T10:42:04Z</time>
      </trkpt>
      <trkpt lat="59.9862793" lon="17.3825402">
        <ele>45.3192</ele>
        <time>2013-05-05T10:42:05Z</time>
      </trkpt>
      <trkpt lat="59.9863087" lon="17.382422">
        <ele>44.8386</ele>
        <time>2013-05-05T10:42:06Z</time>
      </trkpt>
      <trkpt lat="59.9863382" lon="17.382303">
        <ele>44.8386</ele>
        <time>2013-05-05T10:42:07Z</time>
      </trkpt>
      <trkpt lat="59.9863675" lon="17.3821819">
        <ele>44.8386</ele>
        <time>2013-05-05T10:42:08Z</time>
      </trkpt>
      <trkpt lat="59.9863954" lon="17.3820626">
        <ele>44.358</ele>
        <time>2013-05-05T10:42:09Z</time>
      </trkpt>
      <trkpt lat="59.9864229" lon="17.3819462">
        <ele>44.358</ele>
        <time>2013-05-05T10:42:10Z</time>
      </trkpt>
      <trkpt lat="59.9864514" lon="17.3818293">
        <ele>44.358</ele>
        <time>2013-05-05T10:42:11Z</time>
      </trkpt>
      <trkpt lat="59.9864807" lon="17.3817099">
        <ele>44.358</ele>
        <time>2013-05-05T10:42:12Z</time>
      </trkpt>
      <trkpt lat="59.9865092" lon="17.3815887">
        <ele>44.358</ele>
        <time>2013-05-05T10:42:13Z</time>
      </trkpt>
      <trkpt lat="59.9865374" lon="17.3814688">
        <ele>44.358</ele>
        <time>2013-05-05T10:42:14Z</time>
      </trkpt>
      <trkpt lat="59.9865652" lon="17.3813525">
        <ele>44.358</ele>
        <time>2013-05-05T10:42:15Z</time>
      </trkpt>
      <trkpt lat="59.9865922" lon="17.38124">
        <ele>44.358</ele>
        <time>2013-05-05T10:42:16Z</time>
      </trkpt>
      <trkpt lat="59.9866185" lon="17.3811307">
        <ele>44.358</ele>
        <time>2013-05-05T10:42:17Z</time>
      </trkpt>
      <trkpt lat="59.9866451" lon="17.3810246">
        <ele>44.358</ele>
        <time>2013-05-05T10:42:18Z</time>
      </trkpt>
      <trkpt lat="59.9866735" lon="17.3809204">
        <ele>44.358</ele>
        <time>2013-05-05T10:42:19Z</time>
      </trkpt>
      <trkpt lat="59.986702" lon="17.3808183">
        <ele>44.8386</ele>
        <time>2013-05-05T10:42:20Z</time>
      </trkpt>
      <trkpt lat="59.9867307" lon="17.3807189">
        <ele>44.8386</ele>
        <time>2013-05-05T10:42:21Z</time>
      </trkpt>
      <trkpt lat="59.9867597" lon="17.3806221">
        <ele>44.8386</ele>
        <time>2013-05-05T10:42:22Z</time>
      </trkpt>
      <trkpt lat="59.9867907" lon="17.3805281">
        <ele>45.3192</ele>
        <time>2013-05-05T10:42:23Z</time>
      </trkpt>
      <trkpt lat="59.9868229" lon="17.3804298">
        <ele>45.7999</ele>
        <time>2013-05-05T10:42:24Z</time>
      </trkpt>
      <trkpt lat="59.9868564" lon="17.3803318">
        <ele>45.7999</ele>
        <time>2013-05-05T10:42:25Z</time>
      </trkpt>
      <trkpt lat="59.98689" lon="17.3802288">
        <ele>45.7999</ele>
        <time>2013-05-05T10:42:26Z</time>
      </trkpt>
      <trkpt lat="59.9869251" lon="17.3801216">
        <ele>45.7999</ele>
        <time>2013-05-05T10:42:27Z</time>
      </trkpt>
      <trkpt lat="59.9869615" lon="17.380014">
        <ele>45.7999</ele>
        <time>2013-05-05T10:42:28Z</time>
      </trkpt>
      <trkpt lat="59.9869995" lon="17.3799029">
        <ele>45.3192</ele>
        <time>2013-05-05T10:42:29Z</time>
      </trkpt>
      <trkpt lat="59.9870383" lon="17.3797891">
        <ele>44.8386</ele>
        <time>2013-05-05T10:42:30Z</time>
      </trkpt>
      <trkpt lat="59.987078" lon="17.3796724">
        <ele>44.8386</ele>
        <time>2013-05-05T10:42:31Z</time>
      </trkpt>
      <trkpt lat="59.9871182" lon="17.3795524">
        <ele>44.8386</ele>
        <time>2013-05-05T10:42:32Z</time>
      </trkpt>
      <trkpt lat="59.9871586" lon="17.379432">
        <ele>44.358</ele>
        <time>2013-05-05T10:42:33Z</time>
      </trkpt>
      <trkpt lat="59.9871986" lon="17.3793139">
        <ele>44.358</ele>
        <time>2013-05-05T10:42:34Z</time>
      </trkpt>
      <trkpt lat="59.9872376" lon="17.3791995">
        <ele>44.358</ele>
        <time>2013-05-05T10:42:35Z</time>
      </trkpt>
      <trkpt lat="59.9872758" lon="17.3790881">
        <ele>44.358</ele>
        <time>2013-05-05T10:42:36Z</time>
      </trkpt>
      <trkpt lat="59.9873136" lon="17.3789777">
        <ele>44.358</ele>
        <time>2013-05-05T10:42:37Z</time>
      </trkpt>
      <trkpt lat="59.9873511" lon="17.3788666">
        <ele>44.358</ele>
        <time>2013-05-05T10:42:38Z</time>
      </trkpt>
      <trkpt lat="59.9873884" lon="17.3787562">
        <ele>44.358</ele>
        <time>2013-05-05T10:42:39Z</time>
      </trkpt>
      <trkpt lat="59.9874274" lon="17.3786478">
        <ele>44.358</ele>
        <time>2013-05-05T10:42:40Z</time>
      </trkpt>
      <trkpt lat="59.9874678" lon="17.3785365">
        <ele>44.358</ele>
        <time>2013-05-05T10:42:41Z</time>
      </trkpt>
      <trkpt lat="59.9875079" lon="17.3784219">
        <ele>44.358</ele>
        <time>2013-05-05T10:42:42Z</time>
      </trkpt>
      <trkpt lat="59.9875475" lon="17.3783056">
        <ele>43.8773</ele>
        <time>2013-05-05T10:42:43Z</time>
      </trkpt>
      <trkpt lat="59.9875866" lon="17.3781889">
        <ele>43.8773</ele>
        <time>2013-05-05T10:42:44Z</time>
      </trkpt>
      <trkpt lat="59.9876257" lon="17.3780714">
        <ele>43.8773</ele>
        <time>2013-05-05T10:42:45Z</time>
      </trkpt>
      <trkpt lat="59.9876656" lon="17.3779542">
        <ele>43.8773</ele>
        <time>2013-05-05T10:42:46Z</time>
      </trkpt>
      <trkpt lat="59.9877055" lon="17.3778372">
        <ele>43.8773</ele>
        <time>2013-05-05T10:42:47Z</time>
      </trkpt>
      <trkpt lat="59.9877448" lon="17.3777195">
        <ele>43.8773</ele>
        <time>2013-05-05T10:42:48Z</time>
      </trkpt>
      <trkpt lat="59.9877838" lon="17.3776026">
        <ele>43.8773</ele>
        <time>2013-05-05T10:42:49Z</time>
      </trkpt>
      <trkpt lat="59.9878231" lon="17.377487">
        <ele>44.358</ele>
        <time>2013-05-05T10:42:50Z</time>
      </trkpt>
      <trkpt lat="59.9878619" lon="17.3773719">
        <ele>44.358</ele>
        <time>2013-05-05T10:42:51Z</time>
      </trkpt>
      <trkpt lat="59.9879013" lon="17.3772577">
        <ele>44.358</ele>
        <time>2013-05-05T10:42:52Z</time>
      </trkpt>
      <trkpt lat="59.9879407" lon="17.3771427">
        <ele>44.358</ele>
        <time>2013-05-05T10:42:53Z</time>
      </trkpt>
      <trkpt lat="59.987979" lon="17.3770263">
        <ele>44.358</ele>
        <time>2013-05-05T10:42:54Z</time>
      </trkpt>
      <trkpt lat="59.9880163" lon="17.3769114">
        <ele>44.358</ele>
        <time>2013-05-05T10:42:55Z</time>
      </trkpt>
      <trkpt lat="59.9880541" lon="17.3767996">
        <ele>44.358</ele>
        <time>2013-05-05T10:42:56Z</time>
      </trkpt>
      <trkpt lat="59.988092" lon="17.3766893">
        <ele>44.8386</ele>
        <time>2013-05-05T10:42:57Z</time>
      </trkpt>
      <trkpt lat="59.9881306" lon="17.3765789">
        <ele>45.3192</ele>
        <time>2013-05-05T10:42:58Z</time>
      </trkpt>
      <trkpt lat="59.9881679" lon="17.3764684">
        <ele>45.7999</ele>
        <time>2013-05-05T10:42:59Z</time>
      </trkpt>
      <trkpt lat="59.9882023" lon="17.3763589">
        <ele>45.7999</ele>
        <time>2013-05-05T10:43:00Z</time>
      </trkpt>
      <trkpt lat="59.9882338" lon="17.3762607">
        <ele>45.7999</ele>
        <time>2013-05-05T10:43:01Z</time>
      </trkpt>
      <trkpt lat="59.9882621" lon="17.3761722">
        <ele>45.7999</ele>
        <time>2013-05-05T10:43:02Z</time>
      </trkpt>
      <trkpt lat="59.9882903" lon="17.3760906">
        <ele>45.7999</ele>
        <time>2013-05-05T10:43:03Z</time>
      </trkpt>
      <trkpt lat="59.9883193" lon="17.37601">
        <ele>45.7999</ele>
        <time>2013-05-05T10:43:04Z</time>
      </trkpt>
      <trkpt lat="59.9883479" lon="17.3759289">
        <ele>45.7999</ele>
        <time>2013-05-05T10:43:05Z</time>
      </trkpt>
      <trkpt lat="59.9883756" lon="17.3758455">
        <ele>45.3192</ele>
        <time>2013-05-05T10:43:06Z</time>
      </trkpt>
      <trkpt lat="59.9884042" lon="17.3757569">
        <ele>45.3192</ele>
        <time>2013-05-05T10:43:07Z</time>
      </trkpt>
      <trkpt lat="59.9884374" lon="17.3756652">
        <ele>45.7999</ele>
        <time>2013-05-05T10:43:08Z</time>
      </trkpt>
      <trkpt lat="59.9884783" lon="17.375572">
        <ele>45.3192</ele>
        <time>2013-05-05T10:43:09Z</time>
      </trkpt>
      <trkpt lat="59.9885271" lon="17.375477">
        <ele>45.3192</ele>
        <time>2013-05-05T10:43:10Z</time>
      </trkpt>
      <trkpt lat="59.9885848" lon="17.3753806">
        <ele>45.7999</ele>
        <time>2013-05-05T10:43:11Z</time>
      </trkpt>
      <trkpt lat="59.9886486" lon="17.3752858">
        <ele>46.2806</ele>
        <time>2013-05-05T10:43:12Z</time>
      </trkpt>
      <trkpt lat="59.9887159" lon="17.3751921">
        <ele>46.2806</ele>
        <time>2013-05-05T10:43:13Z</time>
      </trkpt>
      <trkpt lat="59.9887874" lon="17.3751037">
        <ele>46.2806</ele>
        <time>2013-05-05T10:43:14Z</time>
      </trkpt>
      <trkpt lat="59.9888613" lon="17.3750197">
        <ele>45.7999</ele>
        <time>2013-05-05T10:43:15Z</time>
      </trkpt>
      <trkpt lat="59.9889368" lon="17.3749395">
        <ele>46.2806</ele>
        <time>2013-05-05T10:43:16Z</time>
      </trkpt>
      <trkpt lat="59.9890119" lon="17.3748607">
        <ele>46.2806</ele>
        <time>2013-05-05T10:43:17Z</time>
      </trkpt>
      <trkpt lat="59.9890866" lon="17.3747839">
        <ele>46.2806</ele>
        <time>2013-05-05T10:43:18Z</time>
      </trkpt>
      <trkpt lat="59.9891615" lon="17.3747084">
        <ele>46.7612</ele>
        <time>2013-05-05T10:43:19Z</time>
      </trkpt>
      <trkpt lat="59.9892341" lon="17.3746323">
        <ele>46.7612</ele>
        <time>2013-05-05T10:43:20Z</time>
      </trkpt>
      <trkpt lat="59.9893044" lon="17.3745599">
        <ele>46.7612</ele>
        <time>2013-05-05T10:43:21Z</time>
      </trkpt>
      <trkpt lat="59.9893714" lon="17.3744891">
        <ele>46.7612</ele>
        <time>2013-05-05T10:43:22Z</time>
      </trkpt>
      <trkpt lat="59.9894361" lon="17.3744184">
        <ele>46.7612</ele>
        <time>2013-05-05T10:43:23Z</time>
      </trkpt>
      <trkpt lat="59.9894999" lon="17.3743505">
        <ele>46.7612</ele>
        <time>2013-05-05T10:43:24Z</time>
      </trkpt>
      <trkpt lat="59.9895634" lon="17.3742835">
        <ele>46.7612</ele>
        <time>2013-05-05T10:43:25Z</time>
      </trkpt>
      <trkpt lat="59.9896274" lon="17.3742151">
        <ele>46.7612</ele>
        <time>2013-05-05T10:43:26Z</time>
      </trkpt>
      <trkpt lat="59.9896931" lon="17.3741451">
        <ele>46.2806</ele>
        <time>2013-05-05T10:43:27Z</time>
      </trkpt>
      <trkpt lat="59.9897599" lon="17.3740742">
        <ele>46.7612</ele>
        <time>2013-05-05T10:43:28Z</time>
      </trkpt>
      <trkpt lat="59.9898276" lon="17.3740028">
        <ele>46.7612</ele>
        <time>2013-05-05T10:43:29Z</time>
      </trkpt>
      <trkpt lat="59.9898952" lon="17.3739305">
        <ele>46.7612</ele>
        <time>2013-05-05T10:43:30Z</time>
      </trkpt>
      <trkpt lat="59.9899617" lon="17.3738579">
        <ele>46.7612</ele>
        <time>2013-05-05T10:43:31Z</time>
      </trkpt>
      <trkpt lat="59.9900266" lon="17.3737869">
        <ele>46.7612</ele>
        <time>2013-05-05T10:43:32Z</time>
      </trkpt>
      <trkpt lat="59.9900899" lon="17.3737181">
        <ele>47.2418</ele>
        <time>2013-05-05T10:43:33Z</time>
      </trkpt>
      <trkpt lat="59.9901526" lon="17.3736508">
        <ele>47.2418</ele>
        <time>2013-05-05T10:43:34Z</time>
      </trkpt>
      <trkpt lat="59.9902156" lon="17.3735828">
        <ele>47.2418</ele>
        <time>2013-05-05T10:43:35Z</time>
      </trkpt>
      <trkpt lat="59.9902783" lon="17.373514">
        <ele>47.2418</ele>
        <time>2013-05-05T10:43:36Z</time>
      </trkpt>
      <trkpt lat="59.990339" lon="17.3734474">
        <ele>47.7225</ele>
        <time>2013-05-05T10:43:37Z</time>
      </trkpt>
      <trkpt lat="59.9903976" lon="17.3733826">
        <ele>47.7225</ele>
        <time>2013-05-05T10:43:38Z</time>
      </trkpt>
      <trkpt lat="59.9904551" lon="17.3733206">
        <ele>47.7225</ele>
        <time>2013-05-05T10:43:39Z</time>
      </trkpt>
      <trkpt lat="59.9905119" lon="17.3732601">
        <ele>48.2034</ele>
        <time>2013-05-05T10:43:40Z</time>
      </trkpt>
      <trkpt lat="59.9905683" lon="17.3731979">
        <ele>48.2034</ele>
        <time>2013-05-05T10:43:41Z</time>
      </trkpt>
      <trkpt lat="59.9906242" lon="17.3731345">
        <ele>48.684</ele>
        <time>2013-05-05T10:43:42Z</time>
      </trkpt>
      <trkpt lat="59.9906799" lon="17.373073">
        <ele>48.684</ele>
        <time>2013-05-05T10:43:43Z</time>
      </trkpt>
      <trkpt lat="59.9907347" lon="17.373014">
        <ele>49.1646</ele>
        <time>2013-05-05T10:43:44Z</time>
      </trkpt>
      <trkpt lat="59.990787" lon="17.3729563">
        <ele>49.1646</ele>
        <time>2013-05-05T10:43:45Z</time>
      </trkpt>
      <trkpt lat="59.9908382" lon="17.3729047">
        <ele>49.1646</ele>
        <time>2013-05-05T10:43:46Z</time>
      </trkpt>
      <trkpt lat="59.9908886" lon="17.3728563">
        <ele>49.6453</ele>
        <time>2013-05-05T10:43:47Z</time>
      </trkpt>
      <trkpt lat="59.9909384" lon="17.3728041">
        <ele>49.6453</ele>
        <time>2013-05-05T10:43:48Z</time>
      </trkpt>
      <trkpt lat="59.9909889" lon="17.3727499">
        <ele>50.126</ele>
        <time>2013-05-05T10:43:49Z</time>
      </trkpt>
      <trkpt lat="59.9910413" lon="17.3726944">
        <ele>50.126</ele>
        <time>2013-05-05T10:43:50Z</time>
      </trkpt>
      <trkpt lat="59.9910952" lon="17.3726379">
        <ele>50.126</ele>
        <time>2013-05-05T10:43:51Z</time>
      </trkpt>
      <trkpt lat="59.9911501" lon="17.3725797">
        <ele>50.126</ele>
        <time>2013-05-05T10:43:52Z</time>
      </trkpt>
      <trkpt lat="59.9912052" lon="17.3725209">
        <ele>50.6066</ele>
        <time>2013-05-05T10:43:53Z</time>
      </trkpt>
      <trkpt lat="59.9912595" lon="17.3724585">
        <ele>50.6066</ele>
        <time>2013-05-05T10:43:54Z</time>
      </trkpt>
      <trkpt lat="59.9913118" lon="17.3723922">
        <ele>51.0872</ele>
        <time>2013-05-05T10:43:55Z</time>
      </trkpt>
      <trkpt lat="59.9913626" lon="17.3723208">
        <ele>51.0872</ele>
        <time>2013-05-05T10:43:56Z</time>
      </trkpt>
      <trkpt lat="59.9914107" lon="17.3722427">
        <ele>51.0872</ele>
        <time>2013-05-05T10:43:57Z</time>
      </trkpt>
      <trkpt lat="59.9914564" lon="17.372157">
        <ele>51.5679</ele>
        <time>2013-05-05T10:43:58Z</time>
      </trkpt>
      <trkpt lat="59.9915004" lon="17.3720641">
        <ele>51.5679</ele>
        <time>2013-05-05T10:43:59Z</time>
      </trkpt>
      <trkpt lat="59.9915434" lon="17.3719645">
        <ele>51.5679</ele>
        <time>2013-05-05T10:44:00Z</time>
      </trkpt>
      <trkpt lat="59.9915859" lon="17.371863">
        <ele>51.5679</ele>
        <time>2013-05-05T10:44:01Z</time>
      </trkpt>
      <trkpt lat="59.9916273" lon="17.371758">
        <ele>51.5679</ele>
        <time>2013-05-05T10:44:02Z</time>
      </trkpt>
      <trkpt lat="59.9916676" lon="17.371653">
        <ele>51.0872</ele>
        <time>2013-05-05T10:44:03Z</time>
      </trkpt>
      <trkpt lat="59.9917072" lon="17.3715474">
        <ele>51.5679</ele>
        <time>2013-05-05T10:44:04Z</time>
      </trkpt>
      <trkpt lat="59.9917455" lon="17.371442">
        <ele>51.5679</ele>
        <time>2013-05-05T10:44:05Z</time>
      </trkpt>
      <trkpt lat="59.9917836" lon="17.3713418">
        <ele>51.5679</ele>
        <time>2013-05-05T10:44:06Z</time>
      </trkpt>
      <trkpt lat="59.9918203" lon="17.3712427">
        <ele>51.0872</ele>
        <time>2013-05-05T10:44:07Z</time>
      </trkpt>
      <trkpt lat="59.9918566" lon="17.3711449">
        <ele>51.0872</ele>
        <time>2013-05-05T10:44:08Z</time>
      </trkpt>
      <trkpt lat="59.9918926" lon="17.3710456">
        <ele>51.0872</ele>
        <time>2013-05-05T10:44:09Z</time>
      </trkpt>
      <trkpt lat="59.9919301" lon="17.3709498">
        <ele>51.0872</ele>
        <time>2013-05-05T10:44:10Z</time>
      </trkpt>
      <trkpt lat="59.9919666" lon="17.3708501">
        <ele>51.0872</ele>
        <time>2013-05-05T10:44:11Z</time>
      </trkpt>
      <trkpt lat="59.9920049" lon="17.3707483">
        <ele>51.5679</ele>
        <time>2013-05-05T10:44:12Z</time>
      </trkpt>
      <trkpt lat="59.9920452" lon="17.3706445">
        <ele>51.5679</ele>
        <time>2013-05-05T10:44:13Z</time>
      </trkpt>
      <trkpt lat="59.9920852" lon="17.3705379">
        <ele>51.5679</ele>
        <time>2013-05-05T10:44:14Z</time>
      </trkpt>
      <trkpt lat="59.9921282" lon="17.3704395">
        <ele>51.0872</ele>
        <time>2013-05-05T10:44:15Z</time>
      </trkpt>
      <trkpt lat="59.9921708" lon="17.3703385">
        <ele>51.0872</ele>
        <time>2013-05-05T10:44:16Z</time>
      </trkpt>
      <trkpt lat="59.9922122" lon="17.3702246">
        <ele>51.0872</ele>
        <time>2013-05-05T10:44:17Z</time>
      </trkpt>
      <trkpt lat="59.992255" lon="17.3701038">
        <ele>51.5679</ele>
        <time>2013-05-05T10:44:18Z</time>
      </trkpt>
      <trkpt lat="59.992298" lon="17.3699806">
        <ele>52.0486</ele>
        <time>2013-05-05T10:44:19Z</time>
      </trkpt>
      <trkpt lat="59.9923409" lon="17.3698479">
        <ele>52.0486</ele>
        <time>2013-05-05T10:44:20Z</time>
      </trkpt>
      <trkpt lat="59.9923845" lon="17.3697034">
        <ele>52.5292</ele>
        <time>2013-05-05T10:44:21Z</time>
      </trkpt>
      <trkpt lat="59.9924314" lon="17.3695711">
        <ele>53.0098</ele>
        <time>2013-05-05T10:44:22Z</time>
      </trkpt>
      <trkpt lat="59.992477" lon="17.3694307">
        <ele>53.4905</ele>
        <time>2013-05-05T10:44:23Z</time>
      </trkpt>
      <trkpt lat="59.9925214" lon="17.3692926">
        <ele>53.9712</ele>
        <time>2013-05-05T10:44:24Z</time>
      </trkpt>
      <trkpt lat="59.992566" lon="17.3691673">
        <ele>54.4518</ele>
        <time>2013-05-05T10:44:25Z</time>
      </trkpt>
      <trkpt lat="59.9926094" lon="17.3690492">
        <ele>55.4131</ele>
        <time>2013-05-05T10:44:26Z</time>
      </trkpt>
      <trkpt lat="59.9926526" lon="17.3689405">
        <ele>55.4131</ele>
        <time>2013-05-05T10:44:27Z</time>
      </trkpt>
      <trkpt lat="59.9926934" lon="17.3688243">
        <ele>55.8938</ele>
        <time>2013-05-05T10:44:28Z</time>
      </trkpt>
      <trkpt lat="59.9927321" lon="17.3687068">
        <ele>56.3745</ele>
        <time>2013-05-05T10:44:29Z</time>
      </trkpt>
      <trkpt lat="59.992772" lon="17.3686016">
        <ele>56.8551</ele>
        <time>2013-05-05T10:44:30Z</time>
      </trkpt>
      <trkpt lat="59.9928154" lon="17.3685129">
        <ele>56.8551</ele>
        <time>2013-05-05T10:44:31Z</time>
      </trkpt>
      <trkpt lat="59.9928626" lon="17.368426">
        <ele>57.3358</ele>
        <time>2013-05-05T10:44:32Z</time>
      </trkpt>
      <trkpt lat="59.9929118" lon="17.3683405">
        <ele>56.8551</ele>
        <time>2013-05-05T10:44:33Z</time>
      </trkpt>
      <trkpt lat="59.9929656" lon="17.3682639">
        <ele>56.8551</ele>
        <time>2013-05-05T10:44:34Z</time>
      </trkpt>
      <trkpt lat="59.9930221" lon="17.3681887">
        <ele>56.3745</ele>
        <time>2013-05-05T10:44:35Z</time>
      </trkpt>
      <trkpt lat="59.9930843" lon="17.3681193">
        <ele>56.8551</ele>
        <time>2013-05-05T10:44:36Z</time>
      </trkpt>
      <trkpt lat="59.9931501" lon="17.3680577">
        <ele>56.3745</ele>
        <time>2013-05-05T10:44:37Z</time>
      </trkpt>
      <trkpt lat="59.9932208" lon="17.368007">
        <ele>56.3745</ele>
        <time>2013-05-05T10:44:38Z</time>
      </trkpt>
      <trkpt lat="59.9932948" lon="17.3679712">
        <ele>56.3745</ele>
        <time>2013-05-05T10:44:39Z</time>
      </trkpt>
      <trkpt lat="59.9933709" lon="17.3679547">
        <ele>55.8938</ele>
        <time>2013-05-05T10:44:40Z</time>
      </trkpt>
      <trkpt lat="59.9934446" lon="17.3679508">
        <ele>54.9324</ele>
        <time>2013-05-05T10:44:41Z</time>
      </trkpt>
      <trkpt lat="59.993514" lon="17.3679624">
        <ele>54.4518</ele>
        <time>2013-05-05T10:44:42Z</time>
      </trkpt>
      <trkpt lat="59.9935822" lon="17.3679831">
        <ele>53.9712</ele>
        <time>2013-05-05T10:44:43Z</time>
      </trkpt>
      <trkpt lat="59.9936511" lon="17.368009">
        <ele>53.0098</ele>
        <time>2013-05-05T10:44:44Z</time>
      </trkpt>
      <trkpt lat="59.9937216" lon="17.3680354">
        <ele>53.0098</ele>
        <time>2013-05-05T10:44:45Z</time>
      </trkpt>
      <trkpt lat="59.99379" lon="17.3680557">
        <ele>53.4905</ele>
        <time>2013-05-05T10:44:46Z</time>
      </trkpt>
      <trkpt lat="59.9938575" lon="17.3680697">
        <ele>53.4905</ele>
        <time>2013-05-05T10:44:47Z</time>
      </trkpt>
      <trkpt lat="59.9939201" lon="17.368081">
        <ele>53.0098</ele>
        <time>2013-05-05T10:44:48Z</time>
      </trkpt>
      <trkpt lat="59.9939822" lon="17.368086">
        <ele>52.5292</ele>
        <time>2013-05-05T10:44:49Z</time>
      </trkpt>
      <trkpt lat="59.9940511" lon="17.3680777">
        <ele>52.5292</ele>
        <time>2013-05-05T10:44:50Z</time>
      </trkpt>
      <trkpt lat="59.994124" lon="17.3680518">
        <ele>52.5292</ele>
        <time>2013-05-05T10:44:51Z</time>
      </trkpt>
      <trkpt lat="59.9941965" lon="17.368009">
        <ele>53.0098</ele>
        <time>2013-05-05T10:44:52Z</time>
      </trkpt>
      <trkpt lat="59.9942666" lon="17.3679524">
        <ele>53.0098</ele>
        <time>2013-05-05T10:44:53Z</time>
      </trkpt>
      <trkpt lat="59.9943343" lon="17.3678856">
        <ele>53.4905</ele>
        <time>2013-05-05T10:44:54Z</time>
      </trkpt>
      <trkpt lat="59.994399" lon="17.3678142">
        <ele>53.9712</ele>
        <time>2013-05-05T10:44:55Z</time>
      </trkpt>
      <trkpt lat="59.9944603" lon="17.3677403">
        <ele>53.4905</ele>
        <time>2013-05-05T10:44:56Z</time>
      </trkpt>
      <trkpt lat="59.994519" lon="17.3676677">
        <ele>53.4905</ele>
        <time>2013-05-05T10:44:57Z</time>
      </trkpt>
      <trkpt lat="59.9945811" lon="17.3675911">
        <ele>53.4905</ele>
        <time>2013-05-05T10:44:58Z</time>
      </trkpt>
      <trkpt lat="59.9946435" lon="17.36752">
        <ele>53.4905</ele>
        <time>2013-05-05T10:44:59Z</time>
      </trkpt>
      <trkpt lat="59.9947084" lon="17.367453">
        <ele>53.4905</ele>
        <time>2013-05-05T10:45:00Z</time>
      </trkpt>
      <trkpt lat="59.9947737" lon="17.367386">
        <ele>53.9712</ele>
        <time>2013-05-05T10:45:01Z</time>
      </trkpt>
      <trkpt lat="59.994839" lon="17.3673226">
        <ele>53.9712</ele>
        <time>2013-05-05T10:45:02Z</time>
      </trkpt>
      <trkpt lat="59.9949035" lon="17.3672595">
        <ele>53.9712</ele>
        <time>2013-05-05T10:45:03Z</time>
      </trkpt>
      <trkpt lat="59.994968" lon="17.3671921">
        <ele>53.9712</ele>
        <time>2013-05-05T10:45:04Z</time>
      </trkpt>
      <trkpt lat="59.9950322" lon="17.367124">
        <ele>53.9712</ele>
        <time>2013-05-05T10:45:05Z</time>
      </trkpt>
      <trkpt lat="59.995095" lon="17.3670558">
        <ele>53.9712</ele>
        <time>2013-05-05T10:45:06Z</time>
      </trkpt>
      <trkpt lat="59.9951571" lon="17.366988">
        <ele>53.9712</ele>
        <time>2013-05-05T10:45:07Z</time>
      </trkpt>
      <trkpt lat="59.9952198" lon="17.3669158">
        <ele>53.9712</ele>
        <time>2013-05-05T10:45:08Z</time>
      </trkpt>
      <trkpt lat="59.9952838" lon="17.3668373">
        <ele>53.9712</ele>
        <time>2013-05-05T10:45:09Z</time>
      </trkpt>
      <trkpt lat="59.9953461" lon="17.3667534">
        <ele>54.4518</ele>
        <time>2013-05-05T10:45:10Z</time>
      </trkpt>
      <trkpt lat="59.9954094" lon="17.3666658">
        <ele>54.4518</ele>
        <time>2013-05-05T10:45:11Z</time>
      </trkpt>
      <trkpt lat="59.9954725" lon="17.3665763">
        <ele>54.4518</ele>
        <time>2013-05-05T10:45:12Z</time>
      </trkpt>
      <trkpt lat="59.9955356" lon="17.366484">
        <ele>53.9712</ele>
        <time>2013-05-05T10:45:13Z</time>
      </trkpt>
      <trkpt lat="59.9955979" lon="17.3663825">
        <ele>53.9712</ele>
        <time>2013-05-05T10:45:14Z</time>
      </trkpt>
      <trkpt lat="59.9956595" lon="17.3662799">
        <ele>54.4518</ele>
        <time>2013-05-05T10:45:15Z</time>
      </trkpt>
      <trkpt lat="59.9957202" lon="17.36617">
        <ele>54.4518</ele>
        <time>2013-05-05T10:45:16Z</time>
      </trkpt>
      <trkpt lat="59.9957823" lon="17.3660673">
        <ele>53.9712</ele>
        <time>2013-05-05T10:45:17Z</time>
      </trkpt>
      <trkpt lat="59.9958444" lon="17.3659614">
        <ele>53.9712</ele>
        <time>2013-05-05T10:45:18Z</time>
      </trkpt>
      <trkpt lat="59.995905" lon="17.3658515">
        <ele>53.4905</ele>
        <time>2013-05-05T10:45:19Z</time>
      </trkpt>
      <trkpt lat="59.9959657" lon="17.3657413">
        <ele>53.9712</ele>
        <time>2013-05-05T10:45:20Z</time>
      </trkpt>
      <trkpt lat="59.9960257" lon="17.3656272">
        <ele>53.4905</ele>
        <time>2013-05-05T10:45:21Z</time>
      </trkpt>
      <trkpt lat="59.9960859" lon="17.3655146">
        <ele>53.4905</ele>
        <time>2013-05-05T10:45:22Z</time>
      </trkpt>
      <trkpt lat="59.9961449" lon="17.3653987">
        <ele>53.0098</ele>
        <time>2013-05-05T10:45:23Z</time>
      </trkpt>
      <trkpt lat="59.9962044" lon="17.3652847">
        <ele>53.0098</ele>
        <time>2013-05-05T10:45:24Z</time>
      </trkpt>
      <trkpt lat="59.996264" lon="17.3651671">
        <ele>53.0098</ele>
        <time>2013-05-05T10:45:25Z</time>
      </trkpt>
      <trkpt lat="59.9963257" lon="17.3650497">
        <ele>53.0098</ele>
        <time>2013-05-05T10:45:26Z</time>
      </trkpt>
      <trkpt lat="59.9963889" lon="17.3649299">
        <ele>53.0098</ele>
        <time>2013-05-05T10:45:27Z</time>
      </trkpt>
      <trkpt lat="59.9964534" lon="17.3648123">
        <ele>53.4905</ele>
        <time>2013-05-05T10:45:28Z</time>
      </trkpt>
      <trkpt lat="59.9965179" lon="17.3646943">
        <ele>53.4905</ele>
        <time>2013-05-05T10:45:29Z</time>
      </trkpt>
      <trkpt lat="59.9965804" lon="17.3645745">
        <ele>53.4905</ele>
        <time>2013-05-05T10:45:30Z</time>
      </trkpt>
      <trkpt lat="59.9966406" lon="17.3644559">
        <ele>53.4905</ele>
        <time>2013-05-05T10:45:31Z</time>
      </trkpt>
      <trkpt lat="59.9966975" lon="17.3643458">
        <ele>53.4905</ele>
        <time>2013-05-05T10:45:32Z</time>
      </trkpt>
      <trkpt lat="59.9967514" lon="17.3642385">
        <ele>53.0098</ele>
        <time>2013-05-05T10:45:33Z</time>
      </trkpt>
      <trkpt lat="59.9968044" lon="17.3641308">
        <ele>53.0098</ele>
        <time>2013-05-05T10:45:34Z</time>
      </trkpt>
      <trkpt lat="59.9968583" lon="17.3640232">
        <ele>53.0098</ele>
        <time>2013-05-05T10:45:35Z</time>
      </trkpt>
      <trkpt lat="59.9969119" lon="17.3639101">
        <ele>53.0098</ele>
        <time>2013-05-05T10:45:36Z</time>
      </trkpt>
      <trkpt lat="59.9969679" lon="17.363793">
        <ele>52.5292</ele>
        <time>2013-05-05T10:45:37Z</time>
      </trkpt>
      <trkpt lat="59.9970223" lon="17.3636669">
        <ele>52.0486</ele>
        <time>2013-05-05T10:45:38Z</time>
      </trkpt>
      <trkpt lat="59.9970789" lon="17.3635464">
        <ele>51.0872</ele>
        <time>2013-05-05T10:45:39Z</time>
      </trkpt>
      <trkpt lat="59.9971389" lon="17.3634257">
        <ele>50.6066</ele>
        <time>2013-05-05T10:45:40Z</time>
      </trkpt>
      <trkpt lat="59.997201" lon="17.3632937">
        <ele>50.126</ele>
        <time>2013-05-05T10:45:41Z</time>
      </trkpt>
      <trkpt lat="59.9972648" lon="17.3631537">
        <ele>50.126</ele>
        <time>2013-05-05T10:45:42Z</time>
      </trkpt>
      <trkpt lat="59.9973294" lon="17.3630092">
        <ele>49.6453</ele>
        <time>2013-05-05T10:45:43Z</time>
      </trkpt>
      <trkpt lat="59.9973924" lon="17.3628666">
        <ele>49.1646</ele>
        <time>2013-05-05T10:45:44Z</time>
      </trkpt>
      <trkpt lat="59.9974563" lon="17.3627303">
        <ele>48.684</ele>
        <time>2013-05-05T10:45:45Z</time>
      </trkpt>
      <trkpt lat="59.9975156" lon="17.3625724">
        <ele>48.2034</ele>
        <time>2013-05-05T10:45:46Z</time>
      </trkpt>
      <trkpt lat="59.9975685" lon="17.3624212">
        <ele>47.7225</ele>
        <time>2013-05-05T10:45:47Z</time>
      </trkpt>
      <trkpt lat="59.9976107" lon="17.3622793">
        <ele>47.7225</ele>
        <time>2013-05-05T10:45:48Z</time>
      </trkpt>
      <trkpt lat="59.9976433" lon="17.36214">
        <ele>47.2418</ele>
        <time>2013-05-05T10:45:49Z</time>
      </trkpt>
      <trkpt lat="59.9976678" lon="17.3619974">
        <ele>46.7612</ele>
        <time>2013-05-05T10:45:50Z</time>
      </trkpt>
      <trkpt lat="59.9976938" lon="17.3618574">
        <ele>46.2806</ele>
        <time>2013-05-05T10:45:51Z</time>
      </trkpt>
      <trkpt lat="59.9977229" lon="17.3617167">
        <ele>45.3192</ele>
        <time>2013-05-05T10:45:52Z</time>
      </trkpt>
      <trkpt lat="59.997758" lon="17.361579">
        <ele>44.8386</ele>
        <time>2013-05-05T10:45:53Z</time>
      </trkpt>
      <trkpt lat="59.9978046" lon="17.3614575">
        <ele>44.8386</ele>
        <time>2013-05-05T10:45:54Z</time>
      </trkpt>
      <trkpt lat="59.99787" lon="17.3613581">
        <ele>44.8386</ele>
        <time>2013-05-05T10:45:55Z</time>
      </trkpt>
      <trkpt lat="59.9979489" lon="17.3612888">
        <ele>44.358</ele>
        <time>2013-05-05T10:45:56Z</time>
      </trkpt>
      <trkpt lat="59.9980323" lon="17.3612314">
        <ele>44.358</ele>
        <time>2013-05-05T10:45:57Z</time>
      </trkpt>
      <trkpt lat="59.9981154" lon="17.3611735">
        <ele>44.358</ele>
        <time>2013-05-05T10:45:58Z</time>
      </trkpt>
      <trkpt lat="59.9981973" lon="17.361116">
        <ele>44.358</ele>
        <time>2013-05-05T10:45:59Z</time>
      </trkpt>
      <trkpt lat="59.9982765" lon="17.3610615">
        <ele>44.358</ele>
        <time>2013-05-05T10:46:00Z</time>
      </trkpt>
      <trkpt lat="59.9983512" lon="17.361006">
        <ele>44.358</ele>
        <time>2013-05-05T10:46:01Z</time>
      </trkpt>
      <trkpt lat="59.9984218" lon="17.3609512">
        <ele>44.358</ele>
        <time>2013-05-05T10:46:02Z</time>
      </trkpt>
      <trkpt lat="59.9984899" lon="17.3608979">
        <ele>44.358</ele>
        <time>2013-05-05T10:46:03Z</time>
      </trkpt>
      <trkpt lat="59.9985553" lon="17.3608471">
        <ele>44.358</ele>
        <time>2013-05-05T10:46:04Z</time>
      </trkpt>
      <trkpt lat="59.998621" lon="17.360803">
        <ele>44.8386</ele>
        <time>2013-05-05T10:46:05Z</time>
      </trkpt>
      <trkpt lat="59.9986848" lon="17.3607601">
        <ele>44.8386</ele>
        <time>2013-05-05T10:46:06Z</time>
      </trkpt>
      <trkpt lat="59.9987444" lon="17.3607179">
        <ele>45.3192</ele>
        <time>2013-05-05T10:46:07Z</time>
      </trkpt>
      <trkpt lat="59.9988022" lon="17.3606771">
        <ele>45.3192</ele>
        <time>2013-05-05T10:46:08Z</time>
      </trkpt>
      <trkpt lat="59.9988603" lon="17.3606386">
        <ele>45.7999</ele>
        <time>2013-05-05T10:46:09Z</time>
      </trkpt>
      <trkpt lat="59.9989183" lon="17.3605989">
        <ele>45.7999</ele>
        <time>2013-05-05T10:46:10Z</time>
      </trkpt>
      <trkpt lat="59.9989758" lon="17.3605568">
        <ele>46.2806</ele>
        <time>2013-05-05T10:46:11Z</time>
      </trkpt>
      <trkpt lat="59.9990331" lon="17.3605128">
        <ele>46.2806</ele>
        <time>2013-05-05T10:46:12Z</time>
      </trkpt>
      <trkpt lat="59.9990924" lon="17.3604684">
        <ele>46.7612</ele>
        <time>2013-05-05T10:46:13Z</time>
      </trkpt>
      <trkpt lat="59.9991533" lon="17.3604217">
        <ele>46.7612</ele>
        <time>2013-05-05T10:46:14Z</time>
      </trkpt>
      <trkpt lat="59.9992161" lon="17.3603746">
        <ele>47.2418</ele>
        <time>2013-05-05T10:46:15Z</time>
      </trkpt>
      <trkpt lat="59.9992773" lon="17.360327">
        <ele>47.2418</ele>
        <time>2013-05-05T10:46:16Z</time>
      </trkpt>
      <trkpt lat="59.9993392" lon="17.3602803">
        <ele>47.2418</ele>
        <time>2013-05-05T10:46:17Z</time>
      </trkpt>
      <trkpt lat="59.9994011" lon="17.3602355">
        <ele>47.2418</ele>
        <time>2013-05-05T10:46:18Z</time>
      </trkpt>
      <trkpt lat="59.9994636" lon="17.3601954">
        <ele>47.2418</ele>
        <time>2013-05-05T10:46:19Z</time>
      </trkpt>
      <trkpt lat="59.9995285" lon="17.3601612">
        <ele>47.2418</ele>
        <time>2013-05-05T10:46:20Z</time>
      </trkpt>
      <trkpt lat="59.9995941" lon="17.3601311">
        <ele>47.2418</ele>
        <time>2013-05-05T10:46:21Z</time>
      </trkpt>
      <trkpt lat="59.9996611" lon="17.360103">
        <ele>46.7612</ele>
        <time>2013-05-05T10:46:22Z</time>
      </trkpt>
      <trkpt lat="59.9997307" lon="17.3600771">
        <ele>47.2418</ele>
        <time>2013-05-05T10:46:23Z</time>
      </trkpt>
      <trkpt lat="59.9998008" lon="17.3600576">
        <ele>46.7612</ele>
        <time>2013-05-05T10:46:24Z</time>
      </trkpt>
      <trkpt lat="59.999872" lon="17.3600419">
        <ele>46.7612</ele>
        <time>2013-05-05T10:46:25Z</time>
      </trkpt>
      <trkpt lat="59.9999429" lon="17.3600254">
        <ele>46.7612</ele>
        <time>2013-05-05T10:46:26Z</time>
      </trkpt>
      <trkpt lat="60.000016" lon="17.3600068">
        <ele>46.2806</ele>
        <time>2013-05-05T10:46:27Z</time>
      </trkpt>
      <trkpt lat="60.000089" lon="17.3599913">
        <ele>46.2806</ele>
        <time>2013-05-05T10:46:28Z</time>
      </trkpt>
      <trkpt lat="60.0001622" lon="17.3599804">
        <ele>46.2806</ele>
        <time>2013-05-05T10:46:29Z</time>
      </trkpt>
      <trkpt lat="60.0002365" lon="17.3599753">
        <ele>45.7999</ele>
        <time>2013-05-05T10:46:30Z</time>
      </trkpt>
      <trkpt lat="60.0003112" lon="17.3599766">
        <ele>45.3192</ele>
        <time>2013-05-05T10:46:31Z</time>
      </trkpt>
      <trkpt lat="60.0003859" lon="17.359991">
        <ele>45.7999</ele>
        <time>2013-05-05T10:46:32Z</time>
      </trkpt>
      <trkpt lat="60.0004602" lon="17.3600208">
        <ele>45.3192</ele>
        <time>2013-05-05T10:46:33Z</time>
      </trkpt>
      <trkpt lat="60.0005335" lon="17.3600573">
        <ele>45.3192</ele>
        <time>2013-05-05T10:46:34Z</time>
      </trkpt>
      <trkpt lat="60.0006059" lon="17.3600984">
        <ele>44.8386</ele>
        <time>2013-05-05T10:46:35Z</time>
      </trkpt>
      <trkpt lat="60.0006773" lon="17.3601426">
        <ele>44.8386</ele>
        <time>2013-05-05T10:46:36Z</time>
      </trkpt>
      <trkpt lat="60.0007483" lon="17.3601882">
        <ele>44.8386</ele>
        <time>2013-05-05T10:46:37Z</time>
      </trkpt>
      <trkpt lat="60.0008194" lon="17.3602362">
        <ele>44.8386</ele>
        <time>2013-05-05T10:46:38Z</time>
      </trkpt>
      <trkpt lat="60.0008899" lon="17.3602818">
        <ele>44.8386</ele>
        <time>2013-05-05T10:46:39Z</time>
      </trkpt>
      <trkpt lat="60.0009593" lon="17.3603212">
        <ele>44.8386</ele>
        <time>2013-05-05T10:46:40Z</time>
      </trkpt>
      <trkpt lat="60.0010278" lon="17.3603616">
        <ele>44.8386</ele>
        <time>2013-05-05T10:46:41Z</time>
      </trkpt>
      <trkpt lat="60.0010955" lon="17.3604113">
        <ele>44.8386</ele>
        <time>2013-05-05T10:46:42Z</time>
      </trkpt>
      <trkpt lat="60.0011598" lon="17.3604771">
        <ele>44.358</ele>
        <time>2013-05-05T10:46:43Z</time>
      </trkpt>
      <trkpt lat="60.0012166" lon="17.3605705">
        <ele>44.358</ele>
        <time>2013-05-05T10:46:44Z</time>
      </trkpt>
      <trkpt lat="60.0012603" lon="17.3606942">
        <ele>44.358</ele>
        <time>2013-05-05T10:46:45Z</time>
      </trkpt>
      <trkpt lat="60.0012902" lon="17.3608413">
        <ele>44.358</ele>
        <time>2013-05-05T10:46:46Z</time>
      </trkpt>
      <trkpt lat="60.0013083" lon="17.361001">
        <ele>44.358</ele>
        <time>2013-05-05T10:46:47Z</time>
      </trkpt>
      <trkpt lat="60.0013194" lon="17.3611695">
        <ele>44.358</ele>
        <time>2013-05-05T10:46:48Z</time>
      </trkpt>
      <trkpt lat="60.0013296" lon="17.3613464">
        <ele>44.358</ele>
        <time>2013-05-05T10:46:49Z</time>
      </trkpt>
      <trkpt lat="60.0013404" lon="17.3615288">
        <ele>44.358</ele>
        <time>2013-05-05T10:46:50Z</time>
      </trkpt>
      <trkpt lat="60.0013519" lon="17.3617142">
        <ele>44.358</ele>
        <time>2013-05-05T10:46:51Z</time>
      </trkpt>
      <trkpt lat="60.0013644" lon="17.3619026">
        <ele>43.8773</ele>
        <time>2013-05-05T10:46:52Z</time>
      </trkpt>
      <trkpt lat="60.0013773" lon="17.3620913">
        <ele>43.8773</ele>
        <time>2013-05-05T10:46:53Z</time>
      </trkpt>
      <trkpt lat="60.00139" lon="17.3622794">
        <ele>43.8773</ele>
        <time>2013-05-05T10:46:54Z</time>
      </trkpt>
      <trkpt lat="60.0014026" lon="17.3624642">
        <ele>43.8773</ele>
        <time>2013-05-05T10:46:55Z</time>
      </trkpt>
      <trkpt lat="60.0014177" lon="17.3626438">
        <ele>44.358</ele>
        <time>2013-05-05T10:46:56Z</time>
      </trkpt>
      <trkpt lat="60.0014323" lon="17.3628194">
        <ele>44.358</ele>
        <time>2013-05-05T10:46:57Z</time>
      </trkpt>
      <trkpt lat="60.0014465" lon="17.3629987">
        <ele>44.358</ele>
        <time>2013-05-05T10:46:58Z</time>
      </trkpt>
      <trkpt lat="60.0014767" lon="17.3631578">
        <ele>44.358</ele>
        <time>2013-05-05T10:46:59Z</time>
      </trkpt>
      <trkpt lat="60.0015207" lon="17.3632914">
        <ele>44.358</ele>
        <time>2013-05-05T10:47:00Z</time>
      </trkpt>
      <trkpt lat="60.0015835" lon="17.3634001">
        <ele>44.8386</ele>
        <time>2013-05-05T10:47:01Z</time>
      </trkpt>
      <trkpt lat="60.0016581" lon="17.3634883">
        <ele>44.8386</ele>
        <time>2013-05-05T10:47:02Z</time>
      </trkpt>
      <trkpt lat="60.0017367" lon="17.3635558">
        <ele>44.8386</ele>
        <time>2013-05-05T10:47:03Z</time>
      </trkpt>
      <trkpt lat="60.0018184" lon="17.3636112">
        <ele>44.8386</ele>
        <time>2013-05-05T10:47:04Z</time>
      </trkpt>
      <trkpt lat="60.001902" lon="17.3636557">
        <ele>44.8386</ele>
        <time>2013-05-05T10:47:05Z</time>
      </trkpt>
      <trkpt lat="60.0019839" lon="17.3636969">
        <ele>44.8386</ele>
        <time>2013-05-05T10:47:06Z</time>
      </trkpt>
      <trkpt lat="60.0020678" lon="17.3637344">
        <ele>44.8386</ele>
        <time>2013-05-05T10:47:07Z</time>
      </trkpt>
      <trkpt lat="60.0021487" lon="17.3637737">
        <ele>44.8386</ele>
        <time>2013-05-05T10:47:08Z</time>
      </trkpt>
      <trkpt lat="60.0022297" lon="17.3638195">
        <ele>44.8386</ele>
        <time>2013-05-05T10:47:09Z</time>
      </trkpt>
      <trkpt lat="60.0023118" lon="17.3638625">
        <ele>44.8386</ele>
        <time>2013-05-05T10:47:10Z</time>
      </trkpt>
      <trkpt lat="60.0023906" lon="17.363899">
        <ele>44.8386</ele>
        <time>2013-05-05T10:47:11Z</time>
      </trkpt>
      <trkpt lat="60.002472" lon="17.3639229">
        <ele>45.3192</ele>
        <time>2013-05-05T10:47:12Z</time>
      </trkpt>
      <trkpt lat="60.0025536" lon="17.3639433">
        <ele>44.8386</ele>
        <time>2013-05-05T10:47:13Z</time>
      </trkpt>
      <trkpt lat="60.0026381" lon="17.363965">
        <ele>44.8386</ele>
        <time>2013-05-05T10:47:14Z</time>
      </trkpt>
      <trkpt lat="60.0027237" lon="17.3639917">
        <ele>44.8386</ele>
        <time>2013-05-05T10:47:15Z</time>
      </trkpt>
      <trkpt lat="60.0028102" lon="17.3640152">
        <ele>44.8386</ele>
        <time>2013-05-05T10:47:16Z</time>
      </trkpt>
      <trkpt lat="60.0028912" lon="17.3640286">
        <ele>45.3192</ele>
        <time>2013-05-05T10:47:17Z</time>
      </trkpt>
      <trkpt lat="60.0029625" lon="17.3640318">
        <ele>45.7999</ele>
        <time>2013-05-05T10:47:18Z</time>
      </trkpt>
      <trkpt lat="60.0030348" lon="17.3640416">
        <ele>46.2806</ele>
        <time>2013-05-05T10:47:19Z</time>
      </trkpt>
      <trkpt lat="60.0031114" lon="17.3640522">
        <ele>45.7999</ele>
        <time>2013-05-05T10:47:20Z</time>
      </trkpt>
      <trkpt lat="60.003186" lon="17.3640613">
        <ele>45.3192</ele>
        <time>2013-05-05T10:47:21Z</time>
      </trkpt>
      <trkpt lat="60.0032655" lon="17.3640648">
        <ele>45.7999</ele>
        <time>2013-05-05T10:47:22Z</time>
      </trkpt>
      <trkpt lat="60.0033437" lon="17.3640674">
        <ele>45.7999</ele>
        <time>2013-05-05T10:47:23Z</time>
      </trkpt>
      <trkpt lat="60.0034207" lon="17.3640696">
        <ele>45.7999</ele>
        <time>2013-05-05T10:47:24Z</time>
      </trkpt>
      <trkpt lat="60.003497" lon="17.3640716">
        <ele>45.7999</ele>
        <time>2013-05-05T10:47:25Z</time>
      </trkpt>
      <trkpt lat="60.0035717" lon="17.3640756">
        <ele>45.3192</ele>
        <time>2013-05-05T10:47:26Z</time>
      </trkpt>
      <trkpt lat="60.0036445" lon="17.3640804">
        <ele>44.358</ele>
        <time>2013-05-05T10:47:27Z</time>
      </trkpt>
      <trkpt lat="60.0037182" lon="17.3640813">
        <ele>43.8773</ele>
        <time>2013-05-05T10:47:28Z</time>
      </trkpt>
      <trkpt lat="60.0038009" lon="17.3640753">
        <ele>44.358</ele>
        <time>2013-05-05T10:47:29Z</time>
      </trkpt>
      <trkpt lat="60.0038818" lon="17.3640675">
        <ele>45.3192</ele>
        <time>2013-05-05T10:47:30Z</time>
      </trkpt>
      <trkpt lat="60.0039653" lon="17.3640614">
        <ele>45.7999</ele>
        <time>2013-05-05T10:47:31Z</time>
      </trkpt>
      <trkpt lat="60.0040496" lon="17.36406">
        <ele>45.7999</ele>
        <time>2013-05-05T10:47:32Z</time>
      </trkpt>
      <trkpt lat="60.0041351" lon="17.3640556">
        <ele>45.7999</ele>
        <time>2013-05-05T10:47:33Z</time>
      </trkpt>
      <trkpt lat="60.0042203" lon="17.3640491">
        <ele>45.7999</ele>
        <time>2013-05-05T10:47:34Z</time>
      </trkpt>
      <trkpt lat="60.0043061" lon="17.3640452">
        <ele>45.3192</ele>
        <time>2013-05-05T10:47:35Z</time>
      </trkpt>
      <trkpt lat="60.0043937" lon="17.3640432">
        <ele>45.7999</ele>
        <time>2013-05-05T10:47:36Z</time>
      </trkpt>
      <trkpt lat="60.0044786" lon="17.3640499">
        <ele>45.7999</ele>
        <time>2013-05-05T10:47:37Z</time>
      </trkpt>
      <trkpt lat="60.0045613" lon="17.364055">
        <ele>45.7999</ele>
        <time>2013-05-05T10:47:38Z</time>
      </trkpt>
      <trkpt lat="60.0046452" lon="17.3640564">
        <ele>45.7999</ele>
        <time>2013-05-05T10:47:39Z</time>
      </trkpt>
      <trkpt lat="60.0047292" lon="17.3640587">
        <ele>44.8386</ele>
        <time>2013-05-05T10:47:40Z</time>
      </trkpt>
      <trkpt lat="60.0048132" lon="17.3640581">
        <ele>44.358</ele>
        <time>2013-05-05T10:47:41Z</time>
      </trkpt>
      <trkpt lat="60.0048991" lon="17.3640545">
        <ele>44.8386</ele>
        <time>2013-05-05T10:47:42Z</time>
      </trkpt>
      <trkpt lat="60.0049881" lon="17.3640461">
        <ele>45.3192</ele>
        <time>2013-05-05T10:47:43Z</time>
      </trkpt>
      <trkpt lat="60.0050776" lon="17.3640348">
        <ele>46.2806</ele>
        <time>2013-05-05T10:47:44Z</time>
      </trkpt>
      <trkpt lat="60.0051676" lon="17.3640334">
        <ele>46.2806</ele>
        <time>2013-05-05T10:47:45Z</time>
      </trkpt>
      <trkpt lat="60.0052567" lon="17.3640331">
        <ele>46.2806</ele>
        <time>2013-05-05T10:47:46Z</time>
      </trkpt>
      <trkpt lat="60.0053437" lon="17.3640358">
        <ele>45.7999</ele>
        <time>2013-05-05T10:47:47Z</time>
      </trkpt>
      <trkpt lat="60.0054256" lon="17.3640354">
        <ele>45.3192</ele>
        <time>2013-05-05T10:47:48Z</time>
      </trkpt>
      <trkpt lat="60.0055047" lon="17.3640363">
        <ele>45.3192</ele>
        <time>2013-05-05T10:47:49Z</time>
      </trkpt>
      <trkpt lat="60.0055809" lon="17.3640364">
        <ele>45.3192</ele>
        <time>2013-05-05T10:47:50Z</time>
      </trkpt>
      <trkpt lat="60.0056545" lon="17.364039">
        <ele>45.3192</ele>
        <time>2013-05-05T10:47:51Z</time>
      </trkpt>
      <trkpt lat="60.0057281" lon="17.3640448">
        <ele>44.8386</ele>
        <time>2013-05-05T10:47:52Z</time>
      </trkpt>
      <trkpt lat="60.005802" lon="17.3640541">
        <ele>44.358</ele>
        <time>2013-05-05T10:47:53Z</time>
      </trkpt>
      <trkpt lat="60.0058771" lon="17.364067">
        <ele>44.358</ele>
        <time>2013-05-05T10:47:54Z</time>
      </trkpt>
      <trkpt lat="60.0059543" lon="17.3640841">
        <ele>43.8773</ele>
        <time>2013-05-05T10:47:55Z</time>
      </trkpt>
      <trkpt lat="60.0060328" lon="17.3641035">
        <ele>43.8773</ele>
        <time>2013-05-05T10:47:56Z</time>
      </trkpt>
      <trkpt lat="60.0061123" lon="17.3641229">
        <ele>44.358</ele>
        <time>2013-05-05T10:47:57Z</time>
      </trkpt>
      <trkpt lat="60.0061916" lon="17.3641445">
        <ele>44.358</ele>
        <time>2013-05-05T10:47:58Z</time>
      </trkpt>
      <trkpt lat="60.0062702" lon="17.364168">
        <ele>43.8773</ele>
        <time>2013-05-05T10:47:59Z</time>
      </trkpt>
      <trkpt lat="60.0063512" lon="17.3641909">
        <ele>43.8773</ele>
        <time>2013-05-05T10:48:00Z</time>
      </trkpt>
      <trkpt lat="60.006432" lon="17.3642198">
        <ele>43.3966</ele>
        <time>2013-05-05T10:48:01Z</time>
      </trkpt>
      <trkpt lat="60.0065168" lon="17.3642493">
        <ele>42.916</ele>
        <time>2013-05-05T10:48:02Z</time>
      </trkpt>
      <trkpt lat="60.0066044" lon="17.3642772">
        <ele>42.4354</ele>
        <time>2013-05-05T10:48:03Z</time>
      </trkpt>
      <trkpt lat="60.0066937" lon="17.3643028">
        <ele>42.4354</ele>
        <time>2013-05-05T10:48:04Z</time>
      </trkpt>
      <trkpt lat="60.0067815" lon="17.3643332">
        <ele>41.9547</ele>
        <time>2013-05-05T10:48:05Z</time>
      </trkpt>
      <trkpt lat="60.0068673" lon="17.364368">
        <ele>41.9547</ele>
        <time>2013-05-05T10:48:06Z</time>
      </trkpt>
      <trkpt lat="60.0069501" lon="17.3644086">
        <ele>41.9547</ele>
        <time>2013-05-05T10:48:07Z</time>
      </trkpt>
      <trkpt lat="60.0070299" lon="17.3644543">
        <ele>41.9547</ele>
        <time>2013-05-05T10:48:08Z</time>
      </trkpt>
      <trkpt lat="60.0071082" lon="17.3645032">
        <ele>41.9547</ele>
        <time>2013-05-05T10:48:09Z</time>
      </trkpt>
      <trkpt lat="60.0071852" lon="17.3645561">
        <ele>41.9547</ele>
        <time>2013-05-05T10:48:10Z</time>
      </trkpt>
      <trkpt lat="60.0072624" lon="17.3646109">
        <ele>41.9547</ele>
        <time>2013-05-05T10:48:11Z</time>
      </trkpt>
      <trkpt lat="60.0073452" lon="17.3646663">
        <ele>41.9547</ele>
        <time>2013-05-05T10:48:12Z</time>
      </trkpt>
      <trkpt lat="60.0074205" lon="17.3647172">
        <ele>41.9547</ele>
        <time>2013-05-05T10:48:13Z</time>
      </trkpt>
      <trkpt lat="60.0074943" lon="17.3647692">
        <ele>41.474</ele>
        <time>2013-05-05T10:48:14Z</time>
      </trkpt>
      <trkpt lat="60.0075743" lon="17.3648275">
        <ele>41.474</ele>
        <time>2013-05-05T10:48:15Z</time>
      </trkpt>
      <trkpt lat="60.0076468" lon="17.3649029">
        <ele>40.9934</ele>
        <time>2013-05-05T10:48:16Z</time>
      </trkpt>
      <trkpt lat="60.0077214" lon="17.3649635">
        <ele>41.474</ele>
        <time>2013-05-05T10:48:17Z</time>
      </trkpt>
      <trkpt lat="60.007804" lon="17.3650275">
        <ele>41.474</ele>
        <time>2013-05-05T10:48:18Z</time>
      </trkpt>
      <trkpt lat="60.0078878" lon="17.3650946">
        <ele>41.474</ele>
        <time>2013-05-05T10:48:19Z</time>
      </trkpt>
      <trkpt lat="60.0079633" lon="17.3651515">
        <ele>40.9934</ele>
        <time>2013-05-05T10:48:20Z</time>
      </trkpt>
      <trkpt lat="60.0080467" lon="17.3652093">
        <ele>40.9934</ele>
        <time>2013-05-05T10:48:21Z</time>
      </trkpt>
      <trkpt lat="60.0081228" lon="17.3652613">
        <ele>40.9934</ele>
        <time>2013-05-05T10:48:22Z</time>
      </trkpt>
      <trkpt lat="60.0081843" lon="17.3653159">
        <ele>41.474</ele>
        <time>2013-05-05T10:48:23Z</time>
      </trkpt>
      <trkpt lat="60.008257" lon="17.3653628">
        <ele>41.474</ele>
        <time>2013-05-05T10:48:24Z</time>
      </trkpt>
      <trkpt lat="60.0083301" lon="17.3654226">
        <ele>41.9547</ele>
        <time>2013-05-05T10:48:25Z</time>
      </trkpt>
      <trkpt lat="60.0083975" lon="17.3654745">
        <ele>43.3966</ele>
        <time>2013-05-05T10:48:26Z</time>
      </trkpt>
      <trkpt lat="60.0084638" lon="17.365542">
        <ele>43.8773</ele>
        <time>2013-05-05T10:48:27Z</time>
      </trkpt>
      <trkpt lat="60.008531" lon="17.3656232">
        <ele>43.8773</ele>
        <time>2013-05-05T10:48:28Z</time>
      </trkpt>
      <trkpt lat="60.0085992" lon="17.3657075">
        <ele>43.8773</ele>
        <time>2013-05-05T10:48:29Z</time>
      </trkpt>
      <trkpt lat="60.0086591" lon="17.3658114">
        <ele>42.916</ele>
        <time>2013-05-05T10:48:30Z</time>
      </trkpt>
      <trkpt lat="60.0087205" lon="17.3659264">
        <ele>42.916</ele>
        <time>2013-05-05T10:48:31Z</time>
      </trkpt>
      <trkpt lat="60.008776" lon="17.3660556">
        <ele>42.4354</ele>
        <time>2013-05-05T10:48:32Z</time>
      </trkpt>
      <trkpt lat="60.0088335" lon="17.3661868">
        <ele>42.4354</ele>
        <time>2013-05-05T10:48:33Z</time>
      </trkpt>
      <trkpt lat="60.0088921" lon="17.366323">
        <ele>42.4354</ele>
        <time>2013-05-05T10:48:34Z</time>
      </trkpt>
      <trkpt lat="60.0089427" lon="17.3664828">
        <ele>41.9547</ele>
        <time>2013-05-05T10:48:35Z</time>
      </trkpt>
      <trkpt lat="60.0089956" lon="17.366586">
        <ele>41.9547</ele>
        <time>2013-05-05T10:48:36Z</time>
      </trkpt>
      <trkpt lat="60.0090517" lon="17.3667329">
        <ele>41.474</ele>
        <time>2013-05-05T10:48:37Z</time>
      </trkpt>
      <trkpt lat="60.0090975" lon="17.3668522">
        <ele>40.9934</ele>
        <time>2013-05-05T10:48:38Z</time>
      </trkpt>
      <trkpt lat="60.0091439" lon="17.366963">
        <ele>40.9934</ele>
        <time>2013-05-05T10:48:39Z</time>
      </trkpt>
      <trkpt lat="60.0091909" lon="17.3670802">
        <ele>40.5128</ele>
        <time>2013-05-05T10:48:40Z</time>
      </trkpt>
      <trkpt lat="60.009235" lon="17.3672008">
        <ele>40.0321</ele>
        <time>2013-05-05T10:48:41Z</time>
      </trkpt>
      <trkpt lat="60.0092819" lon="17.3673267">
        <ele>39.5513</ele>
        <time>2013-05-05T10:48:42Z</time>
      </trkpt>
      <trkpt lat="60.0093374" lon="17.3674604">
        <ele>39.5513</ele>
        <time>2013-05-05T10:48:43Z</time>
      </trkpt>
      <trkpt lat="60.0093995" lon="17.3675996">
        <ele>40.0321</ele>
        <time>2013-05-05T10:48:44Z</time>
      </trkpt>
      <trkpt lat="60.0094665" lon="17.3677394">
        <ele>40.9934</ele>
        <time>2013-05-05T10:48:45Z</time>
      </trkpt>
      <trkpt lat="60.0095306" lon="17.3678789">
        <ele>41.474</ele>
        <time>2013-05-05T10:48:46Z</time>
      </trkpt>
      <trkpt lat="60.0095925" lon="17.3680224">
        <ele>42.916</ele>
        <time>2013-05-05T10:48:47Z</time>
      </trkpt>
      <trkpt lat="60.009648" lon="17.3681633">
        <ele>43.3966</ele>
        <time>2013-05-05T10:48:48Z</time>
      </trkpt>
      <trkpt lat="60.0097051" lon="17.3682922">
        <ele>43.8773</ele>
        <time>2013-05-05T10:48:49Z</time>
      </trkpt>
      <trkpt lat="60.0097689" lon="17.36841">
        <ele>44.8386</ele>
        <time>2013-05-05T10:48:50Z</time>
      </trkpt>
      <trkpt lat="60.0098281" lon="17.3685124">
        <ele>44.8386</ele>
        <time>2013-05-05T10:48:51Z</time>
      </trkpt>
      <trkpt lat="60.0098846" lon="17.3686085">
        <ele>44.8386</ele>
        <time>2013-05-05T10:48:52Z</time>
      </trkpt>
      <trkpt lat="60.0099378" lon="17.3687066">
        <ele>44.358</ele>
        <time>2013-05-05T10:48:53Z</time>
      </trkpt>
      <trkpt lat="60.0099929" lon="17.3688082">
        <ele>45.3192</ele>
        <time>2013-05-05T10:48:54Z</time>
      </trkpt>
      <trkpt lat="60.0100505" lon="17.3689103">
        <ele>45.7999</ele>
        <time>2013-05-05T10:48:55Z</time>
      </trkpt>
      <trkpt lat="60.0101057" lon="17.3690103">
        <ele>45.7999</ele>
        <time>2013-05-05T10:48:56Z</time>
      </trkpt>
      <trkpt lat="60.0101602" lon="17.3691138">
        <ele>45.7999</ele>
        <time>2013-05-05T10:48:57Z</time>
      </trkpt>
      <trkpt lat="60.0102155" lon="17.369222">
        <ele>45.3192</ele>
        <time>2013-05-05T10:48:58Z</time>
      </trkpt>
      <trkpt lat="60.0102725" lon="17.3693408">
        <ele>45.3192</ele>
        <time>2013-05-05T10:48:59Z</time>
      </trkpt>
      <trkpt lat="60.010328" lon="17.3694745">
        <ele>45.3192</ele>
        <time>2013-05-05T10:49:00Z</time>
      </trkpt>
      <trkpt lat="60.0103839" lon="17.3696221">
        <ele>45.7999</ele>
        <time>2013-05-05T10:49:01Z</time>
      </trkpt>
      <trkpt lat="60.0104369" lon="17.3697786">
        <ele>46.2806</ele>
        <time>2013-05-05T10:49:02Z</time>
      </trkpt>
      <trkpt lat="60.010488" lon="17.3699365">
        <ele>46.7612</ele>
        <time>2013-05-05T10:49:03Z</time>
      </trkpt>
      <trkpt lat="60.0105362" lon="17.3700904">
        <ele>47.2418</ele>
        <time>2013-05-05T10:49:04Z</time>
      </trkpt>
      <trkpt lat="60.0105809" lon="17.370237">
        <ele>47.7225</ele>
        <time>2013-05-05T10:49:05Z</time>
      </trkpt>
      <trkpt lat="60.0106217" lon="17.3703737">
        <ele>47.7225</ele>
        <time>2013-05-05T10:49:06Z</time>
      </trkpt>
      <trkpt lat="60.0106602" lon="17.3705043">
        <ele>47.7225</ele>
        <time>2013-05-05T10:49:07Z</time>
      </trkpt>
      <trkpt lat="60.0106968" lon="17.3706318">
        <ele>47.7225</ele>
        <time>2013-05-05T10:49:08Z</time>
      </trkpt>
      <trkpt lat="60.0107305" lon="17.3707577">
        <ele>48.2034</ele>
        <time>2013-05-05T10:49:09Z</time>
      </trkpt>
      <trkpt lat="60.0107645" lon="17.3708808">
        <ele>48.2034</ele>
        <time>2013-05-05T10:49:10Z</time>
      </trkpt>
      <trkpt lat="60.0107992" lon="17.3710021">
        <ele>48.684</ele>
        <time>2013-05-05T10:49:11Z</time>
      </trkpt>
      <trkpt lat="60.0108331" lon="17.3711224">
        <ele>49.1646</ele>
        <time>2013-05-05T10:49:12Z</time>
      </trkpt>
      <trkpt lat="60.0108684" lon="17.3712423">
        <ele>49.1646</ele>
        <time>2013-05-05T10:49:13Z</time>
      </trkpt>
      <trkpt lat="60.0109039" lon="17.3713605">
        <ele>49.1646</ele>
        <time>2013-05-05T10:49:14Z</time>
      </trkpt>
      <trkpt lat="60.0109418" lon="17.3714795">
        <ele>49.6453</ele>
        <time>2013-05-05T10:49:15Z</time>
      </trkpt>
      <trkpt lat="60.0109859" lon="17.3715947">
        <ele>49.6453</ele>
        <time>2013-05-05T10:49:16Z</time>
      </trkpt>
      <trkpt lat="60.0110366" lon="17.371701">
        <ele>49.6453</ele>
        <time>2013-05-05T10:49:17Z</time>
      </trkpt>
      <trkpt lat="60.0110917" lon="17.3717999">
        <ele>49.1646</ele>
        <time>2013-05-05T10:49:18Z</time>
      </trkpt>
      <trkpt lat="60.0111516" lon="17.3718885">
        <ele>49.1646</ele>
        <time>2013-05-05T10:49:19Z</time>
      </trkpt>
      <trkpt lat="60.0112143" lon="17.3719683">
        <ele>49.1646</ele>
        <time>2013-05-05T10:49:20Z</time>
      </trkpt>
      <trkpt lat="60.011277" lon="17.3720418">
        <ele>49.1646</ele>
        <time>2013-05-05T10:49:21Z</time>
      </trkpt>
      <trkpt lat="60.0113369" lon="17.3721073">
        <ele>48.684</ele>
        <time>2013-05-05T10:49:22Z</time>
      </trkpt>
      <trkpt lat="60.0113946" lon="17.3721651">
        <ele>48.684</ele>
        <time>2013-05-05T10:49:23Z</time>
      </trkpt>
      <trkpt lat="60.01145" lon="17.3722199">
        <ele>48.684</ele>
        <time>2013-05-05T10:49:24Z</time>
      </trkpt>
      <trkpt lat="60.0115069" lon="17.3722732">
        <ele>48.2034</ele>
        <time>2013-05-05T10:49:25Z</time>
      </trkpt>
      <trkpt lat="60.0115633" lon="17.3723243">
        <ele>47.7225</ele>
        <time>2013-05-05T10:49:26Z</time>
      </trkpt>
      <trkpt lat="60.0116211" lon="17.3723712">
        <ele>47.7225</ele>
        <time>2013-05-05T10:49:27Z</time>
      </trkpt>
      <trkpt lat="60.0116809" lon="17.3724065">
        <ele>48.2034</ele>
        <time>2013-05-05T10:49:28Z</time>
      </trkpt>
      <trkpt lat="60.0117405" lon="17.3724334">
        <ele>48.2034</ele>
        <time>2013-05-05T10:49:29Z</time>
      </trkpt>
      <trkpt lat="60.0118022" lon="17.3724458">
        <ele>48.684</ele>
        <time>2013-05-05T10:49:30Z</time>
      </trkpt>
      <trkpt lat="60.0118634" lon="17.3724422">
        <ele>48.684</ele>
        <time>2013-05-05T10:49:31Z</time>
      </trkpt>
      <trkpt lat="60.0119235" lon="17.3724288">
        <ele>48.684</ele>
        <time>2013-05-05T10:49:32Z</time>
      </trkpt>
      <trkpt lat="60.0119846" lon="17.3724121">
        <ele>48.2034</ele>
        <time>2013-05-05T10:49:33Z</time>
      </trkpt>
      <trkpt lat="60.0120426" lon="17.3723922">
        <ele>47.7225</ele>
        <time>2013-05-05T10:49:34Z</time>
      </trkpt>
      <trkpt lat="60.0120989" lon="17.3723713">
        <ele>47.7225</ele>
        <time>2013-05-05T10:49:35Z</time>
      </trkpt>
      <trkpt lat="60.0121529" lon="17.3723539">
        <ele>48.2034</ele>
        <time>2013-05-05T10:49:36Z</time>
      </trkpt>
      <trkpt lat="60.0122066" lon="17.3723473">
        <ele>47.7225</ele>
        <time>2013-05-05T10:49:37Z</time>
      </trkpt>
      <trkpt lat="60.012258" lon="17.3723531">
        <ele>47.7225</ele>
        <time>2013-05-05T10:49:38Z</time>
      </trkpt>
      <trkpt lat="60.012313" lon="17.3723572">
        <ele>47.7225</ele>
        <time>2013-05-05T10:49:39Z</time>
      </trkpt>
      <trkpt lat="60.0123678" lon="17.3723585">
        <ele>48.2034</ele>
        <time>2013-05-05T10:49:40Z</time>
      </trkpt>
      <trkpt lat="60.0124233" lon="17.3723593">
        <ele>48.2034</ele>
        <time>2013-05-05T10:49:41Z</time>
      </trkpt>
      <trkpt lat="60.0124814" lon="17.3723572">
        <ele>47.7225</ele>
        <time>2013-05-05T10:49:42Z</time>
      </trkpt>
      <trkpt lat="60.0125447" lon="17.3723572">
        <ele>47.7225</ele>
        <time>2013-05-05T10:49:43Z</time>
      </trkpt>
      <trkpt lat="60.0126129" lon="17.3723565">
        <ele>47.7225</ele>
        <time>2013-05-05T10:49:44Z</time>
      </trkpt>
      <trkpt lat="60.0126894" lon="17.3723528">
        <ele>47.7225</ele>
        <time>2013-05-05T10:49:45Z</time>
      </trkpt>
      <trkpt lat="60.0127681" lon="17.3723504">
        <ele>47.2418</ele>
        <time>2013-05-05T10:49:46Z</time>
      </trkpt>
      <trkpt lat="60.012848" lon="17.3723488">
        <ele>46.2806</ele>
        <time>2013-05-05T10:49:47Z</time>
      </trkpt>
      <trkpt lat="60.0129289" lon="17.3723458">
        <ele>45.7999</ele>
        <time>2013-05-05T10:49:48Z</time>
      </trkpt>
      <trkpt lat="60.0130088" lon="17.372339">
        <ele>45.3192</ele>
        <time>2013-05-05T10:49:49Z</time>
      </trkpt>
      <trkpt lat="60.0130874" lon="17.3723323">
        <ele>45.3192</ele>
        <time>2013-05-05T10:49:50Z</time>
      </trkpt>
      <trkpt lat="60.0131649" lon="17.3723266">
        <ele>45.3192</ele>
        <time>2013-05-05T10:49:51Z</time>
      </trkpt>
      <trkpt lat="60.0132398" lon="17.3723209">
        <ele>45.7999</ele>
        <time>2013-05-05T10:49:52Z</time>
      </trkpt>
      <trkpt lat="60.0133123" lon="17.3723166">
        <ele>45.7999</ele>
        <time>2013-05-05T10:49:53Z</time>
      </trkpt>
      <trkpt lat="60.0133836" lon="17.37231">
        <ele>45.7999</ele>
        <time>2013-05-05T10:49:54Z</time>
      </trkpt>
      <trkpt lat="60.0134537" lon="17.3723032">
        <ele>46.2806</ele>
        <time>2013-05-05T10:49:55Z</time>
      </trkpt>
      <trkpt lat="60.0135229" lon="17.3723003">
        <ele>45.7999</ele>
        <time>2013-05-05T10:49:56Z</time>
      </trkpt>
      <trkpt lat="60.013593" lon="17.3722949">
        <ele>46.2806</ele>
        <time>2013-05-05T10:49:57Z</time>
      </trkpt>
      <trkpt lat="60.0136619" lon="17.3722888">
        <ele>46.7612</ele>
        <time>2013-05-05T10:49:58Z</time>
      </trkpt>
      <trkpt lat="60.0137301" lon="17.3722865">
        <ele>46.7612</ele>
        <time>2013-05-05T10:49:59Z</time>
      </trkpt>
      <trkpt lat="60.0137986" lon="17.3722811">
        <ele>47.2418</ele>
        <time>2013-05-05T10:50:00Z</time>
      </trkpt>
      <trkpt lat="60.013866" lon="17.3722713">
        <ele>47.2418</ele>
        <time>2013-05-05T10:50:01Z</time>
      </trkpt>
      <trkpt lat="60.0139343" lon="17.3722617">
        <ele>47.2418</ele>
        <time>2013-05-05T10:50:02Z</time>
      </trkpt>
      <trkpt lat="60.0140038" lon="17.3722535">
        <ele>47.7225</ele>
        <time>2013-05-05T10:50:03Z</time>
      </trkpt>
      <trkpt lat="60.0140759" lon="17.3722444">
        <ele>47.7225</ele>
        <time>2013-05-05T10:50:04Z</time>
      </trkpt>
      <trkpt lat="60.0141483" lon="17.3722349">
        <ele>48.2034</ele>
        <time>2013-05-05T10:50:05Z</time>
      </trkpt>
      <trkpt lat="60.0142217" lon="17.3722287">
        <ele>47.7225</ele>
        <time>2013-05-05T10:50:06Z</time>
      </trkpt>
      <trkpt lat="60.0142968" lon="17.372221">
        <ele>47.7225</ele>
        <time>2013-05-05T10:50:07Z</time>
      </trkpt>
      <trkpt lat="60.0143731" lon="17.3722111">
        <ele>47.7225</ele>
        <time>2013-05-05T10:50:08Z</time>
      </trkpt>
      <trkpt lat="60.0144522" lon="17.3722008">
        <ele>47.7225</ele>
        <time>2013-05-05T10:50:09Z</time>
      </trkpt>
      <trkpt lat="60.0145332" lon="17.3721899">
        <ele>47.7225</ele>
        <time>2013-05-05T10:50:10Z</time>
      </trkpt>
      <trkpt lat="60.0146207" lon="17.3721785">
        <ele>47.7225</ele>
        <time>2013-05-05T10:50:11Z</time>
      </trkpt>
      <trkpt lat="60.0147073" lon="17.3721599">
        <ele>47.2418</ele>
        <time>2013-05-05T10:50:12Z</time>
      </trkpt>
      <trkpt lat="60.0147908" lon="17.3721639">
        <ele>46.7612</ele>
        <time>2013-05-05T10:50:13Z</time>
      </trkpt>
      <trkpt lat="60.0148674" lon="17.3721608">
        <ele>47.2418</ele>
        <time>2013-05-05T10:50:14Z</time>
      </trkpt>
      <trkpt lat="60.0149434" lon="17.3721531">
        <ele>46.7612</ele>
        <time>2013-05-05T10:50:15Z</time>
      </trkpt>
      <trkpt lat="60.0150139" lon="17.3721483">
        <ele>47.2418</ele>
        <time>2013-05-05T10:50:16Z</time>
      </trkpt>
      <trkpt lat="60.0150874" lon="17.3721448">
        <ele>47.2418</ele>
        <time>2013-05-05T10:50:17Z</time>
      </trkpt>
      <trkpt lat="60.0151564" lon="17.3721428">
        <ele>47.2418</ele>
        <time>2013-05-05T10:50:18Z</time>
      </trkpt>
      <trkpt lat="60.0152241" lon="17.3721423">
        <ele>47.7225</ele>
        <time>2013-05-05T10:50:19Z</time>
      </trkpt>
      <trkpt lat="60.0152874" lon="17.3721303">
        <ele>47.2418</ele>
        <time>2013-05-05T10:50:20Z</time>
      </trkpt>
      <trkpt lat="60.0153536" lon="17.3721179">
        <ele>47.2418</ele>
        <time>2013-05-05T10:50:21Z</time>
      </trkpt>
      <trkpt lat="60.0154226" lon="17.3721075">
        <ele>46.7612</ele>
        <time>2013-05-05T10:50:22Z</time>
      </trkpt>
      <trkpt lat="60.0154955" lon="17.3721049">
        <ele>46.7612</ele>
        <time>2013-05-05T10:50:23Z</time>
      </trkpt>
      <trkpt lat="60.0155691" lon="17.3721028">
        <ele>46.2806</ele>
        <time>2013-05-05T10:50:24Z</time>
      </trkpt>
      <trkpt lat="60.0156449" lon="17.3720961">
        <ele>46.7612</ele>
        <time>2013-05-05T10:50:25Z</time>
      </trkpt>
      <trkpt lat="60.0157205" lon="17.3720869">
        <ele>46.2806</ele>
        <time>2013-05-05T10:50:26Z</time>
      </trkpt>
      <trkpt lat="60.0157991" lon="17.3720811">
        <ele>45.7999</ele>
        <time>2013-05-05T10:50:27Z</time>
      </trkpt>
      <trkpt lat="60.0158785" lon="17.3720729">
        <ele>45.7999</ele>
        <time>2013-05-05T10:50:28Z</time>
      </trkpt>
      <trkpt lat="60.0159597" lon="17.372063">
        <ele>45.7999</ele>
        <time>2013-05-05T10:50:29Z</time>
      </trkpt>
      <trkpt lat="60.0160375" lon="17.372051">
        <ele>44.8386</ele>
        <time>2013-05-05T10:50:30Z</time>
      </trkpt>
      <trkpt lat="60.0161136" lon="17.3720408">
        <ele>44.358</ele>
        <time>2013-05-05T10:50:31Z</time>
      </trkpt>
      <trkpt lat="60.0161914" lon="17.3720365">
        <ele>43.8773</ele>
        <time>2013-05-05T10:50:32Z</time>
      </trkpt>
      <trkpt lat="60.0162716" lon="17.3720289">
        <ele>43.3966</ele>
        <time>2013-05-05T10:50:33Z</time>
      </trkpt>
      <trkpt lat="60.0163515" lon="17.3720178">
        <ele>42.916</ele>
        <time>2013-05-05T10:50:34Z</time>
      </trkpt>
      <trkpt lat="60.0164296" lon="17.3720085">
        <ele>42.916</ele>
        <time>2013-05-05T10:50:35Z</time>
      </trkpt>
      <trkpt lat="60.0165043" lon="17.3720024">
        <ele>41.9547</ele>
        <time>2013-05-05T10:50:36Z</time>
      </trkpt>
      <trkpt lat="60.0165814" lon="17.3719868">
        <ele>42.4354</ele>
        <time>2013-05-05T10:50:37Z</time>
      </trkpt>
      <trkpt lat="60.0166559" lon="17.3719749">
        <ele>42.916</ele>
        <time>2013-05-05T10:50:38Z</time>
      </trkpt>
      <trkpt lat="60.0167302" lon="17.3719674">
        <ele>42.4354</ele>
        <time>2013-05-05T10:50:39Z</time>
      </trkpt>
      <trkpt lat="60.0168052" lon="17.3719623">
        <ele>42.916</ele>
        <time>2013-05-05T10:50:40Z</time>
      </trkpt>
      <trkpt lat="60.0168818" lon="17.3719542">
        <ele>42.916</ele>
        <time>2013-05-05T10:50:41Z</time>
      </trkpt>
      <trkpt lat="60.01696" lon="17.3719478">
        <ele>42.916</ele>
        <time>2013-05-05T10:50:42Z</time>
      </trkpt>
      <trkpt lat="60.0170373" lon="17.3719392">
        <ele>42.916</ele>
        <time>2013-05-05T10:50:43Z</time>
      </trkpt>
      <trkpt lat="60.0171154" lon="17.3719304">
        <ele>42.916</ele>
        <time>2013-05-05T10:50:44Z</time>
      </trkpt>
      <trkpt lat="60.0171964" lon="17.3719199">
        <ele>43.8773</ele>
        <time>2013-05-05T10:50:45Z</time>
      </trkpt>
      <trkpt lat="60.0172728" lon="17.3719112">
        <ele>44.358</ele>
        <time>2013-05-05T10:50:46Z</time>
      </trkpt>
      <trkpt lat="60.017345" lon="17.3719123">
        <ele>45.3192</ele>
        <time>2013-05-05T10:50:47Z</time>
      </trkpt>
      <trkpt lat="60.0174205" lon="17.3719107">
        <ele>45.3192</ele>
        <time>2013-05-05T10:50:48Z</time>
      </trkpt>
      <trkpt lat="60.0174942" lon="17.3719069">
        <ele>45.7999</ele>
        <time>2013-05-05T10:50:49Z</time>
      </trkpt>
      <trkpt lat="60.017567" lon="17.3718992">
        <ele>45.7999</ele>
        <time>2013-05-05T10:50:50Z</time>
      </trkpt>
      <trkpt lat="60.0176424" lon="17.3718889">
        <ele>46.2806</ele>
        <time>2013-05-05T10:50:51Z</time>
      </trkpt>
      <trkpt lat="60.0177163" lon="17.3718796">
        <ele>46.2806</ele>
        <time>2013-05-05T10:50:52Z</time>
      </trkpt>
      <trkpt lat="60.0177902" lon="17.3718727">
        <ele>46.2806</ele>
        <time>2013-05-05T10:50:53Z</time>
      </trkpt>
      <trkpt lat="60.017867" lon="17.3718671">
        <ele>46.2806</ele>
        <time>2013-05-05T10:50:54Z</time>
      </trkpt>
      <trkpt lat="60.0179473" lon="17.3718616">
        <ele>46.7612</ele>
        <time>2013-05-05T10:50:55Z</time>
      </trkpt>
      <trkpt lat="60.0180318" lon="17.3718525">
        <ele>46.7612</ele>
        <time>2013-05-05T10:50:56Z</time>
      </trkpt>
      <trkpt lat="60.0181204" lon="17.3718429">
        <ele>46.7612</ele>
        <time>2013-05-05T10:50:57Z</time>
      </trkpt>
      <trkpt lat="60.0182095" lon="17.3718281">
        <ele>46.7612</ele>
        <time>2013-05-05T10:50:58Z</time>
      </trkpt>
      <trkpt lat="60.0182995" lon="17.3718152">
        <ele>46.2806</ele>
        <time>2013-05-05T10:50:59Z</time>
      </trkpt>
      <trkpt lat="60.0183882" lon="17.3718077">
        <ele>45.7999</ele>
        <time>2013-05-05T10:51:00Z</time>
      </trkpt>
      <trkpt lat="60.018478" lon="17.3718014">
        <ele>44.8386</ele>
        <time>2013-05-05T10:51:01Z</time>
      </trkpt>
      <trkpt lat="60.0185659" lon="17.3717951">
        <ele>44.358</ele>
        <time>2013-05-05T10:51:02Z</time>
      </trkpt>
      <trkpt lat="60.0186529" lon="17.3717882">
        <ele>43.8773</ele>
        <time>2013-05-05T10:51:03Z</time>
      </trkpt>
      <trkpt lat="60.018739" lon="17.3717812">
        <ele>43.3966</ele>
        <time>2013-05-05T10:51:04Z</time>
      </trkpt>
      <trkpt lat="60.0188234" lon="17.3717749">
        <ele>42.916</ele>
        <time>2013-05-05T10:51:05Z</time>
      </trkpt>
      <trkpt lat="60.0189051" lon="17.3717687">
        <ele>42.916</ele>
        <time>2013-05-05T10:51:06Z</time>
      </trkpt>
      <trkpt lat="60.0189845" lon="17.3717635">
        <ele>42.4354</ele>
        <time>2013-05-05T10:51:07Z</time>
      </trkpt>
      <trkpt lat="60.0190617" lon="17.37176">
        <ele>42.4354</ele>
        <time>2013-05-05T10:51:08Z</time>
      </trkpt>
      <trkpt lat="60.0191386" lon="17.3717552">
        <ele>42.4354</ele>
        <time>2013-05-05T10:51:09Z</time>
      </trkpt>
      <trkpt lat="60.0192145" lon="17.3717489">
        <ele>42.4354</ele>
        <time>2013-05-05T10:51:10Z</time>
      </trkpt>
      <trkpt lat="60.0192909" lon="17.3717455">
        <ele>41.9547</ele>
        <time>2013-05-05T10:51:11Z</time>
      </trkpt>
      <trkpt lat="60.0193671" lon="17.3717364">
        <ele>41.9547</ele>
        <time>2013-05-05T10:51:12Z</time>
      </trkpt>
      <trkpt lat="60.0194413" lon="17.371718">
        <ele>41.9547</ele>
        <time>2013-05-05T10:51:13Z</time>
      </trkpt>
      <trkpt lat="60.019514" lon="17.3716951">
        <ele>42.4354</ele>
        <time>2013-05-05T10:51:14Z</time>
      </trkpt>
      <trkpt lat="60.0195858" lon="17.3716646">
        <ele>42.4354</ele>
        <time>2013-05-05T10:51:15Z</time>
      </trkpt>
      <trkpt lat="60.0196571" lon="17.3716278">
        <ele>42.916</ele>
        <time>2013-05-05T10:51:16Z</time>
      </trkpt>
      <trkpt lat="60.0197288" lon="17.3715849">
        <ele>42.916</ele>
        <time>2013-05-05T10:51:17Z</time>
      </trkpt>
      <trkpt lat="60.0198022" lon="17.3715333">
        <ele>43.3966</ele>
        <time>2013-05-05T10:51:18Z</time>
      </trkpt>
      <trkpt lat="60.0198774" lon="17.3714777">
        <ele>43.8773</ele>
        <time>2013-05-05T10:51:19Z</time>
      </trkpt>
      <trkpt lat="60.0199522" lon="17.3714168">
        <ele>44.8386</ele>
        <time>2013-05-05T10:51:20Z</time>
      </trkpt>
      <trkpt lat="60.0200257" lon="17.3713542">
        <ele>45.3192</ele>
        <time>2013-05-05T10:51:21Z</time>
      </trkpt>
      <trkpt lat="60.0200985" lon="17.371287">
        <ele>45.7999</ele>
        <time>2013-05-05T10:51:22Z</time>
      </trkpt>
      <trkpt lat="60.0201695" lon="17.3712205">
        <ele>46.2806</ele>
        <time>2013-05-05T10:51:23Z</time>
      </trkpt>
      <trkpt lat="60.0202374" lon="17.371157">
        <ele>46.2806</ele>
        <time>2013-05-05T10:51:24Z</time>
      </trkpt>
      <trkpt lat="60.0203039" lon="17.3710956">
        <ele>46.2806</ele>
        <time>2013-05-05T10:51:25Z</time>
      </trkpt>
      <trkpt lat="60.0203708" lon="17.3710343">
        <ele>46.7612</ele>
        <time>2013-05-05T10:51:26Z</time>
      </trkpt>
      <trkpt lat="60.0204371" lon="17.3709732">
        <ele>47.2418</ele>
        <time>2013-05-05T10:51:27Z</time>
      </trkpt>
      <trkpt lat="60.0205027" lon="17.3709114">
        <ele>47.2418</ele>
        <time>2013-05-05T10:51:28Z</time>
      </trkpt>
      <trkpt lat="60.0205691" lon="17.3708518">
        <ele>47.2418</ele>
        <time>2013-05-05T10:51:29Z</time>
      </trkpt>
      <trkpt lat="60.0206337" lon="17.3707918">
        <ele>47.2418</ele>
        <time>2013-05-05T10:51:30Z</time>
      </trkpt>
      <trkpt lat="60.0206987" lon="17.3707301">
        <ele>47.2418</ele>
        <time>2013-05-05T10:51:31Z</time>
      </trkpt>
      <trkpt lat="60.0207663" lon="17.3706685">
        <ele>47.2418</ele>
        <time>2013-05-05T10:51:32Z</time>
      </trkpt>
      <trkpt lat="60.0208341" lon="17.3706066">
        <ele>47.2418</ele>
        <time>2013-05-05T10:51:33Z</time>
      </trkpt>
      <trkpt lat="60.0209025" lon="17.3705419">
        <ele>47.2418</ele>
        <time>2013-05-05T10:51:34Z</time>
      </trkpt>
      <trkpt lat="60.0209721" lon="17.3704742">
        <ele>47.2418</ele>
        <time>2013-05-05T10:51:35Z</time>
      </trkpt>
      <trkpt lat="60.0210436" lon="17.3704054">
        <ele>46.7612</ele>
        <time>2013-05-05T10:51:36Z</time>
      </trkpt>
      <trkpt lat="60.0211167" lon="17.3703358">
        <ele>46.7612</ele>
        <time>2013-05-05T10:51:37Z</time>
      </trkpt>
      <trkpt lat="60.0211907" lon="17.370266">
        <ele>46.7612</ele>
        <time>2013-05-05T10:51:38Z</time>
      </trkpt>
      <trkpt lat="60.0212647" lon="17.3701954">
        <ele>46.2806</ele>
        <time>2013-05-05T10:51:39Z</time>
      </trkpt>
      <trkpt lat="60.0213394" lon="17.370124">
        <ele>46.2806</ele>
        <time>2013-05-05T10:51:40Z</time>
      </trkpt>
      <trkpt lat="60.0214153" lon="17.3700531">
        <ele>46.2806</ele>
        <time>2013-05-05T10:51:41Z</time>
      </trkpt>
      <trkpt lat="60.0214911" lon="17.369983">
        <ele>45.7999</ele>
        <time>2013-05-05T10:51:42Z</time>
      </trkpt>
      <trkpt lat="60.0215688" lon="17.3699084">
        <ele>45.7999</ele>
        <time>2013-05-05T10:51:43Z</time>
      </trkpt>
      <trkpt lat="60.0216484" lon="17.3698308">
        <ele>45.7999</ele>
        <time>2013-05-05T10:51:44Z</time>
      </trkpt>
      <trkpt lat="60.0217279" lon="17.3697532">
        <ele>45.3192</ele>
        <time>2013-05-05T10:51:45Z</time>
      </trkpt>
      <trkpt lat="60.0218066" lon="17.3696791">
        <ele>45.3192</ele>
        <time>2013-05-05T10:51:46Z</time>
      </trkpt>
      <trkpt lat="60.0218832" lon="17.3696085">
        <ele>44.8386</ele>
        <time>2013-05-05T10:51:47Z</time>
      </trkpt>
      <trkpt lat="60.0219581" lon="17.3695387">
        <ele>44.8386</ele>
        <time>2013-05-05T10:51:48Z</time>
      </trkpt>
      <trkpt lat="60.0220313" lon="17.3694686">
        <ele>44.358</ele>
        <time>2013-05-05T10:51:49Z</time>
      </trkpt>
      <trkpt lat="60.0221023" lon="17.3693995">
        <ele>44.358</ele>
        <time>2013-05-05T10:51:50Z</time>
      </trkpt>
      <trkpt lat="60.0221717" lon="17.3693326">
        <ele>44.358</ele>
        <time>2013-05-05T10:51:51Z</time>
      </trkpt>
      <trkpt lat="60.0222403" lon="17.3692667">
        <ele>43.8773</ele>
        <time>2013-05-05T10:51:52Z</time>
      </trkpt>
      <trkpt lat="60.0223083" lon="17.3692019">
        <ele>43.8773</ele>
        <time>2013-05-05T10:51:53Z</time>
      </trkpt>
      <trkpt lat="60.0223758" lon="17.3691397">
        <ele>43.8773</ele>
        <time>2013-05-05T10:51:54Z</time>
      </trkpt>
      <trkpt lat="60.0224431" lon="17.3690785">
        <ele>43.3966</ele>
        <time>2013-05-05T10:51:55Z</time>
      </trkpt>
      <trkpt lat="60.0225098" lon="17.3690158">
        <ele>43.3966</ele>
        <time>2013-05-05T10:51:56Z</time>
      </trkpt>
      <trkpt lat="60.0225769" lon="17.3689533">
        <ele>43.3966</ele>
        <time>2013-05-05T10:51:57Z</time>
      </trkpt>
      <trkpt lat="60.0226436" lon="17.368891">
        <ele>43.3966</ele>
        <time>2013-05-05T10:51:58Z</time>
      </trkpt>
      <trkpt lat="60.0227069" lon="17.3688281">
        <ele>43.3966</ele>
        <time>2013-05-05T10:51:59Z</time>
      </trkpt>
      <trkpt lat="60.0227688" lon="17.3687683">
        <ele>43.3966</ele>
        <time>2013-05-05T10:52:00Z</time>
      </trkpt>
      <trkpt lat="60.0228291" lon="17.368712">
        <ele>43.3966</ele>
        <time>2013-05-05T10:52:01Z</time>
      </trkpt>
      <trkpt lat="60.0228881" lon="17.3686584">
        <ele>43.8773</ele>
        <time>2013-05-05T10:52:02Z</time>
      </trkpt>
      <trkpt lat="60.022946" lon="17.3686054">
        <ele>43.8773</ele>
        <time>2013-05-05T10:52:03Z</time>
      </trkpt>
      <trkpt lat="60.0230032" lon="17.3685529">
        <ele>43.8773</ele>
        <time>2013-05-05T10:52:04Z</time>
      </trkpt>
      <trkpt lat="60.0230607" lon="17.3685005">
        <ele>43.8773</ele>
        <time>2013-05-05T10:52:05Z</time>
      </trkpt>
      <trkpt lat="60.0231192" lon="17.3684481">
        <ele>43.8773</ele>
        <time>2013-05-05T10:52:06Z</time>
      </trkpt>
      <trkpt lat="60.0231799" lon="17.3683983">
        <ele>44.358</ele>
        <time>2013-05-05T10:52:07Z</time>
      </trkpt>
      <trkpt lat="60.0232438" lon="17.368353">
        <ele>44.358</ele>
        <time>2013-05-05T10:52:08Z</time>
      </trkpt>
      <trkpt lat="60.02331" lon="17.3683149">
        <ele>44.8386</ele>
        <time>2013-05-05T10:52:09Z</time>
      </trkpt>
      <trkpt lat="60.0233771" lon="17.3682833">
        <ele>44.8386</ele>
        <time>2013-05-05T10:52:10Z</time>
      </trkpt>
      <trkpt lat="60.0234419" lon="17.3682556">
        <ele>45.3192</ele>
        <time>2013-05-05T10:52:11Z</time>
      </trkpt>
      <trkpt lat="60.0235027" lon="17.3682327">
        <ele>45.3192</ele>
        <time>2013-05-05T10:52:12Z</time>
      </trkpt>
      <trkpt lat="60.02356" lon="17.3682142">
        <ele>45.7999</ele>
        <time>2013-05-05T10:52:13Z</time>
      </trkpt>
      <trkpt lat="60.0236165" lon="17.3681939">
        <ele>45.7999</ele>
        <time>2013-05-05T10:52:14Z</time>
      </trkpt>
      <trkpt lat="60.0236743" lon="17.3681718">
        <ele>45.7999</ele>
        <time>2013-05-05T10:52:15Z</time>
      </trkpt>
      <trkpt lat="60.0237314" lon="17.3681488">
        <ele>45.7999</ele>
        <time>2013-05-05T10:52:16Z</time>
      </trkpt>
      <trkpt lat="60.0237858" lon="17.3681213">
        <ele>46.2806</ele>
        <time>2013-05-05T10:52:17Z</time>
      </trkpt>
      <trkpt lat="60.0238373" lon="17.3680883">
        <ele>46.2806</ele>
        <time>2013-05-05T10:52:18Z</time>
      </trkpt>
      <trkpt lat="60.0238874" lon="17.3680514">
        <ele>46.7612</ele>
        <time>2013-05-05T10:52:19Z</time>
      </trkpt>
      <trkpt lat="60.0239366" lon="17.3680132">
        <ele>46.7612</ele>
        <time>2013-05-05T10:52:20Z</time>
      </trkpt>
      <trkpt lat="60.0239858" lon="17.3679769">
        <ele>47.2418</ele>
        <time>2013-05-05T10:52:21Z</time>
      </trkpt>
      <trkpt lat="60.0240366" lon="17.3679527">
        <ele>47.7225</ele>
        <time>2013-05-05T10:52:22Z</time>
      </trkpt>
      <trkpt lat="60.0240893" lon="17.3679577">
        <ele>47.7225</ele>
        <time>2013-05-05T10:52:23Z</time>
      </trkpt>
      <trkpt lat="60.0241381" lon="17.3680024">
        <ele>47.7225</ele>
        <time>2013-05-05T10:52:24Z</time>
      </trkpt>
      <trkpt lat="60.024178" lon="17.3680846">
        <ele>48.2034</ele>
        <time>2013-05-05T10:52:25Z</time>
      </trkpt>
      <trkpt lat="60.0242053" lon="17.3681941">
        <ele>48.2034</ele>
        <time>2013-05-05T10:52:26Z</time>
      </trkpt>
      <trkpt lat="60.0242236" lon="17.3683181">
        <ele>48.2034</ele>
        <time>2013-05-05T10:52:27Z</time>
      </trkpt>
      <trkpt lat="60.0242366" lon="17.3684508">
        <ele>48.2034</ele>
        <time>2013-05-05T10:52:28Z</time>
      </trkpt>
      <trkpt lat="60.0242478" lon="17.3685893">
        <ele>48.684</ele>
        <time>2013-05-05T10:52:29Z</time>
      </trkpt>
      <trkpt lat="60.0242578" lon="17.3687333">
        <ele>48.684</ele>
        <time>2013-05-05T10:52:30Z</time>
      </trkpt>
      <trkpt lat="60.0242693" lon="17.3688853">
        <ele>48.684</ele>
        <time>2013-05-05T10:52:31Z</time>
      </trkpt>
      <trkpt lat="60.0242806" lon="17.3690403">
        <ele>48.684</ele>
        <time>2013-05-05T10:52:32Z</time>
      </trkpt>
      <trkpt lat="60.0242913" lon="17.3691864">
        <ele>48.684</ele>
        <time>2013-05-05T10:52:33Z</time>
      </trkpt>
      <trkpt lat="60.0242997" lon="17.3693175">
        <ele>48.684</ele>
        <time>2013-05-05T10:52:34Z</time>
      </trkpt>
      <trkpt lat="60.0243064" lon="17.3694331">
        <ele>49.1646</ele>
        <time>2013-05-05T10:52:35Z</time>
      </trkpt>
      <trkpt lat="60.0243091" lon="17.369537">
        <ele>49.1646</ele>
        <time>2013-05-05T10:52:36Z</time>
      </trkpt>
      <trkpt lat="60.0243113" lon="17.3696305">
        <ele>49.1646</ele>
        <time>2013-05-05T10:52:37Z</time>
      </trkpt>
      <trkpt lat="60.0243138" lon="17.3697247">
        <ele>49.6453</ele>
        <time>2013-05-05T10:52:38Z</time>
      </trkpt>
      <trkpt lat="60.0243241" lon="17.3698903">
        <ele>50.126</ele>
        <time>2013-05-05T10:52:39Z</time>
      </trkpt>
      <trkpt lat="60.0243224" lon="17.3699962">
        <ele>50.6066</ele>
        <time>2013-05-05T10:52:40Z</time>
      </trkpt>
      <trkpt lat="60.0242965" lon="17.3701599">
        <ele>51.5679</ele>
        <time>2013-05-05T10:52:41Z</time>
      </trkpt>
      <trkpt lat="60.0243056" lon="17.3702466">
        <ele>52.5292</ele>
        <time>2013-05-05T10:52:42Z</time>
      </trkpt>
      <trkpt lat="60.0243221" lon="17.3703264">
        <ele>53.0098</ele>
        <time>2013-05-05T10:52:43Z</time>
      </trkpt>
      <trkpt lat="60.0243396" lon="17.370396">
        <ele>53.4905</ele>
        <time>2013-05-05T10:52:44Z</time>
      </trkpt>
      <trkpt lat="60.0243539" lon="17.3704696">
        <ele>53.9712</ele>
        <time>2013-05-05T10:52:45Z</time>
      </trkpt>
      <trkpt lat="60.0243681" lon="17.3705576">
        <ele>54.9324</ele>
        <time>2013-05-05T10:52:46Z</time>
      </trkpt>
      <trkpt lat="60.0243805" lon="17.3706559">
        <ele>55.4131</ele>
        <time>2013-05-05T10:52:47Z</time>
      </trkpt>
      <trkpt lat="60.0243916" lon="17.3707617">
        <ele>55.4131</ele>
        <time>2013-05-05T10:52:48Z</time>
      </trkpt>
      <trkpt lat="60.0244032" lon="17.3708765">
        <ele>55.4131</ele>
        <time>2013-05-05T10:52:49Z</time>
      </trkpt>
      <trkpt lat="60.0244166" lon="17.371">
        <ele>55.4131</ele>
        <time>2013-05-05T10:52:50Z</time>
      </trkpt>
      <trkpt lat="60.0244272" lon="17.371127">
        <ele>55.8938</ele>
        <time>2013-05-05T10:52:51Z</time>
      </trkpt>
      <trkpt lat="60.0244376" lon="17.3712601">
        <ele>55.4131</ele>
        <time>2013-05-05T10:52:52Z</time>
      </trkpt>
      <trkpt lat="60.02445" lon="17.3713978">
        <ele>55.8938</ele>
        <time>2013-05-05T10:52:53Z</time>
      </trkpt>
      <trkpt lat="60.024461" lon="17.3715434">
        <ele>55.8938</ele>
        <time>2013-05-05T10:52:54Z</time>
      </trkpt>
      <trkpt lat="60.0244724" lon="17.371693">
        <ele>55.8938</ele>
        <time>2013-05-05T10:52:55Z</time>
      </trkpt>
      <trkpt lat="60.0244827" lon="17.3718469">
        <ele>56.3745</ele>
        <time>2013-05-05T10:52:56Z</time>
      </trkpt>
      <trkpt lat="60.0244897" lon="17.3720065">
        <ele>55.8938</ele>
        <time>2013-05-05T10:52:57Z</time>
      </trkpt>
      <trkpt lat="60.0244945" lon="17.3721685">
        <ele>55.8938</ele>
        <time>2013-05-05T10:52:58Z</time>
      </trkpt>
      <trkpt lat="60.0244974" lon="17.3723308">
        <ele>56.3745</ele>
        <time>2013-05-05T10:52:59Z</time>
      </trkpt>
      <trkpt lat="60.0244941" lon="17.3724906">
        <ele>56.3745</ele>
        <time>2013-05-05T10:53:00Z</time>
      </trkpt>
      <trkpt lat="60.0244842" lon="17.3726452">
        <ele>56.3745</ele>
        <time>2013-05-05T10:53:01Z</time>
      </trkpt>
      <trkpt lat="60.0244738" lon="17.3727971">
        <ele>56.8551</ele>
        <time>2013-05-05T10:53:02Z</time>
      </trkpt>
      <trkpt lat="60.0244541" lon="17.3729522">
        <ele>56.8551</ele>
        <time>2013-05-05T10:53:03Z</time>
      </trkpt>
      <trkpt lat="60.0244325" lon="17.3731047">
        <ele>56.8551</ele>
        <time>2013-05-05T10:53:04Z</time>
      </trkpt>
      <trkpt lat="60.0244083" lon="17.3732583">
        <ele>56.8551</ele>
        <time>2013-05-05T10:53:05Z</time>
      </trkpt>
      <trkpt lat="60.0243757" lon="17.3734123">
        <ele>56.8551</ele>
        <time>2013-05-05T10:53:06Z</time>
      </trkpt>
      <trkpt lat="60.0243613" lon="17.3735532">
        <ele>56.3745</ele>
        <time>2013-05-05T10:53:07Z</time>
      </trkpt>
      <trkpt lat="60.0243464" lon="17.3736791">
        <ele>56.3745</ele>
        <time>2013-05-05T10:53:08Z</time>
      </trkpt>
      <trkpt lat="60.0243329" lon="17.373808">
        <ele>56.8551</ele>
        <time>2013-05-05T10:53:09Z</time>
      </trkpt>
      <trkpt lat="60.0242913" lon="17.3739489">
        <ele>55.8938</ele>
        <time>2013-05-05T10:53:10Z</time>
      </trkpt>
      <trkpt lat="60.0242552" lon="17.3740754">
        <ele>54.9324</ele>
        <time>2013-05-05T10:53:11Z</time>
      </trkpt>
      <trkpt lat="60.0242054" lon="17.37421">
        <ele>53.4905</ele>
        <time>2013-05-05T10:53:12Z</time>
      </trkpt>
      <trkpt lat="60.0241532" lon="17.3743484">
        <ele>51.5679</ele>
        <time>2013-05-05T10:53:13Z</time>
      </trkpt>
      <trkpt lat="60.0241115" lon="17.3744726">
        <ele>50.126</ele>
        <time>2013-05-05T10:53:14Z</time>
      </trkpt>
      <trkpt lat="60.024059" lon="17.3746167">
        <ele>48.684</ele>
        <time>2013-05-05T10:53:15Z</time>
      </trkpt>
      <trkpt lat="60.024017" lon="17.3747582">
        <ele>48.684</ele>
        <time>2013-05-05T10:53:16Z</time>
      </trkpt>
      <trkpt lat="60.0239681" lon="17.3749135">
        <ele>47.7225</ele>
        <time>2013-05-05T10:53:17Z</time>
      </trkpt>
      <trkpt lat="60.0239448" lon="17.3750712">
        <ele>48.684</ele>
        <time>2013-05-05T10:53:18Z</time>
      </trkpt>
      <trkpt lat="60.0239278" lon="17.3752284">
        <ele>48.684</ele>
        <time>2013-05-05T10:53:19Z</time>
      </trkpt>
      <trkpt lat="60.0239281" lon="17.3753751">
        <ele>48.684</ele>
        <time>2013-05-05T10:53:20Z</time>
      </trkpt>
      <trkpt lat="60.0239295" lon="17.3755269">
        <ele>48.684</ele>
        <time>2013-05-05T10:53:21Z</time>
      </trkpt>
      <trkpt lat="60.0239423" lon="17.375675">
        <ele>49.1646</ele>
        <time>2013-05-05T10:53:22Z</time>
      </trkpt>
      <trkpt lat="60.0239629" lon="17.3758223">
        <ele>49.6453</ele>
        <time>2013-05-05T10:53:23Z</time>
      </trkpt>
      <trkpt lat="60.023989" lon="17.3759712">
        <ele>50.126</ele>
        <time>2013-05-05T10:53:24Z</time>
      </trkpt>
      <trkpt lat="60.0240097" lon="17.376122">
        <ele>50.6066</ele>
        <time>2013-05-05T10:53:25Z</time>
      </trkpt>
      <trkpt lat="60.0240229" lon="17.376277">
        <ele>50.6066</ele>
        <time>2013-05-05T10:53:26Z</time>
      </trkpt>
      <trkpt lat="60.0240341" lon="17.3764364">
        <ele>51.0872</ele>
        <time>2013-05-05T10:53:27Z</time>
      </trkpt>
      <trkpt lat="60.0240435" lon="17.3765957">
        <ele>51.5679</ele>
        <time>2013-05-05T10:53:28Z</time>
      </trkpt>
      <trkpt lat="60.024051" lon="17.3767508">
        <ele>52.0486</ele>
        <time>2013-05-05T10:53:29Z</time>
      </trkpt>
      <trkpt lat="60.0240588" lon="17.3769001">
        <ele>52.5292</ele>
        <time>2013-05-05T10:53:30Z</time>
      </trkpt>
      <trkpt lat="60.0240676" lon="17.3770437">
        <ele>53.0098</ele>
        <time>2013-05-05T10:53:31Z</time>
      </trkpt>
      <trkpt lat="60.0240848" lon="17.3771812">
        <ele>53.9712</ele>
        <time>2013-05-05T10:53:32Z</time>
      </trkpt>
      <trkpt lat="60.0241086" lon="17.3773088">
        <ele>54.4518</ele>
        <time>2013-05-05T10:53:33Z</time>
      </trkpt>
      <trkpt lat="60.0241421" lon="17.3774408">
        <ele>54.9324</ele>
        <time>2013-05-05T10:53:34Z</time>
      </trkpt>
      <trkpt lat="60.0241744" lon="17.3775631">
        <ele>55.4131</ele>
        <time>2013-05-05T10:53:35Z</time>
      </trkpt>
      <trkpt lat="60.0242118" lon="17.3776848">
        <ele>55.8938</ele>
        <time>2013-05-05T10:53:36Z</time>
      </trkpt>
      <trkpt lat="60.0242511" lon="17.3778031">
        <ele>55.8938</ele>
        <time>2013-05-05T10:53:37Z</time>
      </trkpt>
      <trkpt lat="60.0242911" lon="17.3779257">
        <ele>56.8551</ele>
        <time>2013-05-05T10:53:38Z</time>
      </trkpt>
      <trkpt lat="60.0243301" lon="17.3780594">
        <ele>57.3358</ele>
        <time>2013-05-05T10:53:39Z</time>
      </trkpt>
      <trkpt lat="60.0243651" lon="17.3782018">
        <ele>57.3358</ele>
        <time>2013-05-05T10:53:40Z</time>
      </trkpt>
      <trkpt lat="60.0243941" lon="17.3783489">
        <ele>57.8165</ele>
        <time>2013-05-05T10:53:41Z</time>
      </trkpt>
      <trkpt lat="60.0244164" lon="17.3784987">
        <ele>58.2971</ele>
        <time>2013-05-05T10:53:42Z</time>
      </trkpt>
      <trkpt lat="60.0244371" lon="17.3786493">
        <ele>58.2971</ele>
        <time>2013-05-05T10:53:43Z</time>
      </trkpt>
      <trkpt lat="60.0244505" lon="17.3788021">
        <ele>58.2971</ele>
        <time>2013-05-05T10:53:44Z</time>
      </trkpt>
      <trkpt lat="60.0244537" lon="17.378954">
        <ele>58.2971</ele>
        <time>2013-05-05T10:53:45Z</time>
      </trkpt>
      <trkpt lat="60.0244524" lon="17.3790995">
        <ele>57.8165</ele>
        <time>2013-05-05T10:53:46Z</time>
      </trkpt>
      <trkpt lat="60.0244495" lon="17.3792409">
        <ele>57.3358</ele>
        <time>2013-05-05T10:53:47Z</time>
      </trkpt>
      <trkpt lat="60.0244458" lon="17.3793861">
        <ele>57.3358</ele>
        <time>2013-05-05T10:53:48Z</time>
      </trkpt>
      <trkpt lat="60.0244428" lon="17.379524">
        <ele>57.3358</ele>
        <time>2013-05-05T10:53:49Z</time>
      </trkpt>
      <trkpt lat="60.0244377" lon="17.3796652">
        <ele>57.3358</ele>
        <time>2013-05-05T10:53:50Z</time>
      </trkpt>
      <trkpt lat="60.0244303" lon="17.3798062">
        <ele>57.3358</ele>
        <time>2013-05-05T10:53:51Z</time>
      </trkpt>
      <trkpt lat="60.024421" lon="17.3799463">
        <ele>57.3358</ele>
        <time>2013-05-05T10:53:52Z</time>
      </trkpt>
      <trkpt lat="60.0244153" lon="17.3800719">
        <ele>56.8551</ele>
        <time>2013-05-05T10:53:53Z</time>
      </trkpt>
      <trkpt lat="60.0244087" lon="17.3801877">
        <ele>56.8551</ele>
        <time>2013-05-05T10:53:54Z</time>
      </trkpt>
      <trkpt lat="60.0243912" lon="17.3803071">
        <ele>57.3358</ele>
        <time>2013-05-05T10:53:55Z</time>
      </trkpt>
      <trkpt lat="60.0243764" lon="17.3804129">
        <ele>57.3358</ele>
        <time>2013-05-05T10:53:56Z</time>
      </trkpt>
      <trkpt lat="60.0243618" lon="17.3805172">
        <ele>57.3358</ele>
        <time>2013-05-05T10:53:57Z</time>
      </trkpt>
      <trkpt lat="60.0243524" lon="17.3806273">
        <ele>57.3358</ele>
        <time>2013-05-05T10:53:58Z</time>
      </trkpt>
      <trkpt lat="60.0243437" lon="17.3807457">
        <ele>57.3358</ele>
        <time>2013-05-05T10:53:59Z</time>
      </trkpt>
      <trkpt lat="60.0243349" lon="17.3808738">
        <ele>56.8551</ele>
        <time>2013-05-05T10:54:00Z</time>
      </trkpt>
      <trkpt lat="60.0243282" lon="17.3810086">
        <ele>56.8551</ele>
        <time>2013-05-05T10:54:01Z</time>
      </trkpt>
      <trkpt lat="60.0243231" lon="17.3811514">
        <ele>56.8551</ele>
        <time>2013-05-05T10:54:02Z</time>
      </trkpt>
      <trkpt lat="60.0243201" lon="17.3813013">
        <ele>56.8551</ele>
        <time>2013-05-05T10:54:03Z</time>
      </trkpt>
      <trkpt lat="60.0243179" lon="17.3814553">
        <ele>56.3745</ele>
        <time>2013-05-05T10:54:04Z</time>
      </trkpt>
      <trkpt lat="60.0243131" lon="17.3816114">
        <ele>56.3745</ele>
        <time>2013-05-05T10:54:05Z</time>
      </trkpt>
      <trkpt lat="60.024306" lon="17.3817685">
        <ele>56.3745</ele>
        <time>2013-05-05T10:54:06Z</time>
      </trkpt>
      <trkpt lat="60.0242987" lon="17.3819241">
        <ele>56.8551</ele>
        <time>2013-05-05T10:54:07Z</time>
      </trkpt>
      <trkpt lat="60.0242909" lon="17.382079">
        <ele>56.8551</ele>
        <time>2013-05-05T10:54:08Z</time>
      </trkpt>
      <trkpt lat="60.0242836" lon="17.3822368">
        <ele>56.8551</ele>
        <time>2013-05-05T10:54:09Z</time>
      </trkpt>
      <trkpt lat="60.0242799" lon="17.3823965">
        <ele>56.8551</ele>
        <time>2013-05-05T10:54:10Z</time>
      </trkpt>
      <trkpt lat="60.0242788" lon="17.3825603">
        <ele>56.8551</ele>
        <time>2013-05-05T10:54:11Z</time>
      </trkpt>
      <trkpt lat="60.0242794" lon="17.3827289">
        <ele>56.3745</ele>
        <time>2013-05-05T10:54:12Z</time>
      </trkpt>
      <trkpt lat="60.0242814" lon="17.3829008">
        <ele>56.3745</ele>
        <time>2013-05-05T10:54:13Z</time>
      </trkpt>
      <trkpt lat="60.0242837" lon="17.3830742">
        <ele>56.3745</ele>
        <time>2013-05-05T10:54:14Z</time>
      </trkpt>
      <trkpt lat="60.0242863" lon="17.3832478">
        <ele>56.3745</ele>
        <time>2013-05-05T10:54:15Z</time>
      </trkpt>
      <trkpt lat="60.0242873" lon="17.383421">
        <ele>56.3745</ele>
        <time>2013-05-05T10:54:16Z</time>
      </trkpt>
      <trkpt lat="60.0242852" lon="17.3835954">
        <ele>55.8938</ele>
        <time>2013-05-05T10:54:17Z</time>
      </trkpt>
      <trkpt lat="60.0242792" lon="17.3837709">
        <ele>55.8938</ele>
        <time>2013-05-05T10:54:18Z</time>
      </trkpt>
      <trkpt lat="60.0242676" lon="17.3839443">
        <ele>55.4131</ele>
        <time>2013-05-05T10:54:19Z</time>
      </trkpt>
      <trkpt lat="60.0242496" lon="17.3841145">
        <ele>55.4131</ele>
        <time>2013-05-05T10:54:20Z</time>
      </trkpt>
      <trkpt lat="60.024224" lon="17.3842771">
        <ele>55.4131</ele>
        <time>2013-05-05T10:54:21Z</time>
      </trkpt>
      <trkpt lat="60.0241883" lon="17.3844221">
        <ele>55.4131</ele>
        <time>2013-05-05T10:54:22Z</time>
      </trkpt>
      <trkpt lat="60.0241357" lon="17.3845501">
        <ele>54.9324</ele>
        <time>2013-05-05T10:54:23Z</time>
      </trkpt>
      <trkpt lat="60.0240615" lon="17.3846651">
        <ele>54.9324</ele>
        <time>2013-05-05T10:54:24Z</time>
      </trkpt>
      <trkpt lat="60.0239853" lon="17.3847794">
        <ele>54.9324</ele>
        <time>2013-05-05T10:54:25Z</time>
      </trkpt>
      <trkpt lat="60.0238992" lon="17.3848728">
        <ele>54.9324</ele>
        <time>2013-05-05T10:54:26Z</time>
      </trkpt>
      <trkpt lat="60.0238209" lon="17.3849988">
        <ele>54.9324</ele>
        <time>2013-05-05T10:54:27Z</time>
      </trkpt>
      <trkpt lat="60.0237453" lon="17.3851339">
        <ele>54.9324</ele>
        <time>2013-05-05T10:54:28Z</time>
      </trkpt>
      <trkpt lat="60.0236736" lon="17.3852762">
        <ele>54.9324</ele>
        <time>2013-05-05T10:54:29Z</time>
      </trkpt>
      <trkpt lat="60.0236014" lon="17.3854207">
        <ele>54.9324</ele>
        <time>2013-05-05T10:54:30Z</time>
      </trkpt>
      <trkpt lat="60.023531" lon="17.3855566">
        <ele>54.9324</ele>
        <time>2013-05-05T10:54:31Z</time>
      </trkpt>
      <trkpt lat="60.0234576" lon="17.385681">
        <ele>55.4131</ele>
        <time>2013-05-05T10:54:32Z</time>
      </trkpt>
      <trkpt lat="60.0233818" lon="17.3857997">
        <ele>55.4131</ele>
        <time>2013-05-05T10:54:33Z</time>
      </trkpt>
      <trkpt lat="60.0233065" lon="17.3859181">
        <ele>55.4131</ele>
        <time>2013-05-05T10:54:34Z</time>
      </trkpt>
      <trkpt lat="60.0232362" lon="17.3860379">
        <ele>55.8938</ele>
        <time>2013-05-05T10:54:35Z</time>
      </trkpt>
      <trkpt lat="60.0231698" lon="17.3861635">
        <ele>55.8938</ele>
        <time>2013-05-05T10:54:36Z</time>
      </trkpt>
      <trkpt lat="60.0231079" lon="17.3862857">
        <ele>55.8938</ele>
        <time>2013-05-05T10:54:37Z</time>
      </trkpt>
      <trkpt lat="60.0230461" lon="17.3864">
        <ele>55.8938</ele>
        <time>2013-05-05T10:54:38Z</time>
      </trkpt>
      <trkpt lat="60.02298" lon="17.3865019">
        <ele>55.4131</ele>
        <time>2013-05-05T10:54:39Z</time>
      </trkpt>
      <trkpt lat="60.0229082" lon="17.3865854">
        <ele>55.4131</ele>
        <time>2013-05-05T10:54:40Z</time>
      </trkpt>
      <trkpt lat="60.0228256" lon="17.3866513">
        <ele>54.9324</ele>
        <time>2013-05-05T10:54:41Z</time>
      </trkpt>
      <trkpt lat="60.0227349" lon="17.3867005">
        <ele>54.4518</ele>
        <time>2013-05-05T10:54:42Z</time>
      </trkpt>
      <trkpt lat="60.0226417" lon="17.3867345">
        <ele>53.9712</ele>
        <time>2013-05-05T10:54:43Z</time>
      </trkpt>
      <trkpt lat="60.0225477" lon="17.386762">
        <ele>53.4905</ele>
        <time>2013-05-05T10:54:44Z</time>
      </trkpt>
      <trkpt lat="60.022451" lon="17.3867884">
        <ele>53.4905</ele>
        <time>2013-05-05T10:54:45Z</time>
      </trkpt>
      <trkpt lat="60.0223567" lon="17.3868242">
        <ele>53.4905</ele>
        <time>2013-05-05T10:54:46Z</time>
      </trkpt>
      <trkpt lat="60.0222653" lon="17.3868667">
        <ele>53.4905</ele>
        <time>2013-05-05T10:54:47Z</time>
      </trkpt>
      <trkpt lat="60.0221769" lon="17.3869128">
        <ele>53.4905</ele>
        <time>2013-05-05T10:54:48Z</time>
      </trkpt>
      <trkpt lat="60.0220914" lon="17.3869616">
        <ele>53.4905</ele>
        <time>2013-05-05T10:54:49Z</time>
      </trkpt>
      <trkpt lat="60.0220033" lon="17.3869931">
        <ele>53.4905</ele>
        <time>2013-05-05T10:54:50Z</time>
      </trkpt>
      <trkpt lat="60.0219283" lon="17.3870591">
        <ele>53.9712</ele>
        <time>2013-05-05T10:54:51Z</time>
      </trkpt>
      <trkpt lat="60.0218523" lon="17.3871293">
        <ele>54.4518</ele>
        <time>2013-05-05T10:54:52Z</time>
      </trkpt>
      <trkpt lat="60.0217786" lon="17.3871826">
        <ele>54.4518</ele>
        <time>2013-05-05T10:54:53Z</time>
      </trkpt>
      <trkpt lat="60.0217091" lon="17.387221">
        <ele>54.4518</ele>
        <time>2013-05-05T10:54:54Z</time>
      </trkpt>
      <trkpt lat="60.0216406" lon="17.3872499">
        <ele>54.4518</ele>
        <time>2013-05-05T10:54:55Z</time>
      </trkpt>
      <trkpt lat="60.0215683" lon="17.3872743">
        <ele>54.4518</ele>
        <time>2013-05-05T10:54:56Z</time>
      </trkpt>
      <trkpt lat="60.0214926" lon="17.3873036">
        <ele>53.9712</ele>
        <time>2013-05-05T10:54:57Z</time>
      </trkpt>
      <trkpt lat="60.0214179" lon="17.3873306">
        <ele>53.9712</ele>
        <time>2013-05-05T10:54:58Z</time>
      </trkpt>
      <trkpt lat="60.0213476" lon="17.3873608">
        <ele>53.9712</ele>
        <time>2013-05-05T10:54:59Z</time>
      </trkpt>
      <trkpt lat="60.0212808" lon="17.3874036">
        <ele>53.9712</ele>
        <time>2013-05-05T10:55:00Z</time>
      </trkpt>
      <trkpt lat="60.0212175" lon="17.3874618">
        <ele>53.9712</ele>
        <time>2013-05-05T10:55:01Z</time>
      </trkpt>
      <trkpt lat="60.0211589" lon="17.3875447">
        <ele>54.4518</ele>
        <time>2013-05-05T10:55:02Z</time>
      </trkpt>
      <trkpt lat="60.0211115" lon="17.3876368">
        <ele>54.9324</ele>
        <time>2013-05-05T10:55:03Z</time>
      </trkpt>
      <trkpt lat="60.021069" lon="17.3877476">
        <ele>55.4131</ele>
        <time>2013-05-05T10:55:04Z</time>
      </trkpt>
      <trkpt lat="60.0210266" lon="17.3878731">
        <ele>55.4131</ele>
        <time>2013-05-05T10:55:05Z</time>
      </trkpt>
      <trkpt lat="60.0209903" lon="17.3880036">
        <ele>55.8938</ele>
        <time>2013-05-05T10:55:06Z</time>
      </trkpt>
      <trkpt lat="60.02096" lon="17.388135">
        <ele>56.3745</ele>
        <time>2013-05-05T10:55:07Z</time>
      </trkpt>
      <trkpt lat="60.0209375" lon="17.3882642">
        <ele>56.3745</ele>
        <time>2013-05-05T10:55:08Z</time>
      </trkpt>
      <trkpt lat="60.0209173" lon="17.3884027">
        <ele>56.8551</ele>
        <time>2013-05-05T10:55:09Z</time>
      </trkpt>
      <trkpt lat="60.0208931" lon="17.3885515">
        <ele>56.8551</ele>
        <time>2013-05-05T10:55:10Z</time>
      </trkpt>
      <trkpt lat="60.0208651" lon="17.3887134">
        <ele>57.3358</ele>
        <time>2013-05-05T10:55:11Z</time>
      </trkpt>
      <trkpt lat="60.0208365" lon="17.3888812">
        <ele>57.8165</ele>
        <time>2013-05-05T10:55:12Z</time>
      </trkpt>
      <trkpt lat="60.0208103" lon="17.3890515">
        <ele>57.3358</ele>
        <time>2013-05-05T10:55:13Z</time>
      </trkpt>
      <trkpt lat="60.0207824" lon="17.3892272">
        <ele>56.8551</ele>
        <time>2013-05-05T10:55:14Z</time>
      </trkpt>
      <trkpt lat="60.0207543" lon="17.3894008">
        <ele>55.8938</ele>
        <time>2013-05-05T10:55:15Z</time>
      </trkpt>
      <trkpt lat="60.0207285" lon="17.3895608">
        <ele>54.4518</ele>
        <time>2013-05-05T10:55:16Z</time>
      </trkpt>
      <trkpt lat="60.0207059" lon="17.3897078">
        <ele>53.4905</ele>
        <time>2013-05-05T10:55:17Z</time>
      </trkpt>
      <trkpt lat="60.0206911" lon="17.3898405">
        <ele>53.0098</ele>
        <time>2013-05-05T10:55:18Z</time>
      </trkpt>
      <trkpt lat="60.0206702" lon="17.3899721">
        <ele>53.0098</ele>
        <time>2013-05-05T10:55:19Z</time>
      </trkpt>
      <trkpt lat="60.0206358" lon="17.3901133">
        <ele>52.5292</ele>
        <time>2013-05-05T10:55:20Z</time>
      </trkpt>
      <trkpt lat="60.0205924" lon="17.3902589">
        <ele>52.5292</ele>
        <time>2013-05-05T10:55:21Z</time>
      </trkpt>
      <trkpt lat="60.0205385" lon="17.3904074">
        <ele>52.0486</ele>
        <time>2013-05-05T10:55:22Z</time>
      </trkpt>
      <trkpt lat="60.0204725" lon="17.3905624">
        <ele>51.0872</ele>
        <time>2013-05-05T10:55:23Z</time>
      </trkpt>
      <trkpt lat="60.0204029" lon="17.3907221">
        <ele>50.126</ele>
        <time>2013-05-05T10:55:24Z</time>
      </trkpt>
      <trkpt lat="60.0203293" lon="17.3908844">
        <ele>49.6453</ele>
        <time>2013-05-05T10:55:25Z</time>
      </trkpt>
      <trkpt lat="60.0202546" lon="17.3910481">
        <ele>49.1646</ele>
        <time>2013-05-05T10:55:26Z</time>
      </trkpt>
      <trkpt lat="60.0201805" lon="17.3912116">
        <ele>49.1646</ele>
        <time>2013-05-05T10:55:27Z</time>
      </trkpt>
      <trkpt lat="60.0201128" lon="17.391368">
        <ele>49.1646</ele>
        <time>2013-05-05T10:55:28Z</time>
      </trkpt>
      <trkpt lat="60.0200484" lon="17.3915148">
        <ele>49.1646</ele>
        <time>2013-05-05T10:55:29Z</time>
      </trkpt>
      <trkpt lat="60.0199811" lon="17.3916562">
        <ele>49.6453</ele>
        <time>2013-05-05T10:55:30Z</time>
      </trkpt>
      <trkpt lat="60.0199158" lon="17.3917945">
        <ele>49.6453</ele>
        <time>2013-05-05T10:55:31Z</time>
      </trkpt>
      <trkpt lat="60.0198524" lon="17.3919193">
        <ele>49.6453</ele>
        <time>2013-05-05T10:55:32Z</time>
      </trkpt>
      <trkpt lat="60.0197861" lon="17.3920364">
        <ele>50.6066</ele>
        <time>2013-05-05T10:55:33Z</time>
      </trkpt>
      <trkpt lat="60.0197174" lon="17.3921555">
        <ele>51.0872</ele>
        <time>2013-05-05T10:55:34Z</time>
      </trkpt>
      <trkpt lat="60.0196486" lon="17.3922693">
        <ele>51.0872</ele>
        <time>2013-05-05T10:55:35Z</time>
      </trkpt>
      <trkpt lat="60.0195852" lon="17.3923796">
        <ele>52.0486</ele>
        <time>2013-05-05T10:55:36Z</time>
      </trkpt>
      <trkpt lat="60.0195202" lon="17.3924913">
        <ele>52.5292</ele>
        <time>2013-05-05T10:55:37Z</time>
      </trkpt>
      <trkpt lat="60.0194579" lon="17.3925985">
        <ele>53.0098</ele>
        <time>2013-05-05T10:55:38Z</time>
      </trkpt>
      <trkpt lat="60.0193968" lon="17.3927032">
        <ele>53.4905</ele>
        <time>2013-05-05T10:55:39Z</time>
      </trkpt>
      <trkpt lat="60.019334" lon="17.392808">
        <ele>53.9712</ele>
        <time>2013-05-05T10:55:40Z</time>
      </trkpt>
      <trkpt lat="60.0192725" lon="17.3929111">
        <ele>53.9712</ele>
        <time>2013-05-05T10:55:41Z</time>
      </trkpt>
      <trkpt lat="60.0192104" lon="17.3930128">
        <ele>53.9712</ele>
        <time>2013-05-05T10:55:42Z</time>
      </trkpt>
      <trkpt lat="60.0191491" lon="17.3931116">
        <ele>53.9712</ele>
        <time>2013-05-05T10:55:43Z</time>
      </trkpt>
      <trkpt lat="60.019076" lon="17.393226">
        <ele>53.4905</ele>
        <time>2013-05-05T10:55:44Z</time>
      </trkpt>
      <trkpt lat="60.0190103" lon="17.393332">
        <ele>53.0098</ele>
        <time>2013-05-05T10:55:45Z</time>
      </trkpt>
      <trkpt lat="60.018945" lon="17.3934415">
        <ele>53.0098</ele>
        <time>2013-05-05T10:55:46Z</time>
      </trkpt>
      <trkpt lat="60.0188786" lon="17.3935512">
        <ele>53.4905</ele>
        <time>2013-05-05T10:55:47Z</time>
      </trkpt>
      <trkpt lat="60.0188094" lon="17.3936651">
        <ele>53.0098</ele>
        <time>2013-05-05T10:55:48Z</time>
      </trkpt>
      <trkpt lat="60.0187278" lon="17.3937867">
        <ele>53.0098</ele>
        <time>2013-05-05T10:55:49Z</time>
      </trkpt>
      <trkpt lat="60.0186448" lon="17.3939114">
        <ele>52.5292</ele>
        <time>2013-05-05T10:55:50Z</time>
      </trkpt>
      <trkpt lat="60.0185562" lon="17.3940124">
        <ele>52.5292</ele>
        <time>2013-05-05T10:55:51Z</time>
      </trkpt>
      <trkpt lat="60.0184571" lon="17.3941053">
        <ele>51.5679</ele>
        <time>2013-05-05T10:55:52Z</time>
      </trkpt>
      <trkpt lat="60.0183485" lon="17.3942032">
        <ele>51.0872</ele>
        <time>2013-05-05T10:55:53Z</time>
      </trkpt>
      <trkpt lat="60.0182435" lon="17.394302">
        <ele>50.6066</ele>
        <time>2013-05-05T10:55:54Z</time>
      </trkpt>
      <trkpt lat="60.0181417" lon="17.3944047">
        <ele>50.126</ele>
        <time>2013-05-05T10:55:55Z</time>
      </trkpt>
      <trkpt lat="60.0180482" lon="17.3945117">
        <ele>49.6453</ele>
        <time>2013-05-05T10:55:56Z</time>
      </trkpt>
      <trkpt lat="60.0179634" lon="17.3946222">
        <ele>49.6453</ele>
        <time>2013-05-05T10:55:57Z</time>
      </trkpt>
      <trkpt lat="60.0178809" lon="17.3947472">
        <ele>49.1646</ele>
        <time>2013-05-05T10:55:58Z</time>
      </trkpt>
      <trkpt lat="60.0178068" lon="17.3948723">
        <ele>48.684</ele>
        <time>2013-05-05T10:55:59Z</time>
      </trkpt>
      <trkpt lat="60.0177364" lon="17.3950051">
        <ele>48.684</ele>
        <time>2013-05-05T10:56:00Z</time>
      </trkpt>
      <trkpt lat="60.0176693" lon="17.3951468">
        <ele>48.684</ele>
        <time>2013-05-05T10:56:01Z</time>
      </trkpt>
      <trkpt lat="60.0176101" lon="17.3952958">
        <ele>48.684</ele>
        <time>2013-05-05T10:56:02Z</time>
      </trkpt>
      <trkpt lat="60.017564" lon="17.3954516">
        <ele>48.684</ele>
        <time>2013-05-05T10:56:03Z</time>
      </trkpt>
      <trkpt lat="60.0175318" lon="17.3956157">
        <ele>49.1646</ele>
        <time>2013-05-05T10:56:04Z</time>
      </trkpt>
      <trkpt lat="60.0175133" lon="17.395791">
        <ele>49.6453</ele>
        <time>2013-05-05T10:56:05Z</time>
      </trkpt>
      <trkpt lat="60.0175201" lon="17.3959691">
        <ele>49.6453</ele>
        <time>2013-05-05T10:56:06Z</time>
      </trkpt>
      <trkpt lat="60.0175309" lon="17.3961607">
        <ele>50.126</ele>
        <time>2013-05-05T10:56:07Z</time>
      </trkpt>
      <trkpt lat="60.0175518" lon="17.3963385">
        <ele>51.0872</ele>
        <time>2013-05-05T10:56:08Z</time>
      </trkpt>
      <trkpt lat="60.0175872" lon="17.396502">
        <ele>51.0872</ele>
        <time>2013-05-05T10:56:09Z</time>
      </trkpt>
      <trkpt lat="60.0176314" lon="17.3966643">
        <ele>51.0872</ele>
        <time>2013-05-05T10:56:10Z</time>
      </trkpt>
      <trkpt lat="60.0176774" lon="17.3968196">
        <ele>51.0872</ele>
        <time>2013-05-05T10:56:11Z</time>
      </trkpt>
      <trkpt lat="60.0177148" lon="17.3969704">
        <ele>51.0872</ele>
        <time>2013-05-05T10:56:12Z</time>
      </trkpt>
      <trkpt lat="60.0177651" lon="17.3971331">
        <ele>51.5679</ele>
        <time>2013-05-05T10:56:13Z</time>
      </trkpt>
      <trkpt lat="60.0178447" lon="17.3972777">
        <ele>53.0098</ele>
        <time>2013-05-05T10:56:14Z</time>
      </trkpt>
      <trkpt lat="60.0179001" lon="17.3974197">
        <ele>53.4905</ele>
        <time>2013-05-05T10:56:15Z</time>
      </trkpt>
      <trkpt lat="60.0179474" lon="17.3975614">
        <ele>53.9712</ele>
        <time>2013-05-05T10:56:16Z</time>
      </trkpt>
      <trkpt lat="60.0179781" lon="17.397682">
        <ele>53.9712</ele>
        <time>2013-05-05T10:56:17Z</time>
      </trkpt>
      <trkpt lat="60.0180195" lon="17.3978105">
        <ele>54.9324</ele>
        <time>2013-05-05T10:56:18Z</time>
      </trkpt>
      <trkpt lat="60.0180614" lon="17.3979236">
        <ele>54.9324</ele>
        <time>2013-05-05T10:56:19Z</time>
      </trkpt>
      <trkpt lat="60.018096" lon="17.3980485">
        <ele>54.9324</ele>
        <time>2013-05-05T10:56:20Z</time>
      </trkpt>
      <trkpt lat="60.018128" lon="17.3981783">
        <ele>55.4131</ele>
        <time>2013-05-05T10:56:21Z</time>
      </trkpt>
      <trkpt lat="60.0181665" lon="17.3983064">
        <ele>55.4131</ele>
        <time>2013-05-05T10:56:22Z</time>
      </trkpt>
      <trkpt lat="60.0182007" lon="17.398445">
        <ele>55.8938</ele>
        <time>2013-05-05T10:56:23Z</time>
      </trkpt>
      <trkpt lat="60.018227" lon="17.3985953">
        <ele>55.8938</ele>
        <time>2013-05-05T10:56:24Z</time>
      </trkpt>
      <trkpt lat="60.0182464" lon="17.3987487">
        <ele>56.3745</ele>
        <time>2013-05-05T10:56:25Z</time>
      </trkpt>
      <trkpt lat="60.0182618" lon="17.398905">
        <ele>55.8938</ele>
        <time>2013-05-05T10:56:26Z</time>
      </trkpt>
      <trkpt lat="60.0182758" lon="17.3990647">
        <ele>55.8938</ele>
        <time>2013-05-05T10:56:27Z</time>
      </trkpt>
      <trkpt lat="60.0182914" lon="17.3992324">
        <ele>55.4131</ele>
        <time>2013-05-05T10:56:28Z</time>
      </trkpt>
      <trkpt lat="60.0183085" lon="17.3994066">
        <ele>55.4131</ele>
        <time>2013-05-05T10:56:29Z</time>
      </trkpt>
      <trkpt lat="60.0183266" lon="17.3995886">
        <ele>55.4131</ele>
        <time>2013-05-05T10:56:30Z</time>
      </trkpt>
      <trkpt lat="60.0183458" lon="17.3997791">
        <ele>55.4131</ele>
        <time>2013-05-05T10:56:31Z</time>
      </trkpt>
      <trkpt lat="60.0183675" lon="17.3999773">
        <ele>54.9324</ele>
        <time>2013-05-05T10:56:32Z</time>
      </trkpt>
      <trkpt lat="60.018393" lon="17.4001841">
        <ele>54.4518</ele>
        <time>2013-05-05T10:56:33Z</time>
      </trkpt>
      <trkpt lat="60.0184238" lon="17.4003944">
        <ele>54.4518</ele>
        <time>2013-05-05T10:56:34Z</time>
      </trkpt>
      <trkpt lat="60.0184494" lon="17.4006001">
        <ele>54.4518</ele>
        <time>2013-05-05T10:56:35Z</time>
      </trkpt>
      <trkpt lat="60.0184762" lon="17.400798">
        <ele>53.9712</ele>
        <time>2013-05-05T10:56:36Z</time>
      </trkpt>
      <trkpt lat="60.0185027" lon="17.4009881">
        <ele>53.4905</ele>
        <time>2013-05-05T10:56:37Z</time>
      </trkpt>
      <trkpt lat="60.0185292" lon="17.4011723">
        <ele>53.4905</ele>
        <time>2013-05-05T10:56:38Z</time>
      </trkpt>
      <trkpt lat="60.0185519" lon="17.40135">
        <ele>53.0098</ele>
        <time>2013-05-05T10:56:39Z</time>
      </trkpt>
      <trkpt lat="60.0185706" lon="17.4015241">
        <ele>52.5292</ele>
        <time>2013-05-05T10:56:40Z</time>
      </trkpt>
      <trkpt lat="60.0185866" lon="17.4016911">
        <ele>52.0486</ele>
        <time>2013-05-05T10:56:41Z</time>
      </trkpt>
      <trkpt lat="60.0185948" lon="17.4018852">
        <ele>51.5679</ele>
        <time>2013-05-05T10:56:42Z</time>
      </trkpt>
      <trkpt lat="60.0186068" lon="17.4022026">
        <ele>50.126</ele>
        <time>2013-05-05T10:56:44Z</time>
      </trkpt>
      <trkpt lat="60.0186037" lon="17.4023765">
        <ele>49.1646</ele>
        <time>2013-05-05T10:56:45Z</time>
      </trkpt>
      <trkpt lat="60.0185891" lon="17.4025544">
        <ele>48.2034</ele>
        <time>2013-05-05T10:56:46Z</time>
      </trkpt>
      <trkpt lat="60.0185726" lon="17.4027307">
        <ele>47.7225</ele>
        <time>2013-05-05T10:56:47Z</time>
      </trkpt>
      <trkpt lat="60.0185557" lon="17.4029073">
        <ele>48.2034</ele>
        <time>2013-05-05T10:56:48Z</time>
      </trkpt>
      <trkpt lat="60.0185321" lon="17.4030805">
        <ele>47.2418</ele>
        <time>2013-05-05T10:56:49Z</time>
      </trkpt>
      <trkpt lat="60.0185108" lon="17.403261">
        <ele>47.7225</ele>
        <time>2013-05-05T10:56:50Z</time>
      </trkpt>
      <trkpt lat="60.0184861" lon="17.4034449">
        <ele>47.7225</ele>
        <time>2013-05-05T10:56:51Z</time>
      </trkpt>
      <trkpt lat="60.0184529" lon="17.4036298">
        <ele>47.2418</ele>
        <time>2013-05-05T10:56:52Z</time>
      </trkpt>
      <trkpt lat="60.0184225" lon="17.403815">
        <ele>46.7612</ele>
        <time>2013-05-05T10:56:53Z</time>
      </trkpt>
      <trkpt lat="60.0183939" lon="17.4040009">
        <ele>46.7612</ele>
        <time>2013-05-05T10:56:54Z</time>
      </trkpt>
      <trkpt lat="60.0183613" lon="17.4041848">
        <ele>46.2806</ele>
        <time>2013-05-05T10:56:55Z</time>
      </trkpt>
      <trkpt lat="60.0183222" lon="17.4043682">
        <ele>45.7999</ele>
        <time>2013-05-05T10:56:56Z</time>
      </trkpt>
      <trkpt lat="60.0182793" lon="17.4045499">
        <ele>45.7999</ele>
        <time>2013-05-05T10:56:57Z</time>
      </trkpt>
      <trkpt lat="60.0182287" lon="17.4047251">
        <ele>45.3192</ele>
        <time>2013-05-05T10:56:58Z</time>
      </trkpt>
      <trkpt lat="60.0181707" lon="17.4048948">
        <ele>45.3192</ele>
        <time>2013-05-05T10:56:59Z</time>
      </trkpt>
      <trkpt lat="60.0181049" lon="17.4050536">
        <ele>45.3192</ele>
        <time>2013-05-05T10:57:00Z</time>
      </trkpt>
      <trkpt lat="60.0180375" lon="17.4052021">
        <ele>45.7999</ele>
        <time>2013-05-05T10:57:01Z</time>
      </trkpt>
      <trkpt lat="60.0179721" lon="17.4053435">
        <ele>45.7999</ele>
        <time>2013-05-05T10:57:02Z</time>
      </trkpt>
      <trkpt lat="60.0179112" lon="17.4054793">
        <ele>46.2806</ele>
        <time>2013-05-05T10:57:03Z</time>
      </trkpt>
      <trkpt lat="60.0178524" lon="17.4056102">
        <ele>45.7999</ele>
        <time>2013-05-05T10:57:04Z</time>
      </trkpt>
      <trkpt lat="60.0177936" lon="17.405742">
        <ele>45.7999</ele>
        <time>2013-05-05T10:57:05Z</time>
      </trkpt>
      <trkpt lat="60.0177354" lon="17.4058761">
        <ele>46.2806</ele>
        <time>2013-05-05T10:57:06Z</time>
      </trkpt>
      <trkpt lat="60.0176752" lon="17.4060107">
        <ele>46.2806</ele>
        <time>2013-05-05T10:57:07Z</time>
      </trkpt>
      <trkpt lat="60.0176136" lon="17.4061496">
        <ele>47.2418</ele>
        <time>2013-05-05T10:57:08Z</time>
      </trkpt>
      <trkpt lat="60.0175566" lon="17.4062861">
        <ele>47.2418</ele>
        <time>2013-05-05T10:57:09Z</time>
      </trkpt>
      <trkpt lat="60.0175014" lon="17.4064277">
        <ele>48.2034</ele>
        <time>2013-05-05T10:57:10Z</time>
      </trkpt>
      <trkpt lat="60.0174541" lon="17.4065679">
        <ele>48.2034</ele>
        <time>2013-05-05T10:57:11Z</time>
      </trkpt>
      <trkpt lat="60.0174086" lon="17.406715">
        <ele>48.684</ele>
        <time>2013-05-05T10:57:12Z</time>
      </trkpt>
      <trkpt lat="60.0173626" lon="17.4068644">
        <ele>49.1646</ele>
        <time>2013-05-05T10:57:13Z</time>
      </trkpt>
      <trkpt lat="60.0173195" lon="17.4070151">
        <ele>49.1646</ele>
        <time>2013-05-05T10:57:14Z</time>
      </trkpt>
      <trkpt lat="60.0172793" lon="17.4071669">
        <ele>49.6453</ele>
        <time>2013-05-05T10:57:15Z</time>
      </trkpt>
      <trkpt lat="60.0172439" lon="17.4073195">
        <ele>50.126</ele>
        <time>2013-05-05T10:57:16Z</time>
      </trkpt>
      <trkpt lat="60.0172118" lon="17.4074678">
        <ele>50.126</ele>
        <time>2013-05-05T10:57:17Z</time>
      </trkpt>
      <trkpt lat="60.0171813" lon="17.4076159">
        <ele>50.126</ele>
        <time>2013-05-05T10:57:18Z</time>
      </trkpt>
      <trkpt lat="60.0171549" lon="17.4077617">
        <ele>50.126</ele>
        <time>2013-05-05T10:57:19Z</time>
      </trkpt>
      <trkpt lat="60.0171264" lon="17.4079134">
        <ele>50.126</ele>
        <time>2013-05-05T10:57:20Z</time>
      </trkpt>
      <trkpt lat="60.017103" lon="17.4080595">
        <ele>50.126</ele>
        <time>2013-05-05T10:57:21Z</time>
      </trkpt>
      <trkpt lat="60.0170808" lon="17.4082036">
        <ele>50.126</ele>
        <time>2013-05-05T10:57:22Z</time>
      </trkpt>
      <trkpt lat="60.0170607" lon="17.4083488">
        <ele>50.126</ele>
        <time>2013-05-05T10:57:23Z</time>
      </trkpt>
      <trkpt lat="60.0170396" lon="17.4084944">
        <ele>50.126</ele>
        <time>2013-05-05T10:57:24Z</time>
      </trkpt>
      <trkpt lat="60.0170205" lon="17.4086369">
        <ele>50.6066</ele>
        <time>2013-05-05T10:57:25Z</time>
      </trkpt>
      <trkpt lat="60.0170009" lon="17.408778">
        <ele>50.6066</ele>
        <time>2013-05-05T10:57:26Z</time>
      </trkpt>
      <trkpt lat="60.0169837" lon="17.40891">
        <ele>51.0872</ele>
        <time>2013-05-05T10:57:27Z</time>
      </trkpt>
      <trkpt lat="60.0169683" lon="17.4090322">
        <ele>51.0872</ele>
        <time>2013-05-05T10:57:28Z</time>
      </trkpt>
      <trkpt lat="60.0169501" lon="17.4091521">
        <ele>51.0872</ele>
        <time>2013-05-05T10:57:29Z</time>
      </trkpt>
      <trkpt lat="60.0169285" lon="17.4092714">
        <ele>51.0872</ele>
        <time>2013-05-05T10:57:30Z</time>
      </trkpt>
      <trkpt lat="60.0169022" lon="17.4093926">
        <ele>51.0872</ele>
        <time>2013-05-05T10:57:31Z</time>
      </trkpt>
      <trkpt lat="60.0168679" lon="17.4095155">
        <ele>51.0872</ele>
        <time>2013-05-05T10:57:32Z</time>
      </trkpt>
      <trkpt lat="60.0168249" lon="17.4096411">
        <ele>51.0872</ele>
        <time>2013-05-05T10:57:33Z</time>
      </trkpt>
      <trkpt lat="60.0167776" lon="17.4097683">
        <ele>51.0872</ele>
        <time>2013-05-05T10:57:34Z</time>
      </trkpt>
      <trkpt lat="60.0167233" lon="17.4099014">
        <ele>51.5679</ele>
        <time>2013-05-05T10:57:35Z</time>
      </trkpt>
      <trkpt lat="60.0166631" lon="17.4100316">
        <ele>51.5679</ele>
        <time>2013-05-05T10:57:36Z</time>
      </trkpt>
      <trkpt lat="60.0165969" lon="17.4101538">
        <ele>51.5679</ele>
        <time>2013-05-05T10:57:37Z</time>
      </trkpt>
      <trkpt lat="60.0165239" lon="17.4102745">
        <ele>51.5679</ele>
        <time>2013-05-05T10:57:38Z</time>
      </trkpt>
      <trkpt lat="60.016443" lon="17.4103927">
        <ele>51.5679</ele>
        <time>2013-05-05T10:57:39Z</time>
      </trkpt>
      <trkpt lat="60.0163603" lon="17.4105126">
        <ele>50.6066</ele>
        <time>2013-05-05T10:57:40Z</time>
      </trkpt>
      <trkpt lat="60.0162763" lon="17.4106341">
        <ele>50.6066</ele>
        <time>2013-05-05T10:57:41Z</time>
      </trkpt>
      <trkpt lat="60.0161866" lon="17.4107573">
        <ele>50.126</ele>
        <time>2013-05-05T10:57:42Z</time>
      </trkpt>
      <trkpt lat="60.0160982" lon="17.4108775">
        <ele>50.126</ele>
        <time>2013-05-05T10:57:43Z</time>
      </trkpt>
      <trkpt lat="60.0160089" lon="17.4109986">
        <ele>49.6453</ele>
        <time>2013-05-05T10:57:44Z</time>
      </trkpt>
      <trkpt lat="60.015922" lon="17.4111181">
        <ele>49.6453</ele>
        <time>2013-05-05T10:57:45Z</time>
      </trkpt>
      <trkpt lat="60.0158375" lon="17.41124">
        <ele>50.126</ele>
        <time>2013-05-05T10:57:46Z</time>
      </trkpt>
      <trkpt lat="60.0157536" lon="17.411355">
        <ele>50.126</ele>
        <time>2013-05-05T10:57:47Z</time>
      </trkpt>
      <trkpt lat="60.0156626" lon="17.4114805">
        <ele>49.6453</ele>
        <time>2013-05-05T10:57:48Z</time>
      </trkpt>
      <trkpt lat="60.0155854" lon="17.4115933">
        <ele>50.126</ele>
        <time>2013-05-05T10:57:49Z</time>
      </trkpt>
      <trkpt lat="60.015503" lon="17.4117193">
        <ele>49.6453</ele>
        <time>2013-05-05T10:57:50Z</time>
      </trkpt>
      <trkpt lat="60.0154263" lon="17.4118482">
        <ele>49.1646</ele>
        <time>2013-05-05T10:57:51Z</time>
      </trkpt>
      <trkpt lat="60.0153595" lon="17.41197">
        <ele>49.1646</ele>
        <time>2013-05-05T10:57:52Z</time>
      </trkpt>
      <trkpt lat="60.0152953" lon="17.4120953">
        <ele>49.1646</ele>
        <time>2013-05-05T10:57:53Z</time>
      </trkpt>
      <trkpt lat="60.0152347" lon="17.4122274">
        <ele>49.1646</ele>
        <time>2013-05-05T10:57:54Z</time>
      </trkpt>
      <trkpt lat="60.0151806" lon="17.4123624">
        <ele>49.1646</ele>
        <time>2013-05-05T10:57:55Z</time>
      </trkpt>
      <trkpt lat="60.0151292" lon="17.4124977">
        <ele>49.1646</ele>
        <time>2013-05-05T10:57:56Z</time>
      </trkpt>
      <trkpt lat="60.0150781" lon="17.4126308">
        <ele>49.1646</ele>
        <time>2013-05-05T10:57:57Z</time>
      </trkpt>
      <trkpt lat="60.0150305" lon="17.4127643">
        <ele>49.1646</ele>
        <time>2013-05-05T10:57:58Z</time>
      </trkpt>
      <trkpt lat="60.014984" lon="17.4129008">
        <ele>49.1646</ele>
        <time>2013-05-05T10:57:59Z</time>
      </trkpt>
      <trkpt lat="60.0149409" lon="17.4130369">
        <ele>49.1646</ele>
        <time>2013-05-05T10:58:00Z</time>
      </trkpt>
      <trkpt lat="60.0148935" lon="17.4131764">
        <ele>49.1646</ele>
        <time>2013-05-05T10:58:01Z</time>
      </trkpt>
      <trkpt lat="60.0148391" lon="17.4133208">
        <ele>49.6453</ele>
        <time>2013-05-05T10:58:02Z</time>
      </trkpt>
      <trkpt lat="60.0147953" lon="17.4134622">
        <ele>50.126</ele>
        <time>2013-05-05T10:58:03Z</time>
      </trkpt>
      <trkpt lat="60.0147559" lon="17.4136043">
        <ele>50.6066</ele>
        <time>2013-05-05T10:58:04Z</time>
      </trkpt>
      <trkpt lat="60.0147134" lon="17.4137567">
        <ele>50.6066</ele>
        <time>2013-05-05T10:58:05Z</time>
      </trkpt>
      <trkpt lat="60.0146721" lon="17.4139169">
        <ele>50.126</ele>
        <time>2013-05-05T10:58:06Z</time>
      </trkpt>
      <trkpt lat="60.0146358" lon="17.4140792">
        <ele>50.6066</ele>
        <time>2013-05-05T10:58:07Z</time>
      </trkpt>
      <trkpt lat="60.0146001" lon="17.4142502">
        <ele>50.6066</ele>
        <time>2013-05-05T10:58:08Z</time>
      </trkpt>
      <trkpt lat="60.0145685" lon="17.4144283">
        <ele>51.0872</ele>
        <time>2013-05-05T10:58:09Z</time>
      </trkpt>
      <trkpt lat="60.014538" lon="17.414609">
        <ele>51.5679</ele>
        <time>2013-05-05T10:58:10Z</time>
      </trkpt>
      <trkpt lat="60.0145099" lon="17.4147915">
        <ele>51.5679</ele>
        <time>2013-05-05T10:58:11Z</time>
      </trkpt>
      <trkpt lat="60.0144893" lon="17.4149669">
        <ele>51.0872</ele>
        <time>2013-05-05T10:58:12Z</time>
      </trkpt>
      <trkpt lat="60.0144686" lon="17.4151453">
        <ele>50.6066</ele>
        <time>2013-05-05T10:58:13Z</time>
      </trkpt>
      <trkpt lat="60.0144499" lon="17.4153244">
        <ele>50.6066</ele>
        <time>2013-05-05T10:58:14Z</time>
      </trkpt>
      <trkpt lat="60.014427" lon="17.4155058">
        <ele>50.126</ele>
        <time>2013-05-05T10:58:15Z</time>
      </trkpt>
      <trkpt lat="60.0144076" lon="17.415683">
        <ele>50.6066</ele>
        <time>2013-05-05T10:58:16Z</time>
      </trkpt>
      <trkpt lat="60.0143693" lon="17.4158745">
        <ele>50.126</ele>
        <time>2013-05-05T10:58:17Z</time>
      </trkpt>
      <trkpt lat="60.0143352" lon="17.416056">
        <ele>49.6453</ele>
        <time>2013-05-05T10:58:18Z</time>
      </trkpt>
      <trkpt lat="60.0143118" lon="17.4162309">
        <ele>49.6453</ele>
        <time>2013-05-05T10:58:19Z</time>
      </trkpt>
      <trkpt lat="60.014285" lon="17.4164065">
        <ele>49.1646</ele>
        <time>2013-05-05T10:58:20Z</time>
      </trkpt>
      <trkpt lat="60.0142623" lon="17.4165777">
        <ele>49.1646</ele>
        <time>2013-05-05T10:58:21Z</time>
      </trkpt>
      <trkpt lat="60.0142416" lon="17.4167435">
        <ele>48.684</ele>
        <time>2013-05-05T10:58:22Z</time>
      </trkpt>
      <trkpt lat="60.0142191" lon="17.4169077">
        <ele>48.684</ele>
        <time>2013-05-05T10:58:23Z</time>
      </trkpt>
      <trkpt lat="60.0141935" lon="17.4170723">
        <ele>48.684</ele>
        <time>2013-05-05T10:58:24Z</time>
      </trkpt>
      <trkpt lat="60.0141644" lon="17.4172344">
        <ele>48.2034</ele>
        <time>2013-05-05T10:58:25Z</time>
      </trkpt>
      <trkpt lat="60.0141271" lon="17.4174076">
        <ele>47.7225</ele>
        <time>2013-05-05T10:58:26Z</time>
      </trkpt>
      <trkpt lat="60.0140958" lon="17.4175701">
        <ele>47.2418</ele>
        <time>2013-05-05T10:58:27Z</time>
      </trkpt>
      <trkpt lat="60.014055" lon="17.417738">
        <ele>46.7612</ele>
        <time>2013-05-05T10:58:28Z</time>
      </trkpt>
      <trkpt lat="60.0140265" lon="17.417911">
        <ele>46.2806</ele>
        <time>2013-05-05T10:58:29Z</time>
      </trkpt>
      <trkpt lat="60.0140044" lon="17.4180903">
        <ele>46.2806</ele>
        <time>2013-05-05T10:58:30Z</time>
      </trkpt>
      <trkpt lat="60.0139815" lon="17.4182674">
        <ele>45.7999</ele>
        <time>2013-05-05T10:58:31Z</time>
      </trkpt>
      <trkpt lat="60.0139668" lon="17.4184493">
        <ele>45.7999</ele>
        <time>2013-05-05T10:58:32Z</time>
      </trkpt>
      <trkpt lat="60.0139608" lon="17.4186346">
        <ele>45.7999</ele>
        <time>2013-05-05T10:58:33Z</time>
      </trkpt>
      <trkpt lat="60.0139616" lon="17.4188183">
        <ele>45.3192</ele>
        <time>2013-05-05T10:58:34Z</time>
      </trkpt>
      <trkpt lat="60.0139702" lon="17.4189982">
        <ele>45.3192</ele>
        <time>2013-05-05T10:58:35Z</time>
      </trkpt>
      <trkpt lat="60.0139793" lon="17.4191826">
        <ele>45.3192</ele>
        <time>2013-05-05T10:58:36Z</time>
      </trkpt>
      <trkpt lat="60.0139898" lon="17.4193677">
        <ele>44.8386</ele>
        <time>2013-05-05T10:58:37Z</time>
      </trkpt>
      <trkpt lat="60.0140012" lon="17.4195536">
        <ele>44.8386</ele>
        <time>2013-05-05T10:58:38Z</time>
      </trkpt>
      <trkpt lat="60.0140095" lon="17.4197427">
        <ele>44.358</ele>
        <time>2013-05-05T10:58:39Z</time>
      </trkpt>
      <trkpt lat="60.0140116" lon="17.419931">
        <ele>43.8773</ele>
        <time>2013-05-05T10:58:40Z</time>
      </trkpt>
      <trkpt lat="60.0140049" lon="17.4201157">
        <ele>43.8773</ele>
        <time>2013-05-05T10:58:41Z</time>
      </trkpt>
      <trkpt lat="60.0139914" lon="17.420298">
        <ele>43.8773</ele>
        <time>2013-05-05T10:58:42Z</time>
      </trkpt>
      <trkpt lat="60.0139735" lon="17.420473">
        <ele>43.8773</ele>
        <time>2013-05-05T10:58:43Z</time>
      </trkpt>
      <trkpt lat="60.0139516" lon="17.4206377">
        <ele>43.3966</ele>
        <time>2013-05-05T10:58:44Z</time>
      </trkpt>
      <trkpt lat="60.0139274" lon="17.4207968">
        <ele>43.3966</ele>
        <time>2013-05-05T10:58:45Z</time>
      </trkpt>
      <trkpt lat="60.0139013" lon="17.4209558">
        <ele>43.3966</ele>
        <time>2013-05-05T10:58:46Z</time>
      </trkpt>
      <trkpt lat="60.0138753" lon="17.4211147">
        <ele>42.916</ele>
        <time>2013-05-05T10:58:47Z</time>
      </trkpt>
      <trkpt lat="60.0138482" lon="17.4212748">
        <ele>42.4354</ele>
        <time>2013-05-05T10:58:48Z</time>
      </trkpt>
      <trkpt lat="60.0138207" lon="17.4214355">
        <ele>42.4354</ele>
        <time>2013-05-05T10:58:49Z</time>
      </trkpt>
      <trkpt lat="60.0137951" lon="17.421595">
        <ele>42.4354</ele>
        <time>2013-05-05T10:58:50Z</time>
      </trkpt>
      <trkpt lat="60.0137733" lon="17.4217458">
        <ele>41.9547</ele>
        <time>2013-05-05T10:58:51Z</time>
      </trkpt>
      <trkpt lat="60.0137572" lon="17.4218873">
        <ele>41.9547</ele>
        <time>2013-05-05T10:58:52Z</time>
      </trkpt>
      <trkpt lat="60.0137508" lon="17.4220236">
        <ele>41.9547</ele>
        <time>2013-05-05T10:58:53Z</time>
      </trkpt>
      <trkpt lat="60.0137623" lon="17.4221539">
        <ele>41.9547</ele>
        <time>2013-05-05T10:58:54Z</time>
      </trkpt>
      <trkpt lat="60.0137938" lon="17.4222729">
        <ele>41.9547</ele>
        <time>2013-05-05T10:58:55Z</time>
      </trkpt>
      <trkpt lat="60.013844" lon="17.4223698">
        <ele>42.4354</ele>
        <time>2013-05-05T10:58:56Z</time>
      </trkpt>
      <trkpt lat="60.013906" lon="17.4224501">
        <ele>42.4354</ele>
        <time>2013-05-05T10:58:57Z</time>
      </trkpt>
      <trkpt lat="60.0139738" lon="17.422528">
        <ele>41.9547</ele>
        <time>2013-05-05T10:58:58Z</time>
      </trkpt>
      <trkpt lat="60.0140452" lon="17.4226055">
        <ele>41.9547</ele>
        <time>2013-05-05T10:58:59Z</time>
      </trkpt>
      <trkpt lat="60.0141193" lon="17.422682">
        <ele>41.9547</ele>
        <time>2013-05-05T10:59:00Z</time>
      </trkpt>
      <trkpt lat="60.0141942" lon="17.4227591">
        <ele>41.9547</ele>
        <time>2013-05-05T10:59:01Z</time>
      </trkpt>
      <trkpt lat="60.0142706" lon="17.4228367">
        <ele>41.9547</ele>
        <time>2013-05-05T10:59:02Z</time>
      </trkpt>
      <trkpt lat="60.0143486" lon="17.422913">
        <ele>41.474</ele>
        <time>2013-05-05T10:59:03Z</time>
      </trkpt>
      <trkpt lat="60.0144271" lon="17.4229895">
        <ele>41.474</ele>
        <time>2013-05-05T10:59:04Z</time>
      </trkpt>
      <trkpt lat="60.0145068" lon="17.4230636">
        <ele>41.474</ele>
        <time>2013-05-05T10:59:05Z</time>
      </trkpt>
      <trkpt lat="60.0145864" lon="17.4231375">
        <ele>41.474</ele>
        <time>2013-05-05T10:59:06Z</time>
      </trkpt>
      <trkpt lat="60.0146638" lon="17.4232121">
        <ele>41.474</ele>
        <time>2013-05-05T10:59:07Z</time>
      </trkpt>
      <trkpt lat="60.0147394" lon="17.4232848">
        <ele>41.474</ele>
        <time>2013-05-05T10:59:08Z</time>
      </trkpt>
      <trkpt lat="60.014814" lon="17.4233562">
        <ele>41.474</ele>
        <time>2013-05-05T10:59:09Z</time>
      </trkpt>
      <trkpt lat="60.0148892" lon="17.4234268">
        <ele>41.474</ele>
        <time>2013-05-05T10:59:10Z</time>
      </trkpt>
      <trkpt lat="60.0149642" lon="17.4234973">
        <ele>41.474</ele>
        <time>2013-05-05T10:59:11Z</time>
      </trkpt>
      <trkpt lat="60.0150383" lon="17.4235697">
        <ele>41.474</ele>
        <time>2013-05-05T10:59:12Z</time>
      </trkpt>
      <trkpt lat="60.0151122" lon="17.4236444">
        <ele>40.9934</ele>
        <time>2013-05-05T10:59:13Z</time>
      </trkpt>
      <trkpt lat="60.0151869" lon="17.4237213">
        <ele>40.9934</ele>
        <time>2013-05-05T10:59:14Z</time>
      </trkpt>
      <trkpt lat="60.0152626" lon="17.4237992">
        <ele>40.9934</ele>
        <time>2013-05-05T10:59:15Z</time>
      </trkpt>
      <trkpt lat="60.0153392" lon="17.4238755">
        <ele>40.5128</ele>
        <time>2013-05-05T10:59:16Z</time>
      </trkpt>
      <trkpt lat="60.0154172" lon="17.4239504">
        <ele>40.5128</ele>
        <time>2013-05-05T10:59:17Z</time>
      </trkpt>
      <trkpt lat="60.0154957" lon="17.4240252">
        <ele>40.5128</ele>
        <time>2013-05-05T10:59:18Z</time>
      </trkpt>
      <trkpt lat="60.0155745" lon="17.4241007">
        <ele>40.5128</ele>
        <time>2013-05-05T10:59:19Z</time>
      </trkpt>
      <trkpt lat="60.0156537" lon="17.4241772">
        <ele>40.5128</ele>
        <time>2013-05-05T10:59:20Z</time>
      </trkpt>
      <trkpt lat="60.015733" lon="17.424254">
        <ele>40.5128</ele>
        <time>2013-05-05T10:59:21Z</time>
      </trkpt>
      <trkpt lat="60.0158121" lon="17.4243296">
        <ele>40.5128</ele>
        <time>2013-05-05T10:59:22Z</time>
      </trkpt>
      <trkpt lat="60.0158897" lon="17.4244032">
        <ele>40.5128</ele>
        <time>2013-05-05T10:59:23Z</time>
      </trkpt>
      <trkpt lat="60.0159654" lon="17.4244748">
        <ele>40.5128</ele>
        <time>2013-05-05T10:59:24Z</time>
      </trkpt>
      <trkpt lat="60.0160394" lon="17.4245468">
        <ele>40.5128</ele>
        <time>2013-05-05T10:59:25Z</time>
      </trkpt>
      <trkpt lat="60.0161138" lon="17.4246203">
        <ele>40.0321</ele>
        <time>2013-05-05T10:59:26Z</time>
      </trkpt>
      <trkpt lat="60.0161903" lon="17.4246933">
        <ele>40.0321</ele>
        <time>2013-05-05T10:59:27Z</time>
      </trkpt>
      <trkpt lat="60.0162679" lon="17.4247678">
        <ele>40.0321</ele>
        <time>2013-05-05T10:59:28Z</time>
      </trkpt>
      <trkpt lat="60.0163468" lon="17.4248444">
        <ele>40.0321</ele>
        <time>2013-05-05T10:59:29Z</time>
      </trkpt>
      <trkpt lat="60.0164258" lon="17.4249211">
        <ele>40.0321</ele>
        <time>2013-05-05T10:59:30Z</time>
      </trkpt>
      <trkpt lat="60.0165037" lon="17.4249972">
        <ele>40.0321</ele>
        <time>2013-05-05T10:59:31Z</time>
      </trkpt>
      <trkpt lat="60.0165802" lon="17.4250713">
        <ele>40.0321</ele>
        <time>2013-05-05T10:59:32Z</time>
      </trkpt>
      <trkpt lat="60.0166551" lon="17.4251438">
        <ele>40.0321</ele>
        <time>2013-05-05T10:59:33Z</time>
      </trkpt>
      <trkpt lat="60.0167291" lon="17.4252163">
        <ele>40.0321</ele>
        <time>2013-05-05T10:59:34Z</time>
      </trkpt>
      <trkpt lat="60.016803" lon="17.4252886">
        <ele>40.0321</ele>
        <time>2013-05-05T10:59:35Z</time>
      </trkpt>
      <trkpt lat="60.0168772" lon="17.42536">
        <ele>40.0321</ele>
        <time>2013-05-05T10:59:36Z</time>
      </trkpt>
      <trkpt lat="60.0169514" lon="17.4254304">
        <ele>40.0321</ele>
        <time>2013-05-05T10:59:37Z</time>
      </trkpt>
      <trkpt lat="60.0170253" lon="17.4255023">
        <ele>40.0321</ele>
        <time>2013-05-05T10:59:38Z</time>
      </trkpt>
      <trkpt lat="60.0170995" lon="17.4255754">
        <ele>40.0321</ele>
        <time>2013-05-05T10:59:39Z</time>
      </trkpt>
      <trkpt lat="60.017174" lon="17.425648">
        <ele>40.0321</ele>
        <time>2013-05-05T10:59:40Z</time>
      </trkpt>
      <trkpt lat="60.0172485" lon="17.4257205">
        <ele>39.5513</ele>
        <time>2013-05-05T10:59:41Z</time>
      </trkpt>
      <trkpt lat="60.0173231" lon="17.4257918">
        <ele>39.5513</ele>
        <time>2013-05-05T10:59:42Z</time>
      </trkpt>
      <trkpt lat="60.0173977" lon="17.4258622">
        <ele>39.5513</ele>
        <time>2013-05-05T10:59:43Z</time>
      </trkpt>
      <trkpt lat="60.0174724" lon="17.4259335">
        <ele>39.5513</ele>
        <time>2013-05-05T10:59:44Z</time>
      </trkpt>
      <trkpt lat="60.0175463" lon="17.4260036">
        <ele>39.5513</ele>
        <time>2013-05-05T10:59:45Z</time>
      </trkpt>
      <trkpt lat="60.0176179" lon="17.4260707">
        <ele>39.5513</ele>
        <time>2013-05-05T10:59:46Z</time>
      </trkpt>
      <trkpt lat="60.0176878" lon="17.426137">
        <ele>39.5513</ele>
        <time>2013-05-05T10:59:47Z</time>
      </trkpt>
      <trkpt lat="60.0177573" lon="17.4262038">
        <ele>39.5513</ele>
        <time>2013-05-05T10:59:48Z</time>
      </trkpt>
      <trkpt lat="60.0178272" lon="17.426272">
        <ele>39.5513</ele>
        <time>2013-05-05T10:59:49Z</time>
      </trkpt>
      <trkpt lat="60.0178983" lon="17.426341">
        <ele>39.5513</ele>
        <time>2013-05-05T10:59:50Z</time>
      </trkpt>
      <trkpt lat="60.0179698" lon="17.4264101">
        <ele>39.5513</ele>
        <time>2013-05-05T10:59:51Z</time>
      </trkpt>
      <trkpt lat="60.0180416" lon="17.4264798">
        <ele>39.5513</ele>
        <time>2013-05-05T10:59:52Z</time>
      </trkpt>
      <trkpt lat="60.018114" lon="17.4265488">
        <ele>39.5513</ele>
        <time>2013-05-05T10:59:53Z</time>
      </trkpt>
      <trkpt lat="60.0181857" lon="17.4266163">
        <ele>39.5513</ele>
        <time>2013-05-05T10:59:54Z</time>
      </trkpt>
      <trkpt lat="60.0182554" lon="17.4266833">
        <ele>39.5513</ele>
        <time>2013-05-05T10:59:55Z</time>
      </trkpt>
      <trkpt lat="60.0183238" lon="17.4267492">
        <ele>39.5513</ele>
        <time>2013-05-05T10:59:56Z</time>
      </trkpt>
      <trkpt lat="60.0183918" lon="17.426815">
        <ele>39.5513</ele>
        <time>2013-05-05T10:59:57Z</time>
      </trkpt>
      <trkpt lat="60.0184596" lon="17.4268812">
        <ele>40.0321</ele>
        <time>2013-05-05T10:59:58Z</time>
      </trkpt>
      <trkpt lat="60.0185279" lon="17.4269477">
        <ele>40.0321</ele>
        <time>2013-05-05T10:59:59Z</time>
      </trkpt>
      <trkpt lat="60.0185966" lon="17.427015">
        <ele>40.0321</ele>
        <time>2013-05-05T11:00:00Z</time>
      </trkpt>
      <trkpt lat="60.0186659" lon="17.4270844">
        <ele>40.0321</ele>
        <time>2013-05-05T11:00:01Z</time>
      </trkpt>
      <trkpt lat="60.0187362" lon="17.4271532">
        <ele>40.0321</ele>
        <time>2013-05-05T11:00:02Z</time>
      </trkpt>
      <trkpt lat="60.0188072" lon="17.4272201">
        <ele>40.0321</ele>
        <time>2013-05-05T11:00:03Z</time>
      </trkpt>
      <trkpt lat="60.0188781" lon="17.4272894">
        <ele>40.0321</ele>
        <time>2013-05-05T11:00:04Z</time>
      </trkpt>
      <trkpt lat="60.018949" lon="17.4273582">
        <ele>40.0321</ele>
        <time>2013-05-05T11:00:05Z</time>
      </trkpt>
      <trkpt lat="60.01902" lon="17.4274252">
        <ele>40.0321</ele>
        <time>2013-05-05T11:00:06Z</time>
      </trkpt>
      <trkpt lat="60.0190912" lon="17.4274941">
        <ele>40.0321</ele>
        <time>2013-05-05T11:00:07Z</time>
      </trkpt>
      <trkpt lat="60.0191632" lon="17.4275646">
        <ele>40.0321</ele>
        <time>2013-05-05T11:00:08Z</time>
      </trkpt>
      <trkpt lat="60.0192361" lon="17.4276352">
        <ele>40.5128</ele>
        <time>2013-05-05T11:00:09Z</time>
      </trkpt>
      <trkpt lat="60.0193093" lon="17.4277081">
        <ele>40.5128</ele>
        <time>2013-05-05T11:00:10Z</time>
      </trkpt>
      <trkpt lat="60.0193829" lon="17.427781">
        <ele>40.5128</ele>
        <time>2013-05-05T11:00:11Z</time>
      </trkpt>
      <trkpt lat="60.0194562" lon="17.427852">
        <ele>40.5128</ele>
        <time>2013-05-05T11:00:12Z</time>
      </trkpt>
      <trkpt lat="60.0195287" lon="17.4279224">
        <ele>40.5128</ele>
        <time>2013-05-05T11:00:13Z</time>
      </trkpt>
      <trkpt lat="60.0196013" lon="17.4279929">
        <ele>40.5128</ele>
        <time>2013-05-05T11:00:14Z</time>
      </trkpt>
      <trkpt lat="60.019674" lon="17.4280622">
        <ele>40.5128</ele>
        <time>2013-05-05T11:00:15Z</time>
      </trkpt>
      <trkpt lat="60.019747" lon="17.4281288">
        <ele>40.5128</ele>
        <time>2013-05-05T11:00:16Z</time>
      </trkpt>
      <trkpt lat="60.0198205" lon="17.428193">
        <ele>40.5128</ele>
        <time>2013-05-05T11:00:17Z</time>
      </trkpt>
      <trkpt lat="60.0198955" lon="17.4282552">
        <ele>40.5128</ele>
        <time>2013-05-05T11:00:18Z</time>
      </trkpt>
      <trkpt lat="60.0199724" lon="17.4283157">
        <ele>40.5128</ele>
        <time>2013-05-05T11:00:19Z</time>
      </trkpt>
      <trkpt lat="60.0200489" lon="17.4283746">
        <ele>40.5128</ele>
        <time>2013-05-05T11:00:20Z</time>
      </trkpt>
      <trkpt lat="60.0201255" lon="17.4284303">
        <ele>40.9934</ele>
        <time>2013-05-05T11:00:21Z</time>
      </trkpt>
      <trkpt lat="60.0202023" lon="17.4284828">
        <ele>40.9934</ele>
        <time>2013-05-05T11:00:22Z</time>
      </trkpt>
      <trkpt lat="60.0202794" lon="17.4285317">
        <ele>40.9934</ele>
        <time>2013-05-05T11:00:23Z</time>
      </trkpt>
      <trkpt lat="60.0203567" lon="17.4285757">
        <ele>40.9934</ele>
        <time>2013-05-05T11:00:24Z</time>
      </trkpt>
      <trkpt lat="60.0204359" lon="17.4286177">
        <ele>40.9934</ele>
        <time>2013-05-05T11:00:25Z</time>
      </trkpt>
      <trkpt lat="60.0205165" lon="17.4286597">
        <ele>40.9934</ele>
        <time>2013-05-05T11:00:26Z</time>
      </trkpt>
      <trkpt lat="60.0205979" lon="17.428698">
        <ele>40.9934</ele>
        <time>2013-05-05T11:00:27Z</time>
      </trkpt>
      <trkpt lat="60.0206799" lon="17.4287311">
        <ele>40.9934</ele>
        <time>2013-05-05T11:00:28Z</time>
      </trkpt>
      <trkpt lat="60.0207631" lon="17.4287628">
        <ele>40.9934</ele>
        <time>2013-05-05T11:00:29Z</time>
      </trkpt>
      <trkpt lat="60.0208449" lon="17.4287924">
        <ele>40.5128</ele>
        <time>2013-05-05T11:00:30Z</time>
      </trkpt>
      <trkpt lat="60.0209259" lon="17.4288198">
        <ele>40.5128</ele>
        <time>2013-05-05T11:00:31Z</time>
      </trkpt>
      <trkpt lat="60.0210061" lon="17.4288451">
        <ele>40.5128</ele>
        <time>2013-05-05T11:00:32Z</time>
      </trkpt>
      <trkpt lat="60.021085" lon="17.4288672">
        <ele>40.5128</ele>
        <time>2013-05-05T11:00:33Z</time>
      </trkpt>
      <trkpt lat="60.0211606" lon="17.4288913">
        <ele>40.0321</ele>
        <time>2013-05-05T11:00:34Z</time>
      </trkpt>
      <trkpt lat="60.0212345" lon="17.4289167">
        <ele>39.5513</ele>
        <time>2013-05-05T11:00:35Z</time>
      </trkpt>
      <trkpt lat="60.0213114" lon="17.428941">
        <ele>39.0707</ele>
        <time>2013-05-05T11:00:36Z</time>
      </trkpt>
      <trkpt lat="60.0213907" lon="17.4289654">
        <ele>39.0707</ele>
        <time>2013-05-05T11:00:37Z</time>
      </trkpt>
      <trkpt lat="60.0214715" lon="17.4289874">
        <ele>39.0707</ele>
        <time>2013-05-05T11:00:38Z</time>
      </trkpt>
      <trkpt lat="60.0215522" lon="17.4290086">
        <ele>38.5901</ele>
        <time>2013-05-05T11:00:39Z</time>
      </trkpt>
      <trkpt lat="60.0216326" lon="17.4290275">
        <ele>38.5901</ele>
        <time>2013-05-05T11:00:40Z</time>
      </trkpt>
      <trkpt lat="60.0217128" lon="17.4290466">
        <ele>38.1094</ele>
        <time>2013-05-05T11:00:41Z</time>
      </trkpt>
      <trkpt lat="60.0217931" lon="17.4290674">
        <ele>38.1094</ele>
        <time>2013-05-05T11:00:42Z</time>
      </trkpt>
      <trkpt lat="60.0218734" lon="17.4290876">
        <ele>38.1094</ele>
        <time>2013-05-05T11:00:43Z</time>
      </trkpt>
      <trkpt lat="60.0219533" lon="17.4291057">
        <ele>38.1094</ele>
        <time>2013-05-05T11:00:44Z</time>
      </trkpt>
      <trkpt lat="60.0220354" lon="17.4291219">
        <ele>37.6287</ele>
        <time>2013-05-05T11:00:45Z</time>
      </trkpt>
      <trkpt lat="60.0221157" lon="17.4291397">
        <ele>37.6287</ele>
        <time>2013-05-05T11:00:46Z</time>
      </trkpt>
      <trkpt lat="60.0221949" lon="17.4291574">
        <ele>37.6287</ele>
        <time>2013-05-05T11:00:47Z</time>
      </trkpt>
      <trkpt lat="60.0222759" lon="17.4291761">
        <ele>38.1094</ele>
        <time>2013-05-05T11:00:48Z</time>
      </trkpt>
      <trkpt lat="60.0223587" lon="17.4291927">
        <ele>38.1094</ele>
        <time>2013-05-05T11:00:49Z</time>
      </trkpt>
      <trkpt lat="60.0224401" lon="17.4292092">
        <ele>38.1094</ele>
        <time>2013-05-05T11:00:50Z</time>
      </trkpt>
      <trkpt lat="60.0225208" lon="17.429228">
        <ele>38.1094</ele>
        <time>2013-05-05T11:00:51Z</time>
      </trkpt>
      <trkpt lat="60.0226016" lon="17.4292492">
        <ele>38.1094</ele>
        <time>2013-05-05T11:00:52Z</time>
      </trkpt>
      <trkpt lat="60.0226829" lon="17.4292702">
        <ele>38.5901</ele>
        <time>2013-05-05T11:00:53Z</time>
      </trkpt>
      <trkpt lat="60.0227635" lon="17.4292897">
        <ele>38.5901</ele>
        <time>2013-05-05T11:00:54Z</time>
      </trkpt>
      <trkpt lat="60.0228424" lon="17.4293094">
        <ele>38.1094</ele>
        <time>2013-05-05T11:00:55Z</time>
      </trkpt>
      <trkpt lat="60.0229203" lon="17.4293295">
        <ele>38.1094</ele>
        <time>2013-05-05T11:00:56Z</time>
      </trkpt>
      <trkpt lat="60.0229975" lon="17.429347">
        <ele>38.1094</ele>
        <time>2013-05-05T11:00:57Z</time>
      </trkpt>
      <trkpt lat="60.0230747" lon="17.4293637">
        <ele>38.1094</ele>
        <time>2013-05-05T11:00:58Z</time>
      </trkpt>
      <trkpt lat="60.0231514" lon="17.4293817">
        <ele>38.1094</ele>
        <time>2013-05-05T11:00:59Z</time>
      </trkpt>
      <trkpt lat="60.0232276" lon="17.4294008">
        <ele>38.1094</ele>
        <time>2013-05-05T11:01:00Z</time>
      </trkpt>
      <trkpt lat="60.0233029" lon="17.4294187">
        <ele>38.1094</ele>
        <time>2013-05-05T11:01:01Z</time>
      </trkpt>
      <trkpt lat="60.0233776" lon="17.4294358">
        <ele>38.1094</ele>
        <time>2013-05-05T11:01:02Z</time>
      </trkpt>
      <trkpt lat="60.0234528" lon="17.4294537">
        <ele>38.1094</ele>
        <time>2013-05-05T11:01:03Z</time>
      </trkpt>
      <trkpt lat="60.023529" lon="17.4294731">
        <ele>38.1094</ele>
        <time>2013-05-05T11:01:04Z</time>
      </trkpt>
      <trkpt lat="60.023606" lon="17.4294925">
        <ele>38.1094</ele>
        <time>2013-05-05T11:01:05Z</time>
      </trkpt>
      <trkpt lat="60.0236828" lon="17.4295112">
        <ele>38.1094</ele>
        <time>2013-05-05T11:01:06Z</time>
      </trkpt>
      <trkpt lat="60.0237595" lon="17.4295294">
        <ele>38.1094</ele>
        <time>2013-05-05T11:01:07Z</time>
      </trkpt>
      <trkpt lat="60.023837" lon="17.429549">
        <ele>38.1094</ele>
        <time>2013-05-05T11:01:08Z</time>
      </trkpt>
      <trkpt lat="60.0239139" lon="17.4295687">
        <ele>38.1094</ele>
        <time>2013-05-05T11:01:09Z</time>
      </trkpt>
      <trkpt lat="60.0239915" lon="17.429588">
        <ele>38.1094</ele>
        <time>2013-05-05T11:01:10Z</time>
      </trkpt>
      <trkpt lat="60.0240672" lon="17.4296076">
        <ele>37.6287</ele>
        <time>2013-05-05T11:01:11Z</time>
      </trkpt>
      <trkpt lat="60.0241419" lon="17.4296257">
        <ele>37.6287</ele>
        <time>2013-05-05T11:01:12Z</time>
      </trkpt>
      <trkpt lat="60.0242158" lon="17.4296382">
        <ele>37.6287</ele>
        <time>2013-05-05T11:01:13Z</time>
      </trkpt>
      <trkpt lat="60.0242894" lon="17.4296506">
        <ele>37.6287</ele>
        <time>2013-05-05T11:01:14Z</time>
      </trkpt>
      <trkpt lat="60.0243619" lon="17.4296693">
        <ele>37.6287</ele>
        <time>2013-05-05T11:01:15Z</time>
      </trkpt>
      <trkpt lat="60.024432" lon="17.4296908">
        <ele>37.6287</ele>
        <time>2013-05-05T11:01:16Z</time>
      </trkpt>
      <trkpt lat="60.0245016" lon="17.4297128">
        <ele>37.6287</ele>
        <time>2013-05-05T11:01:17Z</time>
      </trkpt>
      <trkpt lat="60.0245711" lon="17.4297346">
        <ele>37.6287</ele>
        <time>2013-05-05T11:01:18Z</time>
      </trkpt>
      <trkpt lat="60.024642" lon="17.4297537">
        <ele>37.6287</ele>
        <time>2013-05-05T11:01:19Z</time>
      </trkpt>
      <trkpt lat="60.0247137" lon="17.4297722">
        <ele>37.6287</ele>
        <time>2013-05-05T11:01:20Z</time>
      </trkpt>
      <trkpt lat="60.0247858" lon="17.4297889">
        <ele>37.6287</ele>
        <time>2013-05-05T11:01:21Z</time>
      </trkpt>
      <trkpt lat="60.024858" lon="17.4298067">
        <ele>37.6287</ele>
        <time>2013-05-05T11:01:22Z</time>
      </trkpt>
      <trkpt lat="60.0249305" lon="17.4298255">
        <ele>37.1481</ele>
        <time>2013-05-05T11:01:23Z</time>
      </trkpt>
      <trkpt lat="60.0250042" lon="17.4298462">
        <ele>37.1481</ele>
        <time>2013-05-05T11:01:24Z</time>
      </trkpt>
      <trkpt lat="60.0250778" lon="17.4298661">
        <ele>37.1481</ele>
        <time>2013-05-05T11:01:25Z</time>
      </trkpt>
      <trkpt lat="60.0251494" lon="17.4298851">
        <ele>37.1481</ele>
        <time>2013-05-05T11:01:26Z</time>
      </trkpt>
      <trkpt lat="60.0252196" lon="17.4299014">
        <ele>37.1481</ele>
        <time>2013-05-05T11:01:27Z</time>
      </trkpt>
      <trkpt lat="60.0252896" lon="17.4299188">
        <ele>37.1481</ele>
        <time>2013-05-05T11:01:28Z</time>
      </trkpt>
      <trkpt lat="60.025359" lon="17.4299361">
        <ele>37.1481</ele>
        <time>2013-05-05T11:01:29Z</time>
      </trkpt>
      <trkpt lat="60.0254285" lon="17.4299562">
        <ele>37.1481</ele>
        <time>2013-05-05T11:01:30Z</time>
      </trkpt>
      <trkpt lat="60.0254984" lon="17.4299728">
        <ele>37.1481</ele>
        <time>2013-05-05T11:01:31Z</time>
      </trkpt>
      <trkpt lat="60.0255684" lon="17.4299894">
        <ele>37.1481</ele>
        <time>2013-05-05T11:01:32Z</time>
      </trkpt>
      <trkpt lat="60.0256383" lon="17.4300065">
        <ele>37.1481</ele>
        <time>2013-05-05T11:01:33Z</time>
      </trkpt>
      <trkpt lat="60.0257094" lon="17.4300231">
        <ele>37.1481</ele>
        <time>2013-05-05T11:01:34Z</time>
      </trkpt>
      <trkpt lat="60.0257823" lon="17.4300402">
        <ele>37.1481</ele>
        <time>2013-05-05T11:01:35Z</time>
      </trkpt>
      <trkpt lat="60.0258558" lon="17.4300591">
        <ele>37.1481</ele>
        <time>2013-05-05T11:01:36Z</time>
      </trkpt>
      <trkpt lat="60.025929" lon="17.430078">
        <ele>37.1481</ele>
        <time>2013-05-05T11:01:37Z</time>
      </trkpt>
      <trkpt lat="60.0260033" lon="17.4300983">
        <ele>37.1481</ele>
        <time>2013-05-05T11:01:38Z</time>
      </trkpt>
      <trkpt lat="60.026079" lon="17.4301199">
        <ele>36.6675</ele>
        <time>2013-05-05T11:01:39Z</time>
      </trkpt>
      <trkpt lat="60.0261557" lon="17.4301415">
        <ele>36.6675</ele>
        <time>2013-05-05T11:01:40Z</time>
      </trkpt>
      <trkpt lat="60.0262322" lon="17.4301605">
        <ele>36.6675</ele>
        <time>2013-05-05T11:01:41Z</time>
      </trkpt>
      <trkpt lat="60.0263081" lon="17.430179">
        <ele>36.6675</ele>
        <time>2013-05-05T11:01:42Z</time>
      </trkpt>
      <trkpt lat="60.0263837" lon="17.4301991">
        <ele>36.6675</ele>
        <time>2013-05-05T11:01:43Z</time>
      </trkpt>
      <trkpt lat="60.0264583" lon="17.4302179">
        <ele>36.6675</ele>
        <time>2013-05-05T11:01:44Z</time>
      </trkpt>
      <trkpt lat="60.0265314" lon="17.4302355">
        <ele>36.6675</ele>
        <time>2013-05-05T11:01:45Z</time>
      </trkpt>
      <trkpt lat="60.0266037" lon="17.4302531">
        <ele>36.1868</ele>
        <time>2013-05-05T11:01:46Z</time>
      </trkpt>
      <trkpt lat="60.026676" lon="17.4302727">
        <ele>36.1868</ele>
        <time>2013-05-05T11:01:47Z</time>
      </trkpt>
      <trkpt lat="60.0267478" lon="17.4302936">
        <ele>36.1868</ele>
        <time>2013-05-05T11:01:48Z</time>
      </trkpt>
      <trkpt lat="60.0268187" lon="17.4303135">
        <ele>36.6675</ele>
        <time>2013-05-05T11:01:49Z</time>
      </trkpt>
      <trkpt lat="60.0268898" lon="17.4303317">
        <ele>36.6675</ele>
        <time>2013-05-05T11:01:50Z</time>
      </trkpt>
      <trkpt lat="60.0269618" lon="17.4303503">
        <ele>36.6675</ele>
        <time>2013-05-05T11:01:51Z</time>
      </trkpt>
      <trkpt lat="60.0270349" lon="17.4303691">
        <ele>36.6675</ele>
        <time>2013-05-05T11:01:52Z</time>
      </trkpt>
      <trkpt lat="60.0271084" lon="17.4303874">
        <ele>36.6675</ele>
        <time>2013-05-05T11:01:53Z</time>
      </trkpt>
      <trkpt lat="60.0271821" lon="17.4304071">
        <ele>36.6675</ele>
        <time>2013-05-05T11:01:54Z</time>
      </trkpt>
      <trkpt lat="60.0272567" lon="17.4304271">
        <ele>36.6675</ele>
        <time>2013-05-05T11:01:55Z</time>
      </trkpt>
      <trkpt lat="60.027332" lon="17.4304457">
        <ele>36.6675</ele>
        <time>2013-05-05T11:01:56Z</time>
      </trkpt>
      <trkpt lat="60.0274073" lon="17.4304629">
        <ele>36.6675</ele>
        <time>2013-05-05T11:01:57Z</time>
      </trkpt>
      <trkpt lat="60.0274817" lon="17.430481">
        <ele>36.6675</ele>
        <time>2013-05-05T11:01:58Z</time>
      </trkpt>
      <trkpt lat="60.0275549" lon="17.4305008">
        <ele>36.6675</ele>
        <time>2013-05-05T11:01:59Z</time>
      </trkpt>
      <trkpt lat="60.027628" lon="17.4305189">
        <ele>36.6675</ele>
        <time>2013-05-05T11:02:00Z</time>
      </trkpt>
      <trkpt lat="60.0277016" lon="17.430536">
        <ele>36.6675</ele>
        <time>2013-05-05T11:02:01Z</time>
      </trkpt>
      <trkpt lat="60.0277759" lon="17.4305556">
        <ele>36.6675</ele>
        <time>2013-05-05T11:02:02Z</time>
      </trkpt>
      <trkpt lat="60.0278508" lon="17.4305758">
        <ele>36.6675</ele>
        <time>2013-05-05T11:02:03Z</time>
      </trkpt>
      <trkpt lat="60.0279259" lon="17.4305948">
        <ele>36.6675</ele>
        <time>2013-05-05T11:02:04Z</time>
      </trkpt>
      <trkpt lat="60.0280002" lon="17.4306131">
        <ele>36.6675</ele>
        <time>2013-05-05T11:02:05Z</time>
      </trkpt>
      <trkpt lat="60.028074" lon="17.4306315">
        <ele>36.6675</ele>
        <time>2013-05-05T11:02:06Z</time>
      </trkpt>
      <trkpt lat="60.0281479" lon="17.4306497">
        <ele>36.6675</ele>
        <time>2013-05-05T11:02:07Z</time>
      </trkpt>
      <trkpt lat="60.0282221" lon="17.4306669">
        <ele>36.6675</ele>
        <time>2013-05-05T11:02:08Z</time>
      </trkpt>
      <trkpt lat="60.0282961" lon="17.4306842">
        <ele>36.6675</ele>
        <time>2013-05-05T11:02:09Z</time>
      </trkpt>
      <trkpt lat="60.0283693" lon="17.4307034">
        <ele>36.6675</ele>
        <time>2013-05-05T11:02:10Z</time>
      </trkpt>
      <trkpt lat="60.0284412" lon="17.4307235">
        <ele>36.1868</ele>
        <time>2013-05-05T11:02:11Z</time>
      </trkpt>
      <trkpt lat="60.0285113" lon="17.4307456">
        <ele>36.1868</ele>
        <time>2013-05-05T11:02:12Z</time>
      </trkpt>
      <trkpt lat="60.0285799" lon="17.4307782">
        <ele>36.1868</ele>
        <time>2013-05-05T11:02:13Z</time>
      </trkpt>
      <trkpt lat="60.0286453" lon="17.4308248">
        <ele>36.1868</ele>
        <time>2013-05-05T11:02:14Z</time>
      </trkpt>
      <trkpt lat="60.0287063" lon="17.4308872">
        <ele>36.1868</ele>
        <time>2013-05-05T11:02:15Z</time>
      </trkpt>
      <trkpt lat="60.0287635" lon="17.4309667">
        <ele>36.1868</ele>
        <time>2013-05-05T11:02:16Z</time>
      </trkpt>
      <trkpt lat="60.0288147" lon="17.4310622">
        <ele>36.1868</ele>
        <time>2013-05-05T11:02:17Z</time>
      </trkpt>
      <trkpt lat="60.0288572" lon="17.4311767">
        <ele>36.1868</ele>
        <time>2013-05-05T11:02:18Z</time>
      </trkpt>
      <trkpt lat="60.0288907" lon="17.4313047">
        <ele>36.1868</ele>
        <time>2013-05-05T11:02:19Z</time>
      </trkpt>
      <trkpt lat="60.0289177" lon="17.4314403">
        <ele>36.1868</ele>
        <time>2013-05-05T11:02:20Z</time>
      </trkpt>
      <trkpt lat="60.0289416" lon="17.4315808">
        <ele>36.1868</ele>
        <time>2013-05-05T11:02:21Z</time>
      </trkpt>
      <trkpt lat="60.0289634" lon="17.4317246">
        <ele>36.1868</ele>
        <time>2013-05-05T11:02:22Z</time>
      </trkpt>
      <trkpt lat="60.0289834" lon="17.4318698">
        <ele>36.1868</ele>
        <time>2013-05-05T11:02:23Z</time>
      </trkpt>
      <trkpt lat="60.0290034" lon="17.4320164">
        <ele>36.1868</ele>
        <time>2013-05-05T11:02:24Z</time>
      </trkpt>
      <trkpt lat="60.0290243" lon="17.4321656">
        <ele>36.1868</ele>
        <time>2013-05-05T11:02:25Z</time>
      </trkpt>
      <trkpt lat="60.0290457" lon="17.4323166">
        <ele>36.1868</ele>
        <time>2013-05-05T11:02:26Z</time>
      </trkpt>
      <trkpt lat="60.0290675" lon="17.4324674">
        <ele>36.1868</ele>
        <time>2013-05-05T11:02:27Z</time>
      </trkpt>
      <trkpt lat="60.0290892" lon="17.4326163">
        <ele>36.1868</ele>
        <time>2013-05-05T11:02:28Z</time>
      </trkpt>
      <trkpt lat="60.0291105" lon="17.4327629">
        <ele>36.1868</ele>
        <time>2013-05-05T11:02:29Z</time>
      </trkpt>
      <trkpt lat="60.0291326" lon="17.4329067">
        <ele>36.1868</ele>
        <time>2013-05-05T11:02:30Z</time>
      </trkpt>
      <trkpt lat="60.029155" lon="17.4330488">
        <ele>36.1868</ele>
        <time>2013-05-05T11:02:31Z</time>
      </trkpt>
      <trkpt lat="60.0291758" lon="17.4331912">
        <ele>36.1868</ele>
        <time>2013-05-05T11:02:32Z</time>
      </trkpt>
      <trkpt lat="60.0291953" lon="17.433334">
        <ele>36.1868</ele>
        <time>2013-05-05T11:02:33Z</time>
      </trkpt>
      <trkpt lat="60.0292142" lon="17.4334798">
        <ele>36.1868</ele>
        <time>2013-05-05T11:02:34Z</time>
      </trkpt>
      <trkpt lat="60.0292343" lon="17.4336289">
        <ele>36.1868</ele>
        <time>2013-05-05T11:02:35Z</time>
      </trkpt>
      <trkpt lat="60.0292556" lon="17.4337802">
        <ele>36.1868</ele>
        <time>2013-05-05T11:02:36Z</time>
      </trkpt>
      <trkpt lat="60.0292773" lon="17.4339356">
        <ele>36.1868</ele>
        <time>2013-05-05T11:02:37Z</time>
      </trkpt>
      <trkpt lat="60.0293006" lon="17.4340963">
        <ele>36.1868</ele>
        <time>2013-05-05T11:02:38Z</time>
      </trkpt>
      <trkpt lat="60.029326" lon="17.4342629">
        <ele>36.1868</ele>
        <time>2013-05-05T11:02:39Z</time>
      </trkpt>
      <trkpt lat="60.0293517" lon="17.4344324">
        <ele>36.1868</ele>
        <time>2013-05-05T11:02:40Z</time>
      </trkpt>
      <trkpt lat="60.0293773" lon="17.4346019">
        <ele>36.1868</ele>
        <time>2013-05-05T11:02:41Z</time>
      </trkpt>
      <trkpt lat="60.0294021" lon="17.4347722">
        <ele>36.1868</ele>
        <time>2013-05-05T11:02:42Z</time>
      </trkpt>
      <trkpt lat="60.0294265" lon="17.4349429">
        <ele>36.1868</ele>
        <time>2013-05-05T11:02:43Z</time>
      </trkpt>
      <trkpt lat="60.0294519" lon="17.435113">
        <ele>36.1868</ele>
        <time>2013-05-05T11:02:44Z</time>
      </trkpt>
      <trkpt lat="60.0294782" lon="17.4352835">
        <ele>36.1868</ele>
        <time>2013-05-05T11:02:45Z</time>
      </trkpt>
      <trkpt lat="60.0295033" lon="17.4354539">
        <ele>36.1868</ele>
        <time>2013-05-05T11:02:46Z</time>
      </trkpt>
      <trkpt lat="60.029528" lon="17.4356229">
        <ele>36.1868</ele>
        <time>2013-05-05T11:02:47Z</time>
      </trkpt>
      <trkpt lat="60.0295532" lon="17.4357918">
        <ele>36.1868</ele>
        <time>2013-05-05T11:02:48Z</time>
      </trkpt>
      <trkpt lat="60.0295786" lon="17.4359611">
        <ele>36.1868</ele>
        <time>2013-05-05T11:02:49Z</time>
      </trkpt>
      <trkpt lat="60.0296037" lon="17.4361305">
        <ele>36.1868</ele>
        <time>2013-05-05T11:02:50Z</time>
      </trkpt>
      <trkpt lat="60.0296284" lon="17.4362998">
        <ele>36.1868</ele>
        <time>2013-05-05T11:02:51Z</time>
      </trkpt>
      <trkpt lat="60.0296532" lon="17.4364674">
        <ele>36.1868</ele>
        <time>2013-05-05T11:02:52Z</time>
      </trkpt>
      <trkpt lat="60.0296779" lon="17.4366333">
        <ele>36.1868</ele>
        <time>2013-05-05T11:02:53Z</time>
      </trkpt>
      <trkpt lat="60.0297031" lon="17.4367988">
        <ele>36.1868</ele>
        <time>2013-05-05T11:02:54Z</time>
      </trkpt>
      <trkpt lat="60.0297284" lon="17.4369664">
        <ele>36.1868</ele>
        <time>2013-05-05T11:02:55Z</time>
      </trkpt>
      <trkpt lat="60.029754" lon="17.4371355">
        <ele>36.1868</ele>
        <time>2013-05-05T11:02:56Z</time>
      </trkpt>
      <trkpt lat="60.0297798" lon="17.4373041">
        <ele>36.1868</ele>
        <time>2013-05-05T11:02:57Z</time>
      </trkpt>
      <trkpt lat="60.029805" lon="17.4374708">
        <ele>36.1868</ele>
        <time>2013-05-05T11:02:58Z</time>
      </trkpt>
      <trkpt lat="60.0298307" lon="17.4376347">
        <ele>36.1868</ele>
        <time>2013-05-05T11:02:59Z</time>
      </trkpt>
      <trkpt lat="60.029857" lon="17.4377979">
        <ele>36.1868</ele>
        <time>2013-05-05T11:03:00Z</time>
      </trkpt>
      <trkpt lat="60.0298808" lon="17.4379636">
        <ele>36.1868</ele>
        <time>2013-05-05T11:03:01Z</time>
      </trkpt>
      <trkpt lat="60.0299034" lon="17.438132">
        <ele>35.7061</ele>
        <time>2013-05-05T11:03:02Z</time>
      </trkpt>
      <trkpt lat="60.0299272" lon="17.4383022">
        <ele>35.7061</ele>
        <time>2013-05-05T11:03:03Z</time>
      </trkpt>
      <trkpt lat="60.0299529" lon="17.4384737">
        <ele>35.7061</ele>
        <time>2013-05-05T11:03:04Z</time>
      </trkpt>
      <trkpt lat="60.0299795" lon="17.4386452">
        <ele>35.7061</ele>
        <time>2013-05-05T11:03:05Z</time>
      </trkpt>
      <trkpt lat="60.030005" lon="17.4388161">
        <ele>35.7061</ele>
        <time>2013-05-05T11:03:06Z</time>
      </trkpt>
      <trkpt lat="60.0300299" lon="17.4389865">
        <ele>35.2255</ele>
        <time>2013-05-05T11:03:07Z</time>
      </trkpt>
      <trkpt lat="60.0300555" lon="17.4391575">
        <ele>35.2255</ele>
        <time>2013-05-05T11:03:08Z</time>
      </trkpt>
      <trkpt lat="60.0300812" lon="17.4393296">
        <ele>35.2255</ele>
        <time>2013-05-05T11:03:09Z</time>
      </trkpt>
      <trkpt lat="60.030106" lon="17.4395037">
        <ele>35.2255</ele>
        <time>2013-05-05T11:03:10Z</time>
      </trkpt>
      <trkpt lat="60.0301314" lon="17.4396798">
        <ele>35.2255</ele>
        <time>2013-05-05T11:03:11Z</time>
      </trkpt>
      <trkpt lat="60.0301577" lon="17.4398576">
        <ele>34.7449</ele>
        <time>2013-05-05T11:03:12Z</time>
      </trkpt>
      <trkpt lat="60.0301841" lon="17.4400386">
        <ele>34.7449</ele>
        <time>2013-05-05T11:03:13Z</time>
      </trkpt>
      <trkpt lat="60.0302103" lon="17.4402226">
        <ele>34.7449</ele>
        <time>2013-05-05T11:03:14Z</time>
      </trkpt>
      <trkpt lat="60.0302378" lon="17.4404092">
        <ele>34.7449</ele>
        <time>2013-05-05T11:03:15Z</time>
      </trkpt>
      <trkpt lat="60.0302658" lon="17.4405975">
        <ele>34.7449</ele>
        <time>2013-05-05T11:03:16Z</time>
      </trkpt>
      <trkpt lat="60.030294" lon="17.4407866">
        <ele>34.7449</ele>
        <time>2013-05-05T11:03:17Z</time>
      </trkpt>
      <trkpt lat="60.0303217" lon="17.4409759">
        <ele>34.2642</ele>
        <time>2013-05-05T11:03:18Z</time>
      </trkpt>
      <trkpt lat="60.0303494" lon="17.4411668">
        <ele>34.2642</ele>
        <time>2013-05-05T11:03:19Z</time>
      </trkpt>
      <trkpt lat="60.0303774" lon="17.4413573">
        <ele>34.2642</ele>
        <time>2013-05-05T11:03:20Z</time>
      </trkpt>
      <trkpt lat="60.0304045" lon="17.4415432">
        <ele>34.2642</ele>
        <time>2013-05-05T11:03:21Z</time>
      </trkpt>
      <trkpt lat="60.0304309" lon="17.4417245">
        <ele>34.2642</ele>
        <time>2013-05-05T11:03:22Z</time>
      </trkpt>
      <trkpt lat="60.0304564" lon="17.4419034">
        <ele>34.2642</ele>
        <time>2013-05-05T11:03:23Z</time>
      </trkpt>
      <trkpt lat="60.0304823" lon="17.4420777">
        <ele>34.7449</ele>
        <time>2013-05-05T11:03:24Z</time>
      </trkpt>
      <trkpt lat="60.0305082" lon="17.4422486">
        <ele>34.7449</ele>
        <time>2013-05-05T11:03:25Z</time>
      </trkpt>
      <trkpt lat="60.0305335" lon="17.4424194">
        <ele>34.7449</ele>
        <time>2013-05-05T11:03:26Z</time>
      </trkpt>
      <trkpt lat="60.0305597" lon="17.4425926">
        <ele>34.7449</ele>
        <time>2013-05-05T11:03:27Z</time>
      </trkpt>
      <trkpt lat="60.0305868" lon="17.4427678">
        <ele>34.7449</ele>
        <time>2013-05-05T11:03:28Z</time>
      </trkpt>
      <trkpt lat="60.0306133" lon="17.4429438">
        <ele>34.7449</ele>
        <time>2013-05-05T11:03:29Z</time>
      </trkpt>
      <trkpt lat="60.0306393" lon="17.4431213">
        <ele>34.7449</ele>
        <time>2013-05-05T11:03:30Z</time>
      </trkpt>
      <trkpt lat="60.0306651" lon="17.4433002">
        <ele>34.7449</ele>
        <time>2013-05-05T11:03:31Z</time>
      </trkpt>
      <trkpt lat="60.0306911" lon="17.443478">
        <ele>34.7449</ele>
        <time>2013-05-05T11:03:32Z</time>
      </trkpt>
      <trkpt lat="60.0307174" lon="17.4436514">
        <ele>35.2255</ele>
        <time>2013-05-05T11:03:33Z</time>
      </trkpt>
      <trkpt lat="60.0307434" lon="17.4438204">
        <ele>35.2255</ele>
        <time>2013-05-05T11:03:34Z</time>
      </trkpt>
      <trkpt lat="60.0307692" lon="17.4439861">
        <ele>35.2255</ele>
        <time>2013-05-05T11:03:35Z</time>
      </trkpt>
      <trkpt lat="60.0307952" lon="17.4441482">
        <ele>35.2255</ele>
        <time>2013-05-05T11:03:36Z</time>
      </trkpt>
      <trkpt lat="60.0308189" lon="17.4443082">
        <ele>35.7061</ele>
        <time>2013-05-05T11:03:37Z</time>
      </trkpt>
      <trkpt lat="60.0308402" lon="17.4444673">
        <ele>35.7061</ele>
        <time>2013-05-05T11:03:38Z</time>
      </trkpt>
      <trkpt lat="60.0308622" lon="17.4446261">
        <ele>35.7061</ele>
        <time>2013-05-05T11:03:39Z</time>
      </trkpt>
      <trkpt lat="60.0308852" lon="17.4447825">
        <ele>36.1868</ele>
        <time>2013-05-05T11:03:40Z</time>
      </trkpt>
      <trkpt lat="60.0309085" lon="17.4449335">
        <ele>36.1868</ele>
        <time>2013-05-05T11:03:41Z</time>
      </trkpt>
      <trkpt lat="60.0309317" lon="17.445077">
        <ele>36.6675</ele>
        <time>2013-05-05T11:03:42Z</time>
      </trkpt>
      <trkpt lat="60.0309545" lon="17.4452125">
        <ele>36.6675</ele>
        <time>2013-05-05T11:03:43Z</time>
      </trkpt>
      <trkpt lat="60.0309753" lon="17.4453416">
        <ele>36.6675</ele>
        <time>2013-05-05T11:03:44Z</time>
      </trkpt>
      <trkpt lat="60.0309945" lon="17.4454682">
        <ele>36.6675</ele>
        <time>2013-05-05T11:03:45Z</time>
      </trkpt>
      <trkpt lat="60.0310128" lon="17.4455959">
        <ele>37.1481</ele>
        <time>2013-05-05T11:03:46Z</time>
      </trkpt>
      <trkpt lat="60.0310316" lon="17.4457229">
        <ele>37.1481</ele>
        <time>2013-05-05T11:03:47Z</time>
      </trkpt>
      <trkpt lat="60.0310505" lon="17.4458469">
        <ele>37.1481</ele>
        <time>2013-05-05T11:03:48Z</time>
      </trkpt>
      <trkpt lat="60.0310691" lon="17.4459667">
        <ele>37.1481</ele>
        <time>2013-05-05T11:03:49Z</time>
      </trkpt>
      <trkpt lat="60.0310877" lon="17.4460843">
        <ele>37.6287</ele>
        <time>2013-05-05T11:03:50Z</time>
      </trkpt>
      <trkpt lat="60.0311064" lon="17.4462066">
        <ele>37.6287</ele>
        <time>2013-05-05T11:03:51Z</time>
      </trkpt>
      <trkpt lat="60.031125" lon="17.4463346">
        <ele>37.6287</ele>
        <time>2013-05-05T11:03:52Z</time>
      </trkpt>
      <trkpt lat="60.0311432" lon="17.4464674">
        <ele>37.6287</ele>
        <time>2013-05-05T11:03:53Z</time>
      </trkpt>
      <trkpt lat="60.0311587" lon="17.4466039">
        <ele>38.1094</ele>
        <time>2013-05-05T11:03:54Z</time>
      </trkpt>
      <trkpt lat="60.0311727" lon="17.4467415">
        <ele>38.1094</ele>
        <time>2013-05-05T11:03:55Z</time>
      </trkpt>
      <trkpt lat="60.0311897" lon="17.4468821">
        <ele>38.5901</ele>
        <time>2013-05-05T11:03:56Z</time>
      </trkpt>
      <trkpt lat="60.0312074" lon="17.4470257">
        <ele>38.5901</ele>
        <time>2013-05-05T11:03:57Z</time>
      </trkpt>
      <trkpt lat="60.0312254" lon="17.4471716">
        <ele>38.5901</ele>
        <time>2013-05-05T11:03:58Z</time>
      </trkpt>
      <trkpt lat="60.0312448" lon="17.4473175">
        <ele>39.0707</ele>
        <time>2013-05-05T11:03:59Z</time>
      </trkpt>
      <trkpt lat="60.031266" lon="17.4474655">
        <ele>39.0707</ele>
        <time>2013-05-05T11:04:00Z</time>
      </trkpt>
      <trkpt lat="60.0312883" lon="17.4476147">
        <ele>39.0707</ele>
        <time>2013-05-05T11:04:01Z</time>
      </trkpt>
      <trkpt lat="60.0313142" lon="17.4477624">
        <ele>39.0707</ele>
        <time>2013-05-05T11:04:02Z</time>
      </trkpt>
      <trkpt lat="60.03134" lon="17.4479139">
        <ele>39.0707</ele>
        <time>2013-05-05T11:04:03Z</time>
      </trkpt>
      <trkpt lat="60.0313631" lon="17.4480716">
        <ele>39.5513</ele>
        <time>2013-05-05T11:04:04Z</time>
      </trkpt>
      <trkpt lat="60.0313862" lon="17.448233">
        <ele>39.5513</ele>
        <time>2013-05-05T11:04:05Z</time>
      </trkpt>
      <trkpt lat="60.0314094" lon="17.4483994">
        <ele>39.5513</ele>
        <time>2013-05-05T11:04:06Z</time>
      </trkpt>
      <trkpt lat="60.0314333" lon="17.448572">
        <ele>40.0321</ele>
        <time>2013-05-05T11:04:07Z</time>
      </trkpt>
      <trkpt lat="60.0314587" lon="17.4487505">
        <ele>40.0321</ele>
        <time>2013-05-05T11:04:08Z</time>
      </trkpt>
      <trkpt lat="60.0314851" lon="17.4489347">
        <ele>39.5513</ele>
        <time>2013-05-05T11:04:09Z</time>
      </trkpt>
      <trkpt lat="60.0315126" lon="17.4491243">
        <ele>39.5513</ele>
        <time>2013-05-05T11:04:10Z</time>
      </trkpt>
      <trkpt lat="60.0315408" lon="17.4493183">
        <ele>40.0321</ele>
        <time>2013-05-05T11:04:11Z</time>
      </trkpt>
      <trkpt lat="60.031569" lon="17.4495158">
        <ele>39.5513</ele>
        <time>2013-05-05T11:04:12Z</time>
      </trkpt>
      <trkpt lat="60.0315971" lon="17.4497167">
        <ele>40.0321</ele>
        <time>2013-05-05T11:04:13Z</time>
      </trkpt>
      <trkpt lat="60.031626" lon="17.4499203">
        <ele>39.5513</ele>
        <time>2013-05-05T11:04:14Z</time>
      </trkpt>
      <trkpt lat="60.0316571" lon="17.4501255">
        <ele>40.0321</ele>
        <time>2013-05-05T11:04:15Z</time>
      </trkpt>
      <trkpt lat="60.0316884" lon="17.4503307">
        <ele>40.0321</ele>
        <time>2013-05-05T11:04:16Z</time>
      </trkpt>
      <trkpt lat="60.0317197" lon="17.4505372">
        <ele>40.0321</ele>
        <time>2013-05-05T11:04:17Z</time>
      </trkpt>
      <trkpt lat="60.0317513" lon="17.4507445">
        <ele>40.0321</ele>
        <time>2013-05-05T11:04:18Z</time>
      </trkpt>
      <trkpt lat="60.0317824" lon="17.4509533">
        <ele>40.0321</ele>
        <time>2013-05-05T11:04:19Z</time>
      </trkpt>
      <trkpt lat="60.0318135" lon="17.4511631">
        <ele>40.0321</ele>
        <time>2013-05-05T11:04:20Z</time>
      </trkpt>
      <trkpt lat="60.0318446" lon="17.451372">
        <ele>40.0321</ele>
        <time>2013-05-05T11:04:21Z</time>
      </trkpt>
      <trkpt lat="60.0318746" lon="17.4515812">
        <ele>40.0321</ele>
        <time>2013-05-05T11:04:22Z</time>
      </trkpt>
      <trkpt lat="60.0319022" lon="17.4517912">
        <ele>40.0321</ele>
        <time>2013-05-05T11:04:23Z</time>
      </trkpt>
      <trkpt lat="60.0319259" lon="17.4520008">
        <ele>40.0321</ele>
        <time>2013-05-05T11:04:24Z</time>
      </trkpt>
      <trkpt lat="60.0319426" lon="17.4522108">
        <ele>40.0321</ele>
        <time>2013-05-05T11:04:25Z</time>
      </trkpt>
      <trkpt lat="60.0319509" lon="17.4524218">
        <ele>40.0321</ele>
        <time>2013-05-05T11:04:26Z</time>
      </trkpt>
      <trkpt lat="60.0319513" lon="17.4526322">
        <ele>40.0321</ele>
        <time>2013-05-05T11:04:27Z</time>
      </trkpt>
      <trkpt lat="60.0319449" lon="17.4528408">
        <ele>40.0321</ele>
        <time>2013-05-05T11:04:28Z</time>
      </trkpt>
      <trkpt lat="60.0319325" lon="17.4530469">
        <ele>40.5128</ele>
        <time>2013-05-05T11:04:29Z</time>
      </trkpt>
      <trkpt lat="60.0319151" lon="17.4532495">
        <ele>40.5128</ele>
        <time>2013-05-05T11:04:30Z</time>
      </trkpt>
      <trkpt lat="60.0318952" lon="17.453446">
        <ele>40.9934</ele>
        <time>2013-05-05T11:04:31Z</time>
      </trkpt>
      <trkpt lat="60.031874" lon="17.4536371">
        <ele>40.9934</ele>
        <time>2013-05-05T11:04:32Z</time>
      </trkpt>
      <trkpt lat="60.0318521" lon="17.4538231">
        <ele>41.474</ele>
        <time>2013-05-05T11:04:33Z</time>
      </trkpt>
      <trkpt lat="60.0318317" lon="17.4540063">
        <ele>41.474</ele>
        <time>2013-05-05T11:04:34Z</time>
      </trkpt>
      <trkpt lat="60.0318131" lon="17.4541881">
        <ele>41.474</ele>
        <time>2013-05-05T11:04:35Z</time>
      </trkpt>
      <trkpt lat="60.0317937" lon="17.454369">
        <ele>41.9547</ele>
        <time>2013-05-05T11:04:36Z</time>
      </trkpt>
      <trkpt lat="60.0317726" lon="17.4545479">
        <ele>41.9547</ele>
        <time>2013-05-05T11:04:37Z</time>
      </trkpt>
      <trkpt lat="60.0317516" lon="17.4547232">
        <ele>41.9547</ele>
        <time>2013-05-05T11:04:38Z</time>
      </trkpt>
      <trkpt lat="60.0317314" lon="17.4548938">
        <ele>42.4354</ele>
        <time>2013-05-05T11:04:39Z</time>
      </trkpt>
      <trkpt lat="60.0317113" lon="17.4550606">
        <ele>42.916</ele>
        <time>2013-05-05T11:04:40Z</time>
      </trkpt>
      <trkpt lat="60.0316917" lon="17.4552248">
        <ele>42.916</ele>
        <time>2013-05-05T11:04:41Z</time>
      </trkpt>
      <trkpt lat="60.0316742" lon="17.4553849">
        <ele>43.3966</ele>
        <time>2013-05-05T11:04:42Z</time>
      </trkpt>
      <trkpt lat="60.031662" lon="17.4555391">
        <ele>43.3966</ele>
        <time>2013-05-05T11:04:43Z</time>
      </trkpt>
      <trkpt lat="60.031651" lon="17.4556977">
        <ele>43.8773</ele>
        <time>2013-05-05T11:04:44Z</time>
      </trkpt>
      <trkpt lat="60.031645" lon="17.4558636">
        <ele>43.8773</ele>
        <time>2013-05-05T11:04:45Z</time>
      </trkpt>
      <trkpt lat="60.0316496" lon="17.4560325">
        <ele>44.358</ele>
        <time>2013-05-05T11:04:46Z</time>
      </trkpt>
      <trkpt lat="60.0316621" lon="17.4562022">
        <ele>44.358</ele>
        <time>2013-05-05T11:04:47Z</time>
      </trkpt>
      <trkpt lat="60.0316815" lon="17.4563701">
        <ele>44.8386</ele>
        <time>2013-05-05T11:04:48Z</time>
      </trkpt>
      <trkpt lat="60.0317077" lon="17.4565343">
        <ele>44.8386</ele>
        <time>2013-05-05T11:04:49Z</time>
      </trkpt>
      <trkpt lat="60.0317373" lon="17.456697">
        <ele>44.8386</ele>
        <time>2013-05-05T11:04:50Z</time>
      </trkpt>
      <trkpt lat="60.0317695" lon="17.456858">
        <ele>44.8386</ele>
        <time>2013-05-05T11:04:51Z</time>
      </trkpt>
      <trkpt lat="60.031803" lon="17.4570165">
        <ele>45.3192</ele>
        <time>2013-05-05T11:04:52Z</time>
      </trkpt>
      <trkpt lat="60.0318367" lon="17.4571751">
        <ele>45.3192</ele>
        <time>2013-05-05T11:04:53Z</time>
      </trkpt>
      <trkpt lat="60.0318708" lon="17.4573361">
        <ele>45.3192</ele>
        <time>2013-05-05T11:04:54Z</time>
      </trkpt>
      <trkpt lat="60.0319055" lon="17.4574985">
        <ele>44.8386</ele>
        <time>2013-05-05T11:04:55Z</time>
      </trkpt>
      <trkpt lat="60.0319405" lon="17.4576616">
        <ele>44.8386</ele>
        <time>2013-05-05T11:04:56Z</time>
      </trkpt>
      <trkpt lat="60.0319736" lon="17.4578242">
        <ele>44.358</ele>
        <time>2013-05-05T11:04:57Z</time>
      </trkpt>
      <trkpt lat="60.032006" lon="17.4579878">
        <ele>44.358</ele>
        <time>2013-05-05T11:04:58Z</time>
      </trkpt>
      <trkpt lat="60.0320364" lon="17.4581509">
        <ele>43.8773</ele>
        <time>2013-05-05T11:04:59Z</time>
      </trkpt>
      <trkpt lat="60.0320617" lon="17.4583156">
        <ele>43.3966</ele>
        <time>2013-05-05T11:05:00Z</time>
      </trkpt>
      <trkpt lat="60.0320816" lon="17.4584893">
        <ele>43.3966</ele>
        <time>2013-05-05T11:05:01Z</time>
      </trkpt>
      <trkpt lat="60.0320953" lon="17.4586696">
        <ele>42.916</ele>
        <time>2013-05-05T11:05:02Z</time>
      </trkpt>
      <trkpt lat="60.0321037" lon="17.458853">
        <ele>42.4354</ele>
        <time>2013-05-05T11:05:03Z</time>
      </trkpt>
      <trkpt lat="60.0321062" lon="17.4590357">
        <ele>41.9547</ele>
        <time>2013-05-05T11:05:04Z</time>
      </trkpt>
      <trkpt lat="60.0321071" lon="17.4592157">
        <ele>41.474</ele>
        <time>2013-05-05T11:05:05Z</time>
      </trkpt>
      <trkpt lat="60.0321075" lon="17.4593935">
        <ele>41.474</ele>
        <time>2013-05-05T11:05:06Z</time>
      </trkpt>
      <trkpt lat="60.0321072" lon="17.4595698">
        <ele>41.474</ele>
        <time>2013-05-05T11:05:07Z</time>
      </trkpt>
      <trkpt lat="60.0321067" lon="17.459745">
        <ele>41.474</ele>
        <time>2013-05-05T11:05:08Z</time>
      </trkpt>
      <trkpt lat="60.0321057" lon="17.4599206">
        <ele>40.9934</ele>
        <time>2013-05-05T11:05:09Z</time>
      </trkpt>
      <trkpt lat="60.0321042" lon="17.4600971">
        <ele>41.474</ele>
        <time>2013-05-05T11:05:10Z</time>
      </trkpt>
      <trkpt lat="60.0321032" lon="17.4602733">
        <ele>41.474</ele>
        <time>2013-05-05T11:05:11Z</time>
      </trkpt>
      <trkpt lat="60.0321025" lon="17.4604499">
        <ele>41.474</ele>
        <time>2013-05-05T11:05:12Z</time>
      </trkpt>
      <trkpt lat="60.0321025" lon="17.4606245">
        <ele>40.9934</ele>
        <time>2013-05-05T11:05:13Z</time>
      </trkpt>
      <trkpt lat="60.0321054" lon="17.4607961">
        <ele>40.9934</ele>
        <time>2013-05-05T11:05:14Z</time>
      </trkpt>
      <trkpt lat="60.0321122" lon="17.4609665">
        <ele>40.9934</ele>
        <time>2013-05-05T11:05:15Z</time>
      </trkpt>
      <trkpt lat="60.0321243" lon="17.4611385">
        <ele>40.9934</ele>
        <time>2013-05-05T11:05:16Z</time>
      </trkpt>
      <trkpt lat="60.0321467" lon="17.461311">
        <ele>40.9934</ele>
        <time>2013-05-05T11:05:17Z</time>
      </trkpt>
      <trkpt lat="60.0321806" lon="17.4614803">
        <ele>41.474</ele>
        <time>2013-05-05T11:05:18Z</time>
      </trkpt>
      <trkpt lat="60.0322222" lon="17.4616449">
        <ele>41.474</ele>
        <time>2013-05-05T11:05:19Z</time>
      </trkpt>
      <trkpt lat="60.0322679" lon="17.4618062">
        <ele>41.474</ele>
        <time>2013-05-05T11:05:20Z</time>
      </trkpt>
      <trkpt lat="60.0323147" lon="17.4619642">
        <ele>41.474</ele>
        <time>2013-05-05T11:05:21Z</time>
      </trkpt>
      <trkpt lat="60.0323621" lon="17.4621193">
        <ele>41.474</ele>
        <time>2013-05-05T11:05:22Z</time>
      </trkpt>
      <trkpt lat="60.0324078" lon="17.4622744">
        <ele>41.474</ele>
        <time>2013-05-05T11:05:23Z</time>
      </trkpt>
      <trkpt lat="60.0324522" lon="17.4624297">
        <ele>41.474</ele>
        <time>2013-05-05T11:05:24Z</time>
      </trkpt>
      <trkpt lat="60.0324951" lon="17.4625841">
        <ele>41.9547</ele>
        <time>2013-05-05T11:05:25Z</time>
      </trkpt>
      <trkpt lat="60.0325361" lon="17.462741">
        <ele>41.9547</ele>
        <time>2013-05-05T11:05:26Z</time>
      </trkpt>
      <trkpt lat="60.032575" lon="17.4629018">
        <ele>41.9547</ele>
        <time>2013-05-05T11:05:27Z</time>
      </trkpt>
      <trkpt lat="60.0326113" lon="17.4630665">
        <ele>41.474</ele>
        <time>2013-05-05T11:05:28Z</time>
      </trkpt>
      <trkpt lat="60.0326453" lon="17.4632356">
        <ele>40.9934</ele>
        <time>2013-05-05T11:05:29Z</time>
      </trkpt>
      <trkpt lat="60.0326755" lon="17.4634078">
        <ele>40.5128</ele>
        <time>2013-05-05T11:05:30Z</time>
      </trkpt>
      <trkpt lat="60.0327028" lon="17.463585">
        <ele>40.5128</ele>
        <time>2013-05-05T11:05:31Z</time>
      </trkpt>
      <trkpt lat="60.0327236" lon="17.4637667">
        <ele>40.0321</ele>
        <time>2013-05-05T11:05:32Z</time>
      </trkpt>
      <trkpt lat="60.03274" lon="17.4639521">
        <ele>40.0321</ele>
        <time>2013-05-05T11:05:33Z</time>
      </trkpt>
      <trkpt lat="60.0327531" lon="17.4641333">
        <ele>40.0321</ele>
        <time>2013-05-05T11:05:34Z</time>
      </trkpt>
      <trkpt lat="60.0327641" lon="17.4643063">
        <ele>40.0321</ele>
        <time>2013-05-05T11:05:35Z</time>
      </trkpt>
      <trkpt lat="60.0327703" lon="17.4644709">
        <ele>40.0321</ele>
        <time>2013-05-05T11:05:36Z</time>
      </trkpt>
      <trkpt lat="60.0327732" lon="17.4646282">
        <ele>40.0321</ele>
        <time>2013-05-05T11:05:37Z</time>
      </trkpt>
      <trkpt lat="60.0327758" lon="17.4647883">
        <ele>39.5513</ele>
        <time>2013-05-05T11:05:38Z</time>
      </trkpt>
      <trkpt lat="60.032784" lon="17.4649545">
        <ele>39.5513</ele>
        <time>2013-05-05T11:05:39Z</time>
      </trkpt>
      <trkpt lat="60.0327962" lon="17.465124">
        <ele>39.5513</ele>
        <time>2013-05-05T11:05:40Z</time>
      </trkpt>
      <trkpt lat="60.0328081" lon="17.4652938">
        <ele>39.0707</ele>
        <time>2013-05-05T11:05:41Z</time>
      </trkpt>
      <trkpt lat="60.0328173" lon="17.4654643">
        <ele>39.0707</ele>
        <time>2013-05-05T11:05:42Z</time>
      </trkpt>
      <trkpt lat="60.0328271" lon="17.4656368">
        <ele>39.5513</ele>
        <time>2013-05-05T11:05:43Z</time>
      </trkpt>
      <trkpt lat="60.0328402" lon="17.4658112">
        <ele>39.5513</ele>
        <time>2013-05-05T11:05:44Z</time>
      </trkpt>
      <trkpt lat="60.0328599" lon="17.4659873">
        <ele>40.0321</ele>
        <time>2013-05-05T11:05:45Z</time>
      </trkpt>
      <trkpt lat="60.0328874" lon="17.4661631">
        <ele>40.0321</ele>
        <time>2013-05-05T11:05:46Z</time>
      </trkpt>
      <trkpt lat="60.0329227" lon="17.4663373">
        <ele>39.5513</ele>
        <time>2013-05-05T11:05:47Z</time>
      </trkpt>
      <trkpt lat="60.0329619" lon="17.466506">
        <ele>39.0707</ele>
        <time>2013-05-05T11:05:48Z</time>
      </trkpt>
      <trkpt lat="60.0330035" lon="17.4666732">
        <ele>38.5901</ele>
        <time>2013-05-05T11:05:49Z</time>
      </trkpt>
      <trkpt lat="60.0330458" lon="17.4668399">
        <ele>37.6287</ele>
        <time>2013-05-05T11:05:50Z</time>
      </trkpt>
      <trkpt lat="60.0330887" lon="17.4670075">
        <ele>37.1481</ele>
        <time>2013-05-05T11:05:51Z</time>
      </trkpt>
      <trkpt lat="60.0331334" lon="17.4671772">
        <ele>36.6675</ele>
        <time>2013-05-05T11:05:52Z</time>
      </trkpt>
      <trkpt lat="60.0331795" lon="17.4673488">
        <ele>36.1868</ele>
        <time>2013-05-05T11:05:53Z</time>
      </trkpt>
      <trkpt lat="60.0332262" lon="17.4675235">
        <ele>35.7061</ele>
        <time>2013-05-05T11:05:54Z</time>
      </trkpt>
      <trkpt lat="60.0332739" lon="17.4677016">
        <ele>35.7061</ele>
        <time>2013-05-05T11:05:55Z</time>
      </trkpt>
      <trkpt lat="60.0333219" lon="17.4678819">
        <ele>35.2255</ele>
        <time>2013-05-05T11:05:56Z</time>
      </trkpt>
      <trkpt lat="60.03337" lon="17.4680633">
        <ele>35.2255</ele>
        <time>2013-05-05T11:05:57Z</time>
      </trkpt>
      <trkpt lat="60.0334182" lon="17.4682437">
        <ele>34.7449</ele>
        <time>2013-05-05T11:05:58Z</time>
      </trkpt>
      <trkpt lat="60.0334649" lon="17.4684202">
        <ele>34.2642</ele>
        <time>2013-05-05T11:05:59Z</time>
      </trkpt>
      <trkpt lat="60.0335099" lon="17.468593">
        <ele>34.2642</ele>
        <time>2013-05-05T11:06:00Z</time>
      </trkpt>
      <trkpt lat="60.0335539" lon="17.4687628">
        <ele>33.7834</ele>
        <time>2013-05-05T11:06:01Z</time>
      </trkpt>
      <trkpt lat="60.033597" lon="17.4689296">
        <ele>33.3029</ele>
        <time>2013-05-05T11:06:02Z</time>
      </trkpt>
      <trkpt lat="60.03364" lon="17.469095">
        <ele>33.3029</ele>
        <time>2013-05-05T11:06:03Z</time>
      </trkpt>
      <trkpt lat="60.033684" lon="17.4692594">
        <ele>32.8223</ele>
        <time>2013-05-05T11:06:04Z</time>
      </trkpt>
      <trkpt lat="60.0337275" lon="17.4694236">
        <ele>32.8223</ele>
        <time>2013-05-05T11:06:05Z</time>
      </trkpt>
      <trkpt lat="60.0337701" lon="17.4695906">
        <ele>32.3416</ele>
        <time>2013-05-05T11:06:06Z</time>
      </trkpt>
      <trkpt lat="60.0338138" lon="17.4697597">
        <ele>32.3416</ele>
        <time>2013-05-05T11:06:07Z</time>
      </trkpt>
      <trkpt lat="60.0338584" lon="17.4699295">
        <ele>31.8607</ele>
        <time>2013-05-05T11:06:08Z</time>
      </trkpt>
      <trkpt lat="60.0339038" lon="17.4700984">
        <ele>31.8607</ele>
        <time>2013-05-05T11:06:09Z</time>
      </trkpt>
      <trkpt lat="60.0339503" lon="17.4702671">
        <ele>31.8607</ele>
        <time>2013-05-05T11:06:10Z</time>
      </trkpt>
      <trkpt lat="60.0339952" lon="17.4704368">
        <ele>31.3801</ele>
        <time>2013-05-05T11:06:11Z</time>
      </trkpt>
      <trkpt lat="60.0340403" lon="17.4706075">
        <ele>31.3801</ele>
        <time>2013-05-05T11:06:12Z</time>
      </trkpt>
      <trkpt lat="60.0340863" lon="17.470776">
        <ele>31.3801</ele>
        <time>2013-05-05T11:06:13Z</time>
      </trkpt>
      <trkpt lat="60.0341337" lon="17.4709426">
        <ele>31.3801</ele>
        <time>2013-05-05T11:06:14Z</time>
      </trkpt>
      <trkpt lat="60.0341817" lon="17.4711071">
        <ele>31.3801</ele>
        <time>2013-05-05T11:06:15Z</time>
      </trkpt>
      <trkpt lat="60.0342279" lon="17.4712705">
        <ele>31.3801</ele>
        <time>2013-05-05T11:06:16Z</time>
      </trkpt>
      <trkpt lat="60.0342725" lon="17.471437">
        <ele>31.8607</ele>
        <time>2013-05-05T11:06:17Z</time>
      </trkpt>
      <trkpt lat="60.034316" lon="17.4716031">
        <ele>31.3801</ele>
        <time>2013-05-05T11:06:18Z</time>
      </trkpt>
      <trkpt lat="60.0343631" lon="17.4717634">
        <ele>31.3801</ele>
        <time>2013-05-05T11:06:19Z</time>
      </trkpt>
      <trkpt lat="60.0344117" lon="17.4719213">
        <ele>31.3801</ele>
        <time>2013-05-05T11:06:20Z</time>
      </trkpt>
      <trkpt lat="60.0344563" lon="17.4720824">
        <ele>31.3801</ele>
        <time>2013-05-05T11:06:21Z</time>
      </trkpt>
      <trkpt lat="60.0344978" lon="17.4722457">
        <ele>31.3801</ele>
        <time>2013-05-05T11:06:22Z</time>
      </trkpt>
      <trkpt lat="60.0345414" lon="17.4724082">
        <ele>31.3801</ele>
        <time>2013-05-05T11:06:23Z</time>
      </trkpt>
      <trkpt lat="60.034588" lon="17.4725696">
        <ele>31.3801</ele>
        <time>2013-05-05T11:06:24Z</time>
      </trkpt>
      <trkpt lat="60.0346356" lon="17.4727331">
        <ele>31.3801</ele>
        <time>2013-05-05T11:06:25Z</time>
      </trkpt>
      <trkpt lat="60.0346847" lon="17.4728977">
        <ele>30.8995</ele>
        <time>2013-05-05T11:06:26Z</time>
      </trkpt>
      <trkpt lat="60.0347377" lon="17.47306">
        <ele>30.8995</ele>
        <time>2013-05-05T11:06:27Z</time>
      </trkpt>
      <trkpt lat="60.0347952" lon="17.4732174">
        <ele>30.8995</ele>
        <time>2013-05-05T11:06:28Z</time>
      </trkpt>
      <trkpt lat="60.0348552" lon="17.4733707">
        <ele>30.8995</ele>
        <time>2013-05-05T11:06:29Z</time>
      </trkpt>
      <trkpt lat="60.0349159" lon="17.4735246">
        <ele>30.4188</ele>
        <time>2013-05-05T11:06:30Z</time>
      </trkpt>
      <trkpt lat="60.0349766" lon="17.4736813">
        <ele>30.4188</ele>
        <time>2013-05-05T11:06:31Z</time>
      </trkpt>
      <trkpt lat="60.035038" lon="17.4738412">
        <ele>30.4188</ele>
        <time>2013-05-05T11:06:32Z</time>
      </trkpt>
      <trkpt lat="60.0351018" lon="17.474003">
        <ele>30.4188</ele>
        <time>2013-05-05T11:06:33Z</time>
      </trkpt>
      <trkpt lat="60.0351703" lon="17.4741648">
        <ele>30.4188</ele>
        <time>2013-05-05T11:06:34Z</time>
      </trkpt>
      <trkpt lat="60.0352396" lon="17.4743311">
        <ele>29.9381</ele>
        <time>2013-05-05T11:06:35Z</time>
      </trkpt>
      <trkpt lat="60.0353075" lon="17.4745045">
        <ele>30.4188</ele>
        <time>2013-05-05T11:06:36Z</time>
      </trkpt>
      <trkpt lat="60.0353718" lon="17.4746833">
        <ele>30.4188</ele>
        <time>2013-05-05T11:06:37Z</time>
      </trkpt>
      <trkpt lat="60.0354313" lon="17.4748677">
        <ele>30.4188</ele>
        <time>2013-05-05T11:06:38Z</time>
      </trkpt>
      <trkpt lat="60.0354861" lon="17.4750573">
        <ele>30.4188</ele>
        <time>2013-05-05T11:06:39Z</time>
      </trkpt>
      <trkpt lat="60.035537" lon="17.47525">
        <ele>30.4188</ele>
        <time>2013-05-05T11:06:40Z</time>
      </trkpt>
      <trkpt lat="60.0355829" lon="17.4754434">
        <ele>30.4188</ele>
        <time>2013-05-05T11:06:41Z</time>
      </trkpt>
      <trkpt lat="60.035621" lon="17.4756369">
        <ele>30.8995</ele>
        <time>2013-05-05T11:06:42Z</time>
      </trkpt>
      <trkpt lat="60.0356512" lon="17.4758297">
        <ele>30.8995</ele>
        <time>2013-05-05T11:06:43Z</time>
      </trkpt>
      <trkpt lat="60.0356759" lon="17.4760232">
        <ele>30.8995</ele>
        <time>2013-05-05T11:06:44Z</time>
      </trkpt>
      <trkpt lat="60.0356958" lon="17.4762173">
        <ele>30.8995</ele>
        <time>2013-05-05T11:06:45Z</time>
      </trkpt>
      <trkpt lat="60.0357099" lon="17.4764103">
        <ele>30.8995</ele>
        <time>2013-05-05T11:06:46Z</time>
      </trkpt>
      <trkpt lat="60.0357181" lon="17.4765984">
        <ele>30.8995</ele>
        <time>2013-05-05T11:06:47Z</time>
      </trkpt>
      <trkpt lat="60.0357224" lon="17.4767832">
        <ele>30.4188</ele>
        <time>2013-05-05T11:06:48Z</time>
      </trkpt>
      <trkpt lat="60.0357255" lon="17.4769657">
        <ele>30.4188</ele>
        <time>2013-05-05T11:06:49Z</time>
      </trkpt>
      <trkpt lat="60.0357292" lon="17.4771488">
        <ele>30.8995</ele>
        <time>2013-05-05T11:06:50Z</time>
      </trkpt>
      <trkpt lat="60.0357327" lon="17.4773322">
        <ele>30.8995</ele>
        <time>2013-05-05T11:06:51Z</time>
      </trkpt>
      <trkpt lat="60.0357354" lon="17.4775154">
        <ele>30.8995</ele>
        <time>2013-05-05T11:06:52Z</time>
      </trkpt>
      <trkpt lat="60.035738" lon="17.4777007">
        <ele>30.8995</ele>
        <time>2013-05-05T11:06:53Z</time>
      </trkpt>
      <trkpt lat="60.035741" lon="17.4778883">
        <ele>30.8995</ele>
        <time>2013-05-05T11:06:54Z</time>
      </trkpt>
      <trkpt lat="60.0357439" lon="17.4780784">
        <ele>30.8995</ele>
        <time>2013-05-05T11:06:55Z</time>
      </trkpt>
      <trkpt lat="60.0357472" lon="17.4782707">
        <ele>30.8995</ele>
        <time>2013-05-05T11:06:56Z</time>
      </trkpt>
      <trkpt lat="60.0357509" lon="17.4784651">
        <ele>30.8995</ele>
        <time>2013-05-05T11:06:57Z</time>
      </trkpt>
      <trkpt lat="60.0357555" lon="17.4786606">
        <ele>30.8995</ele>
        <time>2013-05-05T11:06:58Z</time>
      </trkpt>
      <trkpt lat="60.0357602" lon="17.4788549">
        <ele>30.8995</ele>
        <time>2013-05-05T11:06:59Z</time>
      </trkpt>
      <trkpt lat="60.0357649" lon="17.4790469">
        <ele>30.8995</ele>
        <time>2013-05-05T11:07:00Z</time>
      </trkpt>
      <trkpt lat="60.0357695" lon="17.4792365">
        <ele>31.3801</ele>
        <time>2013-05-05T11:07:01Z</time>
      </trkpt>
      <trkpt lat="60.0357742" lon="17.4794236">
        <ele>31.3801</ele>
        <time>2013-05-05T11:07:02Z</time>
      </trkpt>
      <trkpt lat="60.0357793" lon="17.4796092">
        <ele>31.3801</ele>
        <time>2013-05-05T11:07:03Z</time>
      </trkpt>
      <trkpt lat="60.0357841" lon="17.479795">
        <ele>31.8607</ele>
        <time>2013-05-05T11:07:04Z</time>
      </trkpt>
      <trkpt lat="60.035789" lon="17.4799821">
        <ele>31.8607</ele>
        <time>2013-05-05T11:07:05Z</time>
      </trkpt>
      <trkpt lat="60.0357939" lon="17.4801709">
        <ele>31.8607</ele>
        <time>2013-05-05T11:07:06Z</time>
      </trkpt>
      <trkpt lat="60.0358" lon="17.4803618">
        <ele>31.8607</ele>
        <time>2013-05-05T11:07:07Z</time>
      </trkpt>
      <trkpt lat="60.0358068" lon="17.4805522">
        <ele>32.3416</ele>
        <time>2013-05-05T11:07:08Z</time>
      </trkpt>
      <trkpt lat="60.0358144" lon="17.4807416">
        <ele>32.3416</ele>
        <time>2013-05-05T11:07:09Z</time>
      </trkpt>
      <trkpt lat="60.0358229" lon="17.480932">
        <ele>32.3416</ele>
        <time>2013-05-05T11:07:10Z</time>
      </trkpt>
      <trkpt lat="60.0358333" lon="17.4811218">
        <ele>32.8223</ele>
        <time>2013-05-05T11:07:11Z</time>
      </trkpt>
      <trkpt lat="60.035846" lon="17.4813081">
        <ele>32.8223</ele>
        <time>2013-05-05T11:07:12Z</time>
      </trkpt>
      <trkpt lat="60.0358612" lon="17.4814889">
        <ele>33.3029</ele>
        <time>2013-05-05T11:07:13Z</time>
      </trkpt>
      <trkpt lat="60.0358792" lon="17.4816662">
        <ele>33.7834</ele>
        <time>2013-05-05T11:07:14Z</time>
      </trkpt>
      <trkpt lat="60.0359" lon="17.4818425">
        <ele>33.7834</ele>
        <time>2013-05-05T11:07:15Z</time>
      </trkpt>
      <trkpt lat="60.0359224" lon="17.4820193">
        <ele>34.2642</ele>
        <time>2013-05-05T11:07:16Z</time>
      </trkpt>
      <trkpt lat="60.0359455" lon="17.4821972">
        <ele>34.2642</ele>
        <time>2013-05-05T11:07:17Z</time>
      </trkpt>
      <trkpt lat="60.0359691" lon="17.4823747">
        <ele>34.2642</ele>
        <time>2013-05-05T11:07:18Z</time>
      </trkpt>
      <trkpt lat="60.0359938" lon="17.4825497">
        <ele>34.7449</ele>
        <time>2013-05-05T11:07:19Z</time>
      </trkpt>
      <trkpt lat="60.0360206" lon="17.4827216">
        <ele>34.7449</ele>
        <time>2013-05-05T11:07:20Z</time>
      </trkpt>
      <trkpt lat="60.036048" lon="17.4828916">
        <ele>34.7449</ele>
        <time>2013-05-05T11:07:21Z</time>
      </trkpt>
      <trkpt lat="60.0360726" lon="17.4830628">
        <ele>34.7449</ele>
        <time>2013-05-05T11:07:22Z</time>
      </trkpt>
      <trkpt lat="60.0360937" lon="17.4832375">
        <ele>34.7449</ele>
        <time>2013-05-05T11:07:23Z</time>
      </trkpt>
      <trkpt lat="60.0361129" lon="17.4834143">
        <ele>34.7449</ele>
        <time>2013-05-05T11:07:24Z</time>
      </trkpt>
      <trkpt lat="60.0361315" lon="17.4835926">
        <ele>34.7449</ele>
        <time>2013-05-05T11:07:25Z</time>
      </trkpt>
      <trkpt lat="60.0361492" lon="17.4837718">
        <ele>34.7449</ele>
        <time>2013-05-05T11:07:26Z</time>
      </trkpt>
      <trkpt lat="60.0361622" lon="17.4839516">
        <ele>34.7449</ele>
        <time>2013-05-05T11:07:27Z</time>
      </trkpt>
      <trkpt lat="60.03617" lon="17.4841333">
        <ele>34.7449</ele>
        <time>2013-05-05T11:07:28Z</time>
      </trkpt>
      <trkpt lat="60.036175" lon="17.4843176">
        <ele>34.7449</ele>
        <time>2013-05-05T11:07:29Z</time>
      </trkpt>
      <trkpt lat="60.0361762" lon="17.4845036">
        <ele>34.7449</ele>
        <time>2013-05-05T11:07:30Z</time>
      </trkpt>
      <trkpt lat="60.0361737" lon="17.4846914">
        <ele>34.7449</ele>
        <time>2013-05-05T11:07:31Z</time>
      </trkpt>
      <trkpt lat="60.0361693" lon="17.4848804">
        <ele>34.7449</ele>
        <time>2013-05-05T11:07:32Z</time>
      </trkpt>
      <trkpt lat="60.0361627" lon="17.4850682">
        <ele>34.7449</ele>
        <time>2013-05-05T11:07:33Z</time>
      </trkpt>
      <trkpt lat="60.0361545" lon="17.4852516">
        <ele>34.7449</ele>
        <time>2013-05-05T11:07:34Z</time>
      </trkpt>
      <trkpt lat="60.0361459" lon="17.4854309">
        <ele>34.7449</ele>
        <time>2013-05-05T11:07:35Z</time>
      </trkpt>
      <trkpt lat="60.0361374" lon="17.4856071">
        <ele>34.7449</ele>
        <time>2013-05-05T11:07:36Z</time>
      </trkpt>
      <trkpt lat="60.0361304" lon="17.4857816">
        <ele>34.7449</ele>
        <time>2013-05-05T11:07:37Z</time>
      </trkpt>
      <trkpt lat="60.0361254" lon="17.4859563">
        <ele>34.7449</ele>
        <time>2013-05-05T11:07:38Z</time>
      </trkpt>
      <trkpt lat="60.0361207" lon="17.4861329">
        <ele>34.7449</ele>
        <time>2013-05-05T11:07:39Z</time>
      </trkpt>
      <trkpt lat="60.0361157" lon="17.4863127">
        <ele>34.2642</ele>
        <time>2013-05-05T11:07:40Z</time>
      </trkpt>
      <trkpt lat="60.0361152" lon="17.4864959">
        <ele>34.2642</ele>
        <time>2013-05-05T11:07:41Z</time>
      </trkpt>
      <trkpt lat="60.0361197" lon="17.4866789">
        <ele>34.2642</ele>
        <time>2013-05-05T11:07:42Z</time>
      </trkpt>
      <trkpt lat="60.0361337" lon="17.486855">
        <ele>34.2642</ele>
        <time>2013-05-05T11:07:43Z</time>
      </trkpt>
      <trkpt lat="60.0361509" lon="17.4870286">
        <ele>34.2642</ele>
        <time>2013-05-05T11:07:44Z</time>
      </trkpt>
      <trkpt lat="60.0361704" lon="17.4872013">
        <ele>34.2642</ele>
        <time>2013-05-05T11:07:45Z</time>
      </trkpt>
      <trkpt lat="60.0361928" lon="17.4873752">
        <ele>34.2642</ele>
        <time>2013-05-05T11:07:46Z</time>
      </trkpt>
      <trkpt lat="60.0362181" lon="17.4875515">
        <ele>34.2642</ele>
        <time>2013-05-05T11:07:47Z</time>
      </trkpt>
      <trkpt lat="60.0362461" lon="17.4877267">
        <ele>34.2642</ele>
        <time>2013-05-05T11:07:48Z</time>
      </trkpt>
      <trkpt lat="60.036274" lon="17.487901">
        <ele>34.2642</ele>
        <time>2013-05-05T11:07:49Z</time>
      </trkpt>
      <trkpt lat="60.0363005" lon="17.4880749">
        <ele>34.2642</ele>
        <time>2013-05-05T11:07:50Z</time>
      </trkpt>
      <trkpt lat="60.0363272" lon="17.4882457">
        <ele>34.2642</ele>
        <time>2013-05-05T11:07:51Z</time>
      </trkpt>
      <trkpt lat="60.0363529" lon="17.4884161">
        <ele>34.2642</ele>
        <time>2013-05-05T11:07:52Z</time>
      </trkpt>
      <trkpt lat="60.0363775" lon="17.4885887">
        <ele>34.2642</ele>
        <time>2013-05-05T11:07:53Z</time>
      </trkpt>
      <trkpt lat="60.0364006" lon="17.4887631">
        <ele>33.7834</ele>
        <time>2013-05-05T11:07:54Z</time>
      </trkpt>
      <trkpt lat="60.0364221" lon="17.4889401">
        <ele>33.7834</ele>
        <time>2013-05-05T11:07:55Z</time>
      </trkpt>
      <trkpt lat="60.0364409" lon="17.4891197">
        <ele>33.7834</ele>
        <time>2013-05-05T11:07:56Z</time>
      </trkpt>
      <trkpt lat="60.036459" lon="17.489302">
        <ele>33.7834</ele>
        <time>2013-05-05T11:07:57Z</time>
      </trkpt>
      <trkpt lat="60.036477" lon="17.4894829">
        <ele>33.7834</ele>
        <time>2013-05-05T11:07:58Z</time>
      </trkpt>
      <trkpt lat="60.0364971" lon="17.4896662">
        <ele>33.7834</ele>
        <time>2013-05-05T11:07:59Z</time>
      </trkpt>
      <trkpt lat="60.0365165" lon="17.4898506">
        <ele>33.7834</ele>
        <time>2013-05-05T11:08:00Z</time>
      </trkpt>
      <trkpt lat="60.0365344" lon="17.4900351">
        <ele>33.7834</ele>
        <time>2013-05-05T11:08:01Z</time>
      </trkpt>
      <trkpt lat="60.0365512" lon="17.4902182">
        <ele>33.7834</ele>
        <time>2013-05-05T11:08:02Z</time>
      </trkpt>
      <trkpt lat="60.0365684" lon="17.4903987">
        <ele>33.3029</ele>
        <time>2013-05-05T11:08:03Z</time>
      </trkpt>
      <trkpt lat="60.0365863" lon="17.4905759">
        <ele>33.7834</ele>
        <time>2013-05-05T11:08:04Z</time>
      </trkpt>
      <trkpt lat="60.0366035" lon="17.4907498">
        <ele>33.7834</ele>
        <time>2013-05-05T11:08:05Z</time>
      </trkpt>
      <trkpt lat="60.0366226" lon="17.4909208">
        <ele>33.7834</ele>
        <time>2013-05-05T11:08:06Z</time>
      </trkpt>
      <trkpt lat="60.0366444" lon="17.4910887">
        <ele>33.7834</ele>
        <time>2013-05-05T11:08:07Z</time>
      </trkpt>
      <trkpt lat="60.0366681" lon="17.4912545">
        <ele>33.7834</ele>
        <time>2013-05-05T11:08:08Z</time>
      </trkpt>
      <trkpt lat="60.0366926" lon="17.4914205">
        <ele>33.7834</ele>
        <time>2013-05-05T11:08:09Z</time>
      </trkpt>
      <trkpt lat="60.0367209" lon="17.491585">
        <ele>33.3029</ele>
        <time>2013-05-05T11:08:10Z</time>
      </trkpt>
      <trkpt lat="60.0367527" lon="17.4917492">
        <ele>33.3029</ele>
        <time>2013-05-05T11:08:11Z</time>
      </trkpt>
      <trkpt lat="60.0367847" lon="17.4919135">
        <ele>32.8223</ele>
        <time>2013-05-05T11:08:12Z</time>
      </trkpt>
      <trkpt lat="60.0368183" lon="17.4920792">
        <ele>32.8223</ele>
        <time>2013-05-05T11:08:13Z</time>
      </trkpt>
      <trkpt lat="60.0368558" lon="17.4922475">
        <ele>32.3416</ele>
        <time>2013-05-05T11:08:14Z</time>
      </trkpt>
      <trkpt lat="60.0368978" lon="17.4924183">
        <ele>32.3416</ele>
        <time>2013-05-05T11:08:15Z</time>
      </trkpt>
      <trkpt lat="60.0369413" lon="17.4925898">
        <ele>32.3416</ele>
        <time>2013-05-05T11:08:16Z</time>
      </trkpt>
      <trkpt lat="60.036982" lon="17.4927603">
        <ele>31.8607</ele>
        <time>2013-05-05T11:08:17Z</time>
      </trkpt>
      <trkpt lat="60.0370236" lon="17.4929328">
        <ele>31.8607</ele>
        <time>2013-05-05T11:08:18Z</time>
      </trkpt>
      <trkpt lat="60.0370672" lon="17.4931072">
        <ele>31.8607</ele>
        <time>2013-05-05T11:08:19Z</time>
      </trkpt>
      <trkpt lat="60.0371107" lon="17.4932788">
        <ele>31.8607</ele>
        <time>2013-05-05T11:08:20Z</time>
      </trkpt>
      <trkpt lat="60.0371521" lon="17.4934485">
        <ele>31.3801</ele>
        <time>2013-05-05T11:08:21Z</time>
      </trkpt>
      <trkpt lat="60.0371931" lon="17.4936188">
        <ele>31.3801</ele>
        <time>2013-05-05T11:08:22Z</time>
      </trkpt>
      <trkpt lat="60.0372329" lon="17.4937904">
        <ele>31.3801</ele>
        <time>2013-05-05T11:08:23Z</time>
      </trkpt>
      <trkpt lat="60.0372717" lon="17.4939616">
        <ele>31.3801</ele>
        <time>2013-05-05T11:08:24Z</time>
      </trkpt>
      <trkpt lat="60.0373112" lon="17.494132">
        <ele>31.3801</ele>
        <time>2013-05-05T11:08:25Z</time>
      </trkpt>
      <trkpt lat="60.0373517" lon="17.4943007">
        <ele>31.3801</ele>
        <time>2013-05-05T11:08:26Z</time>
      </trkpt>
      <trkpt lat="60.0373931" lon="17.4944691">
        <ele>31.8607</ele>
        <time>2013-05-05T11:08:27Z</time>
      </trkpt>
      <trkpt lat="60.037435" lon="17.4946375">
        <ele>31.8607</ele>
        <time>2013-05-05T11:08:28Z</time>
      </trkpt>
      <trkpt lat="60.0374782" lon="17.4948071">
        <ele>31.8607</ele>
        <time>2013-05-05T11:08:29Z</time>
      </trkpt>
      <trkpt lat="60.0375214" lon="17.4949753">
        <ele>31.8607</ele>
        <time>2013-05-05T11:08:30Z</time>
      </trkpt>
      <trkpt lat="60.0375643" lon="17.4951419">
        <ele>32.3416</ele>
        <time>2013-05-05T11:08:31Z</time>
      </trkpt>
      <trkpt lat="60.0376105" lon="17.4953125">
        <ele>32.8223</ele>
        <time>2013-05-05T11:08:32Z</time>
      </trkpt>
      <trkpt lat="60.037653" lon="17.4954797">
        <ele>33.3029</ele>
        <time>2013-05-05T11:08:33Z</time>
      </trkpt>
      <trkpt lat="60.0376933" lon="17.495643">
        <ele>33.3029</ele>
        <time>2013-05-05T11:08:34Z</time>
      </trkpt>
      <trkpt lat="60.0377324" lon="17.495805">
        <ele>33.7834</ele>
        <time>2013-05-05T11:08:35Z</time>
      </trkpt>
      <trkpt lat="60.0377714" lon="17.4959672">
        <ele>33.7834</ele>
        <time>2013-05-05T11:08:36Z</time>
      </trkpt>
      <trkpt lat="60.0378095" lon="17.4961349">
        <ele>33.7834</ele>
        <time>2013-05-05T11:08:37Z</time>
      </trkpt>
      <trkpt lat="60.0378457" lon="17.496303">
        <ele>33.7834</ele>
        <time>2013-05-05T11:08:38Z</time>
      </trkpt>
      <trkpt lat="60.0378769" lon="17.4964712">
        <ele>34.2642</ele>
        <time>2013-05-05T11:08:39Z</time>
      </trkpt>
      <trkpt lat="60.0379032" lon="17.4966416">
        <ele>34.2642</ele>
        <time>2013-05-05T11:08:40Z</time>
      </trkpt>
      <trkpt lat="60.0379272" lon="17.4968117">
        <ele>34.2642</ele>
        <time>2013-05-05T11:08:41Z</time>
      </trkpt>
      <trkpt lat="60.037953" lon="17.4969809">
        <ele>34.2642</ele>
        <time>2013-05-05T11:08:42Z</time>
      </trkpt>
      <trkpt lat="60.0379786" lon="17.4971525">
        <ele>34.2642</ele>
        <time>2013-05-05T11:08:43Z</time>
      </trkpt>
      <trkpt lat="60.0380073" lon="17.4973269">
        <ele>34.2642</ele>
        <time>2013-05-05T11:08:44Z</time>
      </trkpt>
      <trkpt lat="60.038037" lon="17.49751">
        <ele>34.2642</ele>
        <time>2013-05-05T11:08:45Z</time>
      </trkpt>
      <trkpt lat="60.0380647" lon="17.4976887">
        <ele>34.2642</ele>
        <time>2013-05-05T11:08:46Z</time>
      </trkpt>
      <trkpt lat="60.0380939" lon="17.4978611">
        <ele>34.2642</ele>
        <time>2013-05-05T11:08:47Z</time>
      </trkpt>
      <trkpt lat="60.0381327" lon="17.4980342">
        <ele>34.2642</ele>
        <time>2013-05-05T11:08:48Z</time>
      </trkpt>
      <trkpt lat="60.0381705" lon="17.4982013">
        <ele>34.2642</ele>
        <time>2013-05-05T11:08:49Z</time>
      </trkpt>
      <trkpt lat="60.0382094" lon="17.498358">
        <ele>34.7449</ele>
        <time>2013-05-05T11:08:50Z</time>
      </trkpt>
      <trkpt lat="60.038255" lon="17.498506">
        <ele>34.7449</ele>
        <time>2013-05-05T11:08:51Z</time>
      </trkpt>
      <trkpt lat="60.0383058" lon="17.4986488">
        <ele>35.2255</ele>
        <time>2013-05-05T11:08:52Z</time>
      </trkpt>
      <trkpt lat="60.0383599" lon="17.4987892">
        <ele>35.2255</ele>
        <time>2013-05-05T11:08:53Z</time>
      </trkpt>
      <trkpt lat="60.0384166" lon="17.498926">
        <ele>35.2255</ele>
        <time>2013-05-05T11:08:54Z</time>
      </trkpt>
      <trkpt lat="60.0384754" lon="17.4990588">
        <ele>35.7061</ele>
        <time>2013-05-05T11:08:55Z</time>
      </trkpt>
      <trkpt lat="60.0385353" lon="17.4991872">
        <ele>35.7061</ele>
        <time>2013-05-05T11:08:56Z</time>
      </trkpt>
      <trkpt lat="60.0385943" lon="17.499315">
        <ele>35.7061</ele>
        <time>2013-05-05T11:08:57Z</time>
      </trkpt>
      <trkpt lat="60.0386513" lon="17.4994441">
        <ele>36.1868</ele>
        <time>2013-05-05T11:08:58Z</time>
      </trkpt>
      <trkpt lat="60.0387082" lon="17.4995737">
        <ele>36.1868</ele>
        <time>2013-05-05T11:08:59Z</time>
      </trkpt>
      <trkpt lat="60.0387667" lon="17.4997011">
        <ele>36.1868</ele>
        <time>2013-05-05T11:09:00Z</time>
      </trkpt>
      <trkpt lat="60.0388261" lon="17.4998286">
        <ele>36.1868</ele>
        <time>2013-05-05T11:09:01Z</time>
      </trkpt>
      <trkpt lat="60.0388858" lon="17.499956">
        <ele>36.6675</ele>
        <time>2013-05-05T11:09:02Z</time>
      </trkpt>
      <trkpt lat="60.0389454" lon="17.5000812">
        <ele>36.6675</ele>
        <time>2013-05-05T11:09:03Z</time>
      </trkpt>
      <trkpt lat="60.0390039" lon="17.5002109">
        <ele>37.1481</ele>
        <time>2013-05-05T11:09:04Z</time>
      </trkpt>
      <trkpt lat="60.0390614" lon="17.5003542">
        <ele>36.6675</ele>
        <time>2013-05-05T11:09:05Z</time>
      </trkpt>
      <trkpt lat="60.0391235" lon="17.5004973">
        <ele>36.6675</ele>
        <time>2013-05-05T11:09:06Z</time>
      </trkpt>
      <trkpt lat="60.0391898" lon="17.5006387">
        <ele>36.1868</ele>
        <time>2013-05-05T11:09:07Z</time>
      </trkpt>
      <trkpt lat="60.0392547" lon="17.5007849">
        <ele>36.1868</ele>
        <time>2013-05-05T11:09:08Z</time>
      </trkpt>
      <trkpt lat="60.039319" lon="17.5009382">
        <ele>36.1868</ele>
        <time>2013-05-05T11:09:09Z</time>
      </trkpt>
      <trkpt lat="60.0393769" lon="17.5010931">
        <ele>35.2255</ele>
        <time>2013-05-05T11:09:10Z</time>
      </trkpt>
      <trkpt lat="60.0394332" lon="17.5012589">
        <ele>35.2255</ele>
        <time>2013-05-05T11:09:11Z</time>
      </trkpt>
      <trkpt lat="60.0394863" lon="17.5014321">
        <ele>34.7449</ele>
        <time>2013-05-05T11:09:12Z</time>
      </trkpt>
      <trkpt lat="60.0395358" lon="17.5016143">
        <ele>33.7834</ele>
        <time>2013-05-05T11:09:13Z</time>
      </trkpt>
      <trkpt lat="60.0395825" lon="17.5017995">
        <ele>33.7834</ele>
        <time>2013-05-05T11:09:14Z</time>
      </trkpt>
      <trkpt lat="60.0396246" lon="17.5019902">
        <ele>34.2642</ele>
        <time>2013-05-05T11:09:15Z</time>
      </trkpt>
      <trkpt lat="60.039662" lon="17.5021872">
        <ele>34.2642</ele>
        <time>2013-05-05T11:09:16Z</time>
      </trkpt>
      <trkpt lat="60.0396967" lon="17.5023837">
        <ele>34.2642</ele>
        <time>2013-05-05T11:09:17Z</time>
      </trkpt>
      <trkpt lat="60.0397313" lon="17.5025808">
        <ele>34.2642</ele>
        <time>2013-05-05T11:09:18Z</time>
      </trkpt>
      <trkpt lat="60.0397653" lon="17.502776">
        <ele>34.2642</ele>
        <time>2013-05-05T11:09:19Z</time>
      </trkpt>
      <trkpt lat="60.0397965" lon="17.5029716">
        <ele>34.7449</ele>
        <time>2013-05-05T11:09:20Z</time>
      </trkpt>
      <trkpt lat="60.0398274" lon="17.5031686">
        <ele>34.7449</ele>
        <time>2013-05-05T11:09:21Z</time>
      </trkpt>
      <trkpt lat="60.0398624" lon="17.5033703">
        <ele>34.7449</ele>
        <time>2013-05-05T11:09:22Z</time>
      </trkpt>
      <trkpt lat="60.039898" lon="17.5035721">
        <ele>34.7449</ele>
        <time>2013-05-05T11:09:23Z</time>
      </trkpt>
      <trkpt lat="60.0399329" lon="17.5037704">
        <ele>34.7449</ele>
        <time>2013-05-05T11:09:24Z</time>
      </trkpt>
      <trkpt lat="60.0399654" lon="17.5039676">
        <ele>34.7449</ele>
        <time>2013-05-05T11:09:25Z</time>
      </trkpt>
      <trkpt lat="60.0399928" lon="17.5041677">
        <ele>34.7449</ele>
        <time>2013-05-05T11:09:26Z</time>
      </trkpt>
      <trkpt lat="60.0400188" lon="17.5043732">
        <ele>34.7449</ele>
        <time>2013-05-05T11:09:27Z</time>
      </trkpt>
      <trkpt lat="60.0400415" lon="17.5045804">
        <ele>34.7449</ele>
        <time>2013-05-05T11:09:28Z</time>
      </trkpt>
      <trkpt lat="60.0400632" lon="17.5047889">
        <ele>34.7449</ele>
        <time>2013-05-05T11:09:29Z</time>
      </trkpt>
      <trkpt lat="60.0400838" lon="17.5049998">
        <ele>34.7449</ele>
        <time>2013-05-05T11:09:30Z</time>
      </trkpt>
      <trkpt lat="60.0401048" lon="17.5052085">
        <ele>34.7449</ele>
        <time>2013-05-05T11:09:31Z</time>
      </trkpt>
      <trkpt lat="60.0401261" lon="17.5054158">
        <ele>34.7449</ele>
        <time>2013-05-05T11:09:32Z</time>
      </trkpt>
      <trkpt lat="60.0401458" lon="17.5056249">
        <ele>35.2255</ele>
        <time>2013-05-05T11:09:33Z</time>
      </trkpt>
      <trkpt lat="60.0401654" lon="17.505836">
        <ele>35.2255</ele>
        <time>2013-05-05T11:09:34Z</time>
      </trkpt>
      <trkpt lat="60.0401844" lon="17.5060474">
        <ele>35.7061</ele>
        <time>2013-05-05T11:09:35Z</time>
      </trkpt>
      <trkpt lat="60.040201" lon="17.5062527">
        <ele>35.2255</ele>
        <time>2013-05-05T11:09:36Z</time>
      </trkpt>
      <trkpt lat="60.0402209" lon="17.5064555">
        <ele>35.2255</ele>
        <time>2013-05-05T11:09:37Z</time>
      </trkpt>
      <trkpt lat="60.0402405" lon="17.5066617">
        <ele>35.2255</ele>
        <time>2013-05-05T11:09:38Z</time>
      </trkpt>
      <trkpt lat="60.0402602" lon="17.5068712">
        <ele>35.2255</ele>
        <time>2013-05-05T11:09:39Z</time>
      </trkpt>
      <trkpt lat="60.0402804" lon="17.5070807">
        <ele>35.7061</ele>
        <time>2013-05-05T11:09:40Z</time>
      </trkpt>
      <trkpt lat="60.0403002" lon="17.5072893">
        <ele>35.7061</ele>
        <time>2013-05-05T11:09:41Z</time>
      </trkpt>
      <trkpt lat="60.0403182" lon="17.5074962">
        <ele>36.1868</ele>
        <time>2013-05-05T11:09:42Z</time>
      </trkpt>
      <trkpt lat="60.0403368" lon="17.5077039">
        <ele>36.1868</ele>
        <time>2013-05-05T11:09:43Z</time>
      </trkpt>
      <trkpt lat="60.040356" lon="17.5079119">
        <ele>36.6675</ele>
        <time>2013-05-05T11:09:44Z</time>
      </trkpt>
      <trkpt lat="60.0403731" lon="17.5081131">
        <ele>36.6675</ele>
        <time>2013-05-05T11:09:45Z</time>
      </trkpt>
      <trkpt lat="60.0403897" lon="17.5083106">
        <ele>36.6675</ele>
        <time>2013-05-05T11:09:46Z</time>
      </trkpt>
      <trkpt lat="60.0404037" lon="17.5085104">
        <ele>36.6675</ele>
        <time>2013-05-05T11:09:47Z</time>
      </trkpt>
      <trkpt lat="60.0404141" lon="17.5087114">
        <ele>37.1481</ele>
        <time>2013-05-05T11:09:48Z</time>
      </trkpt>
      <trkpt lat="60.0404211" lon="17.5089103">
        <ele>36.6675</ele>
        <time>2013-05-05T11:09:49Z</time>
      </trkpt>
      <trkpt lat="60.0404253" lon="17.5091097">
        <ele>36.6675</ele>
        <time>2013-05-05T11:09:50Z</time>
      </trkpt>
      <trkpt lat="60.0404265" lon="17.5093103">
        <ele>36.1868</ele>
        <time>2013-05-05T11:09:51Z</time>
      </trkpt>
      <trkpt lat="60.040427" lon="17.5095085">
        <ele>36.1868</ele>
        <time>2013-05-05T11:09:52Z</time>
      </trkpt>
      <trkpt lat="60.040424" lon="17.5097087">
        <ele>36.6675</ele>
        <time>2013-05-05T11:09:53Z</time>
      </trkpt>
      <trkpt lat="60.0404167" lon="17.5099168">
        <ele>36.6675</ele>
        <time>2013-05-05T11:09:54Z</time>
      </trkpt>
      <trkpt lat="60.0404088" lon="17.5101192">
        <ele>36.6675</ele>
        <time>2013-05-05T11:09:55Z</time>
      </trkpt>
      <trkpt lat="60.0404011" lon="17.5103202">
        <ele>37.1481</ele>
        <time>2013-05-05T11:09:56Z</time>
      </trkpt>
      <trkpt lat="60.0403911" lon="17.5105172">
        <ele>37.1481</ele>
        <time>2013-05-05T11:09:57Z</time>
      </trkpt>
      <trkpt lat="60.040376" lon="17.5107099">
        <ele>37.6287</ele>
        <time>2013-05-05T11:09:58Z</time>
      </trkpt>
      <trkpt lat="60.0403537" lon="17.510902">
        <ele>37.6287</ele>
        <time>2013-05-05T11:09:59Z</time>
      </trkpt>
      <trkpt lat="60.0403301" lon="17.5110928">
        <ele>37.6287</ele>
        <time>2013-05-05T11:10:00Z</time>
      </trkpt>
      <trkpt lat="60.0403068" lon="17.5112822">
        <ele>37.6287</ele>
        <time>2013-05-05T11:10:01Z</time>
      </trkpt>
      <trkpt lat="60.0402921" lon="17.5114614">
        <ele>37.6287</ele>
        <time>2013-05-05T11:10:02Z</time>
      </trkpt>
      <trkpt lat="60.0402721" lon="17.5116447">
        <ele>37.6287</ele>
        <time>2013-05-05T11:10:03Z</time>
      </trkpt>
      <trkpt lat="60.0402434" lon="17.5118278">
        <ele>37.1481</ele>
        <time>2013-05-05T11:10:04Z</time>
      </trkpt>
      <trkpt lat="60.0402125" lon="17.5120101">
        <ele>37.1481</ele>
        <time>2013-05-05T11:10:05Z</time>
      </trkpt>
      <trkpt lat="60.0401804" lon="17.5121891">
        <ele>36.1868</ele>
        <time>2013-05-05T11:10:06Z</time>
      </trkpt>
      <trkpt lat="60.0401497" lon="17.512367">
        <ele>36.1868</ele>
        <time>2013-05-05T11:10:07Z</time>
      </trkpt>
      <trkpt lat="60.0401177" lon="17.5125445">
        <ele>36.1868</ele>
        <time>2013-05-05T11:10:08Z</time>
      </trkpt>
      <trkpt lat="60.0400742" lon="17.5127265">
        <ele>35.7061</ele>
        <time>2013-05-05T11:10:09Z</time>
      </trkpt>
      <trkpt lat="60.0400277" lon="17.5129053">
        <ele>35.7061</ele>
        <time>2013-05-05T11:10:10Z</time>
      </trkpt>
      <trkpt lat="60.0399878" lon="17.5130938">
        <ele>35.2255</ele>
        <time>2013-05-05T11:10:11Z</time>
      </trkpt>
      <trkpt lat="60.0399505" lon="17.5132764">
        <ele>34.7449</ele>
        <time>2013-05-05T11:10:12Z</time>
      </trkpt>
      <trkpt lat="60.0399166" lon="17.5134606">
        <ele>34.2642</ele>
        <time>2013-05-05T11:10:13Z</time>
      </trkpt>
      <trkpt lat="60.0398783" lon="17.5136401">
        <ele>33.7834</ele>
        <time>2013-05-05T11:10:14Z</time>
      </trkpt>
      <trkpt lat="60.0398391" lon="17.5138185">
        <ele>33.3029</ele>
        <time>2013-05-05T11:10:15Z</time>
      </trkpt>
      <trkpt lat="60.0398007" lon="17.5139967">
        <ele>32.8223</ele>
        <time>2013-05-05T11:10:16Z</time>
      </trkpt>
      <trkpt lat="60.0397638" lon="17.5141759">
        <ele>32.3416</ele>
        <time>2013-05-05T11:10:17Z</time>
      </trkpt>
      <trkpt lat="60.0397269" lon="17.5143539">
        <ele>32.3416</ele>
        <time>2013-05-05T11:10:18Z</time>
      </trkpt>
      <trkpt lat="60.0396891" lon="17.5145323">
        <ele>31.8607</ele>
        <time>2013-05-05T11:10:19Z</time>
      </trkpt>
      <trkpt lat="60.0396525" lon="17.5147129">
        <ele>31.3801</ele>
        <time>2013-05-05T11:10:20Z</time>
      </trkpt>
      <trkpt lat="60.0396163" lon="17.5148871">
        <ele>30.4188</ele>
        <time>2013-05-05T11:10:21Z</time>
      </trkpt>
      <trkpt lat="60.039579" lon="17.515061">
        <ele>29.9381</ele>
        <time>2013-05-05T11:10:22Z</time>
      </trkpt>
      <trkpt lat="60.0395408" lon="17.5152366">
        <ele>29.9381</ele>
        <time>2013-05-05T11:10:23Z</time>
      </trkpt>
      <trkpt lat="60.0395023" lon="17.5154109">
        <ele>29.4575</ele>
        <time>2013-05-05T11:10:24Z</time>
      </trkpt>
      <trkpt lat="60.0394644" lon="17.5155828">
        <ele>29.4575</ele>
        <time>2013-05-05T11:10:25Z</time>
      </trkpt>
      <trkpt lat="60.0394255" lon="17.515751">
        <ele>29.4575</ele>
        <time>2013-05-05T11:10:26Z</time>
      </trkpt>
      <trkpt lat="60.0393868" lon="17.5159186">
        <ele>28.9769</ele>
        <time>2013-05-05T11:10:27Z</time>
      </trkpt>
      <trkpt lat="60.0393494" lon="17.5160885">
        <ele>28.9769</ele>
        <time>2013-05-05T11:10:28Z</time>
      </trkpt>
      <trkpt lat="60.039306" lon="17.5162617">
        <ele>28.9769</ele>
        <time>2013-05-05T11:10:29Z</time>
      </trkpt>
      <trkpt lat="60.0392675" lon="17.5164323">
        <ele>28.9769</ele>
        <time>2013-05-05T11:10:30Z</time>
      </trkpt>
      <trkpt lat="60.0392237" lon="17.5166015">
        <ele>28.9769</ele>
        <time>2013-05-05T11:10:31Z</time>
      </trkpt>
      <trkpt lat="60.0391818" lon="17.5167702">
        <ele>28.9769</ele>
        <time>2013-05-05T11:10:32Z</time>
      </trkpt>
      <trkpt lat="60.0391407" lon="17.5169364">
        <ele>29.4575</ele>
        <time>2013-05-05T11:10:33Z</time>
      </trkpt>
      <trkpt lat="60.0391009" lon="17.5171009">
        <ele>29.4575</ele>
        <time>2013-05-05T11:10:34Z</time>
      </trkpt>
      <trkpt lat="60.0390632" lon="17.5172682">
        <ele>29.4575</ele>
        <time>2013-05-05T11:10:35Z</time>
      </trkpt>
      <trkpt lat="60.0390271" lon="17.5174335">
        <ele>29.9381</ele>
        <time>2013-05-05T11:10:36Z</time>
      </trkpt>
      <trkpt lat="60.0389909" lon="17.517601">
        <ele>29.9381</ele>
        <time>2013-05-05T11:10:37Z</time>
      </trkpt>
      <trkpt lat="60.0389537" lon="17.5177718">
        <ele>30.4188</ele>
        <time>2013-05-05T11:10:38Z</time>
      </trkpt>
      <trkpt lat="60.0389148" lon="17.5179419">
        <ele>29.9381</ele>
        <time>2013-05-05T11:10:39Z</time>
      </trkpt>
      <trkpt lat="60.0388761" lon="17.5181133">
        <ele>29.9381</ele>
        <time>2013-05-05T11:10:40Z</time>
      </trkpt>
      <trkpt lat="60.0388383" lon="17.5182858">
        <ele>29.9381</ele>
        <time>2013-05-05T11:10:41Z</time>
      </trkpt>
      <trkpt lat="60.0388002" lon="17.5184589">
        <ele>29.9381</ele>
        <time>2013-05-05T11:10:42Z</time>
      </trkpt>
      <trkpt lat="60.0387612" lon="17.5186406">
        <ele>29.9381</ele>
        <time>2013-05-05T11:10:43Z</time>
      </trkpt>
      <trkpt lat="60.0387218" lon="17.5188249">
        <ele>30.4188</ele>
        <time>2013-05-05T11:10:44Z</time>
      </trkpt>
      <trkpt lat="60.0386808" lon="17.5190084">
        <ele>30.4188</ele>
        <time>2013-05-05T11:10:45Z</time>
      </trkpt>
      <trkpt lat="60.0386384" lon="17.5191871">
        <ele>30.8995</ele>
        <time>2013-05-05T11:10:46Z</time>
      </trkpt>
      <trkpt lat="60.0385953" lon="17.5193612">
        <ele>31.3801</ele>
        <time>2013-05-05T11:10:47Z</time>
      </trkpt>
      <trkpt lat="60.0385487" lon="17.5195324">
        <ele>30.8995</ele>
        <time>2013-05-05T11:10:48Z</time>
      </trkpt>
      <trkpt lat="60.0385018" lon="17.5196998">
        <ele>30.8995</ele>
        <time>2013-05-05T11:10:49Z</time>
      </trkpt>
      <trkpt lat="60.0384544" lon="17.5198611">
        <ele>30.8995</ele>
        <time>2013-05-05T11:10:50Z</time>
      </trkpt>
      <trkpt lat="60.0384083" lon="17.5200124">
        <ele>30.8995</ele>
        <time>2013-05-05T11:10:51Z</time>
      </trkpt>
      <trkpt lat="60.0383604" lon="17.520154">
        <ele>30.8995</ele>
        <time>2013-05-05T11:10:52Z</time>
      </trkpt>
      <trkpt lat="60.0383109" lon="17.5202853">
        <ele>31.3801</ele>
        <time>2013-05-05T11:10:53Z</time>
      </trkpt>
      <trkpt lat="60.0382597" lon="17.5204169">
        <ele>31.3801</ele>
        <time>2013-05-05T11:10:54Z</time>
      </trkpt>
      <trkpt lat="60.0382081" lon="17.5205521">
        <ele>30.8995</ele>
        <time>2013-05-05T11:10:55Z</time>
      </trkpt>
      <trkpt lat="60.038155" lon="17.5206945">
        <ele>30.8995</ele>
        <time>2013-05-05T11:10:56Z</time>
      </trkpt>
      <trkpt lat="60.0381001" lon="17.5208391">
        <ele>30.8995</ele>
        <time>2013-05-05T11:10:57Z</time>
      </trkpt>
      <trkpt lat="60.0380462" lon="17.5209877">
        <ele>30.8995</ele>
        <time>2013-05-05T11:10:58Z</time>
      </trkpt>
      <trkpt lat="60.0379914" lon="17.5211411">
        <ele>30.4188</ele>
        <time>2013-05-05T11:10:59Z</time>
      </trkpt>
      <trkpt lat="60.0379365" lon="17.5212937">
        <ele>30.4188</ele>
        <time>2013-05-05T11:11:00Z</time>
      </trkpt>
      <trkpt lat="60.0378795" lon="17.5214425">
        <ele>29.9381</ele>
        <time>2013-05-05T11:11:01Z</time>
      </trkpt>
      <trkpt lat="60.0378188" lon="17.5215894">
        <ele>29.9381</ele>
        <time>2013-05-05T11:11:02Z</time>
      </trkpt>
      <trkpt lat="60.0377572" lon="17.5217367">
        <ele>29.9381</ele>
        <time>2013-05-05T11:11:03Z</time>
      </trkpt>
      <trkpt lat="60.0376974" lon="17.5218858">
        <ele>29.4575</ele>
        <time>2013-05-05T11:11:04Z</time>
      </trkpt>
      <trkpt lat="60.0376406" lon="17.5220355">
        <ele>28.9769</ele>
        <time>2013-05-05T11:11:05Z</time>
      </trkpt>
      <trkpt lat="60.0375862" lon="17.5221838">
        <ele>28.4962</ele>
        <time>2013-05-05T11:11:06Z</time>
      </trkpt>
      <trkpt lat="60.0375308" lon="17.5223391">
        <ele>28.4962</ele>
        <time>2013-05-05T11:11:07Z</time>
      </trkpt>
      <trkpt lat="60.037478" lon="17.5224773">
        <ele>28.0155</ele>
        <time>2013-05-05T11:11:08Z</time>
      </trkpt>
      <trkpt lat="60.0374261" lon="17.5226156">
        <ele>28.0155</ele>
        <time>2013-05-05T11:11:09Z</time>
      </trkpt>
      <trkpt lat="60.0373754" lon="17.5227557">
        <ele>28.0155</ele>
        <time>2013-05-05T11:11:10Z</time>
      </trkpt>
      <trkpt lat="60.037325" lon="17.5228981">
        <ele>28.0155</ele>
        <time>2013-05-05T11:11:11Z</time>
      </trkpt>
      <trkpt lat="60.0372737" lon="17.5230425">
        <ele>28.4962</ele>
        <time>2013-05-05T11:11:12Z</time>
      </trkpt>
      <trkpt lat="60.0372226" lon="17.5231751">
        <ele>28.4962</ele>
        <time>2013-05-05T11:11:13Z</time>
      </trkpt>
      <trkpt lat="60.0371696" lon="17.5233036">
        <ele>28.4962</ele>
        <time>2013-05-05T11:11:14Z</time>
      </trkpt>
      <trkpt lat="60.0371125" lon="17.5234171">
        <ele>29.4575</ele>
        <time>2013-05-05T11:11:15Z</time>
      </trkpt>
      <trkpt lat="60.0370583" lon="17.5235534">
        <ele>29.4575</ele>
        <time>2013-05-05T11:11:16Z</time>
      </trkpt>
      <trkpt lat="60.0370089" lon="17.5236827">
        <ele>29.9381</ele>
        <time>2013-05-05T11:11:17Z</time>
      </trkpt>
      <trkpt lat="60.0369636" lon="17.5238196">
        <ele>29.9381</ele>
        <time>2013-05-05T11:11:18Z</time>
      </trkpt>
      <trkpt lat="60.0369221" lon="17.5239402">
        <ele>29.9381</ele>
        <time>2013-05-05T11:11:19Z</time>
      </trkpt>
      <trkpt lat="60.0368921" lon="17.5240455">
        <ele>30.4188</ele>
        <time>2013-05-05T11:11:20Z</time>
      </trkpt>
      <trkpt lat="60.0368589" lon="17.5241387">
        <ele>30.4188</ele>
        <time>2013-05-05T11:11:21Z</time>
      </trkpt>
      <trkpt lat="60.0368238" lon="17.5242448">
        <ele>31.3801</ele>
        <time>2013-05-05T11:11:22Z</time>
      </trkpt>
      <trkpt lat="60.0367792" lon="17.5243575">
        <ele>31.8607</ele>
        <time>2013-05-05T11:11:23Z</time>
      </trkpt>
      <trkpt lat="60.0367188" lon="17.5244773">
        <ele>32.8223</ele>
        <time>2013-05-05T11:11:24Z</time>
      </trkpt>
      <trkpt lat="60.0366663" lon="17.5245796">
        <ele>31.8607</ele>
        <time>2013-05-05T11:11:25Z</time>
      </trkpt>
      <trkpt lat="60.036623" lon="17.5246811">
        <ele>31.3801</ele>
        <time>2013-05-05T11:11:26Z</time>
      </trkpt>
      <trkpt lat="60.0365848" lon="17.5247692">
        <ele>30.8995</ele>
        <time>2013-05-05T11:11:27Z</time>
      </trkpt>
      <trkpt lat="60.0365236" lon="17.5248918">
        <ele>29.9381</ele>
        <time>2013-05-05T11:11:28Z</time>
      </trkpt>
      <trkpt lat="60.0364604" lon="17.525013">
        <ele>29.4575</ele>
        <time>2013-05-05T11:11:29Z</time>
      </trkpt>
      <trkpt lat="60.0363847" lon="17.5251461">
        <ele>28.9769</ele>
        <time>2013-05-05T11:11:30Z</time>
      </trkpt>
      <trkpt lat="60.0363114" lon="17.5252785">
        <ele>28.4962</ele>
        <time>2013-05-05T11:11:31Z</time>
      </trkpt>
      <trkpt lat="60.0362397" lon="17.5254139">
        <ele>28.4962</ele>
        <time>2013-05-05T11:11:32Z</time>
      </trkpt>
      <trkpt lat="60.0361679" lon="17.5255524">
        <ele>28.0155</ele>
        <time>2013-05-05T11:11:33Z</time>
      </trkpt>
      <trkpt lat="60.0360963" lon="17.5256902">
        <ele>28.0155</ele>
        <time>2013-05-05T11:11:34Z</time>
      </trkpt>
      <trkpt lat="60.0360249" lon="17.5258249">
        <ele>28.0155</ele>
        <time>2013-05-05T11:11:35Z</time>
      </trkpt>
      <trkpt lat="60.0359543" lon="17.5259594">
        <ele>28.0155</ele>
        <time>2013-05-05T11:11:36Z</time>
      </trkpt>
      <trkpt lat="60.0358864" lon="17.5260939">
        <ele>27.5349</ele>
        <time>2013-05-05T11:11:37Z</time>
      </trkpt>
      <trkpt lat="60.0358214" lon="17.5262273">
        <ele>27.5349</ele>
        <time>2013-05-05T11:11:38Z</time>
      </trkpt>
      <trkpt lat="60.0357585" lon="17.5263613">
        <ele>27.5349</ele>
        <time>2013-05-05T11:11:39Z</time>
      </trkpt>
      <trkpt lat="60.0356979" lon="17.5264962">
        <ele>27.0543</ele>
        <time>2013-05-05T11:11:40Z</time>
      </trkpt>
      <trkpt lat="60.0356417" lon="17.5266352">
        <ele>27.5349</ele>
        <time>2013-05-05T11:11:41Z</time>
      </trkpt>
      <trkpt lat="60.035588" lon="17.5267764">
        <ele>27.5349</ele>
        <time>2013-05-05T11:11:42Z</time>
      </trkpt>
      <trkpt lat="60.0355373" lon="17.5269154">
        <ele>27.5349</ele>
        <time>2013-05-05T11:11:43Z</time>
      </trkpt>
      <trkpt lat="60.0354891" lon="17.5270567">
        <ele>28.0155</ele>
        <time>2013-05-05T11:11:44Z</time>
      </trkpt>
      <trkpt lat="60.0354432" lon="17.5271998">
        <ele>28.9769</ele>
        <time>2013-05-05T11:11:45Z</time>
      </trkpt>
      <trkpt lat="60.0354003" lon="17.5273433">
        <ele>29.4575</ele>
        <time>2013-05-05T11:11:46Z</time>
      </trkpt>
      <trkpt lat="60.0353603" lon="17.5274862">
        <ele>29.9381</ele>
        <time>2013-05-05T11:11:47Z</time>
      </trkpt>
      <trkpt lat="60.0353244" lon="17.5276225">
        <ele>29.9381</ele>
        <time>2013-05-05T11:11:48Z</time>
      </trkpt>
      <trkpt lat="60.0352928" lon="17.5277631">
        <ele>29.9381</ele>
        <time>2013-05-05T11:11:49Z</time>
      </trkpt>
      <trkpt lat="60.0352653" lon="17.5279068">
        <ele>30.4188</ele>
        <time>2013-05-05T11:11:50Z</time>
      </trkpt>
      <trkpt lat="60.0352375" lon="17.5280552">
        <ele>30.8995</ele>
        <time>2013-05-05T11:11:51Z</time>
      </trkpt>
      <trkpt lat="60.0352106" lon="17.5282024">
        <ele>31.3801</ele>
        <time>2013-05-05T11:11:52Z</time>
      </trkpt>
      <trkpt lat="60.0351866" lon="17.5283497">
        <ele>31.8607</ele>
        <time>2013-05-05T11:11:53Z</time>
      </trkpt>
      <trkpt lat="60.035165" lon="17.5284982">
        <ele>32.8223</ele>
        <time>2013-05-05T11:11:54Z</time>
      </trkpt>
      <trkpt lat="60.0351434" lon="17.5286512">
        <ele>33.3029</ele>
        <time>2013-05-05T11:11:55Z</time>
      </trkpt>
      <trkpt lat="60.0351221" lon="17.528806">
        <ele>33.3029</ele>
        <time>2013-05-05T11:11:56Z</time>
      </trkpt>
      <trkpt lat="60.0351004" lon="17.5289651">
        <ele>33.3029</ele>
        <time>2013-05-05T11:11:57Z</time>
      </trkpt>
      <trkpt lat="60.0350764" lon="17.5291276">
        <ele>32.8223</ele>
        <time>2013-05-05T11:11:58Z</time>
      </trkpt>
      <trkpt lat="60.0350535" lon="17.5292945">
        <ele>32.8223</ele>
        <time>2013-05-05T11:11:59Z</time>
      </trkpt>
      <trkpt lat="60.0350302" lon="17.5294611">
        <ele>32.8223</ele>
        <time>2013-05-05T11:12:00Z</time>
      </trkpt>
      <trkpt lat="60.0350051" lon="17.5296251">
        <ele>32.3416</ele>
        <time>2013-05-05T11:12:01Z</time>
      </trkpt>
      <trkpt lat="60.0349801" lon="17.5297839">
        <ele>32.3416</ele>
        <time>2013-05-05T11:12:02Z</time>
      </trkpt>
      <trkpt lat="60.0349526" lon="17.5299389">
        <ele>31.8607</ele>
        <time>2013-05-05T11:12:03Z</time>
      </trkpt>
      <trkpt lat="60.0349241" lon="17.5300911">
        <ele>31.3801</ele>
        <time>2013-05-05T11:12:04Z</time>
      </trkpt>
      <trkpt lat="60.0348956" lon="17.5302429">
        <ele>30.8995</ele>
        <time>2013-05-05T11:12:05Z</time>
      </trkpt>
      <trkpt lat="60.0348646" lon="17.5303982">
        <ele>30.8995</ele>
        <time>2013-05-05T11:12:06Z</time>
      </trkpt>
      <trkpt lat="60.0348297" lon="17.5305584">
        <ele>30.4188</ele>
        <time>2013-05-05T11:12:07Z</time>
      </trkpt>
      <trkpt lat="60.0347915" lon="17.5307192">
        <ele>30.4188</ele>
        <time>2013-05-05T11:12:08Z</time>
      </trkpt>
      <trkpt lat="60.0347496" lon="17.5308779">
        <ele>29.9381</ele>
        <time>2013-05-05T11:12:09Z</time>
      </trkpt>
      <trkpt lat="60.0347044" lon="17.5310325">
        <ele>29.4575</ele>
        <time>2013-05-05T11:12:10Z</time>
      </trkpt>
      <trkpt lat="60.0346579" lon="17.5311869">
        <ele>29.4575</ele>
        <time>2013-05-05T11:12:11Z</time>
      </trkpt>
      <trkpt lat="60.0346077" lon="17.5313408">
        <ele>28.9769</ele>
        <time>2013-05-05T11:12:12Z</time>
      </trkpt>
      <trkpt lat="60.0345533" lon="17.531494">
        <ele>28.4962</ele>
        <time>2013-05-05T11:12:13Z</time>
      </trkpt>
      <trkpt lat="60.0344974" lon="17.5316485">
        <ele>28.0155</ele>
        <time>2013-05-05T11:12:14Z</time>
      </trkpt>
      <trkpt lat="60.0344412" lon="17.5318021">
        <ele>27.5349</ele>
        <time>2013-05-05T11:12:15Z</time>
      </trkpt>
      <trkpt lat="60.034384" lon="17.5319565">
        <ele>27.5349</ele>
        <time>2013-05-05T11:12:16Z</time>
      </trkpt>
      <trkpt lat="60.0343273" lon="17.5321123">
        <ele>27.0543</ele>
        <time>2013-05-05T11:12:17Z</time>
      </trkpt>
      <trkpt lat="60.0342719" lon="17.5322657">
        <ele>26.5736</ele>
        <time>2013-05-05T11:12:18Z</time>
      </trkpt>
      <trkpt lat="60.0342176" lon="17.5324179">
        <ele>26.5736</ele>
        <time>2013-05-05T11:12:19Z</time>
      </trkpt>
      <trkpt lat="60.0341653" lon="17.5325704">
        <ele>26.0929</ele>
        <time>2013-05-05T11:12:20Z</time>
      </trkpt>
      <trkpt lat="60.0341149" lon="17.532722">
        <ele>26.0929</ele>
        <time>2013-05-05T11:12:21Z</time>
      </trkpt>
      <trkpt lat="60.0340668" lon="17.5328719">
        <ele>26.0929</ele>
        <time>2013-05-05T11:12:22Z</time>
      </trkpt>
      <trkpt lat="60.0340201" lon="17.533017">
        <ele>25.6123</ele>
        <time>2013-05-05T11:12:23Z</time>
      </trkpt>
      <trkpt lat="60.0339734" lon="17.5331571">
        <ele>25.6123</ele>
        <time>2013-05-05T11:12:24Z</time>
      </trkpt>
      <trkpt lat="60.0339315" lon="17.5332997">
        <ele>25.6123</ele>
        <time>2013-05-05T11:12:25Z</time>
      </trkpt>
      <trkpt lat="60.0338959" lon="17.5334477">
        <ele>25.6123</ele>
        <time>2013-05-05T11:12:26Z</time>
      </trkpt>
      <trkpt lat="60.0338648" lon="17.5335967">
        <ele>25.6123</ele>
        <time>2013-05-05T11:12:27Z</time>
      </trkpt>
      <trkpt lat="60.033837" lon="17.5337411">
        <ele>25.6123</ele>
        <time>2013-05-05T11:12:28Z</time>
      </trkpt>
      <trkpt lat="60.0338068" lon="17.533873">
        <ele>26.0929</ele>
        <time>2013-05-05T11:12:29Z</time>
      </trkpt>
      <trkpt lat="60.0337679" lon="17.5339845">
        <ele>26.0929</ele>
        <time>2013-05-05T11:12:30Z</time>
      </trkpt>
      <trkpt lat="60.0337167" lon="17.534068">
        <ele>26.0929</ele>
        <time>2013-05-05T11:12:31Z</time>
      </trkpt>
      <trkpt lat="60.0336533" lon="17.5341141">
        <ele>26.0929</ele>
        <time>2013-05-05T11:12:32Z</time>
      </trkpt>
      <trkpt lat="60.0335826" lon="17.5341232">
        <ele>26.5736</ele>
        <time>2013-05-05T11:12:33Z</time>
      </trkpt>
      <trkpt lat="60.0335083" lon="17.5341058">
        <ele>26.0929</ele>
        <time>2013-05-05T11:12:34Z</time>
      </trkpt>
      <trkpt lat="60.0334322" lon="17.5340752">
        <ele>25.6123</ele>
        <time>2013-05-05T11:12:35Z</time>
      </trkpt>
      <trkpt lat="60.0333546" lon="17.5340447">
        <ele>25.1317</ele>
        <time>2013-05-05T11:12:36Z</time>
      </trkpt>
      <trkpt lat="60.0332737" lon="17.5340146">
        <ele>25.1317</ele>
        <time>2013-05-05T11:12:37Z</time>
      </trkpt>
      <trkpt lat="60.0331878" lon="17.5339857">
        <ele>25.1317</ele>
        <time>2013-05-05T11:12:38Z</time>
      </trkpt>
      <trkpt lat="60.0331009" lon="17.5339574">
        <ele>25.1317</ele>
        <time>2013-05-05T11:12:39Z</time>
      </trkpt>
      <trkpt lat="60.0330112" lon="17.5339272">
        <ele>25.1317</ele>
        <time>2013-05-05T11:12:40Z</time>
      </trkpt>
      <trkpt lat="60.0329201" lon="17.5338955">
        <ele>25.6123</ele>
        <time>2013-05-05T11:12:41Z</time>
      </trkpt>
      <trkpt lat="60.0328278" lon="17.5338692">
        <ele>25.6123</ele>
        <time>2013-05-05T11:12:42Z</time>
      </trkpt>
      <trkpt lat="60.032736" lon="17.5338453">
        <ele>26.0929</ele>
        <time>2013-05-05T11:12:43Z</time>
      </trkpt>
      <trkpt lat="60.0326444" lon="17.5338207">
        <ele>26.0929</ele>
        <time>2013-05-05T11:12:44Z</time>
      </trkpt>
      <trkpt lat="60.0325532" lon="17.5337963">
        <ele>26.5736</ele>
        <time>2013-05-05T11:12:45Z</time>
      </trkpt>
      <trkpt lat="60.0324605" lon="17.5337777">
        <ele>26.5736</ele>
        <time>2013-05-05T11:12:46Z</time>
      </trkpt>
      <trkpt lat="60.0323693" lon="17.533757">
        <ele>27.0543</ele>
        <time>2013-05-05T11:12:47Z</time>
      </trkpt>
      <trkpt lat="60.0322827" lon="17.5337287">
        <ele>27.0543</ele>
        <time>2013-05-05T11:12:48Z</time>
      </trkpt>
      <trkpt lat="60.0321962" lon="17.533705">
        <ele>27.0543</ele>
        <time>2013-05-05T11:12:49Z</time>
      </trkpt>
      <trkpt lat="60.0321103" lon="17.5336789">
        <ele>27.0543</ele>
        <time>2013-05-05T11:12:50Z</time>
      </trkpt>
      <trkpt lat="60.0320248" lon="17.5336509">
        <ele>27.5349</ele>
        <time>2013-05-05T11:12:51Z</time>
      </trkpt>
      <trkpt lat="60.0319363" lon="17.5336298">
        <ele>27.5349</ele>
        <time>2013-05-05T11:12:52Z</time>
      </trkpt>
      <trkpt lat="60.0318466" lon="17.5336085">
        <ele>27.0543</ele>
        <time>2013-05-05T11:12:53Z</time>
      </trkpt>
      <trkpt lat="60.0317589" lon="17.5335842">
        <ele>27.0543</ele>
        <time>2013-05-05T11:12:54Z</time>
      </trkpt>
      <trkpt lat="60.0316715" lon="17.5335583">
        <ele>26.5736</ele>
        <time>2013-05-05T11:12:55Z</time>
      </trkpt>
      <trkpt lat="60.0315825" lon="17.5335339">
        <ele>26.5736</ele>
        <time>2013-05-05T11:12:56Z</time>
      </trkpt>
      <trkpt lat="60.0314928" lon="17.5335141">
        <ele>26.5736</ele>
        <time>2013-05-05T11:12:57Z</time>
      </trkpt>
      <trkpt lat="60.0314053" lon="17.5334956">
        <ele>26.5736</ele>
        <time>2013-05-05T11:12:58Z</time>
      </trkpt>
      <trkpt lat="60.0313207" lon="17.5334759">
        <ele>26.0929</ele>
        <time>2013-05-05T11:12:59Z</time>
      </trkpt>
      <trkpt lat="60.0312374" lon="17.5334552">
        <ele>26.0929</ele>
        <time>2013-05-05T11:13:00Z</time>
      </trkpt>
      <trkpt lat="60.0311539" lon="17.5334329">
        <ele>26.0929</ele>
        <time>2013-05-05T11:13:01Z</time>
      </trkpt>
      <trkpt lat="60.0310699" lon="17.533412">
        <ele>26.0929</ele>
        <time>2013-05-05T11:13:02Z</time>
      </trkpt>
      <trkpt lat="60.0309862" lon="17.5333942">
        <ele>26.0929</ele>
        <time>2013-05-05T11:13:03Z</time>
      </trkpt>
      <trkpt lat="60.0309034" lon="17.5333769">
        <ele>26.0929</ele>
        <time>2013-05-05T11:13:04Z</time>
      </trkpt>
      <trkpt lat="60.0308221" lon="17.5333595">
        <ele>26.0929</ele>
        <time>2013-05-05T11:13:05Z</time>
      </trkpt>
      <trkpt lat="60.030742" lon="17.5333427">
        <ele>26.0929</ele>
        <time>2013-05-05T11:13:06Z</time>
      </trkpt>
      <trkpt lat="60.030663" lon="17.5333215">
        <ele>26.0929</ele>
        <time>2013-05-05T11:13:07Z</time>
      </trkpt>
      <trkpt lat="60.0305846" lon="17.5332983">
        <ele>26.0929</ele>
        <time>2013-05-05T11:13:08Z</time>
      </trkpt>
      <trkpt lat="60.0305058" lon="17.533276">
        <ele>26.5736</ele>
        <time>2013-05-05T11:13:09Z</time>
      </trkpt>
      <trkpt lat="60.0304283" lon="17.5332546">
        <ele>26.5736</ele>
        <time>2013-05-05T11:13:10Z</time>
      </trkpt>
      <trkpt lat="60.0303507" lon="17.5332351">
        <ele>26.5736</ele>
        <time>2013-05-05T11:13:11Z</time>
      </trkpt>
      <trkpt lat="60.030274" lon="17.5332121">
        <ele>26.5736</ele>
        <time>2013-05-05T11:13:12Z</time>
      </trkpt>
      <trkpt lat="60.0301972" lon="17.5331893">
        <ele>27.0543</ele>
        <time>2013-05-05T11:13:13Z</time>
      </trkpt>
      <trkpt lat="60.0301206" lon="17.5331707">
        <ele>27.0543</ele>
        <time>2013-05-05T11:13:14Z</time>
      </trkpt>
      <trkpt lat="60.030045" lon="17.5331546">
        <ele>27.5349</ele>
        <time>2013-05-05T11:13:15Z</time>
      </trkpt>
      <trkpt lat="60.02997" lon="17.5331427">
        <ele>27.5349</ele>
        <time>2013-05-05T11:13:16Z</time>
      </trkpt>
      <trkpt lat="60.0298949" lon="17.5331366">
        <ele>27.5349</ele>
        <time>2013-05-05T11:13:17Z</time>
      </trkpt>
      <trkpt lat="60.0298186" lon="17.533135">
        <ele>27.5349</ele>
        <time>2013-05-05T11:13:18Z</time>
      </trkpt>
      <trkpt lat="60.029742" lon="17.5331375">
        <ele>27.5349</ele>
        <time>2013-05-05T11:13:19Z</time>
      </trkpt>
      <trkpt lat="60.0296657" lon="17.5331442">
        <ele>27.5349</ele>
        <time>2013-05-05T11:13:20Z</time>
      </trkpt>
      <trkpt lat="60.0295897" lon="17.533152">
        <ele>27.5349</ele>
        <time>2013-05-05T11:13:21Z</time>
      </trkpt>
      <trkpt lat="60.0295136" lon="17.53316">
        <ele>27.5349</ele>
        <time>2013-05-05T11:13:22Z</time>
      </trkpt>
      <trkpt lat="60.0294374" lon="17.5331722">
        <ele>27.5349</ele>
        <time>2013-05-05T11:13:23Z</time>
      </trkpt>
      <trkpt lat="60.0293607" lon="17.5331904">
        <ele>27.5349</ele>
        <time>2013-05-05T11:13:24Z</time>
      </trkpt>
      <trkpt lat="60.0292836" lon="17.5332115">
        <ele>27.5349</ele>
        <time>2013-05-05T11:13:25Z</time>
      </trkpt>
      <trkpt lat="60.0292058" lon="17.5332308">
        <ele>27.5349</ele>
        <time>2013-05-05T11:13:26Z</time>
      </trkpt>
      <trkpt lat="60.0291281" lon="17.533249">
        <ele>27.5349</ele>
        <time>2013-05-05T11:13:27Z</time>
      </trkpt>
      <trkpt lat="60.0290504" lon="17.5332667">
        <ele>27.5349</ele>
        <time>2013-05-05T11:13:28Z</time>
      </trkpt>
      <trkpt lat="60.0289732" lon="17.5332862">
        <ele>27.5349</ele>
        <time>2013-05-05T11:13:29Z</time>
      </trkpt>
      <trkpt lat="60.0288955" lon="17.5333056">
        <ele>27.5349</ele>
        <time>2013-05-05T11:13:30Z</time>
      </trkpt>
      <trkpt lat="60.0288176" lon="17.5333244">
        <ele>27.5349</ele>
        <time>2013-05-05T11:13:31Z</time>
      </trkpt>
      <trkpt lat="60.0287399" lon="17.5333447">
        <ele>28.0155</ele>
        <time>2013-05-05T11:13:32Z</time>
      </trkpt>
      <trkpt lat="60.0286626" lon="17.5333635">
        <ele>28.0155</ele>
        <time>2013-05-05T11:13:33Z</time>
      </trkpt>
      <trkpt lat="60.0285858" lon="17.5333815">
        <ele>28.0155</ele>
        <time>2013-05-05T11:13:34Z</time>
      </trkpt>
      <trkpt lat="60.0285091" lon="17.5334028">
        <ele>28.0155</ele>
        <time>2013-05-05T11:13:35Z</time>
      </trkpt>
      <trkpt lat="60.0284298" lon="17.5334241">
        <ele>28.0155</ele>
        <time>2013-05-05T11:13:36Z</time>
      </trkpt>
      <trkpt lat="60.0283494" lon="17.5334432">
        <ele>27.5349</ele>
        <time>2013-05-05T11:13:37Z</time>
      </trkpt>
      <trkpt lat="60.0282678" lon="17.5334636">
        <ele>27.5349</ele>
        <time>2013-05-05T11:13:38Z</time>
      </trkpt>
      <trkpt lat="60.0281854" lon="17.5334859">
        <ele>27.0543</ele>
        <time>2013-05-05T11:13:39Z</time>
      </trkpt>
      <trkpt lat="60.0281021" lon="17.5335068">
        <ele>27.0543</ele>
        <time>2013-05-05T11:13:40Z</time>
      </trkpt>
      <trkpt lat="60.0280185" lon="17.5335267">
        <ele>27.0543</ele>
        <time>2013-05-05T11:13:41Z</time>
      </trkpt>
      <trkpt lat="60.0279341" lon="17.5335472">
        <ele>27.0543</ele>
        <time>2013-05-05T11:13:42Z</time>
      </trkpt>
      <trkpt lat="60.0278491" lon="17.5335671">
        <ele>27.0543</ele>
        <time>2013-05-05T11:13:43Z</time>
      </trkpt>
      <trkpt lat="60.0277635" lon="17.5335871">
        <ele>27.0543</ele>
        <time>2013-05-05T11:13:44Z</time>
      </trkpt>
      <trkpt lat="60.0276776" lon="17.5336068">
        <ele>27.0543</ele>
        <time>2013-05-05T11:13:45Z</time>
      </trkpt>
      <trkpt lat="60.0275917" lon="17.533628">
        <ele>26.5736</ele>
        <time>2013-05-05T11:13:46Z</time>
      </trkpt>
      <trkpt lat="60.0275057" lon="17.5336508">
        <ele>26.5736</ele>
        <time>2013-05-05T11:13:47Z</time>
      </trkpt>
      <trkpt lat="60.0274192" lon="17.5336733">
        <ele>26.5736</ele>
        <time>2013-05-05T11:13:48Z</time>
      </trkpt>
      <trkpt lat="60.027332" lon="17.5336931">
        <ele>26.5736</ele>
        <time>2013-05-05T11:13:49Z</time>
      </trkpt>
      <trkpt lat="60.0272441" lon="17.5337148">
        <ele>27.0543</ele>
        <time>2013-05-05T11:13:50Z</time>
      </trkpt>
      <trkpt lat="60.0271551" lon="17.5337397">
        <ele>27.0543</ele>
        <time>2013-05-05T11:13:51Z</time>
      </trkpt>
      <trkpt lat="60.027067" lon="17.5337629">
        <ele>27.0543</ele>
        <time>2013-05-05T11:13:52Z</time>
      </trkpt>
      <trkpt lat="60.0269788" lon="17.533784">
        <ele>27.0543</ele>
        <time>2013-05-05T11:13:53Z</time>
      </trkpt>
      <trkpt lat="60.0268919" lon="17.5338033">
        <ele>27.0543</ele>
        <time>2013-05-05T11:13:54Z</time>
      </trkpt>
      <trkpt lat="60.0268078" lon="17.5338213">
        <ele>27.0543</ele>
        <time>2013-05-05T11:13:55Z</time>
      </trkpt>
      <trkpt lat="60.0267262" lon="17.5338375">
        <ele>27.5349</ele>
        <time>2013-05-05T11:13:56Z</time>
      </trkpt>
      <trkpt lat="60.0266453" lon="17.5338549">
        <ele>27.5349</ele>
        <time>2013-05-05T11:13:57Z</time>
      </trkpt>
      <trkpt lat="60.0265656" lon="17.5338732">
        <ele>27.5349</ele>
        <time>2013-05-05T11:13:58Z</time>
      </trkpt>
      <trkpt lat="60.0264867" lon="17.533894">
        <ele>27.5349</ele>
        <time>2013-05-05T11:13:59Z</time>
      </trkpt>
      <trkpt lat="60.0264069" lon="17.5339188">
        <ele>27.5349</ele>
        <time>2013-05-05T11:14:00Z</time>
      </trkpt>
      <trkpt lat="60.0263253" lon="17.5339477">
        <ele>27.0543</ele>
        <time>2013-05-05T11:14:01Z</time>
      </trkpt>
      <trkpt lat="60.0262433" lon="17.5339805">
        <ele>27.0543</ele>
        <time>2013-05-05T11:14:02Z</time>
      </trkpt>
      <trkpt lat="60.0261621" lon="17.5340193">
        <ele>26.5736</ele>
        <time>2013-05-05T11:14:03Z</time>
      </trkpt>
      <trkpt lat="60.0260833" lon="17.534071">
        <ele>26.0929</ele>
        <time>2013-05-05T11:14:04Z</time>
      </trkpt>
      <trkpt lat="60.0260056" lon="17.5341364">
        <ele>26.0929</ele>
        <time>2013-05-05T11:14:05Z</time>
      </trkpt>
      <trkpt lat="60.0259294" lon="17.5342061">
        <ele>25.6123</ele>
        <time>2013-05-05T11:14:06Z</time>
      </trkpt>
      <trkpt lat="60.0258559" lon="17.5342705">
        <ele>25.6123</ele>
        <time>2013-05-05T11:14:07Z</time>
      </trkpt>
      <trkpt lat="60.0257859" lon="17.5343455">
        <ele>25.6123</ele>
        <time>2013-05-05T11:14:08Z</time>
      </trkpt>
      <trkpt lat="60.0257195" lon="17.5344413">
        <ele>26.0929</ele>
        <time>2013-05-05T11:14:09Z</time>
      </trkpt>
      <trkpt lat="60.0256558" lon="17.5345475">
        <ele>26.0929</ele>
        <time>2013-05-05T11:14:10Z</time>
      </trkpt>
      <trkpt lat="60.0255949" lon="17.534659">
        <ele>26.0929</ele>
        <time>2013-05-05T11:14:11Z</time>
      </trkpt>
      <trkpt lat="60.0255379" lon="17.5347735">
        <ele>26.5736</ele>
        <time>2013-05-05T11:14:12Z</time>
      </trkpt>
      <trkpt lat="60.0254868" lon="17.5348873">
        <ele>26.5736</ele>
        <time>2013-05-05T11:14:13Z</time>
      </trkpt>
      <trkpt lat="60.0254393" lon="17.5349997">
        <ele>27.0543</ele>
        <time>2013-05-05T11:14:14Z</time>
      </trkpt>
      <trkpt lat="60.0253933" lon="17.5351118">
        <ele>27.0543</ele>
        <time>2013-05-05T11:14:15Z</time>
      </trkpt>
      <trkpt lat="60.0253481" lon="17.5352252">
        <ele>27.0543</ele>
        <time>2013-05-05T11:14:16Z</time>
      </trkpt>
      <trkpt lat="60.0253022" lon="17.5353408">
        <ele>27.5349</ele>
        <time>2013-05-05T11:14:17Z</time>
      </trkpt>
      <trkpt lat="60.0252554" lon="17.5354576">
        <ele>27.5349</ele>
        <time>2013-05-05T11:14:18Z</time>
      </trkpt>
      <trkpt lat="60.0252046" lon="17.5355713">
        <ele>27.5349</ele>
        <time>2013-05-05T11:14:19Z</time>
      </trkpt>
      <trkpt lat="60.0251491" lon="17.5356863">
        <ele>27.5349</ele>
        <time>2013-05-05T11:14:20Z</time>
      </trkpt>
      <trkpt lat="60.025099" lon="17.5358032">
        <ele>28.0155</ele>
        <time>2013-05-05T11:14:21Z</time>
      </trkpt>
      <trkpt lat="60.0250545" lon="17.5359214">
        <ele>28.4962</ele>
        <time>2013-05-05T11:14:22Z</time>
      </trkpt>
      <trkpt lat="60.0250042" lon="17.5360432">
        <ele>28.4962</ele>
        <time>2013-05-05T11:14:23Z</time>
      </trkpt>
      <trkpt lat="60.0249499" lon="17.5361565">
        <ele>28.9769</ele>
        <time>2013-05-05T11:14:24Z</time>
      </trkpt>
      <trkpt lat="60.0248897" lon="17.5362618">
        <ele>28.9769</ele>
        <time>2013-05-05T11:14:25Z</time>
      </trkpt>
      <trkpt lat="60.0248229" lon="17.5363634">
        <ele>29.4575</ele>
        <time>2013-05-05T11:14:26Z</time>
      </trkpt>
      <trkpt lat="60.0247508" lon="17.5364613">
        <ele>29.4575</ele>
        <time>2013-05-05T11:14:27Z</time>
      </trkpt>
      <trkpt lat="60.0246751" lon="17.5365482">
        <ele>29.4575</ele>
        <time>2013-05-05T11:14:28Z</time>
      </trkpt>
      <trkpt lat="60.0245969" lon="17.5366285">
        <ele>28.9769</ele>
        <time>2013-05-05T11:14:29Z</time>
      </trkpt>
      <trkpt lat="60.0245194" lon="17.5366978">
        <ele>29.4575</ele>
        <time>2013-05-05T11:14:30Z</time>
      </trkpt>
      <trkpt lat="60.0244391" lon="17.5367585">
        <ele>28.9769</ele>
        <time>2013-05-05T11:14:31Z</time>
      </trkpt>
      <trkpt lat="60.0243602" lon="17.5368044">
        <ele>28.9769</ele>
        <time>2013-05-05T11:14:32Z</time>
      </trkpt>
      <trkpt lat="60.0242796" lon="17.5368417">
        <ele>28.9769</ele>
        <time>2013-05-05T11:14:33Z</time>
      </trkpt>
      <trkpt lat="60.0242001" lon="17.5368645">
        <ele>28.9769</ele>
        <time>2013-05-05T11:14:34Z</time>
      </trkpt>
      <trkpt lat="60.0241242" lon="17.5368787">
        <ele>28.9769</ele>
        <time>2013-05-05T11:14:35Z</time>
      </trkpt>
      <trkpt lat="60.0240496" lon="17.5368927">
        <ele>28.9769</ele>
        <time>2013-05-05T11:14:36Z</time>
      </trkpt>
      <trkpt lat="60.0239756" lon="17.5369091">
        <ele>28.9769</ele>
        <time>2013-05-05T11:14:37Z</time>
      </trkpt>
      <trkpt lat="60.0239003" lon="17.5369273">
        <ele>29.4575</ele>
        <time>2013-05-05T11:14:38Z</time>
      </trkpt>
      <trkpt lat="60.0238222" lon="17.5369461">
        <ele>29.4575</ele>
        <time>2013-05-05T11:14:39Z</time>
      </trkpt>
      <trkpt lat="60.0237422" lon="17.5369596">
        <ele>28.9769</ele>
        <time>2013-05-05T11:14:40Z</time>
      </trkpt>
      <trkpt lat="60.0236605" lon="17.5369678">
        <ele>28.9769</ele>
        <time>2013-05-05T11:14:41Z</time>
      </trkpt>
      <trkpt lat="60.0235777" lon="17.5369743">
        <ele>28.4962</ele>
        <time>2013-05-05T11:14:42Z</time>
      </trkpt>
      <trkpt lat="60.023494" lon="17.5369766">
        <ele>28.4962</ele>
        <time>2013-05-05T11:14:43Z</time>
      </trkpt>
      <trkpt lat="60.0234091" lon="17.5369733">
        <ele>28.4962</ele>
        <time>2013-05-05T11:14:44Z</time>
      </trkpt>
      <trkpt lat="60.0233228" lon="17.5369694">
        <ele>28.0155</ele>
        <time>2013-05-05T11:14:45Z</time>
      </trkpt>
      <trkpt lat="60.0232347" lon="17.5369651">
        <ele>28.0155</ele>
        <time>2013-05-05T11:14:46Z</time>
      </trkpt>
      <trkpt lat="60.0231441" lon="17.5369547">
        <ele>27.5349</ele>
        <time>2013-05-05T11:14:47Z</time>
      </trkpt>
      <trkpt lat="60.0230527" lon="17.5369353">
        <ele>27.5349</ele>
        <time>2013-05-05T11:14:48Z</time>
      </trkpt>
      <trkpt lat="60.0229597" lon="17.5369093">
        <ele>27.5349</ele>
        <time>2013-05-05T11:14:49Z</time>
      </trkpt>
      <trkpt lat="60.0228665" lon="17.5368761">
        <ele>27.0543</ele>
        <time>2013-05-05T11:14:50Z</time>
      </trkpt>
      <trkpt lat="60.0227731" lon="17.5368418">
        <ele>27.0543</ele>
        <time>2013-05-05T11:14:51Z</time>
      </trkpt>
      <trkpt lat="60.0226789" lon="17.5368036">
        <ele>26.5736</ele>
        <time>2013-05-05T11:14:52Z</time>
      </trkpt>
      <trkpt lat="60.0225881" lon="17.5367523">
        <ele>26.0929</ele>
        <time>2013-05-05T11:14:53Z</time>
      </trkpt>
      <trkpt lat="60.0224998" lon="17.5366922">
        <ele>26.0929</ele>
        <time>2013-05-05T11:14:54Z</time>
      </trkpt>
      <trkpt lat="60.0224173" lon="17.5366285">
        <ele>26.0929</ele>
        <time>2013-05-05T11:14:55Z</time>
      </trkpt>
      <trkpt lat="60.0223396" lon="17.5365607">
        <ele>26.0929</ele>
        <time>2013-05-05T11:14:56Z</time>
      </trkpt>
      <trkpt lat="60.0222629" lon="17.53649">
        <ele>26.0929</ele>
        <time>2013-05-05T11:14:57Z</time>
      </trkpt>
      <trkpt lat="60.0221878" lon="17.5364168">
        <ele>26.0929</ele>
        <time>2013-05-05T11:14:58Z</time>
      </trkpt>
      <trkpt lat="60.0221143" lon="17.5363405">
        <ele>26.0929</ele>
        <time>2013-05-05T11:14:59Z</time>
      </trkpt>
      <trkpt lat="60.0220423" lon="17.5362649">
        <ele>26.0929</ele>
        <time>2013-05-05T11:15:00Z</time>
      </trkpt>
      <trkpt lat="60.0219734" lon="17.5361944">
        <ele>26.0929</ele>
        <time>2013-05-05T11:15:01Z</time>
      </trkpt>
      <trkpt lat="60.0219076" lon="17.5361232">
        <ele>26.5736</ele>
        <time>2013-05-05T11:15:02Z</time>
      </trkpt>
      <trkpt lat="60.0218422" lon="17.5360481">
        <ele>26.5736</ele>
        <time>2013-05-05T11:15:03Z</time>
      </trkpt>
      <trkpt lat="60.0217761" lon="17.5359722">
        <ele>27.0543</ele>
        <time>2013-05-05T11:15:04Z</time>
      </trkpt>
      <trkpt lat="60.0217116" lon="17.5358981">
        <ele>27.0543</ele>
        <time>2013-05-05T11:15:05Z</time>
      </trkpt>
      <trkpt lat="60.0216477" lon="17.5358259">
        <ele>27.5349</ele>
        <time>2013-05-05T11:15:06Z</time>
      </trkpt>
      <trkpt lat="60.0215834" lon="17.5357567">
        <ele>27.5349</ele>
        <time>2013-05-05T11:15:07Z</time>
      </trkpt>
      <trkpt lat="60.0215171" lon="17.5356877">
        <ele>27.5349</ele>
        <time>2013-05-05T11:15:08Z</time>
      </trkpt>
      <trkpt lat="60.0214502" lon="17.5356168">
        <ele>27.5349</ele>
        <time>2013-05-05T11:15:09Z</time>
      </trkpt>
      <trkpt lat="60.0213823" lon="17.5355449">
        <ele>27.5349</ele>
        <time>2013-05-05T11:15:10Z</time>
      </trkpt>
      <trkpt lat="60.0213143" lon="17.5354709">
        <ele>27.5349</ele>
        <time>2013-05-05T11:15:11Z</time>
      </trkpt>
      <trkpt lat="60.0212461" lon="17.5353958">
        <ele>27.0543</ele>
        <time>2013-05-05T11:15:12Z</time>
      </trkpt>
      <trkpt lat="60.0211767" lon="17.5353236">
        <ele>27.0543</ele>
        <time>2013-05-05T11:15:13Z</time>
      </trkpt>
      <trkpt lat="60.0211108" lon="17.5352488">
        <ele>27.0543</ele>
        <time>2013-05-05T11:15:14Z</time>
      </trkpt>
      <trkpt lat="60.0210451" lon="17.5351751">
        <ele>27.0543</ele>
        <time>2013-05-05T11:15:15Z</time>
      </trkpt>
      <trkpt lat="60.0209793" lon="17.5351033">
        <ele>27.5349</ele>
        <time>2013-05-05T11:15:16Z</time>
      </trkpt>
      <trkpt lat="60.0209134" lon="17.535033">
        <ele>27.5349</ele>
        <time>2013-05-05T11:15:17Z</time>
      </trkpt>
      <trkpt lat="60.0208486" lon="17.5349646">
        <ele>27.5349</ele>
        <time>2013-05-05T11:15:18Z</time>
      </trkpt>
      <trkpt lat="60.0207841" lon="17.5348994">
        <ele>28.0155</ele>
        <time>2013-05-05T11:15:19Z</time>
      </trkpt>
      <trkpt lat="60.0207191" lon="17.5348368">
        <ele>28.0155</ele>
        <time>2013-05-05T11:15:20Z</time>
      </trkpt>
      <trkpt lat="60.0206529" lon="17.5347766">
        <ele>28.0155</ele>
        <time>2013-05-05T11:15:21Z</time>
      </trkpt>
      <trkpt lat="60.0205846" lon="17.5347225">
        <ele>28.0155</ele>
        <time>2013-05-05T11:15:22Z</time>
      </trkpt>
      <trkpt lat="60.0205147" lon="17.5346725">
        <ele>28.4962</ele>
        <time>2013-05-05T11:15:23Z</time>
      </trkpt>
      <trkpt lat="60.0204436" lon="17.5346249">
        <ele>28.4962</ele>
        <time>2013-05-05T11:15:24Z</time>
      </trkpt>
      <trkpt lat="60.0203721" lon="17.5345794">
        <ele>28.4962</ele>
        <time>2013-05-05T11:15:25Z</time>
      </trkpt>
      <trkpt lat="60.0202987" lon="17.5345395">
        <ele>28.4962</ele>
        <time>2013-05-05T11:15:26Z</time>
      </trkpt>
      <trkpt lat="60.0202234" lon="17.5345042">
        <ele>28.9769</ele>
        <time>2013-05-05T11:15:27Z</time>
      </trkpt>
      <trkpt lat="60.0201465" lon="17.534471">
        <ele>28.9769</ele>
        <time>2013-05-05T11:15:28Z</time>
      </trkpt>
      <trkpt lat="60.02007" lon="17.5344423">
        <ele>28.9769</ele>
        <time>2013-05-05T11:15:29Z</time>
      </trkpt>
      <trkpt lat="60.0199945" lon="17.5344183">
        <ele>29.4575</ele>
        <time>2013-05-05T11:15:30Z</time>
      </trkpt>
      <trkpt lat="60.0199199" lon="17.5344012">
        <ele>29.4575</ele>
        <time>2013-05-05T11:15:31Z</time>
      </trkpt>
      <trkpt lat="60.0198454" lon="17.5343908">
        <ele>29.4575</ele>
        <time>2013-05-05T11:15:32Z</time>
      </trkpt>
      <trkpt lat="60.0197706" lon="17.534385">
        <ele>29.9381</ele>
        <time>2013-05-05T11:15:33Z</time>
      </trkpt>
      <trkpt lat="60.0196941" lon="17.5343799">
        <ele>29.9381</ele>
        <time>2013-05-05T11:15:34Z</time>
      </trkpt>
      <trkpt lat="60.0196164" lon="17.5343781">
        <ele>29.9381</ele>
        <time>2013-05-05T11:15:35Z</time>
      </trkpt>
      <trkpt lat="60.0195382" lon="17.5343814">
        <ele>29.9381</ele>
        <time>2013-05-05T11:15:36Z</time>
      </trkpt>
      <trkpt lat="60.0194595" lon="17.534388">
        <ele>29.9381</ele>
        <time>2013-05-05T11:15:37Z</time>
      </trkpt>
      <trkpt lat="60.0193814" lon="17.5343964">
        <ele>30.4188</ele>
        <time>2013-05-05T11:15:38Z</time>
      </trkpt>
      <trkpt lat="60.0193054" lon="17.5344055">
        <ele>30.4188</ele>
        <time>2013-05-05T11:15:39Z</time>
      </trkpt>
      <trkpt lat="60.0192309" lon="17.5344162">
        <ele>30.4188</ele>
        <time>2013-05-05T11:15:40Z</time>
      </trkpt>
      <trkpt lat="60.0191565" lon="17.534428">
        <ele>30.4188</ele>
        <time>2013-05-05T11:15:41Z</time>
      </trkpt>
      <trkpt lat="60.0190811" lon="17.5344398">
        <ele>30.4188</ele>
        <time>2013-05-05T11:15:42Z</time>
      </trkpt>
      <trkpt lat="60.0190046" lon="17.5344508">
        <ele>30.4188</ele>
        <time>2013-05-05T11:15:43Z</time>
      </trkpt>
      <trkpt lat="60.0189266" lon="17.5344617">
        <ele>30.4188</ele>
        <time>2013-05-05T11:15:44Z</time>
      </trkpt>
      <trkpt lat="60.0188485" lon="17.5344731">
        <ele>29.9381</ele>
        <time>2013-05-05T11:15:45Z</time>
      </trkpt>
      <trkpt lat="60.0187694" lon="17.5344848">
        <ele>29.9381</ele>
        <time>2013-05-05T11:15:46Z</time>
      </trkpt>
      <trkpt lat="60.0186888" lon="17.5344962">
        <ele>29.4575</ele>
        <time>2013-05-05T11:15:47Z</time>
      </trkpt>
      <trkpt lat="60.0186072" lon="17.5345081">
        <ele>29.4575</ele>
        <time>2013-05-05T11:15:48Z</time>
      </trkpt>
      <trkpt lat="60.0185253" lon="17.5345198">
        <ele>29.4575</ele>
        <time>2013-05-05T11:15:49Z</time>
      </trkpt>
      <trkpt lat="60.0184437" lon="17.5345316">
        <ele>29.4575</ele>
        <time>2013-05-05T11:15:50Z</time>
      </trkpt>
      <trkpt lat="60.0183629" lon="17.534543">
        <ele>29.4575</ele>
        <time>2013-05-05T11:15:51Z</time>
      </trkpt>
      <trkpt lat="60.0182826" lon="17.5345534">
        <ele>29.4575</ele>
        <time>2013-05-05T11:15:52Z</time>
      </trkpt>
      <trkpt lat="60.0182017" lon="17.5345618">
        <ele>29.4575</ele>
        <time>2013-05-05T11:15:53Z</time>
      </trkpt>
      <trkpt lat="60.0181205" lon="17.5345694">
        <ele>29.4575</ele>
        <time>2013-05-05T11:15:54Z</time>
      </trkpt>
      <trkpt lat="60.0180389" lon="17.5345772">
        <ele>29.4575</ele>
        <time>2013-05-05T11:15:55Z</time>
      </trkpt>
      <trkpt lat="60.0179567" lon="17.5345854">
        <ele>29.4575</ele>
        <time>2013-05-05T11:15:56Z</time>
      </trkpt>
      <trkpt lat="60.0178739" lon="17.5345939">
        <ele>29.4575</ele>
        <time>2013-05-05T11:15:57Z</time>
      </trkpt>
      <trkpt lat="60.017791" lon="17.5346019">
        <ele>29.4575</ele>
        <time>2013-05-05T11:15:58Z</time>
      </trkpt>
      <trkpt lat="60.0177077" lon="17.5346063">
        <ele>29.4575</ele>
        <time>2013-05-05T11:15:59Z</time>
      </trkpt>
      <trkpt lat="60.0176243" lon="17.5346072">
        <ele>29.4575</ele>
        <time>2013-05-05T11:16:00Z</time>
      </trkpt>
      <trkpt lat="60.0175408" lon="17.5346065">
        <ele>29.9381</ele>
        <time>2013-05-05T11:16:01Z</time>
      </trkpt>
      <trkpt lat="60.0174574" lon="17.5346047">
        <ele>29.9381</ele>
        <time>2013-05-05T11:16:02Z</time>
      </trkpt>
      <trkpt lat="60.0173748" lon="17.5346011">
        <ele>29.9381</ele>
        <time>2013-05-05T11:16:03Z</time>
      </trkpt>
      <trkpt lat="60.0172926" lon="17.5345956">
        <ele>29.9381</ele>
        <time>2013-05-05T11:16:04Z</time>
      </trkpt>
      <trkpt lat="60.0172108" lon="17.5345873">
        <ele>29.9381</ele>
        <time>2013-05-05T11:16:05Z</time>
      </trkpt>
      <trkpt lat="60.0171295" lon="17.5345755">
        <ele>29.9381</ele>
        <time>2013-05-05T11:16:06Z</time>
      </trkpt>
      <trkpt lat="60.0170497" lon="17.5345623">
        <ele>29.9381</ele>
        <time>2013-05-05T11:16:07Z</time>
      </trkpt>
      <trkpt lat="60.0169718" lon="17.5345487">
        <ele>30.4188</ele>
        <time>2013-05-05T11:16:08Z</time>
      </trkpt>
      <trkpt lat="60.0168947" lon="17.5345331">
        <ele>30.4188</ele>
        <time>2013-05-05T11:16:09Z</time>
      </trkpt>
      <trkpt lat="60.0168176" lon="17.5345155">
        <ele>29.9381</ele>
        <time>2013-05-05T11:16:10Z</time>
      </trkpt>
      <trkpt lat="60.0167409" lon="17.5344938">
        <ele>30.4188</ele>
        <time>2013-05-05T11:16:11Z</time>
      </trkpt>
      <trkpt lat="60.0166639" lon="17.5344683">
        <ele>30.4188</ele>
        <time>2013-05-05T11:16:12Z</time>
      </trkpt>
      <trkpt lat="60.0165854" lon="17.534441">
        <ele>30.4188</ele>
        <time>2013-05-05T11:16:13Z</time>
      </trkpt>
      <trkpt lat="60.0165063" lon="17.5344143">
        <ele>30.4188</ele>
        <time>2013-05-05T11:16:14Z</time>
      </trkpt>
      <trkpt lat="60.0164281" lon="17.5343872">
        <ele>30.4188</ele>
        <time>2013-05-05T11:16:15Z</time>
      </trkpt>
      <trkpt lat="60.0163507" lon="17.5343576">
        <ele>30.4188</ele>
        <time>2013-05-05T11:16:16Z</time>
      </trkpt>
      <trkpt lat="60.0162736" lon="17.5343271">
        <ele>29.9381</ele>
        <time>2013-05-05T11:16:17Z</time>
      </trkpt>
      <trkpt lat="60.0161972" lon="17.5342973">
        <ele>29.9381</ele>
        <time>2013-05-05T11:16:18Z</time>
      </trkpt>
      <trkpt lat="60.0161214" lon="17.5342684">
        <ele>29.9381</ele>
        <time>2013-05-05T11:16:19Z</time>
      </trkpt>
      <trkpt lat="60.0160464" lon="17.5342409">
        <ele>29.9381</ele>
        <time>2013-05-05T11:16:20Z</time>
      </trkpt>
      <trkpt lat="60.0159737" lon="17.534215">
        <ele>29.9381</ele>
        <time>2013-05-05T11:16:21Z</time>
      </trkpt>
      <trkpt lat="60.0159033" lon="17.534189">
        <ele>29.4575</ele>
        <time>2013-05-05T11:16:22Z</time>
      </trkpt>
      <trkpt lat="60.0158338" lon="17.5341611">
        <ele>29.4575</ele>
        <time>2013-05-05T11:16:23Z</time>
      </trkpt>
      <trkpt lat="60.0157645" lon="17.5341322">
        <ele>29.4575</ele>
        <time>2013-05-05T11:16:24Z</time>
      </trkpt>
      <trkpt lat="60.0156942" lon="17.5341043">
        <ele>29.4575</ele>
        <time>2013-05-05T11:16:25Z</time>
      </trkpt>
      <trkpt lat="60.015622" lon="17.5340754">
        <ele>29.4575</ele>
        <time>2013-05-05T11:16:26Z</time>
      </trkpt>
      <trkpt lat="60.0155467" lon="17.5340462">
        <ele>29.4575</ele>
        <time>2013-05-05T11:16:27Z</time>
      </trkpt>
      <trkpt lat="60.0154696" lon="17.5340176">
        <ele>29.4575</ele>
        <time>2013-05-05T11:16:28Z</time>
      </trkpt>
      <trkpt lat="60.015392" lon="17.5339877">
        <ele>29.4575</ele>
        <time>2013-05-05T11:16:29Z</time>
      </trkpt>
      <trkpt lat="60.0153145" lon="17.533957">
        <ele>29.4575</ele>
        <time>2013-05-05T11:16:30Z</time>
      </trkpt>
      <trkpt lat="60.0152368" lon="17.5339267">
        <ele>29.4575</ele>
        <time>2013-05-05T11:16:31Z</time>
      </trkpt>
      <trkpt lat="60.015159" lon="17.5338972">
        <ele>29.4575</ele>
        <time>2013-05-05T11:16:32Z</time>
      </trkpt>
      <trkpt lat="60.0150816" lon="17.5338683">
        <ele>29.4575</ele>
        <time>2013-05-05T11:16:33Z</time>
      </trkpt>
      <trkpt lat="60.0150061" lon="17.533839">
        <ele>29.4575</ele>
        <time>2013-05-05T11:16:34Z</time>
      </trkpt>
      <trkpt lat="60.0149334" lon="17.5338109">
        <ele>29.4575</ele>
        <time>2013-05-05T11:16:35Z</time>
      </trkpt>
      <trkpt lat="60.0148614" lon="17.5337856">
        <ele>29.4575</ele>
        <time>2013-05-05T11:16:36Z</time>
      </trkpt>
      <trkpt lat="60.0147885" lon="17.5337616">
        <ele>29.4575</ele>
        <time>2013-05-05T11:16:37Z</time>
      </trkpt>
      <trkpt lat="60.0147176" lon="17.5337349">
        <ele>29.4575</ele>
        <time>2013-05-05T11:16:38Z</time>
      </trkpt>
      <trkpt lat="60.0146477" lon="17.5337059">
        <ele>29.4575</ele>
        <time>2013-05-05T11:16:39Z</time>
      </trkpt>
      <trkpt lat="60.0145778" lon="17.5336774">
        <ele>29.4575</ele>
        <time>2013-05-05T11:16:40Z</time>
      </trkpt>
      <trkpt lat="60.0145069" lon="17.5336498">
        <ele>29.4575</ele>
        <time>2013-05-05T11:16:41Z</time>
      </trkpt>
      <trkpt lat="60.0144349" lon="17.533622">
        <ele>29.4575</ele>
        <time>2013-05-05T11:16:42Z</time>
      </trkpt>
      <trkpt lat="60.0143624" lon="17.533593">
        <ele>29.4575</ele>
        <time>2013-05-05T11:16:43Z</time>
      </trkpt>
      <trkpt lat="60.0142901" lon="17.533563">
        <ele>29.4575</ele>
        <time>2013-05-05T11:16:44Z</time>
      </trkpt>
      <trkpt lat="60.0142181" lon="17.5335348">
        <ele>29.4575</ele>
        <time>2013-05-05T11:16:45Z</time>
      </trkpt>
      <trkpt lat="60.0141467" lon="17.5335084">
        <ele>29.4575</ele>
        <time>2013-05-05T11:16:46Z</time>
      </trkpt>
      <trkpt lat="60.0140756" lon="17.533483">
        <ele>29.4575</ele>
        <time>2013-05-05T11:16:47Z</time>
      </trkpt>
      <trkpt lat="60.0140041" lon="17.5334578">
        <ele>29.4575</ele>
        <time>2013-05-05T11:16:48Z</time>
      </trkpt>
      <trkpt lat="60.0139319" lon="17.5334333">
        <ele>29.4575</ele>
        <time>2013-05-05T11:16:49Z</time>
      </trkpt>
      <trkpt lat="60.0138594" lon="17.5334084">
        <ele>29.4575</ele>
        <time>2013-05-05T11:16:50Z</time>
      </trkpt>
      <trkpt lat="60.0137843" lon="17.5333823">
        <ele>29.4575</ele>
        <time>2013-05-05T11:16:51Z</time>
      </trkpt>
      <trkpt lat="60.0137078" lon="17.5333542">
        <ele>29.4575</ele>
        <time>2013-05-05T11:16:52Z</time>
      </trkpt>
      <trkpt lat="60.0136304" lon="17.5333242">
        <ele>28.9769</ele>
        <time>2013-05-05T11:16:53Z</time>
      </trkpt>
      <trkpt lat="60.0135526" lon="17.533293">
        <ele>28.9769</ele>
        <time>2013-05-05T11:16:54Z</time>
      </trkpt>
      <trkpt lat="60.0134749" lon="17.5332613">
        <ele>28.9769</ele>
        <time>2013-05-05T11:16:55Z</time>
      </trkpt>
      <trkpt lat="60.0133976" lon="17.5332304">
        <ele>28.9769</ele>
        <time>2013-05-05T11:16:56Z</time>
      </trkpt>
      <trkpt lat="60.0133206" lon="17.5331993">
        <ele>28.4962</ele>
        <time>2013-05-05T11:16:57Z</time>
      </trkpt>
      <trkpt lat="60.0132432" lon="17.5331657">
        <ele>28.4962</ele>
        <time>2013-05-05T11:16:58Z</time>
      </trkpt>
      <trkpt lat="60.0131652" lon="17.5331298">
        <ele>28.4962</ele>
        <time>2013-05-05T11:16:59Z</time>
      </trkpt>
      <trkpt lat="60.0130881" lon="17.5330931">
        <ele>28.4962</ele>
        <time>2013-05-05T11:17:00Z</time>
      </trkpt>
      <trkpt lat="60.0130126" lon="17.5330551">
        <ele>28.4962</ele>
        <time>2013-05-05T11:17:01Z</time>
      </trkpt>
      <trkpt lat="60.0129388" lon="17.5330148">
        <ele>28.4962</ele>
        <time>2013-05-05T11:17:02Z</time>
      </trkpt>
      <trkpt lat="60.0128663" lon="17.532973">
        <ele>28.0155</ele>
        <time>2013-05-05T11:17:03Z</time>
      </trkpt>
      <trkpt lat="60.0127946" lon="17.5329329">
        <ele>28.0155</ele>
        <time>2013-05-05T11:17:04Z</time>
      </trkpt>
      <trkpt lat="60.0127228" lon="17.532893">
        <ele>28.0155</ele>
        <time>2013-05-05T11:17:05Z</time>
      </trkpt>
      <trkpt lat="60.0126509" lon="17.5328459">
        <ele>28.0155</ele>
        <time>2013-05-05T11:17:06Z</time>
      </trkpt>
      <trkpt lat="60.0125802" lon="17.5327927">
        <ele>28.0155</ele>
        <time>2013-05-05T11:17:07Z</time>
      </trkpt>
      <trkpt lat="60.0125109" lon="17.5327414">
        <ele>28.0155</ele>
        <time>2013-05-05T11:17:08Z</time>
      </trkpt>
      <trkpt lat="60.0124428" lon="17.5326899">
        <ele>28.0155</ele>
        <time>2013-05-05T11:17:09Z</time>
      </trkpt>
      <trkpt lat="60.012375" lon="17.5326378">
        <ele>28.0155</ele>
        <time>2013-05-05T11:17:10Z</time>
      </trkpt>
      <trkpt lat="60.0123077" lon="17.5325865">
        <ele>28.0155</ele>
        <time>2013-05-05T11:17:11Z</time>
      </trkpt>
      <trkpt lat="60.0122404" lon="17.5325341">
        <ele>28.0155</ele>
        <time>2013-05-05T11:17:12Z</time>
      </trkpt>
      <trkpt lat="60.0121731" lon="17.5324808">
        <ele>28.0155</ele>
        <time>2013-05-05T11:17:13Z</time>
      </trkpt>
      <trkpt lat="60.0121054" lon="17.5324296">
        <ele>28.0155</ele>
        <time>2013-05-05T11:17:14Z</time>
      </trkpt>
      <trkpt lat="60.0120381" lon="17.5323808">
        <ele>28.0155</ele>
        <time>2013-05-05T11:17:15Z</time>
      </trkpt>
      <trkpt lat="60.0119714" lon="17.5323316">
        <ele>28.4962</ele>
        <time>2013-05-05T11:17:16Z</time>
      </trkpt>
      <trkpt lat="60.0119041" lon="17.5322825">
        <ele>28.4962</ele>
        <time>2013-05-05T11:17:17Z</time>
      </trkpt>
      <trkpt lat="60.011837" lon="17.5322325">
        <ele>28.4962</ele>
        <time>2013-05-05T11:17:18Z</time>
      </trkpt>
      <trkpt lat="60.0117701" lon="17.532182">
        <ele>28.4962</ele>
        <time>2013-05-05T11:17:19Z</time>
      </trkpt>
      <trkpt lat="60.0117043" lon="17.5321318">
        <ele>28.4962</ele>
        <time>2013-05-05T11:17:20Z</time>
      </trkpt>
      <trkpt lat="60.01164" lon="17.5320845">
        <ele>28.9769</ele>
        <time>2013-05-05T11:17:21Z</time>
      </trkpt>
      <trkpt lat="60.0115812" lon="17.5320364">
        <ele>28.9769</ele>
        <time>2013-05-05T11:17:22Z</time>
      </trkpt>
      <trkpt lat="60.0115241" lon="17.5319891">
        <ele>29.4575</ele>
        <time>2013-05-05T11:17:23Z</time>
      </trkpt>
      <trkpt lat="60.0114677" lon="17.5319411">
        <ele>29.9381</ele>
        <time>2013-05-05T11:17:24Z</time>
      </trkpt>
      <trkpt lat="60.0114113" lon="17.5318928">
        <ele>29.9381</ele>
        <time>2013-05-05T11:17:25Z</time>
      </trkpt>
      <trkpt lat="60.0113542" lon="17.5318435">
        <ele>29.9381</ele>
        <time>2013-05-05T11:17:26Z</time>
      </trkpt>
      <trkpt lat="60.0112962" lon="17.5317924">
        <ele>30.4188</ele>
        <time>2013-05-05T11:17:27Z</time>
      </trkpt>
      <trkpt lat="60.0112371" lon="17.5317412">
        <ele>30.4188</ele>
        <time>2013-05-05T11:17:28Z</time>
      </trkpt>
      <trkpt lat="60.0111773" lon="17.5316924">
        <ele>30.4188</ele>
        <time>2013-05-05T11:17:29Z</time>
      </trkpt>
      <trkpt lat="60.0111168" lon="17.5316453">
        <ele>30.4188</ele>
        <time>2013-05-05T11:17:30Z</time>
      </trkpt>
      <trkpt lat="60.0110563" lon="17.5315979">
        <ele>30.4188</ele>
        <time>2013-05-05T11:17:31Z</time>
      </trkpt>
      <trkpt lat="60.0109967" lon="17.5315492">
        <ele>30.4188</ele>
        <time>2013-05-05T11:17:32Z</time>
      </trkpt>
      <trkpt lat="60.0109377" lon="17.5315013">
        <ele>30.8995</ele>
        <time>2013-05-05T11:17:33Z</time>
      </trkpt>
      <trkpt lat="60.0108793" lon="17.5314551">
        <ele>30.8995</ele>
        <time>2013-05-05T11:17:34Z</time>
      </trkpt>
      <trkpt lat="60.0108217" lon="17.5314086">
        <ele>30.8995</ele>
        <time>2013-05-05T11:17:35Z</time>
      </trkpt>
      <trkpt lat="60.0107645" lon="17.5313629">
        <ele>30.8995</ele>
        <time>2013-05-05T11:17:36Z</time>
      </trkpt>
      <trkpt lat="60.0107075" lon="17.5313174">
        <ele>30.8995</ele>
        <time>2013-05-05T11:17:37Z</time>
      </trkpt>
      <trkpt lat="60.0106507" lon="17.5312728">
        <ele>30.8995</ele>
        <time>2013-05-05T11:17:38Z</time>
      </trkpt>
      <trkpt lat="60.0105932" lon="17.5312293">
        <ele>30.8995</ele>
        <time>2013-05-05T11:17:39Z</time>
      </trkpt>
      <trkpt lat="60.0105348" lon="17.5311868">
        <ele>30.8995</ele>
        <time>2013-05-05T11:17:40Z</time>
      </trkpt>
      <trkpt lat="60.0104751" lon="17.5311443">
        <ele>30.8995</ele>
        <time>2013-05-05T11:17:41Z</time>
      </trkpt>
      <trkpt lat="60.0104145" lon="17.5311001">
        <ele>31.3801</ele>
        <time>2013-05-05T11:17:42Z</time>
      </trkpt>
      <trkpt lat="60.010353" lon="17.5310543">
        <ele>31.3801</ele>
        <time>2013-05-05T11:17:43Z</time>
      </trkpt>
      <trkpt lat="60.0102902" lon="17.5310098">
        <ele>31.3801</ele>
        <time>2013-05-05T11:17:44Z</time>
      </trkpt>
      <trkpt lat="60.0102266" lon="17.5309662">
        <ele>31.3801</ele>
        <time>2013-05-05T11:17:45Z</time>
      </trkpt>
      <trkpt lat="60.0101625" lon="17.5309226">
        <ele>31.3801</ele>
        <time>2013-05-05T11:17:46Z</time>
      </trkpt>
      <trkpt lat="60.0100975" lon="17.5308791">
        <ele>31.3801</ele>
        <time>2013-05-05T11:17:47Z</time>
      </trkpt>
      <trkpt lat="60.0100317" lon="17.5308351">
        <ele>30.8995</ele>
        <time>2013-05-05T11:17:48Z</time>
      </trkpt>
      <trkpt lat="60.0099659" lon="17.5307895">
        <ele>30.8995</ele>
        <time>2013-05-05T11:17:49Z</time>
      </trkpt>
      <trkpt lat="60.0098996" lon="17.5307469">
        <ele>30.8995</ele>
        <time>2013-05-05T11:17:50Z</time>
      </trkpt>
      <trkpt lat="60.0098318" lon="17.5307061">
        <ele>30.8995</ele>
        <time>2013-05-05T11:17:51Z</time>
      </trkpt>
      <trkpt lat="60.0097628" lon="17.5306625">
        <ele>30.8995</ele>
        <time>2013-05-05T11:17:52Z</time>
      </trkpt>
      <trkpt lat="60.0096939" lon="17.5306166">
        <ele>30.8995</ele>
        <time>2013-05-05T11:17:53Z</time>
      </trkpt>
      <trkpt lat="60.0096249" lon="17.5305709">
        <ele>30.4188</ele>
        <time>2013-05-05T11:17:54Z</time>
      </trkpt>
      <trkpt lat="60.0095567" lon="17.5305243">
        <ele>30.4188</ele>
        <time>2013-05-05T11:17:55Z</time>
      </trkpt>
      <trkpt lat="60.0094891" lon="17.5304808">
        <ele>30.4188</ele>
        <time>2013-05-05T11:17:56Z</time>
      </trkpt>
      <trkpt lat="60.0094225" lon="17.5304402">
        <ele>30.4188</ele>
        <time>2013-05-05T11:17:57Z</time>
      </trkpt>
      <trkpt lat="60.009357" lon="17.5303994">
        <ele>30.4188</ele>
        <time>2013-05-05T11:17:58Z</time>
      </trkpt>
      <trkpt lat="60.0092926" lon="17.5303569">
        <ele>30.4188</ele>
        <time>2013-05-05T11:17:59Z</time>
      </trkpt>
      <trkpt lat="60.0092283" lon="17.5303136">
        <ele>30.4188</ele>
        <time>2013-05-05T11:18:00Z</time>
      </trkpt>
      <trkpt lat="60.0091626" lon="17.5302708">
        <ele>30.4188</ele>
        <time>2013-05-05T11:18:01Z</time>
      </trkpt>
      <trkpt lat="60.0090954" lon="17.5302291">
        <ele>30.4188</ele>
        <time>2013-05-05T11:18:02Z</time>
      </trkpt>
      <trkpt lat="60.0090288" lon="17.530187">
        <ele>30.4188</ele>
        <time>2013-05-05T11:18:03Z</time>
      </trkpt>
      <trkpt lat="60.0089644" lon="17.530145">
        <ele>30.4188</ele>
        <time>2013-05-05T11:18:04Z</time>
      </trkpt>
      <trkpt lat="60.008902" lon="17.530104">
        <ele>30.4188</ele>
        <time>2013-05-05T11:18:05Z</time>
      </trkpt>
      <trkpt lat="60.0088409" lon="17.5300633">
        <ele>30.4188</ele>
        <time>2013-05-05T11:18:06Z</time>
      </trkpt>
      <trkpt lat="60.0087793" lon="17.5300244">
        <ele>30.4188</ele>
        <time>2013-05-05T11:18:07Z</time>
      </trkpt>
      <trkpt lat="60.0087175" lon="17.5299846">
        <ele>30.4188</ele>
        <time>2013-05-05T11:18:08Z</time>
      </trkpt>
      <trkpt lat="60.0086558" lon="17.529944">
        <ele>30.4188</ele>
        <time>2013-05-05T11:18:09Z</time>
      </trkpt>
      <trkpt lat="60.0085933" lon="17.5299045">
        <ele>30.4188</ele>
        <time>2013-05-05T11:18:10Z</time>
      </trkpt>
      <trkpt lat="60.0085306" lon="17.5298638">
        <ele>30.4188</ele>
        <time>2013-05-05T11:18:11Z</time>
      </trkpt>
      <trkpt lat="60.0084671" lon="17.5298229">
        <ele>30.4188</ele>
        <time>2013-05-05T11:18:12Z</time>
      </trkpt>
      <trkpt lat="60.0084014" lon="17.5297814">
        <ele>30.4188</ele>
        <time>2013-05-05T11:18:13Z</time>
      </trkpt>
      <trkpt lat="60.0083357" lon="17.529739">
        <ele>30.4188</ele>
        <time>2013-05-05T11:18:14Z</time>
      </trkpt>
      <trkpt lat="60.0082698" lon="17.5296981">
        <ele>30.4188</ele>
        <time>2013-05-05T11:18:15Z</time>
      </trkpt>
      <trkpt lat="60.0082039" lon="17.5296569">
        <ele>30.4188</ele>
        <time>2013-05-05T11:18:16Z</time>
      </trkpt>
      <trkpt lat="60.0081392" lon="17.5296163">
        <ele>30.4188</ele>
        <time>2013-05-05T11:18:17Z</time>
      </trkpt>
      <trkpt lat="60.0080765" lon="17.5295751">
        <ele>30.4188</ele>
        <time>2013-05-05T11:18:18Z</time>
      </trkpt>
      <trkpt lat="60.0080128" lon="17.5295349">
        <ele>29.9381</ele>
        <time>2013-05-05T11:18:19Z</time>
      </trkpt>
      <trkpt lat="60.0079486" lon="17.5294948">
        <ele>29.9381</ele>
        <time>2013-05-05T11:18:20Z</time>
      </trkpt>
      <trkpt lat="60.0078834" lon="17.5294561">
        <ele>29.9381</ele>
        <time>2013-05-05T11:18:21Z</time>
      </trkpt>
      <trkpt lat="60.0078178" lon="17.5294177">
        <ele>29.9381</ele>
        <time>2013-05-05T11:18:22Z</time>
      </trkpt>
      <trkpt lat="60.007752" lon="17.5293759">
        <ele>29.4575</ele>
        <time>2013-05-05T11:18:23Z</time>
      </trkpt>
      <trkpt lat="60.0076866" lon="17.5293322">
        <ele>29.4575</ele>
        <time>2013-05-05T11:18:24Z</time>
      </trkpt>
      <trkpt lat="60.0076219" lon="17.5292853">
        <ele>29.4575</ele>
        <time>2013-05-05T11:18:25Z</time>
      </trkpt>
      <trkpt lat="60.0075611" lon="17.5292365">
        <ele>29.4575</ele>
        <time>2013-05-05T11:18:26Z</time>
      </trkpt>
      <trkpt lat="60.0075001" lon="17.5291873">
        <ele>29.4575</ele>
        <time>2013-05-05T11:18:27Z</time>
      </trkpt>
      <trkpt lat="60.0074391" lon="17.529135">
        <ele>29.4575</ele>
        <time>2013-05-05T11:18:28Z</time>
      </trkpt>
      <trkpt lat="60.0073773" lon="17.5290827">
        <ele>29.4575</ele>
        <time>2013-05-05T11:18:29Z</time>
      </trkpt>
      <trkpt lat="60.0073154" lon="17.5290272">
        <ele>28.9769</ele>
        <time>2013-05-05T11:18:30Z</time>
      </trkpt>
      <trkpt lat="60.0072547" lon="17.5289661">
        <ele>28.9769</ele>
        <time>2013-05-05T11:18:31Z</time>
      </trkpt>
      <trkpt lat="60.0071956" lon="17.5288994">
        <ele>28.9769</ele>
        <time>2013-05-05T11:18:32Z</time>
      </trkpt>
      <trkpt lat="60.0071369" lon="17.5288314">
        <ele>28.9769</ele>
        <time>2013-05-05T11:18:33Z</time>
      </trkpt>
      <trkpt lat="60.0070785" lon="17.5287625">
        <ele>28.4962</ele>
        <time>2013-05-05T11:18:34Z</time>
      </trkpt>
      <trkpt lat="60.0070199" lon="17.5286916">
        <ele>28.4962</ele>
        <time>2013-05-05T11:18:35Z</time>
      </trkpt>
      <trkpt lat="60.0069636" lon="17.5286137">
        <ele>28.4962</ele>
        <time>2013-05-05T11:18:36Z</time>
      </trkpt>
      <trkpt lat="60.0069091" lon="17.5285334">
        <ele>28.4962</ele>
        <time>2013-05-05T11:18:37Z</time>
      </trkpt>
      <trkpt lat="60.006855" lon="17.5284542">
        <ele>28.4962</ele>
        <time>2013-05-05T11:18:38Z</time>
      </trkpt>
      <trkpt lat="60.0067998" lon="17.5283739">
        <ele>28.4962</ele>
        <time>2013-05-05T11:18:39Z</time>
      </trkpt>
      <trkpt lat="60.0067474" lon="17.5282878">
        <ele>28.4962</ele>
        <time>2013-05-05T11:18:40Z</time>
      </trkpt>
      <trkpt lat="60.0066978" lon="17.5281969">
        <ele>28.4962</ele>
        <time>2013-05-05T11:18:41Z</time>
      </trkpt>
      <trkpt lat="60.0066504" lon="17.5281061">
        <ele>28.9769</ele>
        <time>2013-05-05T11:18:42Z</time>
      </trkpt>
      <trkpt lat="60.006604" lon="17.5280161">
        <ele>29.4575</ele>
        <time>2013-05-05T11:18:43Z</time>
      </trkpt>
      <trkpt lat="60.0065554" lon="17.5279249">
        <ele>29.4575</ele>
        <time>2013-05-05T11:18:44Z</time>
      </trkpt>
      <trkpt lat="60.0065064" lon="17.5278286">
        <ele>28.9769</ele>
        <time>2013-05-05T11:18:45Z</time>
      </trkpt>
      <trkpt lat="60.0064598" lon="17.5277316">
        <ele>28.9769</ele>
        <time>2013-05-05T11:18:46Z</time>
      </trkpt>
      <trkpt lat="60.0064164" lon="17.527632">
        <ele>29.4575</ele>
        <time>2013-05-05T11:18:47Z</time>
      </trkpt>
      <trkpt lat="60.0063766" lon="17.5275303">
        <ele>29.4575</ele>
        <time>2013-05-05T11:18:48Z</time>
      </trkpt>
      <trkpt lat="60.0063367" lon="17.5274265">
        <ele>29.4575</ele>
        <time>2013-05-05T11:18:49Z</time>
      </trkpt>
      <trkpt lat="60.0062972" lon="17.5273218">
        <ele>29.4575</ele>
        <time>2013-05-05T11:18:50Z</time>
      </trkpt>
      <trkpt lat="60.0062586" lon="17.5272162">
        <ele>29.9381</ele>
        <time>2013-05-05T11:18:51Z</time>
      </trkpt>
      <trkpt lat="60.0062213" lon="17.5271102">
        <ele>29.9381</ele>
        <time>2013-05-05T11:18:52Z</time>
      </trkpt>
      <trkpt lat="60.006186" lon="17.5270039">
        <ele>29.9381</ele>
        <time>2013-05-05T11:18:53Z</time>
      </trkpt>
      <trkpt lat="60.0061538" lon="17.5268961">
        <ele>29.9381</ele>
        <time>2013-05-05T11:18:54Z</time>
      </trkpt>
      <trkpt lat="60.0061226" lon="17.5267884">
        <ele>29.9381</ele>
        <time>2013-05-05T11:18:55Z</time>
      </trkpt>
      <trkpt lat="60.0060912" lon="17.5266801">
        <ele>29.9381</ele>
        <time>2013-05-05T11:18:56Z</time>
      </trkpt>
      <trkpt lat="60.0060592" lon="17.5265723">
        <ele>29.9381</ele>
        <time>2013-05-05T11:18:57Z</time>
      </trkpt>
      <trkpt lat="60.006027" lon="17.5264619">
        <ele>29.4575</ele>
        <time>2013-05-05T11:18:58Z</time>
      </trkpt>
      <trkpt lat="60.0059947" lon="17.5263477">
        <ele>29.4575</ele>
        <time>2013-05-05T11:18:59Z</time>
      </trkpt>
      <trkpt lat="60.005962" lon="17.5262306">
        <ele>29.4575</ele>
        <time>2013-05-05T11:19:00Z</time>
      </trkpt>
      <trkpt lat="60.0059285" lon="17.5261114">
        <ele>29.4575</ele>
        <time>2013-05-05T11:19:01Z</time>
      </trkpt>
      <trkpt lat="60.0058942" lon="17.525991">
        <ele>29.4575</ele>
        <time>2013-05-05T11:19:02Z</time>
      </trkpt>
      <trkpt lat="60.0058601" lon="17.5258694">
        <ele>29.4575</ele>
        <time>2013-05-05T11:19:03Z</time>
      </trkpt>
      <trkpt lat="60.005827" lon="17.5257486">
        <ele>29.4575</ele>
        <time>2013-05-05T11:19:04Z</time>
      </trkpt>
      <trkpt lat="60.0057942" lon="17.5256315">
        <ele>29.4575</ele>
        <time>2013-05-05T11:19:05Z</time>
      </trkpt>
      <trkpt lat="60.0057612" lon="17.5255185">
        <ele>29.4575</ele>
        <time>2013-05-05T11:19:06Z</time>
      </trkpt>
      <trkpt lat="60.0057281" lon="17.5254072">
        <ele>29.4575</ele>
        <time>2013-05-05T11:19:07Z</time>
      </trkpt>
      <trkpt lat="60.0056948" lon="17.5252942">
        <ele>29.4575</ele>
        <time>2013-05-05T11:19:08Z</time>
      </trkpt>
      <trkpt lat="60.0056618" lon="17.5251787">
        <ele>29.4575</ele>
        <time>2013-05-05T11:19:09Z</time>
      </trkpt>
      <trkpt lat="60.0056291" lon="17.5250627">
        <ele>28.9769</ele>
        <time>2013-05-05T11:19:10Z</time>
      </trkpt>
      <trkpt lat="60.0055955" lon="17.5249479">
        <ele>29.4575</ele>
        <time>2013-05-05T11:19:11Z</time>
      </trkpt>
      <trkpt lat="60.0055613" lon="17.5248319">
        <ele>29.4575</ele>
        <time>2013-05-05T11:19:12Z</time>
      </trkpt>
      <trkpt lat="60.0055271" lon="17.5247138">
        <ele>29.4575</ele>
        <time>2013-05-05T11:19:13Z</time>
      </trkpt>
      <trkpt lat="60.0054939" lon="17.5245944">
        <ele>29.4575</ele>
        <time>2013-05-05T11:19:14Z</time>
      </trkpt>
      <trkpt lat="60.0054612" lon="17.5244759">
        <ele>29.4575</ele>
        <time>2013-05-05T11:19:15Z</time>
      </trkpt>
      <trkpt lat="60.0054277" lon="17.524361">
        <ele>29.4575</ele>
        <time>2013-05-05T11:19:16Z</time>
      </trkpt>
      <trkpt lat="60.0053955" lon="17.5242502">
        <ele>29.4575</ele>
        <time>2013-05-05T11:19:17Z</time>
      </trkpt>
      <trkpt lat="60.0053642" lon="17.5241412">
        <ele>29.4575</ele>
        <time>2013-05-05T11:19:18Z</time>
      </trkpt>
      <trkpt lat="60.0053335" lon="17.5240316">
        <ele>29.4575</ele>
        <time>2013-05-05T11:19:19Z</time>
      </trkpt>
      <trkpt lat="60.0053037" lon="17.5239217">
        <ele>29.4575</ele>
        <time>2013-05-05T11:19:20Z</time>
      </trkpt>
      <trkpt lat="60.0052737" lon="17.5238139">
        <ele>29.4575</ele>
        <time>2013-05-05T11:19:21Z</time>
      </trkpt>
      <trkpt lat="60.0052435" lon="17.5237082">
        <ele>29.4575</ele>
        <time>2013-05-05T11:19:22Z</time>
      </trkpt>
      <trkpt lat="60.0052137" lon="17.5236032">
        <ele>28.9769</ele>
        <time>2013-05-05T11:19:23Z</time>
      </trkpt>
      <trkpt lat="60.0051832" lon="17.5234989">
        <ele>28.9769</ele>
        <time>2013-05-05T11:19:24Z</time>
      </trkpt>
      <trkpt lat="60.0051531" lon="17.5233929">
        <ele>28.9769</ele>
        <time>2013-05-05T11:19:25Z</time>
      </trkpt>
      <trkpt lat="60.0051233" lon="17.5232834">
        <ele>28.9769</ele>
        <time>2013-05-05T11:19:26Z</time>
      </trkpt>
      <trkpt lat="60.0050928" lon="17.523172">
        <ele>28.9769</ele>
        <time>2013-05-05T11:19:27Z</time>
      </trkpt>
      <trkpt lat="60.0050631" lon="17.5230596">
        <ele>28.9769</ele>
        <time>2013-05-05T11:19:28Z</time>
      </trkpt>
      <trkpt lat="60.0050334" lon="17.5229482">
        <ele>28.9769</ele>
        <time>2013-05-05T11:19:29Z</time>
      </trkpt>
      <trkpt lat="60.0050026" lon="17.5228382">
        <ele>28.9769</ele>
        <time>2013-05-05T11:19:30Z</time>
      </trkpt>
      <trkpt lat="60.0049723" lon="17.5227286">
        <ele>28.9769</ele>
        <time>2013-05-05T11:19:31Z</time>
      </trkpt>
      <trkpt lat="60.0049428" lon="17.5226179">
        <ele>28.4962</ele>
        <time>2013-05-05T11:19:32Z</time>
      </trkpt>
      <trkpt lat="60.0049126" lon="17.522509">
        <ele>28.4962</ele>
        <time>2013-05-05T11:19:33Z</time>
      </trkpt>
      <trkpt lat="60.0048837" lon="17.5224034">
        <ele>28.4962</ele>
        <time>2013-05-05T11:19:34Z</time>
      </trkpt>
      <trkpt lat="60.0048547" lon="17.5223023">
        <ele>28.4962</ele>
        <time>2013-05-05T11:19:35Z</time>
      </trkpt>
      <trkpt lat="60.0048242" lon="17.5222014">
        <ele>28.4962</ele>
        <time>2013-05-05T11:19:36Z</time>
      </trkpt>
      <trkpt lat="60.0047932" lon="17.5220978">
        <ele>28.0155</ele>
        <time>2013-05-05T11:19:37Z</time>
      </trkpt>
      <trkpt lat="60.004762" lon="17.5219926">
        <ele>28.0155</ele>
        <time>2013-05-05T11:19:38Z</time>
      </trkpt>
      <trkpt lat="60.0047309" lon="17.5218863">
        <ele>28.0155</ele>
        <time>2013-05-05T11:19:39Z</time>
      </trkpt>
      <trkpt lat="60.0046998" lon="17.5217804">
        <ele>28.0155</ele>
        <time>2013-05-05T11:19:40Z</time>
      </trkpt>
      <trkpt lat="60.0046696" lon="17.5216749">
        <ele>28.0155</ele>
        <time>2013-05-05T11:19:41Z</time>
      </trkpt>
      <trkpt lat="60.0046395" lon="17.5215696">
        <ele>28.0155</ele>
        <time>2013-05-05T11:19:42Z</time>
      </trkpt>
      <trkpt lat="60.0046091" lon="17.5214639">
        <ele>28.0155</ele>
        <time>2013-05-05T11:19:43Z</time>
      </trkpt>
      <trkpt lat="60.0045794" lon="17.5213582">
        <ele>28.0155</ele>
        <time>2013-05-05T11:19:44Z</time>
      </trkpt>
      <trkpt lat="60.0045494" lon="17.5212524">
        <ele>28.0155</ele>
        <time>2013-05-05T11:19:45Z</time>
      </trkpt>
      <trkpt lat="60.0045195" lon="17.5211458">
        <ele>28.0155</ele>
        <time>2013-05-05T11:19:46Z</time>
      </trkpt>
      <trkpt lat="60.0044893" lon="17.5210381">
        <ele>28.0155</ele>
        <time>2013-05-05T11:19:47Z</time>
      </trkpt>
      <trkpt lat="60.0044588" lon="17.5209293">
        <ele>28.0155</ele>
        <time>2013-05-05T11:19:48Z</time>
      </trkpt>
      <trkpt lat="60.004428" lon="17.5208195">
        <ele>28.0155</ele>
        <time>2013-05-05T11:19:49Z</time>
      </trkpt>
      <trkpt lat="60.0043958" lon="17.5207106">
        <ele>28.0155</ele>
        <time>2013-05-05T11:19:50Z</time>
      </trkpt>
      <trkpt lat="60.0043624" lon="17.5206033">
        <ele>28.0155</ele>
        <time>2013-05-05T11:19:51Z</time>
      </trkpt>
      <trkpt lat="60.0043296" lon="17.5204972">
        <ele>28.0155</ele>
        <time>2013-05-05T11:19:52Z</time>
      </trkpt>
      <trkpt lat="60.0042973" lon="17.520393">
        <ele>28.0155</ele>
        <time>2013-05-05T11:19:53Z</time>
      </trkpt>
      <trkpt lat="60.004264" lon="17.5202892">
        <ele>28.0155</ele>
        <time>2013-05-05T11:19:54Z</time>
      </trkpt>
      <trkpt lat="60.0042291" lon="17.5201838">
        <ele>28.0155</ele>
        <time>2013-05-05T11:19:55Z</time>
      </trkpt>
      <trkpt lat="60.0041935" lon="17.5200775">
        <ele>28.0155</ele>
        <time>2013-05-05T11:19:56Z</time>
      </trkpt>
      <trkpt lat="60.0041573" lon="17.5199714">
        <ele>28.0155</ele>
        <time>2013-05-05T11:19:57Z</time>
      </trkpt>
      <trkpt lat="60.0041212" lon="17.5198639">
        <ele>28.0155</ele>
        <time>2013-05-05T11:19:58Z</time>
      </trkpt>
      <trkpt lat="60.0040853" lon="17.5197572">
        <ele>28.0155</ele>
        <time>2013-05-05T11:19:59Z</time>
      </trkpt>
      <trkpt lat="60.0040486" lon="17.5196552">
        <ele>28.0155</ele>
        <time>2013-05-05T11:20:00Z</time>
      </trkpt>
      <trkpt lat="60.0040135" lon="17.5195566">
        <ele>28.0155</ele>
        <time>2013-05-05T11:20:01Z</time>
      </trkpt>
      <trkpt lat="60.0039777" lon="17.5194601">
        <ele>28.4962</ele>
        <time>2013-05-05T11:20:02Z</time>
      </trkpt>
      <trkpt lat="60.0039412" lon="17.5193661">
        <ele>28.4962</ele>
        <time>2013-05-05T11:20:03Z</time>
      </trkpt>
      <trkpt lat="60.0039048" lon="17.5192735">
        <ele>28.4962</ele>
        <time>2013-05-05T11:20:04Z</time>
      </trkpt>
      <trkpt lat="60.0038694" lon="17.5191804">
        <ele>28.4962</ele>
        <time>2013-05-05T11:20:05Z</time>
      </trkpt>
      <trkpt lat="60.0038306" lon="17.5190896">
        <ele>28.4962</ele>
        <time>2013-05-05T11:20:06Z</time>
      </trkpt>
      <trkpt lat="60.0037884" lon="17.5190009">
        <ele>28.4962</ele>
        <time>2013-05-05T11:20:07Z</time>
      </trkpt>
      <trkpt lat="60.0037456" lon="17.5189116">
        <ele>28.9769</ele>
        <time>2013-05-05T11:20:08Z</time>
      </trkpt>
      <trkpt lat="60.003703" lon="17.5188224">
        <ele>28.9769</ele>
        <time>2013-05-05T11:20:09Z</time>
      </trkpt>
      <trkpt lat="60.00366" lon="17.5187365">
        <ele>28.9769</ele>
        <time>2013-05-05T11:20:10Z</time>
      </trkpt>
      <trkpt lat="60.0036172" lon="17.5186536">
        <ele>28.9769</ele>
        <time>2013-05-05T11:20:11Z</time>
      </trkpt>
      <trkpt lat="60.0035761" lon="17.5185687">
        <ele>28.9769</ele>
        <time>2013-05-05T11:20:12Z</time>
      </trkpt>
      <trkpt lat="60.0035358" lon="17.5184817">
        <ele>28.9769</ele>
        <time>2013-05-05T11:20:13Z</time>
      </trkpt>
      <trkpt lat="60.0034954" lon="17.5183956">
        <ele>28.9769</ele>
        <time>2013-05-05T11:20:14Z</time>
      </trkpt>
      <trkpt lat="60.0034538" lon="17.5183117">
        <ele>28.9769</ele>
        <time>2013-05-05T11:20:15Z</time>
      </trkpt>
      <trkpt lat="60.0034099" lon="17.5182297">
        <ele>28.9769</ele>
        <time>2013-05-05T11:20:16Z</time>
      </trkpt>
      <trkpt lat="60.003364" lon="17.5181489">
        <ele>28.9769</ele>
        <time>2013-05-05T11:20:17Z</time>
      </trkpt>
      <trkpt lat="60.0033162" lon="17.5180703">
        <ele>28.9769</ele>
        <time>2013-05-05T11:20:18Z</time>
      </trkpt>
      <trkpt lat="60.003267" lon="17.5179929">
        <ele>28.9769</ele>
        <time>2013-05-05T11:20:19Z</time>
      </trkpt>
      <trkpt lat="60.0032178" lon="17.5179138">
        <ele>28.9769</ele>
        <time>2013-05-05T11:20:20Z</time>
      </trkpt>
      <trkpt lat="60.0031694" lon="17.5178314">
        <ele>29.4575</ele>
        <time>2013-05-05T11:20:21Z</time>
      </trkpt>
      <trkpt lat="60.0031219" lon="17.5177465">
        <ele>29.4575</ele>
        <time>2013-05-05T11:20:22Z</time>
      </trkpt>
      <trkpt lat="60.0030741" lon="17.5176604">
        <ele>29.4575</ele>
        <time>2013-05-05T11:20:23Z</time>
      </trkpt>
      <trkpt lat="60.003026" lon="17.517572">
        <ele>29.4575</ele>
        <time>2013-05-05T11:20:24Z</time>
      </trkpt>
      <trkpt lat="60.0029774" lon="17.5174819">
        <ele>29.4575</ele>
        <time>2013-05-05T11:20:25Z</time>
      </trkpt>
      <trkpt lat="60.0029285" lon="17.5173946">
        <ele>29.4575</ele>
        <time>2013-05-05T11:20:26Z</time>
      </trkpt>
      <trkpt lat="60.0028784" lon="17.5173088">
        <ele>29.9381</ele>
        <time>2013-05-05T11:20:27Z</time>
      </trkpt>
      <trkpt lat="60.0028272" lon="17.5172228">
        <ele>29.9381</ele>
        <time>2013-05-05T11:20:28Z</time>
      </trkpt>
      <trkpt lat="60.0027765" lon="17.5171379">
        <ele>30.4188</ele>
        <time>2013-05-05T11:20:29Z</time>
      </trkpt>
      <trkpt lat="60.0027286" lon="17.5170532">
        <ele>30.4188</ele>
        <time>2013-05-05T11:20:30Z</time>
      </trkpt>
      <trkpt lat="60.0026769" lon="17.5169711">
        <ele>30.4188</ele>
        <time>2013-05-05T11:20:31Z</time>
      </trkpt>
      <trkpt lat="60.0026235" lon="17.5168886">
        <ele>30.8995</ele>
        <time>2013-05-05T11:20:32Z</time>
      </trkpt>
      <trkpt lat="60.0025732" lon="17.5168022">
        <ele>30.8995</ele>
        <time>2013-05-05T11:20:33Z</time>
      </trkpt>
      <trkpt lat="60.0025247" lon="17.5167234">
        <ele>31.3801</ele>
        <time>2013-05-05T11:20:34Z</time>
      </trkpt>
      <trkpt lat="60.002479" lon="17.5166484">
        <ele>31.3801</ele>
        <time>2013-05-05T11:20:35Z</time>
      </trkpt>
      <trkpt lat="60.0024356" lon="17.5165748">
        <ele>31.3801</ele>
        <time>2013-05-05T11:20:36Z</time>
      </trkpt>
      <trkpt lat="60.0023948" lon="17.5165047">
        <ele>31.8607</ele>
        <time>2013-05-05T11:20:37Z</time>
      </trkpt>
      <trkpt lat="60.0023558" lon="17.5164383">
        <ele>31.8607</ele>
        <time>2013-05-05T11:20:38Z</time>
      </trkpt>
      <trkpt lat="60.0023191" lon="17.5163774">
        <ele>32.3416</ele>
        <time>2013-05-05T11:20:39Z</time>
      </trkpt>
      <trkpt lat="60.0022863" lon="17.5163219">
        <ele>32.3416</ele>
        <time>2013-05-05T11:20:40Z</time>
      </trkpt>
      <trkpt lat="60.0022556" lon="17.5162708">
        <ele>32.3416</ele>
        <time>2013-05-05T11:20:41Z</time>
      </trkpt>
      <trkpt lat="60.0022211" lon="17.516219">
        <ele>32.8223</ele>
        <time>2013-05-05T11:20:42Z</time>
      </trkpt>
      <trkpt lat="60.0021867" lon="17.5161667">
        <ele>32.8223</ele>
        <time>2013-05-05T11:20:43Z</time>
      </trkpt>
      <trkpt lat="60.0021501" lon="17.5161179">
        <ele>32.8223</ele>
        <time>2013-05-05T11:20:44Z</time>
      </trkpt>
      <trkpt lat="60.0021116" lon="17.5160686">
        <ele>33.3029</ele>
        <time>2013-05-05T11:20:45Z</time>
      </trkpt>
      <trkpt lat="60.0020723" lon="17.5160241">
        <ele>33.3029</ele>
        <time>2013-05-05T11:20:46Z</time>
      </trkpt>
      <trkpt lat="60.0020316" lon="17.5159812">
        <ele>33.3029</ele>
        <time>2013-05-05T11:20:47Z</time>
      </trkpt>
      <trkpt lat="60.0019906" lon="17.5159375">
        <ele>33.3029</ele>
        <time>2013-05-05T11:20:48Z</time>
      </trkpt>
      <trkpt lat="60.0019487" lon="17.51589">
        <ele>32.8223</ele>
        <time>2013-05-05T11:20:49Z</time>
      </trkpt>
      <trkpt lat="60.0018959" lon="17.5158408">
        <ele>32.8223</ele>
        <time>2013-05-05T11:20:50Z</time>
      </trkpt>
      <trkpt lat="60.0018384" lon="17.5157988">
        <ele>32.3416</ele>
        <time>2013-05-05T11:20:51Z</time>
      </trkpt>
      <trkpt lat="60.0017746" lon="17.5157587">
        <ele>32.3416</ele>
        <time>2013-05-05T11:20:52Z</time>
      </trkpt>
      <trkpt lat="60.0017268" lon="17.5156812">
        <ele>31.8607</ele>
        <time>2013-05-05T11:20:53Z</time>
      </trkpt>
      <trkpt lat="60.0016548" lon="17.5156325">
        <ele>31.8607</ele>
        <time>2013-05-05T11:20:54Z</time>
      </trkpt>
      <trkpt lat="60.001583" lon="17.5155854">
        <ele>31.3801</ele>
        <time>2013-05-05T11:20:55Z</time>
      </trkpt>
      <trkpt lat="60.0015128" lon="17.5155517">
        <ele>31.8607</ele>
        <time>2013-05-05T11:20:56Z</time>
      </trkpt>
      <trkpt lat="60.0014416" lon="17.5155197">
        <ele>31.8607</ele>
        <time>2013-05-05T11:20:57Z</time>
      </trkpt>
      <trkpt lat="60.0013714" lon="17.5154873">
        <ele>31.8607</ele>
        <time>2013-05-05T11:20:58Z</time>
      </trkpt>
      <trkpt lat="60.0013028" lon="17.5154543">
        <ele>31.8607</ele>
        <time>2013-05-05T11:20:59Z</time>
      </trkpt>
      <trkpt lat="60.0012395" lon="17.5154251">
        <ele>31.8607</ele>
        <time>2013-05-05T11:21:00Z</time>
      </trkpt>
      <trkpt lat="60.0011768" lon="17.5154035">
        <ele>31.8607</ele>
        <time>2013-05-05T11:21:01Z</time>
      </trkpt>
      <trkpt lat="60.0011141" lon="17.5153855">
        <ele>31.3801</ele>
        <time>2013-05-05T11:21:02Z</time>
      </trkpt>
      <trkpt lat="60.0010513" lon="17.515364">
        <ele>31.3801</ele>
        <time>2013-05-05T11:21:03Z</time>
      </trkpt>
      <trkpt lat="60.0009875" lon="17.5153399">
        <ele>31.3801</ele>
        <time>2013-05-05T11:21:04Z</time>
      </trkpt>
      <trkpt lat="60.0009235" lon="17.515314">
        <ele>31.3801</ele>
        <time>2013-05-05T11:21:05Z</time>
      </trkpt>
      <trkpt lat="60.0008565" lon="17.515287">
        <ele>31.3801</ele>
        <time>2013-05-05T11:21:06Z</time>
      </trkpt>
      <trkpt lat="60.0007876" lon="17.5152581">
        <ele>30.8995</ele>
        <time>2013-05-05T11:21:07Z</time>
      </trkpt>
      <trkpt lat="60.0007184" lon="17.5152248">
        <ele>30.4188</ele>
        <time>2013-05-05T11:21:08Z</time>
      </trkpt>
      <trkpt lat="60.0006495" lon="17.5151922">
        <ele>30.4188</ele>
        <time>2013-05-05T11:21:09Z</time>
      </trkpt>
      <trkpt lat="60.0005817" lon="17.5151628">
        <ele>30.4188</ele>
        <time>2013-05-05T11:21:10Z</time>
      </trkpt>
      <trkpt lat="60.0005116" lon="17.5151475">
        <ele>30.4188</ele>
        <time>2013-05-05T11:21:11Z</time>
      </trkpt>
      <trkpt lat="60.0004438" lon="17.5151439">
        <ele>30.4188</ele>
        <time>2013-05-05T11:21:12Z</time>
      </trkpt>
      <trkpt lat="60.0003754" lon="17.5151586">
        <ele>30.4188</ele>
        <time>2013-05-05T11:21:13Z</time>
      </trkpt>
      <trkpt lat="60.000307" lon="17.5151842">
        <ele>30.4188</ele>
        <time>2013-05-05T11:21:14Z</time>
      </trkpt>
      <trkpt lat="60.000238" lon="17.5152213">
        <ele>29.9381</ele>
        <time>2013-05-05T11:21:15Z</time>
      </trkpt>
      <trkpt lat="60.0001692" lon="17.5152716">
        <ele>29.9381</ele>
        <time>2013-05-05T11:21:16Z</time>
      </trkpt>
      <trkpt lat="60.0000957" lon="17.5153305">
        <ele>29.4575</ele>
        <time>2013-05-05T11:21:17Z</time>
      </trkpt>
      <trkpt lat="60.0000199" lon="17.5153922">
        <ele>28.9769</ele>
        <time>2013-05-05T11:21:18Z</time>
      </trkpt>
      <trkpt lat="59.999942" lon="17.515451">
        <ele>28.9769</ele>
        <time>2013-05-05T11:21:19Z</time>
      </trkpt>
      <trkpt lat="59.9998615" lon="17.5154971">
        <ele>28.4962</ele>
        <time>2013-05-05T11:21:20Z</time>
      </trkpt>
      <trkpt lat="59.999779" lon="17.5155211">
        <ele>28.4962</ele>
        <time>2013-05-05T11:21:21Z</time>
      </trkpt>
      <trkpt lat="59.9996974" lon="17.5155238">
        <ele>28.4962</ele>
        <time>2013-05-05T11:21:22Z</time>
      </trkpt>
      <trkpt lat="59.9996186" lon="17.5155073">
        <ele>28.4962</ele>
        <time>2013-05-05T11:21:23Z</time>
      </trkpt>
      <trkpt lat="59.9995434" lon="17.5154761">
        <ele>28.4962</ele>
        <time>2013-05-05T11:21:24Z</time>
      </trkpt>
      <trkpt lat="59.9994762" lon="17.5154267">
        <ele>28.9769</ele>
        <time>2013-05-05T11:21:25Z</time>
      </trkpt>
      <trkpt lat="59.9994115" lon="17.5153651">
        <ele>29.4575</ele>
        <time>2013-05-05T11:21:26Z</time>
      </trkpt>
      <trkpt lat="59.999346" lon="17.5152992">
        <ele>29.4575</ele>
        <time>2013-05-05T11:21:27Z</time>
      </trkpt>
      <trkpt lat="59.99928" lon="17.5152337">
        <ele>28.9769</ele>
        <time>2013-05-05T11:21:28Z</time>
      </trkpt>
      <trkpt lat="59.9992167" lon="17.5151656">
        <ele>28.9769</ele>
        <time>2013-05-05T11:21:29Z</time>
      </trkpt>
      <trkpt lat="59.9991586" lon="17.5150926">
        <ele>28.9769</ele>
        <time>2013-05-05T11:21:30Z</time>
      </trkpt>
      <trkpt lat="59.9991044" lon="17.5150126">
        <ele>28.9769</ele>
        <time>2013-05-05T11:21:31Z</time>
      </trkpt>
      <trkpt lat="59.9990557" lon="17.5149239">
        <ele>28.9769</ele>
        <time>2013-05-05T11:21:32Z</time>
      </trkpt>
      <trkpt lat="59.9990141" lon="17.5148265">
        <ele>29.4575</ele>
        <time>2013-05-05T11:21:33Z</time>
      </trkpt>
      <trkpt lat="59.9989769" lon="17.514727">
        <ele>29.4575</ele>
        <time>2013-05-05T11:21:34Z</time>
      </trkpt>
      <trkpt lat="59.9989414" lon="17.5146307">
        <ele>29.9381</ele>
        <time>2013-05-05T11:21:35Z</time>
      </trkpt>
      <trkpt lat="59.9989067" lon="17.5145364">
        <ele>29.9381</ele>
        <time>2013-05-05T11:21:36Z</time>
      </trkpt>
      <trkpt lat="59.9988721" lon="17.5144427">
        <ele>29.9381</ele>
        <time>2013-05-05T11:21:37Z</time>
      </trkpt>
      <trkpt lat="59.9988368" lon="17.5143479">
        <ele>30.4188</ele>
        <time>2013-05-05T11:21:38Z</time>
      </trkpt>
      <trkpt lat="59.9987985" lon="17.5142556">
        <ele>30.4188</ele>
        <time>2013-05-05T11:21:39Z</time>
      </trkpt>
      <trkpt lat="59.9987549" lon="17.5141684">
        <ele>30.4188</ele>
        <time>2013-05-05T11:21:40Z</time>
      </trkpt>
      <trkpt lat="59.9987055" lon="17.5140872">
        <ele>30.4188</ele>
        <time>2013-05-05T11:21:41Z</time>
      </trkpt>
      <trkpt lat="59.998652" lon="17.5140108">
        <ele>30.4188</ele>
        <time>2013-05-05T11:21:42Z</time>
      </trkpt>
      <trkpt lat="59.9985977" lon="17.5139341">
        <ele>30.4188</ele>
        <time>2013-05-05T11:21:43Z</time>
      </trkpt>
      <trkpt lat="59.9985458" lon="17.5138527">
        <ele>30.4188</ele>
        <time>2013-05-05T11:21:44Z</time>
      </trkpt>
      <trkpt lat="59.998495" lon="17.5137755">
        <ele>29.9381</ele>
        <time>2013-05-05T11:21:45Z</time>
      </trkpt>
      <trkpt lat="59.9984412" lon="17.5137067">
        <ele>29.4575</ele>
        <time>2013-05-05T11:21:46Z</time>
      </trkpt>
      <trkpt lat="59.9983852" lon="17.5136403">
        <ele>29.4575</ele>
        <time>2013-05-05T11:21:47Z</time>
      </trkpt>
      <trkpt lat="59.9983224" lon="17.5135834">
        <ele>28.9769</ele>
        <time>2013-05-05T11:21:48Z</time>
      </trkpt>
      <trkpt lat="59.9982516" lon="17.5135368">
        <ele>28.4962</ele>
        <time>2013-05-05T11:21:49Z</time>
      </trkpt>
      <trkpt lat="59.9981754" lon="17.5134983">
        <ele>28.0155</ele>
        <time>2013-05-05T11:21:50Z</time>
      </trkpt>
      <trkpt lat="59.9980942" lon="17.5134688">
        <ele>28.0155</ele>
        <time>2013-05-05T11:21:51Z</time>
      </trkpt>
      <trkpt lat="59.9980102" lon="17.5134445">
        <ele>27.5349</ele>
        <time>2013-05-05T11:21:52Z</time>
      </trkpt>
      <trkpt lat="59.9979253" lon="17.5134206">
        <ele>27.5349</ele>
        <time>2013-05-05T11:21:53Z</time>
      </trkpt>
      <trkpt lat="59.9978384" lon="17.5133958">
        <ele>27.5349</ele>
        <time>2013-05-05T11:21:54Z</time>
      </trkpt>
      <trkpt lat="59.9977502" lon="17.5133713">
        <ele>27.0543</ele>
        <time>2013-05-05T11:21:55Z</time>
      </trkpt>
      <trkpt lat="59.9976626" lon="17.5133511">
        <ele>27.0543</ele>
        <time>2013-05-05T11:21:56Z</time>
      </trkpt>
      <trkpt lat="59.9975735" lon="17.5133336">
        <ele>27.0543</ele>
        <time>2013-05-05T11:21:57Z</time>
      </trkpt>
      <trkpt lat="59.997484" lon="17.5133134">
        <ele>26.5736</ele>
        <time>2013-05-05T11:21:58Z</time>
      </trkpt>
      <trkpt lat="59.9973955" lon="17.5132907">
        <ele>26.5736</ele>
        <time>2013-05-05T11:21:59Z</time>
      </trkpt>
      <trkpt lat="59.9973073" lon="17.5132674">
        <ele>26.5736</ele>
        <time>2013-05-05T11:22:00Z</time>
      </trkpt>
      <trkpt lat="59.9972198" lon="17.5132457">
        <ele>26.5736</ele>
        <time>2013-05-05T11:22:01Z</time>
      </trkpt>
      <trkpt lat="59.9971334" lon="17.5132234">
        <ele>26.0929</ele>
        <time>2013-05-05T11:22:02Z</time>
      </trkpt>
      <trkpt lat="59.9970483" lon="17.5131984">
        <ele>26.0929</ele>
        <time>2013-05-05T11:22:03Z</time>
      </trkpt>
      <trkpt lat="59.9969652" lon="17.513174">
        <ele>26.0929</ele>
        <time>2013-05-05T11:22:04Z</time>
      </trkpt>
      <trkpt lat="59.9968836" lon="17.5131511">
        <ele>25.6123</ele>
        <time>2013-05-05T11:22:05Z</time>
      </trkpt>
      <trkpt lat="59.9968031" lon="17.5131294">
        <ele>25.6123</ele>
        <time>2013-05-05T11:22:06Z</time>
      </trkpt>
      <trkpt lat="59.9967235" lon="17.5131068">
        <ele>25.6123</ele>
        <time>2013-05-05T11:22:07Z</time>
      </trkpt>
      <trkpt lat="59.996644" lon="17.5130839">
        <ele>25.6123</ele>
        <time>2013-05-05T11:22:08Z</time>
      </trkpt>
      <trkpt lat="59.9965638" lon="17.5130627">
        <ele>25.6123</ele>
        <time>2013-05-05T11:22:09Z</time>
      </trkpt>
      <trkpt lat="59.9964824" lon="17.513042">
        <ele>25.6123</ele>
        <time>2013-05-05T11:22:10Z</time>
      </trkpt>
      <trkpt lat="59.9963999" lon="17.5130198">
        <ele>25.6123</ele>
        <time>2013-05-05T11:22:11Z</time>
      </trkpt>
      <trkpt lat="59.996317" lon="17.5129978">
        <ele>25.6123</ele>
        <time>2013-05-05T11:22:12Z</time>
      </trkpt>
      <trkpt lat="59.9962343" lon="17.5129777">
        <ele>25.6123</ele>
        <time>2013-05-05T11:22:13Z</time>
      </trkpt>
      <trkpt lat="59.9961516" lon="17.5129575">
        <ele>25.6123</ele>
        <time>2013-05-05T11:22:14Z</time>
      </trkpt>
      <trkpt lat="59.9960699" lon="17.5129341">
        <ele>25.6123</ele>
        <time>2013-05-05T11:22:15Z</time>
      </trkpt>
      <trkpt lat="59.99599" lon="17.5129104">
        <ele>25.6123</ele>
        <time>2013-05-05T11:22:16Z</time>
      </trkpt>
      <trkpt lat="59.9959109" lon="17.5128891">
        <ele>26.0929</ele>
        <time>2013-05-05T11:22:17Z</time>
      </trkpt>
      <trkpt lat="59.9958325" lon="17.5128689">
        <ele>26.0929</ele>
        <time>2013-05-05T11:22:18Z</time>
      </trkpt>
      <trkpt lat="59.9957564" lon="17.5128456">
        <ele>26.0929</ele>
        <time>2013-05-05T11:22:19Z</time>
      </trkpt>
      <trkpt lat="59.9956845" lon="17.5128192">
        <ele>26.0929</ele>
        <time>2013-05-05T11:22:20Z</time>
      </trkpt>
      <trkpt lat="59.9956179" lon="17.5127845">
        <ele>26.5736</ele>
        <time>2013-05-05T11:22:21Z</time>
      </trkpt>
      <trkpt lat="59.9955517" lon="17.5127375">
        <ele>26.5736</ele>
        <time>2013-05-05T11:22:22Z</time>
      </trkpt>
      <trkpt lat="59.9954874" lon="17.5126753">
        <ele>26.5736</ele>
        <time>2013-05-05T11:22:23Z</time>
      </trkpt>
      <trkpt lat="59.9954259" lon="17.5125981">
        <ele>26.5736</ele>
        <time>2013-05-05T11:22:24Z</time>
      </trkpt>
      <trkpt lat="59.9953684" lon="17.5125084">
        <ele>26.5736</ele>
        <time>2013-05-05T11:22:25Z</time>
      </trkpt>
      <trkpt lat="59.9953169" lon="17.5124038">
        <ele>27.0543</ele>
        <time>2013-05-05T11:22:26Z</time>
      </trkpt>
      <trkpt lat="59.9952718" lon="17.5122867">
        <ele>27.0543</ele>
        <time>2013-05-05T11:22:27Z</time>
      </trkpt>
      <trkpt lat="59.9952332" lon="17.512158">
        <ele>27.0543</ele>
        <time>2013-05-05T11:22:28Z</time>
      </trkpt>
      <trkpt lat="59.9952031" lon="17.5120209">
        <ele>27.0543</ele>
        <time>2013-05-05T11:22:29Z</time>
      </trkpt>
      <trkpt lat="59.9951783" lon="17.511878">
        <ele>27.0543</ele>
        <time>2013-05-05T11:22:30Z</time>
      </trkpt>
      <trkpt lat="59.9951601" lon="17.5117303">
        <ele>27.0543</ele>
        <time>2013-05-05T11:22:31Z</time>
      </trkpt>
      <trkpt lat="59.9951493" lon="17.5115808">
        <ele>27.0543</ele>
        <time>2013-05-05T11:22:32Z</time>
      </trkpt>
      <trkpt lat="59.9951463" lon="17.5114297">
        <ele>27.0543</ele>
        <time>2013-05-05T11:22:33Z</time>
      </trkpt>
      <trkpt lat="59.9951489" lon="17.5112781">
        <ele>27.0543</ele>
        <time>2013-05-05T11:22:34Z</time>
      </trkpt>
      <trkpt lat="59.9951545" lon="17.5111273">
        <ele>26.5736</ele>
        <time>2013-05-05T11:22:35Z</time>
      </trkpt>
      <trkpt lat="59.9951606" lon="17.5109808">
        <ele>26.5736</ele>
        <time>2013-05-05T11:22:36Z</time>
      </trkpt>
      <trkpt lat="59.9951682" lon="17.5108358">
        <ele>26.5736</ele>
        <time>2013-05-05T11:22:37Z</time>
      </trkpt>
      <trkpt lat="59.9951779" lon="17.5106877">
        <ele>26.0929</ele>
        <time>2013-05-05T11:22:38Z</time>
      </trkpt>
      <trkpt lat="59.9951903" lon="17.5105358">
        <ele>25.6123</ele>
        <time>2013-05-05T11:22:39Z</time>
      </trkpt>
      <trkpt lat="59.9952038" lon="17.5103824">
        <ele>25.1317</ele>
        <time>2013-05-05T11:22:40Z</time>
      </trkpt>
      <trkpt lat="59.9952156" lon="17.5102298">
        <ele>25.1317</ele>
        <time>2013-05-05T11:22:41Z</time>
      </trkpt>
      <trkpt lat="59.995227" lon="17.5100769">
        <ele>25.1317</ele>
        <time>2013-05-05T11:22:42Z</time>
      </trkpt>
      <trkpt lat="59.9952384" lon="17.5099242">
        <ele>25.1317</ele>
        <time>2013-05-05T11:22:43Z</time>
      </trkpt>
      <trkpt lat="59.9952496" lon="17.5097728">
        <ele>25.1317</ele>
        <time>2013-05-05T11:22:44Z</time>
      </trkpt>
      <trkpt lat="59.9952612" lon="17.5096221">
        <ele>25.1317</ele>
        <time>2013-05-05T11:22:45Z</time>
      </trkpt>
      <trkpt lat="59.995275" lon="17.509473">
        <ele>25.6123</ele>
        <time>2013-05-05T11:22:46Z</time>
      </trkpt>
      <trkpt lat="59.9952928" lon="17.5093259">
        <ele>25.1317</ele>
        <time>2013-05-05T11:22:47Z</time>
      </trkpt>
      <trkpt lat="59.9953096" lon="17.5091821">
        <ele>25.6123</ele>
        <time>2013-05-05T11:22:48Z</time>
      </trkpt>
      <trkpt lat="59.9953269" lon="17.5090382">
        <ele>25.6123</ele>
        <time>2013-05-05T11:22:49Z</time>
      </trkpt>
      <trkpt lat="59.9953459" lon="17.5088975">
        <ele>26.0929</ele>
        <time>2013-05-05T11:22:50Z</time>
      </trkpt>
      <trkpt lat="59.9953648" lon="17.5087583">
        <ele>26.0929</ele>
        <time>2013-05-05T11:22:51Z</time>
      </trkpt>
      <trkpt lat="59.995383" lon="17.5086196">
        <ele>26.5736</ele>
        <time>2013-05-05T11:22:52Z</time>
      </trkpt>
      <trkpt lat="59.9954025" lon="17.5084814">
        <ele>26.5736</ele>
        <time>2013-05-05T11:22:53Z</time>
      </trkpt>
      <trkpt lat="59.9954243" lon="17.5083441">
        <ele>27.0543</ele>
        <time>2013-05-05T11:22:54Z</time>
      </trkpt>
      <trkpt lat="59.9954454" lon="17.508207">
        <ele>27.0543</ele>
        <time>2013-05-05T11:22:55Z</time>
      </trkpt>
      <trkpt lat="59.9954651" lon="17.5080717">
        <ele>27.5349</ele>
        <time>2013-05-05T11:22:56Z</time>
      </trkpt>
      <trkpt lat="59.9954884" lon="17.5079359">
        <ele>27.0543</ele>
        <time>2013-05-05T11:22:57Z</time>
      </trkpt>
      <trkpt lat="59.9955125" lon="17.5078019">
        <ele>27.0543</ele>
        <time>2013-05-05T11:22:58Z</time>
      </trkpt>
      <trkpt lat="59.9955348" lon="17.5076702">
        <ele>27.0543</ele>
        <time>2013-05-05T11:22:59Z</time>
      </trkpt>
      <trkpt lat="59.995557" lon="17.5075398">
        <ele>27.5349</ele>
        <time>2013-05-05T11:23:00Z</time>
      </trkpt>
      <trkpt lat="59.9955801" lon="17.5074112">
        <ele>28.0155</ele>
        <time>2013-05-05T11:23:01Z</time>
      </trkpt>
      <trkpt lat="59.9956052" lon="17.5072822">
        <ele>28.0155</ele>
        <time>2013-05-05T11:23:02Z</time>
      </trkpt>
      <trkpt lat="59.9956269" lon="17.5071575">
        <ele>28.4962</ele>
        <time>2013-05-05T11:23:03Z</time>
      </trkpt>
      <trkpt lat="59.9956563" lon="17.5070306">
        <ele>28.4962</ele>
        <time>2013-05-05T11:23:04Z</time>
      </trkpt>
      <trkpt lat="59.9956879" lon="17.5069047">
        <ele>28.4962</ele>
        <time>2013-05-05T11:23:05Z</time>
      </trkpt>
      <trkpt lat="59.9957222" lon="17.5067796">
        <ele>28.4962</ele>
        <time>2013-05-05T11:23:06Z</time>
      </trkpt>
      <trkpt lat="59.995759" lon="17.506658">
        <ele>28.0155</ele>
        <time>2013-05-05T11:23:07Z</time>
      </trkpt>
      <trkpt lat="59.9957966" lon="17.5065418">
        <ele>28.4962</ele>
        <time>2013-05-05T11:23:08Z</time>
      </trkpt>
      <trkpt lat="59.995837" lon="17.5064297">
        <ele>28.4962</ele>
        <time>2013-05-05T11:23:09Z</time>
      </trkpt>
      <trkpt lat="59.995875" lon="17.5063196">
        <ele>28.4962</ele>
        <time>2013-05-05T11:23:10Z</time>
      </trkpt>
      <trkpt lat="59.9959097" lon="17.5062113">
        <ele>28.4962</ele>
        <time>2013-05-05T11:23:11Z</time>
      </trkpt>
      <trkpt lat="59.9959437" lon="17.5061036">
        <ele>28.4962</ele>
        <time>2013-05-05T11:23:12Z</time>
      </trkpt>
      <trkpt lat="59.99598" lon="17.5059934">
        <ele>28.4962</ele>
        <time>2013-05-05T11:23:13Z</time>
      </trkpt>
      <trkpt lat="59.9960149" lon="17.5058842">
        <ele>28.4962</ele>
        <time>2013-05-05T11:23:14Z</time>
      </trkpt>
      <trkpt lat="59.9960483" lon="17.505772">
        <ele>28.9769</ele>
        <time>2013-05-05T11:23:15Z</time>
      </trkpt>
      <trkpt lat="59.9960789" lon="17.5056614">
        <ele>28.9769</ele>
        <time>2013-05-05T11:23:16Z</time>
      </trkpt>
      <trkpt lat="59.9961095" lon="17.5055531">
        <ele>29.4575</ele>
        <time>2013-05-05T11:23:17Z</time>
      </trkpt>
      <trkpt lat="59.9961426" lon="17.5054459">
        <ele>29.9381</ele>
        <time>2013-05-05T11:23:18Z</time>
      </trkpt>
      <trkpt lat="59.9961775" lon="17.5053364">
        <ele>29.9381</ele>
        <time>2013-05-05T11:23:19Z</time>
      </trkpt>
      <trkpt lat="59.9962112" lon="17.5052273">
        <ele>30.4188</ele>
        <time>2013-05-05T11:23:20Z</time>
      </trkpt>
      <trkpt lat="59.9962443" lon="17.5051185">
        <ele>30.8995</ele>
        <time>2013-05-05T11:23:21Z</time>
      </trkpt>
      <trkpt lat="59.9962765" lon="17.5050087">
        <ele>30.8995</ele>
        <time>2013-05-05T11:23:22Z</time>
      </trkpt>
      <trkpt lat="59.9963075" lon="17.5048978">
        <ele>31.3801</ele>
        <time>2013-05-05T11:23:23Z</time>
      </trkpt>
      <trkpt lat="59.9963376" lon="17.5047845">
        <ele>31.3801</ele>
        <time>2013-05-05T11:23:24Z</time>
      </trkpt>
      <trkpt lat="59.9963649" lon="17.5046678">
        <ele>30.4188</ele>
        <time>2013-05-05T11:23:25Z</time>
      </trkpt>
      <trkpt lat="59.9963776" lon="17.5045482">
        <ele>30.4188</ele>
        <time>2013-05-05T11:23:26Z</time>
      </trkpt>
      <trkpt lat="59.9963743" lon="17.5044327">
        <ele>29.9381</ele>
        <time>2013-05-05T11:23:27Z</time>
      </trkpt>
      <trkpt lat="59.996354" lon="17.5043192">
        <ele>29.9381</ele>
        <time>2013-05-05T11:23:28Z</time>
      </trkpt>
      <trkpt lat="59.9963184" lon="17.5042182">
        <ele>30.4188</ele>
        <time>2013-05-05T11:23:29Z</time>
      </trkpt>
      <trkpt lat="59.9962608" lon="17.5041286">
        <ele>30.4188</ele>
        <time>2013-05-05T11:23:30Z</time>
      </trkpt>
      <trkpt lat="59.9961986" lon="17.5040605">
        <ele>30.4188</ele>
        <time>2013-05-05T11:23:31Z</time>
      </trkpt>
      <trkpt lat="59.996138" lon="17.5039989">
        <ele>30.4188</ele>
        <time>2013-05-05T11:23:32Z</time>
      </trkpt>
      <trkpt lat="59.9960777" lon="17.503939">
        <ele>30.8995</ele>
        <time>2013-05-05T11:23:33Z</time>
      </trkpt>
      <trkpt lat="59.9960164" lon="17.5038868">
        <ele>30.4188</ele>
        <time>2013-05-05T11:23:34Z</time>
      </trkpt>
      <trkpt lat="59.9959572" lon="17.5038376">
        <ele>30.4188</ele>
        <time>2013-05-05T11:23:35Z</time>
      </trkpt>
      <trkpt lat="59.9958968" lon="17.5037825">
        <ele>30.4188</ele>
        <time>2013-05-05T11:23:36Z</time>
      </trkpt>
      <trkpt lat="59.9958351" lon="17.5037222">
        <ele>29.9381</ele>
        <time>2013-05-05T11:23:37Z</time>
      </trkpt>
      <trkpt lat="59.9957767" lon="17.5036515">
        <ele>29.9381</ele>
        <time>2013-05-05T11:23:38Z</time>
      </trkpt>
      <trkpt lat="59.9957254" lon="17.5035653">
        <ele>29.9381</ele>
        <time>2013-05-05T11:23:39Z</time>
      </trkpt>
      <trkpt lat="59.9956857" lon="17.5034557">
        <ele>29.9381</ele>
        <time>2013-05-05T11:23:40Z</time>
      </trkpt>
      <trkpt lat="59.9956631" lon="17.503326">
        <ele>29.4575</ele>
        <time>2013-05-05T11:23:41Z</time>
      </trkpt>
      <trkpt lat="59.9956533" lon="17.5031929">
        <ele>28.9769</ele>
        <time>2013-05-05T11:23:42Z</time>
      </trkpt>
      <trkpt lat="59.9956544" lon="17.5030801">
        <ele>28.9769</ele>
        <time>2013-05-05T11:23:43Z</time>
      </trkpt>
      <trkpt lat="59.9956813" lon="17.5029559">
        <ele>28.9769</ele>
        <time>2013-05-05T11:23:44Z</time>
      </trkpt>
      <trkpt lat="59.9957129" lon="17.5028005">
        <ele>28.4962</ele>
        <time>2013-05-05T11:23:45Z</time>
      </trkpt>
      <trkpt lat="59.9957279" lon="17.5026443">
        <ele>28.0155</ele>
        <time>2013-05-05T11:23:46Z</time>
      </trkpt>
      <trkpt lat="59.9957381" lon="17.5025092">
        <ele>27.5349</ele>
        <time>2013-05-05T11:23:47Z</time>
      </trkpt>
      <trkpt lat="59.9957334" lon="17.5023591">
        <ele>27.0543</ele>
        <time>2013-05-05T11:23:48Z</time>
      </trkpt>
      <trkpt lat="59.9957128" lon="17.5022125">
        <ele>26.5736</ele>
        <time>2013-05-05T11:23:49Z</time>
      </trkpt>
      <trkpt lat="59.9956818" lon="17.5020642">
        <ele>26.0929</ele>
        <time>2013-05-05T11:23:50Z</time>
      </trkpt>
      <trkpt lat="59.9956414" lon="17.5019301">
        <ele>25.6123</ele>
        <time>2013-05-05T11:23:51Z</time>
      </trkpt>
      <trkpt lat="59.9955876" lon="17.501811">
        <ele>25.1317</ele>
        <time>2013-05-05T11:23:52Z</time>
      </trkpt>
      <trkpt lat="59.9955246" lon="17.5017197">
        <ele>25.1317</ele>
        <time>2013-05-05T11:23:53Z</time>
      </trkpt>
      <trkpt lat="59.995458" lon="17.5016489">
        <ele>25.6123</ele>
        <time>2013-05-05T11:23:54Z</time>
      </trkpt>
      <trkpt lat="59.995382" lon="17.5016038">
        <ele>25.6123</ele>
        <time>2013-05-05T11:23:55Z</time>
      </trkpt>
      <trkpt lat="59.9952952" lon="17.5015876">
        <ele>25.6123</ele>
        <time>2013-05-05T11:23:56Z</time>
      </trkpt>
      <trkpt lat="59.9952268" lon="17.5015364">
        <ele>26.0929</ele>
        <time>2013-05-05T11:23:57Z</time>
      </trkpt>
      <trkpt lat="59.9951647" lon="17.5015012">
        <ele>26.5736</ele>
        <time>2013-05-05T11:23:58Z</time>
      </trkpt>
      <trkpt lat="59.9951098" lon="17.5014593">
        <ele>26.5736</ele>
        <time>2013-05-05T11:23:59Z</time>
      </trkpt>
      <trkpt lat="59.9950576" lon="17.5014163">
        <ele>26.5736</ele>
        <time>2013-05-05T11:24:00Z</time>
      </trkpt>
      <trkpt lat="59.995013" lon="17.5013601">
        <ele>26.5736</ele>
        <time>2013-05-05T11:24:01Z</time>
      </trkpt>
      <trkpt lat="59.9949665" lon="17.5012945">
        <ele>27.0543</ele>
        <time>2013-05-05T11:24:02Z</time>
      </trkpt>
      <trkpt lat="59.9949128" lon="17.5012364">
        <ele>27.5349</ele>
        <time>2013-05-05T11:24:03Z</time>
      </trkpt>
      <trkpt lat="59.9948496" lon="17.5011954">
        <ele>26.5736</ele>
        <time>2013-05-05T11:24:04Z</time>
      </trkpt>
      <trkpt lat="59.9948015" lon="17.5011133">
        <ele>27.0543</ele>
        <time>2013-05-05T11:24:05Z</time>
      </trkpt>
      <trkpt lat="59.9947432" lon="17.5010452">
        <ele>26.5736</ele>
        <time>2013-05-05T11:24:06Z</time>
      </trkpt>
      <trkpt lat="59.9946845" lon="17.5009621">
        <ele>26.5736</ele>
        <time>2013-05-05T11:24:07Z</time>
      </trkpt>
      <trkpt lat="59.9946336" lon="17.5008849">
        <ele>26.5736</ele>
        <time>2013-05-05T11:24:08Z</time>
      </trkpt>
      <trkpt lat="59.9945756" lon="17.5008097">
        <ele>26.0929</ele>
        <time>2013-05-05T11:24:09Z</time>
      </trkpt>
      <trkpt lat="59.9945153" lon="17.5007465">
        <ele>26.0929</ele>
        <time>2013-05-05T11:24:10Z</time>
      </trkpt>
      <trkpt lat="59.9944514" lon="17.5007038">
        <ele>26.0929</ele>
        <time>2013-05-05T11:24:11Z</time>
      </trkpt>
      <trkpt lat="59.9943886" lon="17.5006998">
        <ele>26.0929</ele>
        <time>2013-05-05T11:24:12Z</time>
      </trkpt>
      <trkpt lat="59.9943266" lon="17.5007367">
        <ele>26.0929</ele>
        <time>2013-05-05T11:24:13Z</time>
      </trkpt>
      <trkpt lat="59.9942728" lon="17.5008188">
        <ele>25.6123</ele>
        <time>2013-05-05T11:24:14Z</time>
      </trkpt>
      <trkpt lat="59.9942257" lon="17.5009221">
        <ele>25.6123</ele>
        <time>2013-05-05T11:24:15Z</time>
      </trkpt>
      <trkpt lat="59.9941794" lon="17.501035">
        <ele>25.6123</ele>
        <time>2013-05-05T11:24:16Z</time>
      </trkpt>
      <trkpt lat="59.9941349" lon="17.5011501">
        <ele>25.6123</ele>
        <time>2013-05-05T11:24:17Z</time>
      </trkpt>
      <trkpt lat="59.9940925" lon="17.5012701">
        <ele>25.6123</ele>
        <time>2013-05-05T11:24:18Z</time>
      </trkpt>
      <trkpt lat="59.9940521" lon="17.5013929">
        <ele>25.6123</ele>
        <time>2013-05-05T11:24:19Z</time>
      </trkpt>
      <trkpt lat="59.9940107" lon="17.5015162">
        <ele>25.6123</ele>
        <time>2013-05-05T11:24:20Z</time>
      </trkpt>
      <trkpt lat="59.9939672" lon="17.501639">
        <ele>25.6123</ele>
        <time>2013-05-05T11:24:21Z</time>
      </trkpt>
      <trkpt lat="59.9939252" lon="17.5017613">
        <ele>25.1317</ele>
        <time>2013-05-05T11:24:22Z</time>
      </trkpt>
      <trkpt lat="59.9938834" lon="17.5018836">
        <ele>25.1317</ele>
        <time>2013-05-05T11:24:23Z</time>
      </trkpt>
      <trkpt lat="59.9938383" lon="17.5020052">
        <ele>25.1317</ele>
        <time>2013-05-05T11:24:24Z</time>
      </trkpt>
      <trkpt lat="59.9937864" lon="17.5021506">
        <ele>25.1317</ele>
        <time>2013-05-05T11:24:25Z</time>
      </trkpt>
      <trkpt lat="59.9937367" lon="17.5022832">
        <ele>25.1317</ele>
        <time>2013-05-05T11:24:26Z</time>
      </trkpt>
      <trkpt lat="59.9936864" lon="17.502414">
        <ele>25.1317</ele>
        <time>2013-05-05T11:24:27Z</time>
      </trkpt>
      <trkpt lat="59.9936351" lon="17.502551">
        <ele>25.6123</ele>
        <time>2013-05-05T11:24:28Z</time>
      </trkpt>
      <trkpt lat="59.9935888" lon="17.502673">
        <ele>25.6123</ele>
        <time>2013-05-05T11:24:29Z</time>
      </trkpt>
      <trkpt lat="59.9935406" lon="17.5027906">
        <ele>26.0929</ele>
        <time>2013-05-05T11:24:30Z</time>
      </trkpt>
      <trkpt lat="59.993493" lon="17.5029038">
        <ele>26.0929</ele>
        <time>2013-05-05T11:24:31Z</time>
      </trkpt>
      <trkpt lat="59.993447" lon="17.5030283">
        <ele>26.5736</ele>
        <time>2013-05-05T11:24:32Z</time>
      </trkpt>
      <trkpt lat="59.9933989" lon="17.5031595">
        <ele>26.0929</ele>
        <time>2013-05-05T11:24:33Z</time>
      </trkpt>
      <trkpt lat="59.9933501" lon="17.5032841">
        <ele>26.0929</ele>
        <time>2013-05-05T11:24:34Z</time>
      </trkpt>
      <trkpt lat="59.9933018" lon="17.5034071">
        <ele>26.0929</ele>
        <time>2013-05-05T11:24:35Z</time>
      </trkpt>
      <trkpt lat="59.9932523" lon="17.5035317">
        <ele>26.5736</ele>
        <time>2013-05-05T11:24:36Z</time>
      </trkpt>
      <trkpt lat="59.993201" lon="17.5036544">
        <ele>26.5736</ele>
        <time>2013-05-05T11:24:37Z</time>
      </trkpt>
      <trkpt lat="59.9931485" lon="17.5037706">
        <ele>26.5736</ele>
        <time>2013-05-05T11:24:38Z</time>
      </trkpt>
      <trkpt lat="59.9930932" lon="17.5038816">
        <ele>26.5736</ele>
        <time>2013-05-05T11:24:39Z</time>
      </trkpt>
      <trkpt lat="59.9930348" lon="17.5039902">
        <ele>26.0929</ele>
        <time>2013-05-05T11:24:40Z</time>
      </trkpt>
      <trkpt lat="59.9929736" lon="17.5041006">
        <ele>26.0929</ele>
        <time>2013-05-05T11:24:41Z</time>
      </trkpt>
      <trkpt lat="59.9929115" lon="17.5042143">
        <ele>26.0929</ele>
        <time>2013-05-05T11:24:42Z</time>
      </trkpt>
      <trkpt lat="59.9928488" lon="17.5043278">
        <ele>26.0929</ele>
        <time>2013-05-05T11:24:43Z</time>
      </trkpt>
      <trkpt lat="59.9927854" lon="17.5044389">
        <ele>26.0929</ele>
        <time>2013-05-05T11:24:44Z</time>
      </trkpt>
      <trkpt lat="59.9927228" lon="17.5045518">
        <ele>26.0929</ele>
        <time>2013-05-05T11:24:45Z</time>
      </trkpt>
      <trkpt lat="59.9926605" lon="17.5046652">
        <ele>26.0929</ele>
        <time>2013-05-05T11:24:46Z</time>
      </trkpt>
      <trkpt lat="59.9925979" lon="17.5047779">
        <ele>26.5736</ele>
        <time>2013-05-05T11:24:47Z</time>
      </trkpt>
      <trkpt lat="59.9925359" lon="17.504889">
        <ele>26.5736</ele>
        <time>2013-05-05T11:24:48Z</time>
      </trkpt>
      <trkpt lat="59.9924753" lon="17.5050012">
        <ele>27.0543</ele>
        <time>2013-05-05T11:24:49Z</time>
      </trkpt>
      <trkpt lat="59.9924153" lon="17.5051129">
        <ele>27.0543</ele>
        <time>2013-05-05T11:24:50Z</time>
      </trkpt>
      <trkpt lat="59.9923557" lon="17.5052236">
        <ele>27.0543</ele>
        <time>2013-05-05T11:24:51Z</time>
      </trkpt>
      <trkpt lat="59.9922964" lon="17.5053325">
        <ele>27.5349</ele>
        <time>2013-05-05T11:24:52Z</time>
      </trkpt>
      <trkpt lat="59.9922373" lon="17.5054429">
        <ele>27.5349</ele>
        <time>2013-05-05T11:24:53Z</time>
      </trkpt>
      <trkpt lat="59.9921783" lon="17.5055552">
        <ele>27.5349</ele>
        <time>2013-05-05T11:24:54Z</time>
      </trkpt>
      <trkpt lat="59.992118" lon="17.5056645">
        <ele>28.0155</ele>
        <time>2013-05-05T11:24:55Z</time>
      </trkpt>
      <trkpt lat="59.9920563" lon="17.5057691">
        <ele>28.0155</ele>
        <time>2013-05-05T11:24:56Z</time>
      </trkpt>
      <trkpt lat="59.9919936" lon="17.5058701">
        <ele>28.0155</ele>
        <time>2013-05-05T11:24:57Z</time>
      </trkpt>
      <trkpt lat="59.9919288" lon="17.5059649">
        <ele>28.0155</ele>
        <time>2013-05-05T11:24:58Z</time>
      </trkpt>
      <trkpt lat="59.9918619" lon="17.5060513">
        <ele>28.4962</ele>
        <time>2013-05-05T11:24:59Z</time>
      </trkpt>
      <trkpt lat="59.991792" lon="17.506123">
        <ele>28.4962</ele>
        <time>2013-05-05T11:25:00Z</time>
      </trkpt>
      <trkpt lat="59.99172" lon="17.5061814">
        <ele>28.9769</ele>
        <time>2013-05-05T11:25:01Z</time>
      </trkpt>
      <trkpt lat="59.9916464" lon="17.5062286">
        <ele>28.9769</ele>
        <time>2013-05-05T11:25:02Z</time>
      </trkpt>
      <trkpt lat="59.9915724" lon="17.5062587">
        <ele>28.9769</ele>
        <time>2013-05-05T11:25:03Z</time>
      </trkpt>
      <trkpt lat="59.9914989" lon="17.5062751">
        <ele>29.4575</ele>
        <time>2013-05-05T11:25:04Z</time>
      </trkpt>
      <trkpt lat="59.9914253" lon="17.5062831">
        <ele>29.4575</ele>
        <time>2013-05-05T11:25:05Z</time>
      </trkpt>
      <trkpt lat="59.9913533" lon="17.5062831">
        <ele>29.4575</ele>
        <time>2013-05-05T11:25:06Z</time>
      </trkpt>
      <trkpt lat="59.9912808" lon="17.5062844">
        <ele>29.9381</ele>
        <time>2013-05-05T11:25:07Z</time>
      </trkpt>
      <trkpt lat="59.9912082" lon="17.5062826">
        <ele>29.9381</ele>
        <time>2013-05-05T11:25:08Z</time>
      </trkpt>
      <trkpt lat="59.9911361" lon="17.5062791">
        <ele>29.9381</ele>
        <time>2013-05-05T11:25:09Z</time>
      </trkpt>
      <trkpt lat="59.9910642" lon="17.5062783">
        <ele>29.9381</ele>
        <time>2013-05-05T11:25:10Z</time>
      </trkpt>
      <trkpt lat="59.9909925" lon="17.5062808">
        <ele>29.9381</ele>
        <time>2013-05-05T11:25:11Z</time>
      </trkpt>
      <trkpt lat="59.9909212" lon="17.5062856">
        <ele>29.9381</ele>
        <time>2013-05-05T11:25:12Z</time>
      </trkpt>
      <trkpt lat="59.9908503" lon="17.5062897">
        <ele>29.9381</ele>
        <time>2013-05-05T11:25:13Z</time>
      </trkpt>
      <trkpt lat="59.9907782" lon="17.5062947">
        <ele>29.9381</ele>
        <time>2013-05-05T11:25:14Z</time>
      </trkpt>
      <trkpt lat="59.9907031" lon="17.5063098">
        <ele>29.9381</ele>
        <time>2013-05-05T11:25:15Z</time>
      </trkpt>
      <trkpt lat="59.9906276" lon="17.5063369">
        <ele>29.9381</ele>
        <time>2013-05-05T11:25:16Z</time>
      </trkpt>
      <trkpt lat="59.9905545" lon="17.5063745">
        <ele>29.9381</ele>
        <time>2013-05-05T11:25:17Z</time>
      </trkpt>
      <trkpt lat="59.9904829" lon="17.5064245">
        <ele>29.9381</ele>
        <time>2013-05-05T11:25:18Z</time>
      </trkpt>
      <trkpt lat="59.9904131" lon="17.506491">
        <ele>29.9381</ele>
        <time>2013-05-05T11:25:19Z</time>
      </trkpt>
      <trkpt lat="59.9903466" lon="17.5065698">
        <ele>29.9381</ele>
        <time>2013-05-05T11:25:20Z</time>
      </trkpt>
      <trkpt lat="59.9902794" lon="17.506659">
        <ele>29.9381</ele>
        <time>2013-05-05T11:25:21Z</time>
      </trkpt>
      <trkpt lat="59.9902137" lon="17.5067554">
        <ele>29.9381</ele>
        <time>2013-05-05T11:25:22Z</time>
      </trkpt>
      <trkpt lat="59.9901494" lon="17.5068559">
        <ele>29.9381</ele>
        <time>2013-05-05T11:25:23Z</time>
      </trkpt>
      <trkpt lat="59.9900863" lon="17.5069575">
        <ele>29.9381</ele>
        <time>2013-05-05T11:25:24Z</time>
      </trkpt>
      <trkpt lat="59.9900255" lon="17.5070631">
        <ele>29.9381</ele>
        <time>2013-05-05T11:25:25Z</time>
      </trkpt>
      <trkpt lat="59.9899634" lon="17.5071672">
        <ele>29.9381</ele>
        <time>2013-05-05T11:25:26Z</time>
      </trkpt>
      <trkpt lat="59.9898988" lon="17.5072693">
        <ele>29.9381</ele>
        <time>2013-05-05T11:25:27Z</time>
      </trkpt>
      <trkpt lat="59.989834" lon="17.5073695">
        <ele>29.9381</ele>
        <time>2013-05-05T11:25:28Z</time>
      </trkpt>
      <trkpt lat="59.9897702" lon="17.5074697">
        <ele>29.4575</ele>
        <time>2013-05-05T11:25:29Z</time>
      </trkpt>
      <trkpt lat="59.9897066" lon="17.5075702">
        <ele>29.4575</ele>
        <time>2013-05-05T11:25:30Z</time>
      </trkpt>
      <trkpt lat="59.9896428" lon="17.5076692">
        <ele>29.4575</ele>
        <time>2013-05-05T11:25:31Z</time>
      </trkpt>
      <trkpt lat="59.9895786" lon="17.5077664">
        <ele>29.4575</ele>
        <time>2013-05-05T11:25:32Z</time>
      </trkpt>
      <trkpt lat="59.9895137" lon="17.5078613">
        <ele>29.4575</ele>
        <time>2013-05-05T11:25:33Z</time>
      </trkpt>
      <trkpt lat="59.9894484" lon="17.5079534">
        <ele>29.4575</ele>
        <time>2013-05-05T11:25:34Z</time>
      </trkpt>
      <trkpt lat="59.9893833" lon="17.5080428">
        <ele>29.4575</ele>
        <time>2013-05-05T11:25:35Z</time>
      </trkpt>
      <trkpt lat="59.9893181" lon="17.5081269">
        <ele>29.4575</ele>
        <time>2013-05-05T11:25:36Z</time>
      </trkpt>
      <trkpt lat="59.9892528" lon="17.5082051">
        <ele>29.4575</ele>
        <time>2013-05-05T11:25:37Z</time>
      </trkpt>
      <trkpt lat="59.9891864" lon="17.5082845">
        <ele>29.4575</ele>
        <time>2013-05-05T11:25:38Z</time>
      </trkpt>
      <trkpt lat="59.9891186" lon="17.5083628">
        <ele>29.4575</ele>
        <time>2013-05-05T11:25:39Z</time>
      </trkpt>
      <trkpt lat="59.9890507" lon="17.5084379">
        <ele>29.4575</ele>
        <time>2013-05-05T11:25:40Z</time>
      </trkpt>
      <trkpt lat="59.9889793" lon="17.5085133">
        <ele>29.4575</ele>
        <time>2013-05-05T11:25:41Z</time>
      </trkpt>
      <trkpt lat="59.9889093" lon="17.5085752">
        <ele>29.4575</ele>
        <time>2013-05-05T11:25:42Z</time>
      </trkpt>
      <trkpt lat="59.9888389" lon="17.5086284">
        <ele>28.9769</ele>
        <time>2013-05-05T11:25:43Z</time>
      </trkpt>
      <trkpt lat="59.9887684" lon="17.5086752">
        <ele>29.4575</ele>
        <time>2013-05-05T11:25:44Z</time>
      </trkpt>
      <trkpt lat="59.9886964" lon="17.5087102">
        <ele>28.9769</ele>
        <time>2013-05-05T11:25:45Z</time>
      </trkpt>
      <trkpt lat="59.9886235" lon="17.50875">
        <ele>28.4962</ele>
        <time>2013-05-05T11:25:46Z</time>
      </trkpt>
      <trkpt lat="59.9885494" lon="17.5087894">
        <ele>28.4962</ele>
        <time>2013-05-05T11:25:47Z</time>
      </trkpt>
      <trkpt lat="59.9884732" lon="17.5088212">
        <ele>28.9769</ele>
        <time>2013-05-05T11:25:48Z</time>
      </trkpt>
      <trkpt lat="59.9883965" lon="17.5088413">
        <ele>28.9769</ele>
        <time>2013-05-05T11:25:49Z</time>
      </trkpt>
      <trkpt lat="59.9883182" lon="17.5088622">
        <ele>28.0155</ele>
        <time>2013-05-05T11:25:50Z</time>
      </trkpt>
      <trkpt lat="59.9882437" lon="17.5088808">
        <ele>27.5349</ele>
        <time>2013-05-05T11:25:51Z</time>
      </trkpt>
      <trkpt lat="59.9881699" lon="17.5089046">
        <ele>27.0543</ele>
        <time>2013-05-05T11:25:52Z</time>
      </trkpt>
      <trkpt lat="59.9880971" lon="17.5089315">
        <ele>26.5736</ele>
        <time>2013-05-05T11:25:53Z</time>
      </trkpt>
      <trkpt lat="59.9880243" lon="17.5089708">
        <ele>26.0929</ele>
        <time>2013-05-05T11:25:54Z</time>
      </trkpt>
      <trkpt lat="59.9879523" lon="17.5090176">
        <ele>25.6123</ele>
        <time>2013-05-05T11:25:55Z</time>
      </trkpt>
      <trkpt lat="59.9878806" lon="17.5090673">
        <ele>25.1317</ele>
        <time>2013-05-05T11:25:56Z</time>
      </trkpt>
      <trkpt lat="59.9878095" lon="17.509117">
        <ele>24.651</ele>
        <time>2013-05-05T11:25:57Z</time>
      </trkpt>
      <trkpt lat="59.9877385" lon="17.5091715">
        <ele>24.1703</ele>
        <time>2013-05-05T11:25:58Z</time>
      </trkpt>
      <trkpt lat="59.9876688" lon="17.5092299">
        <ele>23.6896</ele>
        <time>2013-05-05T11:25:59Z</time>
      </trkpt>
      <trkpt lat="59.9876002" lon="17.5092931">
        <ele>23.209</ele>
        <time>2013-05-05T11:26:00Z</time>
      </trkpt>
      <trkpt lat="59.9875319" lon="17.5093589">
        <ele>22.7283</ele>
        <time>2013-05-05T11:26:01Z</time>
      </trkpt>
      <trkpt lat="59.9874646" lon="17.5094276">
        <ele>22.7283</ele>
        <time>2013-05-05T11:26:02Z</time>
      </trkpt>
      <trkpt lat="59.9873997" lon="17.5094987">
        <ele>22.7283</ele>
        <time>2013-05-05T11:26:03Z</time>
      </trkpt>
      <trkpt lat="59.9873354" lon="17.5095706">
        <ele>22.7283</ele>
        <time>2013-05-05T11:26:04Z</time>
      </trkpt>
      <trkpt lat="59.9872679" lon="17.5096351">
        <ele>22.2476</ele>
        <time>2013-05-05T11:26:05Z</time>
      </trkpt>
      <trkpt lat="59.9872018" lon="17.5096942">
        <ele>22.2476</ele>
        <time>2013-05-05T11:26:06Z</time>
      </trkpt>
      <trkpt lat="59.987138" lon="17.50975">
        <ele>21.767</ele>
        <time>2013-05-05T11:26:07Z</time>
      </trkpt>
      <trkpt lat="59.9870766" lon="17.509793">
        <ele>21.2864</ele>
        <time>2013-05-05T11:26:08Z</time>
      </trkpt>
      <trkpt lat="59.9870135" lon="17.5098246">
        <ele>20.8057</ele>
        <time>2013-05-05T11:26:09Z</time>
      </trkpt>
      <trkpt lat="59.9869532" lon="17.5098614">
        <ele>20.8057</ele>
        <time>2013-05-05T11:26:10Z</time>
      </trkpt>
      <trkpt lat="59.9868935" lon="17.5099065">
        <ele>19.3638</ele>
        <time>2013-05-05T11:26:11Z</time>
      </trkpt>
      <trkpt lat="59.9868336" lon="17.5099691">
        <ele>17.9218</ele>
        <time>2013-05-05T11:26:12Z</time>
      </trkpt>
      <trkpt lat="59.986769" lon="17.5100566">
        <ele>15.999</ele>
        <time>2013-05-05T11:26:13Z</time>
      </trkpt>
      <trkpt lat="59.9867117" lon="17.5101397">
        <ele>15.0377</ele>
        <time>2013-05-05T11:26:14Z</time>
      </trkpt>
      <trkpt lat="59.9866648" lon="17.510209">
        <ele>15.5184</ele>
        <time>2013-05-05T11:26:15Z</time>
      </trkpt>
      <trkpt lat="59.9866151" lon="17.5103047">
        <ele>16.9604</ele>
        <time>2013-05-05T11:26:16Z</time>
      </trkpt>
      <trkpt lat="59.9865625" lon="17.5104041">
        <ele>16.9604</ele>
        <time>2013-05-05T11:26:17Z</time>
      </trkpt>
      <trkpt lat="59.9865011" lon="17.5105208">
        <ele>16.9604</ele>
        <time>2013-05-05T11:26:18Z</time>
      </trkpt>
      <trkpt lat="59.9864455" lon="17.5106291">
        <ele>16.4797</ele>
        <time>2013-05-05T11:26:19Z</time>
      </trkpt>
      <trkpt lat="59.9863877" lon="17.5107429">
        <ele>16.9604</ele>
        <time>2013-05-05T11:26:20Z</time>
      </trkpt>
      <trkpt lat="59.986327" lon="17.5108476">
        <ele>16.9604</ele>
        <time>2013-05-05T11:26:21Z</time>
      </trkpt>
      <trkpt lat="59.9862616" lon="17.5109502">
        <ele>16.9604</ele>
        <time>2013-05-05T11:26:22Z</time>
      </trkpt>
      <trkpt lat="59.9861945" lon="17.5110497">
        <ele>16.9604</ele>
        <time>2013-05-05T11:26:23Z</time>
      </trkpt>
      <trkpt lat="59.9861274" lon="17.5111502">
        <ele>16.9604</ele>
        <time>2013-05-05T11:26:24Z</time>
      </trkpt>
      <trkpt lat="59.9860608" lon="17.5112558">
        <ele>17.4412</ele>
        <time>2013-05-05T11:26:25Z</time>
      </trkpt>
      <trkpt lat="59.985993" lon="17.5113579">
        <ele>17.9218</ele>
        <time>2013-05-05T11:26:26Z</time>
      </trkpt>
      <trkpt lat="59.9859233" lon="17.5114546">
        <ele>17.9218</ele>
        <time>2013-05-05T11:26:27Z</time>
      </trkpt>
      <trkpt lat="59.9858536" lon="17.5115499">
        <ele>18.8831</ele>
        <time>2013-05-05T11:26:28Z</time>
      </trkpt>
      <trkpt lat="59.985784" lon="17.5116439">
        <ele>19.3638</ele>
        <time>2013-05-05T11:26:29Z</time>
      </trkpt>
      <trkpt lat="59.9857147" lon="17.5117392">
        <ele>19.8444</ele>
        <time>2013-05-05T11:26:30Z</time>
      </trkpt>
      <trkpt lat="59.9856439" lon="17.5118309">
        <ele>19.8444</ele>
        <time>2013-05-05T11:26:31Z</time>
      </trkpt>
      <trkpt lat="59.9855722" lon="17.5119156">
        <ele>20.325</ele>
        <time>2013-05-05T11:26:32Z</time>
      </trkpt>
      <trkpt lat="59.9854991" lon="17.5119971">
        <ele>20.325</ele>
        <time>2013-05-05T11:26:33Z</time>
      </trkpt>
      <trkpt lat="59.985425" lon="17.5120733">
        <ele>20.8057</ele>
        <time>2013-05-05T11:26:34Z</time>
      </trkpt>
      <trkpt lat="59.9853491" lon="17.5121478">
        <ele>20.8057</ele>
        <time>2013-05-05T11:26:35Z</time>
      </trkpt>
      <trkpt lat="59.9852737" lon="17.5122207">
        <ele>21.767</ele>
        <time>2013-05-05T11:26:36Z</time>
      </trkpt>
      <trkpt lat="59.9851988" lon="17.5122959">
        <ele>21.767</ele>
        <time>2013-05-05T11:26:37Z</time>
      </trkpt>
      <trkpt lat="59.9851251" lon="17.5123713">
        <ele>22.2476</ele>
        <time>2013-05-05T11:26:38Z</time>
      </trkpt>
      <trkpt lat="59.9850511" lon="17.51245">
        <ele>22.7283</ele>
        <time>2013-05-05T11:26:39Z</time>
      </trkpt>
      <trkpt lat="59.9849776" lon="17.5125329">
        <ele>23.209</ele>
        <time>2013-05-05T11:26:40Z</time>
      </trkpt>
      <trkpt lat="59.9849076" lon="17.5126167">
        <ele>24.1703</ele>
        <time>2013-05-05T11:26:41Z</time>
      </trkpt>
      <trkpt lat="59.9848402" lon="17.5127016">
        <ele>25.6123</ele>
        <time>2013-05-05T11:26:42Z</time>
      </trkpt>
      <trkpt lat="59.9847751" lon="17.5127985">
        <ele>26.0929</ele>
        <time>2013-05-05T11:26:43Z</time>
      </trkpt>
      <trkpt lat="59.9847137" lon="17.5129152">
        <ele>26.5736</ele>
        <time>2013-05-05T11:26:44Z</time>
      </trkpt>
      <trkpt lat="59.9846549" lon="17.5130581">
        <ele>27.5349</ele>
        <time>2013-05-05T11:26:45Z</time>
      </trkpt>
      <trkpt lat="59.9846044" lon="17.5132004">
        <ele>27.0543</ele>
        <time>2013-05-05T11:26:46Z</time>
      </trkpt>
      <trkpt lat="59.9845611" lon="17.513346">
        <ele>26.5736</ele>
        <time>2013-05-05T11:26:47Z</time>
      </trkpt>
      <trkpt lat="59.9845202" lon="17.5135009">
        <ele>26.0929</ele>
        <time>2013-05-05T11:26:48Z</time>
      </trkpt>
      <trkpt lat="59.9844866" lon="17.5136563">
        <ele>25.6123</ele>
        <time>2013-05-05T11:26:49Z</time>
      </trkpt>
      <trkpt lat="59.9844559" lon="17.5138105">
        <ele>25.1317</ele>
        <time>2013-05-05T11:26:50Z</time>
      </trkpt>
      <trkpt lat="59.9844249" lon="17.5139617">
        <ele>25.1317</ele>
        <time>2013-05-05T11:26:51Z</time>
      </trkpt>
      <trkpt lat="59.9843969" lon="17.5141117">
        <ele>25.1317</ele>
        <time>2013-05-05T11:26:52Z</time>
      </trkpt>
      <trkpt lat="59.9843719" lon="17.5142593">
        <ele>25.1317</ele>
        <time>2013-05-05T11:26:53Z</time>
      </trkpt>
      <trkpt lat="59.984347" lon="17.5144018">
        <ele>25.6123</ele>
        <time>2013-05-05T11:26:54Z</time>
      </trkpt>
      <trkpt lat="59.9843182" lon="17.5145409">
        <ele>25.6123</ele>
        <time>2013-05-05T11:26:55Z</time>
      </trkpt>
      <trkpt lat="59.9842885" lon="17.514678">
        <ele>25.6123</ele>
        <time>2013-05-05T11:26:56Z</time>
      </trkpt>
      <trkpt lat="59.9842597" lon="17.5148145">
        <ele>25.6123</ele>
        <time>2013-05-05T11:26:57Z</time>
      </trkpt>
      <trkpt lat="59.9842308" lon="17.5149492">
        <ele>25.1317</ele>
        <time>2013-05-05T11:26:58Z</time>
      </trkpt>
      <trkpt lat="59.9841979" lon="17.5150835">
        <ele>25.1317</ele>
        <time>2013-05-05T11:26:59Z</time>
      </trkpt>
      <trkpt lat="59.9841607" lon="17.5152231">
        <ele>25.1317</ele>
        <time>2013-05-05T11:27:00Z</time>
      </trkpt>
      <trkpt lat="59.9841222" lon="17.5153661">
        <ele>24.651</ele>
        <time>2013-05-05T11:27:01Z</time>
      </trkpt>
      <trkpt lat="59.9840778" lon="17.5155097">
        <ele>24.651</ele>
        <time>2013-05-05T11:27:02Z</time>
      </trkpt>
      <trkpt lat="59.9840337" lon="17.5156507">
        <ele>24.651</ele>
        <time>2013-05-05T11:27:03Z</time>
      </trkpt>
      <trkpt lat="59.9839889" lon="17.5157905">
        <ele>24.1703</ele>
        <time>2013-05-05T11:27:04Z</time>
      </trkpt>
      <trkpt lat="59.9839441" lon="17.5159304">
        <ele>24.1703</ele>
        <time>2013-05-05T11:27:05Z</time>
      </trkpt>
      <trkpt lat="59.9838991" lon="17.5160708">
        <ele>24.1703</ele>
        <time>2013-05-05T11:27:06Z</time>
      </trkpt>
      <trkpt lat="59.9838554" lon="17.516211">
        <ele>24.1703</ele>
        <time>2013-05-05T11:27:07Z</time>
      </trkpt>
      <trkpt lat="59.9838099" lon="17.5163531">
        <ele>24.1703</ele>
        <time>2013-05-05T11:27:08Z</time>
      </trkpt>
      <trkpt lat="59.9837676" lon="17.516495">
        <ele>23.6896</ele>
        <time>2013-05-05T11:27:09Z</time>
      </trkpt>
      <trkpt lat="59.9837267" lon="17.5166393">
        <ele>23.209</ele>
        <time>2013-05-05T11:27:10Z</time>
      </trkpt>
      <trkpt lat="59.9836853" lon="17.5167913">
        <ele>22.7283</ele>
        <time>2013-05-05T11:27:11Z</time>
      </trkpt>
      <trkpt lat="59.983641" lon="17.5169514">
        <ele>22.2476</ele>
        <time>2013-05-05T11:27:12Z</time>
      </trkpt>
      <trkpt lat="59.9835951" lon="17.5171134">
        <ele>21.2864</ele>
        <time>2013-05-05T11:27:13Z</time>
      </trkpt>
      <trkpt lat="59.9835474" lon="17.5172789">
        <ele>20.8057</ele>
        <time>2013-05-05T11:27:14Z</time>
      </trkpt>
      <trkpt lat="59.9834956" lon="17.517444">
        <ele>20.325</ele>
        <time>2013-05-05T11:27:15Z</time>
      </trkpt>
      <trkpt lat="59.9834345" lon="17.5175978">
        <ele>20.325</ele>
        <time>2013-05-05T11:27:16Z</time>
      </trkpt>
      <trkpt lat="59.9833626" lon="17.5177294">
        <ele>19.8444</ele>
        <time>2013-05-05T11:27:17Z</time>
      </trkpt>
      <trkpt lat="59.9832661" lon="17.5178228">
        <ele>19.8444</ele>
        <time>2013-05-05T11:27:18Z</time>
      </trkpt>
      <trkpt lat="59.9831616" lon="17.5178812">
        <ele>19.8444</ele>
        <time>2013-05-05T11:27:19Z</time>
      </trkpt>
      <trkpt lat="59.9830616" lon="17.5179272">
        <ele>20.325</ele>
        <time>2013-05-05T11:27:20Z</time>
      </trkpt>
      <trkpt lat="59.9829646" lon="17.5179698">
        <ele>20.8057</ele>
        <time>2013-05-05T11:27:21Z</time>
      </trkpt>
      <trkpt lat="59.9828702" lon="17.518005">
        <ele>20.8057</ele>
        <time>2013-05-05T11:27:22Z</time>
      </trkpt>
      <trkpt lat="59.9827761" lon="17.5180378">
        <ele>21.2864</ele>
        <time>2013-05-05T11:27:23Z</time>
      </trkpt>
      <trkpt lat="59.9826826" lon="17.5180668">
        <ele>21.767</ele>
        <time>2013-05-05T11:27:24Z</time>
      </trkpt>
      <trkpt lat="59.9825891" lon="17.5180973">
        <ele>21.767</ele>
        <time>2013-05-05T11:27:25Z</time>
      </trkpt>
      <trkpt lat="59.9824965" lon="17.5181262">
        <ele>21.767</ele>
        <time>2013-05-05T11:27:26Z</time>
      </trkpt>
      <trkpt lat="59.982406" lon="17.5181585">
        <ele>22.2476</ele>
        <time>2013-05-05T11:27:27Z</time>
      </trkpt>
      <trkpt lat="59.9823172" lon="17.5182007">
        <ele>22.2476</ele>
        <time>2013-05-05T11:27:28Z</time>
      </trkpt>
      <trkpt lat="59.9822289" lon="17.5182392">
        <ele>22.7283</ele>
        <time>2013-05-05T11:27:29Z</time>
      </trkpt>
      <trkpt lat="59.9821403" lon="17.5182701">
        <ele>23.209</ele>
        <time>2013-05-05T11:27:30Z</time>
      </trkpt>
      <trkpt lat="59.9820493" lon="17.5182926">
        <ele>22.7283</ele>
        <time>2013-05-05T11:27:31Z</time>
      </trkpt>
      <trkpt lat="59.9819602" lon="17.5183017">
        <ele>22.7283</ele>
        <time>2013-05-05T11:27:32Z</time>
      </trkpt>
      <trkpt lat="59.9818696" lon="17.5182967">
        <ele>22.2476</ele>
        <time>2013-05-05T11:27:33Z</time>
      </trkpt>
      <trkpt lat="59.9817798" lon="17.5182846">
        <ele>22.2476</ele>
        <time>2013-05-05T11:27:34Z</time>
      </trkpt>
      <trkpt lat="59.9816904" lon="17.518262">
        <ele>21.767</ele>
        <time>2013-05-05T11:27:35Z</time>
      </trkpt>
      <trkpt lat="59.9816021" lon="17.5182375">
        <ele>21.767</ele>
        <time>2013-05-05T11:27:36Z</time>
      </trkpt>
      <trkpt lat="59.981514" lon="17.5182195">
        <ele>21.767</ele>
        <time>2013-05-05T11:27:37Z</time>
      </trkpt>
      <trkpt lat="59.9814261" lon="17.5182024">
        <ele>21.767</ele>
        <time>2013-05-05T11:27:38Z</time>
      </trkpt>
      <trkpt lat="59.9813384" lon="17.518183">
        <ele>21.767</ele>
        <time>2013-05-05T11:27:39Z</time>
      </trkpt>
      <trkpt lat="59.9812505" lon="17.5181609">
        <ele>21.2864</ele>
        <time>2013-05-05T11:27:40Z</time>
      </trkpt>
      <trkpt lat="59.9811633" lon="17.5181383">
        <ele>21.2864</ele>
        <time>2013-05-05T11:27:41Z</time>
      </trkpt>
      <trkpt lat="59.9810765" lon="17.518117">
        <ele>21.2864</ele>
        <time>2013-05-05T11:27:42Z</time>
      </trkpt>
      <trkpt lat="59.9809903" lon="17.5180967">
        <ele>21.2864</ele>
        <time>2013-05-05T11:27:43Z</time>
      </trkpt>
      <trkpt lat="59.9809046" lon="17.5180756">
        <ele>21.2864</ele>
        <time>2013-05-05T11:27:44Z</time>
      </trkpt>
      <trkpt lat="59.98082" lon="17.5180563">
        <ele>21.2864</ele>
        <time>2013-05-05T11:27:45Z</time>
      </trkpt>
      <trkpt lat="59.9807362" lon="17.5180366">
        <ele>21.2864</ele>
        <time>2013-05-05T11:27:46Z</time>
      </trkpt>
      <trkpt lat="59.9806525" lon="17.518016">
        <ele>21.2864</ele>
        <time>2013-05-05T11:27:47Z</time>
      </trkpt>
      <trkpt lat="59.9805683" lon="17.5179952">
        <ele>21.2864</ele>
        <time>2013-05-05T11:27:48Z</time>
      </trkpt>
      <trkpt lat="59.9804835" lon="17.5179779">
        <ele>21.2864</ele>
        <time>2013-05-05T11:27:49Z</time>
      </trkpt>
      <trkpt lat="59.9803987" lon="17.5179701">
        <ele>21.2864</ele>
        <time>2013-05-05T11:27:50Z</time>
      </trkpt>
      <trkpt lat="59.9803144" lon="17.5179734">
        <ele>21.2864</ele>
        <time>2013-05-05T11:27:51Z</time>
      </trkpt>
      <trkpt lat="59.9802307" lon="17.5179888">
        <ele>21.2864</ele>
        <time>2013-05-05T11:27:52Z</time>
      </trkpt>
      <trkpt lat="59.9801473" lon="17.518016">
        <ele>21.2864</ele>
        <time>2013-05-05T11:27:53Z</time>
      </trkpt>
      <trkpt lat="59.9800641" lon="17.5180548">
        <ele>21.2864</ele>
        <time>2013-05-05T11:27:54Z</time>
      </trkpt>
      <trkpt lat="59.9799799" lon="17.518103">
        <ele>20.8057</ele>
        <time>2013-05-05T11:27:55Z</time>
      </trkpt>
      <trkpt lat="59.9798943" lon="17.5181564">
        <ele>20.8057</ele>
        <time>2013-05-05T11:27:56Z</time>
      </trkpt>
      <trkpt lat="59.9798089" lon="17.5182153">
        <ele>20.8057</ele>
        <time>2013-05-05T11:27:57Z</time>
      </trkpt>
      <trkpt lat="59.9797248" lon="17.51828">
        <ele>20.8057</ele>
        <time>2013-05-05T11:27:58Z</time>
      </trkpt>
      <trkpt lat="59.9796417" lon="17.5183512">
        <ele>20.8057</ele>
        <time>2013-05-05T11:27:59Z</time>
      </trkpt>
      <trkpt lat="59.9795595" lon="17.5184301">
        <ele>20.8057</ele>
        <time>2013-05-05T11:28:00Z</time>
      </trkpt>
      <trkpt lat="59.9794769" lon="17.518509">
        <ele>20.8057</ele>
        <time>2013-05-05T11:28:01Z</time>
      </trkpt>
      <trkpt lat="59.9793939" lon="17.5185856">
        <ele>20.8057</ele>
        <time>2013-05-05T11:28:02Z</time>
      </trkpt>
      <trkpt lat="59.9793114" lon="17.5186618">
        <ele>20.8057</ele>
        <time>2013-05-05T11:28:03Z</time>
      </trkpt>
      <trkpt lat="59.9792301" lon="17.5187394">
        <ele>20.8057</ele>
        <time>2013-05-05T11:28:04Z</time>
      </trkpt>
      <trkpt lat="59.9791482" lon="17.5188152">
        <ele>20.8057</ele>
        <time>2013-05-05T11:28:05Z</time>
      </trkpt>
      <trkpt lat="59.9790655" lon="17.5188852">
        <ele>21.2864</ele>
        <time>2013-05-05T11:28:06Z</time>
      </trkpt>
      <trkpt lat="59.978982" lon="17.518951">
        <ele>21.2864</ele>
        <time>2013-05-05T11:28:07Z</time>
      </trkpt>
      <trkpt lat="59.9788977" lon="17.5190132">
        <ele>21.2864</ele>
        <time>2013-05-05T11:28:08Z</time>
      </trkpt>
      <trkpt lat="59.9788128" lon="17.5190695">
        <ele>21.2864</ele>
        <time>2013-05-05T11:28:09Z</time>
      </trkpt>
      <trkpt lat="59.9787277" lon="17.5191211">
        <ele>21.767</ele>
        <time>2013-05-05T11:28:10Z</time>
      </trkpt>
      <trkpt lat="59.9786432" lon="17.5191717">
        <ele>21.767</ele>
        <time>2013-05-05T11:28:11Z</time>
      </trkpt>
      <trkpt lat="59.9785595" lon="17.5192265">
        <ele>21.767</ele>
        <time>2013-05-05T11:28:12Z</time>
      </trkpt>
      <trkpt lat="59.978477" lon="17.5192871">
        <ele>22.2476</ele>
        <time>2013-05-05T11:28:13Z</time>
      </trkpt>
      <trkpt lat="59.9783962" lon="17.5193543">
        <ele>22.2476</ele>
        <time>2013-05-05T11:28:14Z</time>
      </trkpt>
      <trkpt lat="59.9783175" lon="17.5194326">
        <ele>22.2476</ele>
        <time>2013-05-05T11:28:15Z</time>
      </trkpt>
      <trkpt lat="59.9782409" lon="17.5195228">
        <ele>22.2476</ele>
        <time>2013-05-05T11:28:16Z</time>
      </trkpt>
      <trkpt lat="59.9781664" lon="17.5196231">
        <ele>22.2476</ele>
        <time>2013-05-05T11:28:17Z</time>
      </trkpt>
      <trkpt lat="59.9780936" lon="17.5197321">
        <ele>22.2476</ele>
        <time>2013-05-05T11:28:18Z</time>
      </trkpt>
      <trkpt lat="59.9780236" lon="17.5198507">
        <ele>22.2476</ele>
        <time>2013-05-05T11:28:19Z</time>
      </trkpt>
      <trkpt lat="59.9779585" lon="17.5199785">
        <ele>22.2476</ele>
        <time>2013-05-05T11:28:20Z</time>
      </trkpt>
      <trkpt lat="59.9778981" lon="17.5201149">
        <ele>22.2476</ele>
        <time>2013-05-05T11:28:21Z</time>
      </trkpt>
      <trkpt lat="59.9778426" lon="17.5202563">
        <ele>22.2476</ele>
        <time>2013-05-05T11:28:22Z</time>
      </trkpt>
      <trkpt lat="59.9777886" lon="17.520402">
        <ele>22.2476</ele>
        <time>2013-05-05T11:28:23Z</time>
      </trkpt>
      <trkpt lat="59.9777338" lon="17.520551">
        <ele>21.767</ele>
        <time>2013-05-05T11:28:24Z</time>
      </trkpt>
      <trkpt lat="59.9776784" lon="17.5207002">
        <ele>21.767</ele>
        <time>2013-05-05T11:28:25Z</time>
      </trkpt>
      <trkpt lat="59.9776229" lon="17.5208499">
        <ele>21.767</ele>
        <time>2013-05-05T11:28:26Z</time>
      </trkpt>
      <trkpt lat="59.977567" lon="17.5210003">
        <ele>21.767</ele>
        <time>2013-05-05T11:28:27Z</time>
      </trkpt>
      <trkpt lat="59.97751" lon="17.5211512">
        <ele>21.2864</ele>
        <time>2013-05-05T11:28:28Z</time>
      </trkpt>
      <trkpt lat="59.9774526" lon="17.5213022">
        <ele>21.2864</ele>
        <time>2013-05-05T11:28:29Z</time>
      </trkpt>
      <trkpt lat="59.9773948" lon="17.5214519">
        <ele>21.2864</ele>
        <time>2013-05-05T11:28:30Z</time>
      </trkpt>
      <trkpt lat="59.9773359" lon="17.5216">
        <ele>21.2864</ele>
        <time>2013-05-05T11:28:31Z</time>
      </trkpt>
      <trkpt lat="59.9772764" lon="17.5217471">
        <ele>21.2864</ele>
        <time>2013-05-05T11:28:32Z</time>
      </trkpt>
      <trkpt lat="59.9772159" lon="17.5218927">
        <ele>21.2864</ele>
        <time>2013-05-05T11:28:33Z</time>
      </trkpt>
      <trkpt lat="59.9771532" lon="17.5220356">
        <ele>20.8057</ele>
        <time>2013-05-05T11:28:34Z</time>
      </trkpt>
      <trkpt lat="59.977089" lon="17.5221766">
        <ele>20.8057</ele>
        <time>2013-05-05T11:28:35Z</time>
      </trkpt>
      <trkpt lat="59.9770245" lon="17.5223178">
        <ele>20.8057</ele>
        <time>2013-05-05T11:28:36Z</time>
      </trkpt>
      <trkpt lat="59.9769592" lon="17.52246">
        <ele>20.325</ele>
        <time>2013-05-05T11:28:37Z</time>
      </trkpt>
      <trkpt lat="59.9768934" lon="17.5226028">
        <ele>20.325</ele>
        <time>2013-05-05T11:28:38Z</time>
      </trkpt>
      <trkpt lat="59.9768257" lon="17.5227449">
        <ele>20.325</ele>
        <time>2013-05-05T11:28:39Z</time>
      </trkpt>
      <trkpt lat="59.9767563" lon="17.5228878">
        <ele>20.325</ele>
        <time>2013-05-05T11:28:40Z</time>
      </trkpt>
      <trkpt lat="59.9766864" lon="17.5230298">
        <ele>20.8057</ele>
        <time>2013-05-05T11:28:41Z</time>
      </trkpt>
      <trkpt lat="59.9766159" lon="17.5231697">
        <ele>20.8057</ele>
        <time>2013-05-05T11:28:42Z</time>
      </trkpt>
      <trkpt lat="59.9765452" lon="17.5233089">
        <ele>20.8057</ele>
        <time>2013-05-05T11:28:43Z</time>
      </trkpt>
      <trkpt lat="59.9764743" lon="17.5234491">
        <ele>20.8057</ele>
        <time>2013-05-05T11:28:44Z</time>
      </trkpt>
      <trkpt lat="59.9764033" lon="17.5235865">
        <ele>20.8057</ele>
        <time>2013-05-05T11:28:45Z</time>
      </trkpt>
      <trkpt lat="59.9763326" lon="17.5237216">
        <ele>21.2864</ele>
        <time>2013-05-05T11:28:46Z</time>
      </trkpt>
      <trkpt lat="59.9762625" lon="17.5238557">
        <ele>21.2864</ele>
        <time>2013-05-05T11:28:47Z</time>
      </trkpt>
      <trkpt lat="59.976193" lon="17.5239895">
        <ele>21.767</ele>
        <time>2013-05-05T11:28:48Z</time>
      </trkpt>
      <trkpt lat="59.9761246" lon="17.5241248">
        <ele>21.767</ele>
        <time>2013-05-05T11:28:49Z</time>
      </trkpt>
      <trkpt lat="59.9760588" lon="17.5242635">
        <ele>21.767</ele>
        <time>2013-05-05T11:28:50Z</time>
      </trkpt>
      <trkpt lat="59.9759951" lon="17.524405">
        <ele>21.767</ele>
        <time>2013-05-05T11:28:51Z</time>
      </trkpt>
      <trkpt lat="59.9759317" lon="17.5245483">
        <ele>22.2476</ele>
        <time>2013-05-05T11:28:52Z</time>
      </trkpt>
      <trkpt lat="59.9758684" lon="17.5246915">
        <ele>22.2476</ele>
        <time>2013-05-05T11:28:53Z</time>
      </trkpt>
      <trkpt lat="59.9758043" lon="17.5248318">
        <ele>22.2476</ele>
        <time>2013-05-05T11:28:54Z</time>
      </trkpt>
      <trkpt lat="59.9757389" lon="17.524966">
        <ele>22.7283</ele>
        <time>2013-05-05T11:28:55Z</time>
      </trkpt>
      <trkpt lat="59.9756706" lon="17.5250934">
        <ele>22.7283</ele>
        <time>2013-05-05T11:28:56Z</time>
      </trkpt>
      <trkpt lat="59.9755994" lon="17.5252119">
        <ele>23.209</ele>
        <time>2013-05-05T11:28:57Z</time>
      </trkpt>
      <trkpt lat="59.9755251" lon="17.5253267">
        <ele>23.209</ele>
        <time>2013-05-05T11:28:58Z</time>
      </trkpt>
      <trkpt lat="59.9754505" lon="17.5254379">
        <ele>23.209</ele>
        <time>2013-05-05T11:28:59Z</time>
      </trkpt>
      <trkpt lat="59.9753757" lon="17.5255452">
        <ele>23.209</ele>
        <time>2013-05-05T11:29:00Z</time>
      </trkpt>
      <trkpt lat="59.9752982" lon="17.5256503">
        <ele>23.209</ele>
        <time>2013-05-05T11:29:01Z</time>
      </trkpt>
      <trkpt lat="59.9752204" lon="17.5257519">
        <ele>23.209</ele>
        <time>2013-05-05T11:29:02Z</time>
      </trkpt>
      <trkpt lat="59.9751435" lon="17.5258455">
        <ele>23.209</ele>
        <time>2013-05-05T11:29:03Z</time>
      </trkpt>
      <trkpt lat="59.9750634" lon="17.525927">
        <ele>23.209</ele>
        <time>2013-05-05T11:29:04Z</time>
      </trkpt>
      <trkpt lat="59.9749855" lon="17.5260062">
        <ele>23.209</ele>
        <time>2013-05-05T11:29:05Z</time>
      </trkpt>
      <trkpt lat="59.9749086" lon="17.5260818">
        <ele>22.7283</ele>
        <time>2013-05-05T11:29:06Z</time>
      </trkpt>
      <trkpt lat="59.9748337" lon="17.5261588">
        <ele>22.7283</ele>
        <time>2013-05-05T11:29:07Z</time>
      </trkpt>
      <trkpt lat="59.9747602" lon="17.5262358">
        <ele>22.7283</ele>
        <time>2013-05-05T11:29:08Z</time>
      </trkpt>
      <trkpt lat="59.9746878" lon="17.526314">
        <ele>22.7283</ele>
        <time>2013-05-05T11:29:09Z</time>
      </trkpt>
      <trkpt lat="59.9746174" lon="17.5263837">
        <ele>22.7283</ele>
        <time>2013-05-05T11:29:10Z</time>
      </trkpt>
      <trkpt lat="59.9745475" lon="17.5264575">
        <ele>22.7283</ele>
        <time>2013-05-05T11:29:11Z</time>
      </trkpt>
      <trkpt lat="59.9744781" lon="17.5265273">
        <ele>22.7283</ele>
        <time>2013-05-05T11:29:12Z</time>
      </trkpt>
      <trkpt lat="59.9744075" lon="17.5266035">
        <ele>22.7283</ele>
        <time>2013-05-05T11:29:13Z</time>
      </trkpt>
      <trkpt lat="59.9743381" lon="17.5266838">
        <ele>22.7283</ele>
        <time>2013-05-05T11:29:14Z</time>
      </trkpt>
      <trkpt lat="59.9742671" lon="17.5267749">
        <ele>22.7283</ele>
        <time>2013-05-05T11:29:15Z</time>
      </trkpt>
      <trkpt lat="59.9741962" lon="17.5268605">
        <ele>23.209</ele>
        <time>2013-05-05T11:29:16Z</time>
      </trkpt>
      <trkpt lat="59.9741238" lon="17.5269392">
        <ele>22.7283</ele>
        <time>2013-05-05T11:29:17Z</time>
      </trkpt>
      <trkpt lat="59.9740505" lon="17.5270185">
        <ele>23.209</ele>
        <time>2013-05-05T11:29:18Z</time>
      </trkpt>
      <trkpt lat="59.9739772" lon="17.5270943">
        <ele>23.209</ele>
        <time>2013-05-05T11:29:19Z</time>
      </trkpt>
      <trkpt lat="59.9739021" lon="17.5271634">
        <ele>23.209</ele>
        <time>2013-05-05T11:29:20Z</time>
      </trkpt>
      <trkpt lat="59.973825" lon="17.5272277">
        <ele>23.6896</ele>
        <time>2013-05-05T11:29:21Z</time>
      </trkpt>
      <trkpt lat="59.9737464" lon="17.5272904">
        <ele>23.6896</ele>
        <time>2013-05-05T11:29:22Z</time>
      </trkpt>
      <trkpt lat="59.9736669" lon="17.5273544">
        <ele>24.1703</ele>
        <time>2013-05-05T11:29:23Z</time>
      </trkpt>
      <trkpt lat="59.9735867" lon="17.5274209">
        <ele>24.1703</ele>
        <time>2013-05-05T11:29:24Z</time>
      </trkpt>
      <trkpt lat="59.9735066" lon="17.5274908">
        <ele>24.1703</ele>
        <time>2013-05-05T11:29:25Z</time>
      </trkpt>
      <trkpt lat="59.9734264" lon="17.5275623">
        <ele>24.651</ele>
        <time>2013-05-05T11:29:26Z</time>
      </trkpt>
      <trkpt lat="59.9733458" lon="17.5276359">
        <ele>24.651</ele>
        <time>2013-05-05T11:29:27Z</time>
      </trkpt>
      <trkpt lat="59.9732655" lon="17.5277115">
        <ele>24.651</ele>
        <time>2013-05-05T11:29:28Z</time>
      </trkpt>
      <trkpt lat="59.9731862" lon="17.5277897">
        <ele>24.651</ele>
        <time>2013-05-05T11:29:29Z</time>
      </trkpt>
      <trkpt lat="59.9731089" lon="17.5278664">
        <ele>24.651</ele>
        <time>2013-05-05T11:29:30Z</time>
      </trkpt>
      <trkpt lat="59.9730329" lon="17.5279389">
        <ele>24.651</ele>
        <time>2013-05-05T11:29:31Z</time>
      </trkpt>
      <trkpt lat="59.9729597" lon="17.5280097">
        <ele>24.651</ele>
        <time>2013-05-05T11:29:32Z</time>
      </trkpt>
      <trkpt lat="59.9728887" lon="17.5280808">
        <ele>24.651</ele>
        <time>2013-05-05T11:29:33Z</time>
      </trkpt>
      <trkpt lat="59.9728188" lon="17.5281502">
        <ele>24.651</ele>
        <time>2013-05-05T11:29:34Z</time>
      </trkpt>
      <trkpt lat="59.9727494" lon="17.5282186">
        <ele>24.651</ele>
        <time>2013-05-05T11:29:35Z</time>
      </trkpt>
      <trkpt lat="59.9726799" lon="17.5282887">
        <ele>24.651</ele>
        <time>2013-05-05T11:29:36Z</time>
      </trkpt>
      <trkpt lat="59.9726096" lon="17.5283606">
        <ele>25.1317</ele>
        <time>2013-05-05T11:29:37Z</time>
      </trkpt>
      <trkpt lat="59.9725375" lon="17.5284277">
        <ele>25.1317</ele>
        <time>2013-05-05T11:29:38Z</time>
      </trkpt>
      <trkpt lat="59.9724639" lon="17.52849">
        <ele>25.1317</ele>
        <time>2013-05-05T11:29:39Z</time>
      </trkpt>
      <trkpt lat="59.9723908" lon="17.5285559">
        <ele>25.1317</ele>
        <time>2013-05-05T11:29:40Z</time>
      </trkpt>
      <trkpt lat="59.9723183" lon="17.5286302">
        <ele>25.1317</ele>
        <time>2013-05-05T11:29:41Z</time>
      </trkpt>
      <trkpt lat="59.9722459" lon="17.5287076">
        <ele>25.6123</ele>
        <time>2013-05-05T11:29:42Z</time>
      </trkpt>
      <trkpt lat="59.9721729" lon="17.5287847">
        <ele>25.6123</ele>
        <time>2013-05-05T11:29:43Z</time>
      </trkpt>
      <trkpt lat="59.9720997" lon="17.528862">
        <ele>25.6123</ele>
        <time>2013-05-05T11:29:44Z</time>
      </trkpt>
      <trkpt lat="59.9720272" lon="17.5289407">
        <ele>25.6123</ele>
        <time>2013-05-05T11:29:45Z</time>
      </trkpt>
      <trkpt lat="59.9719554" lon="17.5290204">
        <ele>25.6123</ele>
        <time>2013-05-05T11:29:46Z</time>
      </trkpt>
      <trkpt lat="59.9718842" lon="17.5291035">
        <ele>25.6123</ele>
        <time>2013-05-05T11:29:47Z</time>
      </trkpt>
      <trkpt lat="59.9718134" lon="17.529192">
        <ele>25.6123</ele>
        <time>2013-05-05T11:29:48Z</time>
      </trkpt>
      <trkpt lat="59.9717426" lon="17.5292801">
        <ele>25.1317</ele>
        <time>2013-05-05T11:29:49Z</time>
      </trkpt>
      <trkpt lat="59.9716728" lon="17.5293687">
        <ele>25.1317</ele>
        <time>2013-05-05T11:29:50Z</time>
      </trkpt>
      <trkpt lat="59.9716052" lon="17.5294577">
        <ele>25.1317</ele>
        <time>2013-05-05T11:29:51Z</time>
      </trkpt>
      <trkpt lat="59.9715367" lon="17.5295566">
        <ele>24.651</ele>
        <time>2013-05-05T11:29:52Z</time>
      </trkpt>
      <trkpt lat="59.9714672" lon="17.52966">
        <ele>24.651</ele>
        <time>2013-05-05T11:29:53Z</time>
      </trkpt>
      <trkpt lat="59.9714004" lon="17.529751">
        <ele>24.651</ele>
        <time>2013-05-05T11:29:54Z</time>
      </trkpt>
      <trkpt lat="59.9713297" lon="17.5298467">
        <ele>24.651</ele>
        <time>2013-05-05T11:29:55Z</time>
      </trkpt>
      <trkpt lat="59.9712606" lon="17.5299427">
        <ele>24.651</ele>
        <time>2013-05-05T11:29:56Z</time>
      </trkpt>
      <trkpt lat="59.9711906" lon="17.5300476">
        <ele>24.651</ele>
        <time>2013-05-05T11:29:57Z</time>
      </trkpt>
      <trkpt lat="59.9711238" lon="17.5301506">
        <ele>24.1703</ele>
        <time>2013-05-05T11:29:58Z</time>
      </trkpt>
      <trkpt lat="59.9710582" lon="17.5302542">
        <ele>23.6896</ele>
        <time>2013-05-05T11:29:59Z</time>
      </trkpt>
      <trkpt lat="59.9709928" lon="17.5303554">
        <ele>23.6896</ele>
        <time>2013-05-05T11:30:00Z</time>
      </trkpt>
      <trkpt lat="59.9709264" lon="17.5304576">
        <ele>22.7283</ele>
        <time>2013-05-05T11:30:01Z</time>
      </trkpt>
      <trkpt lat="59.9708582" lon="17.5305605">
        <ele>22.7283</ele>
        <time>2013-05-05T11:30:02Z</time>
      </trkpt>
      <trkpt lat="59.9707894" lon="17.530661">
        <ele>22.2476</ele>
        <time>2013-05-05T11:30:03Z</time>
      </trkpt>
      <trkpt lat="59.970722" lon="17.530761">
        <ele>21.767</ele>
        <time>2013-05-05T11:30:04Z</time>
      </trkpt>
      <trkpt lat="59.9706541" lon="17.5308672">
        <ele>21.767</ele>
        <time>2013-05-05T11:30:05Z</time>
      </trkpt>
      <trkpt lat="59.9705862" lon="17.5309812">
        <ele>21.2864</ele>
        <time>2013-05-05T11:30:06Z</time>
      </trkpt>
      <trkpt lat="59.9705198" lon="17.5311007">
        <ele>21.2864</ele>
        <time>2013-05-05T11:30:07Z</time>
      </trkpt>
      <trkpt lat="59.9704563" lon="17.5312226">
        <ele>21.2864</ele>
        <time>2013-05-05T11:30:08Z</time>
      </trkpt>
      <trkpt lat="59.9703977" lon="17.5313474">
        <ele>20.8057</ele>
        <time>2013-05-05T11:30:09Z</time>
      </trkpt>
      <trkpt lat="59.9703443" lon="17.5314769">
        <ele>20.8057</ele>
        <time>2013-05-05T11:30:10Z</time>
      </trkpt>
      <trkpt lat="59.9702927" lon="17.5316095">
        <ele>20.325</ele>
        <time>2013-05-05T11:30:11Z</time>
      </trkpt>
      <trkpt lat="59.9702417" lon="17.5317546">
        <ele>21.767</ele>
        <time>2013-05-05T11:30:12Z</time>
      </trkpt>
      <trkpt lat="59.9701914" lon="17.5318975">
        <ele>21.767</ele>
        <time>2013-05-05T11:30:13Z</time>
      </trkpt>
      <trkpt lat="59.970144" lon="17.5320389">
        <ele>21.767</ele>
        <time>2013-05-05T11:30:14Z</time>
      </trkpt>
      <trkpt lat="59.9700968" lon="17.5321819">
        <ele>21.2864</ele>
        <time>2013-05-05T11:30:15Z</time>
      </trkpt>
      <trkpt lat="59.9700525" lon="17.5323218">
        <ele>20.8057</ele>
        <time>2013-05-05T11:30:16Z</time>
      </trkpt>
      <trkpt lat="59.9700093" lon="17.5324595">
        <ele>20.8057</ele>
        <time>2013-05-05T11:30:17Z</time>
      </trkpt>
      <trkpt lat="59.9699625" lon="17.5325985">
        <ele>20.325</ele>
        <time>2013-05-05T11:30:18Z</time>
      </trkpt>
      <trkpt lat="59.9699144" lon="17.5327356">
        <ele>19.8444</ele>
        <time>2013-05-05T11:30:19Z</time>
      </trkpt>
      <trkpt lat="59.9698629" lon="17.5328709">
        <ele>19.8444</ele>
        <time>2013-05-05T11:30:20Z</time>
      </trkpt>
      <trkpt lat="59.9698094" lon="17.5330043">
        <ele>19.8444</ele>
        <time>2013-05-05T11:30:21Z</time>
      </trkpt>
      <trkpt lat="59.9697517" lon="17.5331325">
        <ele>19.8444</ele>
        <time>2013-05-05T11:30:22Z</time>
      </trkpt>
      <trkpt lat="59.9696911" lon="17.5332512">
        <ele>19.8444</ele>
        <time>2013-05-05T11:30:23Z</time>
      </trkpt>
      <trkpt lat="59.9696309" lon="17.533354">
        <ele>19.3638</ele>
        <time>2013-05-05T11:30:24Z</time>
      </trkpt>
      <trkpt lat="59.9695697" lon="17.5334503">
        <ele>19.3638</ele>
        <time>2013-05-05T11:30:25Z</time>
      </trkpt>
      <trkpt lat="59.9694979" lon="17.5335645">
        <ele>18.8831</ele>
        <time>2013-05-05T11:30:26Z</time>
      </trkpt>
      <trkpt lat="59.9694314" lon="17.5336665">
        <ele>18.8831</ele>
        <time>2013-05-05T11:30:27Z</time>
      </trkpt>
      <trkpt lat="59.9693662" lon="17.5337696">
        <ele>18.4023</ele>
        <time>2013-05-05T11:30:28Z</time>
      </trkpt>
      <trkpt lat="59.9693026" lon="17.5338748">
        <ele>18.4023</ele>
        <time>2013-05-05T11:30:29Z</time>
      </trkpt>
      <trkpt lat="59.9692401" lon="17.533983">
        <ele>17.9218</ele>
        <time>2013-05-05T11:30:30Z</time>
      </trkpt>
      <trkpt lat="59.9691787" lon="17.5340943">
        <ele>18.4023</ele>
        <time>2013-05-05T11:30:31Z</time>
      </trkpt>
      <trkpt lat="59.9691155" lon="17.5342014">
        <ele>17.9218</ele>
        <time>2013-05-05T11:30:32Z</time>
      </trkpt>
      <trkpt lat="59.9690545" lon="17.5343214">
        <ele>17.9218</ele>
        <time>2013-05-05T11:30:33Z</time>
      </trkpt>
      <trkpt lat="59.968999" lon="17.5344382">
        <ele>17.9218</ele>
        <time>2013-05-05T11:30:34Z</time>
      </trkpt>
      <trkpt lat="59.9689426" lon="17.5345527">
        <ele>18.4023</ele>
        <time>2013-05-05T11:30:35Z</time>
      </trkpt>
      <trkpt lat="59.9688836" lon="17.5346565">
        <ele>18.8831</ele>
        <time>2013-05-05T11:30:36Z</time>
      </trkpt>
      <trkpt lat="59.9688236" lon="17.5347615">
        <ele>18.8831</ele>
        <time>2013-05-05T11:30:37Z</time>
      </trkpt>
      <trkpt lat="59.9687647" lon="17.5348656">
        <ele>18.8831</ele>
        <time>2013-05-05T11:30:38Z</time>
      </trkpt>
      <trkpt lat="59.968708" lon="17.5349745">
        <ele>18.8831</ele>
        <time>2013-05-05T11:30:39Z</time>
      </trkpt>
      <trkpt lat="59.968652" lon="17.5350838">
        <ele>18.4023</ele>
        <time>2013-05-05T11:30:40Z</time>
      </trkpt>
      <trkpt lat="59.9685961" lon="17.5351905">
        <ele>18.4023</ele>
        <time>2013-05-05T11:30:41Z</time>
      </trkpt>
      <trkpt lat="59.9685405" lon="17.5352909">
        <ele>17.9218</ele>
        <time>2013-05-05T11:30:42Z</time>
      </trkpt>
      <trkpt lat="59.9684846" lon="17.5353903">
        <ele>17.9218</ele>
        <time>2013-05-05T11:30:43Z</time>
      </trkpt>
      <trkpt lat="59.9684294" lon="17.5354915">
        <ele>16.9604</ele>
        <time>2013-05-05T11:30:44Z</time>
      </trkpt>
      <trkpt lat="59.9683742" lon="17.5355976">
        <ele>16.9604</ele>
        <time>2013-05-05T11:30:45Z</time>
      </trkpt>
      <trkpt lat="59.9683188" lon="17.5357016">
        <ele>16.4797</ele>
        <time>2013-05-05T11:30:46Z</time>
      </trkpt>
      <trkpt lat="59.9682614" lon="17.5358032">
        <ele>16.4797</ele>
        <time>2013-05-05T11:30:47Z</time>
      </trkpt>
      <trkpt lat="59.9682027" lon="17.5359021">
        <ele>16.4797</ele>
        <time>2013-05-05T11:30:48Z</time>
      </trkpt>
      <trkpt lat="59.9681444" lon="17.5360053">
        <ele>16.4797</ele>
        <time>2013-05-05T11:30:49Z</time>
      </trkpt>
      <trkpt lat="59.9680909" lon="17.5361113">
        <ele>15.999</ele>
        <time>2013-05-05T11:30:50Z</time>
      </trkpt>
      <trkpt lat="59.9680471" lon="17.5362214">
        <ele>15.999</ele>
        <time>2013-05-05T11:30:51Z</time>
      </trkpt>
      <trkpt lat="59.9680046" lon="17.5363409">
        <ele>15.999</ele>
        <time>2013-05-05T11:30:52Z</time>
      </trkpt>
      <trkpt lat="59.967961" lon="17.5364688">
        <ele>15.5184</ele>
        <time>2013-05-05T11:30:53Z</time>
      </trkpt>
      <trkpt lat="59.9679184" lon="17.5365985">
        <ele>15.0377</ele>
        <time>2013-05-05T11:30:54Z</time>
      </trkpt>
      <trkpt lat="59.9678755" lon="17.5367259">
        <ele>15.0377</ele>
        <time>2013-05-05T11:30:55Z</time>
      </trkpt>
      <trkpt lat="59.9678293" lon="17.5368498">
        <ele>14.557</ele>
        <time>2013-05-05T11:30:56Z</time>
      </trkpt>
      <trkpt lat="59.9677816" lon="17.5369678">
        <ele>14.0764</ele>
        <time>2013-05-05T11:30:57Z</time>
      </trkpt>
      <trkpt lat="59.9677296" lon="17.5370848">
        <ele>13.5958</ele>
        <time>2013-05-05T11:30:58Z</time>
      </trkpt>
      <trkpt lat="59.9676725" lon="17.5372051">
        <ele>14.0764</ele>
        <time>2013-05-05T11:30:59Z</time>
      </trkpt>
      <trkpt lat="59.9676129" lon="17.5373216">
        <ele>14.0764</ele>
        <time>2013-05-05T11:31:00Z</time>
      </trkpt>
      <trkpt lat="59.9675508" lon="17.5374375">
        <ele>14.557</ele>
        <time>2013-05-05T11:31:01Z</time>
      </trkpt>
      <trkpt lat="59.9674855" lon="17.5375449">
        <ele>15.0377</ele>
        <time>2013-05-05T11:31:02Z</time>
      </trkpt>
      <trkpt lat="59.9674193" lon="17.5376464">
        <ele>15.0377</ele>
        <time>2013-05-05T11:31:03Z</time>
      </trkpt>
      <trkpt lat="59.9673564" lon="17.5377457">
        <ele>16.4797</ele>
        <time>2013-05-05T11:31:04Z</time>
      </trkpt>
      <trkpt lat="59.9672924" lon="17.5378354">
        <ele>16.4797</ele>
        <time>2013-05-05T11:31:05Z</time>
      </trkpt>
      <trkpt lat="59.9672285" lon="17.5379267">
        <ele>17.4412</ele>
        <time>2013-05-05T11:31:06Z</time>
      </trkpt>
      <trkpt lat="59.9671641" lon="17.5380226">
        <ele>17.4412</ele>
        <time>2013-05-05T11:31:07Z</time>
      </trkpt>
      <trkpt lat="59.9671011" lon="17.5381183">
        <ele>18.4023</ele>
        <time>2013-05-05T11:31:08Z</time>
      </trkpt>
      <trkpt lat="59.967037" lon="17.5382126">
        <ele>18.4023</ele>
        <time>2013-05-05T11:31:09Z</time>
      </trkpt>
      <trkpt lat="59.9669738" lon="17.5383082">
        <ele>18.8831</ele>
        <time>2013-05-05T11:31:10Z</time>
      </trkpt>
      <trkpt lat="59.9669127" lon="17.5384074">
        <ele>18.8831</ele>
        <time>2013-05-05T11:31:11Z</time>
      </trkpt>
      <trkpt lat="59.9668514" lon="17.5385106">
        <ele>19.3638</ele>
        <time>2013-05-05T11:31:12Z</time>
      </trkpt>
      <trkpt lat="59.9667896" lon="17.538618">
        <ele>19.3638</ele>
        <time>2013-05-05T11:31:13Z</time>
      </trkpt>
      <trkpt lat="59.9667275" lon="17.5387264">
        <ele>19.8444</ele>
        <time>2013-05-05T11:31:14Z</time>
      </trkpt>
      <trkpt lat="59.9666654" lon="17.5388348">
        <ele>19.8444</ele>
        <time>2013-05-05T11:31:15Z</time>
      </trkpt>
      <trkpt lat="59.9666043" lon="17.5389454">
        <ele>19.8444</ele>
        <time>2013-05-05T11:31:16Z</time>
      </trkpt>
      <trkpt lat="59.9665435" lon="17.5390575">
        <ele>20.325</ele>
        <time>2013-05-05T11:31:17Z</time>
      </trkpt>
      <trkpt lat="59.9664825" lon="17.5391684">
        <ele>20.325</ele>
        <time>2013-05-05T11:31:18Z</time>
      </trkpt>
      <trkpt lat="59.9664221" lon="17.5392797">
        <ele>20.325</ele>
        <time>2013-05-05T11:31:19Z</time>
      </trkpt>
      <trkpt lat="59.966361" lon="17.5393901">
        <ele>20.325</ele>
        <time>2013-05-05T11:31:20Z</time>
      </trkpt>
      <trkpt lat="59.9662987" lon="17.5394999">
        <ele>20.325</ele>
        <time>2013-05-05T11:31:21Z</time>
      </trkpt>
      <trkpt lat="59.9662343" lon="17.5396091">
        <ele>20.8057</ele>
        <time>2013-05-05T11:31:22Z</time>
      </trkpt>
      <trkpt lat="59.9661676" lon="17.539716">
        <ele>20.8057</ele>
        <time>2013-05-05T11:31:23Z</time>
      </trkpt>
      <trkpt lat="59.9661007" lon="17.5398195">
        <ele>20.8057</ele>
        <time>2013-05-05T11:31:24Z</time>
      </trkpt>
      <trkpt lat="59.9660334" lon="17.5399231">
        <ele>20.8057</ele>
        <time>2013-05-05T11:31:25Z</time>
      </trkpt>
      <trkpt lat="59.9659656" lon="17.5400267">
        <ele>20.8057</ele>
        <time>2013-05-05T11:31:26Z</time>
      </trkpt>
      <trkpt lat="59.9658973" lon="17.5401283">
        <ele>21.2864</ele>
        <time>2013-05-05T11:31:27Z</time>
      </trkpt>
      <trkpt lat="59.9658258" lon="17.5402261">
        <ele>21.2864</ele>
        <time>2013-05-05T11:31:28Z</time>
      </trkpt>
      <trkpt lat="59.9657506" lon="17.5403212">
        <ele>21.2864</ele>
        <time>2013-05-05T11:31:29Z</time>
      </trkpt>
      <trkpt lat="59.9656731" lon="17.5404187">
        <ele>21.767</ele>
        <time>2013-05-05T11:31:30Z</time>
      </trkpt>
      <trkpt lat="59.9655957" lon="17.5405161">
        <ele>21.767</ele>
        <time>2013-05-05T11:31:31Z</time>
      </trkpt>
      <trkpt lat="59.9655199" lon="17.5406137">
        <ele>22.2476</ele>
        <time>2013-05-05T11:31:32Z</time>
      </trkpt>
      <trkpt lat="59.9654448" lon="17.54071">
        <ele>22.2476</ele>
        <time>2013-05-05T11:31:33Z</time>
      </trkpt>
      <trkpt lat="59.9653689" lon="17.5408006">
        <ele>22.2476</ele>
        <time>2013-05-05T11:31:34Z</time>
      </trkpt>
      <trkpt lat="59.9652937" lon="17.5408891">
        <ele>22.2476</ele>
        <time>2013-05-05T11:31:35Z</time>
      </trkpt>
      <trkpt lat="59.9652195" lon="17.5409793">
        <ele>22.7283</ele>
        <time>2013-05-05T11:31:36Z</time>
      </trkpt>
      <trkpt lat="59.9651456" lon="17.5410709">
        <ele>22.7283</ele>
        <time>2013-05-05T11:31:37Z</time>
      </trkpt>
      <trkpt lat="59.9650721" lon="17.5411627">
        <ele>22.7283</ele>
        <time>2013-05-05T11:31:38Z</time>
      </trkpt>
      <trkpt lat="59.965" lon="17.5412544">
        <ele>22.7283</ele>
        <time>2013-05-05T11:31:39Z</time>
      </trkpt>
      <trkpt lat="59.964928" lon="17.5413448">
        <ele>22.7283</ele>
        <time>2013-05-05T11:31:40Z</time>
      </trkpt>
      <trkpt lat="59.9648555" lon="17.5414313">
        <ele>23.209</ele>
        <time>2013-05-05T11:31:41Z</time>
      </trkpt>
      <trkpt lat="59.9647819" lon="17.5415129">
        <ele>23.209</ele>
        <time>2013-05-05T11:31:42Z</time>
      </trkpt>
      <trkpt lat="59.9647078" lon="17.5415912">
        <ele>23.209</ele>
        <time>2013-05-05T11:31:43Z</time>
      </trkpt>
      <trkpt lat="59.9646341" lon="17.5416685">
        <ele>23.209</ele>
        <time>2013-05-05T11:31:44Z</time>
      </trkpt>
      <trkpt lat="59.9645606" lon="17.5417447">
        <ele>23.6896</ele>
        <time>2013-05-05T11:31:45Z</time>
      </trkpt>
      <trkpt lat="59.9644868" lon="17.541819">
        <ele>23.6896</ele>
        <time>2013-05-05T11:31:46Z</time>
      </trkpt>
      <trkpt lat="59.9644131" lon="17.541891">
        <ele>23.6896</ele>
        <time>2013-05-05T11:31:47Z</time>
      </trkpt>
      <trkpt lat="59.9643385" lon="17.5419624">
        <ele>24.1703</ele>
        <time>2013-05-05T11:31:48Z</time>
      </trkpt>
      <trkpt lat="59.9642635" lon="17.5420324">
        <ele>24.1703</ele>
        <time>2013-05-05T11:31:49Z</time>
      </trkpt>
      <trkpt lat="59.9641886" lon="17.5421004">
        <ele>24.1703</ele>
        <time>2013-05-05T11:31:50Z</time>
      </trkpt>
      <trkpt lat="59.9641137" lon="17.5421676">
        <ele>24.651</ele>
        <time>2013-05-05T11:31:51Z</time>
      </trkpt>
      <trkpt lat="59.9640391" lon="17.5422355">
        <ele>24.651</ele>
        <time>2013-05-05T11:31:52Z</time>
      </trkpt>
      <trkpt lat="59.9639651" lon="17.5423047">
        <ele>25.1317</ele>
        <time>2013-05-05T11:31:53Z</time>
      </trkpt>
      <trkpt lat="59.9638903" lon="17.5423732">
        <ele>25.1317</ele>
        <time>2013-05-05T11:31:54Z</time>
      </trkpt>
      <trkpt lat="59.9638153" lon="17.5424401">
        <ele>25.1317</ele>
        <time>2013-05-05T11:31:55Z</time>
      </trkpt>
      <trkpt lat="59.9637408" lon="17.5425065">
        <ele>25.6123</ele>
        <time>2013-05-05T11:31:56Z</time>
      </trkpt>
      <trkpt lat="59.9636668" lon="17.542572">
        <ele>25.6123</ele>
        <time>2013-05-05T11:31:57Z</time>
      </trkpt>
      <trkpt lat="59.9635938" lon="17.5426385">
        <ele>25.6123</ele>
        <time>2013-05-05T11:31:58Z</time>
      </trkpt>
      <trkpt lat="59.9635228" lon="17.5427083">
        <ele>26.0929</ele>
        <time>2013-05-05T11:31:59Z</time>
      </trkpt>
      <trkpt lat="59.9634538" lon="17.5427841">
        <ele>26.0929</ele>
        <time>2013-05-05T11:32:00Z</time>
      </trkpt>
      <trkpt lat="59.9633874" lon="17.5428693">
        <ele>26.0929</ele>
        <time>2013-05-05T11:32:01Z</time>
      </trkpt>
      <trkpt lat="59.963326" lon="17.5429667">
        <ele>26.5736</ele>
        <time>2013-05-05T11:32:02Z</time>
      </trkpt>
      <trkpt lat="59.9632707" lon="17.5430776">
        <ele>26.5736</ele>
        <time>2013-05-05T11:32:03Z</time>
      </trkpt>
      <trkpt lat="59.9632206" lon="17.5432031">
        <ele>26.5736</ele>
        <time>2013-05-05T11:32:04Z</time>
      </trkpt>
      <trkpt lat="59.9631777" lon="17.5433404">
        <ele>26.5736</ele>
        <time>2013-05-05T11:32:05Z</time>
      </trkpt>
      <trkpt lat="59.9631383" lon="17.5434853">
        <ele>26.0929</ele>
        <time>2013-05-05T11:32:06Z</time>
      </trkpt>
      <trkpt lat="59.9630995" lon="17.5436315">
        <ele>26.5736</ele>
        <time>2013-05-05T11:32:07Z</time>
      </trkpt>
      <trkpt lat="59.9630609" lon="17.5437776">
        <ele>26.5736</ele>
        <time>2013-05-05T11:32:08Z</time>
      </trkpt>
      <trkpt lat="59.9630263" lon="17.5439278">
        <ele>26.5736</ele>
        <time>2013-05-05T11:32:09Z</time>
      </trkpt>
      <trkpt lat="59.9630019" lon="17.5441032">
        <ele>26.5736</ele>
        <time>2013-05-05T11:32:10Z</time>
      </trkpt>
      <trkpt lat="59.9629798" lon="17.5442589">
        <ele>26.0929</ele>
        <time>2013-05-05T11:32:11Z</time>
      </trkpt>
      <trkpt lat="59.9629549" lon="17.5444147">
        <ele>26.0929</ele>
        <time>2013-05-05T11:32:12Z</time>
      </trkpt>
      <trkpt lat="59.9629208" lon="17.5445564">
        <ele>26.0929</ele>
        <time>2013-05-05T11:32:13Z</time>
      </trkpt>
      <trkpt lat="59.9628694" lon="17.5447012">
        <ele>26.0929</ele>
        <time>2013-05-05T11:32:14Z</time>
      </trkpt>
      <trkpt lat="59.962814" lon="17.5448307">
        <ele>26.0929</ele>
        <time>2013-05-05T11:32:15Z</time>
      </trkpt>
      <trkpt lat="59.9627475" lon="17.5449198">
        <ele>26.0929</ele>
        <time>2013-05-05T11:32:16Z</time>
      </trkpt>
      <trkpt lat="59.9626825" lon="17.5449788">
        <ele>26.0929</ele>
        <time>2013-05-05T11:32:17Z</time>
      </trkpt>
      <trkpt lat="59.9626075" lon="17.5450109">
        <ele>26.5736</ele>
        <time>2013-05-05T11:32:18Z</time>
      </trkpt>
      <trkpt lat="59.9625264" lon="17.5450382">
        <ele>26.5736</ele>
        <time>2013-05-05T11:32:19Z</time>
      </trkpt>
      <trkpt lat="59.962443" lon="17.5450737">
        <ele>26.5736</ele>
        <time>2013-05-05T11:32:20Z</time>
      </trkpt>
      <trkpt lat="59.9623598" lon="17.545103">
        <ele>26.5736</ele>
        <time>2013-05-05T11:32:21Z</time>
      </trkpt>
      <trkpt lat="59.9622775" lon="17.5451342">
        <ele>27.0543</ele>
        <time>2013-05-05T11:32:22Z</time>
      </trkpt>
      <trkpt lat="59.9621964" lon="17.5451669">
        <ele>27.0543</ele>
        <time>2013-05-05T11:32:23Z</time>
      </trkpt>
      <trkpt lat="59.9621143" lon="17.5451998">
        <ele>27.0543</ele>
        <time>2013-05-05T11:32:24Z</time>
      </trkpt>
      <trkpt lat="59.9620318" lon="17.5452252">
        <ele>26.5736</ele>
        <time>2013-05-05T11:32:25Z</time>
      </trkpt>
      <trkpt lat="59.9619493" lon="17.5452444">
        <ele>26.5736</ele>
        <time>2013-05-05T11:32:26Z</time>
      </trkpt>
      <trkpt lat="59.961867" lon="17.5452569">
        <ele>27.0543</ele>
        <time>2013-05-05T11:32:27Z</time>
      </trkpt>
      <trkpt lat="59.9617837" lon="17.5452492">
        <ele>27.0543</ele>
        <time>2013-05-05T11:32:28Z</time>
      </trkpt>
      <trkpt lat="59.9617004" lon="17.5452169">
        <ele>26.5736</ele>
        <time>2013-05-05T11:32:29Z</time>
      </trkpt>
      <trkpt lat="59.9616225" lon="17.5451646">
        <ele>26.5736</ele>
        <time>2013-05-05T11:32:30Z</time>
      </trkpt>
      <trkpt lat="59.9615432" lon="17.5451115">
        <ele>26.5736</ele>
        <time>2013-05-05T11:32:31Z</time>
      </trkpt>
      <trkpt lat="59.9614626" lon="17.545055">
        <ele>26.5736</ele>
        <time>2013-05-05T11:32:32Z</time>
      </trkpt>
      <trkpt lat="59.9613842" lon="17.5449918">
        <ele>26.0929</ele>
        <time>2013-05-05T11:32:33Z</time>
      </trkpt>
      <trkpt lat="59.9613069" lon="17.5449311">
        <ele>26.0929</ele>
        <time>2013-05-05T11:32:34Z</time>
      </trkpt>
      <trkpt lat="59.961232" lon="17.5448727">
        <ele>25.6123</ele>
        <time>2013-05-05T11:32:35Z</time>
      </trkpt>
      <trkpt lat="59.9611575" lon="17.5448203">
        <ele>25.6123</ele>
        <time>2013-05-05T11:32:36Z</time>
      </trkpt>
      <trkpt lat="59.9610825" lon="17.5447763">
        <ele>25.6123</ele>
        <time>2013-05-05T11:32:37Z</time>
      </trkpt>
      <trkpt lat="59.9610073" lon="17.5447373">
        <ele>25.6123</ele>
        <time>2013-05-05T11:32:38Z</time>
      </trkpt>
      <trkpt lat="59.9609316" lon="17.5447034">
        <ele>25.1317</ele>
        <time>2013-05-05T11:32:39Z</time>
      </trkpt>
      <trkpt lat="59.960856" lon="17.5446748">
        <ele>25.1317</ele>
        <time>2013-05-05T11:32:40Z</time>
      </trkpt>
      <trkpt lat="59.9607798" lon="17.5446502">
        <ele>25.1317</ele>
        <time>2013-05-05T11:32:41Z</time>
      </trkpt>
      <trkpt lat="59.9607036" lon="17.5446253">
        <ele>25.1317</ele>
        <time>2013-05-05T11:32:42Z</time>
      </trkpt>
      <trkpt lat="59.9606268" lon="17.5445998">
        <ele>25.1317</ele>
        <time>2013-05-05T11:32:43Z</time>
      </trkpt>
      <trkpt lat="59.9605497" lon="17.5445739">
        <ele>25.1317</ele>
        <time>2013-05-05T11:32:44Z</time>
      </trkpt>
      <trkpt lat="59.9604717" lon="17.5445499">
        <ele>25.1317</ele>
        <time>2013-05-05T11:32:45Z</time>
      </trkpt>
      <trkpt lat="59.9603929" lon="17.544529">
        <ele>24.651</ele>
        <time>2013-05-05T11:32:46Z</time>
      </trkpt>
      <trkpt lat="59.96031" lon="17.5445131">
        <ele>24.1703</ele>
        <time>2013-05-05T11:32:47Z</time>
      </trkpt>
      <trkpt lat="59.9602275" lon="17.5444938">
        <ele>23.6896</ele>
        <time>2013-05-05T11:32:48Z</time>
      </trkpt>
      <trkpt lat="59.9601449" lon="17.5444756">
        <ele>23.6896</ele>
        <time>2013-05-05T11:32:49Z</time>
      </trkpt>
      <trkpt lat="59.960063" lon="17.5444565">
        <ele>23.209</ele>
        <time>2013-05-05T11:32:50Z</time>
      </trkpt>
      <trkpt lat="59.9599814" lon="17.5444337">
        <ele>22.7283</ele>
        <time>2013-05-05T11:32:51Z</time>
      </trkpt>
      <trkpt lat="59.9599017" lon="17.5444069">
        <ele>22.7283</ele>
        <time>2013-05-05T11:32:52Z</time>
      </trkpt>
      <trkpt lat="59.9598219" lon="17.5443826">
        <ele>22.7283</ele>
        <time>2013-05-05T11:32:53Z</time>
      </trkpt>
      <trkpt lat="59.9597422" lon="17.5443619">
        <ele>22.7283</ele>
        <time>2013-05-05T11:32:54Z</time>
      </trkpt>
      <trkpt lat="59.9596646" lon="17.5443436">
        <ele>22.7283</ele>
        <time>2013-05-05T11:32:55Z</time>
      </trkpt>
      <trkpt lat="59.9595864" lon="17.5443288">
        <ele>22.7283</ele>
        <time>2013-05-05T11:32:56Z</time>
      </trkpt>
      <trkpt lat="59.9595097" lon="17.5443085">
        <ele>22.7283</ele>
        <time>2013-05-05T11:32:57Z</time>
      </trkpt>
      <trkpt lat="59.9594333" lon="17.5442878">
        <ele>22.7283</ele>
        <time>2013-05-05T11:32:58Z</time>
      </trkpt>
      <trkpt lat="59.9593572" lon="17.5442702">
        <ele>22.7283</ele>
        <time>2013-05-05T11:32:59Z</time>
      </trkpt>
      <trkpt lat="59.9592797" lon="17.5442603">
        <ele>22.7283</ele>
        <time>2013-05-05T11:33:00Z</time>
      </trkpt>
      <trkpt lat="59.9592025" lon="17.5442504">
        <ele>22.7283</ele>
        <time>2013-05-05T11:33:01Z</time>
      </trkpt>
      <trkpt lat="59.9591269" lon="17.5442353">
        <ele>22.7283</ele>
        <time>2013-05-05T11:33:02Z</time>
      </trkpt>
      <trkpt lat="59.9590521" lon="17.5442195">
        <ele>22.7283</ele>
        <time>2013-05-05T11:33:03Z</time>
      </trkpt>
      <trkpt lat="59.9589776" lon="17.5442058">
        <ele>23.209</ele>
        <time>2013-05-05T11:33:04Z</time>
      </trkpt>
      <trkpt lat="59.958905" lon="17.5441902">
        <ele>23.209</ele>
        <time>2013-05-05T11:33:05Z</time>
      </trkpt>
      <trkpt lat="59.958833" lon="17.5441739">
        <ele>23.209</ele>
        <time>2013-05-05T11:33:06Z</time>
      </trkpt>
      <trkpt lat="59.9587611" lon="17.5441576">
        <ele>23.209</ele>
        <time>2013-05-05T11:33:07Z</time>
      </trkpt>
      <trkpt lat="59.9586892" lon="17.5441428">
        <ele>23.209</ele>
        <time>2013-05-05T11:33:08Z</time>
      </trkpt>
      <trkpt lat="59.9586174" lon="17.5441327">
        <ele>23.6896</ele>
        <time>2013-05-05T11:33:09Z</time>
      </trkpt>
      <trkpt lat="59.9585456" lon="17.5441277">
        <ele>23.6896</ele>
        <time>2013-05-05T11:33:10Z</time>
      </trkpt>
      <trkpt lat="59.958474" lon="17.5441288">
        <ele>24.1703</ele>
        <time>2013-05-05T11:33:11Z</time>
      </trkpt>
      <trkpt lat="59.9584025" lon="17.5441319">
        <ele>24.651</ele>
        <time>2013-05-05T11:33:12Z</time>
      </trkpt>
      <trkpt lat="59.9583312" lon="17.5441443">
        <ele>24.651</ele>
        <time>2013-05-05T11:33:13Z</time>
      </trkpt>
      <trkpt lat="59.9582606" lon="17.5441648">
        <ele>24.651</ele>
        <time>2013-05-05T11:33:14Z</time>
      </trkpt>
      <trkpt lat="59.9581878" lon="17.5441946">
        <ele>24.651</ele>
        <time>2013-05-05T11:33:15Z</time>
      </trkpt>
      <trkpt lat="59.9581152" lon="17.5442221">
        <ele>24.1703</ele>
        <time>2013-05-05T11:33:16Z</time>
      </trkpt>
      <trkpt lat="59.9580428" lon="17.5442475">
        <ele>24.1703</ele>
        <time>2013-05-05T11:33:17Z</time>
      </trkpt>
      <trkpt lat="59.9579701" lon="17.5442706">
        <ele>24.1703</ele>
        <time>2013-05-05T11:33:18Z</time>
      </trkpt>
      <trkpt lat="59.9578982" lon="17.5442882">
        <ele>24.1703</ele>
        <time>2013-05-05T11:33:19Z</time>
      </trkpt>
      <trkpt lat="59.9578272" lon="17.5443116">
        <ele>24.1703</ele>
        <time>2013-05-05T11:33:20Z</time>
      </trkpt>
      <trkpt lat="59.9577572" lon="17.5443354">
        <ele>23.6896</ele>
        <time>2013-05-05T11:33:21Z</time>
      </trkpt>
      <trkpt lat="59.9576867" lon="17.544354">
        <ele>23.6896</ele>
        <time>2013-05-05T11:33:22Z</time>
      </trkpt>
      <trkpt lat="59.9576152" lon="17.5443728">
        <ele>23.6896</ele>
        <time>2013-05-05T11:33:23Z</time>
      </trkpt>
      <trkpt lat="59.9575433" lon="17.5443925">
        <ele>23.6896</ele>
        <time>2013-05-05T11:33:24Z</time>
      </trkpt>
      <trkpt lat="59.9574714" lon="17.5444125">
        <ele>23.6896</ele>
        <time>2013-05-05T11:33:25Z</time>
      </trkpt>
      <trkpt lat="59.9573996" lon="17.5444329">
        <ele>23.6896</ele>
        <time>2013-05-05T11:33:26Z</time>
      </trkpt>
      <trkpt lat="59.9573277" lon="17.5444536">
        <ele>23.6896</ele>
        <time>2013-05-05T11:33:27Z</time>
      </trkpt>
      <trkpt lat="59.9572548" lon="17.5444747">
        <ele>23.6896</ele>
        <time>2013-05-05T11:33:28Z</time>
      </trkpt>
      <trkpt lat="59.957182" lon="17.5444967">
        <ele>23.6896</ele>
        <time>2013-05-05T11:33:29Z</time>
      </trkpt>
      <trkpt lat="59.9571091" lon="17.5445194">
        <ele>23.6896</ele>
        <time>2013-05-05T11:33:30Z</time>
      </trkpt>
      <trkpt lat="59.9570361" lon="17.5445401">
        <ele>23.6896</ele>
        <time>2013-05-05T11:33:31Z</time>
      </trkpt>
      <trkpt lat="59.9569636" lon="17.5445575">
        <ele>24.1703</ele>
        <time>2013-05-05T11:33:32Z</time>
      </trkpt>
      <trkpt lat="59.9568914" lon="17.5445753">
        <ele>24.1703</ele>
        <time>2013-05-05T11:33:33Z</time>
      </trkpt>
      <trkpt lat="59.9568166" lon="17.5445991">
        <ele>23.6896</ele>
        <time>2013-05-05T11:33:34Z</time>
      </trkpt>
      <trkpt lat="59.9567422" lon="17.5446214">
        <ele>23.6896</ele>
        <time>2013-05-05T11:33:35Z</time>
      </trkpt>
      <trkpt lat="59.9566673" lon="17.5446447">
        <ele>23.209</ele>
        <time>2013-05-05T11:33:36Z</time>
      </trkpt>
      <trkpt lat="59.9565927" lon="17.5446665">
        <ele>23.209</ele>
        <time>2013-05-05T11:33:37Z</time>
      </trkpt>
      <trkpt lat="59.9565181" lon="17.5446888">
        <ele>22.7283</ele>
        <time>2013-05-05T11:33:38Z</time>
      </trkpt>
      <trkpt lat="59.9564435" lon="17.54471">
        <ele>22.7283</ele>
        <time>2013-05-05T11:33:39Z</time>
      </trkpt>
      <trkpt lat="59.956369" lon="17.5447307">
        <ele>22.7283</ele>
        <time>2013-05-05T11:33:40Z</time>
      </trkpt>
      <trkpt lat="59.9562959" lon="17.544753">
        <ele>22.7283</ele>
        <time>2013-05-05T11:33:41Z</time>
      </trkpt>
      <trkpt lat="59.9562255" lon="17.5447738">
        <ele>22.7283</ele>
        <time>2013-05-05T11:33:42Z</time>
      </trkpt>
      <trkpt lat="59.9561548" lon="17.5447975">
        <ele>22.7283</ele>
        <time>2013-05-05T11:33:43Z</time>
      </trkpt>
      <trkpt lat="59.9560845" lon="17.5448307">
        <ele>23.209</ele>
        <time>2013-05-05T11:33:44Z</time>
      </trkpt>
      <trkpt lat="59.9560147" lon="17.5448732">
        <ele>23.209</ele>
        <time>2013-05-05T11:33:45Z</time>
      </trkpt>
      <trkpt lat="59.9558818" lon="17.5449949">
        <ele>23.209</ele>
        <time>2013-05-05T11:33:47Z</time>
      </trkpt>
      <trkpt lat="59.955823" lon="17.5450664">
        <ele>23.6896</ele>
        <time>2013-05-05T11:33:48Z</time>
      </trkpt>
      <trkpt lat="59.9557645" lon="17.545142">
        <ele>23.6896</ele>
        <time>2013-05-05T11:33:49Z</time>
      </trkpt>
      <trkpt lat="59.955708" lon="17.5452175">
        <ele>24.1703</ele>
        <time>2013-05-05T11:33:50Z</time>
      </trkpt>
      <trkpt lat="59.9556552" lon="17.5452894">
        <ele>24.651</ele>
        <time>2013-05-05T11:33:51Z</time>
      </trkpt>
      <trkpt lat="59.9555952" lon="17.5453693">
        <ele>24.651</ele>
        <time>2013-05-05T11:33:52Z</time>
      </trkpt>
      <trkpt lat="59.9555339" lon="17.5454429">
        <ele>25.1317</ele>
        <time>2013-05-05T11:33:53Z</time>
      </trkpt>
      <trkpt lat="59.9554707" lon="17.5455032">
        <ele>25.1317</ele>
        <time>2013-05-05T11:33:54Z</time>
      </trkpt>
      <trkpt lat="59.9554044" lon="17.5455513">
        <ele>25.1317</ele>
        <time>2013-05-05T11:33:55Z</time>
      </trkpt>
      <trkpt lat="59.9553365" lon="17.5455927">
        <ele>25.6123</ele>
        <time>2013-05-05T11:33:56Z</time>
      </trkpt>
      <trkpt lat="59.9552698" lon="17.5456349">
        <ele>25.6123</ele>
        <time>2013-05-05T11:33:57Z</time>
      </trkpt>
      <trkpt lat="59.9552029" lon="17.5456738">
        <ele>25.6123</ele>
        <time>2013-05-05T11:33:58Z</time>
      </trkpt>
      <trkpt lat="59.9551355" lon="17.5457123">
        <ele>25.6123</ele>
        <time>2013-05-05T11:33:59Z</time>
      </trkpt>
      <trkpt lat="59.9550686" lon="17.5457542">
        <ele>25.6123</ele>
        <time>2013-05-05T11:34:00Z</time>
      </trkpt>
      <trkpt lat="59.9550004" lon="17.5457951">
        <ele>25.6123</ele>
        <time>2013-05-05T11:34:01Z</time>
      </trkpt>
      <trkpt lat="59.9549329" lon="17.5458315">
        <ele>25.6123</ele>
        <time>2013-05-05T11:34:02Z</time>
      </trkpt>
      <trkpt lat="59.9548677" lon="17.5458657">
        <ele>25.6123</ele>
        <time>2013-05-05T11:34:03Z</time>
      </trkpt>
      <trkpt lat="59.9548046" lon="17.5458977">
        <ele>25.6123</ele>
        <time>2013-05-05T11:34:04Z</time>
      </trkpt>
      <trkpt lat="59.9547429" lon="17.5459293">
        <ele>25.6123</ele>
        <time>2013-05-05T11:34:05Z</time>
      </trkpt>
      <trkpt lat="59.9546811" lon="17.5459606">
        <ele>25.6123</ele>
        <time>2013-05-05T11:34:06Z</time>
      </trkpt>
      <trkpt lat="59.9546203" lon="17.5459906">
        <ele>25.6123</ele>
        <time>2013-05-05T11:34:07Z</time>
      </trkpt>
      <trkpt lat="59.9545601" lon="17.5460235">
        <ele>25.6123</ele>
        <time>2013-05-05T11:34:08Z</time>
      </trkpt>
      <trkpt lat="59.9545027" lon="17.5460536">
        <ele>26.5736</ele>
        <time>2013-05-05T11:34:09Z</time>
      </trkpt>
      <trkpt lat="59.9544441" lon="17.5460808">
        <ele>27.5349</ele>
        <time>2013-05-05T11:34:10Z</time>
      </trkpt>
      <trkpt lat="59.954385" lon="17.5461064">
        <ele>28.4962</ele>
        <time>2013-05-05T11:34:11Z</time>
      </trkpt>
      <trkpt lat="59.954324" lon="17.5461324">
        <ele>28.9769</ele>
        <time>2013-05-05T11:34:12Z</time>
      </trkpt>
      <trkpt lat="59.9542607" lon="17.5461588">
        <ele>28.4962</ele>
        <time>2013-05-05T11:34:13Z</time>
      </trkpt>
      <trkpt lat="59.9541944" lon="17.5461863">
        <ele>28.0155</ele>
        <time>2013-05-05T11:34:14Z</time>
      </trkpt>
      <trkpt lat="59.9541274" lon="17.5462132">
        <ele>27.0543</ele>
        <time>2013-05-05T11:34:15Z</time>
      </trkpt>
      <trkpt lat="59.9540632" lon="17.5462405">
        <ele>27.0543</ele>
        <time>2013-05-05T11:34:16Z</time>
      </trkpt>
      <trkpt lat="59.953998" lon="17.5462702">
        <ele>27.0543</ele>
        <time>2013-05-05T11:34:17Z</time>
      </trkpt>
      <trkpt lat="59.9539324" lon="17.5463008">
        <ele>27.0543</ele>
        <time>2013-05-05T11:34:18Z</time>
      </trkpt>
      <trkpt lat="59.9538666" lon="17.5463308">
        <ele>26.5736</ele>
        <time>2013-05-05T11:34:19Z</time>
      </trkpt>
      <trkpt lat="59.9538011" lon="17.5463604">
        <ele>26.5736</ele>
        <time>2013-05-05T11:34:20Z</time>
      </trkpt>
      <trkpt lat="59.953737" lon="17.5463904">
        <ele>26.5736</ele>
        <time>2013-05-05T11:34:21Z</time>
      </trkpt>
      <trkpt lat="59.9536731" lon="17.5464203">
        <ele>26.5736</ele>
        <time>2013-05-05T11:34:22Z</time>
      </trkpt>
      <trkpt lat="59.9536105" lon="17.5464462">
        <ele>26.0929</ele>
        <time>2013-05-05T11:34:23Z</time>
      </trkpt>
      <trkpt lat="59.9535463" lon="17.5464685">
        <ele>25.6123</ele>
        <time>2013-05-05T11:34:24Z</time>
      </trkpt>
      <trkpt lat="59.9534872" lon="17.5464855">
        <ele>26.0929</ele>
        <time>2013-05-05T11:34:25Z</time>
      </trkpt>
      <trkpt lat="59.9534256" lon="17.5465003">
        <ele>26.0929</ele>
        <time>2013-05-05T11:34:26Z</time>
      </trkpt>
      <trkpt lat="59.9533625" lon="17.5465184">
        <ele>26.5736</ele>
        <time>2013-05-05T11:34:27Z</time>
      </trkpt>
      <trkpt lat="59.9533008" lon="17.5465276">
        <ele>27.0543</ele>
        <time>2013-05-05T11:34:28Z</time>
      </trkpt>
      <trkpt lat="59.9532386" lon="17.5465329">
        <ele>27.0543</ele>
        <time>2013-05-05T11:34:29Z</time>
      </trkpt>
      <trkpt lat="59.9531806" lon="17.5465287">
        <ele>27.0543</ele>
        <time>2013-05-05T11:34:30Z</time>
      </trkpt>
      <trkpt lat="59.9531267" lon="17.5465286">
        <ele>28.0155</ele>
        <time>2013-05-05T11:34:31Z</time>
      </trkpt>
      <trkpt lat="59.9530773" lon="17.5465121">
        <ele>28.0155</ele>
        <time>2013-05-05T11:34:32Z</time>
      </trkpt>
      <trkpt lat="59.9530343" lon="17.5464848">
        <ele>28.4962</ele>
        <time>2013-05-05T11:34:33Z</time>
      </trkpt>
      <trkpt lat="59.952986" lon="17.5464629">
        <ele>28.4962</ele>
        <time>2013-05-05T11:34:34Z</time>
      </trkpt>
      <trkpt lat="59.9529334" lon="17.546442">
        <ele>28.0155</ele>
        <time>2013-05-05T11:34:35Z</time>
      </trkpt>
      <trkpt lat="59.9528802" lon="17.5464226">
        <ele>28.0155</ele>
        <time>2013-05-05T11:34:36Z</time>
      </trkpt>
      <trkpt lat="59.9528263" lon="17.546405">
        <ele>27.5349</ele>
        <time>2013-05-05T11:34:37Z</time>
      </trkpt>
      <trkpt lat="59.9527736" lon="17.5463878">
        <ele>28.0155</ele>
        <time>2013-05-05T11:34:38Z</time>
      </trkpt>
      <trkpt lat="59.9527221" lon="17.5463679">
        <ele>27.5349</ele>
        <time>2013-05-05T11:34:39Z</time>
      </trkpt>
      <trkpt lat="59.9526692" lon="17.5463467">
        <ele>27.5349</ele>
        <time>2013-05-05T11:34:40Z</time>
      </trkpt>
      <trkpt lat="59.9526094" lon="17.5463288">
        <ele>28.0155</ele>
        <time>2013-05-05T11:34:41Z</time>
      </trkpt>
      <trkpt lat="59.9525484" lon="17.5463059">
        <ele>28.0155</ele>
        <time>2013-05-05T11:34:42Z</time>
      </trkpt>
      <trkpt lat="59.9524878" lon="17.5462853">
        <ele>28.0155</ele>
        <time>2013-05-05T11:34:43Z</time>
      </trkpt>
      <trkpt lat="59.9524267" lon="17.5462687">
        <ele>28.0155</ele>
        <time>2013-05-05T11:34:44Z</time>
      </trkpt>
      <trkpt lat="59.9523589" lon="17.546262">
        <ele>27.5349</ele>
        <time>2013-05-05T11:34:45Z</time>
      </trkpt>
      <trkpt lat="59.9522887" lon="17.5462634">
        <ele>27.5349</ele>
        <time>2013-05-05T11:34:46Z</time>
      </trkpt>
      <trkpt lat="59.9522198" lon="17.546265">
        <ele>27.5349</ele>
        <time>2013-05-05T11:34:47Z</time>
      </trkpt>
      <trkpt lat="59.9521518" lon="17.5462685">
        <ele>27.0543</ele>
        <time>2013-05-05T11:34:48Z</time>
      </trkpt>
      <trkpt lat="59.9520835" lon="17.5462801">
        <ele>26.5736</ele>
        <time>2013-05-05T11:34:49Z</time>
      </trkpt>
      <trkpt lat="59.952012" lon="17.5463034">
        <ele>26.5736</ele>
        <time>2013-05-05T11:34:50Z</time>
      </trkpt>
      <trkpt lat="59.9519398" lon="17.5463315">
        <ele>26.5736</ele>
        <time>2013-05-05T11:34:51Z</time>
      </trkpt>
      <trkpt lat="59.9518698" lon="17.5463633">
        <ele>26.5736</ele>
        <time>2013-05-05T11:34:52Z</time>
      </trkpt>
      <trkpt lat="59.9517984" lon="17.5464024">
        <ele>26.5736</ele>
        <time>2013-05-05T11:34:53Z</time>
      </trkpt>
      <trkpt lat="59.9517269" lon="17.5464489">
        <ele>27.0543</ele>
        <time>2013-05-05T11:34:54Z</time>
      </trkpt>
      <trkpt lat="59.951655" lon="17.546497">
        <ele>27.0543</ele>
        <time>2013-05-05T11:34:55Z</time>
      </trkpt>
      <trkpt lat="59.9515836" lon="17.5465479">
        <ele>27.0543</ele>
        <time>2013-05-05T11:34:56Z</time>
      </trkpt>
      <trkpt lat="59.9515131" lon="17.5465961">
        <ele>27.0543</ele>
        <time>2013-05-05T11:34:57Z</time>
      </trkpt>
      <trkpt lat="59.9514427" lon="17.5466445">
        <ele>27.5349</ele>
        <time>2013-05-05T11:34:58Z</time>
      </trkpt>
      <trkpt lat="59.9513716" lon="17.546696">
        <ele>27.5349</ele>
        <time>2013-05-05T11:34:59Z</time>
      </trkpt>
      <trkpt lat="59.9512992" lon="17.5467472">
        <ele>27.5349</ele>
        <time>2013-05-05T11:35:00Z</time>
      </trkpt>
      <trkpt lat="59.9512256" lon="17.546796">
        <ele>27.5349</ele>
        <time>2013-05-05T11:35:01Z</time>
      </trkpt>
      <trkpt lat="59.951153" lon="17.5468427">
        <ele>28.0155</ele>
        <time>2013-05-05T11:35:02Z</time>
      </trkpt>
      <trkpt lat="59.9510788" lon="17.5468939">
        <ele>28.0155</ele>
        <time>2013-05-05T11:35:03Z</time>
      </trkpt>
      <trkpt lat="59.9510065" lon="17.5469391">
        <ele>28.4962</ele>
        <time>2013-05-05T11:35:04Z</time>
      </trkpt>
      <trkpt lat="59.9509303" lon="17.5469974">
        <ele>28.4962</ele>
        <time>2013-05-05T11:35:05Z</time>
      </trkpt>
      <trkpt lat="59.9508546" lon="17.5470566">
        <ele>28.4962</ele>
        <time>2013-05-05T11:35:06Z</time>
      </trkpt>
      <trkpt lat="59.9507786" lon="17.5471151">
        <ele>28.0155</ele>
        <time>2013-05-05T11:35:07Z</time>
      </trkpt>
      <trkpt lat="59.950703" lon="17.5471731">
        <ele>28.0155</ele>
        <time>2013-05-05T11:35:08Z</time>
      </trkpt>
      <trkpt lat="59.9506275" lon="17.5472337">
        <ele>28.0155</ele>
        <time>2013-05-05T11:35:09Z</time>
      </trkpt>
      <trkpt lat="59.9505501" lon="17.5472964">
        <ele>27.5349</ele>
        <time>2013-05-05T11:35:10Z</time>
      </trkpt>
      <trkpt lat="59.9504725" lon="17.5473604">
        <ele>27.5349</ele>
        <time>2013-05-05T11:35:11Z</time>
      </trkpt>
      <trkpt lat="59.9503963" lon="17.5474253">
        <ele>27.0543</ele>
        <time>2013-05-05T11:35:12Z</time>
      </trkpt>
      <trkpt lat="59.9503213" lon="17.5474989">
        <ele>27.0543</ele>
        <time>2013-05-05T11:35:13Z</time>
      </trkpt>
      <trkpt lat="59.9502461" lon="17.5475762">
        <ele>27.0543</ele>
        <time>2013-05-05T11:35:14Z</time>
      </trkpt>
      <trkpt lat="59.9501688" lon="17.5476471">
        <ele>27.0543</ele>
        <time>2013-05-05T11:35:15Z</time>
      </trkpt>
      <trkpt lat="59.9500892" lon="17.5477072">
        <ele>27.0543</ele>
        <time>2013-05-05T11:35:16Z</time>
      </trkpt>
      <trkpt lat="59.9500089" lon="17.5477596">
        <ele>27.5349</ele>
        <time>2013-05-05T11:35:17Z</time>
      </trkpt>
      <trkpt lat="59.9499284" lon="17.5478073">
        <ele>27.0543</ele>
        <time>2013-05-05T11:35:18Z</time>
      </trkpt>
      <trkpt lat="59.9498481" lon="17.5478496">
        <ele>27.0543</ele>
        <time>2013-05-05T11:35:19Z</time>
      </trkpt>
      <trkpt lat="59.9497684" lon="17.5478845">
        <ele>27.0543</ele>
        <time>2013-05-05T11:35:20Z</time>
      </trkpt>
      <trkpt lat="59.9496895" lon="17.5479097">
        <ele>27.0543</ele>
        <time>2013-05-05T11:35:21Z</time>
      </trkpt>
      <trkpt lat="59.9496101" lon="17.547929">
        <ele>27.0543</ele>
        <time>2013-05-05T11:35:22Z</time>
      </trkpt>
      <trkpt lat="59.9495311" lon="17.547942">
        <ele>27.0543</ele>
        <time>2013-05-05T11:35:23Z</time>
      </trkpt>
      <trkpt lat="59.9494525" lon="17.5479485">
        <ele>27.0543</ele>
        <time>2013-05-05T11:35:24Z</time>
      </trkpt>
      <trkpt lat="59.9493723" lon="17.5479476">
        <ele>26.5736</ele>
        <time>2013-05-05T11:35:25Z</time>
      </trkpt>
      <trkpt lat="59.949294" lon="17.5479381">
        <ele>26.0929</ele>
        <time>2013-05-05T11:35:26Z</time>
      </trkpt>
      <trkpt lat="59.9492142" lon="17.5479269">
        <ele>26.0929</ele>
        <time>2013-05-05T11:35:27Z</time>
      </trkpt>
      <trkpt lat="59.9491363" lon="17.54791">
        <ele>26.0929</ele>
        <time>2013-05-05T11:35:28Z</time>
      </trkpt>
      <trkpt lat="59.9490624" lon="17.5478824">
        <ele>25.6123</ele>
        <time>2013-05-05T11:35:29Z</time>
      </trkpt>
      <trkpt lat="59.9489915" lon="17.5478497">
        <ele>26.0929</ele>
        <time>2013-05-05T11:35:30Z</time>
      </trkpt>
      <trkpt lat="59.9489219" lon="17.5478108">
        <ele>26.5736</ele>
        <time>2013-05-05T11:35:31Z</time>
      </trkpt>
      <trkpt lat="59.9488526" lon="17.5477683">
        <ele>27.0543</ele>
        <time>2013-05-05T11:35:32Z</time>
      </trkpt>
      <trkpt lat="59.9487831" lon="17.5477233">
        <ele>27.0543</ele>
        <time>2013-05-05T11:35:33Z</time>
      </trkpt>
      <trkpt lat="59.9487148" lon="17.5476695">
        <ele>27.5349</ele>
        <time>2013-05-05T11:35:34Z</time>
      </trkpt>
      <trkpt lat="59.9486485" lon="17.5476081">
        <ele>27.5349</ele>
        <time>2013-05-05T11:35:35Z</time>
      </trkpt>
      <trkpt lat="59.9485834" lon="17.5475413">
        <ele>28.0155</ele>
        <time>2013-05-05T11:35:36Z</time>
      </trkpt>
      <trkpt lat="59.9485196" lon="17.5474714">
        <ele>28.0155</ele>
        <time>2013-05-05T11:35:37Z</time>
      </trkpt>
      <trkpt lat="59.9484567" lon="17.5473995">
        <ele>28.4962</ele>
        <time>2013-05-05T11:35:38Z</time>
      </trkpt>
      <trkpt lat="59.9483953" lon="17.5473227">
        <ele>28.4962</ele>
        <time>2013-05-05T11:35:39Z</time>
      </trkpt>
      <trkpt lat="59.9483361" lon="17.5472362">
        <ele>28.4962</ele>
        <time>2013-05-05T11:35:40Z</time>
      </trkpt>
      <trkpt lat="59.9482777" lon="17.5471431">
        <ele>28.4962</ele>
        <time>2013-05-05T11:35:41Z</time>
      </trkpt>
      <trkpt lat="59.9482226" lon="17.5470429">
        <ele>28.4962</ele>
        <time>2013-05-05T11:35:42Z</time>
      </trkpt>
      <trkpt lat="59.94817" lon="17.5469381">
        <ele>28.4962</ele>
        <time>2013-05-05T11:35:43Z</time>
      </trkpt>
      <trkpt lat="59.9481176" lon="17.5468217">
        <ele>28.4962</ele>
        <time>2013-05-05T11:35:44Z</time>
      </trkpt>
      <trkpt lat="59.9480646" lon="17.5467161">
        <ele>28.4962</ele>
        <time>2013-05-05T11:35:45Z</time>
      </trkpt>
      <trkpt lat="59.9480083" lon="17.5466161">
        <ele>28.4962</ele>
        <time>2013-05-05T11:35:46Z</time>
      </trkpt>
      <trkpt lat="59.9479544" lon="17.5465147">
        <ele>28.4962</ele>
        <time>2013-05-05T11:35:47Z</time>
      </trkpt>
      <trkpt lat="59.9479017" lon="17.5464097">
        <ele>28.4962</ele>
        <time>2013-05-05T11:35:48Z</time>
      </trkpt>
      <trkpt lat="59.9478476" lon="17.5463085">
        <ele>28.4962</ele>
        <time>2013-05-05T11:35:49Z</time>
      </trkpt>
      <trkpt lat="59.9477934" lon="17.5462074">
        <ele>28.4962</ele>
        <time>2013-05-05T11:35:50Z</time>
      </trkpt>
      <trkpt lat="59.9477392" lon="17.5461075">
        <ele>28.4962</ele>
        <time>2013-05-05T11:35:51Z</time>
      </trkpt>
      <trkpt lat="59.9476854" lon="17.546006">
        <ele>28.0155</ele>
        <time>2013-05-05T11:35:52Z</time>
      </trkpt>
      <trkpt lat="59.9476341" lon="17.5459093">
        <ele>28.0155</ele>
        <time>2013-05-05T11:35:53Z</time>
      </trkpt>
      <trkpt lat="59.947584" lon="17.5458114">
        <ele>28.0155</ele>
        <time>2013-05-05T11:35:54Z</time>
      </trkpt>
      <trkpt lat="59.9475322" lon="17.5457148">
        <ele>28.0155</ele>
        <time>2013-05-05T11:35:55Z</time>
      </trkpt>
      <trkpt lat="59.9474793" lon="17.5456212">
        <ele>28.0155</ele>
        <time>2013-05-05T11:35:56Z</time>
      </trkpt>
      <trkpt lat="59.9474271" lon="17.5455256">
        <ele>28.0155</ele>
        <time>2013-05-05T11:35:57Z</time>
      </trkpt>
      <trkpt lat="59.9473753" lon="17.5454314">
        <ele>27.5349</ele>
        <time>2013-05-05T11:35:58Z</time>
      </trkpt>
      <trkpt lat="59.9473219" lon="17.5453379">
        <ele>27.5349</ele>
        <time>2013-05-05T11:35:59Z</time>
      </trkpt>
      <trkpt lat="59.9472666" lon="17.5452438">
        <ele>27.5349</ele>
        <time>2013-05-05T11:36:00Z</time>
      </trkpt>
      <trkpt lat="59.9472105" lon="17.5451489">
        <ele>27.0543</ele>
        <time>2013-05-05T11:36:01Z</time>
      </trkpt>
      <trkpt lat="59.9471503" lon="17.5450543">
        <ele>26.5736</ele>
        <time>2013-05-05T11:36:02Z</time>
      </trkpt>
      <trkpt lat="59.9470861" lon="17.5449642">
        <ele>26.0929</ele>
        <time>2013-05-05T11:36:03Z</time>
      </trkpt>
      <trkpt lat="59.94702" lon="17.5448776">
        <ele>25.6123</ele>
        <time>2013-05-05T11:36:04Z</time>
      </trkpt>
      <trkpt lat="59.9469544" lon="17.5447927">
        <ele>25.1317</ele>
        <time>2013-05-05T11:36:05Z</time>
      </trkpt>
      <trkpt lat="59.9468887" lon="17.5447103">
        <ele>24.651</ele>
        <time>2013-05-05T11:36:06Z</time>
      </trkpt>
      <trkpt lat="59.9468187" lon="17.5446235">
        <ele>24.1703</ele>
        <time>2013-05-05T11:36:07Z</time>
      </trkpt>
      <trkpt lat="59.9467475" lon="17.5445432">
        <ele>23.6896</ele>
        <time>2013-05-05T11:36:08Z</time>
      </trkpt>
      <trkpt lat="59.9466771" lon="17.5444607">
        <ele>23.209</ele>
        <time>2013-05-05T11:36:09Z</time>
      </trkpt>
      <trkpt lat="59.9466039" lon="17.5443866">
        <ele>23.209</ele>
        <time>2013-05-05T11:36:10Z</time>
      </trkpt>
      <trkpt lat="59.9465281" lon="17.5443206">
        <ele>23.209</ele>
        <time>2013-05-05T11:36:11Z</time>
      </trkpt>
      <trkpt lat="59.9464512" lon="17.5442629">
        <ele>22.7283</ele>
        <time>2013-05-05T11:36:12Z</time>
      </trkpt>
      <trkpt lat="59.9463744" lon="17.5442109">
        <ele>22.7283</ele>
        <time>2013-05-05T11:36:13Z</time>
      </trkpt>
      <trkpt lat="59.9462967" lon="17.5441636">
        <ele>22.7283</ele>
        <time>2013-05-05T11:36:14Z</time>
      </trkpt>
      <trkpt lat="59.9462191" lon="17.5441247">
        <ele>22.7283</ele>
        <time>2013-05-05T11:36:15Z</time>
      </trkpt>
      <trkpt lat="59.9461407" lon="17.5440921">
        <ele>22.7283</ele>
        <time>2013-05-05T11:36:16Z</time>
      </trkpt>
      <trkpt lat="59.9460616" lon="17.5440651">
        <ele>22.7283</ele>
        <time>2013-05-05T11:36:17Z</time>
      </trkpt>
      <trkpt lat="59.9459825" lon="17.5440423">
        <ele>22.7283</ele>
        <time>2013-05-05T11:36:18Z</time>
      </trkpt>
      <trkpt lat="59.945903" lon="17.5440303">
        <ele>23.209</ele>
        <time>2013-05-05T11:36:19Z</time>
      </trkpt>
      <trkpt lat="59.9458233" lon="17.5440219">
        <ele>23.209</ele>
        <time>2013-05-05T11:36:20Z</time>
      </trkpt>
      <trkpt lat="59.9457441" lon="17.544008">
        <ele>23.209</ele>
        <time>2013-05-05T11:36:21Z</time>
      </trkpt>
      <trkpt lat="59.9456658" lon="17.5439956">
        <ele>23.6896</ele>
        <time>2013-05-05T11:36:22Z</time>
      </trkpt>
      <trkpt lat="59.9455877" lon="17.5439903">
        <ele>23.6896</ele>
        <time>2013-05-05T11:36:23Z</time>
      </trkpt>
      <trkpt lat="59.9455099" lon="17.5439888">
        <ele>23.6896</ele>
        <time>2013-05-05T11:36:24Z</time>
      </trkpt>
      <trkpt lat="59.9454331" lon="17.5439862">
        <ele>23.6896</ele>
        <time>2013-05-05T11:36:25Z</time>
      </trkpt>
      <trkpt lat="59.9453575" lon="17.5439821">
        <ele>23.6896</ele>
        <time>2013-05-05T11:36:26Z</time>
      </trkpt>
      <trkpt lat="59.9452829" lon="17.5439792">
        <ele>24.1703</ele>
        <time>2013-05-05T11:36:27Z</time>
      </trkpt>
      <trkpt lat="59.9452083" lon="17.5439774">
        <ele>24.1703</ele>
        <time>2013-05-05T11:36:28Z</time>
      </trkpt>
      <trkpt lat="59.9451338" lon="17.5439763">
        <ele>24.1703</ele>
        <time>2013-05-05T11:36:29Z</time>
      </trkpt>
      <trkpt lat="59.9450597" lon="17.5439747">
        <ele>24.1703</ele>
        <time>2013-05-05T11:36:30Z</time>
      </trkpt>
      <trkpt lat="59.9449858" lon="17.5439713">
        <ele>24.651</ele>
        <time>2013-05-05T11:36:31Z</time>
      </trkpt>
      <trkpt lat="59.9449125" lon="17.5439682">
        <ele>24.651</ele>
        <time>2013-05-05T11:36:32Z</time>
      </trkpt>
      <trkpt lat="59.9448392" lon="17.5439664">
        <ele>24.651</ele>
        <time>2013-05-05T11:36:33Z</time>
      </trkpt>
      <trkpt lat="59.944766" lon="17.5439651">
        <ele>24.651</ele>
        <time>2013-05-05T11:36:34Z</time>
      </trkpt>
      <trkpt lat="59.9446916" lon="17.5439662">
        <ele>24.651</ele>
        <time>2013-05-05T11:36:35Z</time>
      </trkpt>
      <trkpt lat="59.9446172" lon="17.5439641">
        <ele>24.651</ele>
        <time>2013-05-05T11:36:36Z</time>
      </trkpt>
      <trkpt lat="59.9445423" lon="17.5439615">
        <ele>24.651</ele>
        <time>2013-05-05T11:36:37Z</time>
      </trkpt>
      <trkpt lat="59.9444665" lon="17.5439615">
        <ele>24.651</ele>
        <time>2013-05-05T11:36:38Z</time>
      </trkpt>
      <trkpt lat="59.9443908" lon="17.5439602">
        <ele>24.1703</ele>
        <time>2013-05-05T11:36:39Z</time>
      </trkpt>
      <trkpt lat="59.9443169" lon="17.5439525">
        <ele>24.1703</ele>
        <time>2013-05-05T11:36:40Z</time>
      </trkpt>
      <trkpt lat="59.9442418" lon="17.5439533">
        <ele>24.1703</ele>
        <time>2013-05-05T11:36:41Z</time>
      </trkpt>
      <trkpt lat="59.9441671" lon="17.5439499">
        <ele>24.1703</ele>
        <time>2013-05-05T11:36:42Z</time>
      </trkpt>
      <trkpt lat="59.944092" lon="17.5439393">
        <ele>24.1703</ele>
        <time>2013-05-05T11:36:43Z</time>
      </trkpt>
      <trkpt lat="59.9440156" lon="17.5439283">
        <ele>24.1703</ele>
        <time>2013-05-05T11:36:44Z</time>
      </trkpt>
      <trkpt lat="59.9439371" lon="17.5439231">
        <ele>23.6896</ele>
        <time>2013-05-05T11:36:45Z</time>
      </trkpt>
      <trkpt lat="59.9438611" lon="17.543915">
        <ele>23.6896</ele>
        <time>2013-05-05T11:36:46Z</time>
      </trkpt>
      <trkpt lat="59.9437885" lon="17.5438988">
        <ele>23.6896</ele>
        <time>2013-05-05T11:36:47Z</time>
      </trkpt>
      <trkpt lat="59.9437179" lon="17.5438794">
        <ele>23.6896</ele>
        <time>2013-05-05T11:36:48Z</time>
      </trkpt>
      <trkpt lat="59.9436477" lon="17.543858">
        <ele>23.6896</ele>
        <time>2013-05-05T11:36:49Z</time>
      </trkpt>
      <trkpt lat="59.9435775" lon="17.5438375">
        <ele>23.6896</ele>
        <time>2013-05-05T11:36:50Z</time>
      </trkpt>
      <trkpt lat="59.9435073" lon="17.5438167">
        <ele>23.6896</ele>
        <time>2013-05-05T11:36:51Z</time>
      </trkpt>
      <trkpt lat="59.9434375" lon="17.543792">
        <ele>23.6896</ele>
        <time>2013-05-05T11:36:52Z</time>
      </trkpt>
      <trkpt lat="59.9433683" lon="17.5437634">
        <ele>24.1703</ele>
        <time>2013-05-05T11:36:53Z</time>
      </trkpt>
      <trkpt lat="59.9432978" lon="17.5437341">
        <ele>24.1703</ele>
        <time>2013-05-05T11:36:54Z</time>
      </trkpt>
      <trkpt lat="59.9432271" lon="17.5437031">
        <ele>24.1703</ele>
        <time>2013-05-05T11:36:55Z</time>
      </trkpt>
      <trkpt lat="59.9431551" lon="17.5436735">
        <ele>24.1703</ele>
        <time>2013-05-05T11:36:56Z</time>
      </trkpt>
      <trkpt lat="59.9430839" lon="17.5436398">
        <ele>24.1703</ele>
        <time>2013-05-05T11:36:57Z</time>
      </trkpt>
      <trkpt lat="59.9430121" lon="17.5436047">
        <ele>24.1703</ele>
        <time>2013-05-05T11:36:58Z</time>
      </trkpt>
      <trkpt lat="59.9429404" lon="17.5435689">
        <ele>23.6896</ele>
        <time>2013-05-05T11:36:59Z</time>
      </trkpt>
      <trkpt lat="59.9428689" lon="17.5435284">
        <ele>23.6896</ele>
        <time>2013-05-05T11:37:00Z</time>
      </trkpt>
      <trkpt lat="59.942797" lon="17.5434847">
        <ele>23.6896</ele>
        <time>2013-05-05T11:37:01Z</time>
      </trkpt>
      <trkpt lat="59.9427247" lon="17.5434397">
        <ele>23.6896</ele>
        <time>2013-05-05T11:37:02Z</time>
      </trkpt>
      <trkpt lat="59.9426509" lon="17.5433984">
        <ele>23.6896</ele>
        <time>2013-05-05T11:37:03Z</time>
      </trkpt>
      <trkpt lat="59.9425778" lon="17.5433519">
        <ele>23.6896</ele>
        <time>2013-05-05T11:37:04Z</time>
      </trkpt>
      <trkpt lat="59.9425075" lon="17.5432935">
        <ele>23.6896</ele>
        <time>2013-05-05T11:37:05Z</time>
      </trkpt>
      <trkpt lat="59.9424376" lon="17.5432307">
        <ele>23.6896</ele>
        <time>2013-05-05T11:37:06Z</time>
      </trkpt>
      <trkpt lat="59.942368" lon="17.5431653">
        <ele>23.6896</ele>
        <time>2013-05-05T11:37:07Z</time>
      </trkpt>
      <trkpt lat="59.9422982" lon="17.543099">
        <ele>24.1703</ele>
        <time>2013-05-05T11:37:08Z</time>
      </trkpt>
      <trkpt lat="59.9422288" lon="17.5430353">
        <ele>24.1703</ele>
        <time>2013-05-05T11:37:09Z</time>
      </trkpt>
      <trkpt lat="59.9421594" lon="17.5429724">
        <ele>24.1703</ele>
        <time>2013-05-05T11:37:10Z</time>
      </trkpt>
      <trkpt lat="59.9420906" lon="17.5429063">
        <ele>24.1703</ele>
        <time>2013-05-05T11:37:11Z</time>
      </trkpt>
      <trkpt lat="59.9420223" lon="17.5428439">
        <ele>24.1703</ele>
        <time>2013-05-05T11:37:12Z</time>
      </trkpt>
      <trkpt lat="59.9419556" lon="17.542787">
        <ele>23.6896</ele>
        <time>2013-05-05T11:37:13Z</time>
      </trkpt>
      <trkpt lat="59.9418875" lon="17.5427327">
        <ele>23.6896</ele>
        <time>2013-05-05T11:37:14Z</time>
      </trkpt>
      <trkpt lat="59.9418207" lon="17.5426706">
        <ele>24.1703</ele>
        <time>2013-05-05T11:37:15Z</time>
      </trkpt>
      <trkpt lat="59.9417569" lon="17.5425999">
        <ele>24.1703</ele>
        <time>2013-05-05T11:37:16Z</time>
      </trkpt>
      <trkpt lat="59.9417005" lon="17.5425095">
        <ele>23.6896</ele>
        <time>2013-05-05T11:37:17Z</time>
      </trkpt>
      <trkpt lat="59.9416616" lon="17.5423903">
        <ele>24.1703</ele>
        <time>2013-05-05T11:37:18Z</time>
      </trkpt>
      <trkpt lat="59.9416454" lon="17.5422535">
        <ele>24.1703</ele>
        <time>2013-05-05T11:37:19Z</time>
      </trkpt>
      <trkpt lat="59.9416543" lon="17.5421145">
        <ele>24.651</ele>
        <time>2013-05-05T11:37:20Z</time>
      </trkpt>
      <trkpt lat="59.9416969" lon="17.5419644">
        <ele>25.1317</ele>
        <time>2013-05-05T11:37:21Z</time>
      </trkpt>
      <trkpt lat="59.9417431" lon="17.5418437">
        <ele>25.6123</ele>
        <time>2013-05-05T11:37:22Z</time>
      </trkpt>
      <trkpt lat="59.9417928" lon="17.5417395">
        <ele>26.0929</ele>
        <time>2013-05-05T11:37:23Z</time>
      </trkpt>
      <trkpt lat="59.9418417" lon="17.5416416">
        <ele>26.5736</ele>
        <time>2013-05-05T11:37:24Z</time>
      </trkpt>
      <trkpt lat="59.9418915" lon="17.5415434">
        <ele>26.5736</ele>
        <time>2013-05-05T11:37:25Z</time>
      </trkpt>
      <trkpt lat="59.9419397" lon="17.541446">
        <ele>26.5736</ele>
        <time>2013-05-05T11:37:26Z</time>
      </trkpt>
      <trkpt lat="59.9419855" lon="17.5413495">
        <ele>26.5736</ele>
        <time>2013-05-05T11:37:27Z</time>
      </trkpt>
      <trkpt lat="59.9420298" lon="17.5412522">
        <ele>26.0929</ele>
        <time>2013-05-05T11:37:28Z</time>
      </trkpt>
      <trkpt lat="59.9420733" lon="17.541155">
        <ele>26.0929</ele>
        <time>2013-05-05T11:37:29Z</time>
      </trkpt>
      <trkpt lat="59.9421164" lon="17.5410591">
        <ele>26.5736</ele>
        <time>2013-05-05T11:37:30Z</time>
      </trkpt>
      <trkpt lat="59.9421585" lon="17.5409636">
        <ele>26.5736</ele>
        <time>2013-05-05T11:37:31Z</time>
      </trkpt>
      <trkpt lat="59.9422004" lon="17.5408664">
        <ele>26.5736</ele>
        <time>2013-05-05T11:37:32Z</time>
      </trkpt>
      <trkpt lat="59.9422421" lon="17.5407684">
        <ele>26.5736</ele>
        <time>2013-05-05T11:37:33Z</time>
      </trkpt>
      <trkpt lat="59.9422838" lon="17.5406721">
        <ele>26.5736</ele>
        <time>2013-05-05T11:37:34Z</time>
      </trkpt>
      <trkpt lat="59.9423251" lon="17.5405751">
        <ele>27.0543</ele>
        <time>2013-05-05T11:37:35Z</time>
      </trkpt>
      <trkpt lat="59.9423672" lon="17.5404768">
        <ele>27.0543</ele>
        <time>2013-05-05T11:37:36Z</time>
      </trkpt>
      <trkpt lat="59.9424084" lon="17.5403768">
        <ele>27.0543</ele>
        <time>2013-05-05T11:37:37Z</time>
      </trkpt>
      <trkpt lat="59.9424499" lon="17.5402793">
        <ele>27.0543</ele>
        <time>2013-05-05T11:37:38Z</time>
      </trkpt>
      <trkpt lat="59.9424916" lon="17.5401832">
        <ele>27.0543</ele>
        <time>2013-05-05T11:37:39Z</time>
      </trkpt>
      <trkpt lat="59.9425319" lon="17.5400842">
        <ele>27.0543</ele>
        <time>2013-05-05T11:37:40Z</time>
      </trkpt>
      <trkpt lat="59.9425723" lon="17.5399847">
        <ele>27.0543</ele>
        <time>2013-05-05T11:37:41Z</time>
      </trkpt>
      <trkpt lat="59.9426131" lon="17.5398832">
        <ele>27.0543</ele>
        <time>2013-05-05T11:37:42Z</time>
      </trkpt>
      <trkpt lat="59.9426552" lon="17.5397816">
        <ele>26.5736</ele>
        <time>2013-05-05T11:37:43Z</time>
      </trkpt>
      <trkpt lat="59.9426976" lon="17.5396779">
        <ele>27.0543</ele>
        <time>2013-05-05T11:37:44Z</time>
      </trkpt>
      <trkpt lat="59.9427394" lon="17.5395729">
        <ele>27.0543</ele>
        <time>2013-05-05T11:37:45Z</time>
      </trkpt>
      <trkpt lat="59.9427822" lon="17.5394672">
        <ele>26.5736</ele>
        <time>2013-05-05T11:37:46Z</time>
      </trkpt>
      <trkpt lat="59.9428247" lon="17.5393606">
        <ele>26.5736</ele>
        <time>2013-05-05T11:37:47Z</time>
      </trkpt>
      <trkpt lat="59.9428664" lon="17.5392496">
        <ele>27.0543</ele>
        <time>2013-05-05T11:37:48Z</time>
      </trkpt>
      <trkpt lat="59.9429067" lon="17.5391355">
        <ele>27.0543</ele>
        <time>2013-05-05T11:37:49Z</time>
      </trkpt>
      <trkpt lat="59.9429467" lon="17.5390223">
        <ele>27.5349</ele>
        <time>2013-05-05T11:37:50Z</time>
      </trkpt>
      <trkpt lat="59.9429873" lon="17.5389098">
        <ele>27.5349</ele>
        <time>2013-05-05T11:37:51Z</time>
      </trkpt>
      <trkpt lat="59.9430276" lon="17.5387969">
        <ele>28.0155</ele>
        <time>2013-05-05T11:37:52Z</time>
      </trkpt>
      <trkpt lat="59.9430658" lon="17.5386822">
        <ele>28.4962</ele>
        <time>2013-05-05T11:37:53Z</time>
      </trkpt>
      <trkpt lat="59.943103" lon="17.5385664">
        <ele>28.4962</ele>
        <time>2013-05-05T11:37:54Z</time>
      </trkpt>
      <trkpt lat="59.9431385" lon="17.5384486">
        <ele>28.9769</ele>
        <time>2013-05-05T11:37:55Z</time>
      </trkpt>
      <trkpt lat="59.9431745" lon="17.5383317">
        <ele>29.4575</ele>
        <time>2013-05-05T11:37:56Z</time>
      </trkpt>
      <trkpt lat="59.9432109" lon="17.5382183">
        <ele>29.4575</ele>
        <time>2013-05-05T11:37:57Z</time>
      </trkpt>
      <trkpt lat="59.9432488" lon="17.5381095">
        <ele>29.9381</ele>
        <time>2013-05-05T11:37:58Z</time>
      </trkpt>
      <trkpt lat="59.9432844" lon="17.5380011">
        <ele>28.9769</ele>
        <time>2013-05-05T11:37:59Z</time>
      </trkpt>
      <trkpt lat="59.9433196" lon="17.5378919">
        <ele>28.0155</ele>
        <time>2013-05-05T11:38:00Z</time>
      </trkpt>
      <trkpt lat="59.9433535" lon="17.5377825">
        <ele>28.0155</ele>
        <time>2013-05-05T11:38:01Z</time>
      </trkpt>
      <trkpt lat="59.9433846" lon="17.5376701">
        <ele>28.0155</ele>
        <time>2013-05-05T11:38:02Z</time>
      </trkpt>
      <trkpt lat="59.9434131" lon="17.5375566">
        <ele>28.4962</ele>
        <time>2013-05-05T11:38:03Z</time>
      </trkpt>
      <trkpt lat="59.9434394" lon="17.5374437">
        <ele>28.4962</ele>
        <time>2013-05-05T11:38:04Z</time>
      </trkpt>
      <trkpt lat="59.9434589" lon="17.5373346">
        <ele>28.4962</ele>
        <time>2013-05-05T11:38:05Z</time>
      </trkpt>
      <trkpt lat="59.9434763" lon="17.5372243">
        <ele>28.4962</ele>
        <time>2013-05-05T11:38:06Z</time>
      </trkpt>
      <trkpt lat="59.943498" lon="17.537118">
        <ele>28.4962</ele>
        <time>2013-05-05T11:38:07Z</time>
      </trkpt>
      <trkpt lat="59.9435228" lon="17.5370042">
        <ele>28.4962</ele>
        <time>2013-05-05T11:38:08Z</time>
      </trkpt>
      <trkpt lat="59.9435441" lon="17.5368915">
        <ele>28.4962</ele>
        <time>2013-05-05T11:38:09Z</time>
      </trkpt>
      <trkpt lat="59.9435653" lon="17.5367792">
        <ele>28.0155</ele>
        <time>2013-05-05T11:38:10Z</time>
      </trkpt>
      <trkpt lat="59.943586" lon="17.5366694">
        <ele>28.0155</ele>
        <time>2013-05-05T11:38:11Z</time>
      </trkpt>
      <trkpt lat="59.9436065" lon="17.5365455">
        <ele>27.0543</ele>
        <time>2013-05-05T11:38:12Z</time>
      </trkpt>
      <trkpt lat="59.9436255" lon="17.5364296">
        <ele>26.5736</ele>
        <time>2013-05-05T11:38:13Z</time>
      </trkpt>
      <trkpt lat="59.9436442" lon="17.536315">
        <ele>26.5736</ele>
        <time>2013-05-05T11:38:14Z</time>
      </trkpt>
      <trkpt lat="59.943664" lon="17.536199">
        <ele>26.5736</ele>
        <time>2013-05-05T11:38:15Z</time>
      </trkpt>
      <trkpt lat="59.9436845" lon="17.5360815">
        <ele>26.5736</ele>
        <time>2013-05-05T11:38:16Z</time>
      </trkpt>
      <trkpt lat="59.9437043" lon="17.5359618">
        <ele>26.5736</ele>
        <time>2013-05-05T11:38:17Z</time>
      </trkpt>
      <trkpt lat="59.9437215" lon="17.5358407">
        <ele>26.5736</ele>
        <time>2013-05-05T11:38:18Z</time>
      </trkpt>
      <trkpt lat="59.9437388" lon="17.5357214">
        <ele>26.5736</ele>
        <time>2013-05-05T11:38:19Z</time>
      </trkpt>
      <trkpt lat="59.9437554" lon="17.5356019">
        <ele>27.0543</ele>
        <time>2013-05-05T11:38:20Z</time>
      </trkpt>
      <trkpt lat="59.943772" lon="17.5354807">
        <ele>27.0543</ele>
        <time>2013-05-05T11:38:21Z</time>
      </trkpt>
      <trkpt lat="59.9437887" lon="17.5353604">
        <ele>27.0543</ele>
        <time>2013-05-05T11:38:22Z</time>
      </trkpt>
      <trkpt lat="59.9438082" lon="17.535236">
        <ele>27.0543</ele>
        <time>2013-05-05T11:38:23Z</time>
      </trkpt>
      <trkpt lat="59.9438291" lon="17.5351071">
        <ele>27.0543</ele>
        <time>2013-05-05T11:38:24Z</time>
      </trkpt>
      <trkpt lat="59.9438436" lon="17.534988">
        <ele>27.5349</ele>
        <time>2013-05-05T11:38:25Z</time>
      </trkpt>
      <trkpt lat="59.9438622" lon="17.5348627">
        <ele>27.5349</ele>
        <time>2013-05-05T11:38:26Z</time>
      </trkpt>
      <trkpt lat="59.9438828" lon="17.5347388">
        <ele>28.0155</ele>
        <time>2013-05-05T11:38:27Z</time>
      </trkpt>
      <trkpt lat="59.9439055" lon="17.5346182">
        <ele>28.4962</ele>
        <time>2013-05-05T11:38:28Z</time>
      </trkpt>
      <trkpt lat="59.9439287" lon="17.5344963">
        <ele>28.4962</ele>
        <time>2013-05-05T11:38:29Z</time>
      </trkpt>
      <trkpt lat="59.9439474" lon="17.5343762">
        <ele>28.9769</ele>
        <time>2013-05-05T11:38:30Z</time>
      </trkpt>
      <trkpt lat="59.9439647" lon="17.5342572">
        <ele>28.9769</ele>
        <time>2013-05-05T11:38:31Z</time>
      </trkpt>
      <trkpt lat="59.9439839" lon="17.5341378">
        <ele>29.4575</ele>
        <time>2013-05-05T11:38:32Z</time>
      </trkpt>
      <trkpt lat="59.9440039" lon="17.5340172">
        <ele>29.4575</ele>
        <time>2013-05-05T11:38:33Z</time>
      </trkpt>
      <trkpt lat="59.9440231" lon="17.5338971">
        <ele>29.9381</ele>
        <time>2013-05-05T11:38:34Z</time>
      </trkpt>
      <trkpt lat="59.9440414" lon="17.5337752">
        <ele>29.9381</ele>
        <time>2013-05-05T11:38:35Z</time>
      </trkpt>
      <trkpt lat="59.94406" lon="17.5336515">
        <ele>29.9381</ele>
        <time>2013-05-05T11:38:36Z</time>
      </trkpt>
      <trkpt lat="59.9440797" lon="17.5335292">
        <ele>30.4188</ele>
        <time>2013-05-05T11:38:37Z</time>
      </trkpt>
      <trkpt lat="59.9440999" lon="17.5334085">
        <ele>30.4188</ele>
        <time>2013-05-05T11:38:38Z</time>
      </trkpt>
      <trkpt lat="59.9441196" lon="17.5332888">
        <ele>30.4188</ele>
        <time>2013-05-05T11:38:39Z</time>
      </trkpt>
      <trkpt lat="59.9441396" lon="17.5331693">
        <ele>30.8995</ele>
        <time>2013-05-05T11:38:40Z</time>
      </trkpt>
      <trkpt lat="59.9441608" lon="17.5330485">
        <ele>30.4188</ele>
        <time>2013-05-05T11:38:41Z</time>
      </trkpt>
      <trkpt lat="59.9441812" lon="17.5329289">
        <ele>30.4188</ele>
        <time>2013-05-05T11:38:42Z</time>
      </trkpt>
      <trkpt lat="59.9442019" lon="17.5328087">
        <ele>29.9381</ele>
        <time>2013-05-05T11:38:43Z</time>
      </trkpt>
      <trkpt lat="59.9442211" lon="17.5326923">
        <ele>30.4188</ele>
        <time>2013-05-05T11:38:44Z</time>
      </trkpt>
      <trkpt lat="59.9442406" lon="17.5325756">
        <ele>30.4188</ele>
        <time>2013-05-05T11:38:45Z</time>
      </trkpt>
      <trkpt lat="59.94426" lon="17.532455">
        <ele>30.4188</ele>
        <time>2013-05-05T11:38:46Z</time>
      </trkpt>
      <trkpt lat="59.9442807" lon="17.532333">
        <ele>30.4188</ele>
        <time>2013-05-05T11:38:47Z</time>
      </trkpt>
      <trkpt lat="59.9443017" lon="17.5322128">
        <ele>30.4188</ele>
        <time>2013-05-05T11:38:48Z</time>
      </trkpt>
      <trkpt lat="59.9443221" lon="17.5320912">
        <ele>30.4188</ele>
        <time>2013-05-05T11:38:49Z</time>
      </trkpt>
      <trkpt lat="59.9443421" lon="17.5319676">
        <ele>29.9381</ele>
        <time>2013-05-05T11:38:50Z</time>
      </trkpt>
      <trkpt lat="59.9443615" lon="17.5318455">
        <ele>30.4188</ele>
        <time>2013-05-05T11:38:51Z</time>
      </trkpt>
      <trkpt lat="59.9443807" lon="17.5317254">
        <ele>30.4188</ele>
        <time>2013-05-05T11:38:52Z</time>
      </trkpt>
      <trkpt lat="59.9443994" lon="17.5316057">
        <ele>30.4188</ele>
        <time>2013-05-05T11:38:53Z</time>
      </trkpt>
      <trkpt lat="59.9444173" lon="17.5314834">
        <ele>30.4188</ele>
        <time>2013-05-05T11:38:54Z</time>
      </trkpt>
      <trkpt lat="59.9444345" lon="17.5313636">
        <ele>30.4188</ele>
        <time>2013-05-05T11:38:55Z</time>
      </trkpt>
      <trkpt lat="59.9444533" lon="17.5312439">
        <ele>30.8995</ele>
        <time>2013-05-05T11:38:56Z</time>
      </trkpt>
      <trkpt lat="59.9444729" lon="17.531124">
        <ele>30.8995</ele>
        <time>2013-05-05T11:38:57Z</time>
      </trkpt>
      <trkpt lat="59.9444925" lon="17.531003">
        <ele>30.8995</ele>
        <time>2013-05-05T11:38:58Z</time>
      </trkpt>
      <trkpt lat="59.944512" lon="17.5308821">
        <ele>30.4188</ele>
        <time>2013-05-05T11:38:59Z</time>
      </trkpt>
      <trkpt lat="59.9445314" lon="17.530762">
        <ele>30.4188</ele>
        <time>2013-05-05T11:39:00Z</time>
      </trkpt>
      <trkpt lat="59.9445515" lon="17.5306425">
        <ele>30.4188</ele>
        <time>2013-05-05T11:39:01Z</time>
      </trkpt>
      <trkpt lat="59.9445722" lon="17.5305222">
        <ele>29.9381</ele>
        <time>2013-05-05T11:39:02Z</time>
      </trkpt>
      <trkpt lat="59.9445894" lon="17.5304053">
        <ele>29.9381</ele>
        <time>2013-05-05T11:39:03Z</time>
      </trkpt>
      <trkpt lat="59.944607" lon="17.5302918">
        <ele>30.4188</ele>
        <time>2013-05-05T11:39:04Z</time>
      </trkpt>
      <trkpt lat="59.9446256" lon="17.5301802">
        <ele>30.4188</ele>
        <time>2013-05-05T11:39:05Z</time>
      </trkpt>
      <trkpt lat="59.9446411" lon="17.5300646">
        <ele>30.8995</ele>
        <time>2013-05-05T11:39:06Z</time>
      </trkpt>
      <trkpt lat="59.9446568" lon="17.5299488">
        <ele>31.3801</ele>
        <time>2013-05-05T11:39:07Z</time>
      </trkpt>
      <trkpt lat="59.9446739" lon="17.5298339">
        <ele>31.3801</ele>
        <time>2013-05-05T11:39:08Z</time>
      </trkpt>
      <trkpt lat="59.944692" lon="17.5297202">
        <ele>31.3801</ele>
        <time>2013-05-05T11:39:09Z</time>
      </trkpt>
      <trkpt lat="59.9447117" lon="17.5296048">
        <ele>30.8995</ele>
        <time>2013-05-05T11:39:10Z</time>
      </trkpt>
      <trkpt lat="59.9447319" lon="17.5294887">
        <ele>30.8995</ele>
        <time>2013-05-05T11:39:11Z</time>
      </trkpt>
      <trkpt lat="59.9447505" lon="17.5293744">
        <ele>30.8995</ele>
        <time>2013-05-05T11:39:12Z</time>
      </trkpt>
      <trkpt lat="59.9447702" lon="17.5292568">
        <ele>30.4188</ele>
        <time>2013-05-05T11:39:13Z</time>
      </trkpt>
      <trkpt lat="59.9447903" lon="17.5291407">
        <ele>29.9381</ele>
        <time>2013-05-05T11:39:14Z</time>
      </trkpt>
      <trkpt lat="59.9448066" lon="17.5290329">
        <ele>30.4188</ele>
        <time>2013-05-05T11:39:15Z</time>
      </trkpt>
      <trkpt lat="59.9448257" lon="17.5289217">
        <ele>30.8995</ele>
        <time>2013-05-05T11:39:16Z</time>
      </trkpt>
      <trkpt lat="59.9448462" lon="17.5288074">
        <ele>30.8995</ele>
        <time>2013-05-05T11:39:17Z</time>
      </trkpt>
      <trkpt lat="59.9448679" lon="17.5286905">
        <ele>30.8995</ele>
        <time>2013-05-05T11:39:18Z</time>
      </trkpt>
      <trkpt lat="59.9448909" lon="17.5285714">
        <ele>30.8995</ele>
        <time>2013-05-05T11:39:19Z</time>
      </trkpt>
      <trkpt lat="59.9449142" lon="17.5284518">
        <ele>30.8995</ele>
        <time>2013-05-05T11:39:20Z</time>
      </trkpt>
      <trkpt lat="59.9449376" lon="17.5283325">
        <ele>30.8995</ele>
        <time>2013-05-05T11:39:21Z</time>
      </trkpt>
      <trkpt lat="59.9449624" lon="17.5282145">
        <ele>30.8995</ele>
        <time>2013-05-05T11:39:22Z</time>
      </trkpt>
      <trkpt lat="59.9449884" lon="17.5280967">
        <ele>30.8995</ele>
        <time>2013-05-05T11:39:23Z</time>
      </trkpt>
      <trkpt lat="59.9450142" lon="17.5279781">
        <ele>30.8995</ele>
        <time>2013-05-05T11:39:24Z</time>
      </trkpt>
      <trkpt lat="59.9450406" lon="17.5278615">
        <ele>30.8995</ele>
        <time>2013-05-05T11:39:25Z</time>
      </trkpt>
      <trkpt lat="59.9450676" lon="17.5277462">
        <ele>31.3801</ele>
        <time>2013-05-05T11:39:26Z</time>
      </trkpt>
      <trkpt lat="59.9450948" lon="17.5276296">
        <ele>31.3801</ele>
        <time>2013-05-05T11:39:27Z</time>
      </trkpt>
      <trkpt lat="59.9451231" lon="17.5275131">
        <ele>31.3801</ele>
        <time>2013-05-05T11:39:28Z</time>
      </trkpt>
      <trkpt lat="59.9451529" lon="17.5273963">
        <ele>31.3801</ele>
        <time>2013-05-05T11:39:29Z</time>
      </trkpt>
      <trkpt lat="59.9451839" lon="17.5272775">
        <ele>31.3801</ele>
        <time>2013-05-05T11:39:30Z</time>
      </trkpt>
      <trkpt lat="59.9452161" lon="17.5271563">
        <ele>31.3801</ele>
        <time>2013-05-05T11:39:31Z</time>
      </trkpt>
      <trkpt lat="59.9452502" lon="17.5270324">
        <ele>30.8995</ele>
        <time>2013-05-05T11:39:32Z</time>
      </trkpt>
      <trkpt lat="59.9452872" lon="17.5269099">
        <ele>30.8995</ele>
        <time>2013-05-05T11:39:33Z</time>
      </trkpt>
      <trkpt lat="59.9453223" lon="17.5267898">
        <ele>30.8995</ele>
        <time>2013-05-05T11:39:34Z</time>
      </trkpt>
      <trkpt lat="59.945357" lon="17.5266707">
        <ele>30.8995</ele>
        <time>2013-05-05T11:39:35Z</time>
      </trkpt>
      <trkpt lat="59.9453935" lon="17.5265558">
        <ele>30.8995</ele>
        <time>2013-05-05T11:39:36Z</time>
      </trkpt>
      <trkpt lat="59.9454318" lon="17.5264476">
        <ele>30.8995</ele>
        <time>2013-05-05T11:39:37Z</time>
      </trkpt>
      <trkpt lat="59.9454722" lon="17.5263428">
        <ele>30.8995</ele>
        <time>2013-05-05T11:39:38Z</time>
      </trkpt>
      <trkpt lat="59.945512" lon="17.5262453">
        <ele>31.3801</ele>
        <time>2013-05-05T11:39:39Z</time>
      </trkpt>
      <trkpt lat="59.9455517" lon="17.5261529">
        <ele>31.8607</ele>
        <time>2013-05-05T11:39:40Z</time>
      </trkpt>
      <trkpt lat="59.9455865" lon="17.526059">
        <ele>31.8607</ele>
        <time>2013-05-05T11:39:41Z</time>
      </trkpt>
      <trkpt lat="59.9456214" lon="17.5259674">
        <ele>31.8607</ele>
        <time>2013-05-05T11:39:42Z</time>
      </trkpt>
      <trkpt lat="59.9456566" lon="17.5258726">
        <ele>31.8607</ele>
        <time>2013-05-05T11:39:43Z</time>
      </trkpt>
      <trkpt lat="59.9456905" lon="17.525774">
        <ele>31.8607</ele>
        <time>2013-05-05T11:39:44Z</time>
      </trkpt>
      <trkpt lat="59.9457226" lon="17.5256756">
        <ele>32.3416</ele>
        <time>2013-05-05T11:39:45Z</time>
      </trkpt>
      <trkpt lat="59.9457558" lon="17.5255772">
        <ele>32.3416</ele>
        <time>2013-05-05T11:39:46Z</time>
      </trkpt>
      <trkpt lat="59.9457907" lon="17.5254831">
        <ele>32.3416</ele>
        <time>2013-05-05T11:39:47Z</time>
      </trkpt>
      <trkpt lat="59.9458244" lon="17.5253896">
        <ele>32.3416</ele>
        <time>2013-05-05T11:39:48Z</time>
      </trkpt>
      <trkpt lat="59.9458592" lon="17.5252991">
        <ele>32.3416</ele>
        <time>2013-05-05T11:39:49Z</time>
      </trkpt>
      <trkpt lat="59.9458942" lon="17.5252098">
        <ele>32.3416</ele>
        <time>2013-05-05T11:39:50Z</time>
      </trkpt>
      <trkpt lat="59.9459295" lon="17.5251224">
        <ele>32.3416</ele>
        <time>2013-05-05T11:39:51Z</time>
      </trkpt>
      <trkpt lat="59.9459645" lon="17.5250358">
        <ele>32.8223</ele>
        <time>2013-05-05T11:39:52Z</time>
      </trkpt>
      <trkpt lat="59.9460005" lon="17.5249509">
        <ele>32.8223</ele>
        <time>2013-05-05T11:39:53Z</time>
      </trkpt>
      <trkpt lat="59.9460363" lon="17.5248686">
        <ele>32.8223</ele>
        <time>2013-05-05T11:39:54Z</time>
      </trkpt>
      <trkpt lat="59.9460738" lon="17.5247862">
        <ele>32.8223</ele>
        <time>2013-05-05T11:39:55Z</time>
      </trkpt>
      <trkpt lat="59.9461124" lon="17.5247051">
        <ele>32.8223</ele>
        <time>2013-05-05T11:39:56Z</time>
      </trkpt>
      <trkpt lat="59.9461506" lon="17.5246239">
        <ele>32.3416</ele>
        <time>2013-05-05T11:39:57Z</time>
      </trkpt>
      <trkpt lat="59.9461888" lon="17.5245409">
        <ele>32.3416</ele>
        <time>2013-05-05T11:39:58Z</time>
      </trkpt>
      <trkpt lat="59.9462277" lon="17.5244588">
        <ele>32.3416</ele>
        <time>2013-05-05T11:39:59Z</time>
      </trkpt>
      <trkpt lat="59.9462667" lon="17.5243771">
        <ele>32.3416</ele>
        <time>2013-05-05T11:40:00Z</time>
      </trkpt>
      <trkpt lat="59.9463059" lon="17.5242981">
        <ele>32.3416</ele>
        <time>2013-05-05T11:40:01Z</time>
      </trkpt>
      <trkpt lat="59.9463445" lon="17.5242212">
        <ele>32.3416</ele>
        <time>2013-05-05T11:40:02Z</time>
      </trkpt>
      <trkpt lat="59.9463834" lon="17.5241456">
        <ele>32.3416</ele>
        <time>2013-05-05T11:40:03Z</time>
      </trkpt>
      <trkpt lat="59.9464227" lon="17.5240682">
        <ele>31.8607</ele>
        <time>2013-05-05T11:40:04Z</time>
      </trkpt>
      <trkpt lat="59.946458" lon="17.5239886">
        <ele>31.8607</ele>
        <time>2013-05-05T11:40:05Z</time>
      </trkpt>
      <trkpt lat="59.946491" lon="17.5239171">
        <ele>31.8607</ele>
        <time>2013-05-05T11:40:06Z</time>
      </trkpt>
      <trkpt lat="59.9465233" lon="17.5238537">
        <ele>32.3416</ele>
        <time>2013-05-05T11:40:07Z</time>
      </trkpt>
      <trkpt lat="59.9465564" lon="17.5237916">
        <ele>31.8607</ele>
        <time>2013-05-05T11:40:08Z</time>
      </trkpt>
      <trkpt lat="59.9465924" lon="17.523739">
        <ele>31.8607</ele>
        <time>2013-05-05T11:40:09Z</time>
      </trkpt>
      <trkpt lat="59.9466282" lon="17.5236929">
        <ele>30.8995</ele>
        <time>2013-05-05T11:40:10Z</time>
      </trkpt>
      <trkpt lat="59.9466629" lon="17.5236404">
        <ele>30.8995</ele>
        <time>2013-05-05T11:40:11Z</time>
      </trkpt>
      <trkpt lat="59.9466962" lon="17.5235835">
        <ele>30.8995</ele>
        <time>2013-05-05T11:40:12Z</time>
      </trkpt>
      <trkpt lat="59.9467307" lon="17.5235292">
        <ele>30.8995</ele>
        <time>2013-05-05T11:40:13Z</time>
      </trkpt>
      <trkpt lat="59.9467645" lon="17.5234747">
        <ele>30.4188</ele>
        <time>2013-05-05T11:40:14Z</time>
      </trkpt>
      <trkpt lat="59.9467982" lon="17.5234186">
        <ele>30.4188</ele>
        <time>2013-05-05T11:40:15Z</time>
      </trkpt>
      <trkpt lat="59.946833" lon="17.5233632">
        <ele>30.4188</ele>
        <time>2013-05-05T11:40:16Z</time>
      </trkpt>
      <trkpt lat="59.9468679" lon="17.5233074">
        <ele>30.4188</ele>
        <time>2013-05-05T11:40:17Z</time>
      </trkpt>
      <trkpt lat="59.9469022" lon="17.5232526">
        <ele>30.4188</ele>
        <time>2013-05-05T11:40:18Z</time>
      </trkpt>
      <trkpt lat="59.9469371" lon="17.5231995">
        <ele>30.4188</ele>
        <time>2013-05-05T11:40:19Z</time>
      </trkpt>
      <trkpt lat="59.9469731" lon="17.5231446">
        <ele>30.4188</ele>
        <time>2013-05-05T11:40:20Z</time>
      </trkpt>
      <trkpt lat="59.9470105" lon="17.5230888">
        <ele>30.4188</ele>
        <time>2013-05-05T11:40:21Z</time>
      </trkpt>
      <trkpt lat="59.9470495" lon="17.5230296">
        <ele>29.9381</ele>
        <time>2013-05-05T11:40:22Z</time>
      </trkpt>
      <trkpt lat="59.9470891" lon="17.5229669">
        <ele>29.9381</ele>
        <time>2013-05-05T11:40:23Z</time>
      </trkpt>
      <trkpt lat="59.9471293" lon="17.5229041">
        <ele>29.9381</ele>
        <time>2013-05-05T11:40:24Z</time>
      </trkpt>
      <trkpt lat="59.9471706" lon="17.5228412">
        <ele>29.9381</ele>
        <time>2013-05-05T11:40:25Z</time>
      </trkpt>
      <trkpt lat="59.947213" lon="17.522778">
        <ele>29.4575</ele>
        <time>2013-05-05T11:40:26Z</time>
      </trkpt>
      <trkpt lat="59.9472551" lon="17.5227148">
        <ele>29.4575</ele>
        <time>2013-05-05T11:40:27Z</time>
      </trkpt>
      <trkpt lat="59.9472965" lon="17.5226504">
        <ele>29.4575</ele>
        <time>2013-05-05T11:40:28Z</time>
      </trkpt>
      <trkpt lat="59.9473379" lon="17.5225832">
        <ele>29.4575</ele>
        <time>2013-05-05T11:40:29Z</time>
      </trkpt>
      <trkpt lat="59.9473783" lon="17.5225138">
        <ele>29.4575</ele>
        <time>2013-05-05T11:40:30Z</time>
      </trkpt>
      <trkpt lat="59.9474189" lon="17.5224444">
        <ele>29.4575</ele>
        <time>2013-05-05T11:40:31Z</time>
      </trkpt>
      <trkpt lat="59.9474606" lon="17.522375">
        <ele>29.4575</ele>
        <time>2013-05-05T11:40:32Z</time>
      </trkpt>
      <trkpt lat="59.9475012" lon="17.5223035">
        <ele>29.9381</ele>
        <time>2013-05-05T11:40:33Z</time>
      </trkpt>
      <trkpt lat="59.9475421" lon="17.5222293">
        <ele>29.9381</ele>
        <time>2013-05-05T11:40:34Z</time>
      </trkpt>
      <trkpt lat="59.947582" lon="17.5221542">
        <ele>29.4575</ele>
        <time>2013-05-05T11:40:35Z</time>
      </trkpt>
      <trkpt lat="59.9476208" lon="17.5220759">
        <ele>29.4575</ele>
        <time>2013-05-05T11:40:36Z</time>
      </trkpt>
      <trkpt lat="59.9476585" lon="17.5219921">
        <ele>29.4575</ele>
        <time>2013-05-05T11:40:37Z</time>
      </trkpt>
      <trkpt lat="59.9476959" lon="17.5219061">
        <ele>29.4575</ele>
        <time>2013-05-05T11:40:38Z</time>
      </trkpt>
      <trkpt lat="59.9477331" lon="17.5218206">
        <ele>29.4575</ele>
        <time>2013-05-05T11:40:39Z</time>
      </trkpt>
      <trkpt lat="59.947769" lon="17.521734">
        <ele>29.4575</ele>
        <time>2013-05-05T11:40:40Z</time>
      </trkpt>
      <trkpt lat="59.9478041" lon="17.5216444">
        <ele>28.9769</ele>
        <time>2013-05-05T11:40:41Z</time>
      </trkpt>
      <trkpt lat="59.9478384" lon="17.521553">
        <ele>28.9769</ele>
        <time>2013-05-05T11:40:42Z</time>
      </trkpt>
      <trkpt lat="59.9478711" lon="17.5214601">
        <ele>28.9769</ele>
        <time>2013-05-05T11:40:43Z</time>
      </trkpt>
      <trkpt lat="59.9479022" lon="17.5213649">
        <ele>28.9769</ele>
        <time>2013-05-05T11:40:44Z</time>
      </trkpt>
      <trkpt lat="59.9479327" lon="17.5212678">
        <ele>28.9769</ele>
        <time>2013-05-05T11:40:45Z</time>
      </trkpt>
      <trkpt lat="59.9479627" lon="17.5211699">
        <ele>29.4575</ele>
        <time>2013-05-05T11:40:46Z</time>
      </trkpt>
      <trkpt lat="59.9479923" lon="17.5210715">
        <ele>29.9381</ele>
        <time>2013-05-05T11:40:47Z</time>
      </trkpt>
      <trkpt lat="59.9480212" lon="17.5209717">
        <ele>30.4188</ele>
        <time>2013-05-05T11:40:48Z</time>
      </trkpt>
      <trkpt lat="59.9480507" lon="17.5208705">
        <ele>30.4188</ele>
        <time>2013-05-05T11:40:49Z</time>
      </trkpt>
      <trkpt lat="59.9480808" lon="17.520767">
        <ele>30.8995</ele>
        <time>2013-05-05T11:40:50Z</time>
      </trkpt>
      <trkpt lat="59.9481109" lon="17.5206629">
        <ele>30.8995</ele>
        <time>2013-05-05T11:40:51Z</time>
      </trkpt>
      <trkpt lat="59.9481404" lon="17.5205602">
        <ele>31.3801</ele>
        <time>2013-05-05T11:40:52Z</time>
      </trkpt>
      <trkpt lat="59.9481704" lon="17.5204537">
        <ele>30.8995</ele>
        <time>2013-05-05T11:40:53Z</time>
      </trkpt>
      <trkpt lat="59.948194" lon="17.52035">
        <ele>31.3801</ele>
        <time>2013-05-05T11:40:54Z</time>
      </trkpt>
      <trkpt lat="59.9482185" lon="17.5202471">
        <ele>30.4188</ele>
        <time>2013-05-05T11:40:55Z</time>
      </trkpt>
      <trkpt lat="59.9482417" lon="17.5201522">
        <ele>30.4188</ele>
        <time>2013-05-05T11:40:56Z</time>
      </trkpt>
      <trkpt lat="59.9482664" lon="17.5200552">
        <ele>30.4188</ele>
        <time>2013-05-05T11:40:57Z</time>
      </trkpt>
      <trkpt lat="59.9482907" lon="17.5199578">
        <ele>29.9381</ele>
        <time>2013-05-05T11:40:58Z</time>
      </trkpt>
      <trkpt lat="59.9483148" lon="17.5198617">
        <ele>28.9769</ele>
        <time>2013-05-05T11:40:59Z</time>
      </trkpt>
      <trkpt lat="59.9483397" lon="17.5197637">
        <ele>28.9769</ele>
        <time>2013-05-05T11:41:00Z</time>
      </trkpt>
      <trkpt lat="59.9483656" lon="17.5196673">
        <ele>28.4962</ele>
        <time>2013-05-05T11:41:01Z</time>
      </trkpt>
      <trkpt lat="59.948392" lon="17.5195709">
        <ele>28.0155</ele>
        <time>2013-05-05T11:41:02Z</time>
      </trkpt>
      <trkpt lat="59.9484186" lon="17.5194725">
        <ele>28.0155</ele>
        <time>2013-05-05T11:41:03Z</time>
      </trkpt>
      <trkpt lat="59.948445" lon="17.5193755">
        <ele>28.0155</ele>
        <time>2013-05-05T11:41:04Z</time>
      </trkpt>
      <trkpt lat="59.9484708" lon="17.5192768">
        <ele>28.4962</ele>
        <time>2013-05-05T11:41:05Z</time>
      </trkpt>
      <trkpt lat="59.9484962" lon="17.5191769">
        <ele>28.0155</ele>
        <time>2013-05-05T11:41:06Z</time>
      </trkpt>
      <trkpt lat="59.9485221" lon="17.5190784">
        <ele>28.0155</ele>
        <time>2013-05-05T11:41:07Z</time>
      </trkpt>
      <trkpt lat="59.9485489" lon="17.5189823">
        <ele>28.0155</ele>
        <time>2013-05-05T11:41:08Z</time>
      </trkpt>
      <trkpt lat="59.948576" lon="17.5188876">
        <ele>28.4962</ele>
        <time>2013-05-05T11:41:09Z</time>
      </trkpt>
      <trkpt lat="59.9486024" lon="17.5187912">
        <ele>28.4962</ele>
        <time>2013-05-05T11:41:10Z</time>
      </trkpt>
      <trkpt lat="59.9486284" lon="17.518695">
        <ele>28.4962</ele>
        <time>2013-05-05T11:41:11Z</time>
      </trkpt>
      <trkpt lat="59.9486552" lon="17.5185993">
        <ele>28.0155</ele>
        <time>2013-05-05T11:41:12Z</time>
      </trkpt>
      <trkpt lat="59.9486823" lon="17.5185065">
        <ele>28.0155</ele>
        <time>2013-05-05T11:41:13Z</time>
      </trkpt>
      <trkpt lat="59.9487085" lon="17.5184127">
        <ele>28.0155</ele>
        <time>2013-05-05T11:41:14Z</time>
      </trkpt>
      <trkpt lat="59.9487343" lon="17.5183193">
        <ele>28.4962</ele>
        <time>2013-05-05T11:41:15Z</time>
      </trkpt>
      <trkpt lat="59.9487615" lon="17.5182252">
        <ele>28.4962</ele>
        <time>2013-05-05T11:41:16Z</time>
      </trkpt>
      <trkpt lat="59.948789" lon="17.5181293">
        <ele>28.4962</ele>
        <time>2013-05-05T11:41:17Z</time>
      </trkpt>
      <trkpt lat="59.9488148" lon="17.5180324">
        <ele>28.9769</ele>
        <time>2013-05-05T11:41:18Z</time>
      </trkpt>
      <trkpt lat="59.9488397" lon="17.5179338">
        <ele>28.9769</ele>
        <time>2013-05-05T11:41:19Z</time>
      </trkpt>
      <trkpt lat="59.9488644" lon="17.5178342">
        <ele>28.9769</ele>
        <time>2013-05-05T11:41:20Z</time>
      </trkpt>
      <trkpt lat="59.9488899" lon="17.5177347">
        <ele>28.9769</ele>
        <time>2013-05-05T11:41:21Z</time>
      </trkpt>
      <trkpt lat="59.9489187" lon="17.5176383">
        <ele>28.9769</ele>
        <time>2013-05-05T11:41:22Z</time>
      </trkpt>
      <trkpt lat="59.9489499" lon="17.5175461">
        <ele>28.9769</ele>
        <time>2013-05-05T11:41:23Z</time>
      </trkpt>
      <trkpt lat="59.9489796" lon="17.5174528">
        <ele>28.9769</ele>
        <time>2013-05-05T11:41:24Z</time>
      </trkpt>
      <trkpt lat="59.949008" lon="17.5173565">
        <ele>28.9769</ele>
        <time>2013-05-05T11:41:25Z</time>
      </trkpt>
      <trkpt lat="59.94904" lon="17.5172621">
        <ele>28.9769</ele>
        <time>2013-05-05T11:41:26Z</time>
      </trkpt>
      <trkpt lat="59.9490727" lon="17.5171694">
        <ele>28.4962</ele>
        <time>2013-05-05T11:41:27Z</time>
      </trkpt>
      <trkpt lat="59.9491057" lon="17.5170807">
        <ele>28.4962</ele>
        <time>2013-05-05T11:41:28Z</time>
      </trkpt>
      <trkpt lat="59.9491379" lon="17.5169903">
        <ele>28.4962</ele>
        <time>2013-05-05T11:41:29Z</time>
      </trkpt>
      <trkpt lat="59.9491676" lon="17.5168986">
        <ele>28.4962</ele>
        <time>2013-05-05T11:41:30Z</time>
      </trkpt>
      <trkpt lat="59.9491961" lon="17.5168038">
        <ele>28.9769</ele>
        <time>2013-05-05T11:41:31Z</time>
      </trkpt>
      <trkpt lat="59.9492251" lon="17.5167067">
        <ele>28.9769</ele>
        <time>2013-05-05T11:41:32Z</time>
      </trkpt>
      <trkpt lat="59.9492549" lon="17.5166098">
        <ele>28.9769</ele>
        <time>2013-05-05T11:41:33Z</time>
      </trkpt>
      <trkpt lat="59.949287" lon="17.5165132">
        <ele>29.4575</ele>
        <time>2013-05-05T11:41:34Z</time>
      </trkpt>
      <trkpt lat="59.9493224" lon="17.5164224">
        <ele>29.4575</ele>
        <time>2013-05-05T11:41:35Z</time>
      </trkpt>
      <trkpt lat="59.9493602" lon="17.5163348">
        <ele>29.4575</ele>
        <time>2013-05-05T11:41:36Z</time>
      </trkpt>
      <trkpt lat="59.9493972" lon="17.5162442">
        <ele>29.4575</ele>
        <time>2013-05-05T11:41:37Z</time>
      </trkpt>
      <trkpt lat="59.9494348" lon="17.5161491">
        <ele>29.4575</ele>
        <time>2013-05-05T11:41:38Z</time>
      </trkpt>
      <trkpt lat="59.9494741" lon="17.5160527">
        <ele>29.4575</ele>
        <time>2013-05-05T11:41:39Z</time>
      </trkpt>
      <trkpt lat="59.9495139" lon="17.5159558">
        <ele>29.4575</ele>
        <time>2013-05-05T11:41:40Z</time>
      </trkpt>
      <trkpt lat="59.9495545" lon="17.5158573">
        <ele>28.9769</ele>
        <time>2013-05-05T11:41:41Z</time>
      </trkpt>
      <trkpt lat="59.9495918" lon="17.5157546">
        <ele>29.4575</ele>
        <time>2013-05-05T11:41:42Z</time>
      </trkpt>
      <trkpt lat="59.9496266" lon="17.5156559">
        <ele>29.4575</ele>
        <time>2013-05-05T11:41:43Z</time>
      </trkpt>
      <trkpt lat="59.9496636" lon="17.5155337">
        <ele>29.4575</ele>
        <time>2013-05-05T11:41:44Z</time>
      </trkpt>
      <trkpt lat="59.9496971" lon="17.5154165">
        <ele>29.4575</ele>
        <time>2013-05-05T11:41:45Z</time>
      </trkpt>
      <trkpt lat="59.9497284" lon="17.5152977">
        <ele>29.4575</ele>
        <time>2013-05-05T11:41:46Z</time>
      </trkpt>
      <trkpt lat="59.9497584" lon="17.515174">
        <ele>29.4575</ele>
        <time>2013-05-05T11:41:47Z</time>
      </trkpt>
      <trkpt lat="59.9497877" lon="17.5150504">
        <ele>29.4575</ele>
        <time>2013-05-05T11:41:48Z</time>
      </trkpt>
      <trkpt lat="59.9498187" lon="17.5149244">
        <ele>29.9381</ele>
        <time>2013-05-05T11:41:49Z</time>
      </trkpt>
      <trkpt lat="59.9498514" lon="17.5147991">
        <ele>29.9381</ele>
        <time>2013-05-05T11:41:50Z</time>
      </trkpt>
      <trkpt lat="59.9498861" lon="17.5146795">
        <ele>29.9381</ele>
        <time>2013-05-05T11:41:51Z</time>
      </trkpt>
      <trkpt lat="59.9499202" lon="17.5145448">
        <ele>29.9381</ele>
        <time>2013-05-05T11:41:52Z</time>
      </trkpt>
      <trkpt lat="59.9499542" lon="17.5144204">
        <ele>29.4575</ele>
        <time>2013-05-05T11:41:53Z</time>
      </trkpt>
      <trkpt lat="59.9499882" lon="17.5142907">
        <ele>29.4575</ele>
        <time>2013-05-05T11:41:54Z</time>
      </trkpt>
      <trkpt lat="59.9500206" lon="17.5141594">
        <ele>29.4575</ele>
        <time>2013-05-05T11:41:55Z</time>
      </trkpt>
      <trkpt lat="59.9500523" lon="17.5140263">
        <ele>29.9381</ele>
        <time>2013-05-05T11:41:56Z</time>
      </trkpt>
      <trkpt lat="59.9500791" lon="17.5139007">
        <ele>29.9381</ele>
        <time>2013-05-05T11:41:57Z</time>
      </trkpt>
      <trkpt lat="59.9501027" lon="17.5137708">
        <ele>29.9381</ele>
        <time>2013-05-05T11:41:58Z</time>
      </trkpt>
      <trkpt lat="59.9501247" lon="17.5136418">
        <ele>29.9381</ele>
        <time>2013-05-05T11:41:59Z</time>
      </trkpt>
      <trkpt lat="59.9501461" lon="17.5135102">
        <ele>29.9381</ele>
        <time>2013-05-05T11:42:00Z</time>
      </trkpt>
      <trkpt lat="59.9501678" lon="17.5133767">
        <ele>29.9381</ele>
        <time>2013-05-05T11:42:01Z</time>
      </trkpt>
      <trkpt lat="59.9501861" lon="17.5132461">
        <ele>29.4575</ele>
        <time>2013-05-05T11:42:02Z</time>
      </trkpt>
      <trkpt lat="59.9502015" lon="17.5131191">
        <ele>29.4575</ele>
        <time>2013-05-05T11:42:03Z</time>
      </trkpt>
      <trkpt lat="59.9502172" lon="17.5129958">
        <ele>29.4575</ele>
        <time>2013-05-05T11:42:04Z</time>
      </trkpt>
      <trkpt lat="59.9502342" lon="17.5128757">
        <ele>29.9381</ele>
        <time>2013-05-05T11:42:05Z</time>
      </trkpt>
      <trkpt lat="59.9502502" lon="17.5127579">
        <ele>29.9381</ele>
        <time>2013-05-05T11:42:06Z</time>
      </trkpt>
      <trkpt lat="59.9502664" lon="17.5126415">
        <ele>30.4188</ele>
        <time>2013-05-05T11:42:07Z</time>
      </trkpt>
      <trkpt lat="59.9502845" lon="17.512526">
        <ele>30.4188</ele>
        <time>2013-05-05T11:42:08Z</time>
      </trkpt>
      <trkpt lat="59.9503036" lon="17.5124121">
        <ele>30.8995</ele>
        <time>2013-05-05T11:42:09Z</time>
      </trkpt>
      <trkpt lat="59.9503222" lon="17.5122984">
        <ele>30.8995</ele>
        <time>2013-05-05T11:42:10Z</time>
      </trkpt>
      <trkpt lat="59.9503399" lon="17.5121836">
        <ele>31.3801</ele>
        <time>2013-05-05T11:42:11Z</time>
      </trkpt>
      <trkpt lat="59.9503565" lon="17.5120681">
        <ele>31.3801</ele>
        <time>2013-05-05T11:42:12Z</time>
      </trkpt>
      <trkpt lat="59.9503725" lon="17.5119539">
        <ele>31.8607</ele>
        <time>2013-05-05T11:42:13Z</time>
      </trkpt>
      <trkpt lat="59.9503892" lon="17.5118405">
        <ele>31.8607</ele>
        <time>2013-05-05T11:42:14Z</time>
      </trkpt>
      <trkpt lat="59.9504072" lon="17.5117278">
        <ele>32.3416</ele>
        <time>2013-05-05T11:42:15Z</time>
      </trkpt>
      <trkpt lat="59.9504269" lon="17.5116155">
        <ele>32.8223</ele>
        <time>2013-05-05T11:42:16Z</time>
      </trkpt>
      <trkpt lat="59.9504475" lon="17.5115009">
        <ele>32.8223</ele>
        <time>2013-05-05T11:42:17Z</time>
      </trkpt>
      <trkpt lat="59.9504661" lon="17.5113849">
        <ele>32.3416</ele>
        <time>2013-05-05T11:42:18Z</time>
      </trkpt>
      <trkpt lat="59.9504852" lon="17.5112673">
        <ele>32.8223</ele>
        <time>2013-05-05T11:42:19Z</time>
      </trkpt>
      <trkpt lat="59.9505045" lon="17.5111511">
        <ele>32.8223</ele>
        <time>2013-05-05T11:42:20Z</time>
      </trkpt>
      <trkpt lat="59.9505247" lon="17.5110366">
        <ele>33.3029</ele>
        <time>2013-05-05T11:42:21Z</time>
      </trkpt>
      <trkpt lat="59.9505461" lon="17.5109253">
        <ele>33.3029</ele>
        <time>2013-05-05T11:42:22Z</time>
      </trkpt>
      <trkpt lat="59.9505689" lon="17.5108176">
        <ele>33.7834</ele>
        <time>2013-05-05T11:42:23Z</time>
      </trkpt>
      <trkpt lat="59.9505935" lon="17.5107115">
        <ele>33.7834</ele>
        <time>2013-05-05T11:42:24Z</time>
      </trkpt>
      <trkpt lat="59.9506181" lon="17.5106035">
        <ele>33.7834</ele>
        <time>2013-05-05T11:42:25Z</time>
      </trkpt>
      <trkpt lat="59.9506377" lon="17.5104887">
        <ele>33.7834</ele>
        <time>2013-05-05T11:42:26Z</time>
      </trkpt>
      <trkpt lat="59.9506565" lon="17.5103716">
        <ele>34.2642</ele>
        <time>2013-05-05T11:42:27Z</time>
      </trkpt>
      <trkpt lat="59.9506821" lon="17.5102586">
        <ele>34.2642</ele>
        <time>2013-05-05T11:42:28Z</time>
      </trkpt>
      <trkpt lat="59.9507124" lon="17.5101482">
        <ele>34.2642</ele>
        <time>2013-05-05T11:42:29Z</time>
      </trkpt>
      <trkpt lat="59.9507439" lon="17.5100416">
        <ele>33.7834</ele>
        <time>2013-05-05T11:42:30Z</time>
      </trkpt>
      <trkpt lat="59.9507765" lon="17.5099345">
        <ele>33.3029</ele>
        <time>2013-05-05T11:42:31Z</time>
      </trkpt>
      <trkpt lat="59.950809" lon="17.5098254">
        <ele>33.3029</ele>
        <time>2013-05-05T11:42:32Z</time>
      </trkpt>
      <trkpt lat="59.9508402" lon="17.5097135">
        <ele>32.8223</ele>
        <time>2013-05-05T11:42:33Z</time>
      </trkpt>
      <trkpt lat="59.9508716" lon="17.5095998">
        <ele>32.8223</ele>
        <time>2013-05-05T11:42:34Z</time>
      </trkpt>
      <trkpt lat="59.9509035" lon="17.5094849">
        <ele>32.8223</ele>
        <time>2013-05-05T11:42:35Z</time>
      </trkpt>
      <trkpt lat="59.9509359" lon="17.5093718">
        <ele>32.8223</ele>
        <time>2013-05-05T11:42:36Z</time>
      </trkpt>
      <trkpt lat="59.9509687" lon="17.5092572">
        <ele>32.3416</ele>
        <time>2013-05-05T11:42:37Z</time>
      </trkpt>
      <trkpt lat="59.9510027" lon="17.5091397">
        <ele>32.3416</ele>
        <time>2013-05-05T11:42:38Z</time>
      </trkpt>
      <trkpt lat="59.951034" lon="17.5090248">
        <ele>32.8223</ele>
        <time>2013-05-05T11:42:39Z</time>
      </trkpt>
      <trkpt lat="59.9510644" lon="17.5089102">
        <ele>32.8223</ele>
        <time>2013-05-05T11:42:40Z</time>
      </trkpt>
      <trkpt lat="59.9510955" lon="17.508797">
        <ele>32.8223</ele>
        <time>2013-05-05T11:42:41Z</time>
      </trkpt>
      <trkpt lat="59.9511272" lon="17.5086819">
        <ele>32.3416</ele>
        <time>2013-05-05T11:42:42Z</time>
      </trkpt>
      <trkpt lat="59.9511599" lon="17.5085647">
        <ele>32.3416</ele>
        <time>2013-05-05T11:42:43Z</time>
      </trkpt>
      <trkpt lat="59.9511935" lon="17.5084451">
        <ele>32.3416</ele>
        <time>2013-05-05T11:42:44Z</time>
      </trkpt>
      <trkpt lat="59.9512252" lon="17.5083273">
        <ele>32.3416</ele>
        <time>2013-05-05T11:42:45Z</time>
      </trkpt>
      <trkpt lat="59.9512568" lon="17.508207">
        <ele>31.8607</ele>
        <time>2013-05-05T11:42:46Z</time>
      </trkpt>
      <trkpt lat="59.9512878" lon="17.5080877">
        <ele>31.8607</ele>
        <time>2013-05-05T11:42:47Z</time>
      </trkpt>
      <trkpt lat="59.9513178" lon="17.5079668">
        <ele>31.3801</ele>
        <time>2013-05-05T11:42:48Z</time>
      </trkpt>
      <trkpt lat="59.951348" lon="17.5078411">
        <ele>31.3801</ele>
        <time>2013-05-05T11:42:49Z</time>
      </trkpt>
      <trkpt lat="59.9513831" lon="17.5077152">
        <ele>30.8995</ele>
        <time>2013-05-05T11:42:50Z</time>
      </trkpt>
      <trkpt lat="59.9514215" lon="17.5075905">
        <ele>30.4188</ele>
        <time>2013-05-05T11:42:51Z</time>
      </trkpt>
      <trkpt lat="59.9514576" lon="17.5074625">
        <ele>30.4188</ele>
        <time>2013-05-05T11:42:52Z</time>
      </trkpt>
      <trkpt lat="59.9514892" lon="17.5073313">
        <ele>30.8995</ele>
        <time>2013-05-05T11:42:53Z</time>
      </trkpt>
      <trkpt lat="59.9515171" lon="17.5071958">
        <ele>30.8995</ele>
        <time>2013-05-05T11:42:54Z</time>
      </trkpt>
      <trkpt lat="59.9515402" lon="17.5070584">
        <ele>31.3801</ele>
        <time>2013-05-05T11:42:55Z</time>
      </trkpt>
      <trkpt lat="59.9515603" lon="17.5069228">
        <ele>31.3801</ele>
        <time>2013-05-05T11:42:56Z</time>
      </trkpt>
      <trkpt lat="59.9515784" lon="17.5067865">
        <ele>31.3801</ele>
        <time>2013-05-05T11:42:57Z</time>
      </trkpt>
      <trkpt lat="59.9515944" lon="17.506649">
        <ele>31.3801</ele>
        <time>2013-05-05T11:42:58Z</time>
      </trkpt>
      <trkpt lat="59.9516084" lon="17.5065114">
        <ele>30.8995</ele>
        <time>2013-05-05T11:42:59Z</time>
      </trkpt>
      <trkpt lat="59.951622" lon="17.5063737">
        <ele>30.8995</ele>
        <time>2013-05-05T11:43:00Z</time>
      </trkpt>
      <trkpt lat="59.9516337" lon="17.5062341">
        <ele>30.4188</ele>
        <time>2013-05-05T11:43:01Z</time>
      </trkpt>
      <trkpt lat="59.9516435" lon="17.5060958">
        <ele>29.9381</ele>
        <time>2013-05-05T11:43:02Z</time>
      </trkpt>
      <trkpt lat="59.9516546" lon="17.5059587">
        <ele>29.9381</ele>
        <time>2013-05-05T11:43:03Z</time>
      </trkpt>
      <trkpt lat="59.9516642" lon="17.5058199">
        <ele>29.4575</ele>
        <time>2013-05-05T11:43:04Z</time>
      </trkpt>
      <trkpt lat="59.9516701" lon="17.5056794">
        <ele>29.4575</ele>
        <time>2013-05-05T11:43:05Z</time>
      </trkpt>
      <trkpt lat="59.9516733" lon="17.5055397">
        <ele>28.9769</ele>
        <time>2013-05-05T11:43:06Z</time>
      </trkpt>
      <trkpt lat="59.9516763" lon="17.5054008">
        <ele>28.9769</ele>
        <time>2013-05-05T11:43:07Z</time>
      </trkpt>
      <trkpt lat="59.9516768" lon="17.5052615">
        <ele>28.4962</ele>
        <time>2013-05-05T11:43:08Z</time>
      </trkpt>
      <trkpt lat="59.9516763" lon="17.5051206">
        <ele>28.0155</ele>
        <time>2013-05-05T11:43:09Z</time>
      </trkpt>
      <trkpt lat="59.9516794" lon="17.5049771">
        <ele>27.5349</ele>
        <time>2013-05-05T11:43:10Z</time>
      </trkpt>
      <trkpt lat="59.9516831" lon="17.504835">
        <ele>27.5349</ele>
        <time>2013-05-05T11:43:11Z</time>
      </trkpt>
      <trkpt lat="59.9516836" lon="17.5046935">
        <ele>27.0543</ele>
        <time>2013-05-05T11:43:12Z</time>
      </trkpt>
      <trkpt lat="59.9516829" lon="17.5045539">
        <ele>26.0929</ele>
        <time>2013-05-05T11:43:13Z</time>
      </trkpt>
      <trkpt lat="59.9516859" lon="17.5044128">
        <ele>26.0929</ele>
        <time>2013-05-05T11:43:14Z</time>
      </trkpt>
      <trkpt lat="59.9516891" lon="17.5042741">
        <ele>26.5736</ele>
        <time>2013-05-05T11:43:15Z</time>
      </trkpt>
      <trkpt lat="59.9516919" lon="17.5041374">
        <ele>26.5736</ele>
        <time>2013-05-05T11:43:16Z</time>
      </trkpt>
      <trkpt lat="59.9516942" lon="17.5040016">
        <ele>26.5736</ele>
        <time>2013-05-05T11:43:17Z</time>
      </trkpt>
      <trkpt lat="59.951696" lon="17.5038669">
        <ele>26.5736</ele>
        <time>2013-05-05T11:43:18Z</time>
      </trkpt>
      <trkpt lat="59.9516981" lon="17.5037338">
        <ele>27.0543</ele>
        <time>2013-05-05T11:43:19Z</time>
      </trkpt>
      <trkpt lat="59.9516986" lon="17.503608">
        <ele>27.0543</ele>
        <time>2013-05-05T11:43:20Z</time>
      </trkpt>
      <trkpt lat="59.9516992" lon="17.5034826">
        <ele>27.0543</ele>
        <time>2013-05-05T11:43:21Z</time>
      </trkpt>
      <trkpt lat="59.9517037" lon="17.5033617">
        <ele>27.5349</ele>
        <time>2013-05-05T11:43:22Z</time>
      </trkpt>
      <trkpt lat="59.9517069" lon="17.5032433">
        <ele>27.5349</ele>
        <time>2013-05-05T11:43:23Z</time>
      </trkpt>
      <trkpt lat="59.951709" lon="17.503126">
        <ele>27.0543</ele>
        <time>2013-05-05T11:43:24Z</time>
      </trkpt>
      <trkpt lat="59.9517113" lon="17.5030102">
        <ele>27.0543</ele>
        <time>2013-05-05T11:43:25Z</time>
      </trkpt>
      <trkpt lat="59.9517148" lon="17.5028965">
        <ele>27.0543</ele>
        <time>2013-05-05T11:43:26Z</time>
      </trkpt>
      <trkpt lat="59.9517162" lon="17.5027819">
        <ele>27.0543</ele>
        <time>2013-05-05T11:43:27Z</time>
      </trkpt>
      <trkpt lat="59.9517184" lon="17.5026707">
        <ele>27.5349</ele>
        <time>2013-05-05T11:43:28Z</time>
      </trkpt>
      <trkpt lat="59.9517205" lon="17.5025653">
        <ele>27.5349</ele>
        <time>2013-05-05T11:43:29Z</time>
      </trkpt>
      <trkpt lat="59.9517219" lon="17.5024586">
        <ele>27.5349</ele>
        <time>2013-05-05T11:43:30Z</time>
      </trkpt>
      <trkpt lat="59.9517229" lon="17.502356">
        <ele>27.5349</ele>
        <time>2013-05-05T11:43:31Z</time>
      </trkpt>
      <trkpt lat="59.9517239" lon="17.5022528">
        <ele>27.5349</ele>
        <time>2013-05-05T11:43:32Z</time>
      </trkpt>
      <trkpt lat="59.951726" lon="17.502146">
        <ele>28.0155</ele>
        <time>2013-05-05T11:43:33Z</time>
      </trkpt>
      <trkpt lat="59.9517286" lon="17.5020393">
        <ele>28.0155</ele>
        <time>2013-05-05T11:43:34Z</time>
      </trkpt>
      <trkpt lat="59.9517312" lon="17.5019367">
        <ele>28.0155</ele>
        <time>2013-05-05T11:43:35Z</time>
      </trkpt>
      <trkpt lat="59.9517348" lon="17.5018346">
        <ele>28.4962</ele>
        <time>2013-05-05T11:43:36Z</time>
      </trkpt>
      <trkpt lat="59.951739" lon="17.5017297">
        <ele>28.0155</ele>
        <time>2013-05-05T11:43:37Z</time>
      </trkpt>
      <trkpt lat="59.9517429" lon="17.5016255">
        <ele>28.0155</ele>
        <time>2013-05-05T11:43:38Z</time>
      </trkpt>
      <trkpt lat="59.9517479" lon="17.5015217">
        <ele>28.0155</ele>
        <time>2013-05-05T11:43:39Z</time>
      </trkpt>
      <trkpt lat="59.9517544" lon="17.5014193">
        <ele>28.4962</ele>
        <time>2013-05-05T11:43:40Z</time>
      </trkpt>
      <trkpt lat="59.9517606" lon="17.5013184">
        <ele>28.4962</ele>
        <time>2013-05-05T11:43:41Z</time>
      </trkpt>
      <trkpt lat="59.9517663" lon="17.5012188">
        <ele>28.4962</ele>
        <time>2013-05-05T11:43:42Z</time>
      </trkpt>
      <trkpt lat="59.9517728" lon="17.5011199">
        <ele>28.9769</ele>
        <time>2013-05-05T11:43:43Z</time>
      </trkpt>
      <trkpt lat="59.9517815" lon="17.5010195">
        <ele>28.9769</ele>
        <time>2013-05-05T11:43:44Z</time>
      </trkpt>
      <trkpt lat="59.9517911" lon="17.500919">
        <ele>28.9769</ele>
        <time>2013-05-05T11:43:45Z</time>
      </trkpt>
      <trkpt lat="59.9518016" lon="17.5008205">
        <ele>29.4575</ele>
        <time>2013-05-05T11:43:46Z</time>
      </trkpt>
      <trkpt lat="59.9518124" lon="17.5007227">
        <ele>29.4575</ele>
        <time>2013-05-05T11:43:47Z</time>
      </trkpt>
      <trkpt lat="59.9518234" lon="17.5006247">
        <ele>29.4575</ele>
        <time>2013-05-05T11:43:48Z</time>
      </trkpt>
      <trkpt lat="59.9518353" lon="17.5005266">
        <ele>29.9381</ele>
        <time>2013-05-05T11:43:49Z</time>
      </trkpt>
      <trkpt lat="59.9518479" lon="17.5004282">
        <ele>29.9381</ele>
        <time>2013-05-05T11:43:50Z</time>
      </trkpt>
      <trkpt lat="59.9518607" lon="17.5003293">
        <ele>29.9381</ele>
        <time>2013-05-05T11:43:51Z</time>
      </trkpt>
      <trkpt lat="59.9518737" lon="17.500231">
        <ele>29.9381</ele>
        <time>2013-05-05T11:43:52Z</time>
      </trkpt>
      <trkpt lat="59.9518877" lon="17.5001326">
        <ele>30.4188</ele>
        <time>2013-05-05T11:43:53Z</time>
      </trkpt>
      <trkpt lat="59.951904" lon="17.5000325">
        <ele>30.4188</ele>
        <time>2013-05-05T11:43:54Z</time>
      </trkpt>
      <trkpt lat="59.9519217" lon="17.4999306">
        <ele>30.4188</ele>
        <time>2013-05-05T11:43:55Z</time>
      </trkpt>
      <trkpt lat="59.951941" lon="17.4998276">
        <ele>30.4188</ele>
        <time>2013-05-05T11:43:56Z</time>
      </trkpt>
      <trkpt lat="59.9519606" lon="17.499724">
        <ele>30.4188</ele>
        <time>2013-05-05T11:43:57Z</time>
      </trkpt>
      <trkpt lat="59.9519799" lon="17.4996197">
        <ele>30.4188</ele>
        <time>2013-05-05T11:43:58Z</time>
      </trkpt>
      <trkpt lat="59.9520005" lon="17.4995153">
        <ele>30.8995</ele>
        <time>2013-05-05T11:43:59Z</time>
      </trkpt>
      <trkpt lat="59.9520225" lon="17.4994112">
        <ele>30.8995</ele>
        <time>2013-05-05T11:44:00Z</time>
      </trkpt>
      <trkpt lat="59.9520462" lon="17.4993085">
        <ele>30.8995</ele>
        <time>2013-05-05T11:44:01Z</time>
      </trkpt>
      <trkpt lat="59.9520699" lon="17.4992074">
        <ele>30.8995</ele>
        <time>2013-05-05T11:44:02Z</time>
      </trkpt>
      <trkpt lat="59.9520943" lon="17.4991059">
        <ele>30.8995</ele>
        <time>2013-05-05T11:44:03Z</time>
      </trkpt>
      <trkpt lat="59.9521185" lon="17.4990029">
        <ele>30.8995</ele>
        <time>2013-05-05T11:44:04Z</time>
      </trkpt>
      <trkpt lat="59.9521429" lon="17.4989002">
        <ele>30.8995</ele>
        <time>2013-05-05T11:44:05Z</time>
      </trkpt>
      <trkpt lat="59.9521678" lon="17.4987978">
        <ele>30.8995</ele>
        <time>2013-05-05T11:44:06Z</time>
      </trkpt>
      <trkpt lat="59.9521931" lon="17.4986967">
        <ele>30.8995</ele>
        <time>2013-05-05T11:44:07Z</time>
      </trkpt>
      <trkpt lat="59.9522188" lon="17.498596">
        <ele>30.8995</ele>
        <time>2013-05-05T11:44:08Z</time>
      </trkpt>
      <trkpt lat="59.9522455" lon="17.4984951">
        <ele>30.8995</ele>
        <time>2013-05-05T11:44:09Z</time>
      </trkpt>
      <trkpt lat="59.9522718" lon="17.4983942">
        <ele>30.8995</ele>
        <time>2013-05-05T11:44:10Z</time>
      </trkpt>
      <trkpt lat="59.952297" lon="17.4982932">
        <ele>30.8995</ele>
        <time>2013-05-05T11:44:11Z</time>
      </trkpt>
      <trkpt lat="59.9523227" lon="17.4981914">
        <ele>30.8995</ele>
        <time>2013-05-05T11:44:12Z</time>
      </trkpt>
      <trkpt lat="59.9523491" lon="17.4980878">
        <ele>30.8995</ele>
        <time>2013-05-05T11:44:13Z</time>
      </trkpt>
      <trkpt lat="59.952376" lon="17.4979825">
        <ele>30.8995</ele>
        <time>2013-05-05T11:44:14Z</time>
      </trkpt>
      <trkpt lat="59.9524031" lon="17.4978767">
        <ele>30.8995</ele>
        <time>2013-05-05T11:44:15Z</time>
      </trkpt>
      <trkpt lat="59.9524314" lon="17.4977717">
        <ele>30.8995</ele>
        <time>2013-05-05T11:44:16Z</time>
      </trkpt>
      <trkpt lat="59.9524597" lon="17.4976659">
        <ele>30.8995</ele>
        <time>2013-05-05T11:44:17Z</time>
      </trkpt>
      <trkpt lat="59.9524866" lon="17.4975581">
        <ele>30.8995</ele>
        <time>2013-05-05T11:44:18Z</time>
      </trkpt>
      <trkpt lat="59.9525127" lon="17.4974486">
        <ele>31.3801</ele>
        <time>2013-05-05T11:44:19Z</time>
      </trkpt>
      <trkpt lat="59.9525396" lon="17.4973395">
        <ele>31.8607</ele>
        <time>2013-05-05T11:44:20Z</time>
      </trkpt>
      <trkpt lat="59.9525671" lon="17.4972302">
        <ele>31.8607</ele>
        <time>2013-05-05T11:44:21Z</time>
      </trkpt>
      <trkpt lat="59.9525947" lon="17.4971204">
        <ele>32.3416</ele>
        <time>2013-05-05T11:44:22Z</time>
      </trkpt>
      <trkpt lat="59.9526202" lon="17.4970074">
        <ele>32.3416</ele>
        <time>2013-05-05T11:44:23Z</time>
      </trkpt>
      <trkpt lat="59.9526456" lon="17.4968931">
        <ele>32.3416</ele>
        <time>2013-05-05T11:44:24Z</time>
      </trkpt>
      <trkpt lat="59.9526707" lon="17.4967781">
        <ele>32.3416</ele>
        <time>2013-05-05T11:44:25Z</time>
      </trkpt>
      <trkpt lat="59.9526945" lon="17.4966624">
        <ele>32.3416</ele>
        <time>2013-05-05T11:44:26Z</time>
      </trkpt>
      <trkpt lat="59.9527176" lon="17.4965479">
        <ele>32.8223</ele>
        <time>2013-05-05T11:44:27Z</time>
      </trkpt>
      <trkpt lat="59.9527399" lon="17.4964346">
        <ele>32.8223</ele>
        <time>2013-05-05T11:44:28Z</time>
      </trkpt>
      <trkpt lat="59.9527614" lon="17.4963221">
        <ele>32.8223</ele>
        <time>2013-05-05T11:44:29Z</time>
      </trkpt>
      <trkpt lat="59.9527823" lon="17.4962103">
        <ele>33.3029</ele>
        <time>2013-05-05T11:44:30Z</time>
      </trkpt>
      <trkpt lat="59.9528028" lon="17.4960999">
        <ele>33.3029</ele>
        <time>2013-05-05T11:44:31Z</time>
      </trkpt>
      <trkpt lat="59.9528222" lon="17.4959895">
        <ele>33.7834</ele>
        <time>2013-05-05T11:44:32Z</time>
      </trkpt>
      <trkpt lat="59.9528418" lon="17.4958808">
        <ele>34.2642</ele>
        <time>2013-05-05T11:44:33Z</time>
      </trkpt>
      <trkpt lat="59.952861" lon="17.4957729">
        <ele>34.2642</ele>
        <time>2013-05-05T11:44:34Z</time>
      </trkpt>
      <trkpt lat="59.9528801" lon="17.4956643">
        <ele>34.7449</ele>
        <time>2013-05-05T11:44:35Z</time>
      </trkpt>
      <trkpt lat="59.9528988" lon="17.4955537">
        <ele>34.7449</ele>
        <time>2013-05-05T11:44:36Z</time>
      </trkpt>
      <trkpt lat="59.952917" lon="17.4954421">
        <ele>35.2255</ele>
        <time>2013-05-05T11:44:37Z</time>
      </trkpt>
      <trkpt lat="59.9529351" lon="17.4953308">
        <ele>35.2255</ele>
        <time>2013-05-05T11:44:38Z</time>
      </trkpt>
      <trkpt lat="59.9529538" lon="17.4952213">
        <ele>35.2255</ele>
        <time>2013-05-05T11:44:39Z</time>
      </trkpt>
      <trkpt lat="59.9529719" lon="17.495113">
        <ele>35.7061</ele>
        <time>2013-05-05T11:44:40Z</time>
      </trkpt>
      <trkpt lat="59.9529891" lon="17.4950049">
        <ele>35.7061</ele>
        <time>2013-05-05T11:44:41Z</time>
      </trkpt>
      <trkpt lat="59.953006" lon="17.4948975">
        <ele>36.1868</ele>
        <time>2013-05-05T11:44:42Z</time>
      </trkpt>
      <trkpt lat="59.9530226" lon="17.4947909">
        <ele>36.1868</ele>
        <time>2013-05-05T11:44:43Z</time>
      </trkpt>
      <trkpt lat="59.9530392" lon="17.4946856">
        <ele>36.6675</ele>
        <time>2013-05-05T11:44:44Z</time>
      </trkpt>
      <trkpt lat="59.9530545" lon="17.4945807">
        <ele>37.1481</ele>
        <time>2013-05-05T11:44:45Z</time>
      </trkpt>
      <trkpt lat="59.9530692" lon="17.4944755">
        <ele>37.1481</ele>
        <time>2013-05-05T11:44:46Z</time>
      </trkpt>
      <trkpt lat="59.9530843" lon="17.4943708">
        <ele>37.1481</ele>
        <time>2013-05-05T11:44:47Z</time>
      </trkpt>
      <trkpt lat="59.9530983" lon="17.4942667">
        <ele>37.1481</ele>
        <time>2013-05-05T11:44:48Z</time>
      </trkpt>
      <trkpt lat="59.9531117" lon="17.4941637">
        <ele>37.6287</ele>
        <time>2013-05-05T11:44:49Z</time>
      </trkpt>
      <trkpt lat="59.9531236" lon="17.494061">
        <ele>37.6287</ele>
        <time>2013-05-05T11:44:50Z</time>
      </trkpt>
      <trkpt lat="59.9531335" lon="17.4939567">
        <ele>37.6287</ele>
        <time>2013-05-05T11:44:51Z</time>
      </trkpt>
      <trkpt lat="59.9531408" lon="17.4938517">
        <ele>36.6675</ele>
        <time>2013-05-05T11:44:52Z</time>
      </trkpt>
      <trkpt lat="59.9531478" lon="17.4937471">
        <ele>36.1868</ele>
        <time>2013-05-05T11:44:53Z</time>
      </trkpt>
      <trkpt lat="59.9531532" lon="17.4936442">
        <ele>35.7061</ele>
        <time>2013-05-05T11:44:54Z</time>
      </trkpt>
      <trkpt lat="59.9531573" lon="17.4935415">
        <ele>35.2255</ele>
        <time>2013-05-05T11:44:55Z</time>
      </trkpt>
      <trkpt lat="59.9531615" lon="17.4934368">
        <ele>34.7449</ele>
        <time>2013-05-05T11:44:56Z</time>
      </trkpt>
      <trkpt lat="59.9531646" lon="17.4933354">
        <ele>34.2642</ele>
        <time>2013-05-05T11:44:57Z</time>
      </trkpt>
      <trkpt lat="59.9531686" lon="17.4932301">
        <ele>33.7834</ele>
        <time>2013-05-05T11:44:58Z</time>
      </trkpt>
      <trkpt lat="59.9531702" lon="17.4931249">
        <ele>33.3029</ele>
        <time>2013-05-05T11:44:59Z</time>
      </trkpt>
      <trkpt lat="59.9531745" lon="17.4930183">
        <ele>32.8223</ele>
        <time>2013-05-05T11:45:00Z</time>
      </trkpt>
      <trkpt lat="59.9531776" lon="17.4929125">
        <ele>32.8223</ele>
        <time>2013-05-05T11:45:01Z</time>
      </trkpt>
      <trkpt lat="59.9531801" lon="17.4928071">
        <ele>32.8223</ele>
        <time>2013-05-05T11:45:02Z</time>
      </trkpt>
      <trkpt lat="59.9531828" lon="17.4927009">
        <ele>32.8223</ele>
        <time>2013-05-05T11:45:03Z</time>
      </trkpt>
      <trkpt lat="59.9531856" lon="17.4925951">
        <ele>32.8223</ele>
        <time>2013-05-05T11:45:04Z</time>
      </trkpt>
      <trkpt lat="59.9531897" lon="17.4924911">
        <ele>32.8223</ele>
        <time>2013-05-05T11:45:05Z</time>
      </trkpt>
      <trkpt lat="59.9531972" lon="17.4923868">
        <ele>32.8223</ele>
        <time>2013-05-05T11:45:06Z</time>
      </trkpt>
      <trkpt lat="59.9531967" lon="17.4922841">
        <ele>31.8607</ele>
        <time>2013-05-05T11:45:07Z</time>
      </trkpt>
      <trkpt lat="59.9531942" lon="17.4921795">
        <ele>31.8607</ele>
        <time>2013-05-05T11:45:08Z</time>
      </trkpt>
      <trkpt lat="59.9531951" lon="17.4920753">
        <ele>32.3416</ele>
        <time>2013-05-05T11:45:09Z</time>
      </trkpt>
      <trkpt lat="59.9531977" lon="17.4919735">
        <ele>32.3416</ele>
        <time>2013-05-05T11:45:10Z</time>
      </trkpt>
      <trkpt lat="59.9531993" lon="17.4918683">
        <ele>32.3416</ele>
        <time>2013-05-05T11:45:11Z</time>
      </trkpt>
      <trkpt lat="59.9532006" lon="17.4917638">
        <ele>32.3416</ele>
        <time>2013-05-05T11:45:12Z</time>
      </trkpt>
      <trkpt lat="59.9532044" lon="17.4916594">
        <ele>32.3416</ele>
        <time>2013-05-05T11:45:13Z</time>
      </trkpt>
      <trkpt lat="59.9532112" lon="17.4915549">
        <ele>32.3416</ele>
        <time>2013-05-05T11:45:14Z</time>
      </trkpt>
      <trkpt lat="59.9532187" lon="17.491448">
        <ele>32.3416</ele>
        <time>2013-05-05T11:45:15Z</time>
      </trkpt>
      <trkpt lat="59.9532245" lon="17.4913383">
        <ele>32.3416</ele>
        <time>2013-05-05T11:45:16Z</time>
      </trkpt>
      <trkpt lat="59.9532303" lon="17.4912278">
        <ele>32.3416</ele>
        <time>2013-05-05T11:45:17Z</time>
      </trkpt>
      <trkpt lat="59.9532379" lon="17.4911157">
        <ele>32.3416</ele>
        <time>2013-05-05T11:45:18Z</time>
      </trkpt>
      <trkpt lat="59.9532457" lon="17.4910038">
        <ele>32.3416</ele>
        <time>2013-05-05T11:45:19Z</time>
      </trkpt>
      <trkpt lat="59.9532527" lon="17.4908914">
        <ele>32.3416</ele>
        <time>2013-05-05T11:45:20Z</time>
      </trkpt>
      <trkpt lat="59.9532595" lon="17.4907796">
        <ele>32.3416</ele>
        <time>2013-05-05T11:45:21Z</time>
      </trkpt>
      <trkpt lat="59.9532651" lon="17.4906671">
        <ele>32.3416</ele>
        <time>2013-05-05T11:45:22Z</time>
      </trkpt>
      <trkpt lat="59.9532708" lon="17.4905525">
        <ele>32.3416</ele>
        <time>2013-05-05T11:45:23Z</time>
      </trkpt>
      <trkpt lat="59.9532769" lon="17.4904361">
        <ele>32.3416</ele>
        <time>2013-05-05T11:45:24Z</time>
      </trkpt>
      <trkpt lat="59.9532816" lon="17.4903203">
        <ele>32.3416</ele>
        <time>2013-05-05T11:45:25Z</time>
      </trkpt>
      <trkpt lat="59.9532876" lon="17.4902043">
        <ele>32.3416</ele>
        <time>2013-05-05T11:45:26Z</time>
      </trkpt>
      <trkpt lat="59.9532956" lon="17.4900882">
        <ele>32.3416</ele>
        <time>2013-05-05T11:45:27Z</time>
      </trkpt>
      <trkpt lat="59.9533037" lon="17.4899714">
        <ele>32.3416</ele>
        <time>2013-05-05T11:45:28Z</time>
      </trkpt>
      <trkpt lat="59.953312" lon="17.4898536">
        <ele>32.8223</ele>
        <time>2013-05-05T11:45:29Z</time>
      </trkpt>
      <trkpt lat="59.953321" lon="17.489735">
        <ele>32.8223</ele>
        <time>2013-05-05T11:45:30Z</time>
      </trkpt>
      <trkpt lat="59.9533317" lon="17.489616">
        <ele>32.8223</ele>
        <time>2013-05-05T11:45:31Z</time>
      </trkpt>
      <trkpt lat="59.9533453" lon="17.4894977">
        <ele>32.8223</ele>
        <time>2013-05-05T11:45:32Z</time>
      </trkpt>
      <trkpt lat="59.9533593" lon="17.4893801">
        <ele>32.8223</ele>
        <time>2013-05-05T11:45:33Z</time>
      </trkpt>
      <trkpt lat="59.9533754" lon="17.4892654">
        <ele>32.3416</ele>
        <time>2013-05-05T11:45:34Z</time>
      </trkpt>
      <trkpt lat="59.9533943" lon="17.4891508">
        <ele>32.3416</ele>
        <time>2013-05-05T11:45:35Z</time>
      </trkpt>
      <trkpt lat="59.9534151" lon="17.4890348">
        <ele>32.3416</ele>
        <time>2013-05-05T11:45:36Z</time>
      </trkpt>
      <trkpt lat="59.9534371" lon="17.4889201">
        <ele>32.3416</ele>
        <time>2013-05-05T11:45:37Z</time>
      </trkpt>
      <trkpt lat="59.9534624" lon="17.4888079">
        <ele>32.3416</ele>
        <time>2013-05-05T11:45:38Z</time>
      </trkpt>
      <trkpt lat="59.9534909" lon="17.4886986">
        <ele>32.3416</ele>
        <time>2013-05-05T11:45:39Z</time>
      </trkpt>
      <trkpt lat="59.9535209" lon="17.4885909">
        <ele>32.8223</ele>
        <time>2013-05-05T11:45:40Z</time>
      </trkpt>
      <trkpt lat="59.9535534" lon="17.4884815">
        <ele>32.8223</ele>
        <time>2013-05-05T11:45:41Z</time>
      </trkpt>
      <trkpt lat="59.9535863" lon="17.4883754">
        <ele>33.3029</ele>
        <time>2013-05-05T11:45:42Z</time>
      </trkpt>
      <trkpt lat="59.9536198" lon="17.4882702">
        <ele>33.3029</ele>
        <time>2013-05-05T11:45:43Z</time>
      </trkpt>
      <trkpt lat="59.9536537" lon="17.4881655">
        <ele>33.3029</ele>
        <time>2013-05-05T11:45:44Z</time>
      </trkpt>
      <trkpt lat="59.9536881" lon="17.488063">
        <ele>33.7834</ele>
        <time>2013-05-05T11:45:45Z</time>
      </trkpt>
      <trkpt lat="59.9537219" lon="17.4879616">
        <ele>33.7834</ele>
        <time>2013-05-05T11:45:46Z</time>
      </trkpt>
      <trkpt lat="59.9537554" lon="17.4878608">
        <ele>33.7834</ele>
        <time>2013-05-05T11:45:47Z</time>
      </trkpt>
      <trkpt lat="59.9537898" lon="17.4877585">
        <ele>33.7834</ele>
        <time>2013-05-05T11:45:48Z</time>
      </trkpt>
      <trkpt lat="59.953824" lon="17.4876554">
        <ele>33.7834</ele>
        <time>2013-05-05T11:45:49Z</time>
      </trkpt>
      <trkpt lat="59.9538571" lon="17.4875558">
        <ele>34.2642</ele>
        <time>2013-05-05T11:45:50Z</time>
      </trkpt>
      <trkpt lat="59.9538883" lon="17.48746">
        <ele>34.2642</ele>
        <time>2013-05-05T11:45:51Z</time>
      </trkpt>
      <trkpt lat="59.9539196" lon="17.4873627">
        <ele>34.7449</ele>
        <time>2013-05-05T11:45:52Z</time>
      </trkpt>
      <trkpt lat="59.9539508" lon="17.4872672">
        <ele>34.7449</ele>
        <time>2013-05-05T11:45:53Z</time>
      </trkpt>
      <trkpt lat="59.9539825" lon="17.4871731">
        <ele>35.2255</ele>
        <time>2013-05-05T11:45:54Z</time>
      </trkpt>
      <trkpt lat="59.9540136" lon="17.4870808">
        <ele>35.7061</ele>
        <time>2013-05-05T11:45:55Z</time>
      </trkpt>
      <trkpt lat="59.9540442" lon="17.4869869">
        <ele>35.7061</ele>
        <time>2013-05-05T11:45:56Z</time>
      </trkpt>
      <trkpt lat="59.9540753" lon="17.4868918">
        <ele>36.1868</ele>
        <time>2013-05-05T11:45:57Z</time>
      </trkpt>
      <trkpt lat="59.9541061" lon="17.4867997">
        <ele>35.7061</ele>
        <time>2013-05-05T11:45:58Z</time>
      </trkpt>
      <trkpt lat="59.9541365" lon="17.4867068">
        <ele>35.2255</ele>
        <time>2013-05-05T11:45:59Z</time>
      </trkpt>
      <trkpt lat="59.9541653" lon="17.4866148">
        <ele>35.2255</ele>
        <time>2013-05-05T11:46:00Z</time>
      </trkpt>
      <trkpt lat="59.954194" lon="17.4865239">
        <ele>35.2255</ele>
        <time>2013-05-05T11:46:01Z</time>
      </trkpt>
      <trkpt lat="59.9542242" lon="17.486436">
        <ele>35.2255</ele>
        <time>2013-05-05T11:46:02Z</time>
      </trkpt>
      <trkpt lat="59.954254" lon="17.4863484">
        <ele>35.2255</ele>
        <time>2013-05-05T11:46:03Z</time>
      </trkpt>
      <trkpt lat="59.9542815" lon="17.4862614">
        <ele>35.7061</ele>
        <time>2013-05-05T11:46:04Z</time>
      </trkpt>
      <trkpt lat="59.9543089" lon="17.4861778">
        <ele>35.7061</ele>
        <time>2013-05-05T11:46:05Z</time>
      </trkpt>
      <trkpt lat="59.9543385" lon="17.4860907">
        <ele>35.7061</ele>
        <time>2013-05-05T11:46:06Z</time>
      </trkpt>
      <trkpt lat="59.95437" lon="17.4860004">
        <ele>35.7061</ele>
        <time>2013-05-05T11:46:07Z</time>
      </trkpt>
      <trkpt lat="59.9544003" lon="17.4859115">
        <ele>35.7061</ele>
        <time>2013-05-05T11:46:08Z</time>
      </trkpt>
      <trkpt lat="59.9544311" lon="17.4858199">
        <ele>36.1868</ele>
        <time>2013-05-05T11:46:09Z</time>
      </trkpt>
      <trkpt lat="59.9544625" lon="17.4857268">
        <ele>36.1868</ele>
        <time>2013-05-05T11:46:10Z</time>
      </trkpt>
      <trkpt lat="59.9544938" lon="17.485634">
        <ele>36.1868</ele>
        <time>2013-05-05T11:46:11Z</time>
      </trkpt>
      <trkpt lat="59.9545264" lon="17.4855373">
        <ele>36.1868</ele>
        <time>2013-05-05T11:46:12Z</time>
      </trkpt>
      <trkpt lat="59.9545597" lon="17.4854429">
        <ele>36.1868</ele>
        <time>2013-05-05T11:46:13Z</time>
      </trkpt>
      <trkpt lat="59.9545931" lon="17.4853508">
        <ele>36.1868</ele>
        <time>2013-05-05T11:46:14Z</time>
      </trkpt>
      <trkpt lat="59.9546259" lon="17.4852595">
        <ele>35.7061</ele>
        <time>2013-05-05T11:46:15Z</time>
      </trkpt>
      <trkpt lat="59.9546574" lon="17.4851762">
        <ele>35.7061</ele>
        <time>2013-05-05T11:46:16Z</time>
      </trkpt>
      <trkpt lat="59.9546918" lon="17.485086">
        <ele>35.2255</ele>
        <time>2013-05-05T11:46:17Z</time>
      </trkpt>
      <trkpt lat="59.9547248" lon="17.484999">
        <ele>34.7449</ele>
        <time>2013-05-05T11:46:18Z</time>
      </trkpt>
      <trkpt lat="59.9547573" lon="17.4849074">
        <ele>34.2642</ele>
        <time>2013-05-05T11:46:19Z</time>
      </trkpt>
      <trkpt lat="59.9547884" lon="17.4848113">
        <ele>33.7834</ele>
        <time>2013-05-05T11:46:20Z</time>
      </trkpt>
      <trkpt lat="59.9548176" lon="17.4847161">
        <ele>33.7834</ele>
        <time>2013-05-05T11:46:21Z</time>
      </trkpt>
      <trkpt lat="59.9548451" lon="17.4846207">
        <ele>33.3029</ele>
        <time>2013-05-05T11:46:22Z</time>
      </trkpt>
      <trkpt lat="59.9548705" lon="17.4845234">
        <ele>33.3029</ele>
        <time>2013-05-05T11:46:23Z</time>
      </trkpt>
      <trkpt lat="59.9548948" lon="17.4844251">
        <ele>33.3029</ele>
        <time>2013-05-05T11:46:24Z</time>
      </trkpt>
      <trkpt lat="59.9549195" lon="17.4843271">
        <ele>32.8223</ele>
        <time>2013-05-05T11:46:25Z</time>
      </trkpt>
      <trkpt lat="59.9549434" lon="17.4842255">
        <ele>32.8223</ele>
        <time>2013-05-05T11:46:26Z</time>
      </trkpt>
      <trkpt lat="59.954966" lon="17.4841223">
        <ele>32.8223</ele>
        <time>2013-05-05T11:46:27Z</time>
      </trkpt>
      <trkpt lat="59.9549885" lon="17.4840206">
        <ele>32.3416</ele>
        <time>2013-05-05T11:46:28Z</time>
      </trkpt>
      <trkpt lat="59.9550105" lon="17.4839158">
        <ele>32.3416</ele>
        <time>2013-05-05T11:46:29Z</time>
      </trkpt>
      <trkpt lat="59.9550321" lon="17.4838065">
        <ele>31.8607</ele>
        <time>2013-05-05T11:46:30Z</time>
      </trkpt>
      <trkpt lat="59.9550522" lon="17.4836926">
        <ele>31.8607</ele>
        <time>2013-05-05T11:46:31Z</time>
      </trkpt>
      <trkpt lat="59.9550677" lon="17.4835693">
        <ele>32.3416</ele>
        <time>2013-05-05T11:46:32Z</time>
      </trkpt>
      <trkpt lat="59.9550831" lon="17.4834478">
        <ele>32.3416</ele>
        <time>2013-05-05T11:46:33Z</time>
      </trkpt>
      <trkpt lat="59.9550986" lon="17.4833274">
        <ele>32.3416</ele>
        <time>2013-05-05T11:46:34Z</time>
      </trkpt>
      <trkpt lat="59.9551124" lon="17.4832051">
        <ele>32.3416</ele>
        <time>2013-05-05T11:46:35Z</time>
      </trkpt>
      <trkpt lat="59.9551268" lon="17.4830819">
        <ele>32.8223</ele>
        <time>2013-05-05T11:46:36Z</time>
      </trkpt>
      <trkpt lat="59.9551408" lon="17.4829597">
        <ele>32.8223</ele>
        <time>2013-05-05T11:46:37Z</time>
      </trkpt>
      <trkpt lat="59.955154" lon="17.4828381">
        <ele>32.8223</ele>
        <time>2013-05-05T11:46:38Z</time>
      </trkpt>
      <trkpt lat="59.9551646" lon="17.4827086">
        <ele>33.3029</ele>
        <time>2013-05-05T11:46:39Z</time>
      </trkpt>
      <trkpt lat="59.9551784" lon="17.48258">
        <ele>34.2642</ele>
        <time>2013-05-05T11:46:40Z</time>
      </trkpt>
      <trkpt lat="59.9551905" lon="17.4824546">
        <ele>34.2642</ele>
        <time>2013-05-05T11:46:41Z</time>
      </trkpt>
      <trkpt lat="59.9552028" lon="17.4823184">
        <ele>35.7061</ele>
        <time>2013-05-05T11:46:42Z</time>
      </trkpt>
      <trkpt lat="59.9552185" lon="17.4821897">
        <ele>35.2255</ele>
        <time>2013-05-05T11:46:43Z</time>
      </trkpt>
      <trkpt lat="59.955235" lon="17.4820545">
        <ele>35.7061</ele>
        <time>2013-05-05T11:46:44Z</time>
      </trkpt>
      <trkpt lat="59.9552552" lon="17.4819117">
        <ele>35.7061</ele>
        <time>2013-05-05T11:46:45Z</time>
      </trkpt>
      <trkpt lat="59.9552727" lon="17.4817733">
        <ele>34.7449</ele>
        <time>2013-05-05T11:46:46Z</time>
      </trkpt>
      <trkpt lat="59.955297" lon="17.4816402">
        <ele>34.7449</ele>
        <time>2013-05-05T11:46:47Z</time>
      </trkpt>
      <trkpt lat="59.9553185" lon="17.481512">
        <ele>35.7061</ele>
        <time>2013-05-05T11:46:48Z</time>
      </trkpt>
      <trkpt lat="59.955335" lon="17.4813817">
        <ele>35.7061</ele>
        <time>2013-05-05T11:46:49Z</time>
      </trkpt>
      <trkpt lat="59.955347" lon="17.4812491">
        <ele>34.7449</ele>
        <time>2013-05-05T11:46:50Z</time>
      </trkpt>
      <trkpt lat="59.955362" lon="17.4811246">
        <ele>34.7449</ele>
        <time>2013-05-05T11:46:51Z</time>
      </trkpt>
      <trkpt lat="59.9553774" lon="17.4809987">
        <ele>35.2255</ele>
        <time>2013-05-05T11:46:52Z</time>
      </trkpt>
      <trkpt lat="59.9553915" lon="17.4808756">
        <ele>35.2255</ele>
        <time>2013-05-05T11:46:53Z</time>
      </trkpt>
      <trkpt lat="59.9554049" lon="17.4807618">
        <ele>35.2255</ele>
        <time>2013-05-05T11:46:54Z</time>
      </trkpt>
      <trkpt lat="59.9554162" lon="17.4806477">
        <ele>35.2255</ele>
        <time>2013-05-05T11:46:55Z</time>
      </trkpt>
      <trkpt lat="59.9554252" lon="17.4805361">
        <ele>35.2255</ele>
        <time>2013-05-05T11:46:56Z</time>
      </trkpt>
      <trkpt lat="59.9554328" lon="17.4804327">
        <ele>35.2255</ele>
        <time>2013-05-05T11:46:57Z</time>
      </trkpt>
      <trkpt lat="59.9554422" lon="17.4803224">
        <ele>35.2255</ele>
        <time>2013-05-05T11:46:58Z</time>
      </trkpt>
      <trkpt lat="59.9554534" lon="17.4802227">
        <ele>35.7061</ele>
        <time>2013-05-05T11:46:59Z</time>
      </trkpt>
      <trkpt lat="59.9554683" lon="17.4801184">
        <ele>36.6675</ele>
        <time>2013-05-05T11:47:00Z</time>
      </trkpt>
      <trkpt lat="59.9554837" lon="17.4800023">
        <ele>36.1868</ele>
        <time>2013-05-05T11:47:01Z</time>
      </trkpt>
      <trkpt lat="59.9555008" lon="17.4798835">
        <ele>36.1868</ele>
        <time>2013-05-05T11:47:02Z</time>
      </trkpt>
      <trkpt lat="59.9555173" lon="17.4797515">
        <ele>35.2255</ele>
        <time>2013-05-05T11:47:03Z</time>
      </trkpt>
      <trkpt lat="59.9555291" lon="17.4796174">
        <ele>34.7449</ele>
        <time>2013-05-05T11:47:04Z</time>
      </trkpt>
      <trkpt lat="59.9555402" lon="17.4794868">
        <ele>34.7449</ele>
        <time>2013-05-05T11:47:05Z</time>
      </trkpt>
      <trkpt lat="59.955551" lon="17.4793552">
        <ele>35.2255</ele>
        <time>2013-05-05T11:47:06Z</time>
      </trkpt>
      <trkpt lat="59.9555601" lon="17.4792216">
        <ele>35.2255</ele>
        <time>2013-05-05T11:47:07Z</time>
      </trkpt>
      <trkpt lat="59.9555697" lon="17.4790935">
        <ele>35.7061</ele>
        <time>2013-05-05T11:47:08Z</time>
      </trkpt>
      <trkpt lat="59.9555822" lon="17.4789684">
        <ele>36.1868</ele>
        <time>2013-05-05T11:47:09Z</time>
      </trkpt>
      <trkpt lat="59.9555954" lon="17.478845">
        <ele>36.1868</ele>
        <time>2013-05-05T11:47:10Z</time>
      </trkpt>
      <trkpt lat="59.955608" lon="17.4787226">
        <ele>37.1481</ele>
        <time>2013-05-05T11:47:11Z</time>
      </trkpt>
      <trkpt lat="59.9556204" lon="17.478603">
        <ele>37.6287</ele>
        <time>2013-05-05T11:47:12Z</time>
      </trkpt>
      <trkpt lat="59.9556355" lon="17.4784875">
        <ele>38.1094</ele>
        <time>2013-05-05T11:47:13Z</time>
      </trkpt>
      <trkpt lat="59.9556508" lon="17.4783758">
        <ele>38.5901</ele>
        <time>2013-05-05T11:47:14Z</time>
      </trkpt>
      <trkpt lat="59.9556637" lon="17.4782612">
        <ele>39.0707</ele>
        <time>2013-05-05T11:47:15Z</time>
      </trkpt>
      <trkpt lat="59.955676" lon="17.4781465">
        <ele>39.5513</ele>
        <time>2013-05-05T11:47:16Z</time>
      </trkpt>
      <trkpt lat="59.9556899" lon="17.478038">
        <ele>39.0707</ele>
        <time>2013-05-05T11:47:17Z</time>
      </trkpt>
      <trkpt lat="59.9557053" lon="17.4779244">
        <ele>39.0707</ele>
        <time>2013-05-05T11:47:18Z</time>
      </trkpt>
      <trkpt lat="59.955722" lon="17.4778059">
        <ele>38.5901</ele>
        <time>2013-05-05T11:47:19Z</time>
      </trkpt>
      <trkpt lat="59.9557412" lon="17.4776879">
        <ele>38.5901</ele>
        <time>2013-05-05T11:47:20Z</time>
      </trkpt>
      <trkpt lat="59.9557635" lon="17.4775671">
        <ele>37.6287</ele>
        <time>2013-05-05T11:47:21Z</time>
      </trkpt>
      <trkpt lat="59.9557865" lon="17.4774495">
        <ele>36.6675</ele>
        <time>2013-05-05T11:47:22Z</time>
      </trkpt>
      <trkpt lat="59.9558081" lon="17.4773289">
        <ele>35.7061</ele>
        <time>2013-05-05T11:47:23Z</time>
      </trkpt>
      <trkpt lat="59.9558343" lon="17.4772157">
        <ele>35.2255</ele>
        <time>2013-05-05T11:47:24Z</time>
      </trkpt>
      <trkpt lat="59.9558633" lon="17.477104">
        <ele>34.2642</ele>
        <time>2013-05-05T11:47:25Z</time>
      </trkpt>
      <trkpt lat="59.9558898" lon="17.4769889">
        <ele>32.8223</ele>
        <time>2013-05-05T11:47:26Z</time>
      </trkpt>
      <trkpt lat="59.9559148" lon="17.4768645">
        <ele>31.3801</ele>
        <time>2013-05-05T11:47:27Z</time>
      </trkpt>
      <trkpt lat="59.9559406" lon="17.4767394">
        <ele>30.8995</ele>
        <time>2013-05-05T11:47:28Z</time>
      </trkpt>
      <trkpt lat="59.9559671" lon="17.4766109">
        <ele>30.4188</ele>
        <time>2013-05-05T11:47:29Z</time>
      </trkpt>
      <trkpt lat="59.9559951" lon="17.4764833">
        <ele>28.9769</ele>
        <time>2013-05-05T11:47:30Z</time>
      </trkpt>
      <trkpt lat="59.9560229" lon="17.476363">
        <ele>28.4962</ele>
        <time>2013-05-05T11:47:31Z</time>
      </trkpt>
      <trkpt lat="59.956051" lon="17.4762456">
        <ele>27.5349</ele>
        <time>2013-05-05T11:47:32Z</time>
      </trkpt>
      <trkpt lat="59.9560835" lon="17.4761327">
        <ele>27.0543</ele>
        <time>2013-05-05T11:47:33Z</time>
      </trkpt>
      <trkpt lat="59.9561201" lon="17.4760167">
        <ele>26.0929</ele>
        <time>2013-05-05T11:47:34Z</time>
      </trkpt>
      <trkpt lat="59.9561582" lon="17.4759048">
        <ele>25.1317</ele>
        <time>2013-05-05T11:47:35Z</time>
      </trkpt>
      <trkpt lat="59.9561865" lon="17.4757851">
        <ele>25.6123</ele>
        <time>2013-05-05T11:47:36Z</time>
      </trkpt>
      <trkpt lat="59.9562004" lon="17.4756121">
        <ele>26.0929</ele>
        <time>2013-05-05T11:47:37Z</time>
      </trkpt>
      <trkpt lat="59.9562115" lon="17.4754562">
        <ele>26.5736</ele>
        <time>2013-05-05T11:47:38Z</time>
      </trkpt>
      <trkpt lat="59.9562285" lon="17.4753029">
        <ele>26.5736</ele>
        <time>2013-05-05T11:47:39Z</time>
      </trkpt>
      <trkpt lat="59.9562481" lon="17.4751687">
        <ele>26.0929</ele>
        <time>2013-05-05T11:47:40Z</time>
      </trkpt>
      <trkpt lat="59.956274" lon="17.4750444">
        <ele>25.1317</ele>
        <time>2013-05-05T11:47:41Z</time>
      </trkpt>
      <trkpt lat="59.9562944" lon="17.4749273">
        <ele>25.1317</ele>
        <time>2013-05-05T11:47:42Z</time>
      </trkpt>
      <trkpt lat="59.956319" lon="17.4748377">
        <ele>25.1317</ele>
        <time>2013-05-05T11:47:43Z</time>
      </trkpt>
      <trkpt lat="59.9563493" lon="17.4747247">
        <ele>24.1703</ele>
        <time>2013-05-05T11:47:44Z</time>
      </trkpt>
      <trkpt lat="59.9563825" lon="17.4746104">
        <ele>23.209</ele>
        <time>2013-05-05T11:47:45Z</time>
      </trkpt>
      <trkpt lat="59.9564143" lon="17.4745011">
        <ele>22.2476</ele>
        <time>2013-05-05T11:47:46Z</time>
      </trkpt>
      <trkpt lat="59.9564456" lon="17.4743781">
        <ele>22.2476</ele>
        <time>2013-05-05T11:47:47Z</time>
      </trkpt>
      <trkpt lat="59.9564902" lon="17.4742723">
        <ele>22.7283</ele>
        <time>2013-05-05T11:47:48Z</time>
      </trkpt>
      <trkpt lat="59.9565285" lon="17.4741781">
        <ele>23.209</ele>
        <time>2013-05-05T11:47:49Z</time>
      </trkpt>
      <trkpt lat="59.9565693" lon="17.4740887">
        <ele>22.7283</ele>
        <time>2013-05-05T11:47:50Z</time>
      </trkpt>
      <trkpt lat="59.9566155" lon="17.474012">
        <ele>22.7283</ele>
        <time>2013-05-05T11:47:51Z</time>
      </trkpt>
      <trkpt lat="59.9566651" lon="17.4739322">
        <ele>22.7283</ele>
        <time>2013-05-05T11:47:52Z</time>
      </trkpt>
      <trkpt lat="59.9567113" lon="17.4738624">
        <ele>24.1703</ele>
        <time>2013-05-05T11:47:53Z</time>
      </trkpt>
      <trkpt lat="59.9567604" lon="17.4737908">
        <ele>24.651</ele>
        <time>2013-05-05T11:47:54Z</time>
      </trkpt>
      <trkpt lat="59.9568106" lon="17.4737267">
        <ele>25.1317</ele>
        <time>2013-05-05T11:47:55Z</time>
      </trkpt>
      <trkpt lat="59.956863" lon="17.4736647">
        <ele>25.6123</ele>
        <time>2013-05-05T11:47:56Z</time>
      </trkpt>
      <trkpt lat="59.956917" lon="17.4735915">
        <ele>25.1317</ele>
        <time>2013-05-05T11:47:57Z</time>
      </trkpt>
      <trkpt lat="59.9569703" lon="17.4735259">
        <ele>25.6123</ele>
        <time>2013-05-05T11:47:58Z</time>
      </trkpt>
      <trkpt lat="59.9570257" lon="17.4734635">
        <ele>25.1317</ele>
        <time>2013-05-05T11:47:59Z</time>
      </trkpt>
      <trkpt lat="59.9570798" lon="17.4734088">
        <ele>25.1317</ele>
        <time>2013-05-05T11:48:00Z</time>
      </trkpt>
      <trkpt lat="59.9571382" lon="17.4733575">
        <ele>25.6123</ele>
        <time>2013-05-05T11:48:01Z</time>
      </trkpt>
      <trkpt lat="59.9571988" lon="17.4733068">
        <ele>26.0929</ele>
        <time>2013-05-05T11:48:02Z</time>
      </trkpt>
      <trkpt lat="59.9572573" lon="17.4732546">
        <ele>26.0929</ele>
        <time>2013-05-05T11:48:03Z</time>
      </trkpt>
      <trkpt lat="59.9573163" lon="17.4731936">
        <ele>26.0929</ele>
        <time>2013-05-05T11:48:04Z</time>
      </trkpt>
      <trkpt lat="59.9573764" lon="17.4731351">
        <ele>27.0543</ele>
        <time>2013-05-05T11:48:05Z</time>
      </trkpt>
      <trkpt lat="59.9574374" lon="17.4730765">
        <ele>27.0543</ele>
        <time>2013-05-05T11:48:06Z</time>
      </trkpt>
      <trkpt lat="59.9574972" lon="17.473021">
        <ele>27.0543</ele>
        <time>2013-05-05T11:48:07Z</time>
      </trkpt>
      <trkpt lat="59.9575567" lon="17.4729698">
        <ele>27.0543</ele>
        <time>2013-05-05T11:48:08Z</time>
      </trkpt>
      <trkpt lat="59.9576127" lon="17.472918">
        <ele>27.5349</ele>
        <time>2013-05-05T11:48:09Z</time>
      </trkpt>
      <trkpt lat="59.95767" lon="17.472858">
        <ele>27.5349</ele>
        <time>2013-05-05T11:48:10Z</time>
      </trkpt>
      <trkpt lat="59.9577272" lon="17.4728004">
        <ele>27.5349</ele>
        <time>2013-05-05T11:48:11Z</time>
      </trkpt>
      <trkpt lat="59.9577858" lon="17.4727445">
        <ele>27.5349</ele>
        <time>2013-05-05T11:48:12Z</time>
      </trkpt>
      <trkpt lat="59.9578425" lon="17.4726886">
        <ele>27.5349</ele>
        <time>2013-05-05T11:48:13Z</time>
      </trkpt>
      <trkpt lat="59.9579" lon="17.4726323">
        <ele>28.0155</ele>
        <time>2013-05-05T11:48:14Z</time>
      </trkpt>
      <trkpt lat="59.9579567" lon="17.4725734">
        <ele>28.0155</ele>
        <time>2013-05-05T11:48:15Z</time>
      </trkpt>
      <trkpt lat="59.9580134" lon="17.4725106">
        <ele>28.0155</ele>
        <time>2013-05-05T11:48:16Z</time>
      </trkpt>
      <trkpt lat="59.9580695" lon="17.4724486">
        <ele>28.0155</ele>
        <time>2013-05-05T11:48:17Z</time>
      </trkpt>
      <trkpt lat="59.9581259" lon="17.472388">
        <ele>28.0155</ele>
        <time>2013-05-05T11:48:18Z</time>
      </trkpt>
      <trkpt lat="59.9581839" lon="17.4723289">
        <ele>28.0155</ele>
        <time>2013-05-05T11:48:19Z</time>
      </trkpt>
      <trkpt lat="59.9582409" lon="17.4722713">
        <ele>28.0155</ele>
        <time>2013-05-05T11:48:20Z</time>
      </trkpt>
      <trkpt lat="59.9582978" lon="17.4722114">
        <ele>28.0155</ele>
        <time>2013-05-05T11:48:21Z</time>
      </trkpt>
      <trkpt lat="59.9583546" lon="17.472156">
        <ele>28.0155</ele>
        <time>2013-05-05T11:48:22Z</time>
      </trkpt>
      <trkpt lat="59.9584145" lon="17.472096">
        <ele>28.4962</ele>
        <time>2013-05-05T11:48:23Z</time>
      </trkpt>
      <trkpt lat="59.9584767" lon="17.4720348">
        <ele>28.9769</ele>
        <time>2013-05-05T11:48:24Z</time>
      </trkpt>
      <trkpt lat="59.9585344" lon="17.4719753">
        <ele>29.4575</ele>
        <time>2013-05-05T11:48:25Z</time>
      </trkpt>
      <trkpt lat="59.9585953" lon="17.471912">
        <ele>29.4575</ele>
        <time>2013-05-05T11:48:26Z</time>
      </trkpt>
      <trkpt lat="59.9586553" lon="17.4718484">
        <ele>29.4575</ele>
        <time>2013-05-05T11:48:27Z</time>
      </trkpt>
      <trkpt lat="59.9587105" lon="17.4717975">
        <ele>30.4188</ele>
        <time>2013-05-05T11:48:28Z</time>
      </trkpt>
      <trkpt lat="59.9587651" lon="17.4717415">
        <ele>30.8995</ele>
        <time>2013-05-05T11:48:29Z</time>
      </trkpt>
      <trkpt lat="59.958818" lon="17.4716939">
        <ele>31.8607</ele>
        <time>2013-05-05T11:48:30Z</time>
      </trkpt>
      <trkpt lat="59.958876" lon="17.4716343">
        <ele>32.3416</ele>
        <time>2013-05-05T11:48:31Z</time>
      </trkpt>
      <trkpt lat="59.958936" lon="17.4715764">
        <ele>33.3029</ele>
        <time>2013-05-05T11:48:32Z</time>
      </trkpt>
      <trkpt lat="59.9589948" lon="17.4715245">
        <ele>34.2642</ele>
        <time>2013-05-05T11:48:33Z</time>
      </trkpt>
      <trkpt lat="59.9590527" lon="17.4714707">
        <ele>34.2642</ele>
        <time>2013-05-05T11:48:34Z</time>
      </trkpt>
      <trkpt lat="59.9591108" lon="17.4714218">
        <ele>34.7449</ele>
        <time>2013-05-05T11:48:35Z</time>
      </trkpt>
      <trkpt lat="59.959172" lon="17.4713695">
        <ele>35.2255</ele>
        <time>2013-05-05T11:48:36Z</time>
      </trkpt>
      <trkpt lat="59.9592275" lon="17.4713202">
        <ele>35.7061</ele>
        <time>2013-05-05T11:48:37Z</time>
      </trkpt>
      <trkpt lat="59.9592865" lon="17.4712691">
        <ele>36.1868</ele>
        <time>2013-05-05T11:48:38Z</time>
      </trkpt>
      <trkpt lat="59.9593464" lon="17.4712168">
        <ele>36.6675</ele>
        <time>2013-05-05T11:48:39Z</time>
      </trkpt>
      <trkpt lat="59.959402" lon="17.4711733">
        <ele>36.6675</ele>
        <time>2013-05-05T11:48:40Z</time>
      </trkpt>
      <trkpt lat="59.959464" lon="17.4711282">
        <ele>37.6287</ele>
        <time>2013-05-05T11:48:41Z</time>
      </trkpt>
      <trkpt lat="59.959522" lon="17.4710886">
        <ele>37.6287</ele>
        <time>2013-05-05T11:48:42Z</time>
      </trkpt>
      <trkpt lat="59.9595815" lon="17.4710479">
        <ele>36.6675</ele>
        <time>2013-05-05T11:48:43Z</time>
      </trkpt>
      <trkpt lat="59.9596421" lon="17.471007">
        <ele>36.6675</ele>
        <time>2013-05-05T11:48:44Z</time>
      </trkpt>
      <trkpt lat="59.9597009" lon="17.4709641">
        <ele>36.6675</ele>
        <time>2013-05-05T11:48:45Z</time>
      </trkpt>
      <trkpt lat="59.9597599" lon="17.470921">
        <ele>36.6675</ele>
        <time>2013-05-05T11:48:46Z</time>
      </trkpt>
      <trkpt lat="59.9598194" lon="17.4708817">
        <ele>36.6675</ele>
        <time>2013-05-05T11:48:47Z</time>
      </trkpt>
      <trkpt lat="59.9598816" lon="17.4708407">
        <ele>36.6675</ele>
        <time>2013-05-05T11:48:48Z</time>
      </trkpt>
      <trkpt lat="59.9599438" lon="17.470802">
        <ele>36.6675</ele>
        <time>2013-05-05T11:48:49Z</time>
      </trkpt>
      <trkpt lat="59.9600062" lon="17.47076">
        <ele>36.6675</ele>
        <time>2013-05-05T11:48:50Z</time>
      </trkpt>
      <trkpt lat="59.9600686" lon="17.4707169">
        <ele>36.6675</ele>
        <time>2013-05-05T11:48:51Z</time>
      </trkpt>
      <trkpt lat="59.9601291" lon="17.4706787">
        <ele>36.6675</ele>
        <time>2013-05-05T11:48:52Z</time>
      </trkpt>
      <trkpt lat="59.9601857" lon="17.4706429">
        <ele>36.1868</ele>
        <time>2013-05-05T11:48:53Z</time>
      </trkpt>
      <trkpt lat="59.9602455" lon="17.4706004">
        <ele>35.7061</ele>
        <time>2013-05-05T11:48:54Z</time>
      </trkpt>
      <trkpt lat="59.9603053" lon="17.4705599">
        <ele>35.7061</ele>
        <time>2013-05-05T11:48:55Z</time>
      </trkpt>
      <trkpt lat="59.960367" lon="17.4705201">
        <ele>35.2255</ele>
        <time>2013-05-05T11:48:56Z</time>
      </trkpt>
      <trkpt lat="59.9604363" lon="17.470471">
        <ele>35.2255</ele>
        <time>2013-05-05T11:48:57Z</time>
      </trkpt>
      <trkpt lat="59.9605078" lon="17.4704187">
        <ele>35.2255</ele>
        <time>2013-05-05T11:48:58Z</time>
      </trkpt>
      <trkpt lat="59.960576" lon="17.4703755">
        <ele>35.2255</ele>
        <time>2013-05-05T11:48:59Z</time>
      </trkpt>
      <trkpt lat="59.9606368" lon="17.4703472">
        <ele>36.1868</ele>
        <time>2013-05-05T11:49:00Z</time>
      </trkpt>
      <trkpt lat="59.9606975" lon="17.4703086">
        <ele>36.1868</ele>
        <time>2013-05-05T11:49:01Z</time>
      </trkpt>
      <trkpt lat="59.9607587" lon="17.4702676">
        <ele>36.1868</ele>
        <time>2013-05-05T11:49:02Z</time>
      </trkpt>
      <trkpt lat="59.9608218" lon="17.4702238">
        <ele>36.1868</ele>
        <time>2013-05-05T11:49:03Z</time>
      </trkpt>
      <trkpt lat="59.9608824" lon="17.4701814">
        <ele>35.7061</ele>
        <time>2013-05-05T11:49:04Z</time>
      </trkpt>
      <trkpt lat="59.9609419" lon="17.4701417">
        <ele>35.7061</ele>
        <time>2013-05-05T11:49:05Z</time>
      </trkpt>
      <trkpt lat="59.961004" lon="17.4701067">
        <ele>36.1868</ele>
        <time>2013-05-05T11:49:06Z</time>
      </trkpt>
      <trkpt lat="59.9610673" lon="17.4700638">
        <ele>35.7061</ele>
        <time>2013-05-05T11:49:07Z</time>
      </trkpt>
      <trkpt lat="59.96113" lon="17.4700175">
        <ele>35.2255</ele>
        <time>2013-05-05T11:49:08Z</time>
      </trkpt>
      <trkpt lat="59.9611923" lon="17.4699715">
        <ele>34.7449</ele>
        <time>2013-05-05T11:49:09Z</time>
      </trkpt>
      <trkpt lat="59.9612543" lon="17.4699306">
        <ele>34.2642</ele>
        <time>2013-05-05T11:49:10Z</time>
      </trkpt>
      <trkpt lat="59.9613191" lon="17.4698487">
        <ele>34.2642</ele>
        <time>2013-05-05T11:49:11Z</time>
      </trkpt>
      <trkpt lat="59.9614081" lon="17.469776">
        <ele>35.2255</ele>
        <time>2013-05-05T11:49:12Z</time>
      </trkpt>
      <trkpt lat="59.9614584" lon="17.4697389">
        <ele>35.2255</ele>
        <time>2013-05-05T11:49:13Z</time>
      </trkpt>
      <trkpt lat="59.9615193" lon="17.4696892">
        <ele>35.2255</ele>
        <time>2013-05-05T11:49:14Z</time>
      </trkpt>
      <trkpt lat="59.9615857" lon="17.4696509">
        <ele>36.1868</ele>
        <time>2013-05-05T11:49:15Z</time>
      </trkpt>
      <trkpt lat="59.9616483" lon="17.4696134">
        <ele>36.1868</ele>
        <time>2013-05-05T11:49:16Z</time>
      </trkpt>
      <trkpt lat="59.9617061" lon="17.4695807">
        <ele>36.6675</ele>
        <time>2013-05-05T11:49:17Z</time>
      </trkpt>
      <trkpt lat="59.9617677" lon="17.4695509">
        <ele>37.1481</ele>
        <time>2013-05-05T11:49:18Z</time>
      </trkpt>
      <trkpt lat="59.9618257" lon="17.4695305">
        <ele>37.1481</ele>
        <time>2013-05-05T11:49:19Z</time>
      </trkpt>
      <trkpt lat="59.9618863" lon="17.4695058">
        <ele>37.1481</ele>
        <time>2013-05-05T11:49:20Z</time>
      </trkpt>
      <trkpt lat="59.9619416" lon="17.4694699">
        <ele>37.6287</ele>
        <time>2013-05-05T11:49:21Z</time>
      </trkpt>
      <trkpt lat="59.9619971" lon="17.4694316">
        <ele>38.5901</ele>
        <time>2013-05-05T11:49:22Z</time>
      </trkpt>
      <trkpt lat="59.9620552" lon="17.4693994">
        <ele>39.0707</ele>
        <time>2013-05-05T11:49:23Z</time>
      </trkpt>
      <trkpt lat="59.9621146" lon="17.4693669">
        <ele>40.0321</ele>
        <time>2013-05-05T11:49:24Z</time>
      </trkpt>
      <trkpt lat="59.9621676" lon="17.4693424">
        <ele>40.5128</ele>
        <time>2013-05-05T11:49:25Z</time>
      </trkpt>
      <trkpt lat="59.9622218" lon="17.4693117">
        <ele>40.5128</ele>
        <time>2013-05-05T11:49:26Z</time>
      </trkpt>
      <trkpt lat="59.962279" lon="17.469284">
        <ele>40.9934</ele>
        <time>2013-05-05T11:49:27Z</time>
      </trkpt>
      <trkpt lat="59.9623406" lon="17.469239">
        <ele>40.9934</ele>
        <time>2013-05-05T11:49:28Z</time>
      </trkpt>
      <trkpt lat="59.9624003" lon="17.4692043">
        <ele>40.9934</ele>
        <time>2013-05-05T11:49:29Z</time>
      </trkpt>
      <trkpt lat="59.9624612" lon="17.4691645">
        <ele>40.9934</ele>
        <time>2013-05-05T11:49:30Z</time>
      </trkpt>
      <trkpt lat="59.9625208" lon="17.4691169">
        <ele>40.0321</ele>
        <time>2013-05-05T11:49:31Z</time>
      </trkpt>
      <trkpt lat="59.9625762" lon="17.4690865">
        <ele>40.0321</ele>
        <time>2013-05-05T11:49:32Z</time>
      </trkpt>
      <trkpt lat="59.9626404" lon="17.4690503">
        <ele>40.5128</ele>
        <time>2013-05-05T11:49:33Z</time>
      </trkpt>
      <trkpt lat="59.9627021" lon="17.4690136">
        <ele>40.0321</ele>
        <time>2013-05-05T11:49:34Z</time>
      </trkpt>
      <trkpt lat="59.9627582" lon="17.4689846">
        <ele>40.9934</ele>
        <time>2013-05-05T11:49:35Z</time>
      </trkpt>
      <trkpt lat="59.9628209" lon="17.4689458">
        <ele>41.474</ele>
        <time>2013-05-05T11:49:36Z</time>
      </trkpt>
      <trkpt lat="59.9628813" lon="17.4688966">
        <ele>41.474</ele>
        <time>2013-05-05T11:49:37Z</time>
      </trkpt>
      <trkpt lat="59.9629409" lon="17.4688568">
        <ele>41.9547</ele>
        <time>2013-05-05T11:49:38Z</time>
      </trkpt>
      <trkpt lat="59.9630009" lon="17.4688122">
        <ele>41.9547</ele>
        <time>2013-05-05T11:49:39Z</time>
      </trkpt>
      <trkpt lat="59.9630623" lon="17.46877">
        <ele>42.4354</ele>
        <time>2013-05-05T11:49:40Z</time>
      </trkpt>
      <trkpt lat="59.9631211" lon="17.4686962">
        <ele>43.3966</ele>
        <time>2013-05-05T11:49:41Z</time>
      </trkpt>
      <trkpt lat="59.9631878" lon="17.468633">
        <ele>43.3966</ele>
        <time>2013-05-05T11:49:42Z</time>
      </trkpt>
      <trkpt lat="59.9632487" lon="17.4685885">
        <ele>43.8773</ele>
        <time>2013-05-05T11:49:43Z</time>
      </trkpt>
      <trkpt lat="59.9633093" lon="17.4685541">
        <ele>44.358</ele>
        <time>2013-05-05T11:49:44Z</time>
      </trkpt>
      <trkpt lat="59.9633756" lon="17.4685119">
        <ele>44.8386</ele>
        <time>2013-05-05T11:49:45Z</time>
      </trkpt>
      <trkpt lat="59.9634413" lon="17.4684754">
        <ele>44.8386</ele>
        <time>2013-05-05T11:49:46Z</time>
      </trkpt>
      <trkpt lat="59.9635056" lon="17.4684403">
        <ele>45.3192</ele>
        <time>2013-05-05T11:49:47Z</time>
      </trkpt>
      <trkpt lat="59.9635693" lon="17.4684076">
        <ele>45.3192</ele>
        <time>2013-05-05T11:49:48Z</time>
      </trkpt>
      <trkpt lat="59.9636385" lon="17.4683645">
        <ele>45.7999</ele>
        <time>2013-05-05T11:49:49Z</time>
      </trkpt>
      <trkpt lat="59.9637043" lon="17.4683227">
        <ele>45.7999</ele>
        <time>2013-05-05T11:49:50Z</time>
      </trkpt>
      <trkpt lat="59.9637782" lon="17.4682787">
        <ele>44.8386</ele>
        <time>2013-05-05T11:49:51Z</time>
      </trkpt>
      <trkpt lat="59.9638509" lon="17.468246">
        <ele>44.358</ele>
        <time>2013-05-05T11:49:52Z</time>
      </trkpt>
      <trkpt lat="59.9639284" lon="17.4682109">
        <ele>43.8773</ele>
        <time>2013-05-05T11:49:53Z</time>
      </trkpt>
      <trkpt lat="59.9640059" lon="17.4681854">
        <ele>43.8773</ele>
        <time>2013-05-05T11:49:54Z</time>
      </trkpt>
      <trkpt lat="59.9640755" lon="17.46819">
        <ele>43.8773</ele>
        <time>2013-05-05T11:49:55Z</time>
      </trkpt>
      <trkpt lat="59.9641465" lon="17.4682">
        <ele>43.8773</ele>
        <time>2013-05-05T11:49:56Z</time>
      </trkpt>
      <trkpt lat="59.9642157" lon="17.4682086">
        <ele>42.916</ele>
        <time>2013-05-05T11:49:57Z</time>
      </trkpt>
      <trkpt lat="59.9642961" lon="17.4682056">
        <ele>41.474</ele>
        <time>2013-05-05T11:49:58Z</time>
      </trkpt>
      <trkpt lat="59.9643772" lon="17.4682114">
        <ele>40.5128</ele>
        <time>2013-05-05T11:49:59Z</time>
      </trkpt>
      <trkpt lat="59.9644365" lon="17.4682522">
        <ele>40.5128</ele>
        <time>2013-05-05T11:50:00Z</time>
      </trkpt>
      <trkpt lat="59.964507" lon="17.4682476">
        <ele>40.0321</ele>
        <time>2013-05-05T11:50:01Z</time>
      </trkpt>
      <trkpt lat="59.9645752" lon="17.468275">
        <ele>39.5513</ele>
        <time>2013-05-05T11:50:02Z</time>
      </trkpt>
      <trkpt lat="59.9646608" lon="17.4682793">
        <ele>40.9934</ele>
        <time>2013-05-05T11:50:03Z</time>
      </trkpt>
      <trkpt lat="59.9647311" lon="17.468295">
        <ele>40.5128</ele>
        <time>2013-05-05T11:50:04Z</time>
      </trkpt>
      <trkpt lat="59.9648146" lon="17.4683007">
        <ele>41.474</ele>
        <time>2013-05-05T11:50:05Z</time>
      </trkpt>
      <trkpt lat="59.9648959" lon="17.4683071">
        <ele>42.4354</ele>
        <time>2013-05-05T11:50:06Z</time>
      </trkpt>
      <trkpt lat="59.9649748" lon="17.4683169">
        <ele>43.8773</ele>
        <time>2013-05-05T11:50:07Z</time>
      </trkpt>
      <trkpt lat="59.9650513" lon="17.4683377">
        <ele>43.3966</ele>
        <time>2013-05-05T11:50:08Z</time>
      </trkpt>
      <trkpt lat="59.9651296" lon="17.46836">
        <ele>42.916</ele>
        <time>2013-05-05T11:50:09Z</time>
      </trkpt>
      <trkpt lat="59.9652081" lon="17.4683713">
        <ele>41.474</ele>
        <time>2013-05-05T11:50:10Z</time>
      </trkpt>
      <trkpt lat="59.9652787" lon="17.4684019">
        <ele>40.9934</ele>
        <time>2013-05-05T11:50:11Z</time>
      </trkpt>
      <trkpt lat="59.9653509" lon="17.4684283">
        <ele>40.5128</ele>
        <time>2013-05-05T11:50:12Z</time>
      </trkpt>
      <trkpt lat="59.965413" lon="17.4684698">
        <ele>40.5128</ele>
        <time>2013-05-05T11:50:13Z</time>
      </trkpt>
      <trkpt lat="59.9654868" lon="17.468487">
        <ele>41.474</ele>
        <time>2013-05-05T11:50:14Z</time>
      </trkpt>
      <trkpt lat="59.9655603" lon="17.4685106">
        <ele>41.474</ele>
        <time>2013-05-05T11:50:15Z</time>
      </trkpt>
      <trkpt lat="59.9656347" lon="17.4685233">
        <ele>41.474</ele>
        <time>2013-05-05T11:50:16Z</time>
      </trkpt>
      <trkpt lat="59.9657029" lon="17.4685438">
        <ele>41.474</ele>
        <time>2013-05-05T11:50:17Z</time>
      </trkpt>
      <trkpt lat="59.9657978" lon="17.4685418">
        <ele>42.4354</ele>
        <time>2013-05-05T11:50:18Z</time>
      </trkpt>
      <trkpt lat="59.9658755" lon="17.4685545">
        <ele>42.4354</ele>
        <time>2013-05-05T11:50:19Z</time>
      </trkpt>
      <trkpt lat="59.9659536" lon="17.4685655">
        <ele>41.9547</ele>
        <time>2013-05-05T11:50:20Z</time>
      </trkpt>
      <trkpt lat="59.9660344" lon="17.4685755">
        <ele>41.9547</ele>
        <time>2013-05-05T11:50:21Z</time>
      </trkpt>
      <trkpt lat="59.96612" lon="17.468574">
        <ele>42.4354</ele>
        <time>2013-05-05T11:50:22Z</time>
      </trkpt>
      <trkpt lat="59.9662066" lon="17.4685597">
        <ele>42.916</ele>
        <time>2013-05-05T11:50:23Z</time>
      </trkpt>
      <trkpt lat="59.9662997" lon="17.4685075">
        <ele>43.3966</ele>
        <time>2013-05-05T11:50:24Z</time>
      </trkpt>
      <trkpt lat="59.966394" lon="17.4684414">
        <ele>43.8773</ele>
        <time>2013-05-05T11:50:25Z</time>
      </trkpt>
      <trkpt lat="59.9664865" lon="17.4683579">
        <ele>41.474</ele>
        <time>2013-05-05T11:50:26Z</time>
      </trkpt>
      <trkpt lat="59.9665932" lon="17.4682477">
        <ele>40.9934</ele>
        <time>2013-05-05T11:50:27Z</time>
      </trkpt>
      <trkpt lat="59.9666948" lon="17.4681287">
        <ele>40.5128</ele>
        <time>2013-05-05T11:50:28Z</time>
      </trkpt>
      <trkpt lat="59.9667908" lon="17.4680088">
        <ele>40.5128</ele>
        <time>2013-05-05T11:50:29Z</time>
      </trkpt>
      <trkpt lat="59.9668847" lon="17.467883">
        <ele>40.0321</ele>
        <time>2013-05-05T11:50:30Z</time>
      </trkpt>
      <trkpt lat="59.9669771" lon="17.4677459">
        <ele>38.1094</ele>
        <time>2013-05-05T11:50:31Z</time>
      </trkpt>
      <trkpt lat="59.9670664" lon="17.4676105">
        <ele>36.6675</ele>
        <time>2013-05-05T11:50:32Z</time>
      </trkpt>
      <trkpt lat="59.9671507" lon="17.4674741">
        <ele>34.7449</ele>
        <time>2013-05-05T11:50:33Z</time>
      </trkpt>
      <trkpt lat="59.9672358" lon="17.4673564">
        <ele>34.2642</ele>
        <time>2013-05-05T11:50:34Z</time>
      </trkpt>
      <trkpt lat="59.9673185" lon="17.4672436">
        <ele>33.7834</ele>
        <time>2013-05-05T11:50:35Z</time>
      </trkpt>
      <trkpt lat="59.9673964" lon="17.4671343">
        <ele>33.3029</ele>
        <time>2013-05-05T11:50:36Z</time>
      </trkpt>
      <trkpt lat="59.967472" lon="17.467024">
        <ele>33.3029</ele>
        <time>2013-05-05T11:50:37Z</time>
      </trkpt>
      <trkpt lat="59.9675477" lon="17.4669152">
        <ele>33.3029</ele>
        <time>2013-05-05T11:50:38Z</time>
      </trkpt>
      <trkpt lat="59.9676232" lon="17.4668054">
        <ele>33.3029</ele>
        <time>2013-05-05T11:50:39Z</time>
      </trkpt>
      <trkpt lat="59.9676984" lon="17.4666985">
        <ele>32.8223</ele>
        <time>2013-05-05T11:50:40Z</time>
      </trkpt>
      <trkpt lat="59.967773" lon="17.4665924">
        <ele>33.3029</ele>
        <time>2013-05-05T11:50:41Z</time>
      </trkpt>
      <trkpt lat="59.9678468" lon="17.4664844">
        <ele>33.3029</ele>
        <time>2013-05-05T11:50:42Z</time>
      </trkpt>
      <trkpt lat="59.967919" lon="17.4663773">
        <ele>33.3029</ele>
        <time>2013-05-05T11:50:43Z</time>
      </trkpt>
      <trkpt lat="59.9679903" lon="17.4662724">
        <ele>33.3029</ele>
        <time>2013-05-05T11:50:44Z</time>
      </trkpt>
      <trkpt lat="59.9680614" lon="17.4661704">
        <ele>33.3029</ele>
        <time>2013-05-05T11:50:45Z</time>
      </trkpt>
      <trkpt lat="59.9681313" lon="17.46607">
        <ele>33.3029</ele>
        <time>2013-05-05T11:50:46Z</time>
      </trkpt>
      <trkpt lat="59.9681998" lon="17.4659689">
        <ele>33.3029</ele>
        <time>2013-05-05T11:50:47Z</time>
      </trkpt>
      <trkpt lat="59.9682671" lon="17.4658699">
        <ele>33.3029</ele>
        <time>2013-05-05T11:50:48Z</time>
      </trkpt>
      <trkpt lat="59.9683329" lon="17.4657734">
        <ele>33.3029</ele>
        <time>2013-05-05T11:50:49Z</time>
      </trkpt>
      <trkpt lat="59.9683981" lon="17.4656776">
        <ele>33.3029</ele>
        <time>2013-05-05T11:50:50Z</time>
      </trkpt>
      <trkpt lat="59.9684629" lon="17.4655833">
        <ele>33.3029</ele>
        <time>2013-05-05T11:50:51Z</time>
      </trkpt>
      <trkpt lat="59.9685276" lon="17.4654897">
        <ele>33.3029</ele>
        <time>2013-05-05T11:50:52Z</time>
      </trkpt>
      <trkpt lat="59.9685923" lon="17.465396">
        <ele>33.3029</ele>
        <time>2013-05-05T11:50:53Z</time>
      </trkpt>
      <trkpt lat="59.9686568" lon="17.4653017">
        <ele>33.3029</ele>
        <time>2013-05-05T11:50:54Z</time>
      </trkpt>
      <trkpt lat="59.9687217" lon="17.4652063">
        <ele>33.7834</ele>
        <time>2013-05-05T11:50:55Z</time>
      </trkpt>
      <trkpt lat="59.9687861" lon="17.465111">
        <ele>33.7834</ele>
        <time>2013-05-05T11:50:56Z</time>
      </trkpt>
      <trkpt lat="59.9688499" lon="17.4650173">
        <ele>33.7834</ele>
        <time>2013-05-05T11:50:57Z</time>
      </trkpt>
      <trkpt lat="59.9689136" lon="17.4649233">
        <ele>33.7834</ele>
        <time>2013-05-05T11:50:58Z</time>
      </trkpt>
      <trkpt lat="59.9689779" lon="17.4648282">
        <ele>33.7834</ele>
        <time>2013-05-05T11:50:59Z</time>
      </trkpt>
      <trkpt lat="59.9690427" lon="17.4647344">
        <ele>33.3029</ele>
        <time>2013-05-05T11:51:00Z</time>
      </trkpt>
      <trkpt lat="59.9691072" lon="17.4646397">
        <ele>33.3029</ele>
        <time>2013-05-05T11:51:01Z</time>
      </trkpt>
      <trkpt lat="59.9691716" lon="17.4645422">
        <ele>33.3029</ele>
        <time>2013-05-05T11:51:02Z</time>
      </trkpt>
      <trkpt lat="59.9692346" lon="17.4644566">
        <ele>33.7834</ele>
        <time>2013-05-05T11:51:03Z</time>
      </trkpt>
      <trkpt lat="59.9692994" lon="17.4643677">
        <ele>34.2642</ele>
        <time>2013-05-05T11:51:04Z</time>
      </trkpt>
      <trkpt lat="59.9693657" lon="17.4642749">
        <ele>34.7449</ele>
        <time>2013-05-05T11:51:05Z</time>
      </trkpt>
      <trkpt lat="59.9694321" lon="17.4641817">
        <ele>34.7449</ele>
        <time>2013-05-05T11:51:06Z</time>
      </trkpt>
      <trkpt lat="59.9694996" lon="17.4640869">
        <ele>34.7449</ele>
        <time>2013-05-05T11:51:07Z</time>
      </trkpt>
      <trkpt lat="59.9695679" lon="17.463993">
        <ele>34.7449</ele>
        <time>2013-05-05T11:51:08Z</time>
      </trkpt>
      <trkpt lat="59.969636" lon="17.4638985">
        <ele>34.7449</ele>
        <time>2013-05-05T11:51:09Z</time>
      </trkpt>
      <trkpt lat="59.9697021" lon="17.4638031">
        <ele>34.2642</ele>
        <time>2013-05-05T11:51:10Z</time>
      </trkpt>
      <trkpt lat="59.9697676" lon="17.4637062">
        <ele>33.7834</ele>
        <time>2013-05-05T11:51:11Z</time>
      </trkpt>
      <trkpt lat="59.9698313" lon="17.4636135">
        <ele>34.2642</ele>
        <time>2013-05-05T11:51:12Z</time>
      </trkpt>
      <trkpt lat="59.9698948" lon="17.4635223">
        <ele>34.2642</ele>
        <time>2013-05-05T11:51:13Z</time>
      </trkpt>
      <trkpt lat="59.96996" lon="17.4634301">
        <ele>34.2642</ele>
        <time>2013-05-05T11:51:14Z</time>
      </trkpt>
      <trkpt lat="59.9700249" lon="17.4633387">
        <ele>33.7834</ele>
        <time>2013-05-05T11:51:15Z</time>
      </trkpt>
      <trkpt lat="59.97009" lon="17.4632463">
        <ele>33.7834</ele>
        <time>2013-05-05T11:51:16Z</time>
      </trkpt>
      <trkpt lat="59.9701547" lon="17.463154">
        <ele>33.7834</ele>
        <time>2013-05-05T11:51:17Z</time>
      </trkpt>
      <trkpt lat="59.97022" lon="17.4630616">
        <ele>33.3029</ele>
        <time>2013-05-05T11:51:18Z</time>
      </trkpt>
      <trkpt lat="59.9702862" lon="17.4629688">
        <ele>33.3029</ele>
        <time>2013-05-05T11:51:19Z</time>
      </trkpt>
      <trkpt lat="59.9703516" lon="17.4628763">
        <ele>33.3029</ele>
        <time>2013-05-05T11:51:20Z</time>
      </trkpt>
      <trkpt lat="59.9704157" lon="17.462784">
        <ele>33.3029</ele>
        <time>2013-05-05T11:51:21Z</time>
      </trkpt>
      <trkpt lat="59.9704794" lon="17.4626919">
        <ele>33.3029</ele>
        <time>2013-05-05T11:51:22Z</time>
      </trkpt>
      <trkpt lat="59.9705428" lon="17.4625992">
        <ele>33.3029</ele>
        <time>2013-05-05T11:51:23Z</time>
      </trkpt>
      <trkpt lat="59.9706059" lon="17.4625059">
        <ele>33.3029</ele>
        <time>2013-05-05T11:51:24Z</time>
      </trkpt>
      <trkpt lat="59.9706697" lon="17.4624132">
        <ele>32.8223</ele>
        <time>2013-05-05T11:51:25Z</time>
      </trkpt>
      <trkpt lat="59.9707339" lon="17.4623203">
        <ele>32.8223</ele>
        <time>2013-05-05T11:51:26Z</time>
      </trkpt>
      <trkpt lat="59.9707985" lon="17.4622278">
        <ele>32.3416</ele>
        <time>2013-05-05T11:51:27Z</time>
      </trkpt>
      <trkpt lat="59.9708629" lon="17.4621355">
        <ele>32.3416</ele>
        <time>2013-05-05T11:51:28Z</time>
      </trkpt>
      <trkpt lat="59.9709276" lon="17.4620443">
        <ele>32.3416</ele>
        <time>2013-05-05T11:51:29Z</time>
      </trkpt>
      <trkpt lat="59.970993" lon="17.4619547">
        <ele>32.3416</ele>
        <time>2013-05-05T11:51:30Z</time>
      </trkpt>
      <trkpt lat="59.971058" lon="17.4618642">
        <ele>32.3416</ele>
        <time>2013-05-05T11:51:31Z</time>
      </trkpt>
      <trkpt lat="59.9711219" lon="17.4617734">
        <ele>32.3416</ele>
        <time>2013-05-05T11:51:32Z</time>
      </trkpt>
      <trkpt lat="59.9711851" lon="17.4616808">
        <ele>32.3416</ele>
        <time>2013-05-05T11:51:33Z</time>
      </trkpt>
      <trkpt lat="59.9712468" lon="17.4615905">
        <ele>32.3416</ele>
        <time>2013-05-05T11:51:34Z</time>
      </trkpt>
      <trkpt lat="59.9713066" lon="17.4615034">
        <ele>32.3416</ele>
        <time>2013-05-05T11:51:35Z</time>
      </trkpt>
      <trkpt lat="59.9713654" lon="17.4614166">
        <ele>32.3416</ele>
        <time>2013-05-05T11:51:36Z</time>
      </trkpt>
      <trkpt lat="59.9714238" lon="17.4613312">
        <ele>31.8607</ele>
        <time>2013-05-05T11:51:37Z</time>
      </trkpt>
      <trkpt lat="59.9714819" lon="17.4612452">
        <ele>31.8607</ele>
        <time>2013-05-05T11:51:38Z</time>
      </trkpt>
      <trkpt lat="59.9715402" lon="17.461158">
        <ele>32.3416</ele>
        <time>2013-05-05T11:51:39Z</time>
      </trkpt>
      <trkpt lat="59.9715979" lon="17.4610721">
        <ele>31.8607</ele>
        <time>2013-05-05T11:51:40Z</time>
      </trkpt>
      <trkpt lat="59.971655" lon="17.4609854">
        <ele>31.3801</ele>
        <time>2013-05-05T11:51:41Z</time>
      </trkpt>
      <trkpt lat="59.9717125" lon="17.4609031">
        <ele>31.3801</ele>
        <time>2013-05-05T11:51:42Z</time>
      </trkpt>
      <trkpt lat="59.9717679" lon="17.460825">
        <ele>31.3801</ele>
        <time>2013-05-05T11:51:43Z</time>
      </trkpt>
      <trkpt lat="59.9718208" lon="17.4607494">
        <ele>31.3801</ele>
        <time>2013-05-05T11:51:44Z</time>
      </trkpt>
      <trkpt lat="59.9718729" lon="17.4606758">
        <ele>31.3801</ele>
        <time>2013-05-05T11:51:45Z</time>
      </trkpt>
      <trkpt lat="59.9719232" lon="17.4606046">
        <ele>31.8607</ele>
        <time>2013-05-05T11:51:46Z</time>
      </trkpt>
      <trkpt lat="59.9719724" lon="17.4605347">
        <ele>31.8607</ele>
        <time>2013-05-05T11:51:47Z</time>
      </trkpt>
      <trkpt lat="59.9720196" lon="17.4604648">
        <ele>32.3416</ele>
        <time>2013-05-05T11:51:48Z</time>
      </trkpt>
      <trkpt lat="59.972066" lon="17.460396">
        <ele>32.3416</ele>
        <time>2013-05-05T11:51:49Z</time>
      </trkpt>
      <trkpt lat="59.9721121" lon="17.4603304">
        <ele>32.3416</ele>
        <time>2013-05-05T11:51:50Z</time>
      </trkpt>
      <trkpt lat="59.9721578" lon="17.4602661">
        <ele>32.8223</ele>
        <time>2013-05-05T11:51:51Z</time>
      </trkpt>
      <trkpt lat="59.9722023" lon="17.4602004">
        <ele>32.8223</ele>
        <time>2013-05-05T11:51:52Z</time>
      </trkpt>
      <trkpt lat="59.9722465" lon="17.4601348">
        <ele>32.8223</ele>
        <time>2013-05-05T11:51:53Z</time>
      </trkpt>
      <trkpt lat="59.9722906" lon="17.4600691">
        <ele>32.8223</ele>
        <time>2013-05-05T11:51:54Z</time>
      </trkpt>
      <trkpt lat="59.9723351" lon="17.4600039">
        <ele>33.3029</ele>
        <time>2013-05-05T11:51:55Z</time>
      </trkpt>
      <trkpt lat="59.9723784" lon="17.4599432">
        <ele>33.3029</ele>
        <time>2013-05-05T11:51:56Z</time>
      </trkpt>
      <trkpt lat="59.9724226" lon="17.4598811">
        <ele>33.3029</ele>
        <time>2013-05-05T11:51:57Z</time>
      </trkpt>
      <trkpt lat="59.9724667" lon="17.4598185">
        <ele>33.3029</ele>
        <time>2013-05-05T11:51:58Z</time>
      </trkpt>
      <trkpt lat="59.9725107" lon="17.4597558">
        <ele>33.7834</ele>
        <time>2013-05-05T11:51:59Z</time>
      </trkpt>
      <trkpt lat="59.9725546" lon="17.4596955">
        <ele>33.7834</ele>
        <time>2013-05-05T11:52:00Z</time>
      </trkpt>
      <trkpt lat="59.9725993" lon="17.4596368">
        <ele>33.7834</ele>
        <time>2013-05-05T11:52:01Z</time>
      </trkpt>
      <trkpt lat="59.9726459" lon="17.4595771">
        <ele>33.7834</ele>
        <time>2013-05-05T11:52:02Z</time>
      </trkpt>
      <trkpt lat="59.9726946" lon="17.4595155">
        <ele>33.7834</ele>
        <time>2013-05-05T11:52:03Z</time>
      </trkpt>
      <trkpt lat="59.9727444" lon="17.4594519">
        <ele>34.2642</ele>
        <time>2013-05-05T11:52:04Z</time>
      </trkpt>
      <trkpt lat="59.9727955" lon="17.4593906">
        <ele>34.2642</ele>
        <time>2013-05-05T11:52:05Z</time>
      </trkpt>
      <trkpt lat="59.9728474" lon="17.4593338">
        <ele>34.2642</ele>
        <time>2013-05-05T11:52:06Z</time>
      </trkpt>
      <trkpt lat="59.9729002" lon="17.4592803">
        <ele>34.2642</ele>
        <time>2013-05-05T11:52:07Z</time>
      </trkpt>
      <trkpt lat="59.9729546" lon="17.459229">
        <ele>34.2642</ele>
        <time>2013-05-05T11:52:08Z</time>
      </trkpt>
      <trkpt lat="59.9730101" lon="17.4591788">
        <ele>34.2642</ele>
        <time>2013-05-05T11:52:09Z</time>
      </trkpt>
      <trkpt lat="59.9730655" lon="17.4591281">
        <ele>34.7449</ele>
        <time>2013-05-05T11:52:10Z</time>
      </trkpt>
      <trkpt lat="59.97312" lon="17.4590778">
        <ele>34.7449</ele>
        <time>2013-05-05T11:52:11Z</time>
      </trkpt>
      <trkpt lat="59.9731742" lon="17.4590325">
        <ele>34.7449</ele>
        <time>2013-05-05T11:52:12Z</time>
      </trkpt>
      <trkpt lat="59.9732285" lon="17.4589895">
        <ele>34.7449</ele>
        <time>2013-05-05T11:52:13Z</time>
      </trkpt>
      <trkpt lat="59.9732835" lon="17.4589477">
        <ele>35.2255</ele>
        <time>2013-05-05T11:52:14Z</time>
      </trkpt>
      <trkpt lat="59.9733389" lon="17.4589042">
        <ele>35.2255</ele>
        <time>2013-05-05T11:52:15Z</time>
      </trkpt>
      <trkpt lat="59.9733942" lon="17.4588582">
        <ele>35.2255</ele>
        <time>2013-05-05T11:52:16Z</time>
      </trkpt>
      <trkpt lat="59.9734494" lon="17.4588147">
        <ele>35.7061</ele>
        <time>2013-05-05T11:52:17Z</time>
      </trkpt>
      <trkpt lat="59.9735036" lon="17.4587732">
        <ele>35.7061</ele>
        <time>2013-05-05T11:52:18Z</time>
      </trkpt>
      <trkpt lat="59.9735564" lon="17.4587307">
        <ele>35.7061</ele>
        <time>2013-05-05T11:52:19Z</time>
      </trkpt>
      <trkpt lat="59.9736089" lon="17.4586914">
        <ele>35.7061</ele>
        <time>2013-05-05T11:52:20Z</time>
      </trkpt>
      <trkpt lat="59.9736606" lon="17.458656">
        <ele>35.7061</ele>
        <time>2013-05-05T11:52:21Z</time>
      </trkpt>
      <trkpt lat="59.9737119" lon="17.4586186">
        <ele>35.7061</ele>
        <time>2013-05-05T11:52:22Z</time>
      </trkpt>
      <trkpt lat="59.9737635" lon="17.458582">
        <ele>35.7061</ele>
        <time>2013-05-05T11:52:23Z</time>
      </trkpt>
      <trkpt lat="59.973813" lon="17.4585499">
        <ele>36.1868</ele>
        <time>2013-05-05T11:52:24Z</time>
      </trkpt>
      <trkpt lat="59.9738611" lon="17.4585172">
        <ele>36.1868</ele>
        <time>2013-05-05T11:52:25Z</time>
      </trkpt>
      <trkpt lat="59.9739104" lon="17.4584835">
        <ele>36.6675</ele>
        <time>2013-05-05T11:52:26Z</time>
      </trkpt>
      <trkpt lat="59.9739606" lon="17.4584497">
        <ele>37.1481</ele>
        <time>2013-05-05T11:52:27Z</time>
      </trkpt>
      <trkpt lat="59.974012" lon="17.4584133">
        <ele>37.1481</ele>
        <time>2013-05-05T11:52:28Z</time>
      </trkpt>
      <trkpt lat="59.9740657" lon="17.4583718">
        <ele>37.6287</ele>
        <time>2013-05-05T11:52:29Z</time>
      </trkpt>
      <trkpt lat="59.9741184" lon="17.4583226">
        <ele>37.6287</ele>
        <time>2013-05-05T11:52:30Z</time>
      </trkpt>
      <trkpt lat="59.9741687" lon="17.4582752">
        <ele>37.6287</ele>
        <time>2013-05-05T11:52:31Z</time>
      </trkpt>
      <trkpt lat="59.9742238" lon="17.458233">
        <ele>37.6287</ele>
        <time>2013-05-05T11:52:32Z</time>
      </trkpt>
      <trkpt lat="59.9742753" lon="17.4581982">
        <ele>37.6287</ele>
        <time>2013-05-05T11:52:33Z</time>
      </trkpt>
      <trkpt lat="59.9743263" lon="17.4581619">
        <ele>37.6287</ele>
        <time>2013-05-05T11:52:34Z</time>
      </trkpt>
      <trkpt lat="59.9743759" lon="17.45812">
        <ele>36.6675</ele>
        <time>2013-05-05T11:52:35Z</time>
      </trkpt>
      <trkpt lat="59.9744232" lon="17.4580757">
        <ele>36.1868</ele>
        <time>2013-05-05T11:52:36Z</time>
      </trkpt>
      <trkpt lat="59.9744691" lon="17.4580354">
        <ele>36.1868</ele>
        <time>2013-05-05T11:52:37Z</time>
      </trkpt>
      <trkpt lat="59.9745129" lon="17.457992">
        <ele>36.1868</ele>
        <time>2013-05-05T11:52:38Z</time>
      </trkpt>
      <trkpt lat="59.9745583" lon="17.4579457">
        <ele>36.1868</ele>
        <time>2013-05-05T11:52:39Z</time>
      </trkpt>
      <trkpt lat="59.9746008" lon="17.457903">
        <ele>36.1868</ele>
        <time>2013-05-05T11:52:40Z</time>
      </trkpt>
      <trkpt lat="59.9746388" lon="17.4578647">
        <ele>36.1868</ele>
        <time>2013-05-05T11:52:41Z</time>
      </trkpt>
      <trkpt lat="59.9746732" lon="17.4578309">
        <ele>36.1868</ele>
        <time>2013-05-05T11:52:42Z</time>
      </trkpt>
      <trkpt lat="59.9747134" lon="17.45778">
        <ele>36.1868</ele>
        <time>2013-05-05T11:52:43Z</time>
      </trkpt>
      <trkpt lat="59.9747605" lon="17.4577242">
        <ele>36.6675</ele>
        <time>2013-05-05T11:52:44Z</time>
      </trkpt>
      <trkpt lat="59.9748044" lon="17.4576735">
        <ele>36.1868</ele>
        <time>2013-05-05T11:52:45Z</time>
      </trkpt>
      <trkpt lat="59.9748488" lon="17.4576273">
        <ele>36.6675</ele>
        <time>2013-05-05T11:52:46Z</time>
      </trkpt>
      <trkpt lat="59.974894" lon="17.457576">
        <ele>36.6675</ele>
        <time>2013-05-05T11:52:47Z</time>
      </trkpt>
      <trkpt lat="59.9749407" lon="17.4575236">
        <ele>36.6675</ele>
        <time>2013-05-05T11:52:48Z</time>
      </trkpt>
      <trkpt lat="59.9749878" lon="17.4574704">
        <ele>36.6675</ele>
        <time>2013-05-05T11:52:49Z</time>
      </trkpt>
      <trkpt lat="59.9750402" lon="17.4574073">
        <ele>36.6675</ele>
        <time>2013-05-05T11:52:50Z</time>
      </trkpt>
      <trkpt lat="59.9750876" lon="17.4573474">
        <ele>36.1868</ele>
        <time>2013-05-05T11:52:51Z</time>
      </trkpt>
      <trkpt lat="59.9751368" lon="17.4572938">
        <ele>36.6675</ele>
        <time>2013-05-05T11:52:52Z</time>
      </trkpt>
      <trkpt lat="59.9751898" lon="17.4572331">
        <ele>36.6675</ele>
        <time>2013-05-05T11:52:53Z</time>
      </trkpt>
      <trkpt lat="59.9752412" lon="17.4571767">
        <ele>36.6675</ele>
        <time>2013-05-05T11:52:54Z</time>
      </trkpt>
      <trkpt lat="59.9752955" lon="17.4571184">
        <ele>37.1481</ele>
        <time>2013-05-05T11:52:55Z</time>
      </trkpt>
      <trkpt lat="59.9753488" lon="17.457059">
        <ele>37.1481</ele>
        <time>2013-05-05T11:52:56Z</time>
      </trkpt>
      <trkpt lat="59.9753987" lon="17.4569964">
        <ele>36.1868</ele>
        <time>2013-05-05T11:52:57Z</time>
      </trkpt>
      <trkpt lat="59.9754512" lon="17.4569271">
        <ele>36.1868</ele>
        <time>2013-05-05T11:52:58Z</time>
      </trkpt>
      <trkpt lat="59.9755012" lon="17.4568591">
        <ele>36.1868</ele>
        <time>2013-05-05T11:52:59Z</time>
      </trkpt>
      <trkpt lat="59.9755528" lon="17.456797">
        <ele>35.7061</ele>
        <time>2013-05-05T11:53:00Z</time>
      </trkpt>
      <trkpt lat="59.9756032" lon="17.4567321">
        <ele>35.2255</ele>
        <time>2013-05-05T11:53:01Z</time>
      </trkpt>
      <trkpt lat="59.9756524" lon="17.4566684">
        <ele>35.2255</ele>
        <time>2013-05-05T11:53:02Z</time>
      </trkpt>
      <trkpt lat="59.9757001" lon="17.4566004">
        <ele>34.2642</ele>
        <time>2013-05-05T11:53:03Z</time>
      </trkpt>
      <trkpt lat="59.9757487" lon="17.4565422">
        <ele>34.2642</ele>
        <time>2013-05-05T11:53:04Z</time>
      </trkpt>
      <trkpt lat="59.9757949" lon="17.456481">
        <ele>34.2642</ele>
        <time>2013-05-05T11:53:05Z</time>
      </trkpt>
      <trkpt lat="59.9758459" lon="17.4564108">
        <ele>34.7449</ele>
        <time>2013-05-05T11:53:06Z</time>
      </trkpt>
      <trkpt lat="59.9758905" lon="17.4563406">
        <ele>34.2642</ele>
        <time>2013-05-05T11:53:07Z</time>
      </trkpt>
      <trkpt lat="59.9759374" lon="17.4562702">
        <ele>34.2642</ele>
        <time>2013-05-05T11:53:08Z</time>
      </trkpt>
      <trkpt lat="59.975988" lon="17.4562011">
        <ele>34.7449</ele>
        <time>2013-05-05T11:53:09Z</time>
      </trkpt>
      <trkpt lat="59.9760374" lon="17.4561321">
        <ele>35.2255</ele>
        <time>2013-05-05T11:53:10Z</time>
      </trkpt>
      <trkpt lat="59.9760839" lon="17.4560638">
        <ele>35.7061</ele>
        <time>2013-05-05T11:53:11Z</time>
      </trkpt>
      <trkpt lat="59.976132" lon="17.4559858">
        <ele>36.6675</ele>
        <time>2013-05-05T11:53:12Z</time>
      </trkpt>
      <trkpt lat="59.9761769" lon="17.4559064">
        <ele>36.6675</ele>
        <time>2013-05-05T11:53:13Z</time>
      </trkpt>
      <trkpt lat="59.9762208" lon="17.4558289">
        <ele>36.6675</ele>
        <time>2013-05-05T11:53:14Z</time>
      </trkpt>
      <trkpt lat="59.9762673" lon="17.4557547">
        <ele>37.6287</ele>
        <time>2013-05-05T11:53:15Z</time>
      </trkpt>
      <trkpt lat="59.9763092" lon="17.4556797">
        <ele>37.6287</ele>
        <time>2013-05-05T11:53:16Z</time>
      </trkpt>
      <trkpt lat="59.9763515" lon="17.4556056">
        <ele>37.6287</ele>
        <time>2013-05-05T11:53:17Z</time>
      </trkpt>
      <trkpt lat="59.9763946" lon="17.4555308">
        <ele>37.6287</ele>
        <time>2013-05-05T11:53:18Z</time>
      </trkpt>
      <trkpt lat="59.9764362" lon="17.4554572">
        <ele>37.6287</ele>
        <time>2013-05-05T11:53:19Z</time>
      </trkpt>
      <trkpt lat="59.976481" lon="17.4553833">
        <ele>38.5901</ele>
        <time>2013-05-05T11:53:20Z</time>
      </trkpt>
      <trkpt lat="59.9765258" lon="17.4553185">
        <ele>39.0707</ele>
        <time>2013-05-05T11:53:21Z</time>
      </trkpt>
      <trkpt lat="59.976573" lon="17.455258">
        <ele>39.5513</ele>
        <time>2013-05-05T11:53:22Z</time>
      </trkpt>
      <trkpt lat="59.9766186" lon="17.4551655">
        <ele>37.6287</ele>
        <time>2013-05-05T11:53:23Z</time>
      </trkpt>
      <trkpt lat="59.9766606" lon="17.4550927">
        <ele>38.1094</ele>
        <time>2013-05-05T11:53:24Z</time>
      </trkpt>
      <trkpt lat="59.9767059" lon="17.4550211">
        <ele>38.5901</ele>
        <time>2013-05-05T11:53:25Z</time>
      </trkpt>
      <trkpt lat="59.976747" lon="17.454958">
        <ele>38.5901</ele>
        <time>2013-05-05T11:53:26Z</time>
      </trkpt>
      <trkpt lat="59.9767882" lon="17.4548947">
        <ele>38.1094</ele>
        <time>2013-05-05T11:53:27Z</time>
      </trkpt>
      <trkpt lat="59.9768288" lon="17.4548325">
        <ele>38.1094</ele>
        <time>2013-05-05T11:53:28Z</time>
      </trkpt>
      <trkpt lat="59.9768773" lon="17.4547682">
        <ele>38.5901</ele>
        <time>2013-05-05T11:53:29Z</time>
      </trkpt>
      <trkpt lat="59.9769244" lon="17.4546934">
        <ele>39.0707</ele>
        <time>2013-05-05T11:53:30Z</time>
      </trkpt>
      <trkpt lat="59.9769669" lon="17.4546141">
        <ele>38.1094</ele>
        <time>2013-05-05T11:53:31Z</time>
      </trkpt>
      <trkpt lat="59.9770133" lon="17.4545202">
        <ele>37.6287</ele>
        <time>2013-05-05T11:53:32Z</time>
      </trkpt>
      <trkpt lat="59.977063" lon="17.4544362">
        <ele>37.6287</ele>
        <time>2013-05-05T11:53:33Z</time>
      </trkpt>
      <trkpt lat="59.9771111" lon="17.4543614">
        <ele>37.6287</ele>
        <time>2013-05-05T11:53:34Z</time>
      </trkpt>
      <trkpt lat="59.9771598" lon="17.4542849">
        <ele>37.6287</ele>
        <time>2013-05-05T11:53:35Z</time>
      </trkpt>
      <trkpt lat="59.9772102" lon="17.4541914">
        <ele>37.1481</ele>
        <time>2013-05-05T11:53:36Z</time>
      </trkpt>
      <trkpt lat="59.9772593" lon="17.4541">
        <ele>37.1481</ele>
        <time>2013-05-05T11:53:37Z</time>
      </trkpt>
      <trkpt lat="59.9773095" lon="17.4540116">
        <ele>36.6675</ele>
        <time>2013-05-05T11:53:38Z</time>
      </trkpt>
      <trkpt lat="59.9773598" lon="17.4539261">
        <ele>36.6675</ele>
        <time>2013-05-05T11:53:39Z</time>
      </trkpt>
      <trkpt lat="59.9774093" lon="17.4538438">
        <ele>36.6675</ele>
        <time>2013-05-05T11:53:40Z</time>
      </trkpt>
      <trkpt lat="59.9774581" lon="17.4537628">
        <ele>36.6675</ele>
        <time>2013-05-05T11:53:41Z</time>
      </trkpt>
      <trkpt lat="59.9775083" lon="17.4536818">
        <ele>36.6675</ele>
        <time>2013-05-05T11:53:42Z</time>
      </trkpt>
      <trkpt lat="59.9775587" lon="17.4535999">
        <ele>36.6675</ele>
        <time>2013-05-05T11:53:43Z</time>
      </trkpt>
      <trkpt lat="59.9776063" lon="17.453518">
        <ele>36.6675</ele>
        <time>2013-05-05T11:53:44Z</time>
      </trkpt>
      <trkpt lat="59.9776519" lon="17.4534356">
        <ele>36.6675</ele>
        <time>2013-05-05T11:53:45Z</time>
      </trkpt>
      <trkpt lat="59.9776944" lon="17.4533535">
        <ele>35.7061</ele>
        <time>2013-05-05T11:53:46Z</time>
      </trkpt>
      <trkpt lat="59.9777385" lon="17.4532765">
        <ele>35.7061</ele>
        <time>2013-05-05T11:53:47Z</time>
      </trkpt>
      <trkpt lat="59.9777835" lon="17.4531937">
        <ele>34.2642</ele>
        <time>2013-05-05T11:53:48Z</time>
      </trkpt>
      <trkpt lat="59.97783" lon="17.4531085">
        <ele>33.3029</ele>
        <time>2013-05-05T11:53:49Z</time>
      </trkpt>
      <trkpt lat="59.9778787" lon="17.4530275">
        <ele>32.3416</ele>
        <time>2013-05-05T11:53:50Z</time>
      </trkpt>
      <trkpt lat="59.9779279" lon="17.4529505">
        <ele>31.8607</ele>
        <time>2013-05-05T11:53:51Z</time>
      </trkpt>
      <trkpt lat="59.9779791" lon="17.4528755">
        <ele>31.3801</ele>
        <time>2013-05-05T11:53:52Z</time>
      </trkpt>
      <trkpt lat="59.9780359" lon="17.4528003">
        <ele>32.3416</ele>
        <time>2013-05-05T11:53:53Z</time>
      </trkpt>
      <trkpt lat="59.9780922" lon="17.4527316">
        <ele>32.3416</ele>
        <time>2013-05-05T11:53:54Z</time>
      </trkpt>
      <trkpt lat="59.9781429" lon="17.4526643">
        <ele>31.8607</ele>
        <time>2013-05-05T11:53:55Z</time>
      </trkpt>
      <trkpt lat="59.9781956" lon="17.4525979">
        <ele>30.8995</ele>
        <time>2013-05-05T11:53:56Z</time>
      </trkpt>
      <trkpt lat="59.9782475" lon="17.452534">
        <ele>29.9381</ele>
        <time>2013-05-05T11:53:57Z</time>
      </trkpt>
      <trkpt lat="59.9783015" lon="17.452474">
        <ele>30.4188</ele>
        <time>2013-05-05T11:53:58Z</time>
      </trkpt>
      <trkpt lat="59.9783552" lon="17.4524119">
        <ele>29.9381</ele>
        <time>2013-05-05T11:53:59Z</time>
      </trkpt>
      <trkpt lat="59.9784101" lon="17.4523555">
        <ele>29.4575</ele>
        <time>2013-05-05T11:54:00Z</time>
      </trkpt>
      <trkpt lat="59.9784643" lon="17.4523053">
        <ele>28.4962</ele>
        <time>2013-05-05T11:54:01Z</time>
      </trkpt>
      <trkpt lat="59.978521" lon="17.4522522">
        <ele>28.0155</ele>
        <time>2013-05-05T11:54:02Z</time>
      </trkpt>
      <trkpt lat="59.9785837" lon="17.452196">
        <ele>28.4962</ele>
        <time>2013-05-05T11:54:03Z</time>
      </trkpt>
      <trkpt lat="59.9786387" lon="17.4521463">
        <ele>28.0155</ele>
        <time>2013-05-05T11:54:04Z</time>
      </trkpt>
      <trkpt lat="59.9786973" lon="17.4520918">
        <ele>28.0155</ele>
        <time>2013-05-05T11:54:05Z</time>
      </trkpt>
      <trkpt lat="59.9787568" lon="17.4520414">
        <ele>28.4962</ele>
        <time>2013-05-05T11:54:06Z</time>
      </trkpt>
      <trkpt lat="59.9788116" lon="17.4519966">
        <ele>28.0155</ele>
        <time>2013-05-05T11:54:07Z</time>
      </trkpt>
      <trkpt lat="59.9788636" lon="17.4519477">
        <ele>27.0543</ele>
        <time>2013-05-05T11:54:08Z</time>
      </trkpt>
      <trkpt lat="59.9789238" lon="17.4519076">
        <ele>28.4962</ele>
        <time>2013-05-05T11:54:09Z</time>
      </trkpt>
      <trkpt lat="59.9789811" lon="17.4518618">
        <ele>29.4575</ele>
        <time>2013-05-05T11:54:10Z</time>
      </trkpt>
      <trkpt lat="59.9790406" lon="17.4518189">
        <ele>31.3801</ele>
        <time>2013-05-05T11:54:11Z</time>
      </trkpt>
      <trkpt lat="59.979091" lon="17.4517769">
        <ele>31.3801</ele>
        <time>2013-05-05T11:54:12Z</time>
      </trkpt>
      <trkpt lat="59.9791402" lon="17.451733">
        <ele>31.3801</ele>
        <time>2013-05-05T11:54:13Z</time>
      </trkpt>
      <trkpt lat="59.9791894" lon="17.4516861">
        <ele>31.3801</ele>
        <time>2013-05-05T11:54:14Z</time>
      </trkpt>
      <trkpt lat="59.9792382" lon="17.4516371">
        <ele>32.3416</ele>
        <time>2013-05-05T11:54:15Z</time>
      </trkpt>
      <trkpt lat="59.9792857" lon="17.4515884">
        <ele>32.3416</ele>
        <time>2013-05-05T11:54:16Z</time>
      </trkpt>
      <trkpt lat="59.9793333" lon="17.4515386">
        <ele>32.3416</ele>
        <time>2013-05-05T11:54:17Z</time>
      </trkpt>
      <trkpt lat="59.979381" lon="17.4514842">
        <ele>32.3416</ele>
        <time>2013-05-05T11:54:18Z</time>
      </trkpt>
      <trkpt lat="59.9794302" lon="17.4514242">
        <ele>32.8223</ele>
        <time>2013-05-05T11:54:19Z</time>
      </trkpt>
      <trkpt lat="59.9794787" lon="17.4513558">
        <ele>32.8223</ele>
        <time>2013-05-05T11:54:20Z</time>
      </trkpt>
      <trkpt lat="59.9795249" lon="17.4512825">
        <ele>33.3029</ele>
        <time>2013-05-05T11:54:21Z</time>
      </trkpt>
      <trkpt lat="59.9795704" lon="17.4512086">
        <ele>33.3029</ele>
        <time>2013-05-05T11:54:22Z</time>
      </trkpt>
      <trkpt lat="59.9796156" lon="17.451133">
        <ele>33.3029</ele>
        <time>2013-05-05T11:54:23Z</time>
      </trkpt>
      <trkpt lat="59.9796595" lon="17.451051">
        <ele>33.7834</ele>
        <time>2013-05-05T11:54:24Z</time>
      </trkpt>
      <trkpt lat="59.9797022" lon="17.4509581">
        <ele>32.8223</ele>
        <time>2013-05-05T11:54:25Z</time>
      </trkpt>
      <trkpt lat="59.9797426" lon="17.4508664">
        <ele>31.8607</ele>
        <time>2013-05-05T11:54:26Z</time>
      </trkpt>
      <trkpt lat="59.9797861" lon="17.450775">
        <ele>31.3801</ele>
        <time>2013-05-05T11:54:27Z</time>
      </trkpt>
      <trkpt lat="59.9798296" lon="17.4506816">
        <ele>31.3801</ele>
        <time>2013-05-05T11:54:28Z</time>
      </trkpt>
      <trkpt lat="59.9798729" lon="17.450586">
        <ele>30.8995</ele>
        <time>2013-05-05T11:54:29Z</time>
      </trkpt>
      <trkpt lat="59.9799161" lon="17.4504942">
        <ele>30.8995</ele>
        <time>2013-05-05T11:54:30Z</time>
      </trkpt>
      <trkpt lat="59.9799577" lon="17.450399">
        <ele>30.4188</ele>
        <time>2013-05-05T11:54:31Z</time>
      </trkpt>
      <trkpt lat="59.9799985" lon="17.4503053">
        <ele>29.9381</ele>
        <time>2013-05-05T11:54:32Z</time>
      </trkpt>
      <trkpt lat="59.9800379" lon="17.4502137">
        <ele>29.4575</ele>
        <time>2013-05-05T11:54:33Z</time>
      </trkpt>
      <trkpt lat="59.9800742" lon="17.4501218">
        <ele>28.4962</ele>
        <time>2013-05-05T11:54:34Z</time>
      </trkpt>
      <trkpt lat="59.9801151" lon="17.4500282">
        <ele>28.4962</ele>
        <time>2013-05-05T11:54:35Z</time>
      </trkpt>
      <trkpt lat="59.980181" lon="17.4499223">
        <ele>31.3801</ele>
        <time>2013-05-05T11:54:36Z</time>
      </trkpt>
      <trkpt lat="59.9802239" lon="17.449823">
        <ele>30.4188</ele>
        <time>2013-05-05T11:54:37Z</time>
      </trkpt>
      <trkpt lat="59.9802661" lon="17.449728">
        <ele>30.4188</ele>
        <time>2013-05-05T11:54:38Z</time>
      </trkpt>
      <trkpt lat="59.9803072" lon="17.4496293">
        <ele>30.4188</ele>
        <time>2013-05-05T11:54:39Z</time>
      </trkpt>
      <trkpt lat="59.9803575" lon="17.4495355">
        <ele>31.8607</ele>
        <time>2013-05-05T11:54:40Z</time>
      </trkpt>
      <trkpt lat="59.9804078" lon="17.4494429">
        <ele>33.7834</ele>
        <time>2013-05-05T11:54:41Z</time>
      </trkpt>
      <trkpt lat="59.9804527" lon="17.4493426">
        <ele>33.3029</ele>
        <time>2013-05-05T11:54:42Z</time>
      </trkpt>
      <trkpt lat="59.9804958" lon="17.4492521">
        <ele>33.3029</ele>
        <time>2013-05-05T11:54:43Z</time>
      </trkpt>
      <trkpt lat="59.9805377" lon="17.4491569">
        <ele>32.8223</ele>
        <time>2013-05-05T11:54:44Z</time>
      </trkpt>
      <trkpt lat="59.9805812" lon="17.4490578">
        <ele>33.3029</ele>
        <time>2013-05-05T11:54:45Z</time>
      </trkpt>
      <trkpt lat="59.9806246" lon="17.4489603">
        <ele>33.3029</ele>
        <time>2013-05-05T11:54:46Z</time>
      </trkpt>
      <trkpt lat="59.9806686" lon="17.4488657">
        <ele>33.3029</ele>
        <time>2013-05-05T11:54:47Z</time>
      </trkpt>
      <trkpt lat="59.9807206" lon="17.4487698">
        <ele>34.2642</ele>
        <time>2013-05-05T11:54:48Z</time>
      </trkpt>
      <trkpt lat="59.9807776" lon="17.4486669">
        <ele>35.7061</ele>
        <time>2013-05-05T11:54:49Z</time>
      </trkpt>
      <trkpt lat="59.9808212" lon="17.4485724">
        <ele>35.7061</ele>
        <time>2013-05-05T11:54:50Z</time>
      </trkpt>
      <trkpt lat="59.9808627" lon="17.4484796">
        <ele>34.7449</ele>
        <time>2013-05-05T11:54:51Z</time>
      </trkpt>
      <trkpt lat="59.9809048" lon="17.448391">
        <ele>34.7449</ele>
        <time>2013-05-05T11:54:52Z</time>
      </trkpt>
      <trkpt lat="59.9809453" lon="17.4483036">
        <ele>34.2642</ele>
        <time>2013-05-05T11:54:53Z</time>
      </trkpt>
      <trkpt lat="59.9809872" lon="17.4482167">
        <ele>34.2642</ele>
        <time>2013-05-05T11:54:54Z</time>
      </trkpt>
      <trkpt lat="59.9810294" lon="17.4481264">
        <ele>34.2642</ele>
        <time>2013-05-05T11:54:55Z</time>
      </trkpt>
      <trkpt lat="59.9810692" lon="17.4480365">
        <ele>33.3029</ele>
        <time>2013-05-05T11:54:56Z</time>
      </trkpt>
      <trkpt lat="59.9811096" lon="17.4479486">
        <ele>33.3029</ele>
        <time>2013-05-05T11:54:57Z</time>
      </trkpt>
      <trkpt lat="59.9811488" lon="17.4478602">
        <ele>33.3029</ele>
        <time>2013-05-05T11:54:58Z</time>
      </trkpt>
      <trkpt lat="59.9811874" lon="17.4477743">
        <ele>33.7834</ele>
        <time>2013-05-05T11:54:59Z</time>
      </trkpt>
      <trkpt lat="59.9812236" lon="17.4476879">
        <ele>33.7834</ele>
        <time>2013-05-05T11:55:00Z</time>
      </trkpt>
      <trkpt lat="59.9812545" lon="17.4476032">
        <ele>33.3029</ele>
        <time>2013-05-05T11:55:01Z</time>
      </trkpt>
      <trkpt lat="59.9813018" lon="17.4475075">
        <ele>36.1868</ele>
        <time>2013-05-05T11:55:02Z</time>
      </trkpt>
      <trkpt lat="59.981341" lon="17.4474142">
        <ele>37.6287</ele>
        <time>2013-05-05T11:55:03Z</time>
      </trkpt>
      <trkpt lat="59.9813795" lon="17.4473272">
        <ele>38.1094</ele>
        <time>2013-05-05T11:55:04Z</time>
      </trkpt>
      <trkpt lat="59.981412" lon="17.447252">
        <ele>37.6287</ele>
        <time>2013-05-05T11:55:05Z</time>
      </trkpt>
      <trkpt lat="59.9814387" lon="17.4471778">
        <ele>37.6287</ele>
        <time>2013-05-05T11:55:06Z</time>
      </trkpt>
      <trkpt lat="59.9814634" lon="17.4471038">
        <ele>36.6675</ele>
        <time>2013-05-05T11:55:07Z</time>
      </trkpt>
      <trkpt lat="59.9814956" lon="17.4470303">
        <ele>37.6287</ele>
        <time>2013-05-05T11:55:08Z</time>
      </trkpt>
      <trkpt lat="59.9815229" lon="17.4469611">
        <ele>37.6287</ele>
        <time>2013-05-05T11:55:09Z</time>
      </trkpt>
      <trkpt lat="59.9815489" lon="17.4468911">
        <ele>37.6287</ele>
        <time>2013-05-05T11:55:10Z</time>
      </trkpt>
      <trkpt lat="59.9815742" lon="17.4468168">
        <ele>37.1481</ele>
        <time>2013-05-05T11:55:11Z</time>
      </trkpt>
      <trkpt lat="59.9816053" lon="17.446738">
        <ele>37.6287</ele>
        <time>2013-05-05T11:55:12Z</time>
      </trkpt>
      <trkpt lat="59.9816375" lon="17.4466583">
        <ele>39.5513</ele>
        <time>2013-05-05T11:55:13Z</time>
      </trkpt>
      <trkpt lat="59.9816644" lon="17.4465822">
        <ele>39.5513</ele>
        <time>2013-05-05T11:55:14Z</time>
      </trkpt>
      <trkpt lat="59.9816887" lon="17.4465132">
        <ele>39.0707</ele>
        <time>2013-05-05T11:55:15Z</time>
      </trkpt>
      <trkpt lat="59.9817142" lon="17.4464477">
        <ele>39.0707</ele>
        <time>2013-05-05T11:55:16Z</time>
      </trkpt>
      <trkpt lat="59.9817391" lon="17.4463839">
        <ele>39.0707</ele>
        <time>2013-05-05T11:55:17Z</time>
      </trkpt>
      <trkpt lat="59.9817617" lon="17.446316">
        <ele>38.5901</ele>
        <time>2013-05-05T11:55:18Z</time>
      </trkpt>
      <trkpt lat="59.9817845" lon="17.4462486">
        <ele>38.1094</ele>
        <time>2013-05-05T11:55:19Z</time>
      </trkpt>
      <trkpt lat="59.9818096" lon="17.4461929">
        <ele>38.5901</ele>
        <time>2013-05-05T11:55:20Z</time>
      </trkpt>
      <trkpt lat="59.9818346" lon="17.4461359">
        <ele>39.0707</ele>
        <time>2013-05-05T11:55:21Z</time>
      </trkpt>
      <trkpt lat="59.9818592" lon="17.4460799">
        <ele>39.0707</ele>
        <time>2013-05-05T11:55:22Z</time>
      </trkpt>
      <trkpt lat="59.9818792" lon="17.4460182">
        <ele>37.6287</ele>
        <time>2013-05-05T11:55:23Z</time>
      </trkpt>
      <trkpt lat="59.9819021" lon="17.4459633">
        <ele>36.6675</ele>
        <time>2013-05-05T11:55:24Z</time>
      </trkpt>
      <trkpt lat="59.9819254" lon="17.4459166">
        <ele>36.1868</ele>
        <time>2013-05-05T11:55:25Z</time>
      </trkpt>
      <trkpt lat="59.9819494" lon="17.4458737">
        <ele>36.1868</ele>
        <time>2013-05-05T11:55:26Z</time>
      </trkpt>
      <trkpt lat="59.9819716" lon="17.4458303">
        <ele>35.2255</ele>
        <time>2013-05-05T11:55:27Z</time>
      </trkpt>
      <trkpt lat="59.9819944" lon="17.4457934">
        <ele>34.7449</ele>
        <time>2013-05-05T11:55:28Z</time>
      </trkpt>
      <trkpt lat="59.9820191" lon="17.4457587">
        <ele>34.2642</ele>
        <time>2013-05-05T11:55:29Z</time>
      </trkpt>
      <trkpt lat="59.9820439" lon="17.4457103">
        <ele>33.3029</ele>
        <time>2013-05-05T11:55:30Z</time>
      </trkpt>
      <trkpt lat="59.9820693" lon="17.4456597">
        <ele>32.8223</ele>
        <time>2013-05-05T11:55:31Z</time>
      </trkpt>
      <trkpt lat="59.9821052" lon="17.4456105">
        <ele>33.3029</ele>
        <time>2013-05-05T11:55:32Z</time>
      </trkpt>
      <trkpt lat="59.9821441" lon="17.4455612">
        <ele>34.2642</ele>
        <time>2013-05-05T11:55:33Z</time>
      </trkpt>
      <trkpt lat="59.982185" lon="17.4455043">
        <ele>35.2255</ele>
        <time>2013-05-05T11:55:34Z</time>
      </trkpt>
      <trkpt lat="59.9822257" lon="17.4454406">
        <ele>35.7061</ele>
        <time>2013-05-05T11:55:35Z</time>
      </trkpt>
      <trkpt lat="59.9822684" lon="17.4453821">
        <ele>36.1868</ele>
        <time>2013-05-05T11:55:36Z</time>
      </trkpt>
      <trkpt lat="59.982314" lon="17.4453245">
        <ele>36.1868</ele>
        <time>2013-05-05T11:55:37Z</time>
      </trkpt>
      <trkpt lat="59.9823673" lon="17.4452612">
        <ele>37.1481</ele>
        <time>2013-05-05T11:55:38Z</time>
      </trkpt>
      <trkpt lat="59.9824193" lon="17.445192">
        <ele>37.6287</ele>
        <time>2013-05-05T11:55:39Z</time>
      </trkpt>
      <trkpt lat="59.9824694" lon="17.4451152">
        <ele>37.6287</ele>
        <time>2013-05-05T11:55:40Z</time>
      </trkpt>
      <trkpt lat="59.9825203" lon="17.4450304">
        <ele>37.1481</ele>
        <time>2013-05-05T11:55:41Z</time>
      </trkpt>
      <trkpt lat="59.9825736" lon="17.444946">
        <ele>36.6675</ele>
        <time>2013-05-05T11:55:42Z</time>
      </trkpt>
      <trkpt lat="59.9826275" lon="17.444858">
        <ele>36.1868</ele>
        <time>2013-05-05T11:55:43Z</time>
      </trkpt>
      <trkpt lat="59.9826811" lon="17.4447703">
        <ele>35.7061</ele>
        <time>2013-05-05T11:55:44Z</time>
      </trkpt>
      <trkpt lat="59.9827371" lon="17.4446842">
        <ele>35.2255</ele>
        <time>2013-05-05T11:55:45Z</time>
      </trkpt>
      <trkpt lat="59.9827917" lon="17.4445978">
        <ele>34.7449</ele>
        <time>2013-05-05T11:55:46Z</time>
      </trkpt>
      <trkpt lat="59.9828544" lon="17.4445134">
        <ele>35.7061</ele>
        <time>2013-05-05T11:55:47Z</time>
      </trkpt>
      <trkpt lat="59.9829087" lon="17.4444284">
        <ele>35.2255</ele>
        <time>2013-05-05T11:55:48Z</time>
      </trkpt>
      <trkpt lat="59.982962" lon="17.4443459">
        <ele>34.7449</ele>
        <time>2013-05-05T11:55:49Z</time>
      </trkpt>
      <trkpt lat="59.9830142" lon="17.4442631">
        <ele>34.2642</ele>
        <time>2013-05-05T11:55:50Z</time>
      </trkpt>
      <trkpt lat="59.9830745" lon="17.4441824">
        <ele>35.7061</ele>
        <time>2013-05-05T11:55:51Z</time>
      </trkpt>
      <trkpt lat="59.9831336" lon="17.4440979">
        <ele>36.1868</ele>
        <time>2013-05-05T11:55:52Z</time>
      </trkpt>
      <trkpt lat="59.9831864" lon="17.4440121">
        <ele>35.7061</ele>
        <time>2013-05-05T11:55:53Z</time>
      </trkpt>
      <trkpt lat="59.9832383" lon="17.443924">
        <ele>35.2255</ele>
        <time>2013-05-05T11:55:54Z</time>
      </trkpt>
      <trkpt lat="59.9832879" lon="17.4438384">
        <ele>34.2642</ele>
        <time>2013-05-05T11:55:55Z</time>
      </trkpt>
      <trkpt lat="59.9833413" lon="17.443752">
        <ele>33.7834</ele>
        <time>2013-05-05T11:55:56Z</time>
      </trkpt>
      <trkpt lat="59.9833956" lon="17.4436658">
        <ele>33.3029</ele>
        <time>2013-05-05T11:55:57Z</time>
      </trkpt>
      <trkpt lat="59.9834583" lon="17.4435782">
        <ele>34.2642</ele>
        <time>2013-05-05T11:55:58Z</time>
      </trkpt>
      <trkpt lat="59.9835215" lon="17.4434892">
        <ele>35.2255</ele>
        <time>2013-05-05T11:55:59Z</time>
      </trkpt>
      <trkpt lat="59.9835853" lon="17.4433991">
        <ele>36.6675</ele>
        <time>2013-05-05T11:56:00Z</time>
      </trkpt>
      <trkpt lat="59.9836479" lon="17.4433085">
        <ele>37.1481</ele>
        <time>2013-05-05T11:56:01Z</time>
      </trkpt>
      <trkpt lat="59.9837093" lon="17.4432178">
        <ele>38.1094</ele>
        <time>2013-05-05T11:56:02Z</time>
      </trkpt>
      <trkpt lat="59.9837694" lon="17.4431257">
        <ele>38.5901</ele>
        <time>2013-05-05T11:56:03Z</time>
      </trkpt>
      <trkpt lat="59.9838281" lon="17.4430313">
        <ele>38.5901</ele>
        <time>2013-05-05T11:56:04Z</time>
      </trkpt>
      <trkpt lat="59.9838855" lon="17.4429344">
        <ele>39.0707</ele>
        <time>2013-05-05T11:56:05Z</time>
      </trkpt>
      <trkpt lat="59.9839402" lon="17.442834">
        <ele>39.5513</ele>
        <time>2013-05-05T11:56:06Z</time>
      </trkpt>
      <trkpt lat="59.9839939" lon="17.4427314">
        <ele>40.5128</ele>
        <time>2013-05-05T11:56:07Z</time>
      </trkpt>
      <trkpt lat="59.9840436" lon="17.4426259">
        <ele>40.5128</ele>
        <time>2013-05-05T11:56:08Z</time>
      </trkpt>
      <trkpt lat="59.9840991" lon="17.4425096">
        <ele>41.9547</ele>
        <time>2013-05-05T11:56:09Z</time>
      </trkpt>
      <trkpt lat="59.984154" lon="17.4423914">
        <ele>43.3966</ele>
        <time>2013-05-05T11:56:10Z</time>
      </trkpt>
      <trkpt lat="59.9842033" lon="17.4422797">
        <ele>43.8773</ele>
        <time>2013-05-05T11:56:11Z</time>
      </trkpt>
      <trkpt lat="59.9842533" lon="17.4421702">
        <ele>44.8386</ele>
        <time>2013-05-05T11:56:12Z</time>
      </trkpt>
      <trkpt lat="59.9842969" lon="17.4420565">
        <ele>44.8386</ele>
        <time>2013-05-05T11:56:13Z</time>
      </trkpt>
      <trkpt lat="59.9843394" lon="17.4419394">
        <ele>44.358</ele>
        <time>2013-05-05T11:56:14Z</time>
      </trkpt>
      <trkpt lat="59.9843829" lon="17.4418244">
        <ele>43.8773</ele>
        <time>2013-05-05T11:56:15Z</time>
      </trkpt>
      <trkpt lat="59.9844283" lon="17.4417078">
        <ele>43.3966</ele>
        <time>2013-05-05T11:56:16Z</time>
      </trkpt>
      <trkpt lat="59.9844734" lon="17.4415886">
        <ele>43.3966</ele>
        <time>2013-05-05T11:56:17Z</time>
      </trkpt>
      <trkpt lat="59.9845185" lon="17.4414642">
        <ele>42.916</ele>
        <time>2013-05-05T11:56:18Z</time>
      </trkpt>
      <trkpt lat="59.9845711" lon="17.4413397">
        <ele>42.4354</ele>
        <time>2013-05-05T11:56:19Z</time>
      </trkpt>
      <trkpt lat="59.9846241" lon="17.4412137">
        <ele>41.9547</ele>
        <time>2013-05-05T11:56:20Z</time>
      </trkpt>
      <trkpt lat="59.9846763" lon="17.4410914">
        <ele>42.4354</ele>
        <time>2013-05-05T11:56:21Z</time>
      </trkpt>
      <trkpt lat="59.9847295" lon="17.4409644">
        <ele>42.916</ele>
        <time>2013-05-05T11:56:22Z</time>
      </trkpt>
      <trkpt lat="59.9847795" lon="17.4408447">
        <ele>42.916</ele>
        <time>2013-05-05T11:56:23Z</time>
      </trkpt>
      <trkpt lat="59.9848265" lon="17.4407289">
        <ele>43.8773</ele>
        <time>2013-05-05T11:56:24Z</time>
      </trkpt>
      <trkpt lat="59.9848725" lon="17.4406108">
        <ele>44.358</ele>
        <time>2013-05-05T11:56:25Z</time>
      </trkpt>
      <trkpt lat="59.9849182" lon="17.440495">
        <ele>44.358</ele>
        <time>2013-05-05T11:56:26Z</time>
      </trkpt>
      <trkpt lat="59.9849642" lon="17.4403759">
        <ele>44.358</ele>
        <time>2013-05-05T11:56:27Z</time>
      </trkpt>
      <trkpt lat="59.9850103" lon="17.440257">
        <ele>44.8386</ele>
        <time>2013-05-05T11:56:28Z</time>
      </trkpt>
      <trkpt lat="59.9850569" lon="17.4401371">
        <ele>45.3192</ele>
        <time>2013-05-05T11:56:29Z</time>
      </trkpt>
      <trkpt lat="59.9851023" lon="17.4400154">
        <ele>46.2806</ele>
        <time>2013-05-05T11:56:30Z</time>
      </trkpt>
      <trkpt lat="59.9851484" lon="17.4398953">
        <ele>45.7999</ele>
        <time>2013-05-05T11:56:31Z</time>
      </trkpt>
      <trkpt lat="59.9851952" lon="17.4397781">
        <ele>46.2806</ele>
        <time>2013-05-05T11:56:32Z</time>
      </trkpt>
      <trkpt lat="59.985244" lon="17.4396642">
        <ele>46.7612</ele>
        <time>2013-05-05T11:56:33Z</time>
      </trkpt>
      <trkpt lat="59.9852926" lon="17.439546">
        <ele>46.7612</ele>
        <time>2013-05-05T11:56:34Z</time>
      </trkpt>
      <trkpt lat="59.9853424" lon="17.4394276">
        <ele>46.7612</ele>
        <time>2013-05-05T11:56:35Z</time>
      </trkpt>
      <trkpt lat="59.985391" lon="17.4393073">
        <ele>47.2418</ele>
        <time>2013-05-05T11:56:36Z</time>
      </trkpt>
      <trkpt lat="59.9854374" lon="17.4391836">
        <ele>47.7225</ele>
        <time>2013-05-05T11:56:37Z</time>
      </trkpt>
      <trkpt lat="59.9854863" lon="17.4390586">
        <ele>45.7999</ele>
        <time>2013-05-05T11:56:38Z</time>
      </trkpt>
      <trkpt lat="59.9855403" lon="17.4389479">
        <ele>45.3192</ele>
        <time>2013-05-05T11:56:39Z</time>
      </trkpt>
      <trkpt lat="59.9855955" lon="17.4388504">
        <ele>44.358</ele>
        <time>2013-05-05T11:56:40Z</time>
      </trkpt>
      <trkpt lat="59.9856486" lon="17.4387479">
        <ele>42.916</ele>
        <time>2013-05-05T11:56:41Z</time>
      </trkpt>
      <trkpt lat="59.9857011" lon="17.4386485">
        <ele>41.9547</ele>
        <time>2013-05-05T11:56:42Z</time>
      </trkpt>
      <trkpt lat="59.985749" lon="17.4385501">
        <ele>40.9934</ele>
        <time>2013-05-05T11:56:43Z</time>
      </trkpt>
      <trkpt lat="59.9857923" lon="17.4384435">
        <ele>39.0707</ele>
        <time>2013-05-05T11:56:44Z</time>
      </trkpt>
      <trkpt lat="59.9858283" lon="17.4383365">
        <ele>38.1094</ele>
        <time>2013-05-05T11:56:45Z</time>
      </trkpt>
      <trkpt lat="59.9858681" lon="17.4382352">
        <ele>38.1094</ele>
        <time>2013-05-05T11:56:46Z</time>
      </trkpt>
      <trkpt lat="59.9858948" lon="17.4381106">
        <ele>38.1094</ele>
        <time>2013-05-05T11:56:47Z</time>
      </trkpt>
      <trkpt lat="59.9859183" lon="17.4379814">
        <ele>38.1094</ele>
        <time>2013-05-05T11:56:48Z</time>
      </trkpt>
      <trkpt lat="59.9859391" lon="17.4378597">
        <ele>37.6287</ele>
        <time>2013-05-05T11:56:49Z</time>
      </trkpt>
      <trkpt lat="59.9859557" lon="17.4377371">
        <ele>36.1868</ele>
        <time>2013-05-05T11:56:50Z</time>
      </trkpt>
      <trkpt lat="59.9859712" lon="17.4376125">
        <ele>35.2255</ele>
        <time>2013-05-05T11:56:51Z</time>
      </trkpt>
      <trkpt lat="59.9859863" lon="17.4374813">
        <ele>34.2642</ele>
        <time>2013-05-05T11:56:52Z</time>
      </trkpt>
      <trkpt lat="59.9860027" lon="17.4373445">
        <ele>33.7834</ele>
        <time>2013-05-05T11:56:53Z</time>
      </trkpt>
      <trkpt lat="59.98602" lon="17.4372072">
        <ele>34.7449</ele>
        <time>2013-05-05T11:56:54Z</time>
      </trkpt>
      <trkpt lat="59.9860384" lon="17.4370702">
        <ele>35.2255</ele>
        <time>2013-05-05T11:56:55Z</time>
      </trkpt>
      <trkpt lat="59.9860592" lon="17.4369349">
        <ele>35.7061</ele>
        <time>2013-05-05T11:56:56Z</time>
      </trkpt>
      <trkpt lat="59.986082" lon="17.4367914">
        <ele>34.7449</ele>
        <time>2013-05-05T11:56:57Z</time>
      </trkpt>
      <trkpt lat="59.9861043" lon="17.4366597">
        <ele>35.2255</ele>
        <time>2013-05-05T11:56:58Z</time>
      </trkpt>
      <trkpt lat="59.9861251" lon="17.4365345">
        <ele>33.7834</ele>
        <time>2013-05-05T11:56:59Z</time>
      </trkpt>
      <trkpt lat="59.9861591" lon="17.4364268">
        <ele>33.3029</ele>
        <time>2013-05-05T11:57:00Z</time>
      </trkpt>
      <trkpt lat="59.9861985" lon="17.436307">
        <ele>32.8223</ele>
        <time>2013-05-05T11:57:01Z</time>
      </trkpt>
      <trkpt lat="59.9862272" lon="17.436189">
        <ele>31.8607</ele>
        <time>2013-05-05T11:57:02Z</time>
      </trkpt>
      <trkpt lat="59.9862605" lon="17.4360665">
        <ele>32.8223</ele>
        <time>2013-05-05T11:57:03Z</time>
      </trkpt>
      <trkpt lat="59.9862869" lon="17.4359367">
        <ele>31.8607</ele>
        <time>2013-05-05T11:57:04Z</time>
      </trkpt>
      <trkpt lat="59.9863123" lon="17.4357973">
        <ele>33.7834</ele>
        <time>2013-05-05T11:57:05Z</time>
      </trkpt>
      <trkpt lat="59.9863284" lon="17.435648">
        <ele>35.2255</ele>
        <time>2013-05-05T11:57:06Z</time>
      </trkpt>
      <trkpt lat="59.9863559" lon="17.4355151">
        <ele>36.1868</ele>
        <time>2013-05-05T11:57:07Z</time>
      </trkpt>
      <trkpt lat="59.9863869" lon="17.4353891">
        <ele>37.1481</ele>
        <time>2013-05-05T11:57:08Z</time>
      </trkpt>
      <trkpt lat="59.986418" lon="17.4352755">
        <ele>37.6287</ele>
        <time>2013-05-05T11:57:09Z</time>
      </trkpt>
      <trkpt lat="59.9864493" lon="17.4351638">
        <ele>38.1094</ele>
        <time>2013-05-05T11:57:10Z</time>
      </trkpt>
      <trkpt lat="59.986481" lon="17.4350629">
        <ele>38.5901</ele>
        <time>2013-05-05T11:57:11Z</time>
      </trkpt>
      <trkpt lat="59.9865102" lon="17.4349478">
        <ele>39.0707</ele>
        <time>2013-05-05T11:57:12Z</time>
      </trkpt>
      <trkpt lat="59.9865375" lon="17.4348445">
        <ele>39.0707</ele>
        <time>2013-05-05T11:57:13Z</time>
      </trkpt>
      <trkpt lat="59.9865683" lon="17.4347437">
        <ele>39.5513</ele>
        <time>2013-05-05T11:57:14Z</time>
      </trkpt>
      <trkpt lat="59.9866021" lon="17.4346355">
        <ele>40.5128</ele>
        <time>2013-05-05T11:57:15Z</time>
      </trkpt>
      <trkpt lat="59.9866399" lon="17.4345282">
        <ele>41.474</ele>
        <time>2013-05-05T11:57:16Z</time>
      </trkpt>
      <trkpt lat="59.9866791" lon="17.4344112">
        <ele>39.5513</ele>
        <time>2013-05-05T11:57:17Z</time>
      </trkpt>
      <trkpt lat="59.9867192" lon="17.434303">
        <ele>38.5901</ele>
        <time>2013-05-05T11:57:18Z</time>
      </trkpt>
      <trkpt lat="59.9867621" lon="17.4341961">
        <ele>37.6287</ele>
        <time>2013-05-05T11:57:19Z</time>
      </trkpt>
      <trkpt lat="59.9868021" lon="17.4340836">
        <ele>36.6675</ele>
        <time>2013-05-05T11:57:20Z</time>
      </trkpt>
      <trkpt lat="59.9868418" lon="17.4339771">
        <ele>35.2255</ele>
        <time>2013-05-05T11:57:21Z</time>
      </trkpt>
      <trkpt lat="59.9868823" lon="17.4338786">
        <ele>35.2255</ele>
        <time>2013-05-05T11:57:22Z</time>
      </trkpt>
      <trkpt lat="59.9869244" lon="17.433794">
        <ele>35.7061</ele>
        <time>2013-05-05T11:57:23Z</time>
      </trkpt>
      <trkpt lat="59.9869664" lon="17.4336964">
        <ele>35.2255</ele>
        <time>2013-05-05T11:57:24Z</time>
      </trkpt>
      <trkpt lat="59.9870082" lon="17.4335975">
        <ele>35.2255</ele>
        <time>2013-05-05T11:57:25Z</time>
      </trkpt>
      <trkpt lat="59.9870388" lon="17.4335035">
        <ele>35.7061</ele>
        <time>2013-05-05T11:57:26Z</time>
      </trkpt>
      <trkpt lat="59.9870746" lon="17.4334084">
        <ele>35.7061</ele>
        <time>2013-05-05T11:57:27Z</time>
      </trkpt>
      <trkpt lat="59.9871077" lon="17.43331">
        <ele>36.6675</ele>
        <time>2013-05-05T11:57:28Z</time>
      </trkpt>
      <trkpt lat="59.9871443" lon="17.4332074">
        <ele>37.6287</ele>
        <time>2013-05-05T11:57:29Z</time>
      </trkpt>
      <trkpt lat="59.9871848" lon="17.4331089">
        <ele>37.1481</ele>
        <time>2013-05-05T11:57:30Z</time>
      </trkpt>
      <trkpt lat="59.9872147" lon="17.4329928">
        <ele>36.6675</ele>
        <time>2013-05-05T11:57:31Z</time>
      </trkpt>
      <trkpt lat="59.9872432" lon="17.4328864">
        <ele>36.6675</ele>
        <time>2013-05-05T11:57:32Z</time>
      </trkpt>
      <trkpt lat="59.9872771" lon="17.4327767">
        <ele>38.1094</ele>
        <time>2013-05-05T11:57:33Z</time>
      </trkpt>
      <trkpt lat="59.9873173" lon="17.4326799">
        <ele>38.5901</ele>
        <time>2013-05-05T11:57:34Z</time>
      </trkpt>
      <trkpt lat="59.98736" lon="17.4325728">
        <ele>38.5901</ele>
        <time>2013-05-05T11:57:35Z</time>
      </trkpt>
      <trkpt lat="59.9873962" lon="17.4324628">
        <ele>37.6287</ele>
        <time>2013-05-05T11:57:36Z</time>
      </trkpt>
      <trkpt lat="59.9874346" lon="17.4323527">
        <ele>37.1481</ele>
        <time>2013-05-05T11:57:37Z</time>
      </trkpt>
      <trkpt lat="59.9874734" lon="17.432251">
        <ele>37.6287</ele>
        <time>2013-05-05T11:57:38Z</time>
      </trkpt>
      <trkpt lat="59.9875069" lon="17.4321582">
        <ele>38.1094</ele>
        <time>2013-05-05T11:57:39Z</time>
      </trkpt>
      <trkpt lat="59.9875381" lon="17.4320739">
        <ele>39.0707</ele>
        <time>2013-05-05T11:57:40Z</time>
      </trkpt>
      <trkpt lat="59.9875747" lon="17.4319817">
        <ele>40.5128</ele>
        <time>2013-05-05T11:57:41Z</time>
      </trkpt>
      <trkpt lat="59.9876122" lon="17.4318825">
        <ele>41.474</ele>
        <time>2013-05-05T11:57:42Z</time>
      </trkpt>
      <trkpt lat="59.9876464" lon="17.4317838">
        <ele>41.9547</ele>
        <time>2013-05-05T11:57:43Z</time>
      </trkpt>
      <trkpt lat="59.9876791" lon="17.4316925">
        <ele>42.916</ele>
        <time>2013-05-05T11:57:44Z</time>
      </trkpt>
      <trkpt lat="59.9877174" lon="17.4315745">
        <ele>44.8386</ele>
        <time>2013-05-05T11:57:45Z</time>
      </trkpt>
      <trkpt lat="59.9877495" lon="17.4314568">
        <ele>45.7999</ele>
        <time>2013-05-05T11:57:46Z</time>
      </trkpt>
      <trkpt lat="59.9877872" lon="17.4313285">
        <ele>46.7612</ele>
        <time>2013-05-05T11:57:47Z</time>
      </trkpt>
      <trkpt lat="59.987821" lon="17.4312094">
        <ele>47.2418</ele>
        <time>2013-05-05T11:57:48Z</time>
      </trkpt>
      <trkpt lat="59.9878535" lon="17.4310948">
        <ele>47.7225</ele>
        <time>2013-05-05T11:57:49Z</time>
      </trkpt>
      <trkpt lat="59.9878894" lon="17.4309804">
        <ele>48.684</ele>
        <time>2013-05-05T11:57:50Z</time>
      </trkpt>
      <trkpt lat="59.9879256" lon="17.4308675">
        <ele>48.684</ele>
        <time>2013-05-05T11:57:51Z</time>
      </trkpt>
      <trkpt lat="59.9879614" lon="17.4307504">
        <ele>48.684</ele>
        <time>2013-05-05T11:57:52Z</time>
      </trkpt>
      <trkpt lat="59.9879961" lon="17.430636">
        <ele>49.1646</ele>
        <time>2013-05-05T11:57:53Z</time>
      </trkpt>
      <trkpt lat="59.9880256" lon="17.4305363">
        <ele>49.1646</ele>
        <time>2013-05-05T11:57:54Z</time>
      </trkpt>
      <trkpt lat="59.9880597" lon="17.4304477">
        <ele>51.0872</ele>
        <time>2013-05-05T11:57:55Z</time>
      </trkpt>
      <trkpt lat="59.9880878" lon="17.4303412">
        <ele>51.5679</ele>
        <time>2013-05-05T11:57:56Z</time>
      </trkpt>
      <trkpt lat="59.9881162" lon="17.4302236">
        <ele>47.7225</ele>
        <time>2013-05-05T11:57:57Z</time>
      </trkpt>
      <trkpt lat="59.9881432" lon="17.4301132">
        <ele>44.358</ele>
        <time>2013-05-05T11:57:58Z</time>
      </trkpt>
      <trkpt lat="59.9881741" lon="17.4300101">
        <ele>43.3966</ele>
        <time>2013-05-05T11:57:59Z</time>
      </trkpt>
      <trkpt lat="59.9881997" lon="17.429905">
        <ele>41.9547</ele>
        <time>2013-05-05T11:58:00Z</time>
      </trkpt>
      <trkpt lat="59.9882231" lon="17.4297957">
        <ele>40.5128</ele>
        <time>2013-05-05T11:58:01Z</time>
      </trkpt>
      <trkpt lat="59.9882424" lon="17.4296869">
        <ele>39.5513</ele>
        <time>2013-05-05T11:58:02Z</time>
      </trkpt>
      <trkpt lat="59.98826" lon="17.4295786">
        <ele>39.5513</ele>
        <time>2013-05-05T11:58:03Z</time>
      </trkpt>
      <trkpt lat="59.988268" lon="17.4294501">
        <ele>38.5901</ele>
        <time>2013-05-05T11:58:04Z</time>
      </trkpt>
      <trkpt lat="59.9882722" lon="17.4293202">
        <ele>37.1481</ele>
        <time>2013-05-05T11:58:05Z</time>
      </trkpt>
      <trkpt lat="59.9882771" lon="17.4292066">
        <ele>35.2255</ele>
        <time>2013-05-05T11:58:06Z</time>
      </trkpt>
      <trkpt lat="59.9882808" lon="17.4290828">
        <ele>33.7834</ele>
        <time>2013-05-05T11:58:07Z</time>
      </trkpt>
      <trkpt lat="59.9882749" lon="17.4289314">
        <ele>31.3801</ele>
        <time>2013-05-05T11:58:08Z</time>
      </trkpt>
      <trkpt lat="59.9882779" lon="17.4287958">
        <ele>29.4575</ele>
        <time>2013-05-05T11:58:09Z</time>
      </trkpt>
      <trkpt lat="59.9882844" lon="17.4286705">
        <ele>27.5349</ele>
        <time>2013-05-05T11:58:10Z</time>
      </trkpt>
      <trkpt lat="59.9882857" lon="17.4285494">
        <ele>25.1317</ele>
        <time>2013-05-05T11:58:11Z</time>
      </trkpt>
      <trkpt lat="59.9882933" lon="17.4284235">
        <ele>24.1703</ele>
        <time>2013-05-05T11:58:12Z</time>
      </trkpt>
      <trkpt lat="59.9882934" lon="17.4282903">
        <ele>22.2476</ele>
        <time>2013-05-05T11:58:13Z</time>
      </trkpt>
      <trkpt lat="59.9882945" lon="17.4281556">
        <ele>20.8057</ele>
        <time>2013-05-05T11:58:14Z</time>
      </trkpt>
      <trkpt lat="59.9883043" lon="17.4280187">
        <ele>19.8444</ele>
        <time>2013-05-05T11:58:15Z</time>
      </trkpt>
      <trkpt lat="59.9883058" lon="17.4278784">
        <ele>18.4023</ele>
        <time>2013-05-05T11:58:16Z</time>
      </trkpt>
      <trkpt lat="59.988315" lon="17.4277616">
        <ele>17.4412</ele>
        <time>2013-05-05T11:58:17Z</time>
      </trkpt>
      <trkpt lat="59.9883256" lon="17.4276553">
        <ele>15.999</ele>
        <time>2013-05-05T11:58:18Z</time>
      </trkpt>
      <trkpt lat="59.9883317" lon="17.4275779">
        <ele>14.0764</ele>
        <time>2013-05-05T11:58:19Z</time>
      </trkpt>
      <trkpt lat="59.988328" lon="17.4275176">
        <ele>12.1538</ele>
        <time>2013-05-05T11:58:20Z</time>
      </trkpt>
      <trkpt lat="59.9883291" lon="17.4274583">
        <ele>10.7118</ele>
        <time>2013-05-05T11:58:21Z</time>
      </trkpt>
      <trkpt lat="59.9883328" lon="17.4273921">
        <ele>10.2312</ele>
        <time>2013-05-05T11:58:22Z</time>
      </trkpt>
      <trkpt lat="59.9883341" lon="17.4273164">
        <ele>7.82788</ele>
        <time>2013-05-05T11:58:23Z</time>
      </trkpt>
      <trkpt lat="59.9883368" lon="17.4272433">
        <ele>6.38586</ele>
        <time>2013-05-05T11:58:24Z</time>
      </trkpt>
      <trkpt lat="59.9883399" lon="17.4271487">
        <ele>4.94385</ele>
        <time>2013-05-05T11:58:25Z</time>
      </trkpt>
      <trkpt lat="59.9883436" lon="17.4270534">
        <ele>4.94385</ele>
        <time>2013-05-05T11:58:26Z</time>
      </trkpt>
      <trkpt lat="59.9883347" lon="17.4269704">
        <ele>2.54065</ele>
        <time>2013-05-05T11:58:27Z</time>
      </trkpt>
      <trkpt lat="59.9883344" lon="17.4268772">
        <ele>1.09863</ele>
        <time>2013-05-05T11:58:28Z</time>
      </trkpt>
      <trkpt lat="59.9883342" lon="17.4267748">
        <ele>0.618042</ele>
        <time>2013-05-05T11:58:29Z</time>
      </trkpt>
      <trkpt lat="59.9883317" lon="17.4266735">
        <ele>0</ele>
        <time>2013-05-05T11:58:30Z</time>
      </trkpt>
      <trkpt lat="59.9883368" lon="17.4265633">
        <ele>0</ele>
        <time>2013-05-05T11:58:31Z</time>
      </trkpt>
      <trkpt lat="59.9883395" lon="17.4264559">
        <ele>0</ele>
        <time>2013-05-05T11:58:32Z</time>
      </trkpt>
      <trkpt lat="59.9883421" lon="17.4263556">
        <ele>0</ele>
        <time>2013-05-05T11:58:33Z</time>
      </trkpt>
      <trkpt lat="59.9883451" lon="17.4262645">
        <ele>0</ele>
        <time>2013-05-05T11:58:34Z</time>
      </trkpt>
      <trkpt lat="59.9883411" lon="17.426168">
        <ele>0</ele>
        <time>2013-05-05T11:58:35Z</time>
      </trkpt>
      <trkpt lat="59.9883437" lon="17.4260508">
        <ele>0</ele>
        <time>2013-05-05T11:58:36Z</time>
      </trkpt>
      <trkpt lat="59.9883452" lon="17.4259433">
        <ele>0</ele>
        <time>2013-05-05T11:58:37Z</time>
      </trkpt>
      <trkpt lat="59.9883422" lon="17.4258272">
        <ele>0</ele>
        <time>2013-05-05T11:58:38Z</time>
      </trkpt>
      <trkpt lat="59.9883395" lon="17.4256996">
        <ele>0</ele>
        <time>2013-05-05T11:58:39Z</time>
      </trkpt>
      <trkpt lat="59.9883374" lon="17.4255801">
        <ele>0</ele>
        <time>2013-05-05T11:58:40Z</time>
      </trkpt>
      <trkpt lat="59.988331" lon="17.4254677">
        <ele>0</ele>
        <time>2013-05-05T11:58:41Z</time>
      </trkpt>
      <trkpt lat="59.9883233" lon="17.4253589">
        <ele>0</ele>
        <time>2013-05-05T11:58:42Z</time>
      </trkpt>
      <trkpt lat="59.9883191" lon="17.4252542">
        <ele>0</ele>
        <time>2013-05-05T11:58:43Z</time>
      </trkpt>
      <trkpt lat="59.9883202" lon="17.4251422">
        <ele>0</ele>
        <time>2013-05-05T11:58:44Z</time>
      </trkpt>
      <trkpt lat="59.9883178" lon="17.4250348">
        <ele>0</ele>
        <time>2013-05-05T11:58:45Z</time>
      </trkpt>
      <trkpt lat="59.9883148" lon="17.4249352">
        <ele>0</ele>
        <time>2013-05-05T11:58:46Z</time>
      </trkpt>
      <trkpt lat="59.9883116" lon="17.4248273">
        <ele>0</ele>
        <time>2013-05-05T11:58:47Z</time>
      </trkpt>
      <trkpt lat="59.9883064" lon="17.4247254">
        <ele>0</ele>
        <time>2013-05-05T11:58:48Z</time>
      </trkpt>
      <trkpt lat="59.9883028" lon="17.42462">
        <ele>0</ele>
        <time>2013-05-05T11:58:49Z</time>
      </trkpt>
      <trkpt lat="59.9882943" lon="17.4245113">
        <ele>0</ele>
        <time>2013-05-05T11:58:50Z</time>
      </trkpt>
      <trkpt lat="59.988283" lon="17.4244017">
        <ele>0</ele>
        <time>2013-05-05T11:58:51Z</time>
      </trkpt>
      <trkpt lat="59.9882756" lon="17.424281">
        <ele>0</ele>
        <time>2013-05-05T11:58:52Z</time>
      </trkpt>
      <trkpt lat="59.9882685" lon="17.4241559">
        <ele>0</ele>
        <time>2013-05-05T11:58:53Z</time>
      </trkpt>
      <trkpt lat="59.9882604" lon="17.4240193">
        <ele>0</ele>
        <time>2013-05-05T11:58:54Z</time>
      </trkpt>
      <trkpt lat="59.988251" lon="17.4238872">
        <ele>0</ele>
        <time>2013-05-05T11:58:55Z</time>
      </trkpt>
      <trkpt lat="59.9882385" lon="17.4237453">
        <ele>0</ele>
        <time>2013-05-05T11:58:56Z</time>
      </trkpt>
      <trkpt lat="59.988225" lon="17.423597">
        <ele>0</ele>
        <time>2013-05-05T11:58:57Z</time>
      </trkpt>
      <trkpt lat="59.9882126" lon="17.4234408">
        <ele>0.137451</ele>
        <time>2013-05-05T11:58:58Z</time>
      </trkpt>
      <trkpt lat="59.9881989" lon="17.4232911">
        <ele>0.137451</ele>
        <time>2013-05-05T11:58:59Z</time>
      </trkpt>
      <trkpt lat="59.9881841" lon="17.4231402">
        <ele>0.618042</ele>
        <time>2013-05-05T11:59:00Z</time>
      </trkpt>
      <trkpt lat="59.9881675" lon="17.4229899">
        <ele>1.09863</ele>
        <time>2013-05-05T11:59:01Z</time>
      </trkpt>
      <trkpt lat="59.9881542" lon="17.4228286">
        <ele>2.06006</ele>
        <time>2013-05-05T11:59:02Z</time>
      </trkpt>
      <trkpt lat="59.9881435" lon="17.4226751">
        <ele>3.50195</ele>
        <time>2013-05-05T11:59:03Z</time>
      </trkpt>
      <trkpt lat="59.9881308" lon="17.4225268">
        <ele>4.46326</ele>
        <time>2013-05-05T11:59:04Z</time>
      </trkpt>
      <trkpt lat="59.9881198" lon="17.4223824">
        <ele>5.42456</ele>
        <time>2013-05-05T11:59:05Z</time>
      </trkpt>
      <trkpt lat="59.9881034" lon="17.4222494">
        <ele>5.90527</ele>
        <time>2013-05-05T11:59:06Z</time>
      </trkpt>
      <trkpt lat="59.9880914" lon="17.4221218">
        <ele>6.86646</ele>
        <time>2013-05-05T11:59:07Z</time>
      </trkpt>
      <trkpt lat="59.9880803" lon="17.4219857">
        <ele>7.82788</ele>
        <time>2013-05-05T11:59:08Z</time>
      </trkpt>
      <trkpt lat="59.9880702" lon="17.421853">
        <ele>7.82788</ele>
        <time>2013-05-05T11:59:09Z</time>
      </trkpt>
      <trkpt lat="59.9880562" lon="17.4217163">
        <ele>7.82788</ele>
        <time>2013-05-05T11:59:10Z</time>
      </trkpt>
      <trkpt lat="59.9880468" lon="17.4215759">
        <ele>7.82788</ele>
        <time>2013-05-05T11:59:11Z</time>
      </trkpt>
      <trkpt lat="59.9880342" lon="17.4214371">
        <ele>7.82788</ele>
        <time>2013-05-05T11:59:12Z</time>
      </trkpt>
      <trkpt lat="59.9880183" lon="17.4212957">
        <ele>6.86646</ele>
        <time>2013-05-05T11:59:13Z</time>
      </trkpt>
      <trkpt lat="59.9880065" lon="17.4211475">
        <ele>7.34717</ele>
        <time>2013-05-05T11:59:14Z</time>
      </trkpt>
      <trkpt lat="59.9879934" lon="17.4209969">
        <ele>7.34717</ele>
        <time>2013-05-05T11:59:15Z</time>
      </trkpt>
      <trkpt lat="59.987978" lon="17.4208347">
        <ele>8.78918</ele>
        <time>2013-05-05T11:59:16Z</time>
      </trkpt>
      <trkpt lat="59.9879615" lon="17.4206865">
        <ele>8.78918</ele>
        <time>2013-05-05T11:59:17Z</time>
      </trkpt>
      <trkpt lat="59.9879489" lon="17.4205373">
        <ele>10.2312</ele>
        <time>2013-05-05T11:59:18Z</time>
      </trkpt>
      <trkpt lat="59.9879344" lon="17.4203836">
        <ele>12.6344</ele>
        <time>2013-05-05T11:59:19Z</time>
      </trkpt>
      <trkpt lat="59.9879213" lon="17.4202323">
        <ele>14.0764</ele>
        <time>2013-05-05T11:59:20Z</time>
      </trkpt>
      <trkpt lat="59.987907" lon="17.4200812">
        <ele>15.5184</ele>
        <time>2013-05-05T11:59:21Z</time>
      </trkpt>
      <trkpt lat="59.9878933" lon="17.4199276">
        <ele>17.4412</ele>
        <time>2013-05-05T11:59:22Z</time>
      </trkpt>
      <trkpt lat="59.9878717" lon="17.4197608">
        <ele>20.325</ele>
        <time>2013-05-05T11:59:23Z</time>
      </trkpt>
      <trkpt lat="59.9878482" lon="17.4195971">
        <ele>21.767</ele>
        <time>2013-05-05T11:59:24Z</time>
      </trkpt>
      <trkpt lat="59.9878249" lon="17.4194288">
        <ele>23.6896</ele>
        <time>2013-05-05T11:59:25Z</time>
      </trkpt>
      <trkpt lat="59.9878065" lon="17.4192822">
        <ele>23.6896</ele>
        <time>2013-05-05T11:59:26Z</time>
      </trkpt>
      <trkpt lat="59.9877954" lon="17.4191266">
        <ele>23.6896</ele>
        <time>2013-05-05T11:59:27Z</time>
      </trkpt>
      <trkpt lat="59.9877802" lon="17.4189569">
        <ele>24.1703</ele>
        <time>2013-05-05T11:59:28Z</time>
      </trkpt>
      <trkpt lat="59.9877683" lon="17.4187863">
        <ele>25.1317</ele>
        <time>2013-05-05T11:59:29Z</time>
      </trkpt>
      <trkpt lat="59.9877551" lon="17.4186169">
        <ele>24.651</ele>
        <time>2013-05-05T11:59:30Z</time>
      </trkpt>
      <trkpt lat="59.9877448" lon="17.4184407">
        <ele>25.1317</ele>
        <time>2013-05-05T11:59:31Z</time>
      </trkpt>
      <trkpt lat="59.987734" lon="17.4182626">
        <ele>25.6123</ele>
        <time>2013-05-05T11:59:32Z</time>
      </trkpt>
      <trkpt lat="59.9877231" lon="17.4180839">
        <ele>26.0929</ele>
        <time>2013-05-05T11:59:33Z</time>
      </trkpt>
      <trkpt lat="59.9877131" lon="17.4179021">
        <ele>26.5736</ele>
        <time>2013-05-05T11:59:34Z</time>
      </trkpt>
      <trkpt lat="59.9877032" lon="17.4177168">
        <ele>26.5736</ele>
        <time>2013-05-05T11:59:35Z</time>
      </trkpt>
      <trkpt lat="59.987691" lon="17.4175261">
        <ele>27.0543</ele>
        <time>2013-05-05T11:59:36Z</time>
      </trkpt>
      <trkpt lat="59.9876811" lon="17.4173359">
        <ele>27.0543</ele>
        <time>2013-05-05T11:59:37Z</time>
      </trkpt>
      <trkpt lat="59.9876711" lon="17.4171465">
        <ele>27.5349</ele>
        <time>2013-05-05T11:59:38Z</time>
      </trkpt>
      <trkpt lat="59.9876604" lon="17.4169584">
        <ele>27.5349</ele>
        <time>2013-05-05T11:59:39Z</time>
      </trkpt>
      <trkpt lat="59.9876504" lon="17.4167709">
        <ele>27.5349</ele>
        <time>2013-05-05T11:59:40Z</time>
      </trkpt>
      <trkpt lat="59.9876415" lon="17.4165854">
        <ele>27.5349</ele>
        <time>2013-05-05T11:59:41Z</time>
      </trkpt>
      <trkpt lat="59.9876325" lon="17.4164025">
        <ele>27.5349</ele>
        <time>2013-05-05T11:59:42Z</time>
      </trkpt>
      <trkpt lat="59.9876232" lon="17.4162223">
        <ele>28.0155</ele>
        <time>2013-05-05T11:59:43Z</time>
      </trkpt>
      <trkpt lat="59.9876134" lon="17.4160431">
        <ele>28.0155</ele>
        <time>2013-05-05T11:59:44Z</time>
      </trkpt>
      <trkpt lat="59.987604" lon="17.4158664">
        <ele>28.0155</ele>
        <time>2013-05-05T11:59:45Z</time>
      </trkpt>
      <trkpt lat="59.9875962" lon="17.4156929">
        <ele>28.0155</ele>
        <time>2013-05-05T11:59:46Z</time>
      </trkpt>
      <trkpt lat="59.9875897" lon="17.4155217">
        <ele>28.4962</ele>
        <time>2013-05-05T11:59:47Z</time>
      </trkpt>
      <trkpt lat="59.9875828" lon="17.4153529">
        <ele>28.4962</ele>
        <time>2013-05-05T11:59:48Z</time>
      </trkpt>
      <trkpt lat="59.9875744" lon="17.4151858">
        <ele>28.0155</ele>
        <time>2013-05-05T11:59:49Z</time>
      </trkpt>
      <trkpt lat="59.9875651" lon="17.4150288">
        <ele>28.4962</ele>
        <time>2013-05-05T11:59:50Z</time>
      </trkpt>
      <trkpt lat="59.9875573" lon="17.4148806">
        <ele>28.9769</ele>
        <time>2013-05-05T11:59:51Z</time>
      </trkpt>
      <trkpt lat="59.9875528" lon="17.4147416">
        <ele>28.9769</ele>
        <time>2013-05-05T11:59:52Z</time>
      </trkpt>
      <trkpt lat="59.987552" lon="17.4146105">
        <ele>28.9769</ele>
        <time>2013-05-05T11:59:53Z</time>
      </trkpt>
      <trkpt lat="59.9875515" lon="17.414487">
        <ele>28.9769</ele>
        <time>2013-05-05T11:59:54Z</time>
      </trkpt>
      <trkpt lat="59.9875528" lon="17.4143622">
        <ele>28.9769</ele>
        <time>2013-05-05T11:59:55Z</time>
      </trkpt>
      <trkpt lat="59.9875583" lon="17.4142492">
        <ele>28.4962</ele>
        <time>2013-05-05T11:59:56Z</time>
      </trkpt>
      <trkpt lat="59.9875597" lon="17.4141309">
        <ele>28.0155</ele>
        <time>2013-05-05T11:59:57Z</time>
      </trkpt>
      <trkpt lat="59.9875535" lon="17.4140153">
        <ele>27.0543</ele>
        <time>2013-05-05T11:59:58Z</time>
      </trkpt>
      <trkpt lat="59.987552" lon="17.4139041">
        <ele>26.0929</ele>
        <time>2013-05-05T11:59:59Z</time>
      </trkpt>
      <trkpt lat="59.9875506" lon="17.4137913">
        <ele>24.651</ele>
        <time>2013-05-05T12:00:00Z</time>
      </trkpt>
      <trkpt lat="59.9875506" lon="17.4136747">
        <ele>24.651</ele>
        <time>2013-05-05T12:00:01Z</time>
      </trkpt>
      <trkpt lat="59.9875476" lon="17.4135571">
        <ele>25.1317</ele>
        <time>2013-05-05T12:00:02Z</time>
      </trkpt>
      <trkpt lat="59.9875387" lon="17.4134275">
        <ele>24.1703</ele>
        <time>2013-05-05T12:00:03Z</time>
      </trkpt>
      <trkpt lat="59.9875356" lon="17.4133059">
        <ele>23.6896</ele>
        <time>2013-05-05T12:00:04Z</time>
      </trkpt>
      <trkpt lat="59.9875382" lon="17.4131878">
        <ele>23.6896</ele>
        <time>2013-05-05T12:00:05Z</time>
      </trkpt>
      <trkpt lat="59.9875464" lon="17.4130768">
        <ele>24.1703</ele>
        <time>2013-05-05T12:00:06Z</time>
      </trkpt>
      <trkpt lat="59.98755" lon="17.4129776">
        <ele>23.6896</ele>
        <time>2013-05-05T12:00:07Z</time>
      </trkpt>
      <trkpt lat="59.9875538" lon="17.4128876">
        <ele>22.7283</ele>
        <time>2013-05-05T12:00:08Z</time>
      </trkpt>
      <trkpt lat="59.9875635" lon="17.4127972">
        <ele>22.2476</ele>
        <time>2013-05-05T12:00:09Z</time>
      </trkpt>
      <trkpt lat="59.9875761" lon="17.4126999">
        <ele>21.767</ele>
        <time>2013-05-05T12:00:10Z</time>
      </trkpt>
      <trkpt lat="59.9875883" lon="17.4126029">
        <ele>21.2864</ele>
        <time>2013-05-05T12:00:11Z</time>
      </trkpt>
      <trkpt lat="59.9875946" lon="17.4125048">
        <ele>20.8057</ele>
        <time>2013-05-05T12:00:12Z</time>
      </trkpt>
      <trkpt lat="59.9875999" lon="17.4124045">
        <ele>19.8444</ele>
        <time>2013-05-05T12:00:13Z</time>
      </trkpt>
      <trkpt lat="59.9876039" lon="17.412301">
        <ele>18.4023</ele>
        <time>2013-05-05T12:00:14Z</time>
      </trkpt>
      <trkpt lat="59.987605" lon="17.4121976">
        <ele>16.9604</ele>
        <time>2013-05-05T12:00:15Z</time>
      </trkpt>
      <trkpt lat="59.987602" lon="17.412088">
        <ele>15.0377</ele>
        <time>2013-05-05T12:00:16Z</time>
      </trkpt>
      <trkpt lat="59.9875993" lon="17.4119746">
        <ele>13.1151</ele>
        <time>2013-05-05T12:00:17Z</time>
      </trkpt>
      <trkpt lat="59.9875956" lon="17.4118552">
        <ele>12.1538</ele>
        <time>2013-05-05T12:00:18Z</time>
      </trkpt>
      <trkpt lat="59.9875899" lon="17.4117264">
        <ele>12.1538</ele>
        <time>2013-05-05T12:00:19Z</time>
      </trkpt>
      <trkpt lat="59.9875827" lon="17.4115955">
        <ele>11.6732</ele>
        <time>2013-05-05T12:00:20Z</time>
      </trkpt>
      <trkpt lat="59.9875734" lon="17.4114706">
        <ele>11.1925</ele>
        <time>2013-05-05T12:00:21Z</time>
      </trkpt>
      <trkpt lat="59.9875699" lon="17.4113461">
        <ele>10.7118</ele>
        <time>2013-05-05T12:00:22Z</time>
      </trkpt>
      <trkpt lat="59.9875675" lon="17.4112239">
        <ele>10.7118</ele>
        <time>2013-05-05T12:00:23Z</time>
      </trkpt>
      <trkpt lat="59.9875624" lon="17.4111007">
        <ele>10.7118</ele>
        <time>2013-05-05T12:00:24Z</time>
      </trkpt>
      <trkpt lat="59.9875527" lon="17.4109749">
        <ele>10.7118</ele>
        <time>2013-05-05T12:00:25Z</time>
      </trkpt>
      <trkpt lat="59.9875418" lon="17.410849">
        <ele>10.7118</ele>
        <time>2013-05-05T12:00:26Z</time>
      </trkpt>
      <trkpt lat="59.9875304" lon="17.4107164">
        <ele>11.1925</ele>
        <time>2013-05-05T12:00:27Z</time>
      </trkpt>
      <trkpt lat="59.9875209" lon="17.4105889">
        <ele>11.1925</ele>
        <time>2013-05-05T12:00:28Z</time>
      </trkpt>
      <trkpt lat="59.9875097" lon="17.410454">
        <ele>11.6732</ele>
        <time>2013-05-05T12:00:29Z</time>
      </trkpt>
      <trkpt lat="59.9875001" lon="17.4103251">
        <ele>12.1538</ele>
        <time>2013-05-05T12:00:30Z</time>
      </trkpt>
      <trkpt lat="59.9874839" lon="17.410199">
        <ele>11.6732</ele>
        <time>2013-05-05T12:00:31Z</time>
      </trkpt>
      <trkpt lat="59.9874739" lon="17.4100712">
        <ele>12.1538</ele>
        <time>2013-05-05T12:00:32Z</time>
      </trkpt>
      <trkpt lat="59.9874646" lon="17.4099398">
        <ele>13.1151</ele>
        <time>2013-05-05T12:00:33Z</time>
      </trkpt>
      <trkpt lat="59.9874546" lon="17.4098109">
        <ele>14.0764</ele>
        <time>2013-05-05T12:00:34Z</time>
      </trkpt>
      <trkpt lat="59.9874431" lon="17.4096819">
        <ele>15.0377</ele>
        <time>2013-05-05T12:00:35Z</time>
      </trkpt>
      <trkpt lat="59.9874352" lon="17.4095595">
        <ele>15.5184</ele>
        <time>2013-05-05T12:00:36Z</time>
      </trkpt>
      <trkpt lat="59.9874241" lon="17.4094311">
        <ele>16.4797</ele>
        <time>2013-05-05T12:00:37Z</time>
      </trkpt>
      <trkpt lat="59.9874164" lon="17.4093089">
        <ele>16.9604</ele>
        <time>2013-05-05T12:00:38Z</time>
      </trkpt>
      <trkpt lat="59.9874029" lon="17.4091758">
        <ele>18.4023</ele>
        <time>2013-05-05T12:00:39Z</time>
      </trkpt>
      <trkpt lat="59.9873948" lon="17.4090497">
        <ele>18.8831</ele>
        <time>2013-05-05T12:00:40Z</time>
      </trkpt>
      <trkpt lat="59.9873797" lon="17.4089111">
        <ele>19.8444</ele>
        <time>2013-05-05T12:00:41Z</time>
      </trkpt>
      <trkpt lat="59.987362" lon="17.4087764">
        <ele>21.767</ele>
        <time>2013-05-05T12:00:42Z</time>
      </trkpt>
      <trkpt lat="59.9873426" lon="17.4086349">
        <ele>23.209</ele>
        <time>2013-05-05T12:00:43Z</time>
      </trkpt>
      <trkpt lat="59.9873282" lon="17.4085044">
        <ele>24.651</ele>
        <time>2013-05-05T12:00:44Z</time>
      </trkpt>
      <trkpt lat="59.9873144" lon="17.4083766">
        <ele>26.0929</ele>
        <time>2013-05-05T12:00:45Z</time>
      </trkpt>
      <trkpt lat="59.987302" lon="17.4082511">
        <ele>27.0543</ele>
        <time>2013-05-05T12:00:46Z</time>
      </trkpt>
      <trkpt lat="59.9872904" lon="17.4081206">
        <ele>28.0155</ele>
        <time>2013-05-05T12:00:47Z</time>
      </trkpt>
      <trkpt lat="59.9872805" lon="17.4079904">
        <ele>28.9769</ele>
        <time>2013-05-05T12:00:48Z</time>
      </trkpt>
      <trkpt lat="59.9872715" lon="17.4078611">
        <ele>29.4575</ele>
        <time>2013-05-05T12:00:49Z</time>
      </trkpt>
      <trkpt lat="59.9872626" lon="17.4077314">
        <ele>29.9381</ele>
        <time>2013-05-05T12:00:50Z</time>
      </trkpt>
      <trkpt lat="59.987252" lon="17.407603">
        <ele>30.4188</ele>
        <time>2013-05-05T12:00:51Z</time>
      </trkpt>
      <trkpt lat="59.9872398" lon="17.4074746">
        <ele>30.8995</ele>
        <time>2013-05-05T12:00:52Z</time>
      </trkpt>
      <trkpt lat="59.987228" lon="17.4073478">
        <ele>31.3801</ele>
        <time>2013-05-05T12:00:53Z</time>
      </trkpt>
      <trkpt lat="59.9872199" lon="17.4072198">
        <ele>31.8607</ele>
        <time>2013-05-05T12:00:54Z</time>
      </trkpt>
      <trkpt lat="59.9872128" lon="17.4070883">
        <ele>31.8607</ele>
        <time>2013-05-05T12:00:55Z</time>
      </trkpt>
      <trkpt lat="59.9872041" lon="17.406954">
        <ele>32.3416</ele>
        <time>2013-05-05T12:00:56Z</time>
      </trkpt>
      <trkpt lat="59.9871946" lon="17.4068178">
        <ele>32.8223</ele>
        <time>2013-05-05T12:00:57Z</time>
      </trkpt>
      <trkpt lat="59.9871854" lon="17.4066817">
        <ele>32.8223</ele>
        <time>2013-05-05T12:00:58Z</time>
      </trkpt>
      <trkpt lat="59.9871776" lon="17.4065462">
        <ele>33.7834</ele>
        <time>2013-05-05T12:00:59Z</time>
      </trkpt>
      <trkpt lat="59.9871692" lon="17.4064086">
        <ele>34.2642</ele>
        <time>2013-05-05T12:01:00Z</time>
      </trkpt>
      <trkpt lat="59.987161" lon="17.4062716">
        <ele>35.2255</ele>
        <time>2013-05-05T12:01:01Z</time>
      </trkpt>
      <trkpt lat="59.9871507" lon="17.4061371">
        <ele>36.1868</ele>
        <time>2013-05-05T12:01:02Z</time>
      </trkpt>
      <trkpt lat="59.9871439" lon="17.4060061">
        <ele>36.1868</ele>
        <time>2013-05-05T12:01:03Z</time>
      </trkpt>
      <trkpt lat="59.9871386" lon="17.4058796">
        <ele>36.6675</ele>
        <time>2013-05-05T12:01:04Z</time>
      </trkpt>
      <trkpt lat="59.9871331" lon="17.4057558">
        <ele>36.6675</ele>
        <time>2013-05-05T12:01:05Z</time>
      </trkpt>
      <trkpt lat="59.9871251" lon="17.4056357">
        <ele>37.6287</ele>
        <time>2013-05-05T12:01:06Z</time>
      </trkpt>
      <trkpt lat="59.9871155" lon="17.4055193">
        <ele>38.1094</ele>
        <time>2013-05-05T12:01:07Z</time>
      </trkpt>
      <trkpt lat="59.987108" lon="17.4053974">
        <ele>38.1094</ele>
        <time>2013-05-05T12:01:08Z</time>
      </trkpt>
      <trkpt lat="59.9871015" lon="17.4052726">
        <ele>38.5901</ele>
        <time>2013-05-05T12:01:09Z</time>
      </trkpt>
      <trkpt lat="59.9870958" lon="17.4051449">
        <ele>38.5901</ele>
        <time>2013-05-05T12:01:10Z</time>
      </trkpt>
      <trkpt lat="59.9870895" lon="17.4050158">
        <ele>39.0707</ele>
        <time>2013-05-05T12:01:11Z</time>
      </trkpt>
      <trkpt lat="59.9870823" lon="17.4048856">
        <ele>39.5513</ele>
        <time>2013-05-05T12:01:12Z</time>
      </trkpt>
      <trkpt lat="59.9870731" lon="17.4047593">
        <ele>40.0321</ele>
        <time>2013-05-05T12:01:13Z</time>
      </trkpt>
      <trkpt lat="59.9870632" lon="17.4046322">
        <ele>40.9934</ele>
        <time>2013-05-05T12:01:14Z</time>
      </trkpt>
      <trkpt lat="59.987055" lon="17.4044997">
        <ele>41.474</ele>
        <time>2013-05-05T12:01:15Z</time>
      </trkpt>
      <trkpt lat="59.987046" lon="17.4043672">
        <ele>42.4354</ele>
        <time>2013-05-05T12:01:16Z</time>
      </trkpt>
      <trkpt lat="59.9870381" lon="17.4042353">
        <ele>42.916</ele>
        <time>2013-05-05T12:01:17Z</time>
      </trkpt>
      <trkpt lat="59.9870289" lon="17.4041045">
        <ele>43.3966</ele>
        <time>2013-05-05T12:01:18Z</time>
      </trkpt>
      <trkpt lat="59.9870207" lon="17.4039742">
        <ele>43.8773</ele>
        <time>2013-05-05T12:01:19Z</time>
      </trkpt>
      <trkpt lat="59.9870124" lon="17.4038434">
        <ele>44.358</ele>
        <time>2013-05-05T12:01:20Z</time>
      </trkpt>
      <trkpt lat="59.9870034" lon="17.4037113">
        <ele>44.8386</ele>
        <time>2013-05-05T12:01:21Z</time>
      </trkpt>
      <trkpt lat="59.9869943" lon="17.403579">
        <ele>45.3192</ele>
        <time>2013-05-05T12:01:22Z</time>
      </trkpt>
      <trkpt lat="59.986984" lon="17.4034479">
        <ele>45.7999</ele>
        <time>2013-05-05T12:01:23Z</time>
      </trkpt>
      <trkpt lat="59.9869721" lon="17.4033171">
        <ele>45.7999</ele>
        <time>2013-05-05T12:01:24Z</time>
      </trkpt>
      <trkpt lat="59.986959" lon="17.4031882">
        <ele>45.7999</ele>
        <time>2013-05-05T12:01:25Z</time>
      </trkpt>
      <trkpt lat="59.9869433" lon="17.4030548">
        <ele>43.3966</ele>
        <time>2013-05-05T12:01:26Z</time>
      </trkpt>
      <trkpt lat="59.9869262" lon="17.4029225">
        <ele>41.474</ele>
        <time>2013-05-05T12:01:27Z</time>
      </trkpt>
      <trkpt lat="59.9869108" lon="17.4027913">
        <ele>39.5513</ele>
        <time>2013-05-05T12:01:28Z</time>
      </trkpt>
      <trkpt lat="59.9868989" lon="17.4026592">
        <ele>38.1094</ele>
        <time>2013-05-05T12:01:29Z</time>
      </trkpt>
      <trkpt lat="59.9868879" lon="17.4025231">
        <ele>36.6675</ele>
        <time>2013-05-05T12:01:30Z</time>
      </trkpt>
      <trkpt lat="59.9868728" lon="17.4023821">
        <ele>35.7061</ele>
        <time>2013-05-05T12:01:31Z</time>
      </trkpt>
      <trkpt lat="59.9868536" lon="17.4022339">
        <ele>35.2255</ele>
        <time>2013-05-05T12:01:32Z</time>
      </trkpt>
      <trkpt lat="59.9868352" lon="17.4020796">
        <ele>35.2255</ele>
        <time>2013-05-05T12:01:33Z</time>
      </trkpt>
      <trkpt lat="59.9868176" lon="17.4019273">
        <ele>34.2642</ele>
        <time>2013-05-05T12:01:34Z</time>
      </trkpt>
      <trkpt lat="59.9867969" lon="17.4017732">
        <ele>34.2642</ele>
        <time>2013-05-05T12:01:35Z</time>
      </trkpt>
      <trkpt lat="59.9867783" lon="17.401622">
        <ele>33.7834</ele>
        <time>2013-05-05T12:01:36Z</time>
      </trkpt>
      <trkpt lat="59.9867597" lon="17.401471">
        <ele>32.8223</ele>
        <time>2013-05-05T12:01:37Z</time>
      </trkpt>
      <trkpt lat="59.9867403" lon="17.4013212">
        <ele>33.3029</ele>
        <time>2013-05-05T12:01:38Z</time>
      </trkpt>
      <trkpt lat="59.9867236" lon="17.4011767">
        <ele>33.3029</ele>
        <time>2013-05-05T12:01:39Z</time>
      </trkpt>
      <trkpt lat="59.9867087" lon="17.4010388">
        <ele>33.3029</ele>
        <time>2013-05-05T12:01:40Z</time>
      </trkpt>
      <trkpt lat="59.9866944" lon="17.4009017">
        <ele>33.3029</ele>
        <time>2013-05-05T12:01:41Z</time>
      </trkpt>
      <trkpt lat="59.9866824" lon="17.4007706">
        <ele>33.3029</ele>
        <time>2013-05-05T12:01:42Z</time>
      </trkpt>
      <trkpt lat="59.9866684" lon="17.4006462">
        <ele>32.8223</ele>
        <time>2013-05-05T12:01:43Z</time>
      </trkpt>
      <trkpt lat="59.9866637" lon="17.4005057">
        <ele>31.3801</ele>
        <time>2013-05-05T12:01:44Z</time>
      </trkpt>
      <trkpt lat="59.9866559" lon="17.4003796">
        <ele>30.4188</ele>
        <time>2013-05-05T12:01:45Z</time>
      </trkpt>
      <trkpt lat="59.9866442" lon="17.4002757">
        <ele>28.9769</ele>
        <time>2013-05-05T12:01:46Z</time>
      </trkpt>
      <trkpt lat="59.986635" lon="17.4001572">
        <ele>28.0155</ele>
        <time>2013-05-05T12:01:47Z</time>
      </trkpt>
      <trkpt lat="59.9866249" lon="17.400038">
        <ele>26.0929</ele>
        <time>2013-05-05T12:01:48Z</time>
      </trkpt>
      <trkpt lat="59.9866114" lon="17.3999096">
        <ele>24.651</ele>
        <time>2013-05-05T12:01:49Z</time>
      </trkpt>
      <trkpt lat="59.9865999" lon="17.399761">
        <ele>23.209</ele>
        <time>2013-05-05T12:01:50Z</time>
      </trkpt>
      <trkpt lat="59.9865851" lon="17.3996102">
        <ele>22.2476</ele>
        <time>2013-05-05T12:01:51Z</time>
      </trkpt>
      <trkpt lat="59.986569" lon="17.3994573">
        <ele>21.2864</ele>
        <time>2013-05-05T12:01:52Z</time>
      </trkpt>
      <trkpt lat="59.986553" lon="17.3993037">
        <ele>20.325</ele>
        <time>2013-05-05T12:01:53Z</time>
      </trkpt>
      <trkpt lat="59.9865395" lon="17.3991514">
        <ele>19.3638</ele>
        <time>2013-05-05T12:01:54Z</time>
      </trkpt>
      <trkpt lat="59.9865283" lon="17.3989977">
        <ele>17.9218</ele>
        <time>2013-05-05T12:01:55Z</time>
      </trkpt>
      <trkpt lat="59.9865198" lon="17.398843">
        <ele>17.4412</ele>
        <time>2013-05-05T12:01:56Z</time>
      </trkpt>
      <trkpt lat="59.9865046" lon="17.3986919">
        <ele>16.4797</ele>
        <time>2013-05-05T12:01:57Z</time>
      </trkpt>
      <trkpt lat="59.986485" lon="17.398537">
        <ele>15.999</ele>
        <time>2013-05-05T12:01:58Z</time>
      </trkpt>
      <trkpt lat="59.9864621" lon="17.3983803">
        <ele>15.999</ele>
        <time>2013-05-05T12:01:59Z</time>
      </trkpt>
      <trkpt lat="59.9864399" lon="17.3982241">
        <ele>16.4797</ele>
        <time>2013-05-05T12:02:00Z</time>
      </trkpt>
      <trkpt lat="59.9864186" lon="17.3980708">
        <ele>15.999</ele>
        <time>2013-05-05T12:02:01Z</time>
      </trkpt>
      <trkpt lat="59.9863971" lon="17.397913">
        <ele>16.4797</ele>
        <time>2013-05-05T12:02:02Z</time>
      </trkpt>
      <trkpt lat="59.9863746" lon="17.3977562">
        <ele>16.4797</ele>
        <time>2013-05-05T12:02:03Z</time>
      </trkpt>
      <trkpt lat="59.986353" lon="17.3976014">
        <ele>16.4797</ele>
        <time>2013-05-05T12:02:04Z</time>
      </trkpt>
      <trkpt lat="59.9863315" lon="17.3974499">
        <ele>16.4797</ele>
        <time>2013-05-05T12:02:05Z</time>
      </trkpt>
      <trkpt lat="59.986311" lon="17.3973009">
        <ele>16.4797</ele>
        <time>2013-05-05T12:02:06Z</time>
      </trkpt>
      <trkpt lat="59.9862914" lon="17.3971517">
        <ele>16.9604</ele>
        <time>2013-05-05T12:02:07Z</time>
      </trkpt>
      <trkpt lat="59.9862711" lon="17.3970011">
        <ele>17.4412</ele>
        <time>2013-05-05T12:02:08Z</time>
      </trkpt>
      <trkpt lat="59.9862504" lon="17.3968514">
        <ele>17.4412</ele>
        <time>2013-05-05T12:02:09Z</time>
      </trkpt>
      <trkpt lat="59.9862296" lon="17.3967034">
        <ele>17.9218</ele>
        <time>2013-05-05T12:02:10Z</time>
      </trkpt>
      <trkpt lat="59.9862087" lon="17.396556">
        <ele>18.4023</ele>
        <time>2013-05-05T12:02:11Z</time>
      </trkpt>
      <trkpt lat="59.9861883" lon="17.396409">
        <ele>18.8831</ele>
        <time>2013-05-05T12:02:12Z</time>
      </trkpt>
      <trkpt lat="59.9861685" lon="17.3962634">
        <ele>18.8831</ele>
        <time>2013-05-05T12:02:13Z</time>
      </trkpt>
      <trkpt lat="59.9861489" lon="17.3961203">
        <ele>19.3638</ele>
        <time>2013-05-05T12:02:14Z</time>
      </trkpt>
      <trkpt lat="59.9861297" lon="17.395979">
        <ele>19.8444</ele>
        <time>2013-05-05T12:02:15Z</time>
      </trkpt>
      <trkpt lat="59.9861103" lon="17.3958401">
        <ele>20.325</ele>
        <time>2013-05-05T12:02:16Z</time>
      </trkpt>
      <trkpt lat="59.9860912" lon="17.3957023">
        <ele>20.8057</ele>
        <time>2013-05-05T12:02:17Z</time>
      </trkpt>
      <trkpt lat="59.9860735" lon="17.3955647">
        <ele>21.2864</ele>
        <time>2013-05-05T12:02:18Z</time>
      </trkpt>
      <trkpt lat="59.9860562" lon="17.3954262">
        <ele>21.767</ele>
        <time>2013-05-05T12:02:19Z</time>
      </trkpt>
      <trkpt lat="59.9860383" lon="17.3952879">
        <ele>22.2476</ele>
        <time>2013-05-05T12:02:20Z</time>
      </trkpt>
      <trkpt lat="59.9860188" lon="17.39515">
        <ele>22.7283</ele>
        <time>2013-05-05T12:02:21Z</time>
      </trkpt>
      <trkpt lat="59.9859914" lon="17.395002">
        <ele>24.1703</ele>
        <time>2013-05-05T12:02:22Z</time>
      </trkpt>
      <trkpt lat="59.9859673" lon="17.394855">
        <ele>25.6123</ele>
        <time>2013-05-05T12:02:23Z</time>
      </trkpt>
      <trkpt lat="59.9859446" lon="17.3947089">
        <ele>26.5736</ele>
        <time>2013-05-05T12:02:24Z</time>
      </trkpt>
      <trkpt lat="59.9859214" lon="17.3945646">
        <ele>27.5349</ele>
        <time>2013-05-05T12:02:25Z</time>
      </trkpt>
      <trkpt lat="59.9858986" lon="17.3944213">
        <ele>28.4962</ele>
        <time>2013-05-05T12:02:26Z</time>
      </trkpt>
      <trkpt lat="59.9858764" lon="17.3942794">
        <ele>29.4575</ele>
        <time>2013-05-05T12:02:27Z</time>
      </trkpt>
      <trkpt lat="59.985855" lon="17.3941389">
        <ele>30.4188</ele>
        <time>2013-05-05T12:02:28Z</time>
      </trkpt>
      <trkpt lat="59.9858353" lon="17.3939995">
        <ele>30.8995</ele>
        <time>2013-05-05T12:02:29Z</time>
      </trkpt>
      <trkpt lat="59.9858193" lon="17.393863">
        <ele>30.8995</ele>
        <time>2013-05-05T12:02:30Z</time>
      </trkpt>
      <trkpt lat="59.9858019" lon="17.393728">
        <ele>31.3801</ele>
        <time>2013-05-05T12:02:31Z</time>
      </trkpt>
      <trkpt lat="59.9857852" lon="17.3935929">
        <ele>30.4188</ele>
        <time>2013-05-05T12:02:32Z</time>
      </trkpt>
      <trkpt lat="59.9857664" lon="17.3934538">
        <ele>30.4188</ele>
        <time>2013-05-05T12:02:33Z</time>
      </trkpt>
      <trkpt lat="59.985748" lon="17.3933144">
        <ele>30.4188</ele>
        <time>2013-05-05T12:02:34Z</time>
      </trkpt>
      <trkpt lat="59.9857304" lon="17.3931759">
        <ele>30.4188</ele>
        <time>2013-05-05T12:02:35Z</time>
      </trkpt>
      <trkpt lat="59.9857132" lon="17.3930372">
        <ele>30.8995</ele>
        <time>2013-05-05T12:02:36Z</time>
      </trkpt>
      <trkpt lat="59.9856977" lon="17.3929009">
        <ele>30.4188</ele>
        <time>2013-05-05T12:02:37Z</time>
      </trkpt>
      <trkpt lat="59.985682" lon="17.3927651">
        <ele>30.4188</ele>
        <time>2013-05-05T12:02:38Z</time>
      </trkpt>
      <trkpt lat="59.9856665" lon="17.3926285">
        <ele>29.9381</ele>
        <time>2013-05-05T12:02:39Z</time>
      </trkpt>
      <trkpt lat="59.9856506" lon="17.3924917">
        <ele>29.9381</ele>
        <time>2013-05-05T12:02:40Z</time>
      </trkpt>
      <trkpt lat="59.9856351" lon="17.392355">
        <ele>29.9381</ele>
        <time>2013-05-05T12:02:41Z</time>
      </trkpt>
      <trkpt lat="59.9856203" lon="17.3922161">
        <ele>29.4575</ele>
        <time>2013-05-05T12:02:42Z</time>
      </trkpt>
      <trkpt lat="59.9856043" lon="17.3920766">
        <ele>29.4575</ele>
        <time>2013-05-05T12:02:43Z</time>
      </trkpt>
      <trkpt lat="59.9855881" lon="17.391939">
        <ele>29.4575</ele>
        <time>2013-05-05T12:02:44Z</time>
      </trkpt>
      <trkpt lat="59.9855727" lon="17.3918049">
        <ele>29.4575</ele>
        <time>2013-05-05T12:02:45Z</time>
      </trkpt>
      <trkpt lat="59.9855547" lon="17.3916712">
        <ele>29.9381</ele>
        <time>2013-05-05T12:02:46Z</time>
      </trkpt>
      <trkpt lat="59.9855371" lon="17.3915373">
        <ele>30.4188</ele>
        <time>2013-05-05T12:02:47Z</time>
      </trkpt>
      <trkpt lat="59.9855215" lon="17.3914035">
        <ele>30.4188</ele>
        <time>2013-05-05T12:02:48Z</time>
      </trkpt>
      <trkpt lat="59.9855071" lon="17.3912739">
        <ele>30.4188</ele>
        <time>2013-05-05T12:02:49Z</time>
      </trkpt>
      <trkpt lat="59.985495" lon="17.3911528">
        <ele>30.4188</ele>
        <time>2013-05-05T12:02:50Z</time>
      </trkpt>
      <trkpt lat="59.9854849" lon="17.3910397">
        <ele>30.4188</ele>
        <time>2013-05-05T12:02:51Z</time>
      </trkpt>
      <trkpt lat="59.9854765" lon="17.3909331">
        <ele>29.9381</ele>
        <time>2013-05-05T12:02:52Z</time>
      </trkpt>
      <trkpt lat="59.9854677" lon="17.3908279">
        <ele>29.4575</ele>
        <time>2013-05-05T12:02:53Z</time>
      </trkpt>
      <trkpt lat="59.9854564" lon="17.3907181">
        <ele>29.4575</ele>
        <time>2013-05-05T12:02:54Z</time>
      </trkpt>
      <trkpt lat="59.9854412" lon="17.3906042">
        <ele>29.4575</ele>
        <time>2013-05-05T12:02:55Z</time>
      </trkpt>
      <trkpt lat="59.9854282" lon="17.3904871">
        <ele>29.4575</ele>
        <time>2013-05-05T12:02:56Z</time>
      </trkpt>
      <trkpt lat="59.9854184" lon="17.3903709">
        <ele>28.9769</ele>
        <time>2013-05-05T12:02:57Z</time>
      </trkpt>
      <trkpt lat="59.9854105" lon="17.3902571">
        <ele>28.9769</ele>
        <time>2013-05-05T12:02:58Z</time>
      </trkpt>
      <trkpt lat="59.9854018" lon="17.3901441">
        <ele>28.4962</ele>
        <time>2013-05-05T12:02:59Z</time>
      </trkpt>
      <trkpt lat="59.9853915" lon="17.3900327">
        <ele>28.0155</ele>
        <time>2013-05-05T12:03:00Z</time>
      </trkpt>
      <trkpt lat="59.9853817" lon="17.3899243">
        <ele>28.0155</ele>
        <time>2013-05-05T12:03:01Z</time>
      </trkpt>
      <trkpt lat="59.9853709" lon="17.3898188">
        <ele>28.0155</ele>
        <time>2013-05-05T12:03:02Z</time>
      </trkpt>
      <trkpt lat="59.9853597" lon="17.3897148">
        <ele>28.4962</ele>
        <time>2013-05-05T12:03:03Z</time>
      </trkpt>
      <trkpt lat="59.9853476" lon="17.3896106">
        <ele>28.9769</ele>
        <time>2013-05-05T12:03:04Z</time>
      </trkpt>
      <trkpt lat="59.9853268" lon="17.3895032">
        <ele>29.9381</ele>
        <time>2013-05-05T12:03:05Z</time>
      </trkpt>
      <trkpt lat="59.9853142" lon="17.3894085">
        <ele>29.4575</ele>
        <time>2013-05-05T12:03:06Z</time>
      </trkpt>
      <trkpt lat="59.9853061" lon="17.3893172">
        <ele>29.9381</ele>
        <time>2013-05-05T12:03:07Z</time>
      </trkpt>
      <trkpt lat="59.9852993" lon="17.3892294">
        <ele>30.4188</ele>
        <time>2013-05-05T12:03:08Z</time>
      </trkpt>
      <trkpt lat="59.9852899" lon="17.3891412">
        <ele>30.4188</ele>
        <time>2013-05-05T12:03:09Z</time>
      </trkpt>
      <trkpt lat="59.9852789" lon="17.389059">
        <ele>30.8995</ele>
        <time>2013-05-05T12:03:10Z</time>
      </trkpt>
      <trkpt lat="59.9852697" lon="17.3889782">
        <ele>31.3801</ele>
        <time>2013-05-05T12:03:11Z</time>
      </trkpt>
      <trkpt lat="59.9852615" lon="17.3889035">
        <ele>31.8607</ele>
        <time>2013-05-05T12:03:12Z</time>
      </trkpt>
      <trkpt lat="59.9852486" lon="17.3888232">
        <ele>32.8223</ele>
        <time>2013-05-05T12:03:13Z</time>
      </trkpt>
      <trkpt lat="59.9852378" lon="17.3887435">
        <ele>33.3029</ele>
        <time>2013-05-05T12:03:14Z</time>
      </trkpt>
      <trkpt lat="59.9852294" lon="17.3886678">
        <ele>33.3029</ele>
        <time>2013-05-05T12:03:15Z</time>
      </trkpt>
      <trkpt lat="59.9852214" lon="17.3885916">
        <ele>33.3029</ele>
        <time>2013-05-05T12:03:16Z</time>
      </trkpt>
      <trkpt lat="59.9852136" lon="17.388517">
        <ele>33.7834</ele>
        <time>2013-05-05T12:03:17Z</time>
      </trkpt>
      <trkpt lat="59.9852064" lon="17.3884419">
        <ele>33.7834</ele>
        <time>2013-05-05T12:03:18Z</time>
      </trkpt>
      <trkpt lat="59.9851979" lon="17.3883648">
        <ele>33.7834</ele>
        <time>2013-05-05T12:03:19Z</time>
      </trkpt>
      <trkpt lat="59.9851868" lon="17.388285">
        <ele>34.2642</ele>
        <time>2013-05-05T12:03:20Z</time>
      </trkpt>
      <trkpt lat="59.9851754" lon="17.3882036">
        <ele>34.2642</ele>
        <time>2013-05-05T12:03:21Z</time>
      </trkpt>
      <trkpt lat="59.9851635" lon="17.3881228">
        <ele>34.7449</ele>
        <time>2013-05-05T12:03:22Z</time>
      </trkpt>
      <trkpt lat="59.985152" lon="17.388041">
        <ele>35.2255</ele>
        <time>2013-05-05T12:03:23Z</time>
      </trkpt>
      <trkpt lat="59.9851344" lon="17.3879492">
        <ele>36.6675</ele>
        <time>2013-05-05T12:03:24Z</time>
      </trkpt>
      <trkpt lat="59.9851293" lon="17.3878665">
        <ele>37.1481</ele>
        <time>2013-05-05T12:03:25Z</time>
      </trkpt>
      <trkpt lat="59.9851251" lon="17.3877844">
        <ele>38.5901</ele>
        <time>2013-05-05T12:03:26Z</time>
      </trkpt>
      <trkpt lat="59.9851283" lon="17.3877033">
        <ele>39.5513</ele>
        <time>2013-05-05T12:03:27Z</time>
      </trkpt>
      <trkpt lat="59.9851424" lon="17.3876409">
        <ele>40.5128</ele>
        <time>2013-05-05T12:03:28Z</time>
      </trkpt>
      <trkpt lat="59.9851601" lon="17.3875824">
        <ele>40.5128</ele>
        <time>2013-05-05T12:03:29Z</time>
      </trkpt>
      <trkpt lat="59.9851796" lon="17.3875267">
        <ele>40.5128</ele>
        <time>2013-05-05T12:03:30Z</time>
      </trkpt>
      <trkpt lat="59.9852082" lon="17.3874816">
        <ele>40.9934</ele>
        <time>2013-05-05T12:03:31Z</time>
      </trkpt>
      <trkpt lat="59.9852397" lon="17.3874313">
        <ele>41.474</ele>
        <time>2013-05-05T12:03:32Z</time>
      </trkpt>
      <trkpt lat="59.9852686" lon="17.387379">
        <ele>42.4354</ele>
        <time>2013-05-05T12:03:33Z</time>
      </trkpt>
      <trkpt lat="59.9852989" lon="17.3873307">
        <ele>43.3966</ele>
        <time>2013-05-05T12:03:34Z</time>
      </trkpt>
      <trkpt lat="59.9853307" lon="17.3872795">
        <ele>43.8773</ele>
        <time>2013-05-05T12:03:35Z</time>
      </trkpt>
      <trkpt lat="59.985363" lon="17.387223">
        <ele>45.3192</ele>
        <time>2013-05-05T12:03:36Z</time>
      </trkpt>
      <trkpt lat="59.9853946" lon="17.3871588">
        <ele>45.3192</ele>
        <time>2013-05-05T12:03:37Z</time>
      </trkpt>
      <trkpt lat="59.9854273" lon="17.3870933">
        <ele>45.3192</ele>
        <time>2013-05-05T12:03:38Z</time>
      </trkpt>
      <trkpt lat="59.9854609" lon="17.3870263">
        <ele>45.3192</ele>
        <time>2013-05-05T12:03:39Z</time>
      </trkpt>
      <trkpt lat="59.9854967" lon="17.3869603">
        <ele>45.3192</ele>
        <time>2013-05-05T12:03:40Z</time>
      </trkpt>
      <trkpt lat="59.9855319" lon="17.386891">
        <ele>44.8386</ele>
        <time>2013-05-05T12:03:41Z</time>
      </trkpt>
      <trkpt lat="59.9855662" lon="17.3868212">
        <ele>44.8386</ele>
        <time>2013-05-05T12:03:42Z</time>
      </trkpt>
      <trkpt lat="59.9856034" lon="17.3867487">
        <ele>44.8386</ele>
        <time>2013-05-05T12:03:43Z</time>
      </trkpt>
      <trkpt lat="59.9856405" lon="17.3866744">
        <ele>44.8386</ele>
        <time>2013-05-05T12:03:44Z</time>
      </trkpt>
      <trkpt lat="59.9856769" lon="17.386601">
        <ele>45.3192</ele>
        <time>2013-05-05T12:03:45Z</time>
      </trkpt>
      <trkpt lat="59.9857111" lon="17.3865254">
        <ele>45.3192</ele>
        <time>2013-05-05T12:03:46Z</time>
      </trkpt>
      <trkpt lat="59.9857407" lon="17.3864435">
        <ele>45.3192</ele>
        <time>2013-05-05T12:03:47Z</time>
      </trkpt>
      <trkpt lat="59.9857658" lon="17.3863612">
        <ele>45.3192</ele>
        <time>2013-05-05T12:03:48Z</time>
      </trkpt>
      <trkpt lat="59.9857881" lon="17.3862742">
        <ele>44.8386</ele>
        <time>2013-05-05T12:03:49Z</time>
      </trkpt>
      <trkpt lat="59.9858093" lon="17.386184">
        <ele>44.358</ele>
        <time>2013-05-05T12:03:50Z</time>
      </trkpt>
      <trkpt lat="59.9858292" lon="17.3860864">
        <ele>44.358</ele>
        <time>2013-05-05T12:03:51Z</time>
      </trkpt>
      <trkpt lat="59.9858463" lon="17.3859859">
        <ele>44.358</ele>
        <time>2013-05-05T12:03:52Z</time>
      </trkpt>
      <trkpt lat="59.9858624" lon="17.3858855">
        <ele>44.358</ele>
        <time>2013-05-05T12:03:53Z</time>
      </trkpt>
      <trkpt lat="59.9858786" lon="17.385784">
        <ele>44.358</ele>
        <time>2013-05-05T12:03:54Z</time>
      </trkpt>
      <trkpt lat="59.9858945" lon="17.3856823">
        <ele>44.358</ele>
        <time>2013-05-05T12:03:55Z</time>
      </trkpt>
      <trkpt lat="59.9859099" lon="17.3855747">
        <ele>44.358</ele>
        <time>2013-05-05T12:03:56Z</time>
      </trkpt>
      <trkpt lat="59.9859214" lon="17.3854654">
        <ele>44.358</ele>
        <time>2013-05-05T12:03:57Z</time>
      </trkpt>
      <trkpt lat="59.9859324" lon="17.3853495">
        <ele>43.8773</ele>
        <time>2013-05-05T12:03:58Z</time>
      </trkpt>
      <trkpt lat="59.9859468" lon="17.3852337">
        <ele>44.358</ele>
        <time>2013-05-05T12:03:59Z</time>
      </trkpt>
      <trkpt lat="59.9859629" lon="17.3851202">
        <ele>44.8386</ele>
        <time>2013-05-05T12:04:00Z</time>
      </trkpt>
      <trkpt lat="59.9859768" lon="17.3850065">
        <ele>44.8386</ele>
        <time>2013-05-05T12:04:01Z</time>
      </trkpt>
      <trkpt lat="59.9859909" lon="17.3848934">
        <ele>45.3192</ele>
        <time>2013-05-05T12:04:02Z</time>
      </trkpt>
      <trkpt lat="59.9860043" lon="17.3847785">
        <ele>45.7999</ele>
        <time>2013-05-05T12:04:03Z</time>
      </trkpt>
      <trkpt lat="59.9860163" lon="17.3846636">
        <ele>45.7999</ele>
        <time>2013-05-05T12:04:04Z</time>
      </trkpt>
      <trkpt lat="59.9860255" lon="17.38455">
        <ele>46.2806</ele>
        <time>2013-05-05T12:04:05Z</time>
      </trkpt>
      <trkpt lat="59.9860327" lon="17.3844361">
        <ele>46.7612</ele>
        <time>2013-05-05T12:04:06Z</time>
      </trkpt>
      <trkpt lat="59.9860385" lon="17.3843243">
        <ele>46.7612</ele>
        <time>2013-05-05T12:04:07Z</time>
      </trkpt>
      <trkpt lat="59.9860446" lon="17.3842147">
        <ele>46.7612</ele>
        <time>2013-05-05T12:04:08Z</time>
      </trkpt>
      <trkpt lat="59.9860533" lon="17.3841089">
        <ele>47.2418</ele>
        <time>2013-05-05T12:04:09Z</time>
      </trkpt>
      <trkpt lat="59.9860618" lon="17.3840073">
        <ele>47.7225</ele>
        <time>2013-05-05T12:04:10Z</time>
      </trkpt>
      <trkpt lat="59.9860668" lon="17.3839078">
        <ele>47.7225</ele>
        <time>2013-05-05T12:04:11Z</time>
      </trkpt>
      <trkpt lat="59.9860713" lon="17.3838042">
        <ele>47.2418</ele>
        <time>2013-05-05T12:04:12Z</time>
      </trkpt>
      <trkpt lat="59.9860797" lon="17.3836944">
        <ele>47.7225</ele>
        <time>2013-05-05T12:04:13Z</time>
      </trkpt>
      <trkpt lat="59.9860913" lon="17.3835812">
        <ele>48.2034</ele>
        <time>2013-05-05T12:04:14Z</time>
      </trkpt>
      <trkpt lat="59.9861088" lon="17.3834664">
        <ele>48.2034</ele>
        <time>2013-05-05T12:04:15Z</time>
      </trkpt>
      <trkpt lat="59.9861291" lon="17.3833514">
        <ele>47.7225</ele>
        <time>2013-05-05T12:04:16Z</time>
      </trkpt>
      <trkpt lat="59.9861517" lon="17.383237">
        <ele>47.7225</ele>
        <time>2013-05-05T12:04:17Z</time>
      </trkpt>
      <trkpt lat="59.9861747" lon="17.3831213">
        <ele>47.7225</ele>
        <time>2013-05-05T12:04:18Z</time>
      </trkpt>
      <trkpt lat="59.9861996" lon="17.3830084">
        <ele>47.2418</ele>
        <time>2013-05-05T12:04:19Z</time>
      </trkpt>
      <trkpt lat="59.9862265" lon="17.3828977">
        <ele>47.2418</ele>
        <time>2013-05-05T12:04:20Z</time>
      </trkpt>
      <trkpt lat="59.9862538" lon="17.3827878">
        <ele>47.2418</ele>
        <time>2013-05-05T12:04:21Z</time>
      </trkpt>
      <trkpt lat="59.9862818" lon="17.3826786">
        <ele>47.2418</ele>
        <time>2013-05-05T12:04:22Z</time>
      </trkpt>
      <trkpt lat="59.9863079" lon="17.3825672">
        <ele>46.7612</ele>
        <time>2013-05-05T12:04:23Z</time>
      </trkpt>
      <trkpt lat="59.9863327" lon="17.3824548">
        <ele>46.7612</ele>
        <time>2013-05-05T12:04:24Z</time>
      </trkpt>
      <trkpt lat="59.9863584" lon="17.382343">
        <ele>46.7612</ele>
        <time>2013-05-05T12:04:25Z</time>
      </trkpt>
      <trkpt lat="59.9863846" lon="17.3822316">
        <ele>46.7612</ele>
        <time>2013-05-05T12:04:26Z</time>
      </trkpt>
      <trkpt lat="59.9864104" lon="17.3821197">
        <ele>46.2806</ele>
        <time>2013-05-05T12:04:27Z</time>
      </trkpt>
      <trkpt lat="59.9864359" lon="17.3820091">
        <ele>46.2806</ele>
        <time>2013-05-05T12:04:28Z</time>
      </trkpt>
      <trkpt lat="59.9864623" lon="17.381901">
        <ele>46.2806</ele>
        <time>2013-05-05T12:04:29Z</time>
      </trkpt>
      <trkpt lat="59.9864886" lon="17.381792">
        <ele>45.7999</ele>
        <time>2013-05-05T12:04:30Z</time>
      </trkpt>
      <trkpt lat="59.9865139" lon="17.381684">
        <ele>45.7999</ele>
        <time>2013-05-05T12:04:31Z</time>
      </trkpt>
      <trkpt lat="59.9865378" lon="17.3815774">
        <ele>45.3192</ele>
        <time>2013-05-05T12:04:32Z</time>
      </trkpt>
      <trkpt lat="59.9865616" lon="17.3814654">
        <ele>45.3192</ele>
        <time>2013-05-05T12:04:33Z</time>
      </trkpt>
      <trkpt lat="59.986586" lon="17.3813525">
        <ele>44.8386</ele>
        <time>2013-05-05T12:04:34Z</time>
      </trkpt>
      <trkpt lat="59.9866119" lon="17.3812446">
        <ele>44.8386</ele>
        <time>2013-05-05T12:04:35Z</time>
      </trkpt>
      <trkpt lat="59.9866368" lon="17.3811374">
        <ele>45.3192</ele>
        <time>2013-05-05T12:04:36Z</time>
      </trkpt>
      <trkpt lat="59.9866625" lon="17.3810323">
        <ele>45.7999</ele>
        <time>2013-05-05T12:04:37Z</time>
      </trkpt>
      <trkpt lat="59.9866891" lon="17.3809297">
        <ele>46.2806</ele>
        <time>2013-05-05T12:04:38Z</time>
      </trkpt>
      <trkpt lat="59.9867136" lon="17.3808318">
        <ele>46.2806</ele>
        <time>2013-05-05T12:04:39Z</time>
      </trkpt>
      <trkpt lat="59.986739" lon="17.3807407">
        <ele>46.7612</ele>
        <time>2013-05-05T12:04:40Z</time>
      </trkpt>
      <trkpt lat="59.9867653" lon="17.3806521">
        <ele>47.2418</ele>
        <time>2013-05-05T12:04:41Z</time>
      </trkpt>
      <trkpt lat="59.9867912" lon="17.3805645">
        <ele>46.7612</ele>
        <time>2013-05-05T12:04:42Z</time>
      </trkpt>
      <trkpt lat="59.9868176" lon="17.3804801">
        <ele>46.2806</ele>
        <time>2013-05-05T12:04:43Z</time>
      </trkpt>
      <trkpt lat="59.9868438" lon="17.3803965">
        <ele>45.7999</ele>
        <time>2013-05-05T12:04:44Z</time>
      </trkpt>
      <trkpt lat="59.9868703" lon="17.3803128">
        <ele>45.3192</ele>
        <time>2013-05-05T12:04:45Z</time>
      </trkpt>
      <trkpt lat="59.9868975" lon="17.3802288">
        <ele>45.3192</ele>
        <time>2013-05-05T12:04:46Z</time>
      </trkpt>
      <trkpt lat="59.9869233" lon="17.3801425">
        <ele>44.8386</ele>
        <time>2013-05-05T12:04:47Z</time>
      </trkpt>
      <trkpt lat="59.9869506" lon="17.3800527">
        <ele>44.358</ele>
        <time>2013-05-05T12:04:48Z</time>
      </trkpt>
      <trkpt lat="59.9869809" lon="17.3799629">
        <ele>44.358</ele>
        <time>2013-05-05T12:04:49Z</time>
      </trkpt>
      <trkpt lat="59.9870117" lon="17.3798698">
        <ele>43.8773</ele>
        <time>2013-05-05T12:04:50Z</time>
      </trkpt>
      <trkpt lat="59.9870445" lon="17.3797739">
        <ele>43.8773</ele>
        <time>2013-05-05T12:04:51Z</time>
      </trkpt>
      <trkpt lat="59.9870781" lon="17.3796746">
        <ele>43.8773</ele>
        <time>2013-05-05T12:04:52Z</time>
      </trkpt>
      <trkpt lat="59.9871122" lon="17.379572">
        <ele>43.3966</ele>
        <time>2013-05-05T12:04:53Z</time>
      </trkpt>
      <trkpt lat="59.9871471" lon="17.379468">
        <ele>43.3966</ele>
        <time>2013-05-05T12:04:54Z</time>
      </trkpt>
      <trkpt lat="59.9871828" lon="17.3793634">
        <ele>42.916</ele>
        <time>2013-05-05T12:04:55Z</time>
      </trkpt>
      <trkpt lat="59.9872179" lon="17.3792567">
        <ele>42.916</ele>
        <time>2013-05-05T12:04:56Z</time>
      </trkpt>
      <trkpt lat="59.9872534" lon="17.3791488">
        <ele>42.916</ele>
        <time>2013-05-05T12:04:57Z</time>
      </trkpt>
      <trkpt lat="59.9872883" lon="17.3790411">
        <ele>42.4354</ele>
        <time>2013-05-05T12:04:58Z</time>
      </trkpt>
      <trkpt lat="59.987324" lon="17.3789333">
        <ele>41.9547</ele>
        <time>2013-05-05T12:04:59Z</time>
      </trkpt>
      <trkpt lat="59.9873598" lon="17.3788257">
        <ele>41.9547</ele>
        <time>2013-05-05T12:05:00Z</time>
      </trkpt>
      <trkpt lat="59.9873942" lon="17.3787189">
        <ele>41.474</ele>
        <time>2013-05-05T12:05:01Z</time>
      </trkpt>
      <trkpt lat="59.9874278" lon="17.3786114">
        <ele>40.9934</ele>
        <time>2013-05-05T12:05:02Z</time>
      </trkpt>
      <trkpt lat="59.9874625" lon="17.3785039">
        <ele>40.9934</ele>
        <time>2013-05-05T12:05:03Z</time>
      </trkpt>
      <trkpt lat="59.987497" lon="17.378396">
        <ele>40.9934</ele>
        <time>2013-05-05T12:05:04Z</time>
      </trkpt>
      <trkpt lat="59.9875305" lon="17.3782859">
        <ele>40.5128</ele>
        <time>2013-05-05T12:05:05Z</time>
      </trkpt>
      <trkpt lat="59.9875649" lon="17.3781754">
        <ele>40.5128</ele>
        <time>2013-05-05T12:05:06Z</time>
      </trkpt>
      <trkpt lat="59.9876023" lon="17.3780668">
        <ele>40.5128</ele>
        <time>2013-05-05T12:05:07Z</time>
      </trkpt>
      <trkpt lat="59.987639" lon="17.3779615">
        <ele>40.5128</ele>
        <time>2013-05-05T12:05:08Z</time>
      </trkpt>
      <trkpt lat="59.9876763" lon="17.3778564">
        <ele>40.5128</ele>
        <time>2013-05-05T12:05:09Z</time>
      </trkpt>
      <trkpt lat="59.9877131" lon="17.3777493">
        <ele>40.5128</ele>
        <time>2013-05-05T12:05:10Z</time>
      </trkpt>
      <trkpt lat="59.9877494" lon="17.3776418">
        <ele>40.5128</ele>
        <time>2013-05-05T12:05:11Z</time>
      </trkpt>
      <trkpt lat="59.9877853" lon="17.377534">
        <ele>40.5128</ele>
        <time>2013-05-05T12:05:12Z</time>
      </trkpt>
      <trkpt lat="59.9878204" lon="17.3774273">
        <ele>40.5128</ele>
        <time>2013-05-05T12:05:13Z</time>
      </trkpt>
      <trkpt lat="59.9878561" lon="17.3773226">
        <ele>40.9934</ele>
        <time>2013-05-05T12:05:14Z</time>
      </trkpt>
      <trkpt lat="59.9878898" lon="17.3772192">
        <ele>40.5128</ele>
        <time>2013-05-05T12:05:15Z</time>
      </trkpt>
      <trkpt lat="59.9879225" lon="17.3771159">
        <ele>40.5128</ele>
        <time>2013-05-05T12:05:16Z</time>
      </trkpt>
      <trkpt lat="59.9879546" lon="17.3770147">
        <ele>40.9934</ele>
        <time>2013-05-05T12:05:17Z</time>
      </trkpt>
      <trkpt lat="59.9879873" lon="17.3769149">
        <ele>40.9934</ele>
        <time>2013-05-05T12:05:18Z</time>
      </trkpt>
      <trkpt lat="59.9880183" lon="17.376822">
        <ele>41.474</ele>
        <time>2013-05-05T12:05:19Z</time>
      </trkpt>
      <trkpt lat="59.9880493" lon="17.3767276">
        <ele>41.474</ele>
        <time>2013-05-05T12:05:20Z</time>
      </trkpt>
      <trkpt lat="59.988081" lon="17.3766318">
        <ele>42.4354</ele>
        <time>2013-05-05T12:05:21Z</time>
      </trkpt>
      <trkpt lat="59.9881099" lon="17.3765425">
        <ele>42.4354</ele>
        <time>2013-05-05T12:05:22Z</time>
      </trkpt>
      <trkpt lat="59.9881411" lon="17.3764526">
        <ele>42.916</ele>
        <time>2013-05-05T12:05:23Z</time>
      </trkpt>
      <trkpt lat="59.9881737" lon="17.3763599">
        <ele>42.916</ele>
        <time>2013-05-05T12:05:24Z</time>
      </trkpt>
      <trkpt lat="59.9882046" lon="17.3762716">
        <ele>43.3966</ele>
        <time>2013-05-05T12:05:25Z</time>
      </trkpt>
      <trkpt lat="59.988237" lon="17.3761897">
        <ele>43.8773</ele>
        <time>2013-05-05T12:05:26Z</time>
      </trkpt>
      <trkpt lat="59.9882609" lon="17.376121">
        <ele>43.3966</ele>
        <time>2013-05-05T12:05:27Z</time>
      </trkpt>
      <trkpt lat="59.9882882" lon="17.376048">
        <ele>44.358</ele>
        <time>2013-05-05T12:05:28Z</time>
      </trkpt>
      <trkpt lat="59.9883141" lon="17.375975">
        <ele>44.8386</ele>
        <time>2013-05-05T12:05:29Z</time>
      </trkpt>
      <trkpt lat="59.9883388" lon="17.3758922">
        <ele>45.3192</ele>
        <time>2013-05-05T12:05:30Z</time>
      </trkpt>
      <trkpt lat="59.9883707" lon="17.3757994">
        <ele>46.7612</ele>
        <time>2013-05-05T12:05:31Z</time>
      </trkpt>
      <trkpt lat="59.9884053" lon="17.3757154">
        <ele>47.2418</ele>
        <time>2013-05-05T12:05:32Z</time>
      </trkpt>
      <trkpt lat="59.9884457" lon="17.3756263">
        <ele>48.2034</ele>
        <time>2013-05-05T12:05:33Z</time>
      </trkpt>
      <trkpt lat="59.9884818" lon="17.3755335">
        <ele>47.7225</ele>
        <time>2013-05-05T12:05:34Z</time>
      </trkpt>
      <trkpt lat="59.988524" lon="17.3754454">
        <ele>48.684</ele>
        <time>2013-05-05T12:05:35Z</time>
      </trkpt>
      <trkpt lat="59.9885703" lon="17.3753718">
        <ele>48.2034</ele>
        <time>2013-05-05T12:05:36Z</time>
      </trkpt>
      <trkpt lat="59.9886192" lon="17.3752937">
        <ele>47.7225</ele>
        <time>2013-05-05T12:05:37Z</time>
      </trkpt>
      <trkpt lat="59.9886695" lon="17.3752156">
        <ele>47.2418</ele>
        <time>2013-05-05T12:05:38Z</time>
      </trkpt>
      <trkpt lat="59.9887239" lon="17.3751353">
        <ele>45.7999</ele>
        <time>2013-05-05T12:05:39Z</time>
      </trkpt>
      <trkpt lat="59.9887829" lon="17.3750577">
        <ele>44.8386</ele>
        <time>2013-05-05T12:05:40Z</time>
      </trkpt>
      <trkpt lat="59.988843" lon="17.3749825">
        <ele>44.358</ele>
        <time>2013-05-05T12:05:41Z</time>
      </trkpt>
      <trkpt lat="59.9889053" lon="17.3749095">
        <ele>43.3966</ele>
        <time>2013-05-05T12:05:42Z</time>
      </trkpt>
      <trkpt lat="59.9889692" lon="17.3748382">
        <ele>42.916</ele>
        <time>2013-05-05T12:05:43Z</time>
      </trkpt>
      <trkpt lat="59.9890337" lon="17.3747654">
        <ele>42.4354</ele>
        <time>2013-05-05T12:05:44Z</time>
      </trkpt>
      <trkpt lat="59.9890989" lon="17.3746934">
        <ele>41.9547</ele>
        <time>2013-05-05T12:05:45Z</time>
      </trkpt>
      <trkpt lat="59.9891625" lon="17.3746207">
        <ele>40.9934</ele>
        <time>2013-05-05T12:05:46Z</time>
      </trkpt>
      <trkpt lat="59.9892274" lon="17.3745482">
        <ele>40.5128</ele>
        <time>2013-05-05T12:05:47Z</time>
      </trkpt>
      <trkpt lat="59.9892933" lon="17.3744759">
        <ele>40.0321</ele>
        <time>2013-05-05T12:05:48Z</time>
      </trkpt>
      <trkpt lat="59.9893599" lon="17.3744059">
        <ele>40.5128</ele>
        <time>2013-05-05T12:05:49Z</time>
      </trkpt>
      <trkpt lat="59.9894253" lon="17.3743364">
        <ele>40.5128</ele>
        <time>2013-05-05T12:05:50Z</time>
      </trkpt>
      <trkpt lat="59.9894912" lon="17.3742697">
        <ele>40.5128</ele>
        <time>2013-05-05T12:05:51Z</time>
      </trkpt>
      <trkpt lat="59.9895575" lon="17.374204">
        <ele>40.0321</ele>
        <time>2013-05-05T12:05:52Z</time>
      </trkpt>
      <trkpt lat="59.9896219" lon="17.3741345">
        <ele>40.0321</ele>
        <time>2013-05-05T12:05:53Z</time>
      </trkpt>
      <trkpt lat="59.9896838" lon="17.3740656">
        <ele>39.5513</ele>
        <time>2013-05-05T12:05:54Z</time>
      </trkpt>
      <trkpt lat="59.9897454" lon="17.3739957">
        <ele>39.0707</ele>
        <time>2013-05-05T12:05:55Z</time>
      </trkpt>
      <trkpt lat="59.9898079" lon="17.3739255">
        <ele>38.5901</ele>
        <time>2013-05-05T12:05:56Z</time>
      </trkpt>
      <trkpt lat="59.9898707" lon="17.3738557">
        <ele>38.1094</ele>
        <time>2013-05-05T12:05:57Z</time>
      </trkpt>
      <trkpt lat="59.9899333" lon="17.3737841">
        <ele>38.1094</ele>
        <time>2013-05-05T12:05:58Z</time>
      </trkpt>
      <trkpt lat="59.9899951" lon="17.3737128">
        <ele>38.1094</ele>
        <time>2013-05-05T12:05:59Z</time>
      </trkpt>
      <trkpt lat="59.990057" lon="17.3736444">
        <ele>38.1094</ele>
        <time>2013-05-05T12:06:00Z</time>
      </trkpt>
      <trkpt lat="59.9901203" lon="17.3735797">
        <ele>38.1094</ele>
        <time>2013-05-05T12:06:01Z</time>
      </trkpt>
      <trkpt lat="59.990181" lon="17.3735155">
        <ele>38.1094</ele>
        <time>2013-05-05T12:06:02Z</time>
      </trkpt>
      <trkpt lat="59.99024" lon="17.3734503">
        <ele>38.1094</ele>
        <time>2013-05-05T12:06:03Z</time>
      </trkpt>
      <trkpt lat="59.9903051" lon="17.3733912">
        <ele>39.5513</ele>
        <time>2013-05-05T12:06:04Z</time>
      </trkpt>
      <trkpt lat="59.990359" lon="17.3733291">
        <ele>39.0707</ele>
        <time>2013-05-05T12:06:05Z</time>
      </trkpt>
      <trkpt lat="59.9904132" lon="17.3732687">
        <ele>39.5513</ele>
        <time>2013-05-05T12:06:06Z</time>
      </trkpt>
      <trkpt lat="59.9904691" lon="17.3732145">
        <ele>39.5513</ele>
        <time>2013-05-05T12:06:07Z</time>
      </trkpt>
      <trkpt lat="59.9905249" lon="17.3731594">
        <ele>40.0321</ele>
        <time>2013-05-05T12:06:08Z</time>
      </trkpt>
      <trkpt lat="59.9905818" lon="17.373099">
        <ele>40.5128</ele>
        <time>2013-05-05T12:06:09Z</time>
      </trkpt>
      <trkpt lat="59.9906396" lon="17.3730388">
        <ele>40.9934</ele>
        <time>2013-05-05T12:06:10Z</time>
      </trkpt>
      <trkpt lat="59.9906966" lon="17.3729807">
        <ele>41.474</ele>
        <time>2013-05-05T12:06:11Z</time>
      </trkpt>
      <trkpt lat="59.9907555" lon="17.3729202">
        <ele>41.9547</ele>
        <time>2013-05-05T12:06:12Z</time>
      </trkpt>
      <trkpt lat="59.9908147" lon="17.3728654">
        <ele>43.3966</ele>
        <time>2013-05-05T12:06:13Z</time>
      </trkpt>
      <trkpt lat="59.9908668" lon="17.372812">
        <ele>43.8773</ele>
        <time>2013-05-05T12:06:14Z</time>
      </trkpt>
      <trkpt lat="59.990919" lon="17.3727536">
        <ele>44.358</ele>
        <time>2013-05-05T12:06:15Z</time>
      </trkpt>
      <trkpt lat="59.9909708" lon="17.3726943">
        <ele>44.8386</ele>
        <time>2013-05-05T12:06:16Z</time>
      </trkpt>
      <trkpt lat="59.9910218" lon="17.3726355">
        <ele>45.3192</ele>
        <time>2013-05-05T12:06:17Z</time>
      </trkpt>
      <trkpt lat="59.9910724" lon="17.3725793">
        <ele>45.7999</ele>
        <time>2013-05-05T12:06:18Z</time>
      </trkpt>
      <trkpt lat="59.9911223" lon="17.3725269">
        <ele>45.7999</ele>
        <time>2013-05-05T12:06:19Z</time>
      </trkpt>
      <trkpt lat="59.9911718" lon="17.3724761">
        <ele>45.7999</ele>
        <time>2013-05-05T12:06:20Z</time>
      </trkpt>
      <trkpt lat="59.9912202" lon="17.372424">
        <ele>46.2806</ele>
        <time>2013-05-05T12:06:21Z</time>
      </trkpt>
      <trkpt lat="59.9912668" lon="17.3723701">
        <ele>46.2806</ele>
        <time>2013-05-05T12:06:22Z</time>
      </trkpt>
      <trkpt lat="59.9913119" lon="17.3723142">
        <ele>46.2806</ele>
        <time>2013-05-05T12:06:23Z</time>
      </trkpt>
      <trkpt lat="59.9913557" lon="17.3722571">
        <ele>46.2806</ele>
        <time>2013-05-05T12:06:24Z</time>
      </trkpt>
      <trkpt lat="59.9913954" lon="17.3721966">
        <ele>46.2806</ele>
        <time>2013-05-05T12:06:25Z</time>
      </trkpt>
      <trkpt lat="59.9914325" lon="17.3721267">
        <ele>45.7999</ele>
        <time>2013-05-05T12:06:26Z</time>
      </trkpt>
      <trkpt lat="59.9914653" lon="17.3720525">
        <ele>44.8386</ele>
        <time>2013-05-05T12:06:27Z</time>
      </trkpt>
      <trkpt lat="59.9915002" lon="17.3719759">
        <ele>44.8386</ele>
        <time>2013-05-05T12:06:28Z</time>
      </trkpt>
      <trkpt lat="59.9915366" lon="17.371895">
        <ele>44.358</ele>
        <time>2013-05-05T12:06:29Z</time>
      </trkpt>
      <trkpt lat="59.9915724" lon="17.3718079">
        <ele>44.358</ele>
        <time>2013-05-05T12:06:30Z</time>
      </trkpt>
      <trkpt lat="59.9916092" lon="17.3717189">
        <ele>44.358</ele>
        <time>2013-05-05T12:06:31Z</time>
      </trkpt>
      <trkpt lat="59.991647" lon="17.3716299">
        <ele>44.358</ele>
        <time>2013-05-05T12:06:32Z</time>
      </trkpt>
      <trkpt lat="59.9916842" lon="17.3715377">
        <ele>44.358</ele>
        <time>2013-05-05T12:06:33Z</time>
      </trkpt>
      <trkpt lat="59.9917201" lon="17.3714415">
        <ele>44.358</ele>
        <time>2013-05-05T12:06:34Z</time>
      </trkpt>
      <trkpt lat="59.9917561" lon="17.3713477">
        <ele>44.358</ele>
        <time>2013-05-05T12:06:35Z</time>
      </trkpt>
      <trkpt lat="59.9917927" lon="17.3712507">
        <ele>43.8773</ele>
        <time>2013-05-05T12:06:36Z</time>
      </trkpt>
      <trkpt lat="59.9918297" lon="17.3711539">
        <ele>43.8773</ele>
        <time>2013-05-05T12:06:37Z</time>
      </trkpt>
      <trkpt lat="59.9918645" lon="17.3710529">
        <ele>43.8773</ele>
        <time>2013-05-05T12:06:38Z</time>
      </trkpt>
      <trkpt lat="59.9918981" lon="17.3709617">
        <ele>43.8773</ele>
        <time>2013-05-05T12:06:39Z</time>
      </trkpt>
      <trkpt lat="59.9919356" lon="17.3708691">
        <ele>43.3966</ele>
        <time>2013-05-05T12:06:40Z</time>
      </trkpt>
      <trkpt lat="59.9919757" lon="17.3707695">
        <ele>43.8773</ele>
        <time>2013-05-05T12:06:41Z</time>
      </trkpt>
      <trkpt lat="59.9920132" lon="17.3706659">
        <ele>43.3966</ele>
        <time>2013-05-05T12:06:42Z</time>
      </trkpt>
      <trkpt lat="59.9920491" lon="17.3705714">
        <ele>43.8773</ele>
        <time>2013-05-05T12:06:43Z</time>
      </trkpt>
      <trkpt lat="59.9920791" lon="17.3704716">
        <ele>43.8773</ele>
        <time>2013-05-05T12:06:44Z</time>
      </trkpt>
      <trkpt lat="59.9921163" lon="17.3703619">
        <ele>44.358</ele>
        <time>2013-05-05T12:06:45Z</time>
      </trkpt>
      <trkpt lat="59.9921524" lon="17.3702582">
        <ele>44.8386</ele>
        <time>2013-05-05T12:06:46Z</time>
      </trkpt>
      <trkpt lat="59.9921861" lon="17.3701567">
        <ele>44.8386</ele>
        <time>2013-05-05T12:06:47Z</time>
      </trkpt>
      <trkpt lat="59.9922223" lon="17.3700508">
        <ele>44.358</ele>
        <time>2013-05-05T12:06:48Z</time>
      </trkpt>
      <trkpt lat="59.9922676" lon="17.3699324">
        <ele>44.358</ele>
        <time>2013-05-05T12:06:49Z</time>
      </trkpt>
      <trkpt lat="59.9923152" lon="17.3698143">
        <ele>44.8386</ele>
        <time>2013-05-05T12:06:50Z</time>
      </trkpt>
      <trkpt lat="59.9923622" lon="17.3696962">
        <ele>44.358</ele>
        <time>2013-05-05T12:06:51Z</time>
      </trkpt>
      <trkpt lat="59.9924152" lon="17.3695823">
        <ele>44.8386</ele>
        <time>2013-05-05T12:06:52Z</time>
      </trkpt>
      <trkpt lat="59.9924655" lon="17.3694746">
        <ele>44.8386</ele>
        <time>2013-05-05T12:06:53Z</time>
      </trkpt>
      <trkpt lat="59.9925127" lon="17.3693644">
        <ele>44.8386</ele>
        <time>2013-05-05T12:06:54Z</time>
      </trkpt>
      <trkpt lat="59.9925654" lon="17.3692589">
        <ele>44.358</ele>
        <time>2013-05-05T12:06:55Z</time>
      </trkpt>
      <trkpt lat="59.9926162" lon="17.369156">
        <ele>44.8386</ele>
        <time>2013-05-05T12:06:56Z</time>
      </trkpt>
      <trkpt lat="59.9926618" lon="17.3690476">
        <ele>43.8773</ele>
        <time>2013-05-05T12:06:57Z</time>
      </trkpt>
      <trkpt lat="59.9927105" lon="17.3689588">
        <ele>43.8773</ele>
        <time>2013-05-05T12:06:58Z</time>
      </trkpt>
      <trkpt lat="59.9927588" lon="17.3688679">
        <ele>42.916</ele>
        <time>2013-05-05T12:06:59Z</time>
      </trkpt>
      <trkpt lat="59.9928053" lon="17.3687791">
        <ele>42.4354</ele>
        <time>2013-05-05T12:07:00Z</time>
      </trkpt>
      <trkpt lat="59.9928519" lon="17.3686953">
        <ele>42.4354</ele>
        <time>2013-05-05T12:07:01Z</time>
      </trkpt>
      <trkpt lat="59.9928844" lon="17.3685995">
        <ele>41.9547</ele>
        <time>2013-05-05T12:07:02Z</time>
      </trkpt>
      <trkpt lat="59.992926" lon="17.3685145">
        <ele>41.474</ele>
        <time>2013-05-05T12:07:03Z</time>
      </trkpt>
      <trkpt lat="59.992969" lon="17.368426">
        <ele>40.5128</ele>
        <time>2013-05-05T12:07:04Z</time>
      </trkpt>
      <trkpt lat="59.9930125" lon="17.3683375">
        <ele>39.5513</ele>
        <time>2013-05-05T12:07:05Z</time>
      </trkpt>
      <trkpt lat="59.9930628" lon="17.368268">
        <ele>39.5513</ele>
        <time>2013-05-05T12:07:06Z</time>
      </trkpt>
      <trkpt lat="59.9931118" lon="17.3681941">
        <ele>38.1094</ele>
        <time>2013-05-05T12:07:07Z</time>
      </trkpt>
      <trkpt lat="59.9931643" lon="17.3681168">
        <ele>38.1094</ele>
        <time>2013-05-05T12:07:08Z</time>
      </trkpt>
      <trkpt lat="59.9932136" lon="17.3680463">
        <ele>38.1094</ele>
        <time>2013-05-05T12:07:09Z</time>
      </trkpt>
      <trkpt lat="59.9932705" lon="17.3680042">
        <ele>38.1094</ele>
        <time>2013-05-05T12:07:10Z</time>
      </trkpt>
      <trkpt lat="59.9933288" lon="17.3679786">
        <ele>37.6287</ele>
        <time>2013-05-05T12:07:11Z</time>
      </trkpt>
      <trkpt lat="59.9933948" lon="17.3679768">
        <ele>38.1094</ele>
        <time>2013-05-05T12:07:12Z</time>
      </trkpt>
      <trkpt lat="59.993461" lon="17.3679839">
        <ele>38.1094</ele>
        <time>2013-05-05T12:07:13Z</time>
      </trkpt>
      <trkpt lat="59.9935254" lon="17.3679976">
        <ele>39.0707</ele>
        <time>2013-05-05T12:07:14Z</time>
      </trkpt>
      <trkpt lat="59.9935888" lon="17.3680186">
        <ele>39.5513</ele>
        <time>2013-05-05T12:07:15Z</time>
      </trkpt>
      <trkpt lat="59.9936461" lon="17.3680576">
        <ele>40.0321</ele>
        <time>2013-05-05T12:07:16Z</time>
      </trkpt>
      <trkpt lat="59.9937082" lon="17.3680856">
        <ele>40.0321</ele>
        <time>2013-05-05T12:07:17Z</time>
      </trkpt>
      <trkpt lat="59.9937673" lon="17.3681064">
        <ele>40.0321</ele>
        <time>2013-05-05T12:07:18Z</time>
      </trkpt>
      <trkpt lat="59.9938138" lon="17.3681297">
        <ele>40.5128</ele>
        <time>2013-05-05T12:07:19Z</time>
      </trkpt>
      <trkpt lat="59.9939243" lon="17.3681233">
        <ele>42.4354</ele>
        <time>2013-05-05T12:07:20Z</time>
      </trkpt>
      <trkpt lat="59.994018" lon="17.3681101">
        <ele>43.8773</ele>
        <time>2013-05-05T12:07:21Z</time>
      </trkpt>
      <trkpt lat="59.9940868" lon="17.3680775">
        <ele>44.358</ele>
        <time>2013-05-05T12:07:22Z</time>
      </trkpt>
      <trkpt lat="59.9941481" lon="17.3680497">
        <ele>44.358</ele>
        <time>2013-05-05T12:07:23Z</time>
      </trkpt>
      <trkpt lat="59.9942102" lon="17.3680081">
        <ele>43.8773</ele>
        <time>2013-05-05T12:07:24Z</time>
      </trkpt>
      <trkpt lat="59.9942757" lon="17.3679407">
        <ele>43.8773</ele>
        <time>2013-05-05T12:07:25Z</time>
      </trkpt>
      <trkpt lat="59.9943404" lon="17.3678679">
        <ele>43.3966</ele>
        <time>2013-05-05T12:07:26Z</time>
      </trkpt>
      <trkpt lat="59.9944054" lon="17.3677868">
        <ele>42.916</ele>
        <time>2013-05-05T12:07:27Z</time>
      </trkpt>
      <trkpt lat="59.9944684" lon="17.3677008">
        <ele>42.916</ele>
        <time>2013-05-05T12:07:28Z</time>
      </trkpt>
      <trkpt lat="59.9945281" lon="17.3676168">
        <ele>41.9547</ele>
        <time>2013-05-05T12:07:29Z</time>
      </trkpt>
      <trkpt lat="59.9945889" lon="17.3675239">
        <ele>41.474</ele>
        <time>2013-05-05T12:07:30Z</time>
      </trkpt>
      <trkpt lat="59.9946759" lon="17.3674378">
        <ele>42.4354</ele>
        <time>2013-05-05T12:07:31Z</time>
      </trkpt>
      <trkpt lat="59.9947502" lon="17.3673563">
        <ele>42.916</ele>
        <time>2013-05-05T12:07:32Z</time>
      </trkpt>
      <trkpt lat="59.9948213" lon="17.3672908">
        <ele>42.916</ele>
        <time>2013-05-05T12:07:33Z</time>
      </trkpt>
      <trkpt lat="59.9948949" lon="17.367244">
        <ele>43.3966</ele>
        <time>2013-05-05T12:07:34Z</time>
      </trkpt>
      <trkpt lat="59.9949669" lon="17.3672002">
        <ele>42.916</ele>
        <time>2013-05-05T12:07:35Z</time>
      </trkpt>
      <trkpt lat="59.9950451" lon="17.3671331">
        <ele>42.916</ele>
        <time>2013-05-05T12:07:36Z</time>
      </trkpt>
      <trkpt lat="59.9951285" lon="17.3670674">
        <ele>43.3966</ele>
        <time>2013-05-05T12:07:37Z</time>
      </trkpt>
      <trkpt lat="59.9952021" lon="17.3669919">
        <ele>42.916</ele>
        <time>2013-05-05T12:07:38Z</time>
      </trkpt>
      <trkpt lat="59.9952706" lon="17.3669139">
        <ele>42.4354</ele>
        <time>2013-05-05T12:07:39Z</time>
      </trkpt>
      <trkpt lat="59.9953371" lon="17.3668289">
        <ele>41.9547</ele>
        <time>2013-05-05T12:07:40Z</time>
      </trkpt>
      <trkpt lat="59.9954041" lon="17.3667519">
        <ele>42.4354</ele>
        <time>2013-05-05T12:07:41Z</time>
      </trkpt>
      <trkpt lat="59.9954653" lon="17.3666697">
        <ele>43.3966</ele>
        <time>2013-05-05T12:07:42Z</time>
      </trkpt>
      <trkpt lat="59.9955068" lon="17.3665516">
        <ele>44.358</ele>
        <time>2013-05-05T12:07:43Z</time>
      </trkpt>
      <trkpt lat="59.9955496" lon="17.3664512">
        <ele>44.8386</ele>
        <time>2013-05-05T12:07:44Z</time>
      </trkpt>
      <trkpt lat="59.9956304" lon="17.3663902">
        <ele>45.7999</ele>
        <time>2013-05-05T12:07:45Z</time>
      </trkpt>
      <trkpt lat="59.9956854" lon="17.3662778">
        <ele>46.7612</ele>
        <time>2013-05-05T12:07:46Z</time>
      </trkpt>
      <trkpt lat="59.9957373" lon="17.366169">
        <ele>46.7612</ele>
        <time>2013-05-05T12:07:47Z</time>
      </trkpt>
      <trkpt lat="59.9957929" lon="17.3660754">
        <ele>46.7612</ele>
        <time>2013-05-05T12:07:48Z</time>
      </trkpt>
      <trkpt lat="59.9958543" lon="17.3659637">
        <ele>46.2806</ele>
        <time>2013-05-05T12:07:49Z</time>
      </trkpt>
      <trkpt lat="59.9959139" lon="17.3658501">
        <ele>46.2806</ele>
        <time>2013-05-05T12:07:50Z</time>
      </trkpt>
      <trkpt lat="59.9959727" lon="17.3657344">
        <ele>45.7999</ele>
        <time>2013-05-05T12:07:51Z</time>
      </trkpt>
      <trkpt lat="59.9960325" lon="17.3656187">
        <ele>45.3192</ele>
        <time>2013-05-05T12:07:52Z</time>
      </trkpt>
      <trkpt lat="59.9960865" lon="17.3654998">
        <ele>44.8386</ele>
        <time>2013-05-05T12:07:53Z</time>
      </trkpt>
      <trkpt lat="59.9961422" lon="17.3653714">
        <ele>44.8386</ele>
        <time>2013-05-05T12:07:54Z</time>
      </trkpt>
      <trkpt lat="59.9961998" lon="17.365251">
        <ele>45.3192</ele>
        <time>2013-05-05T12:07:55Z</time>
      </trkpt>
      <trkpt lat="59.9962595" lon="17.3651366">
        <ele>44.358</ele>
        <time>2013-05-05T12:07:56Z</time>
      </trkpt>
      <trkpt lat="59.9963172" lon="17.3650221">
        <ele>44.358</ele>
        <time>2013-05-05T12:07:57Z</time>
      </trkpt>
      <trkpt lat="59.9963762" lon="17.3649092">
        <ele>44.358</ele>
        <time>2013-05-05T12:07:58Z</time>
      </trkpt>
      <trkpt lat="59.9964381" lon="17.3647923">
        <ele>45.3192</ele>
        <time>2013-05-05T12:07:59Z</time>
      </trkpt>
      <trkpt lat="59.9965008" lon="17.3646464">
        <ele>46.2806</ele>
        <time>2013-05-05T12:08:00Z</time>
      </trkpt>
      <trkpt lat="59.9965573" lon="17.3645415">
        <ele>46.2806</ele>
        <time>2013-05-05T12:08:01Z</time>
      </trkpt>
      <trkpt lat="59.9966079" lon="17.3644289">
        <ele>46.2806</ele>
        <time>2013-05-05T12:08:02Z</time>
      </trkpt>
      <trkpt lat="59.9966598" lon="17.3643211">
        <ele>46.2806</ele>
        <time>2013-05-05T12:08:03Z</time>
      </trkpt>
      <trkpt lat="59.9967152" lon="17.3642106">
        <ele>45.7999</ele>
        <time>2013-05-05T12:08:04Z</time>
      </trkpt>
      <trkpt lat="59.9967633" lon="17.3641059">
        <ele>45.3192</ele>
        <time>2013-05-05T12:08:05Z</time>
      </trkpt>
      <trkpt lat="59.9968003" lon="17.3640011">
        <ele>44.8386</ele>
        <time>2013-05-05T12:08:06Z</time>
      </trkpt>
      <trkpt lat="59.9968478" lon="17.3638914">
        <ele>45.7999</ele>
        <time>2013-05-05T12:08:07Z</time>
      </trkpt>
      <trkpt lat="59.9968901" lon="17.3637733">
        <ele>45.7999</ele>
        <time>2013-05-05T12:08:08Z</time>
      </trkpt>
      <trkpt lat="59.9969385" lon="17.3636479">
        <ele>44.358</ele>
        <time>2013-05-05T12:08:09Z</time>
      </trkpt>
      <trkpt lat="59.9969862" lon="17.3635215">
        <ele>42.4354</ele>
        <time>2013-05-05T12:08:10Z</time>
      </trkpt>
      <trkpt lat="59.9970346" lon="17.3634106">
        <ele>41.474</ele>
        <time>2013-05-05T12:08:11Z</time>
      </trkpt>
      <trkpt lat="59.9970911" lon="17.3632915">
        <ele>40.0321</ele>
        <time>2013-05-05T12:08:12Z</time>
      </trkpt>
      <trkpt lat="59.9971541" lon="17.3631616">
        <ele>38.1094</ele>
        <time>2013-05-05T12:08:13Z</time>
      </trkpt>
      <trkpt lat="59.9972197" lon="17.3630256">
        <ele>36.6675</ele>
        <time>2013-05-05T12:08:14Z</time>
      </trkpt>
      <trkpt lat="59.997287" lon="17.3628869">
        <ele>36.1868</ele>
        <time>2013-05-05T12:08:15Z</time>
      </trkpt>
      <trkpt lat="59.9973516" lon="17.362749">
        <ele>35.2255</ele>
        <time>2013-05-05T12:08:16Z</time>
      </trkpt>
      <trkpt lat="59.9974275" lon="17.3626127">
        <ele>36.1868</ele>
        <time>2013-05-05T12:08:17Z</time>
      </trkpt>
      <trkpt lat="59.9974876" lon="17.3624755">
        <ele>35.7061</ele>
        <time>2013-05-05T12:08:18Z</time>
      </trkpt>
      <trkpt lat="59.9975467" lon="17.3623338">
        <ele>36.1868</ele>
        <time>2013-05-05T12:08:19Z</time>
      </trkpt>
      <trkpt lat="59.9976067" lon="17.3621828">
        <ele>37.6287</ele>
        <time>2013-05-05T12:08:20Z</time>
      </trkpt>
      <trkpt lat="59.9976538" lon="17.3620281">
        <ele>37.6287</ele>
        <time>2013-05-05T12:08:21Z</time>
      </trkpt>
      <trkpt lat="59.9976928" lon="17.3618753">
        <ele>37.6287</ele>
        <time>2013-05-05T12:08:22Z</time>
      </trkpt>
      <trkpt lat="59.9977295" lon="17.3617255">
        <ele>37.6287</ele>
        <time>2013-05-05T12:08:23Z</time>
      </trkpt>
      <trkpt lat="59.9977653" lon="17.361578">
        <ele>36.6675</ele>
        <time>2013-05-05T12:08:24Z</time>
      </trkpt>
      <trkpt lat="59.9978138" lon="17.3614478">
        <ele>37.1481</ele>
        <time>2013-05-05T12:08:25Z</time>
      </trkpt>
      <trkpt lat="59.9979" lon="17.3613399">
        <ele>37.6287</ele>
        <time>2013-05-05T12:08:26Z</time>
      </trkpt>
      <trkpt lat="59.9979819" lon="17.3612661">
        <ele>37.6287</ele>
        <time>2013-05-05T12:08:27Z</time>
      </trkpt>
      <trkpt lat="59.9980704" lon="17.361207">
        <ele>36.6675</ele>
        <time>2013-05-05T12:08:28Z</time>
      </trkpt>
      <trkpt lat="59.9981579" lon="17.3611573">
        <ele>37.6287</ele>
        <time>2013-05-05T12:08:29Z</time>
      </trkpt>
      <trkpt lat="59.9982413" lon="17.3611011">
        <ele>37.6287</ele>
        <time>2013-05-05T12:08:30Z</time>
      </trkpt>
      <trkpt lat="59.9983236" lon="17.3610432">
        <ele>38.1094</ele>
        <time>2013-05-05T12:08:31Z</time>
      </trkpt>
      <trkpt lat="59.9984053" lon="17.3609852">
        <ele>39.0707</ele>
        <time>2013-05-05T12:08:32Z</time>
      </trkpt>
      <trkpt lat="59.9984832" lon="17.3609216">
        <ele>39.5513</ele>
        <time>2013-05-05T12:08:33Z</time>
      </trkpt>
      <trkpt lat="59.9985562" lon="17.3608611">
        <ele>39.5513</ele>
        <time>2013-05-05T12:08:34Z</time>
      </trkpt>
      <trkpt lat="59.9986234" lon="17.360806">
        <ele>40.0321</ele>
        <time>2013-05-05T12:08:35Z</time>
      </trkpt>
      <trkpt lat="59.9986893" lon="17.3607549">
        <ele>40.9934</ele>
        <time>2013-05-05T12:08:36Z</time>
      </trkpt>
      <trkpt lat="59.9987524" lon="17.3607108">
        <ele>41.474</ele>
        <time>2013-05-05T12:08:37Z</time>
      </trkpt>
      <trkpt lat="59.9988122" lon="17.3606626">
        <ele>41.9547</ele>
        <time>2013-05-05T12:08:38Z</time>
      </trkpt>
      <trkpt lat="59.9988707" lon="17.3606153">
        <ele>42.4354</ele>
        <time>2013-05-05T12:08:39Z</time>
      </trkpt>
      <trkpt lat="59.9989296" lon="17.360573">
        <ele>42.916</ele>
        <time>2013-05-05T12:08:40Z</time>
      </trkpt>
      <trkpt lat="59.998988" lon="17.360527">
        <ele>42.916</ele>
        <time>2013-05-05T12:08:41Z</time>
      </trkpt>
      <trkpt lat="59.9990509" lon="17.3604881">
        <ele>43.8773</ele>
        <time>2013-05-05T12:08:42Z</time>
      </trkpt>
      <trkpt lat="59.9991179" lon="17.36045">
        <ele>44.8386</ele>
        <time>2013-05-05T12:08:43Z</time>
      </trkpt>
      <trkpt lat="59.9991855" lon="17.360402">
        <ele>45.7999</ele>
        <time>2013-05-05T12:08:44Z</time>
      </trkpt>
      <trkpt lat="59.9992494" lon="17.3603497">
        <ele>46.2806</ele>
        <time>2013-05-05T12:08:45Z</time>
      </trkpt>
      <trkpt lat="59.9993135" lon="17.3603057">
        <ele>46.7612</ele>
        <time>2013-05-05T12:08:46Z</time>
      </trkpt>
      <trkpt lat="59.9993747" lon="17.3602622">
        <ele>47.2418</ele>
        <time>2013-05-05T12:08:47Z</time>
      </trkpt>
      <trkpt lat="59.9994379" lon="17.3602208">
        <ele>47.7225</ele>
        <time>2013-05-05T12:08:48Z</time>
      </trkpt>
      <trkpt lat="59.9995042" lon="17.3601814">
        <ele>48.2034</ele>
        <time>2013-05-05T12:08:49Z</time>
      </trkpt>
      <trkpt lat="59.9995731" lon="17.3601476">
        <ele>48.684</ele>
        <time>2013-05-05T12:08:50Z</time>
      </trkpt>
      <trkpt lat="59.9996435" lon="17.3601166">
        <ele>48.684</ele>
        <time>2013-05-05T12:08:51Z</time>
      </trkpt>
      <trkpt lat="59.9997176" lon="17.3600875">
        <ele>49.1646</ele>
        <time>2013-05-05T12:08:52Z</time>
      </trkpt>
      <trkpt lat="59.9997922" lon="17.3600638">
        <ele>49.6453</ele>
        <time>2013-05-05T12:08:53Z</time>
      </trkpt>
      <trkpt lat="59.9998667" lon="17.3600395">
        <ele>50.126</ele>
        <time>2013-05-05T12:08:54Z</time>
      </trkpt>
      <trkpt lat="59.9999409" lon="17.3600161">
        <ele>49.6453</ele>
        <time>2013-05-05T12:08:55Z</time>
      </trkpt>
      <trkpt lat="60.0000145" lon="17.3600001">
        <ele>50.126</ele>
        <time>2013-05-05T12:08:56Z</time>
      </trkpt>
      <trkpt lat="60.0000883" lon="17.3599892">
        <ele>51.0872</ele>
        <time>2013-05-05T12:08:57Z</time>
      </trkpt>
      <trkpt lat="60.0001619" lon="17.3599745">
        <ele>51.0872</ele>
        <time>2013-05-05T12:08:58Z</time>
      </trkpt>
      <trkpt lat="60.0002373" lon="17.3599639">
        <ele>51.0872</ele>
        <time>2013-05-05T12:08:59Z</time>
      </trkpt>
      <trkpt lat="60.000315" lon="17.3599639">
        <ele>51.5679</ele>
        <time>2013-05-05T12:09:00Z</time>
      </trkpt>
      <trkpt lat="60.0003937" lon="17.3599736">
        <ele>52.0486</ele>
        <time>2013-05-05T12:09:01Z</time>
      </trkpt>
      <trkpt lat="60.0004732" lon="17.359998">
        <ele>52.0486</ele>
        <time>2013-05-05T12:09:02Z</time>
      </trkpt>
      <trkpt lat="60.0005505" lon="17.3600346">
        <ele>51.5679</ele>
        <time>2013-05-05T12:09:03Z</time>
      </trkpt>
      <trkpt lat="60.0006265" lon="17.3600783">
        <ele>51.0872</ele>
        <time>2013-05-05T12:09:04Z</time>
      </trkpt>
      <trkpt lat="60.0006996" lon="17.3601217">
        <ele>51.0872</ele>
        <time>2013-05-05T12:09:05Z</time>
      </trkpt>
      <trkpt lat="60.0007693" lon="17.3601625">
        <ele>51.0872</ele>
        <time>2013-05-05T12:09:06Z</time>
      </trkpt>
      <trkpt lat="60.0008375" lon="17.3602021">
        <ele>51.0872</ele>
        <time>2013-05-05T12:09:07Z</time>
      </trkpt>
      <trkpt lat="60.0009037" lon="17.360243">
        <ele>51.0872</ele>
        <time>2013-05-05T12:09:08Z</time>
      </trkpt>
      <trkpt lat="60.0009692" lon="17.3602843">
        <ele>51.0872</ele>
        <time>2013-05-05T12:09:09Z</time>
      </trkpt>
      <trkpt lat="60.0010357" lon="17.3603247">
        <ele>51.0872</ele>
        <time>2013-05-05T12:09:10Z</time>
      </trkpt>
      <trkpt lat="60.0011008" lon="17.3603659">
        <ele>50.6066</ele>
        <time>2013-05-05T12:09:11Z</time>
      </trkpt>
      <trkpt lat="60.0011692" lon="17.3604175">
        <ele>51.0872</ele>
        <time>2013-05-05T12:09:12Z</time>
      </trkpt>
      <trkpt lat="60.0012311" lon="17.3604886">
        <ele>51.5679</ele>
        <time>2013-05-05T12:09:13Z</time>
      </trkpt>
      <trkpt lat="60.0012811" lon="17.3605864">
        <ele>51.5679</ele>
        <time>2013-05-05T12:09:14Z</time>
      </trkpt>
      <trkpt lat="60.0013149" lon="17.360709">
        <ele>51.0872</ele>
        <time>2013-05-05T12:09:15Z</time>
      </trkpt>
      <trkpt lat="60.0013378" lon="17.3608445">
        <ele>50.6066</ele>
        <time>2013-05-05T12:09:16Z</time>
      </trkpt>
      <trkpt lat="60.0013519" lon="17.3609915">
        <ele>50.6066</ele>
        <time>2013-05-05T12:09:17Z</time>
      </trkpt>
      <trkpt lat="60.0013607" lon="17.3611443">
        <ele>50.6066</ele>
        <time>2013-05-05T12:09:18Z</time>
      </trkpt>
      <trkpt lat="60.0013695" lon="17.3613013">
        <ele>50.126</ele>
        <time>2013-05-05T12:09:19Z</time>
      </trkpt>
      <trkpt lat="60.0013778" lon="17.3614614">
        <ele>50.126</ele>
        <time>2013-05-05T12:09:20Z</time>
      </trkpt>
      <trkpt lat="60.0013851" lon="17.3616257">
        <ele>50.126</ele>
        <time>2013-05-05T12:09:21Z</time>
      </trkpt>
      <trkpt lat="60.0013934" lon="17.3617929">
        <ele>50.126</ele>
        <time>2013-05-05T12:09:22Z</time>
      </trkpt>
      <trkpt lat="60.0014041" lon="17.3619611">
        <ele>50.126</ele>
        <time>2013-05-05T12:09:23Z</time>
      </trkpt>
      <trkpt lat="60.0014156" lon="17.3621348">
        <ele>50.126</ele>
        <time>2013-05-05T12:09:24Z</time>
      </trkpt>
      <trkpt lat="60.0014295" lon="17.3623024">
        <ele>50.6066</ele>
        <time>2013-05-05T12:09:25Z</time>
      </trkpt>
      <trkpt lat="60.001442" lon="17.3624649">
        <ele>50.6066</ele>
        <time>2013-05-05T12:09:26Z</time>
      </trkpt>
      <trkpt lat="60.0014507" lon="17.3626213">
        <ele>49.6453</ele>
        <time>2013-05-05T12:09:27Z</time>
      </trkpt>
      <trkpt lat="60.0014591" lon="17.362781">
        <ele>49.6453</ele>
        <time>2013-05-05T12:09:28Z</time>
      </trkpt>
      <trkpt lat="60.0014737" lon="17.3629381">
        <ele>50.126</ele>
        <time>2013-05-05T12:09:29Z</time>
      </trkpt>
      <trkpt lat="60.0014945" lon="17.3630909">
        <ele>50.6066</ele>
        <time>2013-05-05T12:09:30Z</time>
      </trkpt>
      <trkpt lat="60.0015296" lon="17.3632308">
        <ele>50.6066</ele>
        <time>2013-05-05T12:09:31Z</time>
      </trkpt>
      <trkpt lat="60.001584" lon="17.3634044">
        <ele>50.6066</ele>
        <time>2013-05-05T12:09:32Z</time>
      </trkpt>
      <trkpt lat="60.0016466" lon="17.3635438">
        <ele>51.0872</ele>
        <time>2013-05-05T12:09:33Z</time>
      </trkpt>
      <trkpt lat="60.0017384" lon="17.3635759">
        <ele>49.6453</ele>
        <time>2013-05-05T12:09:34Z</time>
      </trkpt>
      <trkpt lat="60.0018238" lon="17.3636394">
        <ele>50.126</ele>
        <time>2013-05-05T12:09:35Z</time>
      </trkpt>
      <trkpt lat="60.0019055" lon="17.3636822">
        <ele>49.6453</ele>
        <time>2013-05-05T12:09:36Z</time>
      </trkpt>
      <trkpt lat="60.0019782" lon="17.3636974">
        <ele>48.684</ele>
        <time>2013-05-05T12:09:37Z</time>
      </trkpt>
      <trkpt lat="60.0020599" lon="17.3637287">
        <ele>48.2034</ele>
        <time>2013-05-05T12:09:38Z</time>
      </trkpt>
      <trkpt lat="60.0021459" lon="17.3637723">
        <ele>47.7225</ele>
        <time>2013-05-05T12:09:39Z</time>
      </trkpt>
      <trkpt lat="60.0022349" lon="17.3638176">
        <ele>48.684</ele>
        <time>2013-05-05T12:09:40Z</time>
      </trkpt>
      <trkpt lat="60.0023165" lon="17.3638629">
        <ele>48.2034</ele>
        <time>2013-05-05T12:09:41Z</time>
      </trkpt>
      <trkpt lat="60.002401" lon="17.3638989">
        <ele>48.2034</ele>
        <time>2013-05-05T12:09:42Z</time>
      </trkpt>
      <trkpt lat="60.0024857" lon="17.3639219">
        <ele>48.2034</ele>
        <time>2013-05-05T12:09:43Z</time>
      </trkpt>
      <trkpt lat="60.0025693" lon="17.3639462">
        <ele>48.2034</ele>
        <time>2013-05-05T12:09:44Z</time>
      </trkpt>
      <trkpt lat="60.002652" lon="17.3639523">
        <ele>48.2034</ele>
        <time>2013-05-05T12:09:45Z</time>
      </trkpt>
      <trkpt lat="60.0027314" lon="17.3639504">
        <ele>48.2034</ele>
        <time>2013-05-05T12:09:46Z</time>
      </trkpt>
      <trkpt lat="60.002803" lon="17.3639748">
        <ele>48.2034</ele>
        <time>2013-05-05T12:09:47Z</time>
      </trkpt>
      <trkpt lat="60.0028778" lon="17.3639882">
        <ele>47.7225</ele>
        <time>2013-05-05T12:09:48Z</time>
      </trkpt>
      <trkpt lat="60.002951" lon="17.3640007">
        <ele>46.7612</ele>
        <time>2013-05-05T12:09:49Z</time>
      </trkpt>
      <trkpt lat="60.003024" lon="17.3640127">
        <ele>46.2806</ele>
        <time>2013-05-05T12:09:50Z</time>
      </trkpt>
      <trkpt lat="60.0031005" lon="17.3640243">
        <ele>45.3192</ele>
        <time>2013-05-05T12:09:51Z</time>
      </trkpt>
      <trkpt lat="60.0031768" lon="17.3640364">
        <ele>44.8386</ele>
        <time>2013-05-05T12:09:52Z</time>
      </trkpt>
      <trkpt lat="60.0032544" lon="17.3640401">
        <ele>44.358</ele>
        <time>2013-05-05T12:09:53Z</time>
      </trkpt>
      <trkpt lat="60.0033261" lon="17.3640529">
        <ele>43.8773</ele>
        <time>2013-05-05T12:09:54Z</time>
      </trkpt>
      <trkpt lat="60.003397" lon="17.3640533">
        <ele>42.916</ele>
        <time>2013-05-05T12:09:55Z</time>
      </trkpt>
      <trkpt lat="60.0034709" lon="17.3640592">
        <ele>42.4354</ele>
        <time>2013-05-05T12:09:56Z</time>
      </trkpt>
      <trkpt lat="60.0035486" lon="17.3640582">
        <ele>41.9547</ele>
        <time>2013-05-05T12:09:57Z</time>
      </trkpt>
      <trkpt lat="60.0036269" lon="17.3640437">
        <ele>41.474</ele>
        <time>2013-05-05T12:09:58Z</time>
      </trkpt>
      <trkpt lat="60.0037043" lon="17.3640355">
        <ele>40.9934</ele>
        <time>2013-05-05T12:09:59Z</time>
      </trkpt>
      <trkpt lat="60.0037812" lon="17.3640441">
        <ele>40.9934</ele>
        <time>2013-05-05T12:10:00Z</time>
      </trkpt>
      <trkpt lat="60.0038596" lon="17.3640545">
        <ele>41.474</ele>
        <time>2013-05-05T12:10:01Z</time>
      </trkpt>
      <trkpt lat="60.0039336" lon="17.3640517">
        <ele>40.5128</ele>
        <time>2013-05-05T12:10:02Z</time>
      </trkpt>
      <trkpt lat="60.0040112" lon="17.3640504">
        <ele>39.5513</ele>
        <time>2013-05-05T12:10:03Z</time>
      </trkpt>
      <trkpt lat="60.0041024" lon="17.3640446">
        <ele>40.0321</ele>
        <time>2013-05-05T12:10:04Z</time>
      </trkpt>
      <trkpt lat="60.0041904" lon="17.3640535">
        <ele>40.5128</ele>
        <time>2013-05-05T12:10:05Z</time>
      </trkpt>
      <trkpt lat="60.0042771" lon="17.3640546">
        <ele>40.0321</ele>
        <time>2013-05-05T12:10:06Z</time>
      </trkpt>
      <trkpt lat="60.004361" lon="17.3640545">
        <ele>39.0707</ele>
        <time>2013-05-05T12:10:07Z</time>
      </trkpt>
      <trkpt lat="60.004449" lon="17.3640476">
        <ele>38.5901</ele>
        <time>2013-05-05T12:10:08Z</time>
      </trkpt>
      <trkpt lat="60.0045392" lon="17.3640452">
        <ele>38.1094</ele>
        <time>2013-05-05T12:10:09Z</time>
      </trkpt>
      <trkpt lat="60.0046338" lon="17.3640393">
        <ele>37.6287</ele>
        <time>2013-05-05T12:10:10Z</time>
      </trkpt>
      <trkpt lat="60.00473" lon="17.3640357">
        <ele>37.6287</ele>
        <time>2013-05-05T12:10:11Z</time>
      </trkpt>
      <trkpt lat="60.0048268" lon="17.3640284">
        <ele>38.1094</ele>
        <time>2013-05-05T12:10:12Z</time>
      </trkpt>
      <trkpt lat="60.0049297" lon="17.3640347">
        <ele>39.5513</ele>
        <time>2013-05-05T12:10:13Z</time>
      </trkpt>
      <trkpt lat="60.0050245" lon="17.3640312">
        <ele>40.0321</ele>
        <time>2013-05-05T12:10:14Z</time>
      </trkpt>
      <trkpt lat="60.005126" lon="17.3640301">
        <ele>40.5128</ele>
        <time>2013-05-05T12:10:15Z</time>
      </trkpt>
      <trkpt lat="60.0052246" lon="17.3640269">
        <ele>40.9934</ele>
        <time>2013-05-05T12:10:16Z</time>
      </trkpt>
      <trkpt lat="60.0053178" lon="17.3640265">
        <ele>40.9934</ele>
        <time>2013-05-05T12:10:17Z</time>
      </trkpt>
      <trkpt lat="60.0054143" lon="17.3640248">
        <ele>41.474</ele>
        <time>2013-05-05T12:10:18Z</time>
      </trkpt>
      <trkpt lat="60.0055108" lon="17.364025">
        <ele>42.4354</ele>
        <time>2013-05-05T12:10:19Z</time>
      </trkpt>
      <trkpt lat="60.0055986" lon="17.3640067">
        <ele>42.4354</ele>
        <time>2013-05-05T12:10:20Z</time>
      </trkpt>
      <trkpt lat="60.0056994" lon="17.3640171">
        <ele>43.8773</ele>
        <time>2013-05-05T12:10:21Z</time>
      </trkpt>
      <trkpt lat="60.0057943" lon="17.3640329">
        <ele>44.8386</ele>
        <time>2013-05-05T12:10:22Z</time>
      </trkpt>
      <trkpt lat="60.0058845" lon="17.3640525">
        <ele>45.3192</ele>
        <time>2013-05-05T12:10:23Z</time>
      </trkpt>
      <trkpt lat="60.0059731" lon="17.3640691">
        <ele>46.2806</ele>
        <time>2013-05-05T12:10:24Z</time>
      </trkpt>
      <trkpt lat="60.0060589" lon="17.3640908">
        <ele>46.7612</ele>
        <time>2013-05-05T12:10:25Z</time>
      </trkpt>
      <trkpt lat="60.0061428" lon="17.364117">
        <ele>47.2418</ele>
        <time>2013-05-05T12:10:26Z</time>
      </trkpt>
      <trkpt lat="60.0062259" lon="17.3641414">
        <ele>47.2418</ele>
        <time>2013-05-05T12:10:27Z</time>
      </trkpt>
      <trkpt lat="60.0063103" lon="17.3641636">
        <ele>47.7225</ele>
        <time>2013-05-05T12:10:28Z</time>
      </trkpt>
      <trkpt lat="60.0063945" lon="17.364182">
        <ele>48.2034</ele>
        <time>2013-05-05T12:10:29Z</time>
      </trkpt>
      <trkpt lat="60.0064724" lon="17.3642032">
        <ele>47.2418</ele>
        <time>2013-05-05T12:10:30Z</time>
      </trkpt>
      <trkpt lat="60.0065533" lon="17.3642249">
        <ele>46.7612</ele>
        <time>2013-05-05T12:10:31Z</time>
      </trkpt>
      <trkpt lat="60.0066376" lon="17.3642527">
        <ele>46.2806</ele>
        <time>2013-05-05T12:10:32Z</time>
      </trkpt>
      <trkpt lat="60.0067281" lon="17.3642695">
        <ele>46.2806</ele>
        <time>2013-05-05T12:10:33Z</time>
      </trkpt>
      <trkpt lat="60.0068159" lon="17.3643">
        <ele>46.2806</ele>
        <time>2013-05-05T12:10:34Z</time>
      </trkpt>
      <trkpt lat="60.0069007" lon="17.3643399">
        <ele>45.7999</ele>
        <time>2013-05-05T12:10:35Z</time>
      </trkpt>
      <trkpt lat="60.0069841" lon="17.3643753">
        <ele>45.7999</ele>
        <time>2013-05-05T12:10:36Z</time>
      </trkpt>
      <trkpt lat="60.0070651" lon="17.3644151">
        <ele>45.3192</ele>
        <time>2013-05-05T12:10:37Z</time>
      </trkpt>
      <trkpt lat="60.0071438" lon="17.3644606">
        <ele>45.3192</ele>
        <time>2013-05-05T12:10:38Z</time>
      </trkpt>
      <trkpt lat="60.0072213" lon="17.3645099">
        <ele>45.3192</ele>
        <time>2013-05-05T12:10:39Z</time>
      </trkpt>
      <trkpt lat="60.0072945" lon="17.3645699">
        <ele>45.3192</ele>
        <time>2013-05-05T12:10:40Z</time>
      </trkpt>
      <trkpt lat="60.0073708" lon="17.3646268">
        <ele>45.7999</ele>
        <time>2013-05-05T12:10:41Z</time>
      </trkpt>
      <trkpt lat="60.0074441" lon="17.3646819">
        <ele>45.7999</ele>
        <time>2013-05-05T12:10:42Z</time>
      </trkpt>
      <trkpt lat="60.0075214" lon="17.3647386">
        <ele>45.7999</ele>
        <time>2013-05-05T12:10:43Z</time>
      </trkpt>
      <trkpt lat="60.0076046" lon="17.3648">
        <ele>46.2806</ele>
        <time>2013-05-05T12:10:44Z</time>
      </trkpt>
      <trkpt lat="60.007682" lon="17.3648752">
        <ele>46.2806</ele>
        <time>2013-05-05T12:10:45Z</time>
      </trkpt>
      <trkpt lat="60.0077466" lon="17.3649085">
        <ele>46.2806</ele>
        <time>2013-05-05T12:10:46Z</time>
      </trkpt>
      <trkpt lat="60.0078121" lon="17.3649547">
        <ele>46.2806</ele>
        <time>2013-05-05T12:10:47Z</time>
      </trkpt>
      <trkpt lat="60.0078719" lon="17.3650116">
        <ele>45.3192</ele>
        <time>2013-05-05T12:10:48Z</time>
      </trkpt>
      <trkpt lat="60.0080268" lon="17.365118">
        <ele>42.916</ele>
        <time>2013-05-05T12:10:50Z</time>
      </trkpt>
      <trkpt lat="60.0080974" lon="17.3651719">
        <ele>41.9547</ele>
        <time>2013-05-05T12:10:51Z</time>
      </trkpt>
      <trkpt lat="60.0081745" lon="17.3652263">
        <ele>41.474</ele>
        <time>2013-05-05T12:10:52Z</time>
      </trkpt>
      <trkpt lat="60.0082472" lon="17.3652796">
        <ele>40.9934</ele>
        <time>2013-05-05T12:10:53Z</time>
      </trkpt>
      <trkpt lat="60.0083175" lon="17.3653313">
        <ele>40.5128</ele>
        <time>2013-05-05T12:10:54Z</time>
      </trkpt>
      <trkpt lat="60.0083859" lon="17.3654063">
        <ele>40.5128</ele>
        <time>2013-05-05T12:10:55Z</time>
      </trkpt>
      <trkpt lat="60.0084507" lon="17.3654759">
        <ele>40.5128</ele>
        <time>2013-05-05T12:10:56Z</time>
      </trkpt>
      <trkpt lat="60.0085265" lon="17.3655841">
        <ele>40.0321</ele>
        <time>2013-05-05T12:10:57Z</time>
      </trkpt>
      <trkpt lat="60.008643" lon="17.3656871">
        <ele>42.4354</ele>
        <time>2013-05-05T12:10:58Z</time>
      </trkpt>
      <trkpt lat="60.008721" lon="17.3658135">
        <ele>43.3966</ele>
        <time>2013-05-05T12:10:59Z</time>
      </trkpt>
      <trkpt lat="60.0087874" lon="17.3659535">
        <ele>43.8773</ele>
        <time>2013-05-05T12:11:00Z</time>
      </trkpt>
      <trkpt lat="60.0088578" lon="17.3660986">
        <ele>45.3192</ele>
        <time>2013-05-05T12:11:01Z</time>
      </trkpt>
      <trkpt lat="60.0089057" lon="17.3662341">
        <ele>45.7999</ele>
        <time>2013-05-05T12:11:02Z</time>
      </trkpt>
      <trkpt lat="60.0089528" lon="17.3663473">
        <ele>45.7999</ele>
        <time>2013-05-05T12:11:03Z</time>
      </trkpt>
      <trkpt lat="60.0090028" lon="17.3664492">
        <ele>45.7999</ele>
        <time>2013-05-05T12:11:04Z</time>
      </trkpt>
      <trkpt lat="60.0090537" lon="17.3665537">
        <ele>46.2806</ele>
        <time>2013-05-05T12:11:05Z</time>
      </trkpt>
      <trkpt lat="60.0091055" lon="17.3666658">
        <ele>46.2806</ele>
        <time>2013-05-05T12:11:06Z</time>
      </trkpt>
      <trkpt lat="60.0091553" lon="17.3667947">
        <ele>46.7612</ele>
        <time>2013-05-05T12:11:07Z</time>
      </trkpt>
      <trkpt lat="60.0092077" lon="17.3669135">
        <ele>47.7225</ele>
        <time>2013-05-05T12:11:08Z</time>
      </trkpt>
      <trkpt lat="60.0092604" lon="17.3670342">
        <ele>47.7225</ele>
        <time>2013-05-05T12:11:09Z</time>
      </trkpt>
      <trkpt lat="60.0093106" lon="17.3671787">
        <ele>48.684</ele>
        <time>2013-05-05T12:11:10Z</time>
      </trkpt>
      <trkpt lat="60.0093614" lon="17.3673245">
        <ele>49.6453</ele>
        <time>2013-05-05T12:11:11Z</time>
      </trkpt>
      <trkpt lat="60.0094163" lon="17.3674646">
        <ele>50.6066</ele>
        <time>2013-05-05T12:11:12Z</time>
      </trkpt>
      <trkpt lat="60.0094711" lon="17.3675925">
        <ele>49.6453</ele>
        <time>2013-05-05T12:11:13Z</time>
      </trkpt>
      <trkpt lat="60.0095257" lon="17.3677298">
        <ele>50.6066</ele>
        <time>2013-05-05T12:11:14Z</time>
      </trkpt>
      <trkpt lat="60.009577" lon="17.3678615">
        <ele>51.0872</ele>
        <time>2013-05-05T12:11:15Z</time>
      </trkpt>
      <trkpt lat="60.0096311" lon="17.3679827">
        <ele>51.5679</ele>
        <time>2013-05-05T12:11:16Z</time>
      </trkpt>
      <trkpt lat="60.0096872" lon="17.3681038">
        <ele>52.0486</ele>
        <time>2013-05-05T12:11:17Z</time>
      </trkpt>
      <trkpt lat="60.0097437" lon="17.3682192">
        <ele>51.5679</ele>
        <time>2013-05-05T12:11:18Z</time>
      </trkpt>
      <trkpt lat="60.0097977" lon="17.3683339">
        <ele>51.0872</ele>
        <time>2013-05-05T12:11:19Z</time>
      </trkpt>
      <trkpt lat="60.0098521" lon="17.3684461">
        <ele>51.0872</ele>
        <time>2013-05-05T12:11:20Z</time>
      </trkpt>
      <trkpt lat="60.0099079" lon="17.3685636">
        <ele>50.6066</ele>
        <time>2013-05-05T12:11:21Z</time>
      </trkpt>
      <trkpt lat="60.0099676" lon="17.3686741">
        <ele>50.126</ele>
        <time>2013-05-05T12:11:22Z</time>
      </trkpt>
      <trkpt lat="60.0100273" lon="17.3687902">
        <ele>49.6453</ele>
        <time>2013-05-05T12:11:23Z</time>
      </trkpt>
      <trkpt lat="60.0100865" lon="17.368899">
        <ele>49.1646</ele>
        <time>2013-05-05T12:11:24Z</time>
      </trkpt>
      <trkpt lat="60.0101482" lon="17.3690096">
        <ele>49.1646</ele>
        <time>2013-05-05T12:11:25Z</time>
      </trkpt>
      <trkpt lat="60.0102116" lon="17.3691247">
        <ele>49.1646</ele>
        <time>2013-05-05T12:11:26Z</time>
      </trkpt>
      <trkpt lat="60.0102735" lon="17.3692406">
        <ele>49.6453</ele>
        <time>2013-05-05T12:11:27Z</time>
      </trkpt>
      <trkpt lat="60.0103347" lon="17.3693647">
        <ele>50.126</ele>
        <time>2013-05-05T12:11:28Z</time>
      </trkpt>
      <trkpt lat="60.0103869" lon="17.3695035">
        <ele>50.126</ele>
        <time>2013-05-05T12:11:29Z</time>
      </trkpt>
      <trkpt lat="60.0104383" lon="17.3696418">
        <ele>50.6066</ele>
        <time>2013-05-05T12:11:30Z</time>
      </trkpt>
      <trkpt lat="60.0104839" lon="17.3697876">
        <ele>50.126</ele>
        <time>2013-05-05T12:11:31Z</time>
      </trkpt>
      <trkpt lat="60.0105262" lon="17.3699351">
        <ele>50.126</ele>
        <time>2013-05-05T12:11:32Z</time>
      </trkpt>
      <trkpt lat="60.0105704" lon="17.3700815">
        <ele>50.126</ele>
        <time>2013-05-05T12:11:33Z</time>
      </trkpt>
      <trkpt lat="60.010615" lon="17.3702226">
        <ele>50.126</ele>
        <time>2013-05-05T12:11:34Z</time>
      </trkpt>
      <trkpt lat="60.0106576" lon="17.3703681">
        <ele>50.6066</ele>
        <time>2013-05-05T12:11:35Z</time>
      </trkpt>
      <trkpt lat="60.0106994" lon="17.3705115">
        <ele>50.6066</ele>
        <time>2013-05-05T12:11:36Z</time>
      </trkpt>
      <trkpt lat="60.0107397" lon="17.370654">
        <ele>50.6066</ele>
        <time>2013-05-05T12:11:37Z</time>
      </trkpt>
      <trkpt lat="60.010778" lon="17.3707986">
        <ele>51.0872</ele>
        <time>2013-05-05T12:11:38Z</time>
      </trkpt>
      <trkpt lat="60.0108165" lon="17.3709356">
        <ele>50.6066</ele>
        <time>2013-05-05T12:11:39Z</time>
      </trkpt>
      <trkpt lat="60.0108546" lon="17.3710706">
        <ele>50.6066</ele>
        <time>2013-05-05T12:11:40Z</time>
      </trkpt>
      <trkpt lat="60.0108917" lon="17.3712107">
        <ele>50.6066</ele>
        <time>2013-05-05T12:11:41Z</time>
      </trkpt>
      <trkpt lat="60.0109321" lon="17.371344">
        <ele>50.6066</ele>
        <time>2013-05-05T12:11:42Z</time>
      </trkpt>
      <trkpt lat="60.0109776" lon="17.3714724">
        <ele>50.6066</ele>
        <time>2013-05-05T12:11:43Z</time>
      </trkpt>
      <trkpt lat="60.0110297" lon="17.3715979">
        <ele>51.0872</ele>
        <time>2013-05-05T12:11:44Z</time>
      </trkpt>
      <trkpt lat="60.0110879" lon="17.3717154">
        <ele>51.0872</ele>
        <time>2013-05-05T12:11:45Z</time>
      </trkpt>
      <trkpt lat="60.0111525" lon="17.3718215">
        <ele>51.0872</ele>
        <time>2013-05-05T12:11:46Z</time>
      </trkpt>
      <trkpt lat="60.011221" lon="17.3719184">
        <ele>50.6066</ele>
        <time>2013-05-05T12:11:47Z</time>
      </trkpt>
      <trkpt lat="60.0112906" lon="17.3720055">
        <ele>50.6066</ele>
        <time>2013-05-05T12:11:48Z</time>
      </trkpt>
      <trkpt lat="60.0113619" lon="17.3720872">
        <ele>50.6066</ele>
        <time>2013-05-05T12:11:49Z</time>
      </trkpt>
      <trkpt lat="60.0114349" lon="17.3721598">
        <ele>51.0872</ele>
        <time>2013-05-05T12:11:50Z</time>
      </trkpt>
      <trkpt lat="60.0115075" lon="17.372228">
        <ele>51.0872</ele>
        <time>2013-05-05T12:11:51Z</time>
      </trkpt>
      <trkpt lat="60.0115788" lon="17.372293">
        <ele>51.0872</ele>
        <time>2013-05-05T12:11:52Z</time>
      </trkpt>
      <trkpt lat="60.0116493" lon="17.3723437">
        <ele>51.0872</ele>
        <time>2013-05-05T12:11:53Z</time>
      </trkpt>
      <trkpt lat="60.0117183" lon="17.3723857">
        <ele>50.6066</ele>
        <time>2013-05-05T12:11:54Z</time>
      </trkpt>
      <trkpt lat="60.0117876" lon="17.3724068">
        <ele>51.0872</ele>
        <time>2013-05-05T12:11:55Z</time>
      </trkpt>
      <trkpt lat="60.0118572" lon="17.3724148">
        <ele>51.5679</ele>
        <time>2013-05-05T12:11:56Z</time>
      </trkpt>
      <trkpt lat="60.011925" lon="17.3724042">
        <ele>51.5679</ele>
        <time>2013-05-05T12:11:57Z</time>
      </trkpt>
      <trkpt lat="60.0119929" lon="17.3723831">
        <ele>52.0486</ele>
        <time>2013-05-05T12:11:58Z</time>
      </trkpt>
      <trkpt lat="60.0120596" lon="17.3723562">
        <ele>52.0486</ele>
        <time>2013-05-05T12:11:59Z</time>
      </trkpt>
      <trkpt lat="60.0121224" lon="17.3723287">
        <ele>52.0486</ele>
        <time>2013-05-05T12:12:00Z</time>
      </trkpt>
      <trkpt lat="60.0121829" lon="17.3723054">
        <ele>51.5679</ele>
        <time>2013-05-05T12:12:01Z</time>
      </trkpt>
      <trkpt lat="60.012241" lon="17.3722961">
        <ele>51.5679</ele>
        <time>2013-05-05T12:12:02Z</time>
      </trkpt>
      <trkpt lat="60.012299" lon="17.3722944">
        <ele>52.0486</ele>
        <time>2013-05-05T12:12:03Z</time>
      </trkpt>
      <trkpt lat="60.012355" lon="17.3723023">
        <ele>52.0486</ele>
        <time>2013-05-05T12:12:04Z</time>
      </trkpt>
      <trkpt lat="60.0124138" lon="17.3723114">
        <ele>52.0486</ele>
        <time>2013-05-05T12:12:05Z</time>
      </trkpt>
      <trkpt lat="60.0124767" lon="17.3723259">
        <ele>52.0486</ele>
        <time>2013-05-05T12:12:06Z</time>
      </trkpt>
      <trkpt lat="60.0125368" lon="17.3723368">
        <ele>51.5679</ele>
        <time>2013-05-05T12:12:07Z</time>
      </trkpt>
      <trkpt lat="60.0126093" lon="17.3723366">
        <ele>51.5679</ele>
        <time>2013-05-05T12:12:08Z</time>
      </trkpt>
      <trkpt lat="60.0126863" lon="17.3723329">
        <ele>50.6066</ele>
        <time>2013-05-05T12:12:09Z</time>
      </trkpt>
      <trkpt lat="60.0127689" lon="17.372338">
        <ele>50.126</ele>
        <time>2013-05-05T12:12:10Z</time>
      </trkpt>
      <trkpt lat="60.0128521" lon="17.372333">
        <ele>49.6453</ele>
        <time>2013-05-05T12:12:11Z</time>
      </trkpt>
      <trkpt lat="60.0129263" lon="17.3723366">
        <ele>49.6453</ele>
        <time>2013-05-05T12:12:12Z</time>
      </trkpt>
      <trkpt lat="60.0130009" lon="17.3723349">
        <ele>48.684</ele>
        <time>2013-05-05T12:12:13Z</time>
      </trkpt>
      <trkpt lat="60.013077" lon="17.3723266">
        <ele>47.7225</ele>
        <time>2013-05-05T12:12:14Z</time>
      </trkpt>
      <trkpt lat="60.0131522" lon="17.3723238">
        <ele>46.7612</ele>
        <time>2013-05-05T12:12:15Z</time>
      </trkpt>
      <trkpt lat="60.0132307" lon="17.3723133">
        <ele>46.2806</ele>
        <time>2013-05-05T12:12:16Z</time>
      </trkpt>
      <trkpt lat="60.0133081" lon="17.372307">
        <ele>45.3192</ele>
        <time>2013-05-05T12:12:17Z</time>
      </trkpt>
      <trkpt lat="60.0133899" lon="17.3723019">
        <ele>46.2806</ele>
        <time>2013-05-05T12:12:18Z</time>
      </trkpt>
      <trkpt lat="60.0134667" lon="17.372298">
        <ele>46.7612</ele>
        <time>2013-05-05T12:12:19Z</time>
      </trkpt>
      <trkpt lat="60.013546" lon="17.3722953">
        <ele>48.2034</ele>
        <time>2013-05-05T12:12:20Z</time>
      </trkpt>
      <trkpt lat="60.0136184" lon="17.3722913">
        <ele>48.684</ele>
        <time>2013-05-05T12:12:21Z</time>
      </trkpt>
      <trkpt lat="60.0136883" lon="17.3722832">
        <ele>49.1646</ele>
        <time>2013-05-05T12:12:22Z</time>
      </trkpt>
      <trkpt lat="60.0137613" lon="17.3722733">
        <ele>50.126</ele>
        <time>2013-05-05T12:12:23Z</time>
      </trkpt>
      <trkpt lat="60.0138273" lon="17.3722671">
        <ele>50.126</ele>
        <time>2013-05-05T12:12:24Z</time>
      </trkpt>
      <trkpt lat="60.0138936" lon="17.3722634">
        <ele>50.6066</ele>
        <time>2013-05-05T12:12:25Z</time>
      </trkpt>
      <trkpt lat="60.0139594" lon="17.3722582">
        <ele>51.0872</ele>
        <time>2013-05-05T12:12:26Z</time>
      </trkpt>
      <trkpt lat="60.0140245" lon="17.3722509">
        <ele>51.5679</ele>
        <time>2013-05-05T12:12:27Z</time>
      </trkpt>
      <trkpt lat="60.014092" lon="17.3722405">
        <ele>51.5679</ele>
        <time>2013-05-05T12:12:28Z</time>
      </trkpt>
      <trkpt lat="60.0141575" lon="17.3722361">
        <ele>51.0872</ele>
        <time>2013-05-05T12:12:29Z</time>
      </trkpt>
      <trkpt lat="60.0142184" lon="17.3722443">
        <ele>50.126</ele>
        <time>2013-05-05T12:12:30Z</time>
      </trkpt>
      <trkpt lat="60.0142835" lon="17.3722515">
        <ele>49.6453</ele>
        <time>2013-05-05T12:12:31Z</time>
      </trkpt>
      <trkpt lat="60.0143541" lon="17.3722499">
        <ele>49.1646</ele>
        <time>2013-05-05T12:12:32Z</time>
      </trkpt>
      <trkpt lat="60.0144218" lon="17.372241">
        <ele>49.1646</ele>
        <time>2013-05-05T12:12:33Z</time>
      </trkpt>
      <trkpt lat="60.0144938" lon="17.3722304">
        <ele>48.684</ele>
        <time>2013-05-05T12:12:34Z</time>
      </trkpt>
      <trkpt lat="60.0145626" lon="17.3722205">
        <ele>48.684</ele>
        <time>2013-05-05T12:12:35Z</time>
      </trkpt>
      <trkpt lat="60.014632" lon="17.3722126">
        <ele>48.2034</ele>
        <time>2013-05-05T12:12:36Z</time>
      </trkpt>
      <trkpt lat="60.0146954" lon="17.3721997">
        <ele>46.7612</ele>
        <time>2013-05-05T12:12:37Z</time>
      </trkpt>
      <trkpt lat="60.0147684" lon="17.3721982">
        <ele>47.7225</ele>
        <time>2013-05-05T12:12:38Z</time>
      </trkpt>
      <trkpt lat="60.0148497" lon="17.3721886">
        <ele>48.2034</ele>
        <time>2013-05-05T12:12:39Z</time>
      </trkpt>
      <trkpt lat="60.0149264" lon="17.3721795">
        <ele>48.2034</ele>
        <time>2013-05-05T12:12:40Z</time>
      </trkpt>
      <trkpt lat="60.0150044" lon="17.3721748">
        <ele>48.2034</ele>
        <time>2013-05-05T12:12:41Z</time>
      </trkpt>
      <trkpt lat="60.0150814" lon="17.3721667">
        <ele>48.2034</ele>
        <time>2013-05-05T12:12:42Z</time>
      </trkpt>
      <trkpt lat="60.0151562" lon="17.3721608">
        <ele>47.7225</ele>
        <time>2013-05-05T12:12:43Z</time>
      </trkpt>
      <trkpt lat="60.0152303" lon="17.3721609">
        <ele>47.7225</ele>
        <time>2013-05-05T12:12:44Z</time>
      </trkpt>
      <trkpt lat="60.0153035" lon="17.3721535">
        <ele>47.2418</ele>
        <time>2013-05-05T12:12:45Z</time>
      </trkpt>
      <trkpt lat="60.0153751" lon="17.3721514">
        <ele>47.2418</ele>
        <time>2013-05-05T12:12:46Z</time>
      </trkpt>
      <trkpt lat="60.0154423" lon="17.3721463">
        <ele>46.7612</ele>
        <time>2013-05-05T12:12:47Z</time>
      </trkpt>
      <trkpt lat="60.0155139" lon="17.3721361">
        <ele>47.2418</ele>
        <time>2013-05-05T12:12:48Z</time>
      </trkpt>
      <trkpt lat="60.0155916" lon="17.372134">
        <ele>48.2034</ele>
        <time>2013-05-05T12:12:49Z</time>
      </trkpt>
      <trkpt lat="60.0156661" lon="17.3721355">
        <ele>48.684</ele>
        <time>2013-05-05T12:12:50Z</time>
      </trkpt>
      <trkpt lat="60.0157384" lon="17.3721277">
        <ele>48.2034</ele>
        <time>2013-05-05T12:12:51Z</time>
      </trkpt>
      <trkpt lat="60.015814" lon="17.3721205">
        <ele>47.7225</ele>
        <time>2013-05-05T12:12:52Z</time>
      </trkpt>
      <trkpt lat="60.0158889" lon="17.3721132">
        <ele>48.2034</ele>
        <time>2013-05-05T12:12:53Z</time>
      </trkpt>
      <trkpt lat="60.0159721" lon="17.3721037">
        <ele>48.684</ele>
        <time>2013-05-05T12:12:54Z</time>
      </trkpt>
      <trkpt lat="60.016051" lon="17.3721068">
        <ele>48.2034</ele>
        <time>2013-05-05T12:12:55Z</time>
      </trkpt>
      <trkpt lat="60.01614" lon="17.3721026">
        <ele>48.684</ele>
        <time>2013-05-05T12:12:56Z</time>
      </trkpt>
      <trkpt lat="60.0162302" lon="17.3720928">
        <ele>48.684</ele>
        <time>2013-05-05T12:12:57Z</time>
      </trkpt>
      <trkpt lat="60.016316" lon="17.3720914">
        <ele>47.2418</ele>
        <time>2013-05-05T12:12:58Z</time>
      </trkpt>
      <trkpt lat="60.0163959" lon="17.3720811">
        <ele>44.8386</ele>
        <time>2013-05-05T12:12:59Z</time>
      </trkpt>
      <trkpt lat="60.0164815" lon="17.3720718">
        <ele>45.7999</ele>
        <time>2013-05-05T12:13:00Z</time>
      </trkpt>
      <trkpt lat="60.0165716" lon="17.3720458">
        <ele>45.7999</ele>
        <time>2013-05-05T12:13:01Z</time>
      </trkpt>
      <trkpt lat="60.0166566" lon="17.3720287">
        <ele>45.3192</ele>
        <time>2013-05-05T12:13:02Z</time>
      </trkpt>
      <trkpt lat="60.0167404" lon="17.3720091">
        <ele>45.3192</ele>
        <time>2013-05-05T12:13:03Z</time>
      </trkpt>
      <trkpt lat="60.016821" lon="17.3720022">
        <ele>44.8386</ele>
        <time>2013-05-05T12:13:04Z</time>
      </trkpt>
      <trkpt lat="60.0169037" lon="17.3719874">
        <ele>45.3192</ele>
        <time>2013-05-05T12:13:05Z</time>
      </trkpt>
      <trkpt lat="60.0170025" lon="17.3719666">
        <ele>47.2418</ele>
        <time>2013-05-05T12:13:06Z</time>
      </trkpt>
      <trkpt lat="60.0170927" lon="17.3719521">
        <ele>48.2034</ele>
        <time>2013-05-05T12:13:07Z</time>
      </trkpt>
      <trkpt lat="60.0171852" lon="17.3719365">
        <ele>49.6453</ele>
        <time>2013-05-05T12:13:08Z</time>
      </trkpt>
      <trkpt lat="60.0172761" lon="17.3719112">
        <ele>50.126</ele>
        <time>2013-05-05T12:13:09Z</time>
      </trkpt>
      <trkpt lat="60.0173605" lon="17.3718951">
        <ele>51.5679</ele>
        <time>2013-05-05T12:13:10Z</time>
      </trkpt>
      <trkpt lat="60.0174434" lon="17.3718732">
        <ele>52.0486</ele>
        <time>2013-05-05T12:13:11Z</time>
      </trkpt>
      <trkpt lat="60.0175271" lon="17.3718551">
        <ele>52.5292</ele>
        <time>2013-05-05T12:13:12Z</time>
      </trkpt>
      <trkpt lat="60.0176101" lon="17.3718361">
        <ele>53.4905</ele>
        <time>2013-05-05T12:13:13Z</time>
      </trkpt>
      <trkpt lat="60.0176889" lon="17.3718405">
        <ele>54.9324</ele>
        <time>2013-05-05T12:13:14Z</time>
      </trkpt>
      <trkpt lat="60.0177631" lon="17.3718313">
        <ele>54.9324</ele>
        <time>2013-05-05T12:13:15Z</time>
      </trkpt>
      <trkpt lat="60.017834" lon="17.3718231">
        <ele>54.4518</ele>
        <time>2013-05-05T12:13:16Z</time>
      </trkpt>
      <trkpt lat="60.0179064" lon="17.3718189">
        <ele>54.9324</ele>
        <time>2013-05-05T12:13:17Z</time>
      </trkpt>
      <trkpt lat="60.0179856" lon="17.3718122">
        <ele>53.9712</ele>
        <time>2013-05-05T12:13:18Z</time>
      </trkpt>
      <trkpt lat="60.0180687" lon="17.3717924">
        <ele>54.4518</ele>
        <time>2013-05-05T12:13:19Z</time>
      </trkpt>
      <trkpt lat="60.0181541" lon="17.3717745">
        <ele>54.9324</ele>
        <time>2013-05-05T12:13:20Z</time>
      </trkpt>
      <trkpt lat="60.0182409" lon="17.3717599">
        <ele>55.8938</ele>
        <time>2013-05-05T12:13:21Z</time>
      </trkpt>
      <trkpt lat="60.0183301" lon="17.3717547">
        <ele>56.8551</ele>
        <time>2013-05-05T12:13:22Z</time>
      </trkpt>
      <trkpt lat="60.0184166" lon="17.3717488">
        <ele>57.3358</ele>
        <time>2013-05-05T12:13:23Z</time>
      </trkpt>
      <trkpt lat="60.0185005" lon="17.3717452">
        <ele>56.8551</ele>
        <time>2013-05-05T12:13:24Z</time>
      </trkpt>
      <trkpt lat="60.0185866" lon="17.3717459">
        <ele>57.3358</ele>
        <time>2013-05-05T12:13:25Z</time>
      </trkpt>
      <trkpt lat="60.0186731" lon="17.371748">
        <ele>57.3358</ele>
        <time>2013-05-05T12:13:26Z</time>
      </trkpt>
      <trkpt lat="60.0187607" lon="17.3717474">
        <ele>57.8165</ele>
        <time>2013-05-05T12:13:27Z</time>
      </trkpt>
      <trkpt lat="60.0188503" lon="17.3717428">
        <ele>58.7777</ele>
        <time>2013-05-05T12:13:28Z</time>
      </trkpt>
      <trkpt lat="60.0189335" lon="17.371734">
        <ele>58.7777</ele>
        <time>2013-05-05T12:13:29Z</time>
      </trkpt>
      <trkpt lat="60.0190176" lon="17.3717268">
        <ele>58.7777</ele>
        <time>2013-05-05T12:13:30Z</time>
      </trkpt>
      <trkpt lat="60.0190975" lon="17.3717201">
        <ele>58.2971</ele>
        <time>2013-05-05T12:13:31Z</time>
      </trkpt>
      <trkpt lat="60.0191787" lon="17.3717148">
        <ele>58.2971</ele>
        <time>2013-05-05T12:13:32Z</time>
      </trkpt>
      <trkpt lat="60.01926" lon="17.3717074">
        <ele>58.7777</ele>
        <time>2013-05-05T12:13:33Z</time>
      </trkpt>
      <trkpt lat="60.0193399" lon="17.3717017">
        <ele>59.2584</ele>
        <time>2013-05-05T12:13:34Z</time>
      </trkpt>
      <trkpt lat="60.0194211" lon="17.3716919">
        <ele>59.7391</ele>
        <time>2013-05-05T12:13:35Z</time>
      </trkpt>
      <trkpt lat="60.0195013" lon="17.3716751">
        <ele>60.2197</ele>
        <time>2013-05-05T12:13:36Z</time>
      </trkpt>
      <trkpt lat="60.0195791" lon="17.3716509">
        <ele>60.2197</ele>
        <time>2013-05-05T12:13:37Z</time>
      </trkpt>
      <trkpt lat="60.0196588" lon="17.3716185">
        <ele>60.2197</ele>
        <time>2013-05-05T12:13:38Z</time>
      </trkpt>
      <trkpt lat="60.019734" lon="17.3715786">
        <ele>59.7391</ele>
        <time>2013-05-05T12:13:39Z</time>
      </trkpt>
      <trkpt lat="60.0198063" lon="17.3715313">
        <ele>58.7777</ele>
        <time>2013-05-05T12:13:40Z</time>
      </trkpt>
      <trkpt lat="60.0198763" lon="17.371478">
        <ele>57.3358</ele>
        <time>2013-05-05T12:13:41Z</time>
      </trkpt>
      <trkpt lat="60.019945" lon="17.3714221">
        <ele>56.3745</ele>
        <time>2013-05-05T12:13:42Z</time>
      </trkpt>
      <trkpt lat="60.0200121" lon="17.3713616">
        <ele>55.4131</ele>
        <time>2013-05-05T12:13:43Z</time>
      </trkpt>
      <trkpt lat="60.0200807" lon="17.3712962">
        <ele>55.4131</ele>
        <time>2013-05-05T12:13:44Z</time>
      </trkpt>
      <trkpt lat="60.0201536" lon="17.3712389">
        <ele>55.8938</ele>
        <time>2013-05-05T12:13:45Z</time>
      </trkpt>
      <trkpt lat="60.0202244" lon="17.3711694">
        <ele>55.4131</ele>
        <time>2013-05-05T12:13:46Z</time>
      </trkpt>
      <trkpt lat="60.0202902" lon="17.371102">
        <ele>54.9324</ele>
        <time>2013-05-05T12:13:47Z</time>
      </trkpt>
      <trkpt lat="60.0203557" lon="17.3710376">
        <ele>53.9712</ele>
        <time>2013-05-05T12:13:48Z</time>
      </trkpt>
      <trkpt lat="60.0204184" lon="17.37097">
        <ele>52.5292</ele>
        <time>2013-05-05T12:13:49Z</time>
      </trkpt>
      <trkpt lat="60.0204798" lon="17.3709082">
        <ele>51.0872</ele>
        <time>2013-05-05T12:13:50Z</time>
      </trkpt>
      <trkpt lat="60.0205437" lon="17.3708415">
        <ele>50.126</ele>
        <time>2013-05-05T12:13:51Z</time>
      </trkpt>
      <trkpt lat="60.0206073" lon="17.3707763">
        <ele>48.684</ele>
        <time>2013-05-05T12:13:52Z</time>
      </trkpt>
      <trkpt lat="60.0206717" lon="17.3707105">
        <ele>47.7225</ele>
        <time>2013-05-05T12:13:53Z</time>
      </trkpt>
      <trkpt lat="60.0207359" lon="17.3706462">
        <ele>46.2806</ele>
        <time>2013-05-05T12:13:54Z</time>
      </trkpt>
      <trkpt lat="60.0208069" lon="17.3705825">
        <ele>45.7999</ele>
        <time>2013-05-05T12:13:55Z</time>
      </trkpt>
      <trkpt lat="60.0208721" lon="17.3705199">
        <ele>44.8386</ele>
        <time>2013-05-05T12:13:56Z</time>
      </trkpt>
      <trkpt lat="60.0209377" lon="17.3704535">
        <ele>43.8773</ele>
        <time>2013-05-05T12:13:57Z</time>
      </trkpt>
      <trkpt lat="60.0210057" lon="17.370385">
        <ele>42.916</ele>
        <time>2013-05-05T12:13:58Z</time>
      </trkpt>
      <trkpt lat="60.0210746" lon="17.3703188">
        <ele>42.4354</ele>
        <time>2013-05-05T12:13:59Z</time>
      </trkpt>
      <trkpt lat="60.0211439" lon="17.3702556">
        <ele>41.9547</ele>
        <time>2013-05-05T12:14:00Z</time>
      </trkpt>
      <trkpt lat="60.0212255" lon="17.370173">
        <ele>40.9934</ele>
        <time>2013-05-05T12:14:01Z</time>
      </trkpt>
      <trkpt lat="60.0212999" lon="17.3701086">
        <ele>40.9934</ele>
        <time>2013-05-05T12:14:02Z</time>
      </trkpt>
      <trkpt lat="60.0213688" lon="17.3700402">
        <ele>40.0321</ele>
        <time>2013-05-05T12:14:03Z</time>
      </trkpt>
      <trkpt lat="60.021445" lon="17.3699712">
        <ele>39.0707</ele>
        <time>2013-05-05T12:14:04Z</time>
      </trkpt>
      <trkpt lat="60.0215226" lon="17.3699125">
        <ele>39.5513</ele>
        <time>2013-05-05T12:14:05Z</time>
      </trkpt>
      <trkpt lat="60.0215989" lon="17.3698336">
        <ele>39.5513</ele>
        <time>2013-05-05T12:14:06Z</time>
      </trkpt>
      <trkpt lat="60.0216724" lon="17.3697604">
        <ele>39.5513</ele>
        <time>2013-05-05T12:14:07Z</time>
      </trkpt>
      <trkpt lat="60.0217484" lon="17.3696861">
        <ele>40.0321</ele>
        <time>2013-05-05T12:14:08Z</time>
      </trkpt>
      <trkpt lat="60.0218247" lon="17.3696168">
        <ele>40.9934</ele>
        <time>2013-05-05T12:14:09Z</time>
      </trkpt>
      <trkpt lat="60.0218968" lon="17.3695526">
        <ele>41.9547</ele>
        <time>2013-05-05T12:14:10Z</time>
      </trkpt>
      <trkpt lat="60.0219687" lon="17.369488">
        <ele>42.4354</ele>
        <time>2013-05-05T12:14:11Z</time>
      </trkpt>
      <trkpt lat="60.0220396" lon="17.3694262">
        <ele>42.916</ele>
        <time>2013-05-05T12:14:12Z</time>
      </trkpt>
      <trkpt lat="60.0221107" lon="17.3693522">
        <ele>42.916</ele>
        <time>2013-05-05T12:14:13Z</time>
      </trkpt>
      <trkpt lat="60.0221858" lon="17.3692833">
        <ele>44.358</ele>
        <time>2013-05-05T12:14:14Z</time>
      </trkpt>
      <trkpt lat="60.0222547" lon="17.3692132">
        <ele>44.358</ele>
        <time>2013-05-05T12:14:15Z</time>
      </trkpt>
      <trkpt lat="60.0223252" lon="17.369145">
        <ele>44.8386</ele>
        <time>2013-05-05T12:14:16Z</time>
      </trkpt>
      <trkpt lat="60.0223956" lon="17.3690786">
        <ele>44.8386</ele>
        <time>2013-05-05T12:14:17Z</time>
      </trkpt>
      <trkpt lat="60.0224653" lon="17.3690122">
        <ele>45.3192</ele>
        <time>2013-05-05T12:14:18Z</time>
      </trkpt>
      <trkpt lat="60.0225334" lon="17.3689455">
        <ele>45.7999</ele>
        <time>2013-05-05T12:14:19Z</time>
      </trkpt>
      <trkpt lat="60.0226006" lon="17.3688788">
        <ele>45.7999</ele>
        <time>2013-05-05T12:14:20Z</time>
      </trkpt>
      <trkpt lat="60.0226675" lon="17.3688148">
        <ele>46.2806</ele>
        <time>2013-05-05T12:14:21Z</time>
      </trkpt>
      <trkpt lat="60.0227332" lon="17.3687519">
        <ele>46.7612</ele>
        <time>2013-05-05T12:14:22Z</time>
      </trkpt>
      <trkpt lat="60.0227976" lon="17.36869">
        <ele>46.7612</ele>
        <time>2013-05-05T12:14:23Z</time>
      </trkpt>
      <trkpt lat="60.0228606" lon="17.3686299">
        <ele>47.2418</ele>
        <time>2013-05-05T12:14:24Z</time>
      </trkpt>
      <trkpt lat="60.0229232" lon="17.36857">
        <ele>47.7225</ele>
        <time>2013-05-05T12:14:25Z</time>
      </trkpt>
      <trkpt lat="60.0229859" lon="17.3685115">
        <ele>47.7225</ele>
        <time>2013-05-05T12:14:26Z</time>
      </trkpt>
      <trkpt lat="60.0230483" lon="17.3684545">
        <ele>48.2034</ele>
        <time>2013-05-05T12:14:27Z</time>
      </trkpt>
      <trkpt lat="60.0231116" lon="17.368396">
        <ele>48.2034</ele>
        <time>2013-05-05T12:14:28Z</time>
      </trkpt>
      <trkpt lat="60.0231762" lon="17.3683385">
        <ele>48.684</ele>
        <time>2013-05-05T12:14:29Z</time>
      </trkpt>
      <trkpt lat="60.0232399" lon="17.368288">
        <ele>49.1646</ele>
        <time>2013-05-05T12:14:30Z</time>
      </trkpt>
      <trkpt lat="60.0233088" lon="17.3682504">
        <ele>50.126</ele>
        <time>2013-05-05T12:14:31Z</time>
      </trkpt>
      <trkpt lat="60.023377" lon="17.3682198">
        <ele>50.6066</ele>
        <time>2013-05-05T12:14:32Z</time>
      </trkpt>
      <trkpt lat="60.023447" lon="17.3681955">
        <ele>51.5679</ele>
        <time>2013-05-05T12:14:33Z</time>
      </trkpt>
      <trkpt lat="60.0235176" lon="17.3681685">
        <ele>52.5292</ele>
        <time>2013-05-05T12:14:34Z</time>
      </trkpt>
      <trkpt lat="60.0235855" lon="17.3681464">
        <ele>53.4905</ele>
        <time>2013-05-05T12:14:35Z</time>
      </trkpt>
      <trkpt lat="60.0236507" lon="17.3681218">
        <ele>53.4905</ele>
        <time>2013-05-05T12:14:36Z</time>
      </trkpt>
      <trkpt lat="60.0237184" lon="17.368098">
        <ele>54.4518</ele>
        <time>2013-05-05T12:14:37Z</time>
      </trkpt>
      <trkpt lat="60.0237847" lon="17.3680689">
        <ele>54.9324</ele>
        <time>2013-05-05T12:14:38Z</time>
      </trkpt>
      <trkpt lat="60.0238487" lon="17.3680338">
        <ele>55.4131</ele>
        <time>2013-05-05T12:14:39Z</time>
      </trkpt>
      <trkpt lat="60.0239107" lon="17.367995">
        <ele>55.4131</ele>
        <time>2013-05-05T12:14:40Z</time>
      </trkpt>
      <trkpt lat="60.0239708" lon="17.3679539">
        <ele>55.8938</ele>
        <time>2013-05-05T12:14:41Z</time>
      </trkpt>
      <trkpt lat="60.0240334" lon="17.367918">
        <ele>56.3745</ele>
        <time>2013-05-05T12:14:42Z</time>
      </trkpt>
      <trkpt lat="60.0240925" lon="17.3679033">
        <ele>56.3745</ele>
        <time>2013-05-05T12:14:43Z</time>
      </trkpt>
      <trkpt lat="60.0241495" lon="17.3679244">
        <ele>55.4131</ele>
        <time>2013-05-05T12:14:44Z</time>
      </trkpt>
      <trkpt lat="60.0241978" lon="17.3679889">
        <ele>54.9324</ele>
        <time>2013-05-05T12:14:45Z</time>
      </trkpt>
      <trkpt lat="60.0242294" lon="17.3680919">
        <ele>53.9712</ele>
        <time>2013-05-05T12:14:46Z</time>
      </trkpt>
      <trkpt lat="60.0242543" lon="17.3681996">
        <ele>54.4518</ele>
        <time>2013-05-05T12:14:47Z</time>
      </trkpt>
      <trkpt lat="60.0242692" lon="17.368314">
        <ele>54.9324</ele>
        <time>2013-05-05T12:14:48Z</time>
      </trkpt>
      <trkpt lat="60.0242805" lon="17.3684343">
        <ele>55.4131</ele>
        <time>2013-05-05T12:14:49Z</time>
      </trkpt>
      <trkpt lat="60.0242863" lon="17.3685695">
        <ele>54.9324</ele>
        <time>2013-05-05T12:14:50Z</time>
      </trkpt>
      <trkpt lat="60.0242949" lon="17.3686969">
        <ele>54.9324</ele>
        <time>2013-05-05T12:14:51Z</time>
      </trkpt>
      <trkpt lat="60.024303" lon="17.3688326">
        <ele>53.9712</ele>
        <time>2013-05-05T12:14:52Z</time>
      </trkpt>
      <trkpt lat="60.024312" lon="17.3689735">
        <ele>53.9712</ele>
        <time>2013-05-05T12:14:53Z</time>
      </trkpt>
      <trkpt lat="60.0243147" lon="17.3691362">
        <ele>53.9712</ele>
        <time>2013-05-05T12:14:54Z</time>
      </trkpt>
      <trkpt lat="60.0243213" lon="17.3692748">
        <ele>53.9712</ele>
        <time>2013-05-05T12:14:55Z</time>
      </trkpt>
      <trkpt lat="60.0243273" lon="17.3694145">
        <ele>53.9712</ele>
        <time>2013-05-05T12:14:56Z</time>
      </trkpt>
      <trkpt lat="60.024334" lon="17.3695501">
        <ele>54.9324</ele>
        <time>2013-05-05T12:14:57Z</time>
      </trkpt>
      <trkpt lat="60.0243374" lon="17.3696758">
        <ele>55.4131</ele>
        <time>2013-05-05T12:14:58Z</time>
      </trkpt>
      <trkpt lat="60.0243453" lon="17.3697926">
        <ele>55.4131</ele>
        <time>2013-05-05T12:14:59Z</time>
      </trkpt>
      <trkpt lat="60.0243569" lon="17.3699158">
        <ele>55.8938</ele>
        <time>2013-05-05T12:15:00Z</time>
      </trkpt>
      <trkpt lat="60.0243649" lon="17.3700358">
        <ele>56.8551</ele>
        <time>2013-05-05T12:15:01Z</time>
      </trkpt>
      <trkpt lat="60.0243721" lon="17.3701551">
        <ele>57.8165</ele>
        <time>2013-05-05T12:15:02Z</time>
      </trkpt>
      <trkpt lat="60.0243722" lon="17.3703139">
        <ele>57.3358</ele>
        <time>2013-05-05T12:15:03Z</time>
      </trkpt>
      <trkpt lat="60.0243802" lon="17.3704642">
        <ele>57.3358</ele>
        <time>2013-05-05T12:15:04Z</time>
      </trkpt>
      <trkpt lat="60.0243959" lon="17.3705949">
        <ele>58.2971</ele>
        <time>2013-05-05T12:15:05Z</time>
      </trkpt>
      <trkpt lat="60.0244101" lon="17.3707225">
        <ele>58.7777</ele>
        <time>2013-05-05T12:15:06Z</time>
      </trkpt>
      <trkpt lat="60.0244239" lon="17.3708508">
        <ele>59.2584</ele>
        <time>2013-05-05T12:15:07Z</time>
      </trkpt>
      <trkpt lat="60.0244334" lon="17.3709841">
        <ele>59.7391</ele>
        <time>2013-05-05T12:15:08Z</time>
      </trkpt>
      <trkpt lat="60.0244427" lon="17.3711053">
        <ele>60.7003</ele>
        <time>2013-05-05T12:15:09Z</time>
      </trkpt>
      <trkpt lat="60.0244515" lon="17.371234">
        <ele>60.7003</ele>
        <time>2013-05-05T12:15:10Z</time>
      </trkpt>
      <trkpt lat="60.0244641" lon="17.3713668">
        <ele>60.7003</ele>
        <time>2013-05-05T12:15:11Z</time>
      </trkpt>
      <trkpt lat="60.0244748" lon="17.371486">
        <ele>60.2197</ele>
        <time>2013-05-05T12:15:12Z</time>
      </trkpt>
      <trkpt lat="60.0244886" lon="17.3715946">
        <ele>59.7391</ele>
        <time>2013-05-05T12:15:13Z</time>
      </trkpt>
      <trkpt lat="60.0244976" lon="17.3717069">
        <ele>60.2197</ele>
        <time>2013-05-05T12:15:14Z</time>
      </trkpt>
      <trkpt lat="60.024505" lon="17.3718175">
        <ele>60.7003</ele>
        <time>2013-05-05T12:15:15Z</time>
      </trkpt>
      <trkpt lat="60.0245114" lon="17.3719372">
        <ele>60.2197</ele>
        <time>2013-05-05T12:15:16Z</time>
      </trkpt>
      <trkpt lat="60.0245167" lon="17.3720716">
        <ele>60.2197</ele>
        <time>2013-05-05T12:15:17Z</time>
      </trkpt>
      <trkpt lat="60.0245182" lon="17.3722068">
        <ele>59.2584</ele>
        <time>2013-05-05T12:15:18Z</time>
      </trkpt>
      <trkpt lat="60.0245086" lon="17.3723743">
        <ele>58.2971</ele>
        <time>2013-05-05T12:15:19Z</time>
      </trkpt>
      <trkpt lat="60.0245019" lon="17.3725332">
        <ele>59.2584</ele>
        <time>2013-05-05T12:15:20Z</time>
      </trkpt>
      <trkpt lat="60.0244848" lon="17.3726924">
        <ele>59.7391</ele>
        <time>2013-05-05T12:15:21Z</time>
      </trkpt>
      <trkpt lat="60.0244653" lon="17.3728449">
        <ele>59.7391</ele>
        <time>2013-05-05T12:15:22Z</time>
      </trkpt>
      <trkpt lat="60.0244443" lon="17.3730042">
        <ele>58.7777</ele>
        <time>2013-05-05T12:15:23Z</time>
      </trkpt>
      <trkpt lat="60.0244192" lon="17.3731597">
        <ele>58.2971</ele>
        <time>2013-05-05T12:15:24Z</time>
      </trkpt>
      <trkpt lat="60.0243913" lon="17.3733097">
        <ele>57.3358</ele>
        <time>2013-05-05T12:15:25Z</time>
      </trkpt>
      <trkpt lat="60.0243607" lon="17.3734553">
        <ele>55.4131</ele>
        <time>2013-05-05T12:15:26Z</time>
      </trkpt>
      <trkpt lat="60.024326" lon="17.3736052">
        <ele>55.4131</ele>
        <time>2013-05-05T12:15:27Z</time>
      </trkpt>
      <trkpt lat="60.0242845" lon="17.3737558">
        <ele>54.4518</ele>
        <time>2013-05-05T12:15:28Z</time>
      </trkpt>
      <trkpt lat="60.0242391" lon="17.3739169">
        <ele>54.9324</ele>
        <time>2013-05-05T12:15:29Z</time>
      </trkpt>
      <trkpt lat="60.0241968" lon="17.374078">
        <ele>55.4131</ele>
        <time>2013-05-05T12:15:30Z</time>
      </trkpt>
      <trkpt lat="60.0241572" lon="17.3742122">
        <ele>53.4905</ele>
        <time>2013-05-05T12:15:31Z</time>
      </trkpt>
      <trkpt lat="60.0241195" lon="17.3743524">
        <ele>52.5292</ele>
        <time>2013-05-05T12:15:32Z</time>
      </trkpt>
      <trkpt lat="60.0240748" lon="17.3745148">
        <ele>52.0486</ele>
        <time>2013-05-05T12:15:33Z</time>
      </trkpt>
      <trkpt lat="60.0240283" lon="17.3746743">
        <ele>52.0486</ele>
        <time>2013-05-05T12:15:34Z</time>
      </trkpt>
      <trkpt lat="60.02399" lon="17.3748429">
        <ele>53.0098</ele>
        <time>2013-05-05T12:15:35Z</time>
      </trkpt>
      <trkpt lat="60.0239579" lon="17.375042">
        <ele>53.9712</ele>
        <time>2013-05-05T12:15:36Z</time>
      </trkpt>
      <trkpt lat="60.0239429" lon="17.3752193">
        <ele>53.0098</ele>
        <time>2013-05-05T12:15:37Z</time>
      </trkpt>
      <trkpt lat="60.0239423" lon="17.375371">
        <ele>51.5679</ele>
        <time>2013-05-05T12:15:38Z</time>
      </trkpt>
      <trkpt lat="60.0239496" lon="17.3755199">
        <ele>50.6066</ele>
        <time>2013-05-05T12:15:39Z</time>
      </trkpt>
      <trkpt lat="60.0239552" lon="17.375685">
        <ele>49.6453</ele>
        <time>2013-05-05T12:15:40Z</time>
      </trkpt>
      <trkpt lat="60.0239744" lon="17.3758196">
        <ele>47.7225</ele>
        <time>2013-05-05T12:15:41Z</time>
      </trkpt>
      <trkpt lat="60.0239885" lon="17.3759879">
        <ele>49.1646</ele>
        <time>2013-05-05T12:15:42Z</time>
      </trkpt>
      <trkpt lat="60.0240043" lon="17.3761743">
        <ele>49.6453</ele>
        <time>2013-05-05T12:15:43Z</time>
      </trkpt>
      <trkpt lat="60.0240122" lon="17.3763635">
        <ele>50.6066</ele>
        <time>2013-05-05T12:15:44Z</time>
      </trkpt>
      <trkpt lat="60.0240195" lon="17.3765524">
        <ele>51.0872</ele>
        <time>2013-05-05T12:15:45Z</time>
      </trkpt>
      <trkpt lat="60.0240288" lon="17.3767327">
        <ele>52.0486</ele>
        <time>2013-05-05T12:15:46Z</time>
      </trkpt>
      <trkpt lat="60.0240424" lon="17.3768836">
        <ele>52.0486</ele>
        <time>2013-05-05T12:15:47Z</time>
      </trkpt>
      <trkpt lat="60.0240542" lon="17.3770443">
        <ele>53.4905</ele>
        <time>2013-05-05T12:15:48Z</time>
      </trkpt>
      <trkpt lat="60.0240694" lon="17.3771818">
        <ele>53.9712</ele>
        <time>2013-05-05T12:15:49Z</time>
      </trkpt>
      <trkpt lat="60.0240934" lon="17.3773159">
        <ele>54.9324</ele>
        <time>2013-05-05T12:15:50Z</time>
      </trkpt>
      <trkpt lat="60.0241173" lon="17.3774611">
        <ele>57.3358</ele>
        <time>2013-05-05T12:15:51Z</time>
      </trkpt>
      <trkpt lat="60.0241474" lon="17.3776086">
        <ele>55.8938</ele>
        <time>2013-05-05T12:15:52Z</time>
      </trkpt>
      <trkpt lat="60.0241856" lon="17.3777341">
        <ele>56.8551</ele>
        <time>2013-05-05T12:15:53Z</time>
      </trkpt>
      <trkpt lat="60.0242353" lon="17.377856">
        <ele>57.8165</ele>
        <time>2013-05-05T12:15:54Z</time>
      </trkpt>
      <trkpt lat="60.0242747" lon="17.3779665">
        <ele>57.3358</ele>
        <time>2013-05-05T12:15:55Z</time>
      </trkpt>
      <trkpt lat="60.0243116" lon="17.3780962">
        <ele>59.2584</ele>
        <time>2013-05-05T12:15:56Z</time>
      </trkpt>
      <trkpt lat="60.0243495" lon="17.3782242">
        <ele>60.2197</ele>
        <time>2013-05-05T12:15:57Z</time>
      </trkpt>
      <trkpt lat="60.02437" lon="17.3783688">
        <ele>61.181</ele>
        <time>2013-05-05T12:15:58Z</time>
      </trkpt>
      <trkpt lat="60.0243769" lon="17.3785075">
        <ele>62.1423</ele>
        <time>2013-05-05T12:15:59Z</time>
      </trkpt>
      <trkpt lat="60.0243832" lon="17.3786461">
        <ele>62.6229</ele>
        <time>2013-05-05T12:16:00Z</time>
      </trkpt>
      <trkpt lat="60.0243858" lon="17.3787933">
        <ele>63.1036</ele>
        <time>2013-05-05T12:16:01Z</time>
      </trkpt>
      <trkpt lat="60.0243843" lon="17.3789665">
        <ele>64.0651</ele>
        <time>2013-05-05T12:16:02Z</time>
      </trkpt>
      <trkpt lat="60.024391" lon="17.3791229">
        <ele>65.0264</ele>
        <time>2013-05-05T12:16:03Z</time>
      </trkpt>
      <trkpt lat="60.0244035" lon="17.3792914">
        <ele>63.1036</ele>
        <time>2013-05-05T12:16:04Z</time>
      </trkpt>
      <trkpt lat="60.0244158" lon="17.3794335">
        <ele>62.6229</ele>
        <time>2013-05-05T12:16:05Z</time>
      </trkpt>
      <trkpt lat="60.0244234" lon="17.3795661">
        <ele>61.181</ele>
        <time>2013-05-05T12:16:06Z</time>
      </trkpt>
      <trkpt lat="60.0244236" lon="17.3797029">
        <ele>60.7003</ele>
        <time>2013-05-05T12:16:07Z</time>
      </trkpt>
      <trkpt lat="60.0244199" lon="17.3798353">
        <ele>60.2197</ele>
        <time>2013-05-05T12:16:08Z</time>
      </trkpt>
      <trkpt lat="60.0244132" lon="17.3800003">
        <ele>60.2197</ele>
        <time>2013-05-05T12:16:09Z</time>
      </trkpt>
      <trkpt lat="60.0243983" lon="17.3801622">
        <ele>61.181</ele>
        <time>2013-05-05T12:16:10Z</time>
      </trkpt>
      <trkpt lat="60.0243754" lon="17.3803098">
        <ele>60.7003</ele>
        <time>2013-05-05T12:16:11Z</time>
      </trkpt>
      <trkpt lat="60.0243562" lon="17.3804624">
        <ele>61.181</ele>
        <time>2013-05-05T12:16:12Z</time>
      </trkpt>
      <trkpt lat="60.0243451" lon="17.3806211">
        <ele>61.181</ele>
        <time>2013-05-05T12:16:13Z</time>
      </trkpt>
      <trkpt lat="60.0243363" lon="17.3807841">
        <ele>62.1423</ele>
        <time>2013-05-05T12:16:14Z</time>
      </trkpt>
      <trkpt lat="60.0243339" lon="17.3809459">
        <ele>61.6617</ele>
        <time>2013-05-05T12:16:15Z</time>
      </trkpt>
      <trkpt lat="60.0243343" lon="17.381111">
        <ele>61.6617</ele>
        <time>2013-05-05T12:16:16Z</time>
      </trkpt>
      <trkpt lat="60.0243323" lon="17.3812794">
        <ele>61.6617</ele>
        <time>2013-05-05T12:16:17Z</time>
      </trkpt>
      <trkpt lat="60.0243287" lon="17.3814442">
        <ele>59.2584</ele>
        <time>2013-05-05T12:16:18Z</time>
      </trkpt>
      <trkpt lat="60.0243205" lon="17.3816037">
        <ele>57.3358</ele>
        <time>2013-05-05T12:16:19Z</time>
      </trkpt>
      <trkpt lat="60.0243128" lon="17.3817602">
        <ele>57.8165</ele>
        <time>2013-05-05T12:16:20Z</time>
      </trkpt>
      <trkpt lat="60.0243035" lon="17.3819207">
        <ele>57.8165</ele>
        <time>2013-05-05T12:16:21Z</time>
      </trkpt>
      <trkpt lat="60.0242981" lon="17.382079">
        <ele>57.8165</ele>
        <time>2013-05-05T12:16:22Z</time>
      </trkpt>
      <trkpt lat="60.0242935" lon="17.3822398">
        <ele>58.2971</ele>
        <time>2013-05-05T12:16:23Z</time>
      </trkpt>
      <trkpt lat="60.0242904" lon="17.3824061">
        <ele>58.7777</ele>
        <time>2013-05-05T12:16:24Z</time>
      </trkpt>
      <trkpt lat="60.0242889" lon="17.3825987">
        <ele>59.2584</ele>
        <time>2013-05-05T12:16:25Z</time>
      </trkpt>
      <trkpt lat="60.0242852" lon="17.3827807">
        <ele>58.2971</ele>
        <time>2013-05-05T12:16:26Z</time>
      </trkpt>
      <trkpt lat="60.0242884" lon="17.3829371">
        <ele>57.8165</ele>
        <time>2013-05-05T12:16:27Z</time>
      </trkpt>
      <trkpt lat="60.0242902" lon="17.3830787">
        <ele>55.8938</ele>
        <time>2013-05-05T12:16:28Z</time>
      </trkpt>
      <trkpt lat="60.0242909" lon="17.383249">
        <ele>54.9324</ele>
        <time>2013-05-05T12:16:29Z</time>
      </trkpt>
      <trkpt lat="60.0242899" lon="17.38341">
        <ele>54.4518</ele>
        <time>2013-05-05T12:16:30Z</time>
      </trkpt>
      <trkpt lat="60.0242848" lon="17.3835788">
        <ele>55.4131</ele>
        <time>2013-05-05T12:16:31Z</time>
      </trkpt>
      <trkpt lat="60.0242737" lon="17.3837553">
        <ele>55.8938</ele>
        <time>2013-05-05T12:16:32Z</time>
      </trkpt>
      <trkpt lat="60.0242504" lon="17.3839405">
        <ele>56.3745</ele>
        <time>2013-05-05T12:16:33Z</time>
      </trkpt>
      <trkpt lat="60.0242152" lon="17.384121">
        <ele>57.3358</ele>
        <time>2013-05-05T12:16:34Z</time>
      </trkpt>
      <trkpt lat="60.0241688" lon="17.3842854">
        <ele>56.8551</ele>
        <time>2013-05-05T12:16:35Z</time>
      </trkpt>
      <trkpt lat="60.0241025" lon="17.3844499">
        <ele>56.8551</ele>
        <time>2013-05-05T12:16:36Z</time>
      </trkpt>
      <trkpt lat="60.0240242" lon="17.384582">
        <ele>56.3745</ele>
        <time>2013-05-05T12:16:37Z</time>
      </trkpt>
      <trkpt lat="60.0239412" lon="17.3846956">
        <ele>54.9324</ele>
        <time>2013-05-05T12:16:38Z</time>
      </trkpt>
      <trkpt lat="60.0238584" lon="17.3848183">
        <ele>53.9712</ele>
        <time>2013-05-05T12:16:39Z</time>
      </trkpt>
      <trkpt lat="60.0237761" lon="17.3849464">
        <ele>54.4518</ele>
        <time>2013-05-05T12:16:40Z</time>
      </trkpt>
      <trkpt lat="60.0236987" lon="17.3850832">
        <ele>54.4518</ele>
        <time>2013-05-05T12:16:41Z</time>
      </trkpt>
      <trkpt lat="60.0236287" lon="17.3852264">
        <ele>54.4518</ele>
        <time>2013-05-05T12:16:42Z</time>
      </trkpt>
      <trkpt lat="60.0235611" lon="17.385367">
        <ele>53.9712</ele>
        <time>2013-05-05T12:16:43Z</time>
      </trkpt>
      <trkpt lat="60.0234905" lon="17.3854996">
        <ele>54.4518</ele>
        <time>2013-05-05T12:16:44Z</time>
      </trkpt>
      <trkpt lat="60.0234229" lon="17.3856162">
        <ele>53.0098</ele>
        <time>2013-05-05T12:16:45Z</time>
      </trkpt>
      <trkpt lat="60.0233514" lon="17.3857343">
        <ele>53.0098</ele>
        <time>2013-05-05T12:16:46Z</time>
      </trkpt>
      <trkpt lat="60.0232796" lon="17.3858449">
        <ele>51.5679</ele>
        <time>2013-05-05T12:16:47Z</time>
      </trkpt>
      <trkpt lat="60.0232076" lon="17.385959">
        <ele>52.0486</ele>
        <time>2013-05-05T12:16:48Z</time>
      </trkpt>
      <trkpt lat="60.0231504" lon="17.3860635">
        <ele>51.5679</ele>
        <time>2013-05-05T12:16:49Z</time>
      </trkpt>
      <trkpt lat="60.0230958" lon="17.3861703">
        <ele>51.5679</ele>
        <time>2013-05-05T12:16:50Z</time>
      </trkpt>
      <trkpt lat="60.0230394" lon="17.3862809">
        <ele>51.5679</ele>
        <time>2013-05-05T12:16:51Z</time>
      </trkpt>
      <trkpt lat="60.0229799" lon="17.3863933">
        <ele>50.6066</ele>
        <time>2013-05-05T12:16:52Z</time>
      </trkpt>
      <trkpt lat="60.0229129" lon="17.3864894">
        <ele>48.684</ele>
        <time>2013-05-05T12:16:53Z</time>
      </trkpt>
      <trkpt lat="60.0228385" lon="17.3865634">
        <ele>48.2034</ele>
        <time>2013-05-05T12:16:54Z</time>
      </trkpt>
      <trkpt lat="60.0227591" lon="17.3866149">
        <ele>48.2034</ele>
        <time>2013-05-05T12:16:55Z</time>
      </trkpt>
      <trkpt lat="60.0226753" lon="17.3866558">
        <ele>48.2034</ele>
        <time>2013-05-05T12:16:56Z</time>
      </trkpt>
      <trkpt lat="60.0225943" lon="17.386676">
        <ele>47.2418</ele>
        <time>2013-05-05T12:16:57Z</time>
      </trkpt>
      <trkpt lat="60.0225083" lon="17.386701">
        <ele>47.2418</ele>
        <time>2013-05-05T12:16:58Z</time>
      </trkpt>
      <trkpt lat="60.0224267" lon="17.3867206">
        <ele>47.2418</ele>
        <time>2013-05-05T12:16:59Z</time>
      </trkpt>
      <trkpt lat="60.0223469" lon="17.3867345">
        <ele>46.7612</ele>
        <time>2013-05-05T12:17:00Z</time>
      </trkpt>
      <trkpt lat="60.0222713" lon="17.3867557">
        <ele>45.7999</ele>
        <time>2013-05-05T12:17:01Z</time>
      </trkpt>
      <trkpt lat="60.0221897" lon="17.3868019">
        <ele>46.7612</ele>
        <time>2013-05-05T12:17:02Z</time>
      </trkpt>
      <trkpt lat="60.0221204" lon="17.3868338">
        <ele>46.7612</ele>
        <time>2013-05-05T12:17:03Z</time>
      </trkpt>
      <trkpt lat="60.0220569" lon="17.3868721">
        <ele>46.7612</ele>
        <time>2013-05-05T12:17:04Z</time>
      </trkpt>
      <trkpt lat="60.0219952" lon="17.3869094">
        <ele>45.7999</ele>
        <time>2013-05-05T12:17:05Z</time>
      </trkpt>
      <trkpt lat="60.0219284" lon="17.3869455">
        <ele>45.7999</ele>
        <time>2013-05-05T12:17:06Z</time>
      </trkpt>
      <trkpt lat="60.021861" lon="17.3869816">
        <ele>45.7999</ele>
        <time>2013-05-05T12:17:07Z</time>
      </trkpt>
      <trkpt lat="60.0217914" lon="17.387018">
        <ele>45.3192</ele>
        <time>2013-05-05T12:17:08Z</time>
      </trkpt>
      <trkpt lat="60.0217173" lon="17.387054">
        <ele>45.3192</ele>
        <time>2013-05-05T12:17:09Z</time>
      </trkpt>
      <trkpt lat="60.0216409" lon="17.3870868">
        <ele>45.3192</ele>
        <time>2013-05-05T12:17:10Z</time>
      </trkpt>
      <trkpt lat="60.0215619" lon="17.3871214">
        <ele>45.3192</ele>
        <time>2013-05-05T12:17:11Z</time>
      </trkpt>
      <trkpt lat="60.0214849" lon="17.3871576">
        <ele>45.7999</ele>
        <time>2013-05-05T12:17:12Z</time>
      </trkpt>
      <trkpt lat="60.0214072" lon="17.3871997">
        <ele>45.7999</ele>
        <time>2013-05-05T12:17:13Z</time>
      </trkpt>
      <trkpt lat="60.0213352" lon="17.3872531">
        <ele>45.3192</ele>
        <time>2013-05-05T12:17:14Z</time>
      </trkpt>
      <trkpt lat="60.0212617" lon="17.3873277">
        <ele>45.7999</ele>
        <time>2013-05-05T12:17:15Z</time>
      </trkpt>
      <trkpt lat="60.021199" lon="17.38741">
        <ele>45.7999</ele>
        <time>2013-05-05T12:17:16Z</time>
      </trkpt>
      <trkpt lat="60.0211462" lon="17.3875042">
        <ele>45.7999</ele>
        <time>2013-05-05T12:17:17Z</time>
      </trkpt>
      <trkpt lat="60.021101" lon="17.3876158">
        <ele>45.7999</ele>
        <time>2013-05-05T12:17:18Z</time>
      </trkpt>
      <trkpt lat="60.0210633" lon="17.3877346">
        <ele>45.3192</ele>
        <time>2013-05-05T12:17:19Z</time>
      </trkpt>
      <trkpt lat="60.0210341" lon="17.3878548">
        <ele>45.7999</ele>
        <time>2013-05-05T12:17:20Z</time>
      </trkpt>
      <trkpt lat="60.0210109" lon="17.3879849">
        <ele>46.2806</ele>
        <time>2013-05-05T12:17:21Z</time>
      </trkpt>
      <trkpt lat="60.0209861" lon="17.3881176">
        <ele>46.7612</ele>
        <time>2013-05-05T12:17:22Z</time>
      </trkpt>
      <trkpt lat="60.0209612" lon="17.3882585">
        <ele>47.7225</ele>
        <time>2013-05-05T12:17:23Z</time>
      </trkpt>
      <trkpt lat="60.0209364" lon="17.3884148">
        <ele>47.7225</ele>
        <time>2013-05-05T12:17:24Z</time>
      </trkpt>
      <trkpt lat="60.0209025" lon="17.3885767">
        <ele>48.684</ele>
        <time>2013-05-05T12:17:25Z</time>
      </trkpt>
      <trkpt lat="60.0208674" lon="17.3887438">
        <ele>49.1646</ele>
        <time>2013-05-05T12:17:26Z</time>
      </trkpt>
      <trkpt lat="60.020837" lon="17.3889053">
        <ele>49.6453</ele>
        <time>2013-05-05T12:17:27Z</time>
      </trkpt>
      <trkpt lat="60.0208092" lon="17.3890707">
        <ele>49.1646</ele>
        <time>2013-05-05T12:17:28Z</time>
      </trkpt>
      <trkpt lat="60.0207771" lon="17.3892467">
        <ele>50.126</ele>
        <time>2013-05-05T12:17:29Z</time>
      </trkpt>
      <trkpt lat="60.0207482" lon="17.3894147">
        <ele>51.0872</ele>
        <time>2013-05-05T12:17:30Z</time>
      </trkpt>
      <trkpt lat="60.0207193" lon="17.3895924">
        <ele>52.5292</ele>
        <time>2013-05-05T12:17:31Z</time>
      </trkpt>
      <trkpt lat="60.0206875" lon="17.3897715">
        <ele>53.0098</ele>
        <time>2013-05-05T12:17:32Z</time>
      </trkpt>
      <trkpt lat="60.0206481" lon="17.3899386">
        <ele>53.4905</ele>
        <time>2013-05-05T12:17:33Z</time>
      </trkpt>
      <trkpt lat="60.0206026" lon="17.3901046">
        <ele>53.0098</ele>
        <time>2013-05-05T12:17:34Z</time>
      </trkpt>
      <trkpt lat="60.0205525" lon="17.3902622">
        <ele>52.5292</ele>
        <time>2013-05-05T12:17:35Z</time>
      </trkpt>
      <trkpt lat="60.0204958" lon="17.3904243">
        <ele>52.0486</ele>
        <time>2013-05-05T12:17:36Z</time>
      </trkpt>
      <trkpt lat="60.0204359" lon="17.390585">
        <ele>52.5292</ele>
        <time>2013-05-05T12:17:37Z</time>
      </trkpt>
      <trkpt lat="60.0203704" lon="17.3907432">
        <ele>52.0486</ele>
        <time>2013-05-05T12:17:38Z</time>
      </trkpt>
      <trkpt lat="60.0202974" lon="17.3909127">
        <ele>52.0486</ele>
        <time>2013-05-05T12:17:39Z</time>
      </trkpt>
      <trkpt lat="60.020223" lon="17.3910856">
        <ele>52.0486</ele>
        <time>2013-05-05T12:17:40Z</time>
      </trkpt>
      <trkpt lat="60.0201505" lon="17.3912507">
        <ele>52.5292</ele>
        <time>2013-05-05T12:17:41Z</time>
      </trkpt>
      <trkpt lat="60.0200809" lon="17.3914125">
        <ele>52.0486</ele>
        <time>2013-05-05T12:17:42Z</time>
      </trkpt>
      <trkpt lat="60.0200111" lon="17.3915687">
        <ele>51.5679</ele>
        <time>2013-05-05T12:17:43Z</time>
      </trkpt>
      <trkpt lat="60.0199418" lon="17.3917213">
        <ele>51.5679</ele>
        <time>2013-05-05T12:17:44Z</time>
      </trkpt>
      <trkpt lat="60.0198595" lon="17.3918951">
        <ele>51.0872</ele>
        <time>2013-05-05T12:17:45Z</time>
      </trkpt>
      <trkpt lat="60.0197878" lon="17.3920245">
        <ele>50.6066</ele>
        <time>2013-05-05T12:17:46Z</time>
      </trkpt>
      <trkpt lat="60.0197164" lon="17.3921357">
        <ele>49.6453</ele>
        <time>2013-05-05T12:17:47Z</time>
      </trkpt>
      <trkpt lat="60.0196517" lon="17.3922278">
        <ele>48.684</ele>
        <time>2013-05-05T12:17:48Z</time>
      </trkpt>
      <trkpt lat="60.0195832" lon="17.3922996">
        <ele>47.2418</ele>
        <time>2013-05-05T12:17:49Z</time>
      </trkpt>
      <trkpt lat="60.0195195" lon="17.392403">
        <ele>46.7612</ele>
        <time>2013-05-05T12:17:50Z</time>
      </trkpt>
      <trkpt lat="60.0194569" lon="17.3925222">
        <ele>45.7999</ele>
        <time>2013-05-05T12:17:51Z</time>
      </trkpt>
      <trkpt lat="60.0193976" lon="17.3926144">
        <ele>45.3192</ele>
        <time>2013-05-05T12:17:52Z</time>
      </trkpt>
      <trkpt lat="60.0193409" lon="17.3927181">
        <ele>44.358</ele>
        <time>2013-05-05T12:17:53Z</time>
      </trkpt>
      <trkpt lat="60.0192863" lon="17.3927928">
        <ele>42.916</ele>
        <time>2013-05-05T12:17:54Z</time>
      </trkpt>
      <trkpt lat="60.0192166" lon="17.3928973">
        <ele>42.916</ele>
        <time>2013-05-05T12:17:55Z</time>
      </trkpt>
      <trkpt lat="60.0191528" lon="17.3929926">
        <ele>43.8773</ele>
        <time>2013-05-05T12:17:56Z</time>
      </trkpt>
      <trkpt lat="60.0190896" lon="17.3930769">
        <ele>44.358</ele>
        <time>2013-05-05T12:17:57Z</time>
      </trkpt>
      <trkpt lat="60.0190273" lon="17.3931667">
        <ele>43.8773</ele>
        <time>2013-05-05T12:17:58Z</time>
      </trkpt>
      <trkpt lat="60.0189647" lon="17.3932818">
        <ele>44.358</ele>
        <time>2013-05-05T12:17:59Z</time>
      </trkpt>
      <trkpt lat="60.0188993" lon="17.3934091">
        <ele>44.358</ele>
        <time>2013-05-05T12:18:00Z</time>
      </trkpt>
      <trkpt lat="60.0188325" lon="17.3935291">
        <ele>42.916</ele>
        <time>2013-05-05T12:18:01Z</time>
      </trkpt>
      <trkpt lat="60.0187669" lon="17.3936395">
        <ele>42.4354</ele>
        <time>2013-05-05T12:18:02Z</time>
      </trkpt>
      <trkpt lat="60.0186944" lon="17.3937546">
        <ele>41.9547</ele>
        <time>2013-05-05T12:18:03Z</time>
      </trkpt>
      <trkpt lat="60.0186119" lon="17.3938787">
        <ele>42.4354</ele>
        <time>2013-05-05T12:18:04Z</time>
      </trkpt>
      <trkpt lat="60.0185223" lon="17.3939849">
        <ele>42.4354</ele>
        <time>2013-05-05T12:18:05Z</time>
      </trkpt>
      <trkpt lat="60.0184255" lon="17.3940898">
        <ele>41.9547</ele>
        <time>2013-05-05T12:18:06Z</time>
      </trkpt>
      <trkpt lat="60.0183272" lon="17.3941877">
        <ele>41.474</ele>
        <time>2013-05-05T12:18:07Z</time>
      </trkpt>
      <trkpt lat="60.0182318" lon="17.3942752">
        <ele>41.9547</ele>
        <time>2013-05-05T12:18:08Z</time>
      </trkpt>
      <trkpt lat="60.0181412" lon="17.3943663">
        <ele>41.9547</ele>
        <time>2013-05-05T12:18:09Z</time>
      </trkpt>
      <trkpt lat="60.0180526" lon="17.3944782">
        <ele>41.9547</ele>
        <time>2013-05-05T12:18:10Z</time>
      </trkpt>
      <trkpt lat="60.0179695" lon="17.3945981">
        <ele>42.4354</ele>
        <time>2013-05-05T12:18:11Z</time>
      </trkpt>
      <trkpt lat="60.01789" lon="17.3947184">
        <ele>40.9934</ele>
        <time>2013-05-05T12:18:12Z</time>
      </trkpt>
      <trkpt lat="60.017813" lon="17.3948459">
        <ele>39.5513</ele>
        <time>2013-05-05T12:18:13Z</time>
      </trkpt>
      <trkpt lat="60.0177385" lon="17.3949931">
        <ele>39.5513</ele>
        <time>2013-05-05T12:18:14Z</time>
      </trkpt>
      <trkpt lat="60.0176708" lon="17.395145">
        <ele>38.5901</ele>
        <time>2013-05-05T12:18:15Z</time>
      </trkpt>
      <trkpt lat="60.0176146" lon="17.3953019">
        <ele>38.5901</ele>
        <time>2013-05-05T12:18:16Z</time>
      </trkpt>
      <trkpt lat="60.0175706" lon="17.3954718">
        <ele>39.5513</ele>
        <time>2013-05-05T12:18:17Z</time>
      </trkpt>
      <trkpt lat="60.0175375" lon="17.3956423">
        <ele>40.0321</ele>
        <time>2013-05-05T12:18:18Z</time>
      </trkpt>
      <trkpt lat="60.017519" lon="17.3958034">
        <ele>40.5128</ele>
        <time>2013-05-05T12:18:19Z</time>
      </trkpt>
      <trkpt lat="60.0175149" lon="17.3959624">
        <ele>39.5513</ele>
        <time>2013-05-05T12:18:20Z</time>
      </trkpt>
      <trkpt lat="60.0175184" lon="17.3961177">
        <ele>39.5513</ele>
        <time>2013-05-05T12:18:21Z</time>
      </trkpt>
      <trkpt lat="60.0175556" lon="17.396256">
        <ele>39.0707</ele>
        <time>2013-05-05T12:18:22Z</time>
      </trkpt>
      <trkpt lat="60.0175874" lon="17.3963989">
        <ele>40.0321</ele>
        <time>2013-05-05T12:18:23Z</time>
      </trkpt>
      <trkpt lat="60.01761" lon="17.3966032">
        <ele>40.5128</ele>
        <time>2013-05-05T12:18:24Z</time>
      </trkpt>
      <trkpt lat="60.0176453" lon="17.3967678">
        <ele>40.5128</ele>
        <time>2013-05-05T12:18:25Z</time>
      </trkpt>
      <trkpt lat="60.0176801" lon="17.3969063">
        <ele>40.9934</ele>
        <time>2013-05-05T12:18:26Z</time>
      </trkpt>
      <trkpt lat="60.0177146" lon="17.3970356">
        <ele>40.9934</ele>
        <time>2013-05-05T12:18:27Z</time>
      </trkpt>
      <trkpt lat="60.0177384" lon="17.3971455">
        <ele>40.9934</ele>
        <time>2013-05-05T12:18:28Z</time>
      </trkpt>
      <trkpt lat="60.0177933" lon="17.3972349">
        <ele>43.3966</ele>
        <time>2013-05-05T12:18:29Z</time>
      </trkpt>
      <trkpt lat="60.0178201" lon="17.3973371">
        <ele>42.916</ele>
        <time>2013-05-05T12:18:30Z</time>
      </trkpt>
      <trkpt lat="60.0178402" lon="17.3974522">
        <ele>43.3966</ele>
        <time>2013-05-05T12:18:31Z</time>
      </trkpt>
      <trkpt lat="60.0178681" lon="17.3975702">
        <ele>43.8773</ele>
        <time>2013-05-05T12:18:32Z</time>
      </trkpt>
      <trkpt lat="60.017917" lon="17.3976739">
        <ele>46.2806</ele>
        <time>2013-05-05T12:18:33Z</time>
      </trkpt>
      <trkpt lat="60.0179527" lon="17.3977848">
        <ele>47.2418</ele>
        <time>2013-05-05T12:18:34Z</time>
      </trkpt>
      <trkpt lat="60.0179935" lon="17.3978882">
        <ele>48.684</ele>
        <time>2013-05-05T12:18:35Z</time>
      </trkpt>
      <trkpt lat="60.0180307" lon="17.3979908">
        <ele>50.6066</ele>
        <time>2013-05-05T12:18:36Z</time>
      </trkpt>
      <trkpt lat="60.0180654" lon="17.3980845">
        <ele>50.6066</ele>
        <time>2013-05-05T12:18:37Z</time>
      </trkpt>
      <trkpt lat="60.0180974" lon="17.3981882">
        <ele>51.0872</ele>
        <time>2013-05-05T12:18:38Z</time>
      </trkpt>
      <trkpt lat="60.0181251" lon="17.3983079">
        <ele>53.0098</ele>
        <time>2013-05-05T12:18:39Z</time>
      </trkpt>
      <trkpt lat="60.0181483" lon="17.3984271">
        <ele>53.4905</ele>
        <time>2013-05-05T12:18:40Z</time>
      </trkpt>
      <trkpt lat="60.0181721" lon="17.3985484">
        <ele>53.9712</ele>
        <time>2013-05-05T12:18:41Z</time>
      </trkpt>
      <trkpt lat="60.0181941" lon="17.3986741">
        <ele>54.4518</ele>
        <time>2013-05-05T12:18:42Z</time>
      </trkpt>
      <trkpt lat="60.0182155" lon="17.3988046">
        <ele>54.9324</ele>
        <time>2013-05-05T12:18:43Z</time>
      </trkpt>
      <trkpt lat="60.0182312" lon="17.3989507">
        <ele>55.8938</ele>
        <time>2013-05-05T12:18:44Z</time>
      </trkpt>
      <trkpt lat="60.0182451" lon="17.3991031">
        <ele>56.3745</ele>
        <time>2013-05-05T12:18:45Z</time>
      </trkpt>
      <trkpt lat="60.0182599" lon="17.3992479">
        <ele>57.3358</ele>
        <time>2013-05-05T12:18:46Z</time>
      </trkpt>
      <trkpt lat="60.0182749" lon="17.3994038">
        <ele>57.8165</ele>
        <time>2013-05-05T12:18:47Z</time>
      </trkpt>
      <trkpt lat="60.0182928" lon="17.3995765">
        <ele>58.7777</ele>
        <time>2013-05-05T12:18:48Z</time>
      </trkpt>
      <trkpt lat="60.0183121" lon="17.3997702">
        <ele>58.7777</ele>
        <time>2013-05-05T12:18:49Z</time>
      </trkpt>
      <trkpt lat="60.0183331" lon="17.3999703">
        <ele>58.7777</ele>
        <time>2013-05-05T12:18:50Z</time>
      </trkpt>
      <trkpt lat="60.0183525" lon="17.4001659">
        <ele>57.3358</ele>
        <time>2013-05-05T12:18:51Z</time>
      </trkpt>
      <trkpt lat="60.0183824" lon="17.400366">
        <ele>58.2971</ele>
        <time>2013-05-05T12:18:52Z</time>
      </trkpt>
      <trkpt lat="60.0184104" lon="17.4005561">
        <ele>58.2971</ele>
        <time>2013-05-05T12:18:53Z</time>
      </trkpt>
      <trkpt lat="60.0184394" lon="17.4007409">
        <ele>56.8551</ele>
        <time>2013-05-05T12:18:54Z</time>
      </trkpt>
      <trkpt lat="60.0184696" lon="17.4009242">
        <ele>55.8938</ele>
        <time>2013-05-05T12:18:55Z</time>
      </trkpt>
      <trkpt lat="60.0184951" lon="17.4011145">
        <ele>54.9324</ele>
        <time>2013-05-05T12:18:56Z</time>
      </trkpt>
      <trkpt lat="60.0185151" lon="17.4013471">
        <ele>54.9324</ele>
        <time>2013-05-05T12:18:57Z</time>
      </trkpt>
      <trkpt lat="60.0185357" lon="17.4015011">
        <ele>54.9324</ele>
        <time>2013-05-05T12:18:58Z</time>
      </trkpt>
      <trkpt lat="60.0185489" lon="17.4016603">
        <ele>54.4518</ele>
        <time>2013-05-05T12:18:59Z</time>
      </trkpt>
      <trkpt lat="60.0185596" lon="17.4018371">
        <ele>54.9324</ele>
        <time>2013-05-05T12:19:00Z</time>
      </trkpt>
      <trkpt lat="60.0185658" lon="17.4020188">
        <ele>54.9324</ele>
        <time>2013-05-05T12:19:01Z</time>
      </trkpt>
      <trkpt lat="60.0185731" lon="17.4021925">
        <ele>54.4518</ele>
        <time>2013-05-05T12:19:02Z</time>
      </trkpt>
      <trkpt lat="60.0185712" lon="17.4023713">
        <ele>54.4518</ele>
        <time>2013-05-05T12:19:03Z</time>
      </trkpt>
      <trkpt lat="60.018567" lon="17.4025406">
        <ele>53.9712</ele>
        <time>2013-05-05T12:19:04Z</time>
      </trkpt>
      <trkpt lat="60.0185555" lon="17.4027074">
        <ele>53.4905</ele>
        <time>2013-05-05T12:19:05Z</time>
      </trkpt>
      <trkpt lat="60.0185362" lon="17.402886">
        <ele>53.4905</ele>
        <time>2013-05-05T12:19:06Z</time>
      </trkpt>
      <trkpt lat="60.0185137" lon="17.4030477">
        <ele>53.4905</ele>
        <time>2013-05-05T12:19:07Z</time>
      </trkpt>
      <trkpt lat="60.0184917" lon="17.4032296">
        <ele>53.4905</ele>
        <time>2013-05-05T12:19:08Z</time>
      </trkpt>
      <trkpt lat="60.0184638" lon="17.4033984">
        <ele>53.4905</ele>
        <time>2013-05-05T12:19:09Z</time>
      </trkpt>
      <trkpt lat="60.0184364" lon="17.4035808">
        <ele>53.4905</ele>
        <time>2013-05-05T12:19:10Z</time>
      </trkpt>
      <trkpt lat="60.0184087" lon="17.4037564">
        <ele>53.9712</ele>
        <time>2013-05-05T12:19:11Z</time>
      </trkpt>
      <trkpt lat="60.0183832" lon="17.4039121">
        <ele>53.0098</ele>
        <time>2013-05-05T12:19:12Z</time>
      </trkpt>
      <trkpt lat="60.0183556" lon="17.4040752">
        <ele>53.0098</ele>
        <time>2013-05-05T12:19:13Z</time>
      </trkpt>
      <trkpt lat="60.0183234" lon="17.4042351">
        <ele>53.0098</ele>
        <time>2013-05-05T12:19:14Z</time>
      </trkpt>
      <trkpt lat="60.0182898" lon="17.4043899">
        <ele>52.5292</ele>
        <time>2013-05-05T12:19:15Z</time>
      </trkpt>
      <trkpt lat="60.0182499" lon="17.404542">
        <ele>50.126</ele>
        <time>2013-05-05T12:19:16Z</time>
      </trkpt>
      <trkpt lat="60.0182052" lon="17.4046903">
        <ele>48.2034</ele>
        <time>2013-05-05T12:19:17Z</time>
      </trkpt>
      <trkpt lat="60.0181554" lon="17.4048407">
        <ele>47.7225</ele>
        <time>2013-05-05T12:19:18Z</time>
      </trkpt>
      <trkpt lat="60.0180991" lon="17.4049866">
        <ele>47.2418</ele>
        <time>2013-05-05T12:19:19Z</time>
      </trkpt>
      <trkpt lat="60.01804" lon="17.4051239">
        <ele>46.7612</ele>
        <time>2013-05-05T12:19:20Z</time>
      </trkpt>
      <trkpt lat="60.0179769" lon="17.4052672">
        <ele>46.7612</ele>
        <time>2013-05-05T12:19:21Z</time>
      </trkpt>
      <trkpt lat="60.0179143" lon="17.4054149">
        <ele>46.2806</ele>
        <time>2013-05-05T12:19:22Z</time>
      </trkpt>
      <trkpt lat="60.01785" lon="17.4055627">
        <ele>46.2806</ele>
        <time>2013-05-05T12:19:23Z</time>
      </trkpt>
      <trkpt lat="60.0177884" lon="17.4056989">
        <ele>46.7612</ele>
        <time>2013-05-05T12:19:24Z</time>
      </trkpt>
      <trkpt lat="60.0177296" lon="17.4058321">
        <ele>46.2806</ele>
        <time>2013-05-05T12:19:25Z</time>
      </trkpt>
      <trkpt lat="60.0176707" lon="17.4059603">
        <ele>46.2806</ele>
        <time>2013-05-05T12:19:26Z</time>
      </trkpt>
      <trkpt lat="60.0176128" lon="17.4060789">
        <ele>46.2806</ele>
        <time>2013-05-05T12:19:27Z</time>
      </trkpt>
      <trkpt lat="60.0175599" lon="17.4061994">
        <ele>46.7612</ele>
        <time>2013-05-05T12:19:28Z</time>
      </trkpt>
      <trkpt lat="60.017506" lon="17.406327">
        <ele>46.7612</ele>
        <time>2013-05-05T12:19:29Z</time>
      </trkpt>
      <trkpt lat="60.0174563" lon="17.406464">
        <ele>47.2418</ele>
        <time>2013-05-05T12:19:30Z</time>
      </trkpt>
      <trkpt lat="60.0174097" lon="17.4065995">
        <ele>48.2034</ele>
        <time>2013-05-05T12:19:31Z</time>
      </trkpt>
      <trkpt lat="60.0173668" lon="17.4067391">
        <ele>48.2034</ele>
        <time>2013-05-05T12:19:32Z</time>
      </trkpt>
      <trkpt lat="60.0173249" lon="17.4068945">
        <ele>49.6453</ele>
        <time>2013-05-05T12:19:33Z</time>
      </trkpt>
      <trkpt lat="60.0172864" lon="17.4070421">
        <ele>50.6066</ele>
        <time>2013-05-05T12:19:34Z</time>
      </trkpt>
      <trkpt lat="60.0172506" lon="17.4071763">
        <ele>51.0872</ele>
        <time>2013-05-05T12:19:35Z</time>
      </trkpt>
      <trkpt lat="60.0172171" lon="17.4073224">
        <ele>51.5679</ele>
        <time>2013-05-05T12:19:36Z</time>
      </trkpt>
      <trkpt lat="60.0171897" lon="17.4074581">
        <ele>52.5292</ele>
        <time>2013-05-05T12:19:37Z</time>
      </trkpt>
      <trkpt lat="60.0171652" lon="17.4075922">
        <ele>53.9712</ele>
        <time>2013-05-05T12:19:38Z</time>
      </trkpt>
      <trkpt lat="60.0171435" lon="17.407715">
        <ele>54.9324</ele>
        <time>2013-05-05T12:19:39Z</time>
      </trkpt>
      <trkpt lat="60.0171246" lon="17.4078448">
        <ele>55.8938</ele>
        <time>2013-05-05T12:19:40Z</time>
      </trkpt>
      <trkpt lat="60.0171031" lon="17.4079937">
        <ele>56.3745</ele>
        <time>2013-05-05T12:19:41Z</time>
      </trkpt>
      <trkpt lat="60.0170816" lon="17.4081468">
        <ele>57.8165</ele>
        <time>2013-05-05T12:19:42Z</time>
      </trkpt>
      <trkpt lat="60.0170616" lon="17.4082875">
        <ele>58.7777</ele>
        <time>2013-05-05T12:19:43Z</time>
      </trkpt>
      <trkpt lat="60.0170415" lon="17.4084253">
        <ele>59.2584</ele>
        <time>2013-05-05T12:19:44Z</time>
      </trkpt>
      <trkpt lat="60.0170189" lon="17.4085635">
        <ele>60.2197</ele>
        <time>2013-05-05T12:19:45Z</time>
      </trkpt>
      <trkpt lat="60.0169967" lon="17.4087094">
        <ele>61.181</ele>
        <time>2013-05-05T12:19:46Z</time>
      </trkpt>
      <trkpt lat="60.0169708" lon="17.4088468">
        <ele>61.6617</ele>
        <time>2013-05-05T12:19:47Z</time>
      </trkpt>
      <trkpt lat="60.0169448" lon="17.4089834">
        <ele>61.6617</ele>
        <time>2013-05-05T12:19:48Z</time>
      </trkpt>
      <trkpt lat="60.0169174" lon="17.4091129">
        <ele>60.2197</ele>
        <time>2013-05-05T12:19:49Z</time>
      </trkpt>
      <trkpt lat="60.0168839" lon="17.4092417">
        <ele>59.7391</ele>
        <time>2013-05-05T12:19:50Z</time>
      </trkpt>
      <trkpt lat="60.0168486" lon="17.4093756">
        <ele>59.2584</ele>
        <time>2013-05-05T12:19:51Z</time>
      </trkpt>
      <trkpt lat="60.0168104" lon="17.4095136">
        <ele>57.8165</ele>
        <time>2013-05-05T12:19:52Z</time>
      </trkpt>
      <trkpt lat="60.0167675" lon="17.4096508">
        <ele>56.8551</ele>
        <time>2013-05-05T12:19:53Z</time>
      </trkpt>
      <trkpt lat="60.0167206" lon="17.4097891">
        <ele>56.3745</ele>
        <time>2013-05-05T12:19:54Z</time>
      </trkpt>
      <trkpt lat="60.0166651" lon="17.40993">
        <ele>56.3745</ele>
        <time>2013-05-05T12:19:55Z</time>
      </trkpt>
      <trkpt lat="60.0166041" lon="17.4100548">
        <ele>55.8938</ele>
        <time>2013-05-05T12:19:56Z</time>
      </trkpt>
      <trkpt lat="60.0165375" lon="17.4101735">
        <ele>55.4131</ele>
        <time>2013-05-05T12:19:57Z</time>
      </trkpt>
      <trkpt lat="60.0164637" lon="17.4102963">
        <ele>54.9324</ele>
        <time>2013-05-05T12:19:58Z</time>
      </trkpt>
      <trkpt lat="60.0163852" lon="17.4104217">
        <ele>54.9324</ele>
        <time>2013-05-05T12:19:59Z</time>
      </trkpt>
      <trkpt lat="60.0163058" lon="17.4105413">
        <ele>53.9712</ele>
        <time>2013-05-05T12:20:00Z</time>
      </trkpt>
      <trkpt lat="60.0162249" lon="17.4106615">
        <ele>53.0098</ele>
        <time>2013-05-05T12:20:01Z</time>
      </trkpt>
      <trkpt lat="60.0161437" lon="17.4107661">
        <ele>52.0486</ele>
        <time>2013-05-05T12:20:02Z</time>
      </trkpt>
      <trkpt lat="60.016063" lon="17.410867">
        <ele>51.0872</ele>
        <time>2013-05-05T12:20:03Z</time>
      </trkpt>
      <trkpt lat="60.0159789" lon="17.4109713">
        <ele>49.6453</ele>
        <time>2013-05-05T12:20:04Z</time>
      </trkpt>
      <trkpt lat="60.015895" lon="17.4110965">
        <ele>49.1646</ele>
        <time>2013-05-05T12:20:05Z</time>
      </trkpt>
      <trkpt lat="60.015814" lon="17.4112188">
        <ele>49.1646</ele>
        <time>2013-05-05T12:20:06Z</time>
      </trkpt>
      <trkpt lat="60.0157351" lon="17.4113315">
        <ele>49.6453</ele>
        <time>2013-05-05T12:20:07Z</time>
      </trkpt>
      <trkpt lat="60.0156588" lon="17.4114395">
        <ele>49.1646</ele>
        <time>2013-05-05T12:20:08Z</time>
      </trkpt>
      <trkpt lat="60.0155831" lon="17.4115461">
        <ele>49.1646</ele>
        <time>2013-05-05T12:20:09Z</time>
      </trkpt>
      <trkpt lat="60.0155077" lon="17.4116633">
        <ele>49.1646</ele>
        <time>2013-05-05T12:20:10Z</time>
      </trkpt>
      <trkpt lat="60.0154372" lon="17.4117864">
        <ele>49.1646</ele>
        <time>2013-05-05T12:20:11Z</time>
      </trkpt>
      <trkpt lat="60.0153629" lon="17.4119616">
        <ele>49.1646</ele>
        <time>2013-05-05T12:20:12Z</time>
      </trkpt>
      <trkpt lat="60.0152927" lon="17.4121249">
        <ele>49.1646</ele>
        <time>2013-05-05T12:20:13Z</time>
      </trkpt>
      <trkpt lat="60.0152271" lon="17.4122816">
        <ele>49.6453</ele>
        <time>2013-05-05T12:20:14Z</time>
      </trkpt>
      <trkpt lat="60.0151655" lon="17.4124334">
        <ele>49.1646</ele>
        <time>2013-05-05T12:20:15Z</time>
      </trkpt>
      <trkpt lat="60.0151137" lon="17.4125651">
        <ele>49.1646</ele>
        <time>2013-05-05T12:20:16Z</time>
      </trkpt>
      <trkpt lat="60.015059" lon="17.4127111">
        <ele>49.6453</ele>
        <time>2013-05-05T12:20:17Z</time>
      </trkpt>
      <trkpt lat="60.0150036" lon="17.4128374">
        <ele>49.6453</ele>
        <time>2013-05-05T12:20:18Z</time>
      </trkpt>
      <trkpt lat="60.0149485" lon="17.4129706">
        <ele>50.126</ele>
        <time>2013-05-05T12:20:19Z</time>
      </trkpt>
      <trkpt lat="60.0148985" lon="17.4131058">
        <ele>49.6453</ele>
        <time>2013-05-05T12:20:20Z</time>
      </trkpt>
      <trkpt lat="60.0148516" lon="17.4132401">
        <ele>49.1646</ele>
        <time>2013-05-05T12:20:21Z</time>
      </trkpt>
      <trkpt lat="60.0148075" lon="17.4133849">
        <ele>48.684</ele>
        <time>2013-05-05T12:20:22Z</time>
      </trkpt>
      <trkpt lat="60.0147622" lon="17.4135414">
        <ele>47.7225</ele>
        <time>2013-05-05T12:20:23Z</time>
      </trkpt>
      <trkpt lat="60.0147196" lon="17.4137015">
        <ele>46.7612</ele>
        <time>2013-05-05T12:20:24Z</time>
      </trkpt>
      <trkpt lat="60.0146767" lon="17.4138563">
        <ele>45.7999</ele>
        <time>2013-05-05T12:20:25Z</time>
      </trkpt>
      <trkpt lat="60.014635" lon="17.4140187">
        <ele>45.3192</ele>
        <time>2013-05-05T12:20:26Z</time>
      </trkpt>
      <trkpt lat="60.0145964" lon="17.4141801">
        <ele>45.7999</ele>
        <time>2013-05-05T12:20:27Z</time>
      </trkpt>
      <trkpt lat="60.014557" lon="17.4143413">
        <ele>45.7999</ele>
        <time>2013-05-05T12:20:28Z</time>
      </trkpt>
      <trkpt lat="60.0145198" lon="17.4145088">
        <ele>45.3192</ele>
        <time>2013-05-05T12:20:29Z</time>
      </trkpt>
      <trkpt lat="60.0144884" lon="17.4146833">
        <ele>44.8386</ele>
        <time>2013-05-05T12:20:30Z</time>
      </trkpt>
      <trkpt lat="60.0144563" lon="17.4148697">
        <ele>44.358</ele>
        <time>2013-05-05T12:20:31Z</time>
      </trkpt>
      <trkpt lat="60.0144311" lon="17.4150634">
        <ele>44.358</ele>
        <time>2013-05-05T12:20:32Z</time>
      </trkpt>
      <trkpt lat="60.0144056" lon="17.4152645">
        <ele>44.358</ele>
        <time>2013-05-05T12:20:33Z</time>
      </trkpt>
      <trkpt lat="60.0143795" lon="17.4154656">
        <ele>44.358</ele>
        <time>2013-05-05T12:20:34Z</time>
      </trkpt>
      <trkpt lat="60.0143551" lon="17.4156566">
        <ele>44.8386</ele>
        <time>2013-05-05T12:20:35Z</time>
      </trkpt>
      <trkpt lat="60.0143289" lon="17.4158398">
        <ele>44.358</ele>
        <time>2013-05-05T12:20:36Z</time>
      </trkpt>
      <trkpt lat="60.014304" lon="17.4160166">
        <ele>44.358</ele>
        <time>2013-05-05T12:20:37Z</time>
      </trkpt>
      <trkpt lat="60.0142829" lon="17.4161974">
        <ele>43.8773</ele>
        <time>2013-05-05T12:20:38Z</time>
      </trkpt>
      <trkpt lat="60.0142643" lon="17.4163755">
        <ele>44.358</ele>
        <time>2013-05-05T12:20:39Z</time>
      </trkpt>
      <trkpt lat="60.0142425" lon="17.4165434">
        <ele>44.358</ele>
        <time>2013-05-05T12:20:40Z</time>
      </trkpt>
      <trkpt lat="60.0142157" lon="17.4167088">
        <ele>43.8773</ele>
        <time>2013-05-05T12:20:41Z</time>
      </trkpt>
      <trkpt lat="60.0141802" lon="17.4169035">
        <ele>45.3192</ele>
        <time>2013-05-05T12:20:42Z</time>
      </trkpt>
      <trkpt lat="60.0141385" lon="17.4171382">
        <ele>46.2806</ele>
        <time>2013-05-05T12:20:43Z</time>
      </trkpt>
      <trkpt lat="60.0141227" lon="17.4173603">
        <ele>47.2418</ele>
        <time>2013-05-05T12:20:44Z</time>
      </trkpt>
      <trkpt lat="60.0140877" lon="17.4175432">
        <ele>47.2418</ele>
        <time>2013-05-05T12:20:45Z</time>
      </trkpt>
      <trkpt lat="60.0140571" lon="17.4177165">
        <ele>46.7612</ele>
        <time>2013-05-05T12:20:46Z</time>
      </trkpt>
      <trkpt lat="60.01403" lon="17.4178917">
        <ele>45.7999</ele>
        <time>2013-05-05T12:20:47Z</time>
      </trkpt>
      <trkpt lat="60.0140047" lon="17.4180721">
        <ele>45.7999</ele>
        <time>2013-05-05T12:20:48Z</time>
      </trkpt>
      <trkpt lat="60.0139824" lon="17.4182542">
        <ele>45.7999</ele>
        <time>2013-05-05T12:20:49Z</time>
      </trkpt>
      <trkpt lat="60.0139633" lon="17.4184532">
        <ele>45.7999</ele>
        <time>2013-05-05T12:20:50Z</time>
      </trkpt>
      <trkpt lat="60.0139518" lon="17.4186528">
        <ele>44.8386</ele>
        <time>2013-05-05T12:20:51Z</time>
      </trkpt>
      <trkpt lat="60.0139495" lon="17.4188406">
        <ele>44.358</ele>
        <time>2013-05-05T12:20:52Z</time>
      </trkpt>
      <trkpt lat="60.0139531" lon="17.4190245">
        <ele>44.358</ele>
        <time>2013-05-05T12:20:53Z</time>
      </trkpt>
      <trkpt lat="60.0139624" lon="17.419205">
        <ele>44.8386</ele>
        <time>2013-05-05T12:20:54Z</time>
      </trkpt>
      <trkpt lat="60.0139757" lon="17.4193857">
        <ele>44.8386</ele>
        <time>2013-05-05T12:20:55Z</time>
      </trkpt>
      <trkpt lat="60.0139894" lon="17.4195551">
        <ele>44.8386</ele>
        <time>2013-05-05T12:20:56Z</time>
      </trkpt>
      <trkpt lat="60.0140005" lon="17.4197291">
        <ele>44.8386</ele>
        <time>2013-05-05T12:20:57Z</time>
      </trkpt>
      <trkpt lat="60.0140044" lon="17.419907">
        <ele>45.3192</ele>
        <time>2013-05-05T12:20:58Z</time>
      </trkpt>
      <trkpt lat="60.014002" lon="17.420085">
        <ele>45.3192</ele>
        <time>2013-05-05T12:20:59Z</time>
      </trkpt>
      <trkpt lat="60.0139891" lon="17.420258">
        <ele>45.3192</ele>
        <time>2013-05-05T12:21:00Z</time>
      </trkpt>
      <trkpt lat="60.0139722" lon="17.4204279">
        <ele>45.3192</ele>
        <time>2013-05-05T12:21:01Z</time>
      </trkpt>
      <trkpt lat="60.0139519" lon="17.4205953">
        <ele>45.3192</ele>
        <time>2013-05-05T12:21:02Z</time>
      </trkpt>
      <trkpt lat="60.0139297" lon="17.4207575">
        <ele>45.3192</ele>
        <time>2013-05-05T12:21:03Z</time>
      </trkpt>
      <trkpt lat="60.0139047" lon="17.4209171">
        <ele>44.8386</ele>
        <time>2013-05-05T12:21:04Z</time>
      </trkpt>
      <trkpt lat="60.0138789" lon="17.4210791">
        <ele>44.8386</ele>
        <time>2013-05-05T12:21:05Z</time>
      </trkpt>
      <trkpt lat="60.0138526" lon="17.42124">
        <ele>44.8386</ele>
        <time>2013-05-05T12:21:06Z</time>
      </trkpt>
      <trkpt lat="60.0138266" lon="17.4214001">
        <ele>44.8386</ele>
        <time>2013-05-05T12:21:07Z</time>
      </trkpt>
      <trkpt lat="60.0138022" lon="17.4215603">
        <ele>44.358</ele>
        <time>2013-05-05T12:21:08Z</time>
      </trkpt>
      <trkpt lat="60.0137796" lon="17.4217178">
        <ele>44.358</ele>
        <time>2013-05-05T12:21:09Z</time>
      </trkpt>
      <trkpt lat="60.0137589" lon="17.4218699">
        <ele>44.358</ele>
        <time>2013-05-05T12:21:10Z</time>
      </trkpt>
      <trkpt lat="60.0137442" lon="17.4220202">
        <ele>43.8773</ele>
        <time>2013-05-05T12:21:11Z</time>
      </trkpt>
      <trkpt lat="60.0137449" lon="17.4221697">
        <ele>44.358</ele>
        <time>2013-05-05T12:21:12Z</time>
      </trkpt>
      <trkpt lat="60.0137682" lon="17.4223124">
        <ele>44.358</ele>
        <time>2013-05-05T12:21:13Z</time>
      </trkpt>
      <trkpt lat="60.0138086" lon="17.422424">
        <ele>43.3966</ele>
        <time>2013-05-05T12:21:14Z</time>
      </trkpt>
      <trkpt lat="60.013856" lon="17.4225149">
        <ele>42.4354</ele>
        <time>2013-05-05T12:21:15Z</time>
      </trkpt>
      <trkpt lat="60.0139193" lon="17.4225913">
        <ele>41.474</ele>
        <time>2013-05-05T12:21:16Z</time>
      </trkpt>
      <trkpt lat="60.0139929" lon="17.4226674">
        <ele>41.474</ele>
        <time>2013-05-05T12:21:17Z</time>
      </trkpt>
      <trkpt lat="60.0140697" lon="17.4227417">
        <ele>41.9547</ele>
        <time>2013-05-05T12:21:18Z</time>
      </trkpt>
      <trkpt lat="60.0141431" lon="17.4228088">
        <ele>41.9547</ele>
        <time>2013-05-05T12:21:19Z</time>
      </trkpt>
      <trkpt lat="60.0142135" lon="17.4228704">
        <ele>41.9547</ele>
        <time>2013-05-05T12:21:20Z</time>
      </trkpt>
      <trkpt lat="60.0142779" lon="17.4229335">
        <ele>40.9934</ele>
        <time>2013-05-05T12:21:21Z</time>
      </trkpt>
      <trkpt lat="60.0143394" lon="17.4229978">
        <ele>40.0321</ele>
        <time>2013-05-05T12:21:22Z</time>
      </trkpt>
      <trkpt lat="60.0144021" lon="17.4230523">
        <ele>40.0321</ele>
        <time>2013-05-05T12:21:23Z</time>
      </trkpt>
      <trkpt lat="60.0144638" lon="17.4231124">
        <ele>40.0321</ele>
        <time>2013-05-05T12:21:24Z</time>
      </trkpt>
      <trkpt lat="60.0145271" lon="17.4231755">
        <ele>39.5513</ele>
        <time>2013-05-05T12:21:25Z</time>
      </trkpt>
      <trkpt lat="60.014592" lon="17.423236">
        <ele>39.5513</ele>
        <time>2013-05-05T12:21:26Z</time>
      </trkpt>
      <trkpt lat="60.0146607" lon="17.4232971">
        <ele>39.5513</ele>
        <time>2013-05-05T12:21:27Z</time>
      </trkpt>
      <trkpt lat="60.0147366" lon="17.4233613">
        <ele>40.0321</ele>
        <time>2013-05-05T12:21:28Z</time>
      </trkpt>
      <trkpt lat="60.0148161" lon="17.42343">
        <ele>40.9934</ele>
        <time>2013-05-05T12:21:29Z</time>
      </trkpt>
      <trkpt lat="60.0149196" lon="17.4235214">
        <ele>41.474</ele>
        <time>2013-05-05T12:21:30Z</time>
      </trkpt>
      <trkpt lat="60.0150028" lon="17.4235879">
        <ele>41.474</ele>
        <time>2013-05-05T12:21:31Z</time>
      </trkpt>
      <trkpt lat="60.0150854" lon="17.4236622">
        <ele>41.9547</ele>
        <time>2013-05-05T12:21:32Z</time>
      </trkpt>
      <trkpt lat="60.0151658" lon="17.4237353">
        <ele>41.9547</ele>
        <time>2013-05-05T12:21:33Z</time>
      </trkpt>
      <trkpt lat="60.0152455" lon="17.4238076">
        <ele>41.9547</ele>
        <time>2013-05-05T12:21:34Z</time>
      </trkpt>
      <trkpt lat="60.0153241" lon="17.4238801">
        <ele>42.4354</ele>
        <time>2013-05-05T12:21:35Z</time>
      </trkpt>
      <trkpt lat="60.0154001" lon="17.4239524">
        <ele>42.4354</ele>
        <time>2013-05-05T12:21:36Z</time>
      </trkpt>
      <trkpt lat="60.0154768" lon="17.4240259">
        <ele>42.4354</ele>
        <time>2013-05-05T12:21:37Z</time>
      </trkpt>
      <trkpt lat="60.0155533" lon="17.4241">
        <ele>42.4354</ele>
        <time>2013-05-05T12:21:38Z</time>
      </trkpt>
      <trkpt lat="60.0156309" lon="17.4241743">
        <ele>42.4354</ele>
        <time>2013-05-05T12:21:39Z</time>
      </trkpt>
      <trkpt lat="60.0157095" lon="17.4242474">
        <ele>42.4354</ele>
        <time>2013-05-05T12:21:40Z</time>
      </trkpt>
      <trkpt lat="60.015789" lon="17.424322">
        <ele>42.4354</ele>
        <time>2013-05-05T12:21:41Z</time>
      </trkpt>
      <trkpt lat="60.0158672" lon="17.4243976">
        <ele>42.4354</ele>
        <time>2013-05-05T12:21:42Z</time>
      </trkpt>
      <trkpt lat="60.0159459" lon="17.4244753">
        <ele>42.4354</ele>
        <time>2013-05-05T12:21:43Z</time>
      </trkpt>
      <trkpt lat="60.016023" lon="17.4245533">
        <ele>42.4354</ele>
        <time>2013-05-05T12:21:44Z</time>
      </trkpt>
      <trkpt lat="60.0161034" lon="17.4246283">
        <ele>41.9547</ele>
        <time>2013-05-05T12:21:45Z</time>
      </trkpt>
      <trkpt lat="60.0161844" lon="17.4247072">
        <ele>41.9547</ele>
        <time>2013-05-05T12:21:46Z</time>
      </trkpt>
      <trkpt lat="60.0162665" lon="17.4247839">
        <ele>41.9547</ele>
        <time>2013-05-05T12:21:47Z</time>
      </trkpt>
      <trkpt lat="60.0163478" lon="17.4248616">
        <ele>41.9547</ele>
        <time>2013-05-05T12:21:48Z</time>
      </trkpt>
      <trkpt lat="60.0164289" lon="17.4249413">
        <ele>41.9547</ele>
        <time>2013-05-05T12:21:49Z</time>
      </trkpt>
      <trkpt lat="60.0165097" lon="17.4250221">
        <ele>41.9547</ele>
        <time>2013-05-05T12:21:50Z</time>
      </trkpt>
      <trkpt lat="60.0165901" lon="17.4250984">
        <ele>41.9547</ele>
        <time>2013-05-05T12:21:51Z</time>
      </trkpt>
      <trkpt lat="60.0166685" lon="17.4251723">
        <ele>41.9547</ele>
        <time>2013-05-05T12:21:52Z</time>
      </trkpt>
      <trkpt lat="60.0167447" lon="17.4252458">
        <ele>42.4354</ele>
        <time>2013-05-05T12:21:53Z</time>
      </trkpt>
      <trkpt lat="60.01682" lon="17.425318">
        <ele>42.4354</ele>
        <time>2013-05-05T12:21:54Z</time>
      </trkpt>
      <trkpt lat="60.0168947" lon="17.425389">
        <ele>42.4354</ele>
        <time>2013-05-05T12:21:55Z</time>
      </trkpt>
      <trkpt lat="60.0169692" lon="17.425462">
        <ele>42.4354</ele>
        <time>2013-05-05T12:21:56Z</time>
      </trkpt>
      <trkpt lat="60.0170436" lon="17.4255361">
        <ele>42.4354</ele>
        <time>2013-05-05T12:21:57Z</time>
      </trkpt>
      <trkpt lat="60.0171181" lon="17.4256077">
        <ele>42.4354</ele>
        <time>2013-05-05T12:21:58Z</time>
      </trkpt>
      <trkpt lat="60.0171906" lon="17.4256773">
        <ele>42.4354</ele>
        <time>2013-05-05T12:21:59Z</time>
      </trkpt>
      <trkpt lat="60.0172604" lon="17.4257433">
        <ele>42.4354</ele>
        <time>2013-05-05T12:22:00Z</time>
      </trkpt>
      <trkpt lat="60.0173278" lon="17.4258091">
        <ele>42.4354</ele>
        <time>2013-05-05T12:22:01Z</time>
      </trkpt>
      <trkpt lat="60.017395" lon="17.4258768">
        <ele>42.4354</ele>
        <time>2013-05-05T12:22:02Z</time>
      </trkpt>
      <trkpt lat="60.0174631" lon="17.4259427">
        <ele>42.4354</ele>
        <time>2013-05-05T12:22:03Z</time>
      </trkpt>
      <trkpt lat="60.0175312" lon="17.4260081">
        <ele>42.4354</ele>
        <time>2013-05-05T12:22:04Z</time>
      </trkpt>
      <trkpt lat="60.0176006" lon="17.4260694">
        <ele>42.4354</ele>
        <time>2013-05-05T12:22:05Z</time>
      </trkpt>
      <trkpt lat="60.0176701" lon="17.4261327">
        <ele>42.916</ele>
        <time>2013-05-05T12:22:06Z</time>
      </trkpt>
      <trkpt lat="60.0177402" lon="17.4261949">
        <ele>42.4354</ele>
        <time>2013-05-05T12:22:07Z</time>
      </trkpt>
      <trkpt lat="60.0178101" lon="17.4262618">
        <ele>42.4354</ele>
        <time>2013-05-05T12:22:08Z</time>
      </trkpt>
      <trkpt lat="60.0178783" lon="17.4263274">
        <ele>41.9547</ele>
        <time>2013-05-05T12:22:09Z</time>
      </trkpt>
      <trkpt lat="60.01795" lon="17.4263991">
        <ele>41.9547</ele>
        <time>2013-05-05T12:22:10Z</time>
      </trkpt>
      <trkpt lat="60.0180234" lon="17.4264668">
        <ele>41.9547</ele>
        <time>2013-05-05T12:22:11Z</time>
      </trkpt>
      <trkpt lat="60.0180961" lon="17.4265306">
        <ele>41.9547</ele>
        <time>2013-05-05T12:22:12Z</time>
      </trkpt>
      <trkpt lat="60.0181692" lon="17.4265965">
        <ele>42.4354</ele>
        <time>2013-05-05T12:22:13Z</time>
      </trkpt>
      <trkpt lat="60.0182373" lon="17.4266571">
        <ele>41.9547</ele>
        <time>2013-05-05T12:22:14Z</time>
      </trkpt>
      <trkpt lat="60.0183074" lon="17.4267227">
        <ele>42.4354</ele>
        <time>2013-05-05T12:22:15Z</time>
      </trkpt>
      <trkpt lat="60.0183794" lon="17.4267931">
        <ele>42.916</ele>
        <time>2013-05-05T12:22:16Z</time>
      </trkpt>
      <trkpt lat="60.0184497" lon="17.4268649">
        <ele>42.916</ele>
        <time>2013-05-05T12:22:17Z</time>
      </trkpt>
      <trkpt lat="60.0185161" lon="17.4269301">
        <ele>42.4354</ele>
        <time>2013-05-05T12:22:18Z</time>
      </trkpt>
      <trkpt lat="60.0185825" lon="17.4269943">
        <ele>41.9547</ele>
        <time>2013-05-05T12:22:19Z</time>
      </trkpt>
      <trkpt lat="60.0186504" lon="17.4270632">
        <ele>41.9547</ele>
        <time>2013-05-05T12:22:20Z</time>
      </trkpt>
      <trkpt lat="60.0187222" lon="17.4271289">
        <ele>41.9547</ele>
        <time>2013-05-05T12:22:21Z</time>
      </trkpt>
      <trkpt lat="60.0187926" lon="17.4271906">
        <ele>41.474</ele>
        <time>2013-05-05T12:22:22Z</time>
      </trkpt>
      <trkpt lat="60.0188642" lon="17.4272547">
        <ele>41.474</ele>
        <time>2013-05-05T12:22:23Z</time>
      </trkpt>
      <trkpt lat="60.0189354" lon="17.427321">
        <ele>40.9934</ele>
        <time>2013-05-05T12:22:24Z</time>
      </trkpt>
      <trkpt lat="60.0190071" lon="17.42739">
        <ele>40.5128</ele>
        <time>2013-05-05T12:22:25Z</time>
      </trkpt>
      <trkpt lat="60.0190788" lon="17.427458">
        <ele>40.5128</ele>
        <time>2013-05-05T12:22:26Z</time>
      </trkpt>
      <trkpt lat="60.0191474" lon="17.4275284">
        <ele>40.0321</ele>
        <time>2013-05-05T12:22:27Z</time>
      </trkpt>
      <trkpt lat="60.0192135" lon="17.4275971">
        <ele>39.5513</ele>
        <time>2013-05-05T12:22:28Z</time>
      </trkpt>
      <trkpt lat="60.0192844" lon="17.4276663">
        <ele>39.5513</ele>
        <time>2013-05-05T12:22:29Z</time>
      </trkpt>
      <trkpt lat="60.0193704" lon="17.427724">
        <ele>41.474</ele>
        <time>2013-05-05T12:22:30Z</time>
      </trkpt>
      <trkpt lat="60.019442" lon="17.4277965">
        <ele>41.474</ele>
        <time>2013-05-05T12:22:31Z</time>
      </trkpt>
      <trkpt lat="60.0195139" lon="17.4278739">
        <ele>41.9547</ele>
        <time>2013-05-05T12:22:32Z</time>
      </trkpt>
      <trkpt lat="60.0195877" lon="17.4279467">
        <ele>42.916</ele>
        <time>2013-05-05T12:22:33Z</time>
      </trkpt>
      <trkpt lat="60.0196594" lon="17.4280201">
        <ele>42.916</ele>
        <time>2013-05-05T12:22:34Z</time>
      </trkpt>
      <trkpt lat="60.0197283" lon="17.4280867">
        <ele>42.916</ele>
        <time>2013-05-05T12:22:35Z</time>
      </trkpt>
      <trkpt lat="60.0198008" lon="17.4281524">
        <ele>42.916</ele>
        <time>2013-05-05T12:22:36Z</time>
      </trkpt>
      <trkpt lat="60.0198713" lon="17.4282238">
        <ele>42.4354</ele>
        <time>2013-05-05T12:22:37Z</time>
      </trkpt>
      <trkpt lat="60.0199433" lon="17.428296">
        <ele>42.4354</ele>
        <time>2013-05-05T12:22:38Z</time>
      </trkpt>
      <trkpt lat="60.0200163" lon="17.4283613">
        <ele>42.4354</ele>
        <time>2013-05-05T12:22:39Z</time>
      </trkpt>
      <trkpt lat="60.0200907" lon="17.4284187">
        <ele>42.4354</ele>
        <time>2013-05-05T12:22:40Z</time>
      </trkpt>
      <trkpt lat="60.0201658" lon="17.4284758">
        <ele>41.9547</ele>
        <time>2013-05-05T12:22:41Z</time>
      </trkpt>
      <trkpt lat="60.0202412" lon="17.4285307">
        <ele>41.474</ele>
        <time>2013-05-05T12:22:42Z</time>
      </trkpt>
      <trkpt lat="60.0203167" lon="17.4285816">
        <ele>41.474</ele>
        <time>2013-05-05T12:22:43Z</time>
      </trkpt>
      <trkpt lat="60.0203966" lon="17.4286295">
        <ele>41.474</ele>
        <time>2013-05-05T12:22:44Z</time>
      </trkpt>
      <trkpt lat="60.0204712" lon="17.4286771">
        <ele>40.5128</ele>
        <time>2013-05-05T12:22:45Z</time>
      </trkpt>
      <trkpt lat="60.0205447" lon="17.4287207">
        <ele>40.0321</ele>
        <time>2013-05-05T12:22:46Z</time>
      </trkpt>
      <trkpt lat="60.0206213" lon="17.4287598">
        <ele>39.0707</ele>
        <time>2013-05-05T12:22:47Z</time>
      </trkpt>
      <trkpt lat="60.0207002" lon="17.4287971">
        <ele>38.5901</ele>
        <time>2013-05-05T12:22:48Z</time>
      </trkpt>
      <trkpt lat="60.0207782" lon="17.4288301">
        <ele>38.5901</ele>
        <time>2013-05-05T12:22:49Z</time>
      </trkpt>
      <trkpt lat="60.0208571" lon="17.4288642">
        <ele>38.1094</ele>
        <time>2013-05-05T12:22:50Z</time>
      </trkpt>
      <trkpt lat="60.0209387" lon="17.4288929">
        <ele>38.1094</ele>
        <time>2013-05-05T12:22:51Z</time>
      </trkpt>
      <trkpt lat="60.0210188" lon="17.4289226">
        <ele>38.1094</ele>
        <time>2013-05-05T12:22:52Z</time>
      </trkpt>
      <trkpt lat="60.0210985" lon="17.4289457">
        <ele>38.5901</ele>
        <time>2013-05-05T12:22:53Z</time>
      </trkpt>
      <trkpt lat="60.0211782" lon="17.4289735">
        <ele>37.6287</ele>
        <time>2013-05-05T12:22:54Z</time>
      </trkpt>
      <trkpt lat="60.0212601" lon="17.4289981">
        <ele>37.1481</ele>
        <time>2013-05-05T12:22:55Z</time>
      </trkpt>
      <trkpt lat="60.021345" lon="17.4290176">
        <ele>37.1481</ele>
        <time>2013-05-05T12:22:56Z</time>
      </trkpt>
      <trkpt lat="60.0214319" lon="17.4290378">
        <ele>37.1481</ele>
        <time>2013-05-05T12:22:57Z</time>
      </trkpt>
      <trkpt lat="60.0215175" lon="17.4290565">
        <ele>36.6675</ele>
        <time>2013-05-05T12:22:58Z</time>
      </trkpt>
      <trkpt lat="60.0216038" lon="17.4290731">
        <ele>36.6675</ele>
        <time>2013-05-05T12:22:59Z</time>
      </trkpt>
      <trkpt lat="60.0216973" lon="17.4290797">
        <ele>38.5901</ele>
        <time>2013-05-05T12:23:00Z</time>
      </trkpt>
      <trkpt lat="60.0217751" lon="17.4290993">
        <ele>38.5901</ele>
        <time>2013-05-05T12:23:01Z</time>
      </trkpt>
      <trkpt lat="60.0218551" lon="17.4291175">
        <ele>39.0707</ele>
        <time>2013-05-05T12:23:02Z</time>
      </trkpt>
      <trkpt lat="60.0219449" lon="17.4291257">
        <ele>40.9934</ele>
        <time>2013-05-05T12:23:03Z</time>
      </trkpt>
      <trkpt lat="60.0220276" lon="17.4291394">
        <ele>41.9547</ele>
        <time>2013-05-05T12:23:04Z</time>
      </trkpt>
      <trkpt lat="60.0221156" lon="17.4291429">
        <ele>42.916</ele>
        <time>2013-05-05T12:23:05Z</time>
      </trkpt>
      <trkpt lat="60.0221959" lon="17.4291621">
        <ele>42.4354</ele>
        <time>2013-05-05T12:23:06Z</time>
      </trkpt>
      <trkpt lat="60.0222784" lon="17.4291772">
        <ele>41.9547</ele>
        <time>2013-05-05T12:23:07Z</time>
      </trkpt>
      <trkpt lat="60.022362" lon="17.4291977">
        <ele>41.9547</ele>
        <time>2013-05-05T12:23:08Z</time>
      </trkpt>
      <trkpt lat="60.0224479" lon="17.4292196">
        <ele>41.9547</ele>
        <time>2013-05-05T12:23:09Z</time>
      </trkpt>
      <trkpt lat="60.022537" lon="17.429241">
        <ele>43.3966</ele>
        <time>2013-05-05T12:23:10Z</time>
      </trkpt>
      <trkpt lat="60.0226151" lon="17.4292611">
        <ele>42.916</ele>
        <time>2013-05-05T12:23:11Z</time>
      </trkpt>
      <trkpt lat="60.0226912" lon="17.4292771">
        <ele>42.4354</ele>
        <time>2013-05-05T12:23:12Z</time>
      </trkpt>
      <trkpt lat="60.0227665" lon="17.4292941">
        <ele>42.4354</ele>
        <time>2013-05-05T12:23:13Z</time>
      </trkpt>
      <trkpt lat="60.0228447" lon="17.4293195">
        <ele>41.9547</ele>
        <time>2013-05-05T12:23:14Z</time>
      </trkpt>
      <trkpt lat="60.0229244" lon="17.4293362">
        <ele>42.4354</ele>
        <time>2013-05-05T12:23:15Z</time>
      </trkpt>
      <trkpt lat="60.0230064" lon="17.4293482">
        <ele>42.916</ele>
        <time>2013-05-05T12:23:16Z</time>
      </trkpt>
      <trkpt lat="60.0230857" lon="17.4293632">
        <ele>43.3966</ele>
        <time>2013-05-05T12:23:17Z</time>
      </trkpt>
      <trkpt lat="60.0231638" lon="17.4293761">
        <ele>43.8773</ele>
        <time>2013-05-05T12:23:18Z</time>
      </trkpt>
      <trkpt lat="60.0232438" lon="17.4293923">
        <ele>44.358</ele>
        <time>2013-05-05T12:23:19Z</time>
      </trkpt>
      <trkpt lat="60.0233242" lon="17.4294138">
        <ele>45.7999</ele>
        <time>2013-05-05T12:23:20Z</time>
      </trkpt>
      <trkpt lat="60.0234004" lon="17.4294352">
        <ele>46.2806</ele>
        <time>2013-05-05T12:23:21Z</time>
      </trkpt>
      <trkpt lat="60.0234735" lon="17.4294573">
        <ele>46.2806</ele>
        <time>2013-05-05T12:23:22Z</time>
      </trkpt>
      <trkpt lat="60.0235486" lon="17.4294796">
        <ele>46.2806</ele>
        <time>2013-05-05T12:23:23Z</time>
      </trkpt>
      <trkpt lat="60.0236259" lon="17.4295046">
        <ele>46.7612</ele>
        <time>2013-05-05T12:23:24Z</time>
      </trkpt>
      <trkpt lat="60.0237042" lon="17.4295292">
        <ele>47.2418</ele>
        <time>2013-05-05T12:23:25Z</time>
      </trkpt>
      <trkpt lat="60.023775" lon="17.4295508">
        <ele>46.7612</ele>
        <time>2013-05-05T12:23:26Z</time>
      </trkpt>
      <trkpt lat="60.0238434" lon="17.4295708">
        <ele>45.3192</ele>
        <time>2013-05-05T12:23:27Z</time>
      </trkpt>
      <trkpt lat="60.0239212" lon="17.4295948">
        <ele>46.2806</ele>
        <time>2013-05-05T12:23:28Z</time>
      </trkpt>
      <trkpt lat="60.0239924" lon="17.4296159">
        <ele>46.2806</ele>
        <time>2013-05-05T12:23:29Z</time>
      </trkpt>
      <trkpt lat="60.024065" lon="17.4296288">
        <ele>46.7612</ele>
        <time>2013-05-05T12:23:30Z</time>
      </trkpt>
      <trkpt lat="60.024132" lon="17.4296478">
        <ele>46.2806</ele>
        <time>2013-05-05T12:23:31Z</time>
      </trkpt>
      <trkpt lat="60.0241973" lon="17.4296604">
        <ele>45.7999</ele>
        <time>2013-05-05T12:23:32Z</time>
      </trkpt>
      <trkpt lat="60.0242624" lon="17.4296733">
        <ele>46.2806</ele>
        <time>2013-05-05T12:23:33Z</time>
      </trkpt>
      <trkpt lat="60.0243293" lon="17.429688">
        <ele>46.2806</ele>
        <time>2013-05-05T12:23:34Z</time>
      </trkpt>
      <trkpt lat="60.0243904" lon="17.4297139">
        <ele>45.3192</ele>
        <time>2013-05-05T12:23:35Z</time>
      </trkpt>
      <trkpt lat="60.0244488" lon="17.4297433">
        <ele>43.8773</ele>
        <time>2013-05-05T12:23:36Z</time>
      </trkpt>
      <trkpt lat="60.0245126" lon="17.4297672">
        <ele>43.3966</ele>
        <time>2013-05-05T12:23:37Z</time>
      </trkpt>
      <trkpt lat="60.0245751" lon="17.4297913">
        <ele>42.916</ele>
        <time>2013-05-05T12:23:38Z</time>
      </trkpt>
      <trkpt lat="60.0246376" lon="17.4298153">
        <ele>41.474</ele>
        <time>2013-05-05T12:23:39Z</time>
      </trkpt>
      <trkpt lat="60.024705" lon="17.4298309">
        <ele>40.9934</ele>
        <time>2013-05-05T12:23:40Z</time>
      </trkpt>
      <trkpt lat="60.0247737" lon="17.4298464">
        <ele>40.9934</ele>
        <time>2013-05-05T12:23:41Z</time>
      </trkpt>
      <trkpt lat="60.0248374" lon="17.4298583">
        <ele>39.5513</ele>
        <time>2013-05-05T12:23:42Z</time>
      </trkpt>
      <trkpt lat="60.0249001" lon="17.4298744">
        <ele>39.0707</ele>
        <time>2013-05-05T12:23:43Z</time>
      </trkpt>
      <trkpt lat="60.0249605" lon="17.4298924">
        <ele>38.1094</ele>
        <time>2013-05-05T12:23:44Z</time>
      </trkpt>
      <trkpt lat="60.0250316" lon="17.4299147">
        <ele>38.1094</ele>
        <time>2013-05-05T12:23:45Z</time>
      </trkpt>
      <trkpt lat="60.0251051" lon="17.4299334">
        <ele>38.1094</ele>
        <time>2013-05-05T12:23:46Z</time>
      </trkpt>
      <trkpt lat="60.0251778" lon="17.4299561">
        <ele>38.1094</ele>
        <time>2013-05-05T12:23:47Z</time>
      </trkpt>
      <trkpt lat="60.0252478" lon="17.4299734">
        <ele>37.6287</ele>
        <time>2013-05-05T12:23:48Z</time>
      </trkpt>
      <trkpt lat="60.0253213" lon="17.429994">
        <ele>37.6287</ele>
        <time>2013-05-05T12:23:49Z</time>
      </trkpt>
      <trkpt lat="60.0253952" lon="17.4300027">
        <ele>38.5901</ele>
        <time>2013-05-05T12:23:50Z</time>
      </trkpt>
      <trkpt lat="60.0254689" lon="17.43002">
        <ele>38.5901</ele>
        <time>2013-05-05T12:23:51Z</time>
      </trkpt>
      <trkpt lat="60.0255443" lon="17.4300353">
        <ele>38.5901</ele>
        <time>2013-05-05T12:23:52Z</time>
      </trkpt>
      <trkpt lat="60.0256233" lon="17.4300608">
        <ele>39.0707</ele>
        <time>2013-05-05T12:23:53Z</time>
      </trkpt>
      <trkpt lat="60.0257024" lon="17.4300762">
        <ele>39.5513</ele>
        <time>2013-05-05T12:23:54Z</time>
      </trkpt>
      <trkpt lat="60.025779" lon="17.4300956">
        <ele>39.5513</ele>
        <time>2013-05-05T12:23:55Z</time>
      </trkpt>
      <trkpt lat="60.0258547" lon="17.4301153">
        <ele>39.0707</ele>
        <time>2013-05-05T12:23:56Z</time>
      </trkpt>
      <trkpt lat="60.02593" lon="17.4301334">
        <ele>39.5513</ele>
        <time>2013-05-05T12:23:57Z</time>
      </trkpt>
      <trkpt lat="60.026006" lon="17.4301524">
        <ele>39.5513</ele>
        <time>2013-05-05T12:23:58Z</time>
      </trkpt>
      <trkpt lat="60.0260825" lon="17.4301729">
        <ele>40.0321</ele>
        <time>2013-05-05T12:23:59Z</time>
      </trkpt>
      <trkpt lat="60.0261578" lon="17.4301931">
        <ele>40.0321</ele>
        <time>2013-05-05T12:24:00Z</time>
      </trkpt>
      <trkpt lat="60.0262325" lon="17.4302105">
        <ele>40.0321</ele>
        <time>2013-05-05T12:24:01Z</time>
      </trkpt>
      <trkpt lat="60.0263106" lon="17.430226">
        <ele>40.0321</ele>
        <time>2013-05-05T12:24:02Z</time>
      </trkpt>
      <trkpt lat="60.0263874" lon="17.4302451">
        <ele>40.0321</ele>
        <time>2013-05-05T12:24:03Z</time>
      </trkpt>
      <trkpt lat="60.0264651" lon="17.4302659">
        <ele>40.5128</ele>
        <time>2013-05-05T12:24:04Z</time>
      </trkpt>
      <trkpt lat="60.0265428" lon="17.4302867">
        <ele>40.5128</ele>
        <time>2013-05-05T12:24:05Z</time>
      </trkpt>
      <trkpt lat="60.0266209" lon="17.4303079">
        <ele>40.5128</ele>
        <time>2013-05-05T12:24:06Z</time>
      </trkpt>
      <trkpt lat="60.0266991" lon="17.4303303">
        <ele>40.5128</ele>
        <time>2013-05-05T12:24:07Z</time>
      </trkpt>
      <trkpt lat="60.0267772" lon="17.4303519">
        <ele>40.9934</ele>
        <time>2013-05-05T12:24:08Z</time>
      </trkpt>
      <trkpt lat="60.0268547" lon="17.4303722">
        <ele>41.474</ele>
        <time>2013-05-05T12:24:09Z</time>
      </trkpt>
      <trkpt lat="60.0269327" lon="17.4303923">
        <ele>41.9547</ele>
        <time>2013-05-05T12:24:10Z</time>
      </trkpt>
      <trkpt lat="60.0270088" lon="17.4304111">
        <ele>42.4354</ele>
        <time>2013-05-05T12:24:11Z</time>
      </trkpt>
      <trkpt lat="60.0270808" lon="17.4304286">
        <ele>41.9547</ele>
        <time>2013-05-05T12:24:12Z</time>
      </trkpt>
      <trkpt lat="60.0271544" lon="17.4304484">
        <ele>41.9547</ele>
        <time>2013-05-05T12:24:13Z</time>
      </trkpt>
      <trkpt lat="60.0272289" lon="17.4304679">
        <ele>41.9547</ele>
        <time>2013-05-05T12:24:14Z</time>
      </trkpt>
      <trkpt lat="60.0273027" lon="17.430487">
        <ele>41.9547</ele>
        <time>2013-05-05T12:24:15Z</time>
      </trkpt>
      <trkpt lat="60.0273782" lon="17.4305059">
        <ele>42.4354</ele>
        <time>2013-05-05T12:24:16Z</time>
      </trkpt>
      <trkpt lat="60.0274524" lon="17.4305234">
        <ele>42.4354</ele>
        <time>2013-05-05T12:24:17Z</time>
      </trkpt>
      <trkpt lat="60.0275244" lon="17.4305421">
        <ele>42.916</ele>
        <time>2013-05-05T12:24:18Z</time>
      </trkpt>
      <trkpt lat="60.0275957" lon="17.430559">
        <ele>42.916</ele>
        <time>2013-05-05T12:24:19Z</time>
      </trkpt>
      <trkpt lat="60.0276672" lon="17.4305744">
        <ele>43.3966</ele>
        <time>2013-05-05T12:24:20Z</time>
      </trkpt>
      <trkpt lat="60.0277383" lon="17.4305915">
        <ele>43.3966</ele>
        <time>2013-05-05T12:24:21Z</time>
      </trkpt>
      <trkpt lat="60.0278088" lon="17.4306079">
        <ele>43.8773</ele>
        <time>2013-05-05T12:24:22Z</time>
      </trkpt>
      <trkpt lat="60.0278787" lon="17.4306255">
        <ele>43.8773</ele>
        <time>2013-05-05T12:24:23Z</time>
      </trkpt>
      <trkpt lat="60.0279502" lon="17.430643">
        <ele>44.358</ele>
        <time>2013-05-05T12:24:24Z</time>
      </trkpt>
      <trkpt lat="60.0280205" lon="17.4306587">
        <ele>44.358</ele>
        <time>2013-05-05T12:24:25Z</time>
      </trkpt>
      <trkpt lat="60.0280906" lon="17.4306757">
        <ele>44.358</ele>
        <time>2013-05-05T12:24:26Z</time>
      </trkpt>
      <trkpt lat="60.028161" lon="17.4306923">
        <ele>44.358</ele>
        <time>2013-05-05T12:24:27Z</time>
      </trkpt>
      <trkpt lat="60.02823" lon="17.4307098">
        <ele>44.8386</ele>
        <time>2013-05-05T12:24:28Z</time>
      </trkpt>
      <trkpt lat="60.0282972" lon="17.4307271">
        <ele>44.8386</ele>
        <time>2013-05-05T12:24:29Z</time>
      </trkpt>
      <trkpt lat="60.0283647" lon="17.4307441">
        <ele>44.8386</ele>
        <time>2013-05-05T12:24:30Z</time>
      </trkpt>
      <trkpt lat="60.0284329" lon="17.4307609">
        <ele>44.8386</ele>
        <time>2013-05-05T12:24:31Z</time>
      </trkpt>
      <trkpt lat="60.0285027" lon="17.4307774">
        <ele>44.8386</ele>
        <time>2013-05-05T12:24:32Z</time>
      </trkpt>
      <trkpt lat="60.0285723" lon="17.4308048">
        <ele>44.8386</ele>
        <time>2013-05-05T12:24:33Z</time>
      </trkpt>
      <trkpt lat="60.0286394" lon="17.4308465">
        <ele>44.8386</ele>
        <time>2013-05-05T12:24:34Z</time>
      </trkpt>
      <trkpt lat="60.0287047" lon="17.4309032">
        <ele>44.8386</ele>
        <time>2013-05-05T12:24:35Z</time>
      </trkpt>
      <trkpt lat="60.0287643" lon="17.4309767">
        <ele>44.8386</ele>
        <time>2013-05-05T12:24:36Z</time>
      </trkpt>
      <trkpt lat="60.0288164" lon="17.4310693">
        <ele>44.8386</ele>
        <time>2013-05-05T12:24:37Z</time>
      </trkpt>
      <trkpt lat="60.0288627" lon="17.4311771">
        <ele>45.3192</ele>
        <time>2013-05-05T12:24:38Z</time>
      </trkpt>
      <trkpt lat="60.0288974" lon="17.4313">
        <ele>45.3192</ele>
        <time>2013-05-05T12:24:39Z</time>
      </trkpt>
      <trkpt lat="60.0289261" lon="17.4314295">
        <ele>44.8386</ele>
        <time>2013-05-05T12:24:40Z</time>
      </trkpt>
      <trkpt lat="60.0289519" lon="17.4315616">
        <ele>45.3192</ele>
        <time>2013-05-05T12:24:41Z</time>
      </trkpt>
      <trkpt lat="60.0289743" lon="17.4316979">
        <ele>45.3192</ele>
        <time>2013-05-05T12:24:42Z</time>
      </trkpt>
      <trkpt lat="60.028994" lon="17.4318371">
        <ele>45.7999</ele>
        <time>2013-05-05T12:24:43Z</time>
      </trkpt>
      <trkpt lat="60.0290121" lon="17.4319776">
        <ele>45.7999</ele>
        <time>2013-05-05T12:24:44Z</time>
      </trkpt>
      <trkpt lat="60.0290306" lon="17.4321194">
        <ele>45.7999</ele>
        <time>2013-05-05T12:24:45Z</time>
      </trkpt>
      <trkpt lat="60.0290499" lon="17.432263">
        <ele>45.7999</ele>
        <time>2013-05-05T12:24:46Z</time>
      </trkpt>
      <trkpt lat="60.0290697" lon="17.4324096">
        <ele>46.2806</ele>
        <time>2013-05-05T12:24:47Z</time>
      </trkpt>
      <trkpt lat="60.0290899" lon="17.4325572">
        <ele>46.2806</ele>
        <time>2013-05-05T12:24:48Z</time>
      </trkpt>
      <trkpt lat="60.0291098" lon="17.4327051">
        <ele>46.2806</ele>
        <time>2013-05-05T12:24:49Z</time>
      </trkpt>
      <trkpt lat="60.0291302" lon="17.4328531">
        <ele>46.2806</ele>
        <time>2013-05-05T12:24:50Z</time>
      </trkpt>
      <trkpt lat="60.0291518" lon="17.4330016">
        <ele>46.7612</ele>
        <time>2013-05-05T12:24:51Z</time>
      </trkpt>
      <trkpt lat="60.0291733" lon="17.4331488">
        <ele>46.7612</ele>
        <time>2013-05-05T12:24:52Z</time>
      </trkpt>
      <trkpt lat="60.0291959" lon="17.4332958">
        <ele>46.7612</ele>
        <time>2013-05-05T12:24:53Z</time>
      </trkpt>
      <trkpt lat="60.0292184" lon="17.4334441">
        <ele>47.2418</ele>
        <time>2013-05-05T12:24:54Z</time>
      </trkpt>
      <trkpt lat="60.0292394" lon="17.433594">
        <ele>47.2418</ele>
        <time>2013-05-05T12:24:55Z</time>
      </trkpt>
      <trkpt lat="60.0292605" lon="17.4337419">
        <ele>47.2418</ele>
        <time>2013-05-05T12:24:56Z</time>
      </trkpt>
      <trkpt lat="60.0292809" lon="17.4338883">
        <ele>47.2418</ele>
        <time>2013-05-05T12:24:57Z</time>
      </trkpt>
      <trkpt lat="60.0293042" lon="17.4340329">
        <ele>47.7225</ele>
        <time>2013-05-05T12:24:58Z</time>
      </trkpt>
      <trkpt lat="60.0293248" lon="17.4341785">
        <ele>48.2034</ele>
        <time>2013-05-05T12:24:59Z</time>
      </trkpt>
      <trkpt lat="60.0293462" lon="17.4343229">
        <ele>48.2034</ele>
        <time>2013-05-05T12:25:00Z</time>
      </trkpt>
      <trkpt lat="60.0293691" lon="17.4344661">
        <ele>48.684</ele>
        <time>2013-05-05T12:25:01Z</time>
      </trkpt>
      <trkpt lat="60.0293914" lon="17.4346101">
        <ele>48.684</ele>
        <time>2013-05-05T12:25:02Z</time>
      </trkpt>
      <trkpt lat="60.0294129" lon="17.434754">
        <ele>48.684</ele>
        <time>2013-05-05T12:25:03Z</time>
      </trkpt>
      <trkpt lat="60.0294344" lon="17.4348966">
        <ele>49.1646</ele>
        <time>2013-05-05T12:25:04Z</time>
      </trkpt>
      <trkpt lat="60.0294556" lon="17.4350384">
        <ele>49.1646</ele>
        <time>2013-05-05T12:25:05Z</time>
      </trkpt>
      <trkpt lat="60.0294776" lon="17.4351809">
        <ele>49.1646</ele>
        <time>2013-05-05T12:25:06Z</time>
      </trkpt>
      <trkpt lat="60.029499" lon="17.4353242">
        <ele>49.1646</ele>
        <time>2013-05-05T12:25:07Z</time>
      </trkpt>
      <trkpt lat="60.0295195" lon="17.4354656">
        <ele>49.1646</ele>
        <time>2013-05-05T12:25:08Z</time>
      </trkpt>
      <trkpt lat="60.0295395" lon="17.4356081">
        <ele>49.1646</ele>
        <time>2013-05-05T12:25:09Z</time>
      </trkpt>
      <trkpt lat="60.0295606" lon="17.4357528">
        <ele>49.1646</ele>
        <time>2013-05-05T12:25:10Z</time>
      </trkpt>
      <trkpt lat="60.0295819" lon="17.4358977">
        <ele>49.1646</ele>
        <time>2013-05-05T12:25:11Z</time>
      </trkpt>
      <trkpt lat="60.0296026" lon="17.436045">
        <ele>49.1646</ele>
        <time>2013-05-05T12:25:12Z</time>
      </trkpt>
      <trkpt lat="60.0296237" lon="17.4361939">
        <ele>49.1646</ele>
        <time>2013-05-05T12:25:13Z</time>
      </trkpt>
      <trkpt lat="60.0296452" lon="17.4363427">
        <ele>49.1646</ele>
        <time>2013-05-05T12:25:14Z</time>
      </trkpt>
      <trkpt lat="60.0296674" lon="17.4364904">
        <ele>49.1646</ele>
        <time>2013-05-05T12:25:15Z</time>
      </trkpt>
      <trkpt lat="60.0296892" lon="17.436636">
        <ele>49.1646</ele>
        <time>2013-05-05T12:25:16Z</time>
      </trkpt>
      <trkpt lat="60.0297107" lon="17.4367809">
        <ele>49.6453</ele>
        <time>2013-05-05T12:25:17Z</time>
      </trkpt>
      <trkpt lat="60.0297319" lon="17.4369257">
        <ele>49.6453</ele>
        <time>2013-05-05T12:25:18Z</time>
      </trkpt>
      <trkpt lat="60.0297532" lon="17.4370721">
        <ele>49.6453</ele>
        <time>2013-05-05T12:25:19Z</time>
      </trkpt>
      <trkpt lat="60.0297729" lon="17.4372194">
        <ele>49.6453</ele>
        <time>2013-05-05T12:25:20Z</time>
      </trkpt>
      <trkpt lat="60.0297922" lon="17.437367">
        <ele>49.1646</ele>
        <time>2013-05-05T12:25:21Z</time>
      </trkpt>
      <trkpt lat="60.0298118" lon="17.4375152">
        <ele>49.1646</ele>
        <time>2013-05-05T12:25:22Z</time>
      </trkpt>
      <trkpt lat="60.0298331" lon="17.4376631">
        <ele>49.1646</ele>
        <time>2013-05-05T12:25:23Z</time>
      </trkpt>
      <trkpt lat="60.0298559" lon="17.4378112">
        <ele>49.1646</ele>
        <time>2013-05-05T12:25:24Z</time>
      </trkpt>
      <trkpt lat="60.0298787" lon="17.43796">
        <ele>49.1646</ele>
        <time>2013-05-05T12:25:25Z</time>
      </trkpt>
      <trkpt lat="60.0299014" lon="17.4381113">
        <ele>49.1646</ele>
        <time>2013-05-05T12:25:26Z</time>
      </trkpt>
      <trkpt lat="60.0299233" lon="17.4382642">
        <ele>48.684</ele>
        <time>2013-05-05T12:25:27Z</time>
      </trkpt>
      <trkpt lat="60.0299451" lon="17.4384183">
        <ele>48.684</ele>
        <time>2013-05-05T12:25:28Z</time>
      </trkpt>
      <trkpt lat="60.0299666" lon="17.4385739">
        <ele>48.684</ele>
        <time>2013-05-05T12:25:29Z</time>
      </trkpt>
      <trkpt lat="60.0299894" lon="17.4387314">
        <ele>48.2034</ele>
        <time>2013-05-05T12:25:30Z</time>
      </trkpt>
      <trkpt lat="60.030013" lon="17.43889">
        <ele>48.684</ele>
        <time>2013-05-05T12:25:31Z</time>
      </trkpt>
      <trkpt lat="60.0300336" lon="17.4390528">
        <ele>48.2034</ele>
        <time>2013-05-05T12:25:32Z</time>
      </trkpt>
      <trkpt lat="60.030057" lon="17.439215">
        <ele>48.2034</ele>
        <time>2013-05-05T12:25:33Z</time>
      </trkpt>
      <trkpt lat="60.0300803" lon="17.4393776">
        <ele>48.2034</ele>
        <time>2013-05-05T12:25:34Z</time>
      </trkpt>
      <trkpt lat="60.030103" lon="17.4395398">
        <ele>48.2034</ele>
        <time>2013-05-05T12:25:35Z</time>
      </trkpt>
      <trkpt lat="60.0301253" lon="17.4397">
        <ele>47.7225</ele>
        <time>2013-05-05T12:25:36Z</time>
      </trkpt>
      <trkpt lat="60.0301476" lon="17.4398596">
        <ele>47.7225</ele>
        <time>2013-05-05T12:25:37Z</time>
      </trkpt>
      <trkpt lat="60.0301698" lon="17.4400194">
        <ele>47.7225</ele>
        <time>2013-05-05T12:25:38Z</time>
      </trkpt>
      <trkpt lat="60.0301925" lon="17.4401788">
        <ele>47.7225</ele>
        <time>2013-05-05T12:25:39Z</time>
      </trkpt>
      <trkpt lat="60.030216" lon="17.4403365">
        <ele>47.7225</ele>
        <time>2013-05-05T12:25:40Z</time>
      </trkpt>
      <trkpt lat="60.0302381" lon="17.4404916">
        <ele>47.7225</ele>
        <time>2013-05-05T12:25:41Z</time>
      </trkpt>
      <trkpt lat="60.0302601" lon="17.4406444">
        <ele>47.7225</ele>
        <time>2013-05-05T12:25:42Z</time>
      </trkpt>
      <trkpt lat="60.0302828" lon="17.4407941">
        <ele>47.7225</ele>
        <time>2013-05-05T12:25:43Z</time>
      </trkpt>
      <trkpt lat="60.0303045" lon="17.4409422">
        <ele>47.2418</ele>
        <time>2013-05-05T12:25:44Z</time>
      </trkpt>
      <trkpt lat="60.0303258" lon="17.4410884">
        <ele>47.2418</ele>
        <time>2013-05-05T12:25:45Z</time>
      </trkpt>
      <trkpt lat="60.0303478" lon="17.4412334">
        <ele>47.2418</ele>
        <time>2013-05-05T12:25:46Z</time>
      </trkpt>
      <trkpt lat="60.0303682" lon="17.4413769">
        <ele>47.2418</ele>
        <time>2013-05-05T12:25:47Z</time>
      </trkpt>
      <trkpt lat="60.0303879" lon="17.4415196">
        <ele>47.2418</ele>
        <time>2013-05-05T12:25:48Z</time>
      </trkpt>
      <trkpt lat="60.0304086" lon="17.4416621">
        <ele>46.7612</ele>
        <time>2013-05-05T12:25:49Z</time>
      </trkpt>
      <trkpt lat="60.0304292" lon="17.441804">
        <ele>46.7612</ele>
        <time>2013-05-05T12:25:50Z</time>
      </trkpt>
      <trkpt lat="60.0304502" lon="17.4419455">
        <ele>46.7612</ele>
        <time>2013-05-05T12:25:51Z</time>
      </trkpt>
      <trkpt lat="60.0304719" lon="17.4420874">
        <ele>46.7612</ele>
        <time>2013-05-05T12:25:52Z</time>
      </trkpt>
      <trkpt lat="60.0304936" lon="17.4422306">
        <ele>46.7612</ele>
        <time>2013-05-05T12:25:53Z</time>
      </trkpt>
      <trkpt lat="60.0305154" lon="17.4423765">
        <ele>46.7612</ele>
        <time>2013-05-05T12:25:54Z</time>
      </trkpt>
      <trkpt lat="60.0305367" lon="17.4425263">
        <ele>46.7612</ele>
        <time>2013-05-05T12:25:55Z</time>
      </trkpt>
      <trkpt lat="60.0305589" lon="17.4426755">
        <ele>46.7612</ele>
        <time>2013-05-05T12:25:56Z</time>
      </trkpt>
      <trkpt lat="60.0305822" lon="17.4428257">
        <ele>46.2806</ele>
        <time>2013-05-05T12:25:57Z</time>
      </trkpt>
      <trkpt lat="60.0306051" lon="17.4429766">
        <ele>46.2806</ele>
        <time>2013-05-05T12:25:58Z</time>
      </trkpt>
      <trkpt lat="60.0306266" lon="17.443127">
        <ele>46.2806</ele>
        <time>2013-05-05T12:25:59Z</time>
      </trkpt>
      <trkpt lat="60.0306473" lon="17.4432743">
        <ele>46.2806</ele>
        <time>2013-05-05T12:26:00Z</time>
      </trkpt>
      <trkpt lat="60.0306682" lon="17.4434199">
        <ele>46.2806</ele>
        <time>2013-05-05T12:26:01Z</time>
      </trkpt>
      <trkpt lat="60.0306892" lon="17.4435655">
        <ele>45.7999</ele>
        <time>2013-05-05T12:26:02Z</time>
      </trkpt>
      <trkpt lat="60.0307092" lon="17.4437097">
        <ele>45.7999</ele>
        <time>2013-05-05T12:26:03Z</time>
      </trkpt>
      <trkpt lat="60.0307304" lon="17.4438497">
        <ele>45.7999</ele>
        <time>2013-05-05T12:26:04Z</time>
      </trkpt>
      <trkpt lat="60.0307526" lon="17.4439855">
        <ele>45.7999</ele>
        <time>2013-05-05T12:26:05Z</time>
      </trkpt>
      <trkpt lat="60.0307739" lon="17.4441202">
        <ele>45.7999</ele>
        <time>2013-05-05T12:26:06Z</time>
      </trkpt>
      <trkpt lat="60.0307915" lon="17.4442549">
        <ele>45.3192</ele>
        <time>2013-05-05T12:26:07Z</time>
      </trkpt>
      <trkpt lat="60.0308091" lon="17.44439">
        <ele>45.3192</ele>
        <time>2013-05-05T12:26:08Z</time>
      </trkpt>
      <trkpt lat="60.0308282" lon="17.4445257">
        <ele>44.8386</ele>
        <time>2013-05-05T12:26:09Z</time>
      </trkpt>
      <trkpt lat="60.0308494" lon="17.4446625">
        <ele>44.8386</ele>
        <time>2013-05-05T12:26:10Z</time>
      </trkpt>
      <trkpt lat="60.03087" lon="17.4448008">
        <ele>44.8386</ele>
        <time>2013-05-05T12:26:11Z</time>
      </trkpt>
      <trkpt lat="60.0308892" lon="17.4449383">
        <ele>44.358</ele>
        <time>2013-05-05T12:26:12Z</time>
      </trkpt>
      <trkpt lat="60.0309089" lon="17.4450744">
        <ele>44.358</ele>
        <time>2013-05-05T12:26:13Z</time>
      </trkpt>
      <trkpt lat="60.0309296" lon="17.4452101">
        <ele>44.358</ele>
        <time>2013-05-05T12:26:14Z</time>
      </trkpt>
      <trkpt lat="60.0309508" lon="17.4453386">
        <ele>43.8773</ele>
        <time>2013-05-05T12:26:15Z</time>
      </trkpt>
      <trkpt lat="60.0309702" lon="17.4454651">
        <ele>43.8773</ele>
        <time>2013-05-05T12:26:16Z</time>
      </trkpt>
      <trkpt lat="60.0309914" lon="17.4455913">
        <ele>44.358</ele>
        <time>2013-05-05T12:26:17Z</time>
      </trkpt>
      <trkpt lat="60.0310116" lon="17.4457161">
        <ele>44.358</ele>
        <time>2013-05-05T12:26:18Z</time>
      </trkpt>
      <trkpt lat="60.0310311" lon="17.4458373">
        <ele>44.358</ele>
        <time>2013-05-05T12:26:19Z</time>
      </trkpt>
      <trkpt lat="60.0310473" lon="17.4459492">
        <ele>44.358</ele>
        <time>2013-05-05T12:26:20Z</time>
      </trkpt>
      <trkpt lat="60.0310562" lon="17.4460452">
        <ele>43.8773</ele>
        <time>2013-05-05T12:26:21Z</time>
      </trkpt>
      <trkpt lat="60.0310642" lon="17.4461254">
        <ele>43.3966</ele>
        <time>2013-05-05T12:26:22Z</time>
      </trkpt>
      <trkpt lat="60.0310717" lon="17.4461893">
        <ele>43.3966</ele>
        <time>2013-05-05T12:26:23Z</time>
      </trkpt>
      <trkpt lat="60.0310764" lon="17.4462399">
        <ele>43.3966</ele>
        <time>2013-05-05T12:26:24Z</time>
      </trkpt>
      <trkpt lat="60.0310765" lon="17.4462724">
        <ele>42.916</ele>
        <time>2013-05-05T12:26:25Z</time>
      </trkpt>
      <trkpt lat="60.0310753" lon="17.4462834">
        <ele>42.4354</ele>
        <time>2013-05-05T12:26:26Z</time>
      </trkpt>
      <trkpt lat="60.0310739" lon="17.4462832">
        <ele>42.916</ele>
        <time>2013-05-05T12:26:27Z</time>
      </trkpt>
      <trkpt lat="60.0310723" lon="17.4462875">
        <ele>42.4354</ele>
        <time>2013-05-05T12:26:28Z</time>
      </trkpt>
      <trkpt lat="60.0310705" lon="17.4462918">
        <ele>41.9547</ele>
        <time>2013-05-05T12:26:29Z</time>
      </trkpt>
      <trkpt lat="60.0310702" lon="17.4462948">
        <ele>41.474</ele>
        <time>2013-05-05T12:26:30Z</time>
      </trkpt>
      <trkpt lat="60.0310707" lon="17.4462972">
        <ele>41.474</ele>
        <time>2013-05-05T12:26:31Z</time>
      </trkpt>
      <trkpt lat="60.0310717" lon="17.4463039">
        <ele>40.9934</ele>
        <time>2013-05-05T12:26:32Z</time>
      </trkpt>
      <trkpt lat="60.0310739" lon="17.4463096">
        <ele>40.5128</ele>
        <time>2013-05-05T12:26:33Z</time>
      </trkpt>
      <trkpt lat="60.0310787" lon="17.4463014">
        <ele>40.9934</ele>
        <time>2013-05-05T12:26:34Z</time>
      </trkpt>
      <trkpt lat="60.0310826" lon="17.4462937">
        <ele>41.474</ele>
        <time>2013-05-05T12:26:35Z</time>
      </trkpt>
      <trkpt lat="60.0310851" lon="17.4462828">
        <ele>41.9547</ele>
        <time>2013-05-05T12:26:36Z</time>
      </trkpt>
      <trkpt lat="60.0310855" lon="17.4462773">
        <ele>42.4354</ele>
        <time>2013-05-05T12:26:37Z</time>
      </trkpt>
      <trkpt lat="60.0310847" lon="17.4462726">
        <ele>42.4354</ele>
        <time>2013-05-05T12:26:38Z</time>
      </trkpt>
      <trkpt lat="60.0310853" lon="17.4462648">
        <ele>42.4354</ele>
        <time>2013-05-05T12:26:39Z</time>
      </trkpt>
      <trkpt lat="60.0310855" lon="17.446257">
        <ele>42.916</ele>
        <time>2013-05-05T12:26:40Z</time>
      </trkpt>
      <trkpt lat="60.0310858" lon="17.4462492">
        <ele>43.8773</ele>
        <time>2013-05-05T12:26:41Z</time>
      </trkpt>
      <trkpt lat="60.031087" lon="17.446242">
        <ele>44.358</ele>
        <time>2013-05-05T12:26:42Z</time>
      </trkpt>
      <trkpt lat="60.0310862" lon="17.4462387">
        <ele>44.8386</ele>
        <time>2013-05-05T12:26:43Z</time>
      </trkpt>
      <trkpt lat="60.0310863" lon="17.4462342">
        <ele>44.8386</ele>
        <time>2013-05-05T12:26:44Z</time>
      </trkpt>
      <trkpt lat="60.0310873" lon="17.4462293">
        <ele>44.8386</ele>
        <time>2013-05-05T12:26:45Z</time>
      </trkpt>
      <trkpt lat="60.0310903" lon="17.4462229">
        <ele>45.3192</ele>
        <time>2013-05-05T12:26:46Z</time>
      </trkpt>
      <trkpt lat="60.0310925" lon="17.4462188">
        <ele>45.3192</ele>
        <time>2013-05-05T12:26:47Z</time>
      </trkpt>
      <trkpt lat="60.0310936" lon="17.4462186">
        <ele>45.3192</ele>
        <time>2013-05-05T12:26:48Z</time>
      </trkpt>
      <trkpt lat="60.0310927" lon="17.4462187">
        <ele>45.3192</ele>
        <time>2013-05-05T12:26:49Z</time>
      </trkpt>
      <trkpt lat="60.0310934" lon="17.4462145">
        <ele>45.7999</ele>
        <time>2013-05-05T12:26:50Z</time>
      </trkpt>
      <trkpt lat="60.031094" lon="17.4462119">
        <ele>45.7999</ele>
        <time>2013-05-05T12:26:51Z</time>
      </trkpt>
      <trkpt lat="60.0310941" lon="17.4462093">
        <ele>45.7999</ele>
        <time>2013-05-05T12:26:52Z</time>
      </trkpt>
      <trkpt lat="60.031094" lon="17.4462063">
        <ele>46.2806</ele>
        <time>2013-05-05T12:26:53Z</time>
      </trkpt>
      <trkpt lat="60.0310953" lon="17.4462031">
        <ele>46.2806</ele>
        <time>2013-05-05T12:26:54Z</time>
      </trkpt>
      <trkpt lat="60.0310964" lon="17.4462014">
        <ele>46.2806</ele>
        <time>2013-05-05T12:26:55Z</time>
      </trkpt>
      <trkpt lat="60.031101" lon="17.4461972">
        <ele>45.7999</ele>
        <time>2013-05-05T12:26:56Z</time>
      </trkpt>
      <trkpt lat="60.0311055" lon="17.4461944">
        <ele>45.7999</ele>
        <time>2013-05-05T12:26:57Z</time>
      </trkpt>
      <trkpt lat="60.0311099" lon="17.4461936">
        <ele>45.3192</ele>
        <time>2013-05-05T12:26:58Z</time>
      </trkpt>
      <trkpt lat="60.0311131" lon="17.4461917">
        <ele>45.3192</ele>
        <time>2013-05-05T12:26:59Z</time>
      </trkpt>
      <trkpt lat="60.0311163" lon="17.4461874">
        <ele>45.3192</ele>
        <time>2013-05-05T12:27:00Z</time>
      </trkpt>
      <trkpt lat="60.0311194" lon="17.4461829">
        <ele>45.7999</ele>
        <time>2013-05-05T12:27:01Z</time>
      </trkpt>
      <trkpt lat="60.0311221" lon="17.4461786">
        <ele>46.2806</ele>
        <time>2013-05-05T12:27:02Z</time>
      </trkpt>
      <trkpt lat="60.0311233" lon="17.4461747">
        <ele>46.7612</ele>
        <time>2013-05-05T12:27:03Z</time>
      </trkpt>
      <trkpt lat="60.0311236" lon="17.4461734">
        <ele>47.2418</ele>
        <time>2013-05-05T12:27:04Z</time>
      </trkpt>
      <trkpt lat="60.0311238" lon="17.4461727">
        <ele>47.7225</ele>
        <time>2013-05-05T12:27:05Z</time>
      </trkpt>
      <trkpt lat="60.0311249" lon="17.4461705">
        <ele>48.2034</ele>
        <time>2013-05-05T12:27:06Z</time>
      </trkpt>
      <trkpt lat="60.0311244" lon="17.4461704">
        <ele>48.684</ele>
        <time>2013-05-05T12:27:07Z</time>
      </trkpt>
      <trkpt lat="60.0311241" lon="17.4461706">
        <ele>49.1646</ele>
        <time>2013-05-05T12:27:08Z</time>
      </trkpt>
      <trkpt lat="60.031124" lon="17.4461703">
        <ele>49.6453</ele>
        <time>2013-05-05T12:27:09Z</time>
      </trkpt>
      <trkpt lat="60.031122" lon="17.4461705">
        <ele>50.126</ele>
        <time>2013-05-05T12:27:10Z</time>
      </trkpt>
      <trkpt lat="60.0311203" lon="17.44617">
        <ele>50.126</ele>
        <time>2013-05-05T12:27:11Z</time>
      </trkpt>
      <trkpt lat="60.0311178" lon="17.4461691">
        <ele>49.6453</ele>
        <time>2013-05-05T12:27:12Z</time>
      </trkpt>
      <trkpt lat="60.0311162" lon="17.446168">
        <ele>50.126</ele>
        <time>2013-05-05T12:27:13Z</time>
      </trkpt>
      <trkpt lat="60.0311151" lon="17.4461663">
        <ele>50.126</ele>
        <time>2013-05-05T12:27:14Z</time>
      </trkpt>
      <trkpt lat="60.0311152" lon="17.4461648">
        <ele>50.6066</ele>
        <time>2013-05-05T12:27:15Z</time>
      </trkpt>
      <trkpt lat="60.0311171" lon="17.4461637">
        <ele>51.0872</ele>
        <time>2013-05-05T12:27:16Z</time>
      </trkpt>
      <trkpt lat="60.0311198" lon="17.4461617">
        <ele>52.0486</ele>
        <time>2013-05-05T12:27:17Z</time>
      </trkpt>
      <trkpt lat="60.0311203" lon="17.4461596">
        <ele>52.0486</ele>
        <time>2013-05-05T12:27:18Z</time>
      </trkpt>
      <trkpt lat="60.0311183" lon="17.4461603">
        <ele>51.5679</ele>
        <time>2013-05-05T12:27:19Z</time>
      </trkpt>
      <trkpt lat="60.0311178" lon="17.4461595">
        <ele>51.0872</ele>
        <time>2013-05-05T12:27:20Z</time>
      </trkpt>
      <trkpt lat="60.0311176" lon="17.4461574">
        <ele>51.0872</ele>
        <time>2013-05-05T12:27:21Z</time>
      </trkpt>
      <trkpt lat="60.0311153" lon="17.4461575">
        <ele>51.5679</ele>
        <time>2013-05-05T12:27:22Z</time>
      </trkpt>
      <trkpt lat="60.0311142" lon="17.446156">
        <ele>52.0486</ele>
        <time>2013-05-05T12:27:23Z</time>
      </trkpt>
      <trkpt lat="60.0311133" lon="17.446155">
        <ele>52.5292</ele>
        <time>2013-05-05T12:27:24Z</time>
      </trkpt>
      <trkpt lat="60.0311142" lon="17.4461554">
        <ele>53.0098</ele>
        <time>2013-05-05T12:27:25Z</time>
      </trkpt>
      <trkpt lat="60.0311141" lon="17.4461551">
        <ele>53.0098</ele>
        <time>2013-05-05T12:27:26Z</time>
      </trkpt>
      <trkpt lat="60.0311135" lon="17.4461538">
        <ele>53.4905</ele>
        <time>2013-05-05T12:27:27Z</time>
      </trkpt>
      <trkpt lat="60.0311105" lon="17.4461544">
        <ele>53.4905</ele>
        <time>2013-05-05T12:27:28Z</time>
      </trkpt>
      <trkpt lat="60.0311122" lon="17.4461503">
        <ele>54.4518</ele>
        <time>2013-05-05T12:27:29Z</time>
      </trkpt>
      <trkpt lat="60.0311095" lon="17.4461509">
        <ele>53.9712</ele>
        <time>2013-05-05T12:27:30Z</time>
      </trkpt>
      <trkpt lat="60.0311111" lon="17.4461492">
        <ele>53.9712</ele>
        <time>2013-05-05T12:27:31Z</time>
      </trkpt>
      <trkpt lat="60.0311126" lon="17.4461468">
        <ele>53.9712</ele>
        <time>2013-05-05T12:27:32Z</time>
      </trkpt>
      <trkpt lat="60.0311141" lon="17.4461441">
        <ele>53.9712</ele>
        <time>2013-05-05T12:27:33Z</time>
      </trkpt>
      <trkpt lat="60.0311137" lon="17.4461431">
        <ele>54.4518</ele>
        <time>2013-05-05T12:27:34Z</time>
      </trkpt>
      <trkpt lat="60.0311132" lon="17.4461426">
        <ele>54.4518</ele>
        <time>2013-05-05T12:27:35Z</time>
      </trkpt>
      <trkpt lat="60.03111" lon="17.4461459">
        <ele>53.9712</ele>
        <time>2013-05-05T12:27:36Z</time>
      </trkpt>
      <trkpt lat="60.0311114" lon="17.4461452">
        <ele>53.9712</ele>
        <time>2013-05-05T12:27:37Z</time>
      </trkpt>
      <trkpt lat="60.031113" lon="17.4461449">
        <ele>53.9712</ele>
        <time>2013-05-05T12:27:38Z</time>
      </trkpt>
      <trkpt lat="60.0311136" lon="17.4461451">
        <ele>53.9712</ele>
        <time>2013-05-05T12:27:39Z</time>
      </trkpt>
      <trkpt lat="60.0311161" lon="17.4461516">
        <ele>53.9712</ele>
        <time>2013-05-05T12:27:40Z</time>
      </trkpt>
      <trkpt lat="60.0311157" lon="17.4461553">
        <ele>53.4905</ele>
        <time>2013-05-05T12:27:41Z</time>
      </trkpt>
      <trkpt lat="60.0311152" lon="17.446156">
        <ele>53.9712</ele>
        <time>2013-05-05T12:27:42Z</time>
      </trkpt>
      <trkpt lat="60.0311168" lon="17.4461559">
        <ele>54.4518</ele>
        <time>2013-05-05T12:27:43Z</time>
      </trkpt>
      <trkpt lat="60.0311181" lon="17.4461543">
        <ele>54.9324</ele>
        <time>2013-05-05T12:27:44Z</time>
      </trkpt>
      <trkpt lat="60.0311199" lon="17.446153">
        <ele>55.4131</ele>
        <time>2013-05-05T12:27:45Z</time>
      </trkpt>
      <trkpt lat="60.0311186" lon="17.4461553">
        <ele>55.4131</ele>
        <time>2013-05-05T12:27:46Z</time>
      </trkpt>
      <trkpt lat="60.0311147" lon="17.4461607">
        <ele>54.9324</ele>
        <time>2013-05-05T12:27:47Z</time>
      </trkpt>
      <trkpt lat="60.0311119" lon="17.4461648">
        <ele>54.4518</ele>
        <time>2013-05-05T12:27:48Z</time>
      </trkpt>
      <trkpt lat="60.0311116" lon="17.4461658">
        <ele>53.9712</ele>
        <time>2013-05-05T12:27:49Z</time>
      </trkpt>
      <trkpt lat="60.0311137" lon="17.4461672">
        <ele>53.9712</ele>
        <time>2013-05-05T12:27:50Z</time>
      </trkpt>
      <trkpt lat="60.0311156" lon="17.4461677">
        <ele>53.4905</ele>
        <time>2013-05-05T12:27:51Z</time>
      </trkpt>
      <trkpt lat="60.0311163" lon="17.4461672">
        <ele>53.4905</ele>
        <time>2013-05-05T12:27:52Z</time>
      </trkpt>
      <trkpt lat="60.031116" lon="17.4461668">
        <ele>53.0098</ele>
        <time>2013-05-05T12:27:53Z</time>
      </trkpt>
      <trkpt lat="60.0311153" lon="17.4461695">
        <ele>52.0486</ele>
        <time>2013-05-05T12:27:54Z</time>
      </trkpt>
      <trkpt lat="60.0311145" lon="17.4461693">
        <ele>52.0486</ele>
        <time>2013-05-05T12:27:55Z</time>
      </trkpt>
      <trkpt lat="60.0311147" lon="17.446168">
        <ele>52.0486</ele>
        <time>2013-05-05T12:27:56Z</time>
      </trkpt>
      <trkpt lat="60.0311142" lon="17.4461674">
        <ele>51.5679</ele>
        <time>2013-05-05T12:27:57Z</time>
      </trkpt>
      <trkpt lat="60.0311136" lon="17.4461657">
        <ele>51.5679</ele>
        <time>2013-05-05T12:27:58Z</time>
      </trkpt>
      <trkpt lat="60.0311129" lon="17.4461643">
        <ele>51.5679</ele>
        <time>2013-05-05T12:27:59Z</time>
      </trkpt>
      <trkpt lat="60.0311127" lon="17.4461633">
        <ele>51.5679</ele>
        <time>2013-05-05T12:28:00Z</time>
      </trkpt>
      <trkpt lat="60.0311121" lon="17.4461627">
        <ele>51.0872</ele>
        <time>2013-05-05T12:28:01Z</time>
      </trkpt>
      <trkpt lat="60.0311107" lon="17.4461622">
        <ele>50.6066</ele>
        <time>2013-05-05T12:28:02Z</time>
      </trkpt>
      <trkpt lat="60.0311093" lon="17.446163">
        <ele>50.6066</ele>
        <time>2013-05-05T12:28:03Z</time>
      </trkpt>
      <trkpt lat="60.0311028" lon="17.446169">
        <ele>49.1646</ele>
        <time>2013-05-05T12:28:04Z</time>
      </trkpt>
      <trkpt lat="60.0310987" lon="17.4461729">
        <ele>48.2034</ele>
        <time>2013-05-05T12:28:05Z</time>
      </trkpt>
      <trkpt lat="60.0310969" lon="17.4461746">
        <ele>47.2418</ele>
        <time>2013-05-05T12:28:06Z</time>
      </trkpt>
      <trkpt lat="60.0310984" lon="17.4461737">
        <ele>47.2418</ele>
        <time>2013-05-05T12:28:07Z</time>
      </trkpt>
      <trkpt lat="60.0311001" lon="17.4461736">
        <ele>47.2418</ele>
        <time>2013-05-05T12:28:08Z</time>
      </trkpt>
      <trkpt lat="60.0311026" lon="17.4461732">
        <ele>47.7225</ele>
        <time>2013-05-05T12:28:09Z</time>
      </trkpt>
      <trkpt lat="60.0311034" lon="17.4461721">
        <ele>47.7225</ele>
        <time>2013-05-05T12:28:10Z</time>
      </trkpt>
      <trkpt lat="60.0311052" lon="17.4461694">
        <ele>47.7225</ele>
        <time>2013-05-05T12:28:11Z</time>
      </trkpt>
      <trkpt lat="60.0311064" lon="17.4461658">
        <ele>48.2034</ele>
        <time>2013-05-05T12:28:12Z</time>
      </trkpt>
      <trkpt lat="60.0311093" lon="17.4461597">
        <ele>48.2034</ele>
        <time>2013-05-05T12:28:13Z</time>
      </trkpt>
      <trkpt lat="60.03111" lon="17.4461544">
        <ele>48.684</ele>
        <time>2013-05-05T12:28:14Z</time>
      </trkpt>
      <trkpt lat="60.0311107" lon="17.4461503">
        <ele>48.684</ele>
        <time>2013-05-05T12:28:15Z</time>
      </trkpt>
      <trkpt lat="60.03111" lon="17.4461508">
        <ele>49.1646</ele>
        <time>2013-05-05T12:28:16Z</time>
      </trkpt>
      <trkpt lat="60.031111" lon="17.4461522">
        <ele>49.6453</ele>
        <time>2013-05-05T12:28:17Z</time>
      </trkpt>
      <trkpt lat="60.031112" lon="17.4461518">
        <ele>49.6453</ele>
        <time>2013-05-05T12:28:18Z</time>
      </trkpt>
      <trkpt lat="60.0311111" lon="17.4461513">
        <ele>50.126</ele>
        <time>2013-05-05T12:28:19Z</time>
      </trkpt>
      <trkpt lat="60.0311095" lon="17.4461513">
        <ele>50.6066</ele>
        <time>2013-05-05T12:28:20Z</time>
      </trkpt>
      <trkpt lat="60.0311084" lon="17.4461527">
        <ele>50.126</ele>
        <time>2013-05-05T12:28:21Z</time>
      </trkpt>
      <trkpt lat="60.0311068" lon="17.4461519">
        <ele>50.126</ele>
        <time>2013-05-05T12:28:22Z</time>
      </trkpt>
      <trkpt lat="60.0311064" lon="17.4461497">
        <ele>50.126</ele>
        <time>2013-05-05T12:28:23Z</time>
      </trkpt>
      <trkpt lat="60.0311074" lon="17.4461512">
        <ele>51.0872</ele>
        <time>2013-05-05T12:28:24Z</time>
      </trkpt>
      <trkpt lat="60.0311101" lon="17.4461566">
        <ele>52.0486</ele>
        <time>2013-05-05T12:28:25Z</time>
      </trkpt>
      <trkpt lat="60.0311137" lon="17.4461596">
        <ele>53.0098</ele>
        <time>2013-05-05T12:28:26Z</time>
      </trkpt>
      <trkpt lat="60.0311163" lon="17.4461584">
        <ele>53.0098</ele>
        <time>2013-05-05T12:28:27Z</time>
      </trkpt>
      <trkpt lat="60.031109" lon="17.4461658">
        <ele>51.5679</ele>
        <time>2013-05-05T12:28:28Z</time>
      </trkpt>
      <trkpt lat="60.0311067" lon="17.4461683">
        <ele>51.0872</ele>
        <time>2013-05-05T12:28:29Z</time>
      </trkpt>
      <trkpt lat="60.0311041" lon="17.4461715">
        <ele>50.6066</ele>
        <time>2013-05-05T12:28:30Z</time>
      </trkpt>
      <trkpt lat="60.0310992" lon="17.4461783">
        <ele>49.6453</ele>
        <time>2013-05-05T12:28:31Z</time>
      </trkpt>
      <trkpt lat="60.0310955" lon="17.4461833">
        <ele>49.1646</ele>
        <time>2013-05-05T12:28:32Z</time>
      </trkpt>
      <trkpt lat="60.0310966" lon="17.4461783">
        <ele>47.2418</ele>
        <time>2013-05-05T12:28:33Z</time>
      </trkpt>
      <trkpt lat="60.0310969" lon="17.4461772">
        <ele>47.2418</ele>
        <time>2013-05-05T12:28:34Z</time>
      </trkpt>
      <trkpt lat="60.031097" lon="17.4461775">
        <ele>46.7612</ele>
        <time>2013-05-05T12:28:35Z</time>
      </trkpt>
      <trkpt lat="60.0310969" lon="17.4461783">
        <ele>46.7612</ele>
        <time>2013-05-05T12:28:36Z</time>
      </trkpt>
      <trkpt lat="60.0310966" lon="17.4461792">
        <ele>46.7612</ele>
        <time>2013-05-05T12:28:37Z</time>
      </trkpt>
      <trkpt lat="60.0310962" lon="17.4461803">
        <ele>46.7612</ele>
        <time>2013-05-05T12:28:38Z</time>
      </trkpt>
      <trkpt lat="60.0310974" lon="17.4461823">
        <ele>46.2806</ele>
        <time>2013-05-05T12:28:39Z</time>
      </trkpt>
      <trkpt lat="60.0310986" lon="17.4461835">
        <ele>45.7999</ele>
        <time>2013-05-05T12:28:40Z</time>
      </trkpt>
      <trkpt lat="60.0310981" lon="17.446184">
        <ele>45.3192</ele>
        <time>2013-05-05T12:28:41Z</time>
      </trkpt>
      <trkpt lat="60.0310979" lon="17.4461843">
        <ele>45.3192</ele>
        <time>2013-05-05T12:28:42Z</time>
      </trkpt>
      <trkpt lat="60.031095" lon="17.446186">
        <ele>44.8386</ele>
        <time>2013-05-05T12:28:43Z</time>
      </trkpt>
      <trkpt lat="60.0310954" lon="17.4461879">
        <ele>44.358</ele>
        <time>2013-05-05T12:28:44Z</time>
      </trkpt>
      <trkpt lat="60.031095" lon="17.4461874">
        <ele>44.358</ele>
        <time>2013-05-05T12:28:45Z</time>
      </trkpt>
      <trkpt lat="60.0310955" lon="17.4461849">
        <ele>43.8773</ele>
        <time>2013-05-05T12:28:46Z</time>
      </trkpt>
      <trkpt lat="60.0310977" lon="17.4461845">
        <ele>43.8773</ele>
        <time>2013-05-05T12:28:47Z</time>
      </trkpt>
      <trkpt lat="60.0310987" lon="17.4461865">
        <ele>44.358</ele>
        <time>2013-05-05T12:28:48Z</time>
      </trkpt>
      <trkpt lat="60.0310982" lon="17.446187">
        <ele>44.358</ele>
        <time>2013-05-05T12:28:49Z</time>
      </trkpt>
      <trkpt lat="60.0310977" lon="17.4461866">
        <ele>44.358</ele>
        <time>2013-05-05T12:28:50Z</time>
      </trkpt>
      <trkpt lat="60.0310972" lon="17.4461853">
        <ele>44.8386</ele>
        <time>2013-05-05T12:28:51Z</time>
      </trkpt>
      <trkpt lat="60.0310967" lon="17.446183">
        <ele>44.8386</ele>
        <time>2013-05-05T12:28:52Z</time>
      </trkpt>
      <trkpt lat="60.0310961" lon="17.4461817">
        <ele>44.8386</ele>
        <time>2013-05-05T12:28:53Z</time>
      </trkpt>
      <trkpt lat="60.0310959" lon="17.4461807">
        <ele>44.8386</ele>
        <time>2013-05-05T12:28:54Z</time>
      </trkpt>
      <trkpt lat="60.0310945" lon="17.4461814">
        <ele>44.358</ele>
        <time>2013-05-05T12:28:55Z</time>
      </trkpt>
      <trkpt lat="60.0310943" lon="17.4461836">
        <ele>44.358</ele>
        <time>2013-05-05T12:28:56Z</time>
      </trkpt>
      <trkpt lat="60.0310955" lon="17.4461877">
        <ele>44.358</ele>
        <time>2013-05-05T12:28:57Z</time>
      </trkpt>
      <trkpt lat="60.0310966" lon="17.4461912">
        <ele>44.358</ele>
        <time>2013-05-05T12:28:58Z</time>
      </trkpt>
      <trkpt lat="60.0310981" lon="17.4461949">
        <ele>44.8386</ele>
        <time>2013-05-05T12:28:59Z</time>
      </trkpt>
      <trkpt lat="60.0310996" lon="17.4462015">
        <ele>44.8386</ele>
        <time>2013-05-05T12:29:00Z</time>
      </trkpt>
      <trkpt lat="60.0311002" lon="17.4462103">
        <ele>44.8386</ele>
        <time>2013-05-05T12:29:01Z</time>
      </trkpt>
      <trkpt lat="60.0310997" lon="17.4462151">
        <ele>44.8386</ele>
        <time>2013-05-05T12:29:02Z</time>
      </trkpt>
      <trkpt lat="60.0310986" lon="17.4462181">
        <ele>44.358</ele>
        <time>2013-05-05T12:29:03Z</time>
      </trkpt>
      <trkpt lat="60.031101" lon="17.4462185">
        <ele>44.8386</ele>
        <time>2013-05-05T12:29:04Z</time>
      </trkpt>
      <trkpt lat="60.0311034" lon="17.4462174">
        <ele>44.8386</ele>
        <time>2013-05-05T12:29:05Z</time>
      </trkpt>
      <trkpt lat="60.0311054" lon="17.4462176">
        <ele>44.358</ele>
        <time>2013-05-05T12:29:06Z</time>
      </trkpt>
      <trkpt lat="60.0311059" lon="17.4462285">
        <ele>44.358</ele>
        <time>2013-05-05T12:29:07Z</time>
      </trkpt>
      <trkpt lat="60.0311065" lon="17.4462389">
        <ele>43.8773</ele>
        <time>2013-05-05T12:29:08Z</time>
      </trkpt>
      <trkpt lat="60.0311052" lon="17.4462414">
        <ele>43.3966</ele>
        <time>2013-05-05T12:29:09Z</time>
      </trkpt>
      <trkpt lat="60.0311039" lon="17.4462433">
        <ele>42.916</ele>
        <time>2013-05-05T12:29:10Z</time>
      </trkpt>
      <trkpt lat="60.0311042" lon="17.4462512">
        <ele>42.4354</ele>
        <time>2013-05-05T12:29:11Z</time>
      </trkpt>
      <trkpt lat="60.0311069" lon="17.4462682">
        <ele>42.4354</ele>
        <time>2013-05-05T12:29:12Z</time>
      </trkpt>
      <trkpt lat="60.0311104" lon="17.4462912">
        <ele>41.9547</ele>
        <time>2013-05-05T12:29:13Z</time>
      </trkpt>
      <trkpt lat="60.0311155" lon="17.446314">
        <ele>42.4354</ele>
        <time>2013-05-05T12:29:14Z</time>
      </trkpt>
      <trkpt lat="60.0311178" lon="17.4463285">
        <ele>41.9547</ele>
        <time>2013-05-05T12:29:15Z</time>
      </trkpt>
      <trkpt lat="60.0311188" lon="17.4463341">
        <ele>41.9547</ele>
        <time>2013-05-05T12:29:16Z</time>
      </trkpt>
      <trkpt lat="60.0311188" lon="17.4463357">
        <ele>41.9547</ele>
        <time>2013-05-05T12:29:17Z</time>
      </trkpt>
      <trkpt lat="60.0311187" lon="17.4463357">
        <ele>41.9547</ele>
        <time>2013-05-05T12:29:18Z</time>
      </trkpt>
      <trkpt lat="60.0311186" lon="17.4463357">
        <ele>41.9547</ele>
        <time>2013-05-05T12:29:19Z</time>
      </trkpt>
      <trkpt lat="60.0311186" lon="17.4463355">
        <ele>41.9547</ele>
        <time>2013-05-05T12:29:20Z</time>
      </trkpt>
      <trkpt lat="60.0311193" lon="17.4463357">
        <ele>42.4354</ele>
        <time>2013-05-05T12:29:21Z</time>
      </trkpt>
      <trkpt lat="60.0311184" lon="17.4463352">
        <ele>41.9547</ele>
        <time>2013-05-05T12:29:22Z</time>
      </trkpt>
      <trkpt lat="60.0311172" lon="17.4463363">
        <ele>41.474</ele>
        <time>2013-05-05T12:29:23Z</time>
      </trkpt>
      <trkpt lat="60.0311157" lon="17.4463381">
        <ele>41.474</ele>
        <time>2013-05-05T12:29:24Z</time>
      </trkpt>
      <trkpt lat="60.0311152" lon="17.4463381">
        <ele>40.9934</ele>
        <time>2013-05-05T12:29:25Z</time>
      </trkpt>
      <trkpt lat="60.0311147" lon="17.4463383">
        <ele>40.9934</ele>
        <time>2013-05-05T12:29:26Z</time>
      </trkpt>
      <trkpt lat="60.031115" lon="17.4463383">
        <ele>40.9934</ele>
        <time>2013-05-05T12:29:27Z</time>
      </trkpt>
      <trkpt lat="60.0311146" lon="17.4463356">
        <ele>40.9934</ele>
        <time>2013-05-05T12:29:28Z</time>
      </trkpt>
      <trkpt lat="60.0311142" lon="17.4463351">
        <ele>40.9934</ele>
        <time>2013-05-05T12:29:29Z</time>
      </trkpt>
      <trkpt lat="60.0311147" lon="17.4463362">
        <ele>40.9934</ele>
        <time>2013-05-05T12:29:30Z</time>
      </trkpt>
      <trkpt lat="60.0311172" lon="17.4463404">
        <ele>40.9934</ele>
        <time>2013-05-05T12:29:31Z</time>
      </trkpt>
      <trkpt lat="60.0311226" lon="17.4463498">
        <ele>40.9934</ele>
        <time>2013-05-05T12:29:32Z</time>
      </trkpt>
      <trkpt lat="60.0311277" lon="17.4463642">
        <ele>40.9934</ele>
        <time>2013-05-05T12:29:33Z</time>
      </trkpt>
      <trkpt lat="60.031129" lon="17.4463782">
        <ele>40.9934</ele>
        <time>2013-05-05T12:29:34Z</time>
      </trkpt>
      <trkpt lat="60.0311292" lon="17.4463953">
        <ele>40.9934</ele>
        <time>2013-05-05T12:29:35Z</time>
      </trkpt>
      <trkpt lat="60.0311331" lon="17.4464248">
        <ele>40.9934</ele>
        <time>2013-05-05T12:29:36Z</time>
      </trkpt>
      <trkpt lat="60.0311371" lon="17.4464621">
        <ele>40.9934</ele>
        <time>2013-05-05T12:29:37Z</time>
      </trkpt>
      <trkpt lat="60.0311406" lon="17.4465">
        <ele>40.9934</ele>
        <time>2013-05-05T12:29:38Z</time>
      </trkpt>
      <trkpt lat="60.0311458" lon="17.4465376">
        <ele>40.9934</ele>
        <time>2013-05-05T12:29:39Z</time>
      </trkpt>
      <trkpt lat="60.0311513" lon="17.4465787">
        <ele>40.9934</ele>
        <time>2013-05-05T12:29:40Z</time>
      </trkpt>
      <trkpt lat="60.0311573" lon="17.4466227">
        <ele>40.9934</ele>
        <time>2013-05-05T12:29:41Z</time>
      </trkpt>
      <trkpt lat="60.0311665" lon="17.4466666">
        <ele>41.474</ele>
        <time>2013-05-05T12:29:42Z</time>
      </trkpt>
      <trkpt lat="60.0311738" lon="17.4467152">
        <ele>41.474</ele>
        <time>2013-05-05T12:29:43Z</time>
      </trkpt>
      <trkpt lat="60.0311815" lon="17.4467709">
        <ele>41.474</ele>
        <time>2013-05-05T12:29:44Z</time>
      </trkpt>
      <trkpt lat="60.0311887" lon="17.4468292">
        <ele>41.474</ele>
        <time>2013-05-05T12:29:45Z</time>
      </trkpt>
      <trkpt lat="60.0311994" lon="17.4468848">
        <ele>41.9547</ele>
        <time>2013-05-05T12:29:46Z</time>
      </trkpt>
      <trkpt lat="60.0312109" lon="17.446947">
        <ele>41.9547</ele>
        <time>2013-05-05T12:29:47Z</time>
      </trkpt>
      <trkpt lat="60.0312202" lon="17.4470149">
        <ele>41.9547</ele>
        <time>2013-05-05T12:29:48Z</time>
      </trkpt>
      <trkpt lat="60.0312307" lon="17.4470893">
        <ele>41.9547</ele>
        <time>2013-05-05T12:29:49Z</time>
      </trkpt>
      <trkpt lat="60.0312416" lon="17.4471672">
        <ele>42.4354</ele>
        <time>2013-05-05T12:29:50Z</time>
      </trkpt>
      <trkpt lat="60.0312462" lon="17.4472576">
        <ele>42.4354</ele>
        <time>2013-05-05T12:29:51Z</time>
      </trkpt>
      <trkpt lat="60.031253" lon="17.4473566">
        <ele>42.4354</ele>
        <time>2013-05-05T12:29:52Z</time>
      </trkpt>
      <trkpt lat="60.0312649" lon="17.4474635">
        <ele>42.4354</ele>
        <time>2013-05-05T12:29:53Z</time>
      </trkpt>
      <trkpt lat="60.0312799" lon="17.4475731">
        <ele>42.916</ele>
        <time>2013-05-05T12:29:54Z</time>
      </trkpt>
      <trkpt lat="60.0312948" lon="17.4476789">
        <ele>42.916</ele>
        <time>2013-05-05T12:29:55Z</time>
      </trkpt>
      <trkpt lat="60.0313101" lon="17.4477861">
        <ele>42.916</ele>
        <time>2013-05-05T12:29:56Z</time>
      </trkpt>
      <trkpt lat="60.0313255" lon="17.4478943">
        <ele>42.916</ele>
        <time>2013-05-05T12:29:57Z</time>
      </trkpt>
      <trkpt lat="60.0313407" lon="17.448004">
        <ele>42.4354</ele>
        <time>2013-05-05T12:29:58Z</time>
      </trkpt>
      <trkpt lat="60.0313541" lon="17.4481162">
        <ele>41.9547</ele>
        <time>2013-05-05T12:29:59Z</time>
      </trkpt>
      <trkpt lat="60.031369" lon="17.4482274">
        <ele>41.9547</ele>
        <time>2013-05-05T12:30:00Z</time>
      </trkpt>
      <trkpt lat="60.0313866" lon="17.4483373">
        <ele>42.4354</ele>
        <time>2013-05-05T12:30:01Z</time>
      </trkpt>
      <trkpt lat="60.0314026" lon="17.4484519">
        <ele>42.4354</ele>
        <time>2013-05-05T12:30:02Z</time>
      </trkpt>
      <trkpt lat="60.0314197" lon="17.4485689">
        <ele>42.4354</ele>
        <time>2013-05-05T12:30:03Z</time>
      </trkpt>
      <trkpt lat="60.0314367" lon="17.4486878">
        <ele>41.9547</ele>
        <time>2013-05-05T12:30:04Z</time>
      </trkpt>
      <trkpt lat="60.0314539" lon="17.4488086">
        <ele>41.9547</ele>
        <time>2013-05-05T12:30:05Z</time>
      </trkpt>
      <trkpt lat="60.0314709" lon="17.4489315">
        <ele>41.474</ele>
        <time>2013-05-05T12:30:06Z</time>
      </trkpt>
      <trkpt lat="60.0314887" lon="17.4490593">
        <ele>41.474</ele>
        <time>2013-05-05T12:30:07Z</time>
      </trkpt>
      <trkpt lat="60.0315083" lon="17.4491911">
        <ele>41.474</ele>
        <time>2013-05-05T12:30:08Z</time>
      </trkpt>
      <trkpt lat="60.0315277" lon="17.4493261">
        <ele>40.9934</ele>
        <time>2013-05-05T12:30:09Z</time>
      </trkpt>
      <trkpt lat="60.0315457" lon="17.4494624">
        <ele>40.9934</ele>
        <time>2013-05-05T12:30:10Z</time>
      </trkpt>
      <trkpt lat="60.0315628" lon="17.4496004">
        <ele>40.5128</ele>
        <time>2013-05-05T12:30:11Z</time>
      </trkpt>
      <trkpt lat="60.0315831" lon="17.4497386">
        <ele>40.5128</ele>
        <time>2013-05-05T12:30:12Z</time>
      </trkpt>
      <trkpt lat="60.0316076" lon="17.4498747">
        <ele>40.5128</ele>
        <time>2013-05-05T12:30:13Z</time>
      </trkpt>
      <trkpt lat="60.03163" lon="17.450008">
        <ele>40.9934</ele>
        <time>2013-05-05T12:30:14Z</time>
      </trkpt>
      <trkpt lat="60.0316483" lon="17.4501416">
        <ele>40.9934</ele>
        <time>2013-05-05T12:30:15Z</time>
      </trkpt>
      <trkpt lat="60.031666" lon="17.4502716">
        <ele>40.9934</ele>
        <time>2013-05-05T12:30:16Z</time>
      </trkpt>
      <trkpt lat="60.0316846" lon="17.4503974">
        <ele>40.9934</ele>
        <time>2013-05-05T12:30:17Z</time>
      </trkpt>
      <trkpt lat="60.0317025" lon="17.4505193">
        <ele>40.5128</ele>
        <time>2013-05-05T12:30:18Z</time>
      </trkpt>
      <trkpt lat="60.0317195" lon="17.4506388">
        <ele>40.5128</ele>
        <time>2013-05-05T12:30:19Z</time>
      </trkpt>
      <trkpt lat="60.0317374" lon="17.4507564">
        <ele>40.5128</ele>
        <time>2013-05-05T12:30:20Z</time>
      </trkpt>
      <trkpt lat="60.0317546" lon="17.4508725">
        <ele>40.5128</ele>
        <time>2013-05-05T12:30:21Z</time>
      </trkpt>
      <trkpt lat="60.0317726" lon="17.45099">
        <ele>40.5128</ele>
        <time>2013-05-05T12:30:22Z</time>
      </trkpt>
      <trkpt lat="60.0317913" lon="17.4511124">
        <ele>40.0321</ele>
        <time>2013-05-05T12:30:23Z</time>
      </trkpt>
      <trkpt lat="60.0318097" lon="17.4512385">
        <ele>40.0321</ele>
        <time>2013-05-05T12:30:24Z</time>
      </trkpt>
      <trkpt lat="60.0318286" lon="17.4513676">
        <ele>40.0321</ele>
        <time>2013-05-05T12:30:25Z</time>
      </trkpt>
      <trkpt lat="60.0318476" lon="17.4515012">
        <ele>40.0321</ele>
        <time>2013-05-05T12:30:26Z</time>
      </trkpt>
      <trkpt lat="60.0318653" lon="17.4516376">
        <ele>40.0321</ele>
        <time>2013-05-05T12:30:27Z</time>
      </trkpt>
      <trkpt lat="60.0318832" lon="17.4517763">
        <ele>40.0321</ele>
        <time>2013-05-05T12:30:28Z</time>
      </trkpt>
      <trkpt lat="60.0318991" lon="17.4519171">
        <ele>40.0321</ele>
        <time>2013-05-05T12:30:29Z</time>
      </trkpt>
      <trkpt lat="60.0319127" lon="17.4520597">
        <ele>39.5513</ele>
        <time>2013-05-05T12:30:30Z</time>
      </trkpt>
      <trkpt lat="60.0319299" lon="17.4522008">
        <ele>40.5128</ele>
        <time>2013-05-05T12:30:31Z</time>
      </trkpt>
      <trkpt lat="60.0319418" lon="17.4523477">
        <ele>40.9934</ele>
        <time>2013-05-05T12:30:32Z</time>
      </trkpt>
      <trkpt lat="60.0319493" lon="17.4524979">
        <ele>40.9934</ele>
        <time>2013-05-05T12:30:33Z</time>
      </trkpt>
      <trkpt lat="60.0319487" lon="17.4526499">
        <ele>40.9934</ele>
        <time>2013-05-05T12:30:34Z</time>
      </trkpt>
      <trkpt lat="60.0319436" lon="17.4528061">
        <ele>40.5128</ele>
        <time>2013-05-05T12:30:35Z</time>
      </trkpt>
      <trkpt lat="60.0319363" lon="17.4529617">
        <ele>40.5128</ele>
        <time>2013-05-05T12:30:36Z</time>
      </trkpt>
      <trkpt lat="60.0319233" lon="17.4531159">
        <ele>39.5513</ele>
        <time>2013-05-05T12:30:37Z</time>
      </trkpt>
      <trkpt lat="60.0319079" lon="17.4532692">
        <ele>39.5513</ele>
        <time>2013-05-05T12:30:38Z</time>
      </trkpt>
      <trkpt lat="60.0318931" lon="17.4534255">
        <ele>39.5513</ele>
        <time>2013-05-05T12:30:39Z</time>
      </trkpt>
      <trkpt lat="60.0318782" lon="17.4535737">
        <ele>40.0321</ele>
        <time>2013-05-05T12:30:40Z</time>
      </trkpt>
      <trkpt lat="60.0318622" lon="17.4537178">
        <ele>40.0321</ele>
        <time>2013-05-05T12:30:41Z</time>
      </trkpt>
      <trkpt lat="60.0318465" lon="17.4538562">
        <ele>40.5128</ele>
        <time>2013-05-05T12:30:42Z</time>
      </trkpt>
      <trkpt lat="60.0318276" lon="17.4539934">
        <ele>40.5128</ele>
        <time>2013-05-05T12:30:43Z</time>
      </trkpt>
      <trkpt lat="60.0318119" lon="17.4541344">
        <ele>40.0321</ele>
        <time>2013-05-05T12:30:44Z</time>
      </trkpt>
      <trkpt lat="60.0317948" lon="17.4542685">
        <ele>40.0321</ele>
        <time>2013-05-05T12:30:45Z</time>
      </trkpt>
      <trkpt lat="60.0317803" lon="17.454401">
        <ele>40.5128</ele>
        <time>2013-05-05T12:30:46Z</time>
      </trkpt>
      <trkpt lat="60.0317654" lon="17.4545427">
        <ele>40.0321</ele>
        <time>2013-05-05T12:30:47Z</time>
      </trkpt>
      <trkpt lat="60.0317507" lon="17.4546752">
        <ele>40.0321</ele>
        <time>2013-05-05T12:30:48Z</time>
      </trkpt>
      <trkpt lat="60.0317337" lon="17.4548042">
        <ele>40.0321</ele>
        <time>2013-05-05T12:30:49Z</time>
      </trkpt>
      <trkpt lat="60.0317161" lon="17.454934">
        <ele>40.5128</ele>
        <time>2013-05-05T12:30:50Z</time>
      </trkpt>
      <trkpt lat="60.0317012" lon="17.4550534">
        <ele>40.5128</ele>
        <time>2013-05-05T12:30:51Z</time>
      </trkpt>
      <trkpt lat="60.0316865" lon="17.4551684">
        <ele>40.5128</ele>
        <time>2013-05-05T12:30:52Z</time>
      </trkpt>
      <trkpt lat="60.0316722" lon="17.4552893">
        <ele>40.9934</ele>
        <time>2013-05-05T12:30:53Z</time>
      </trkpt>
      <trkpt lat="60.0316607" lon="17.4554293">
        <ele>41.9547</ele>
        <time>2013-05-05T12:30:54Z</time>
      </trkpt>
      <trkpt lat="60.0316507" lon="17.4555711">
        <ele>42.916</ele>
        <time>2013-05-05T12:30:55Z</time>
      </trkpt>
      <trkpt lat="60.0316416" lon="17.4557308">
        <ele>42.4354</ele>
        <time>2013-05-05T12:30:56Z</time>
      </trkpt>
      <trkpt lat="60.0316396" lon="17.4558973">
        <ele>42.916</ele>
        <time>2013-05-05T12:30:57Z</time>
      </trkpt>
      <trkpt lat="60.0316498" lon="17.4560692">
        <ele>42.916</ele>
        <time>2013-05-05T12:30:58Z</time>
      </trkpt>
      <trkpt lat="60.0316698" lon="17.4562433">
        <ele>42.916</ele>
        <time>2013-05-05T12:30:59Z</time>
      </trkpt>
      <trkpt lat="60.0316939" lon="17.4564126">
        <ele>42.4354</ele>
        <time>2013-05-05T12:31:00Z</time>
      </trkpt>
      <trkpt lat="60.0317213" lon="17.4565803">
        <ele>42.4354</ele>
        <time>2013-05-05T12:31:01Z</time>
      </trkpt>
      <trkpt lat="60.0317565" lon="17.4567427">
        <ele>42.4354</ele>
        <time>2013-05-05T12:31:02Z</time>
      </trkpt>
      <trkpt lat="60.0317877" lon="17.4569048">
        <ele>42.4354</ele>
        <time>2013-05-05T12:31:03Z</time>
      </trkpt>
      <trkpt lat="60.0318195" lon="17.4570638">
        <ele>42.4354</ele>
        <time>2013-05-05T12:31:04Z</time>
      </trkpt>
      <trkpt lat="60.0318521" lon="17.4572179">
        <ele>42.4354</ele>
        <time>2013-05-05T12:31:05Z</time>
      </trkpt>
      <trkpt lat="60.0318953" lon="17.4573688">
        <ele>44.358</ele>
        <time>2013-05-05T12:31:06Z</time>
      </trkpt>
      <trkpt lat="60.0319265" lon="17.4575263">
        <ele>44.358</ele>
        <time>2013-05-05T12:31:07Z</time>
      </trkpt>
      <trkpt lat="60.0319557" lon="17.4576874">
        <ele>44.358</ele>
        <time>2013-05-05T12:31:08Z</time>
      </trkpt>
      <trkpt lat="60.0319868" lon="17.4578407">
        <ele>43.8773</ele>
        <time>2013-05-05T12:31:09Z</time>
      </trkpt>
      <trkpt lat="60.0320151" lon="17.4579915">
        <ele>43.8773</ele>
        <time>2013-05-05T12:31:10Z</time>
      </trkpt>
      <trkpt lat="60.0320511" lon="17.4581406">
        <ele>44.358</ele>
        <time>2013-05-05T12:31:11Z</time>
      </trkpt>
      <trkpt lat="60.0320762" lon="17.4582979">
        <ele>43.8773</ele>
        <time>2013-05-05T12:31:12Z</time>
      </trkpt>
      <trkpt lat="60.0320966" lon="17.458465">
        <ele>43.3966</ele>
        <time>2013-05-05T12:31:13Z</time>
      </trkpt>
      <trkpt lat="60.0321107" lon="17.458635">
        <ele>43.3966</ele>
        <time>2013-05-05T12:31:14Z</time>
      </trkpt>
      <trkpt lat="60.0321438" lon="17.458841">
        <ele>43.3966</ele>
        <time>2013-05-05T12:31:15Z</time>
      </trkpt>
      <trkpt lat="60.0321502" lon="17.459015">
        <ele>43.3966</ele>
        <time>2013-05-05T12:31:16Z</time>
      </trkpt>
      <trkpt lat="60.032144" lon="17.4592285">
        <ele>43.3966</ele>
        <time>2013-05-05T12:31:17Z</time>
      </trkpt>
      <trkpt lat="60.0321471" lon="17.4594016">
        <ele>43.8773</ele>
        <time>2013-05-05T12:31:18Z</time>
      </trkpt>
      <trkpt lat="60.0321424" lon="17.4595859">
        <ele>44.358</ele>
        <time>2013-05-05T12:31:19Z</time>
      </trkpt>
      <trkpt lat="60.032134" lon="17.45976">
        <ele>43.8773</ele>
        <time>2013-05-05T12:31:20Z</time>
      </trkpt>
      <trkpt lat="60.0321378" lon="17.459932">
        <ele>43.3966</ele>
        <time>2013-05-05T12:31:21Z</time>
      </trkpt>
      <trkpt lat="60.0321286" lon="17.4601107">
        <ele>42.916</ele>
        <time>2013-05-05T12:31:22Z</time>
      </trkpt>
      <trkpt lat="60.0321293" lon="17.4602827">
        <ele>42.4354</ele>
        <time>2013-05-05T12:31:23Z</time>
      </trkpt>
      <trkpt lat="60.0321267" lon="17.4604603">
        <ele>42.4354</ele>
        <time>2013-05-05T12:31:24Z</time>
      </trkpt>
      <trkpt lat="60.0321243" lon="17.4606309">
        <ele>42.4354</ele>
        <time>2013-05-05T12:31:25Z</time>
      </trkpt>
      <trkpt lat="60.0321237" lon="17.4608027">
        <ele>41.9547</ele>
        <time>2013-05-05T12:31:26Z</time>
      </trkpt>
      <trkpt lat="60.0321236" lon="17.4609649">
        <ele>41.474</ele>
        <time>2013-05-05T12:31:27Z</time>
      </trkpt>
      <trkpt lat="60.0321326" lon="17.4611255">
        <ele>40.9934</ele>
        <time>2013-05-05T12:31:28Z</time>
      </trkpt>
      <trkpt lat="60.0321446" lon="17.4612923">
        <ele>40.5128</ele>
        <time>2013-05-05T12:31:29Z</time>
      </trkpt>
      <trkpt lat="60.0321602" lon="17.4614595">
        <ele>39.5513</ele>
        <time>2013-05-05T12:31:30Z</time>
      </trkpt>
      <trkpt lat="60.0321854" lon="17.4616211">
        <ele>39.0707</ele>
        <time>2013-05-05T12:31:31Z</time>
      </trkpt>
      <trkpt lat="60.032229" lon="17.4617755">
        <ele>39.0707</ele>
        <time>2013-05-05T12:31:32Z</time>
      </trkpt>
      <trkpt lat="60.0322811" lon="17.4619293">
        <ele>39.5513</ele>
        <time>2013-05-05T12:31:33Z</time>
      </trkpt>
      <trkpt lat="60.0323393" lon="17.4620795">
        <ele>40.0321</ele>
        <time>2013-05-05T12:31:34Z</time>
      </trkpt>
      <trkpt lat="60.0323971" lon="17.4622308">
        <ele>41.474</ele>
        <time>2013-05-05T12:31:35Z</time>
      </trkpt>
      <trkpt lat="60.0324517" lon="17.4623846">
        <ele>41.9547</ele>
        <time>2013-05-05T12:31:36Z</time>
      </trkpt>
      <trkpt lat="60.0324968" lon="17.4625332">
        <ele>41.474</ele>
        <time>2013-05-05T12:31:37Z</time>
      </trkpt>
      <trkpt lat="60.0325391" lon="17.4626922">
        <ele>41.474</ele>
        <time>2013-05-05T12:31:38Z</time>
      </trkpt>
      <trkpt lat="60.0325858" lon="17.4628525">
        <ele>41.9547</ele>
        <time>2013-05-05T12:31:39Z</time>
      </trkpt>
      <trkpt lat="60.0326323" lon="17.4630188">
        <ele>42.4354</ele>
        <time>2013-05-05T12:31:40Z</time>
      </trkpt>
      <trkpt lat="60.032677" lon="17.4631876">
        <ele>42.916</ele>
        <time>2013-05-05T12:31:41Z</time>
      </trkpt>
      <trkpt lat="60.0327091" lon="17.4633543">
        <ele>42.916</ele>
        <time>2013-05-05T12:31:42Z</time>
      </trkpt>
      <trkpt lat="60.0327372" lon="17.4635291">
        <ele>42.916</ele>
        <time>2013-05-05T12:31:43Z</time>
      </trkpt>
      <trkpt lat="60.0327599" lon="17.4637108">
        <ele>42.4354</ele>
        <time>2013-05-05T12:31:44Z</time>
      </trkpt>
      <trkpt lat="60.0327774" lon="17.4638953">
        <ele>42.4354</ele>
        <time>2013-05-05T12:31:45Z</time>
      </trkpt>
      <trkpt lat="60.0327926" lon="17.4640802">
        <ele>42.4354</ele>
        <time>2013-05-05T12:31:46Z</time>
      </trkpt>
      <trkpt lat="60.0328038" lon="17.4642661">
        <ele>42.4354</ele>
        <time>2013-05-05T12:31:47Z</time>
      </trkpt>
      <trkpt lat="60.0328159" lon="17.4644491">
        <ele>42.916</ele>
        <time>2013-05-05T12:31:48Z</time>
      </trkpt>
      <trkpt lat="60.032823" lon="17.4646318">
        <ele>42.916</ele>
        <time>2013-05-05T12:31:49Z</time>
      </trkpt>
      <trkpt lat="60.0328251" lon="17.4648135">
        <ele>41.474</ele>
        <time>2013-05-05T12:31:50Z</time>
      </trkpt>
      <trkpt lat="60.0328328" lon="17.4649846">
        <ele>41.474</ele>
        <time>2013-05-05T12:31:51Z</time>
      </trkpt>
      <trkpt lat="60.0328433" lon="17.4651586">
        <ele>41.9547</ele>
        <time>2013-05-05T12:31:52Z</time>
      </trkpt>
      <trkpt lat="60.0328514" lon="17.4653395">
        <ele>41.9547</ele>
        <time>2013-05-05T12:31:53Z</time>
      </trkpt>
      <trkpt lat="60.0328594" lon="17.4655174">
        <ele>41.9547</ele>
        <time>2013-05-05T12:31:54Z</time>
      </trkpt>
      <trkpt lat="60.0328711" lon="17.46569">
        <ele>42.4354</ele>
        <time>2013-05-05T12:31:55Z</time>
      </trkpt>
      <trkpt lat="60.0328822" lon="17.4658648">
        <ele>42.4354</ele>
        <time>2013-05-05T12:31:56Z</time>
      </trkpt>
      <trkpt lat="60.0329018" lon="17.4660277">
        <ele>43.3966</ele>
        <time>2013-05-05T12:31:57Z</time>
      </trkpt>
      <trkpt lat="60.0329256" lon="17.4661867">
        <ele>43.8773</ele>
        <time>2013-05-05T12:31:58Z</time>
      </trkpt>
      <trkpt lat="60.0329552" lon="17.4663461">
        <ele>43.8773</ele>
        <time>2013-05-05T12:31:59Z</time>
      </trkpt>
      <trkpt lat="60.0329894" lon="17.4665037">
        <ele>43.8773</ele>
        <time>2013-05-05T12:32:00Z</time>
      </trkpt>
      <trkpt lat="60.0330298" lon="17.4666561">
        <ele>44.358</ele>
        <time>2013-05-05T12:32:01Z</time>
      </trkpt>
      <trkpt lat="60.0330684" lon="17.4668137">
        <ele>44.358</ele>
        <time>2013-05-05T12:32:02Z</time>
      </trkpt>
      <trkpt lat="60.0331107" lon="17.466969">
        <ele>44.8386</ele>
        <time>2013-05-05T12:32:03Z</time>
      </trkpt>
      <trkpt lat="60.033152" lon="17.4671248">
        <ele>44.358</ele>
        <time>2013-05-05T12:32:04Z</time>
      </trkpt>
      <trkpt lat="60.0331967" lon="17.4672835">
        <ele>44.358</ele>
        <time>2013-05-05T12:32:05Z</time>
      </trkpt>
      <trkpt lat="60.0332432" lon="17.4674463">
        <ele>44.8386</ele>
        <time>2013-05-05T12:32:06Z</time>
      </trkpt>
      <trkpt lat="60.0332888" lon="17.4676112">
        <ele>44.8386</ele>
        <time>2013-05-05T12:32:07Z</time>
      </trkpt>
      <trkpt lat="60.033337" lon="17.4677747">
        <ele>45.3192</ele>
        <time>2013-05-05T12:32:08Z</time>
      </trkpt>
      <trkpt lat="60.0333868" lon="17.4679397">
        <ele>45.3192</ele>
        <time>2013-05-05T12:32:09Z</time>
      </trkpt>
      <trkpt lat="60.0334391" lon="17.468104">
        <ele>45.7999</ele>
        <time>2013-05-05T12:32:10Z</time>
      </trkpt>
      <trkpt lat="60.0334877" lon="17.4682715">
        <ele>45.7999</ele>
        <time>2013-05-05T12:32:11Z</time>
      </trkpt>
      <trkpt lat="60.0335355" lon="17.4684425">
        <ele>45.3192</ele>
        <time>2013-05-05T12:32:12Z</time>
      </trkpt>
      <trkpt lat="60.0335818" lon="17.4686172">
        <ele>44.8386</ele>
        <time>2013-05-05T12:32:13Z</time>
      </trkpt>
      <trkpt lat="60.0336265" lon="17.4687929">
        <ele>44.358</ele>
        <time>2013-05-05T12:32:14Z</time>
      </trkpt>
      <trkpt lat="60.033672" lon="17.468969">
        <ele>44.358</ele>
        <time>2013-05-05T12:32:15Z</time>
      </trkpt>
      <trkpt lat="60.0337185" lon="17.4691482">
        <ele>43.8773</ele>
        <time>2013-05-05T12:32:16Z</time>
      </trkpt>
      <trkpt lat="60.033766" lon="17.4693292">
        <ele>43.3966</ele>
        <time>2013-05-05T12:32:17Z</time>
      </trkpt>
      <trkpt lat="60.0338146" lon="17.4695077">
        <ele>43.3966</ele>
        <time>2013-05-05T12:32:18Z</time>
      </trkpt>
      <trkpt lat="60.033862" lon="17.4696845">
        <ele>42.916</ele>
        <time>2013-05-05T12:32:19Z</time>
      </trkpt>
      <trkpt lat="60.0339089" lon="17.4698595">
        <ele>42.4354</ele>
        <time>2013-05-05T12:32:20Z</time>
      </trkpt>
      <trkpt lat="60.0339559" lon="17.4700311">
        <ele>42.4354</ele>
        <time>2013-05-05T12:32:21Z</time>
      </trkpt>
      <trkpt lat="60.0340011" lon="17.4701978">
        <ele>41.9547</ele>
        <time>2013-05-05T12:32:22Z</time>
      </trkpt>
      <trkpt lat="60.0340451" lon="17.4703619">
        <ele>42.4354</ele>
        <time>2013-05-05T12:32:23Z</time>
      </trkpt>
      <trkpt lat="60.034087" lon="17.4705214">
        <ele>42.916</ele>
        <time>2013-05-05T12:32:24Z</time>
      </trkpt>
      <trkpt lat="60.0341279" lon="17.4706821">
        <ele>42.916</ele>
        <time>2013-05-05T12:32:25Z</time>
      </trkpt>
      <trkpt lat="60.034169" lon="17.4708443">
        <ele>42.916</ele>
        <time>2013-05-05T12:32:26Z</time>
      </trkpt>
      <trkpt lat="60.0342103" lon="17.471009">
        <ele>42.916</ele>
        <time>2013-05-05T12:32:27Z</time>
      </trkpt>
      <trkpt lat="60.0342528" lon="17.4711738">
        <ele>42.916</ele>
        <time>2013-05-05T12:32:28Z</time>
      </trkpt>
      <trkpt lat="60.0342963" lon="17.4713379">
        <ele>42.916</ele>
        <time>2013-05-05T12:32:29Z</time>
      </trkpt>
      <trkpt lat="60.0343386" lon="17.4715034">
        <ele>42.4354</ele>
        <time>2013-05-05T12:32:30Z</time>
      </trkpt>
      <trkpt lat="60.0343801" lon="17.4716693">
        <ele>42.4354</ele>
        <time>2013-05-05T12:32:31Z</time>
      </trkpt>
      <trkpt lat="60.0344233" lon="17.4718287">
        <ele>41.9547</ele>
        <time>2013-05-05T12:32:32Z</time>
      </trkpt>
      <trkpt lat="60.0344692" lon="17.4719854">
        <ele>41.474</ele>
        <time>2013-05-05T12:32:33Z</time>
      </trkpt>
      <trkpt lat="60.0345154" lon="17.4721374">
        <ele>41.474</ele>
        <time>2013-05-05T12:32:34Z</time>
      </trkpt>
      <trkpt lat="60.0345575" lon="17.4722937">
        <ele>40.9934</ele>
        <time>2013-05-05T12:32:35Z</time>
      </trkpt>
      <trkpt lat="60.0345971" lon="17.4724553">
        <ele>40.9934</ele>
        <time>2013-05-05T12:32:36Z</time>
      </trkpt>
      <trkpt lat="60.0346365" lon="17.4726179">
        <ele>40.9934</ele>
        <time>2013-05-05T12:32:37Z</time>
      </trkpt>
      <trkpt lat="60.0346771" lon="17.4727789">
        <ele>40.5128</ele>
        <time>2013-05-05T12:32:38Z</time>
      </trkpt>
      <trkpt lat="60.0347216" lon="17.4729376">
        <ele>40.5128</ele>
        <time>2013-05-05T12:32:39Z</time>
      </trkpt>
      <trkpt lat="60.0347688" lon="17.4730941">
        <ele>40.5128</ele>
        <time>2013-05-05T12:32:40Z</time>
      </trkpt>
      <trkpt lat="60.0348211" lon="17.4732474">
        <ele>40.0321</ele>
        <time>2013-05-05T12:32:41Z</time>
      </trkpt>
      <trkpt lat="60.0348775" lon="17.4733961">
        <ele>40.0321</ele>
        <time>2013-05-05T12:32:42Z</time>
      </trkpt>
      <trkpt lat="60.0349381" lon="17.4735432">
        <ele>40.0321</ele>
        <time>2013-05-05T12:32:43Z</time>
      </trkpt>
      <trkpt lat="60.035002" lon="17.4736893">
        <ele>40.0321</ele>
        <time>2013-05-05T12:32:44Z</time>
      </trkpt>
      <trkpt lat="60.0350688" lon="17.4738358">
        <ele>40.0321</ele>
        <time>2013-05-05T12:32:45Z</time>
      </trkpt>
      <trkpt lat="60.035136" lon="17.4739845">
        <ele>39.5513</ele>
        <time>2013-05-05T12:32:46Z</time>
      </trkpt>
      <trkpt lat="60.0352021" lon="17.4741358">
        <ele>39.5513</ele>
        <time>2013-05-05T12:32:47Z</time>
      </trkpt>
      <trkpt lat="60.0352663" lon="17.47429">
        <ele>39.5513</ele>
        <time>2013-05-05T12:32:48Z</time>
      </trkpt>
      <trkpt lat="60.0353292" lon="17.4744479">
        <ele>39.5513</ele>
        <time>2013-05-05T12:32:49Z</time>
      </trkpt>
      <trkpt lat="60.0353893" lon="17.4746104">
        <ele>39.0707</ele>
        <time>2013-05-05T12:32:50Z</time>
      </trkpt>
      <trkpt lat="60.0354463" lon="17.474778">
        <ele>39.0707</ele>
        <time>2013-05-05T12:32:51Z</time>
      </trkpt>
      <trkpt lat="60.0354986" lon="17.4749479">
        <ele>39.0707</ele>
        <time>2013-05-05T12:32:52Z</time>
      </trkpt>
      <trkpt lat="60.0355452" lon="17.47512">
        <ele>39.0707</ele>
        <time>2013-05-05T12:32:53Z</time>
      </trkpt>
      <trkpt lat="60.0355882" lon="17.4752951">
        <ele>39.0707</ele>
        <time>2013-05-05T12:32:54Z</time>
      </trkpt>
      <trkpt lat="60.0356272" lon="17.4754727">
        <ele>39.5513</ele>
        <time>2013-05-05T12:32:55Z</time>
      </trkpt>
      <trkpt lat="60.0356611" lon="17.4756518">
        <ele>39.5513</ele>
        <time>2013-05-05T12:32:56Z</time>
      </trkpt>
      <trkpt lat="60.0356906" lon="17.4758312">
        <ele>39.5513</ele>
        <time>2013-05-05T12:32:57Z</time>
      </trkpt>
      <trkpt lat="60.0357149" lon="17.4760123">
        <ele>39.5513</ele>
        <time>2013-05-05T12:32:58Z</time>
      </trkpt>
      <trkpt lat="60.0357333" lon="17.4761947">
        <ele>39.5513</ele>
        <time>2013-05-05T12:32:59Z</time>
      </trkpt>
      <trkpt lat="60.0357442" lon="17.4763791">
        <ele>39.5513</ele>
        <time>2013-05-05T12:33:00Z</time>
      </trkpt>
      <trkpt lat="60.035757" lon="17.4765628">
        <ele>40.0321</ele>
        <time>2013-05-05T12:33:01Z</time>
      </trkpt>
      <trkpt lat="60.0357644" lon="17.4767476">
        <ele>40.0321</ele>
        <time>2013-05-05T12:33:02Z</time>
      </trkpt>
      <trkpt lat="60.0357699" lon="17.4769332">
        <ele>40.0321</ele>
        <time>2013-05-05T12:33:03Z</time>
      </trkpt>
      <trkpt lat="60.0357742" lon="17.47712">
        <ele>40.0321</ele>
        <time>2013-05-05T12:33:04Z</time>
      </trkpt>
      <trkpt lat="60.0357783" lon="17.4773087">
        <ele>40.0321</ele>
        <time>2013-05-05T12:33:05Z</time>
      </trkpt>
      <trkpt lat="60.0357816" lon="17.4774977">
        <ele>40.5128</ele>
        <time>2013-05-05T12:33:06Z</time>
      </trkpt>
      <trkpt lat="60.0357861" lon="17.477685">
        <ele>40.5128</ele>
        <time>2013-05-05T12:33:07Z</time>
      </trkpt>
      <trkpt lat="60.0357891" lon="17.4778727">
        <ele>40.0321</ele>
        <time>2013-05-05T12:33:08Z</time>
      </trkpt>
      <trkpt lat="60.0357913" lon="17.4780597">
        <ele>39.5513</ele>
        <time>2013-05-05T12:33:09Z</time>
      </trkpt>
      <trkpt lat="60.0357935" lon="17.4782444">
        <ele>39.5513</ele>
        <time>2013-05-05T12:33:10Z</time>
      </trkpt>
      <trkpt lat="60.0357965" lon="17.4784296">
        <ele>39.5513</ele>
        <time>2013-05-05T12:33:11Z</time>
      </trkpt>
      <trkpt lat="60.0357994" lon="17.4786175">
        <ele>39.5513</ele>
        <time>2013-05-05T12:33:12Z</time>
      </trkpt>
      <trkpt lat="60.0358035" lon="17.4788056">
        <ele>39.0707</ele>
        <time>2013-05-05T12:33:13Z</time>
      </trkpt>
      <trkpt lat="60.0358094" lon="17.4789927">
        <ele>39.0707</ele>
        <time>2013-05-05T12:33:14Z</time>
      </trkpt>
      <trkpt lat="60.0358165" lon="17.4791767">
        <ele>39.5513</ele>
        <time>2013-05-05T12:33:15Z</time>
      </trkpt>
      <trkpt lat="60.0358213" lon="17.4793582">
        <ele>39.5513</ele>
        <time>2013-05-05T12:33:16Z</time>
      </trkpt>
      <trkpt lat="60.0358258" lon="17.479537">
        <ele>40.0321</ele>
        <time>2013-05-05T12:33:17Z</time>
      </trkpt>
      <trkpt lat="60.03583" lon="17.4797148">
        <ele>40.0321</ele>
        <time>2013-05-05T12:33:18Z</time>
      </trkpt>
      <trkpt lat="60.0358338" lon="17.479893">
        <ele>40.0321</ele>
        <time>2013-05-05T12:33:19Z</time>
      </trkpt>
      <trkpt lat="60.0358388" lon="17.4800721">
        <ele>40.0321</ele>
        <time>2013-05-05T12:33:20Z</time>
      </trkpt>
      <trkpt lat="60.0358447" lon="17.4802519">
        <ele>40.0321</ele>
        <time>2013-05-05T12:33:21Z</time>
      </trkpt>
      <trkpt lat="60.0358501" lon="17.4804358">
        <ele>40.0321</ele>
        <time>2013-05-05T12:33:22Z</time>
      </trkpt>
      <trkpt lat="60.035856" lon="17.4806141">
        <ele>40.5128</ele>
        <time>2013-05-05T12:33:23Z</time>
      </trkpt>
      <trkpt lat="60.0358622" lon="17.4807926">
        <ele>40.5128</ele>
        <time>2013-05-05T12:33:24Z</time>
      </trkpt>
      <trkpt lat="60.0358693" lon="17.4809713">
        <ele>40.5128</ele>
        <time>2013-05-05T12:33:25Z</time>
      </trkpt>
      <trkpt lat="60.0358762" lon="17.4811495">
        <ele>40.9934</ele>
        <time>2013-05-05T12:33:26Z</time>
      </trkpt>
      <trkpt lat="60.0358854" lon="17.4813276">
        <ele>40.9934</ele>
        <time>2013-05-05T12:33:27Z</time>
      </trkpt>
      <trkpt lat="60.0358985" lon="17.4815045">
        <ele>41.474</ele>
        <time>2013-05-05T12:33:28Z</time>
      </trkpt>
      <trkpt lat="60.0359141" lon="17.4816801">
        <ele>40.9934</ele>
        <time>2013-05-05T12:33:29Z</time>
      </trkpt>
      <trkpt lat="60.0359332" lon="17.481853">
        <ele>40.9934</ele>
        <time>2013-05-05T12:33:30Z</time>
      </trkpt>
      <trkpt lat="60.0359527" lon="17.4820218">
        <ele>41.9547</ele>
        <time>2013-05-05T12:33:31Z</time>
      </trkpt>
      <trkpt lat="60.0359726" lon="17.4821944">
        <ele>41.9547</ele>
        <time>2013-05-05T12:33:32Z</time>
      </trkpt>
      <trkpt lat="60.0359945" lon="17.482368">
        <ele>40.9934</ele>
        <time>2013-05-05T12:33:33Z</time>
      </trkpt>
      <trkpt lat="60.0360182" lon="17.4825409">
        <ele>41.474</ele>
        <time>2013-05-05T12:33:34Z</time>
      </trkpt>
      <trkpt lat="60.0360415" lon="17.4827171">
        <ele>40.9934</ele>
        <time>2013-05-05T12:33:35Z</time>
      </trkpt>
      <trkpt lat="60.0360658" lon="17.4828943">
        <ele>40.9934</ele>
        <time>2013-05-05T12:33:36Z</time>
      </trkpt>
      <trkpt lat="60.0360896" lon="17.4830718">
        <ele>41.474</ele>
        <time>2013-05-05T12:33:37Z</time>
      </trkpt>
      <trkpt lat="60.0361125" lon="17.4832507">
        <ele>41.474</ele>
        <time>2013-05-05T12:33:38Z</time>
      </trkpt>
      <trkpt lat="60.0361341" lon="17.4834315">
        <ele>41.474</ele>
        <time>2013-05-05T12:33:39Z</time>
      </trkpt>
      <trkpt lat="60.0361537" lon="17.4836122">
        <ele>41.9547</ele>
        <time>2013-05-05T12:33:40Z</time>
      </trkpt>
      <trkpt lat="60.0361724" lon="17.4837926">
        <ele>41.9547</ele>
        <time>2013-05-05T12:33:41Z</time>
      </trkpt>
      <trkpt lat="60.0361889" lon="17.4839702">
        <ele>41.9547</ele>
        <time>2013-05-05T12:33:42Z</time>
      </trkpt>
      <trkpt lat="60.0362024" lon="17.4841446">
        <ele>41.9547</ele>
        <time>2013-05-05T12:33:43Z</time>
      </trkpt>
      <trkpt lat="60.0362102" lon="17.4843179">
        <ele>42.4354</ele>
        <time>2013-05-05T12:33:44Z</time>
      </trkpt>
      <trkpt lat="60.0362109" lon="17.4844925">
        <ele>41.9547</ele>
        <time>2013-05-05T12:33:45Z</time>
      </trkpt>
      <trkpt lat="60.0362072" lon="17.484668">
        <ele>41.474</ele>
        <time>2013-05-05T12:33:46Z</time>
      </trkpt>
      <trkpt lat="60.0362012" lon="17.4848452">
        <ele>41.474</ele>
        <time>2013-05-05T12:33:47Z</time>
      </trkpt>
      <trkpt lat="60.0361954" lon="17.4850243">
        <ele>41.474</ele>
        <time>2013-05-05T12:33:48Z</time>
      </trkpt>
      <trkpt lat="60.0361886" lon="17.4852062">
        <ele>41.474</ele>
        <time>2013-05-05T12:33:49Z</time>
      </trkpt>
      <trkpt lat="60.036182" lon="17.4853901">
        <ele>41.9547</ele>
        <time>2013-05-05T12:33:50Z</time>
      </trkpt>
      <trkpt lat="60.0361753" lon="17.485574">
        <ele>41.9547</ele>
        <time>2013-05-05T12:33:51Z</time>
      </trkpt>
      <trkpt lat="60.0361692" lon="17.4857561">
        <ele>41.9547</ele>
        <time>2013-05-05T12:33:52Z</time>
      </trkpt>
      <trkpt lat="60.0361636" lon="17.4859375">
        <ele>41.474</ele>
        <time>2013-05-05T12:33:53Z</time>
      </trkpt>
      <trkpt lat="60.0361586" lon="17.4861169">
        <ele>41.474</ele>
        <time>2013-05-05T12:33:54Z</time>
      </trkpt>
      <trkpt lat="60.0361553" lon="17.4862986">
        <ele>41.474</ele>
        <time>2013-05-05T12:33:55Z</time>
      </trkpt>
      <trkpt lat="60.0361539" lon="17.4864784">
        <ele>41.9547</ele>
        <time>2013-05-05T12:33:56Z</time>
      </trkpt>
      <trkpt lat="60.0361565" lon="17.4866591">
        <ele>41.9547</ele>
        <time>2013-05-05T12:33:57Z</time>
      </trkpt>
      <trkpt lat="60.0361652" lon="17.4868389">
        <ele>42.4354</ele>
        <time>2013-05-05T12:33:58Z</time>
      </trkpt>
      <trkpt lat="60.0361818" lon="17.4870161">
        <ele>42.4354</ele>
        <time>2013-05-05T12:33:59Z</time>
      </trkpt>
      <trkpt lat="60.0362019" lon="17.4871903">
        <ele>42.916</ele>
        <time>2013-05-05T12:34:00Z</time>
      </trkpt>
      <trkpt lat="60.0362223" lon="17.4873617">
        <ele>42.916</ele>
        <time>2013-05-05T12:34:01Z</time>
      </trkpt>
      <trkpt lat="60.0362469" lon="17.4875311">
        <ele>42.916</ele>
        <time>2013-05-05T12:34:02Z</time>
      </trkpt>
      <trkpt lat="60.0362739" lon="17.4877009">
        <ele>42.916</ele>
        <time>2013-05-05T12:34:03Z</time>
      </trkpt>
      <trkpt lat="60.036301" lon="17.4878709">
        <ele>43.3966</ele>
        <time>2013-05-05T12:34:04Z</time>
      </trkpt>
      <trkpt lat="60.0363285" lon="17.4880419">
        <ele>43.3966</ele>
        <time>2013-05-05T12:34:05Z</time>
      </trkpt>
      <trkpt lat="60.03636" lon="17.4882117">
        <ele>43.8773</ele>
        <time>2013-05-05T12:34:06Z</time>
      </trkpt>
      <trkpt lat="60.036384" lon="17.4883847">
        <ele>43.8773</ele>
        <time>2013-05-05T12:34:07Z</time>
      </trkpt>
      <trkpt lat="60.0364065" lon="17.488558">
        <ele>44.358</ele>
        <time>2013-05-05T12:34:08Z</time>
      </trkpt>
      <trkpt lat="60.0364304" lon="17.4887328">
        <ele>44.358</ele>
        <time>2013-05-05T12:34:09Z</time>
      </trkpt>
      <trkpt lat="60.0364513" lon="17.4889094">
        <ele>44.358</ele>
        <time>2013-05-05T12:34:10Z</time>
      </trkpt>
      <trkpt lat="60.0364703" lon="17.4890862">
        <ele>44.358</ele>
        <time>2013-05-05T12:34:11Z</time>
      </trkpt>
      <trkpt lat="60.0364875" lon="17.4892628">
        <ele>44.358</ele>
        <time>2013-05-05T12:34:12Z</time>
      </trkpt>
      <trkpt lat="60.0365036" lon="17.4894417">
        <ele>44.358</ele>
        <time>2013-05-05T12:34:13Z</time>
      </trkpt>
      <trkpt lat="60.0365197" lon="17.4896241">
        <ele>43.8773</ele>
        <time>2013-05-05T12:34:14Z</time>
      </trkpt>
      <trkpt lat="60.0365366" lon="17.4898097">
        <ele>43.8773</ele>
        <time>2013-05-05T12:34:15Z</time>
      </trkpt>
      <trkpt lat="60.0365564" lon="17.4900003">
        <ele>44.358</ele>
        <time>2013-05-05T12:34:16Z</time>
      </trkpt>
      <trkpt lat="60.0365771" lon="17.4901908">
        <ele>44.358</ele>
        <time>2013-05-05T12:34:17Z</time>
      </trkpt>
      <trkpt lat="60.036594" lon="17.490379">
        <ele>44.358</ele>
        <time>2013-05-05T12:34:18Z</time>
      </trkpt>
      <trkpt lat="60.0366118" lon="17.490564">
        <ele>44.358</ele>
        <time>2013-05-05T12:34:19Z</time>
      </trkpt>
      <trkpt lat="60.0366289" lon="17.4907464">
        <ele>44.358</ele>
        <time>2013-05-05T12:34:20Z</time>
      </trkpt>
      <trkpt lat="60.0366461" lon="17.4909244">
        <ele>43.8773</ele>
        <time>2013-05-05T12:34:21Z</time>
      </trkpt>
      <trkpt lat="60.036665" lon="17.491097">
        <ele>43.8773</ele>
        <time>2013-05-05T12:34:22Z</time>
      </trkpt>
      <trkpt lat="60.0366859" lon="17.4912646">
        <ele>43.3966</ele>
        <time>2013-05-05T12:34:23Z</time>
      </trkpt>
      <trkpt lat="60.0367103" lon="17.4914276">
        <ele>43.3966</ele>
        <time>2013-05-05T12:34:24Z</time>
      </trkpt>
      <trkpt lat="60.036738" lon="17.4915874">
        <ele>42.916</ele>
        <time>2013-05-05T12:34:25Z</time>
      </trkpt>
      <trkpt lat="60.036767" lon="17.4917466">
        <ele>42.916</ele>
        <time>2013-05-05T12:34:26Z</time>
      </trkpt>
      <trkpt lat="60.0367968" lon="17.4919072">
        <ele>42.916</ele>
        <time>2013-05-05T12:34:27Z</time>
      </trkpt>
      <trkpt lat="60.0368285" lon="17.4920683">
        <ele>42.916</ele>
        <time>2013-05-05T12:34:28Z</time>
      </trkpt>
      <trkpt lat="60.0368621" lon="17.49223">
        <ele>42.4354</ele>
        <time>2013-05-05T12:34:29Z</time>
      </trkpt>
      <trkpt lat="60.0368976" lon="17.4923935">
        <ele>42.4354</ele>
        <time>2013-05-05T12:34:30Z</time>
      </trkpt>
      <trkpt lat="60.0369354" lon="17.4925553">
        <ele>41.9547</ele>
        <time>2013-05-05T12:34:31Z</time>
      </trkpt>
      <trkpt lat="60.0369743" lon="17.4927173">
        <ele>41.9547</ele>
        <time>2013-05-05T12:34:32Z</time>
      </trkpt>
      <trkpt lat="60.0370138" lon="17.4928789">
        <ele>41.474</ele>
        <time>2013-05-05T12:34:33Z</time>
      </trkpt>
      <trkpt lat="60.0370528" lon="17.4930421">
        <ele>41.474</ele>
        <time>2013-05-05T12:34:34Z</time>
      </trkpt>
      <trkpt lat="60.0370923" lon="17.4932056">
        <ele>40.9934</ele>
        <time>2013-05-05T12:34:35Z</time>
      </trkpt>
      <trkpt lat="60.0371327" lon="17.4933669">
        <ele>40.9934</ele>
        <time>2013-05-05T12:34:36Z</time>
      </trkpt>
      <trkpt lat="60.0371728" lon="17.4935242">
        <ele>40.9934</ele>
        <time>2013-05-05T12:34:37Z</time>
      </trkpt>
      <trkpt lat="60.0372113" lon="17.4936782">
        <ele>40.9934</ele>
        <time>2013-05-05T12:34:38Z</time>
      </trkpt>
      <trkpt lat="60.0372474" lon="17.4938296">
        <ele>40.9934</ele>
        <time>2013-05-05T12:34:39Z</time>
      </trkpt>
      <trkpt lat="60.037281" lon="17.4939776">
        <ele>40.5128</ele>
        <time>2013-05-05T12:34:40Z</time>
      </trkpt>
      <trkpt lat="60.0373141" lon="17.4941242">
        <ele>40.5128</ele>
        <time>2013-05-05T12:34:41Z</time>
      </trkpt>
      <trkpt lat="60.0373477" lon="17.4942693">
        <ele>40.5128</ele>
        <time>2013-05-05T12:34:42Z</time>
      </trkpt>
      <trkpt lat="60.0373827" lon="17.4944117">
        <ele>40.5128</ele>
        <time>2013-05-05T12:34:43Z</time>
      </trkpt>
      <trkpt lat="60.0374183" lon="17.4945522">
        <ele>40.9934</ele>
        <time>2013-05-05T12:34:44Z</time>
      </trkpt>
      <trkpt lat="60.0374531" lon="17.4946925">
        <ele>40.9934</ele>
        <time>2013-05-05T12:34:45Z</time>
      </trkpt>
      <trkpt lat="60.0374879" lon="17.4948309">
        <ele>41.474</ele>
        <time>2013-05-05T12:34:46Z</time>
      </trkpt>
      <trkpt lat="60.0375213" lon="17.4949696">
        <ele>41.474</ele>
        <time>2013-05-05T12:34:47Z</time>
      </trkpt>
      <trkpt lat="60.0375541" lon="17.4951078">
        <ele>41.474</ele>
        <time>2013-05-05T12:34:48Z</time>
      </trkpt>
      <trkpt lat="60.037587" lon="17.4952437">
        <ele>41.9547</ele>
        <time>2013-05-05T12:34:49Z</time>
      </trkpt>
      <trkpt lat="60.0376208" lon="17.4953769">
        <ele>41.9547</ele>
        <time>2013-05-05T12:34:50Z</time>
      </trkpt>
      <trkpt lat="60.0376545" lon="17.4955093">
        <ele>41.9547</ele>
        <time>2013-05-05T12:34:51Z</time>
      </trkpt>
      <trkpt lat="60.0376865" lon="17.495642">
        <ele>42.4354</ele>
        <time>2013-05-05T12:34:52Z</time>
      </trkpt>
      <trkpt lat="60.0377182" lon="17.4957736">
        <ele>42.4354</ele>
        <time>2013-05-05T12:34:53Z</time>
      </trkpt>
      <trkpt lat="60.0377487" lon="17.4959063">
        <ele>42.4354</ele>
        <time>2013-05-05T12:34:54Z</time>
      </trkpt>
      <trkpt lat="60.0377784" lon="17.4960396">
        <ele>42.4354</ele>
        <time>2013-05-05T12:34:55Z</time>
      </trkpt>
      <trkpt lat="60.0378074" lon="17.4961709">
        <ele>42.4354</ele>
        <time>2013-05-05T12:34:56Z</time>
      </trkpt>
      <trkpt lat="60.0378331" lon="17.4963039">
        <ele>42.4354</ele>
        <time>2013-05-05T12:34:57Z</time>
      </trkpt>
      <trkpt lat="60.0378634" lon="17.4964373">
        <ele>43.3966</ele>
        <time>2013-05-05T12:34:58Z</time>
      </trkpt>
      <trkpt lat="60.0378913" lon="17.4965751">
        <ele>43.8773</ele>
        <time>2013-05-05T12:34:59Z</time>
      </trkpt>
      <trkpt lat="60.0379177" lon="17.4967164">
        <ele>44.358</ele>
        <time>2013-05-05T12:35:00Z</time>
      </trkpt>
      <trkpt lat="60.0379421" lon="17.4968599">
        <ele>44.8386</ele>
        <time>2013-05-05T12:35:01Z</time>
      </trkpt>
      <trkpt lat="60.0379652" lon="17.4970033">
        <ele>44.8386</ele>
        <time>2013-05-05T12:35:02Z</time>
      </trkpt>
      <trkpt lat="60.0379881" lon="17.4971456">
        <ele>45.3192</ele>
        <time>2013-05-05T12:35:03Z</time>
      </trkpt>
      <trkpt lat="60.0380116" lon="17.4972867">
        <ele>45.3192</ele>
        <time>2013-05-05T12:35:04Z</time>
      </trkpt>
      <trkpt lat="60.0380347" lon="17.4974277">
        <ele>45.7999</ele>
        <time>2013-05-05T12:35:05Z</time>
      </trkpt>
      <trkpt lat="60.0380581" lon="17.4975695">
        <ele>46.2806</ele>
        <time>2013-05-05T12:35:06Z</time>
      </trkpt>
      <trkpt lat="60.0380803" lon="17.4977131">
        <ele>46.2806</ele>
        <time>2013-05-05T12:35:07Z</time>
      </trkpt>
      <trkpt lat="60.0381047" lon="17.497856">
        <ele>46.2806</ele>
        <time>2013-05-05T12:35:08Z</time>
      </trkpt>
      <trkpt lat="60.0381326" lon="17.4979957">
        <ele>46.2806</ele>
        <time>2013-05-05T12:35:09Z</time>
      </trkpt>
      <trkpt lat="60.0381659" lon="17.4981327">
        <ele>46.7612</ele>
        <time>2013-05-05T12:35:10Z</time>
      </trkpt>
      <trkpt lat="60.0381989" lon="17.4982674">
        <ele>46.7612</ele>
        <time>2013-05-05T12:35:11Z</time>
      </trkpt>
      <trkpt lat="60.0382362" lon="17.4983983">
        <ele>47.2418</ele>
        <time>2013-05-05T12:35:12Z</time>
      </trkpt>
      <trkpt lat="60.0382783" lon="17.4985259">
        <ele>47.2418</ele>
        <time>2013-05-05T12:35:13Z</time>
      </trkpt>
      <trkpt lat="60.0383244" lon="17.4986475">
        <ele>47.2418</ele>
        <time>2013-05-05T12:35:14Z</time>
      </trkpt>
      <trkpt lat="60.0383741" lon="17.4987628">
        <ele>47.7225</ele>
        <time>2013-05-05T12:35:15Z</time>
      </trkpt>
      <trkpt lat="60.0384228" lon="17.4988742">
        <ele>47.7225</ele>
        <time>2013-05-05T12:35:16Z</time>
      </trkpt>
      <trkpt lat="60.038471" lon="17.4989825">
        <ele>48.2034</ele>
        <time>2013-05-05T12:35:17Z</time>
      </trkpt>
      <trkpt lat="60.0385212" lon="17.4990897">
        <ele>48.684</ele>
        <time>2013-05-05T12:35:18Z</time>
      </trkpt>
      <trkpt lat="60.038573" lon="17.499197">
        <ele>49.1646</ele>
        <time>2013-05-05T12:35:19Z</time>
      </trkpt>
      <trkpt lat="60.0386256" lon="17.4993044">
        <ele>49.1646</ele>
        <time>2013-05-05T12:35:20Z</time>
      </trkpt>
      <trkpt lat="60.0386782" lon="17.4994143">
        <ele>49.1646</ele>
        <time>2013-05-05T12:35:21Z</time>
      </trkpt>
      <trkpt lat="60.0387294" lon="17.4995266">
        <ele>49.6453</ele>
        <time>2013-05-05T12:35:22Z</time>
      </trkpt>
      <trkpt lat="60.0387798" lon="17.4996399">
        <ele>49.6453</ele>
        <time>2013-05-05T12:35:23Z</time>
      </trkpt>
      <trkpt lat="60.0388313" lon="17.499753">
        <ele>49.6453</ele>
        <time>2013-05-05T12:35:24Z</time>
      </trkpt>
      <trkpt lat="60.0388837" lon="17.4998655">
        <ele>49.6453</ele>
        <time>2013-05-05T12:35:25Z</time>
      </trkpt>
      <trkpt lat="60.0389349" lon="17.4999777">
        <ele>49.6453</ele>
        <time>2013-05-05T12:35:26Z</time>
      </trkpt>
      <trkpt lat="60.0389865" lon="17.5000884">
        <ele>49.6453</ele>
        <time>2013-05-05T12:35:27Z</time>
      </trkpt>
      <trkpt lat="60.0390393" lon="17.5001978">
        <ele>49.6453</ele>
        <time>2013-05-05T12:35:28Z</time>
      </trkpt>
      <trkpt lat="60.039093" lon="17.5003103">
        <ele>49.1646</ele>
        <time>2013-05-05T12:35:29Z</time>
      </trkpt>
      <trkpt lat="60.0391469" lon="17.500428">
        <ele>49.1646</ele>
        <time>2013-05-05T12:35:30Z</time>
      </trkpt>
      <trkpt lat="60.0392008" lon="17.500551">
        <ele>48.684</ele>
        <time>2013-05-05T12:35:31Z</time>
      </trkpt>
      <trkpt lat="60.0392543" lon="17.500678">
        <ele>48.684</ele>
        <time>2013-05-05T12:35:32Z</time>
      </trkpt>
      <trkpt lat="60.0393075" lon="17.5008062">
        <ele>48.684</ele>
        <time>2013-05-05T12:35:33Z</time>
      </trkpt>
      <trkpt lat="60.039361" lon="17.5009362">
        <ele>48.684</ele>
        <time>2013-05-05T12:35:34Z</time>
      </trkpt>
      <trkpt lat="60.0394133" lon="17.5010708">
        <ele>48.684</ele>
        <time>2013-05-05T12:35:35Z</time>
      </trkpt>
      <trkpt lat="60.0394624" lon="17.5012111">
        <ele>48.2034</ele>
        <time>2013-05-05T12:35:36Z</time>
      </trkpt>
      <trkpt lat="60.039508" lon="17.5013577">
        <ele>48.2034</ele>
        <time>2013-05-05T12:35:37Z</time>
      </trkpt>
      <trkpt lat="60.0395488" lon="17.5015115">
        <ele>47.7225</ele>
        <time>2013-05-05T12:35:38Z</time>
      </trkpt>
      <trkpt lat="60.0395861" lon="17.5016706">
        <ele>47.7225</ele>
        <time>2013-05-05T12:35:39Z</time>
      </trkpt>
      <trkpt lat="60.0396208" lon="17.5018328">
        <ele>47.7225</ele>
        <time>2013-05-05T12:35:40Z</time>
      </trkpt>
      <trkpt lat="60.0396525" lon="17.501997">
        <ele>47.7225</ele>
        <time>2013-05-05T12:35:41Z</time>
      </trkpt>
      <trkpt lat="60.0396826" lon="17.5021628">
        <ele>47.2418</ele>
        <time>2013-05-05T12:35:42Z</time>
      </trkpt>
      <trkpt lat="60.0397119" lon="17.5023299">
        <ele>47.2418</ele>
        <time>2013-05-05T12:35:43Z</time>
      </trkpt>
      <trkpt lat="60.0397406" lon="17.5024978">
        <ele>47.2418</ele>
        <time>2013-05-05T12:35:44Z</time>
      </trkpt>
      <trkpt lat="60.0397715" lon="17.5026643">
        <ele>47.2418</ele>
        <time>2013-05-05T12:35:45Z</time>
      </trkpt>
      <trkpt lat="60.0398022" lon="17.5028299">
        <ele>47.7225</ele>
        <time>2013-05-05T12:35:46Z</time>
      </trkpt>
      <trkpt lat="60.0398312" lon="17.502996">
        <ele>47.7225</ele>
        <time>2013-05-05T12:35:47Z</time>
      </trkpt>
      <trkpt lat="60.0398545" lon="17.5031657">
        <ele>47.2418</ele>
        <time>2013-05-05T12:35:48Z</time>
      </trkpt>
      <trkpt lat="60.0398784" lon="17.5033379">
        <ele>47.2418</ele>
        <time>2013-05-05T12:35:49Z</time>
      </trkpt>
      <trkpt lat="60.0399046" lon="17.5035106">
        <ele>47.2418</ele>
        <time>2013-05-05T12:35:50Z</time>
      </trkpt>
      <trkpt lat="60.0399319" lon="17.5036845">
        <ele>46.7612</ele>
        <time>2013-05-05T12:35:51Z</time>
      </trkpt>
      <trkpt lat="60.0399608" lon="17.5038602">
        <ele>46.7612</ele>
        <time>2013-05-05T12:35:52Z</time>
      </trkpt>
      <trkpt lat="60.0399899" lon="17.5040383">
        <ele>46.7612</ele>
        <time>2013-05-05T12:35:53Z</time>
      </trkpt>
      <trkpt lat="60.0400172" lon="17.5042197">
        <ele>46.7612</ele>
        <time>2013-05-05T12:35:54Z</time>
      </trkpt>
      <trkpt lat="60.0400396" lon="17.5044031">
        <ele>46.7612</ele>
        <time>2013-05-05T12:35:55Z</time>
      </trkpt>
      <trkpt lat="60.0400579" lon="17.504587">
        <ele>46.2806</ele>
        <time>2013-05-05T12:35:56Z</time>
      </trkpt>
      <trkpt lat="60.0400745" lon="17.5047714">
        <ele>46.2806</ele>
        <time>2013-05-05T12:35:57Z</time>
      </trkpt>
      <trkpt lat="60.0400901" lon="17.5049563">
        <ele>46.2806</ele>
        <time>2013-05-05T12:35:58Z</time>
      </trkpt>
      <trkpt lat="60.0401057" lon="17.5051402">
        <ele>45.7999</ele>
        <time>2013-05-05T12:35:59Z</time>
      </trkpt>
      <trkpt lat="60.0401224" lon="17.505321">
        <ele>45.7999</ele>
        <time>2013-05-05T12:36:00Z</time>
      </trkpt>
      <trkpt lat="60.040139" lon="17.5054991">
        <ele>45.7999</ele>
        <time>2013-05-05T12:36:01Z</time>
      </trkpt>
      <trkpt lat="60.0401549" lon="17.5056753">
        <ele>45.7999</ele>
        <time>2013-05-05T12:36:02Z</time>
      </trkpt>
      <trkpt lat="60.0401709" lon="17.5058504">
        <ele>45.3192</ele>
        <time>2013-05-05T12:36:03Z</time>
      </trkpt>
      <trkpt lat="60.0401862" lon="17.5060248">
        <ele>45.3192</ele>
        <time>2013-05-05T12:36:04Z</time>
      </trkpt>
      <trkpt lat="60.0402009" lon="17.5061983">
        <ele>44.8386</ele>
        <time>2013-05-05T12:36:05Z</time>
      </trkpt>
      <trkpt lat="60.0402151" lon="17.5063686">
        <ele>43.8773</ele>
        <time>2013-05-05T12:36:06Z</time>
      </trkpt>
      <trkpt lat="60.040231" lon="17.5065385">
        <ele>43.8773</ele>
        <time>2013-05-05T12:36:07Z</time>
      </trkpt>
      <trkpt lat="60.0402455" lon="17.5067114">
        <ele>43.3966</ele>
        <time>2013-05-05T12:36:08Z</time>
      </trkpt>
      <trkpt lat="60.0402616" lon="17.5068837">
        <ele>43.3966</ele>
        <time>2013-05-05T12:36:09Z</time>
      </trkpt>
      <trkpt lat="60.0402771" lon="17.5070541">
        <ele>42.916</ele>
        <time>2013-05-05T12:36:10Z</time>
      </trkpt>
      <trkpt lat="60.0402918" lon="17.5072224">
        <ele>42.916</ele>
        <time>2013-05-05T12:36:11Z</time>
      </trkpt>
      <trkpt lat="60.0403064" lon="17.5073905">
        <ele>42.4354</ele>
        <time>2013-05-05T12:36:12Z</time>
      </trkpt>
      <trkpt lat="60.0403213" lon="17.5075598">
        <ele>42.4354</ele>
        <time>2013-05-05T12:36:13Z</time>
      </trkpt>
      <trkpt lat="60.0403353" lon="17.5077294">
        <ele>41.9547</ele>
        <time>2013-05-05T12:36:14Z</time>
      </trkpt>
      <trkpt lat="60.0403492" lon="17.5078986">
        <ele>41.9547</ele>
        <time>2013-05-05T12:36:15Z</time>
      </trkpt>
      <trkpt lat="60.0403622" lon="17.5080676">
        <ele>41.474</ele>
        <time>2013-05-05T12:36:16Z</time>
      </trkpt>
      <trkpt lat="60.0403742" lon="17.5082374">
        <ele>41.474</ele>
        <time>2013-05-05T12:36:17Z</time>
      </trkpt>
      <trkpt lat="60.0403867" lon="17.5084099">
        <ele>41.474</ele>
        <time>2013-05-05T12:36:18Z</time>
      </trkpt>
      <trkpt lat="60.0403991" lon="17.508585">
        <ele>40.9934</ele>
        <time>2013-05-05T12:36:19Z</time>
      </trkpt>
      <trkpt lat="60.0404108" lon="17.5087609">
        <ele>40.9934</ele>
        <time>2013-05-05T12:36:20Z</time>
      </trkpt>
      <trkpt lat="60.0404212" lon="17.5089365">
        <ele>40.9934</ele>
        <time>2013-05-05T12:36:21Z</time>
      </trkpt>
      <trkpt lat="60.0404285" lon="17.5091132">
        <ele>40.9934</ele>
        <time>2013-05-05T12:36:22Z</time>
      </trkpt>
      <trkpt lat="60.0404295" lon="17.5092912">
        <ele>40.5128</ele>
        <time>2013-05-05T12:36:23Z</time>
      </trkpt>
      <trkpt lat="60.0404249" lon="17.5094711">
        <ele>40.5128</ele>
        <time>2013-05-05T12:36:24Z</time>
      </trkpt>
      <trkpt lat="60.0404201" lon="17.509652">
        <ele>40.5128</ele>
        <time>2013-05-05T12:36:25Z</time>
      </trkpt>
      <trkpt lat="60.0404141" lon="17.5098355">
        <ele>40.5128</ele>
        <time>2013-05-05T12:36:26Z</time>
      </trkpt>
      <trkpt lat="60.0404078" lon="17.5100194">
        <ele>40.5128</ele>
        <time>2013-05-05T12:36:27Z</time>
      </trkpt>
      <trkpt lat="60.0404005" lon="17.5102007">
        <ele>40.0321</ele>
        <time>2013-05-05T12:36:28Z</time>
      </trkpt>
      <trkpt lat="60.0403903" lon="17.5103778">
        <ele>40.0321</ele>
        <time>2013-05-05T12:36:29Z</time>
      </trkpt>
      <trkpt lat="60.0403778" lon="17.5105503">
        <ele>40.5128</ele>
        <time>2013-05-05T12:36:30Z</time>
      </trkpt>
      <trkpt lat="60.0403627" lon="17.5107208">
        <ele>40.0321</ele>
        <time>2013-05-05T12:36:31Z</time>
      </trkpt>
      <trkpt lat="60.0403449" lon="17.5108912">
        <ele>40.0321</ele>
        <time>2013-05-05T12:36:32Z</time>
      </trkpt>
      <trkpt lat="60.0403258" lon="17.511058">
        <ele>40.0321</ele>
        <time>2013-05-05T12:36:33Z</time>
      </trkpt>
      <trkpt lat="60.0403063" lon="17.5112263">
        <ele>40.0321</ele>
        <time>2013-05-05T12:36:34Z</time>
      </trkpt>
      <trkpt lat="60.0402869" lon="17.5113953">
        <ele>40.0321</ele>
        <time>2013-05-05T12:36:35Z</time>
      </trkpt>
      <trkpt lat="60.0402662" lon="17.5115656">
        <ele>39.5513</ele>
        <time>2013-05-05T12:36:36Z</time>
      </trkpt>
      <trkpt lat="60.0402441" lon="17.5117366">
        <ele>39.5513</ele>
        <time>2013-05-05T12:36:37Z</time>
      </trkpt>
      <trkpt lat="60.0402208" lon="17.5119092">
        <ele>39.0707</ele>
        <time>2013-05-05T12:36:38Z</time>
      </trkpt>
      <trkpt lat="60.0401949" lon="17.5120831">
        <ele>39.0707</ele>
        <time>2013-05-05T12:36:39Z</time>
      </trkpt>
      <trkpt lat="60.0401678" lon="17.5122556">
        <ele>38.5901</ele>
        <time>2013-05-05T12:36:40Z</time>
      </trkpt>
      <trkpt lat="60.0401395" lon="17.5124262">
        <ele>38.5901</ele>
        <time>2013-05-05T12:36:41Z</time>
      </trkpt>
      <trkpt lat="60.0401077" lon="17.5126018">
        <ele>38.1094</ele>
        <time>2013-05-05T12:36:42Z</time>
      </trkpt>
      <trkpt lat="60.0400701" lon="17.5127672">
        <ele>38.1094</ele>
        <time>2013-05-05T12:36:43Z</time>
      </trkpt>
      <trkpt lat="60.0400363" lon="17.5129285">
        <ele>38.1094</ele>
        <time>2013-05-05T12:36:44Z</time>
      </trkpt>
      <trkpt lat="60.0400017" lon="17.5130927">
        <ele>37.6287</ele>
        <time>2013-05-05T12:36:45Z</time>
      </trkpt>
      <trkpt lat="60.0399666" lon="17.5132653">
        <ele>37.6287</ele>
        <time>2013-05-05T12:36:46Z</time>
      </trkpt>
      <trkpt lat="60.0399302" lon="17.513437">
        <ele>37.1481</ele>
        <time>2013-05-05T12:36:47Z</time>
      </trkpt>
      <trkpt lat="60.0398927" lon="17.5136128">
        <ele>36.6675</ele>
        <time>2013-05-05T12:36:48Z</time>
      </trkpt>
      <trkpt lat="60.0398551" lon="17.513793">
        <ele>36.6675</ele>
        <time>2013-05-05T12:36:49Z</time>
      </trkpt>
      <trkpt lat="60.0398192" lon="17.513977">
        <ele>36.1868</ele>
        <time>2013-05-05T12:36:50Z</time>
      </trkpt>
      <trkpt lat="60.0397837" lon="17.5141641">
        <ele>36.1868</ele>
        <time>2013-05-05T12:36:51Z</time>
      </trkpt>
      <trkpt lat="60.039748" lon="17.5143492">
        <ele>36.1868</ele>
        <time>2013-05-05T12:36:52Z</time>
      </trkpt>
      <trkpt lat="60.0397121" lon="17.5145328">
        <ele>35.7061</ele>
        <time>2013-05-05T12:36:53Z</time>
      </trkpt>
      <trkpt lat="60.0396748" lon="17.5147167">
        <ele>35.7061</ele>
        <time>2013-05-05T12:36:54Z</time>
      </trkpt>
      <trkpt lat="60.0396379" lon="17.5149016">
        <ele>35.7061</ele>
        <time>2013-05-05T12:36:55Z</time>
      </trkpt>
      <trkpt lat="60.0396023" lon="17.5150872">
        <ele>35.7061</ele>
        <time>2013-05-05T12:36:56Z</time>
      </trkpt>
      <trkpt lat="60.0395656" lon="17.5152698">
        <ele>35.7061</ele>
        <time>2013-05-05T12:36:57Z</time>
      </trkpt>
      <trkpt lat="60.0395272" lon="17.5154491">
        <ele>35.2255</ele>
        <time>2013-05-05T12:36:58Z</time>
      </trkpt>
      <trkpt lat="60.0394882" lon="17.5156249">
        <ele>35.7061</ele>
        <time>2013-05-05T12:36:59Z</time>
      </trkpt>
      <trkpt lat="60.0394494" lon="17.5158013">
        <ele>35.7061</ele>
        <time>2013-05-05T12:37:00Z</time>
      </trkpt>
      <trkpt lat="60.0394102" lon="17.5159773">
        <ele>35.7061</ele>
        <time>2013-05-05T12:37:01Z</time>
      </trkpt>
      <trkpt lat="60.0393717" lon="17.5161532">
        <ele>36.1868</ele>
        <time>2013-05-05T12:37:02Z</time>
      </trkpt>
      <trkpt lat="60.0393338" lon="17.5163276">
        <ele>36.1868</ele>
        <time>2013-05-05T12:37:03Z</time>
      </trkpt>
      <trkpt lat="60.0392962" lon="17.5165037">
        <ele>36.6675</ele>
        <time>2013-05-05T12:37:04Z</time>
      </trkpt>
      <trkpt lat="60.0392563" lon="17.5166811">
        <ele>36.6675</ele>
        <time>2013-05-05T12:37:05Z</time>
      </trkpt>
      <trkpt lat="60.0392153" lon="17.5168571">
        <ele>36.6675</ele>
        <time>2013-05-05T12:37:06Z</time>
      </trkpt>
      <trkpt lat="60.0391761" lon="17.5170307">
        <ele>36.6675</ele>
        <time>2013-05-05T12:37:07Z</time>
      </trkpt>
      <trkpt lat="60.0391376" lon="17.5172045">
        <ele>37.1481</ele>
        <time>2013-05-05T12:37:08Z</time>
      </trkpt>
      <trkpt lat="60.0390988" lon="17.5173789">
        <ele>37.1481</ele>
        <time>2013-05-05T12:37:09Z</time>
      </trkpt>
      <trkpt lat="60.0390594" lon="17.5175544">
        <ele>37.1481</ele>
        <time>2013-05-05T12:37:10Z</time>
      </trkpt>
      <trkpt lat="60.0390196" lon="17.5177298">
        <ele>37.1481</ele>
        <time>2013-05-05T12:37:11Z</time>
      </trkpt>
      <trkpt lat="60.0389802" lon="17.5179033">
        <ele>37.1481</ele>
        <time>2013-05-05T12:37:12Z</time>
      </trkpt>
      <trkpt lat="60.0389408" lon="17.5180751">
        <ele>37.1481</ele>
        <time>2013-05-05T12:37:13Z</time>
      </trkpt>
      <trkpt lat="60.0389025" lon="17.5182486">
        <ele>36.6675</ele>
        <time>2013-05-05T12:37:14Z</time>
      </trkpt>
      <trkpt lat="60.038864" lon="17.5184236">
        <ele>36.6675</ele>
        <time>2013-05-05T12:37:15Z</time>
      </trkpt>
      <trkpt lat="60.0388258" lon="17.5185987">
        <ele>36.6675</ele>
        <time>2013-05-05T12:37:16Z</time>
      </trkpt>
      <trkpt lat="60.0387864" lon="17.5187704">
        <ele>37.1481</ele>
        <time>2013-05-05T12:37:17Z</time>
      </trkpt>
      <trkpt lat="60.0387469" lon="17.51894">
        <ele>37.1481</ele>
        <time>2013-05-05T12:37:18Z</time>
      </trkpt>
      <trkpt lat="60.0387076" lon="17.5191092">
        <ele>37.1481</ele>
        <time>2013-05-05T12:37:19Z</time>
      </trkpt>
      <trkpt lat="60.0386673" lon="17.5192761">
        <ele>37.1481</ele>
        <time>2013-05-05T12:37:20Z</time>
      </trkpt>
      <trkpt lat="60.0386251" lon="17.5194403">
        <ele>37.1481</ele>
        <time>2013-05-05T12:37:21Z</time>
      </trkpt>
      <trkpt lat="60.0385694" lon="17.5196063">
        <ele>37.6287</ele>
        <time>2013-05-05T12:37:22Z</time>
      </trkpt>
      <trkpt lat="60.0385231" lon="17.5197699">
        <ele>37.6287</ele>
        <time>2013-05-05T12:37:23Z</time>
      </trkpt>
      <trkpt lat="60.0384742" lon="17.5199215">
        <ele>37.6287</ele>
        <time>2013-05-05T12:37:24Z</time>
      </trkpt>
      <trkpt lat="60.0384231" lon="17.5200651">
        <ele>37.6287</ele>
        <time>2013-05-05T12:37:25Z</time>
      </trkpt>
      <trkpt lat="60.0383734" lon="17.5202058">
        <ele>37.6287</ele>
        <time>2013-05-05T12:37:26Z</time>
      </trkpt>
      <trkpt lat="60.038325" lon="17.5203481">
        <ele>37.6287</ele>
        <time>2013-05-05T12:37:27Z</time>
      </trkpt>
      <trkpt lat="60.0382724" lon="17.5204827">
        <ele>37.1481</ele>
        <time>2013-05-05T12:37:28Z</time>
      </trkpt>
      <trkpt lat="60.0382208" lon="17.5206239">
        <ele>37.1481</ele>
        <time>2013-05-05T12:37:29Z</time>
      </trkpt>
      <trkpt lat="60.03817" lon="17.5207614">
        <ele>36.6675</ele>
        <time>2013-05-05T12:37:30Z</time>
      </trkpt>
      <trkpt lat="60.0381229" lon="17.5208932">
        <ele>36.6675</ele>
        <time>2013-05-05T12:37:31Z</time>
      </trkpt>
      <trkpt lat="60.0380669" lon="17.5210258">
        <ele>35.7061</ele>
        <time>2013-05-05T12:37:32Z</time>
      </trkpt>
      <trkpt lat="60.0380079" lon="17.5211825">
        <ele>35.7061</ele>
        <time>2013-05-05T12:37:33Z</time>
      </trkpt>
      <trkpt lat="60.0379527" lon="17.5213387">
        <ele>35.7061</ele>
        <time>2013-05-05T12:37:34Z</time>
      </trkpt>
      <trkpt lat="60.037897" lon="17.5214938">
        <ele>35.7061</ele>
        <time>2013-05-05T12:37:35Z</time>
      </trkpt>
      <trkpt lat="60.037841" lon="17.521643">
        <ele>35.2255</ele>
        <time>2013-05-05T12:37:36Z</time>
      </trkpt>
      <trkpt lat="60.0377855" lon="17.5217837">
        <ele>35.2255</ele>
        <time>2013-05-05T12:37:37Z</time>
      </trkpt>
      <trkpt lat="60.0377316" lon="17.5219289">
        <ele>35.2255</ele>
        <time>2013-05-05T12:37:38Z</time>
      </trkpt>
      <trkpt lat="60.0376779" lon="17.522073">
        <ele>35.2255</ele>
        <time>2013-05-05T12:37:39Z</time>
      </trkpt>
      <trkpt lat="60.0376249" lon="17.5222183">
        <ele>35.2255</ele>
        <time>2013-05-05T12:37:40Z</time>
      </trkpt>
      <trkpt lat="60.0375727" lon="17.5223641">
        <ele>35.2255</ele>
        <time>2013-05-05T12:37:41Z</time>
      </trkpt>
      <trkpt lat="60.03752" lon="17.5225079">
        <ele>35.2255</ele>
        <time>2013-05-05T12:37:42Z</time>
      </trkpt>
      <trkpt lat="60.0374668" lon="17.52265">
        <ele>35.2255</ele>
        <time>2013-05-05T12:37:43Z</time>
      </trkpt>
      <trkpt lat="60.0374142" lon="17.5227907">
        <ele>35.2255</ele>
        <time>2013-05-05T12:37:44Z</time>
      </trkpt>
      <trkpt lat="60.0373615" lon="17.5229318">
        <ele>35.7061</ele>
        <time>2013-05-05T12:37:45Z</time>
      </trkpt>
      <trkpt lat="60.0373091" lon="17.5230736">
        <ele>35.7061</ele>
        <time>2013-05-05T12:37:46Z</time>
      </trkpt>
      <trkpt lat="60.0372573" lon="17.5232142">
        <ele>36.1868</ele>
        <time>2013-05-05T12:37:47Z</time>
      </trkpt>
      <trkpt lat="60.0372061" lon="17.523351">
        <ele>36.6675</ele>
        <time>2013-05-05T12:37:48Z</time>
      </trkpt>
      <trkpt lat="60.037156" lon="17.5234835">
        <ele>37.1481</ele>
        <time>2013-05-05T12:37:49Z</time>
      </trkpt>
      <trkpt lat="60.0371063" lon="17.5236125">
        <ele>37.6287</ele>
        <time>2013-05-05T12:37:50Z</time>
      </trkpt>
      <trkpt lat="60.0370537" lon="17.5237378">
        <ele>38.1094</ele>
        <time>2013-05-05T12:37:51Z</time>
      </trkpt>
      <trkpt lat="60.0369997" lon="17.5238642">
        <ele>38.1094</ele>
        <time>2013-05-05T12:37:52Z</time>
      </trkpt>
      <trkpt lat="60.036951" lon="17.5239909">
        <ele>38.1094</ele>
        <time>2013-05-05T12:37:53Z</time>
      </trkpt>
      <trkpt lat="60.0369058" lon="17.5241026">
        <ele>38.1094</ele>
        <time>2013-05-05T12:37:54Z</time>
      </trkpt>
      <trkpt lat="60.036861" lon="17.5242039">
        <ele>37.6287</ele>
        <time>2013-05-05T12:37:55Z</time>
      </trkpt>
      <trkpt lat="60.0368123" lon="17.5243056">
        <ele>37.6287</ele>
        <time>2013-05-05T12:37:56Z</time>
      </trkpt>
      <trkpt lat="60.0367611" lon="17.5244077">
        <ele>37.6287</ele>
        <time>2013-05-05T12:37:57Z</time>
      </trkpt>
      <trkpt lat="60.0367098" lon="17.5245076">
        <ele>37.6287</ele>
        <time>2013-05-05T12:37:58Z</time>
      </trkpt>
      <trkpt lat="60.036656" lon="17.5246142">
        <ele>37.6287</ele>
        <time>2013-05-05T12:37:59Z</time>
      </trkpt>
      <trkpt lat="60.0365994" lon="17.5247205">
        <ele>37.1481</ele>
        <time>2013-05-05T12:38:00Z</time>
      </trkpt>
      <trkpt lat="60.0365409" lon="17.5248265">
        <ele>36.6675</ele>
        <time>2013-05-05T12:38:01Z</time>
      </trkpt>
      <trkpt lat="60.0364802" lon="17.5249401">
        <ele>36.6675</ele>
        <time>2013-05-05T12:38:02Z</time>
      </trkpt>
      <trkpt lat="60.0364176" lon="17.5250582">
        <ele>36.1868</ele>
        <time>2013-05-05T12:38:03Z</time>
      </trkpt>
      <trkpt lat="60.0363521" lon="17.5251903">
        <ele>35.7061</ele>
        <time>2013-05-05T12:38:04Z</time>
      </trkpt>
      <trkpt lat="60.0362856" lon="17.5253261">
        <ele>35.7061</ele>
        <time>2013-05-05T12:38:05Z</time>
      </trkpt>
      <trkpt lat="60.0362192" lon="17.5254613">
        <ele>35.7061</ele>
        <time>2013-05-05T12:38:06Z</time>
      </trkpt>
      <trkpt lat="60.0361513" lon="17.5256032">
        <ele>35.7061</ele>
        <time>2013-05-05T12:38:07Z</time>
      </trkpt>
      <trkpt lat="60.0360834" lon="17.5257424">
        <ele>35.7061</ele>
        <time>2013-05-05T12:38:08Z</time>
      </trkpt>
      <trkpt lat="60.0360146" lon="17.5258777">
        <ele>35.7061</ele>
        <time>2013-05-05T12:38:09Z</time>
      </trkpt>
      <trkpt lat="60.0359456" lon="17.5260108">
        <ele>35.2255</ele>
        <time>2013-05-05T12:38:10Z</time>
      </trkpt>
      <trkpt lat="60.0358783" lon="17.5261481">
        <ele>35.2255</ele>
        <time>2013-05-05T12:38:11Z</time>
      </trkpt>
      <trkpt lat="60.0358135" lon="17.5262889">
        <ele>35.2255</ele>
        <time>2013-05-05T12:38:12Z</time>
      </trkpt>
      <trkpt lat="60.03575" lon="17.5264344">
        <ele>35.2255</ele>
        <time>2013-05-05T12:38:13Z</time>
      </trkpt>
      <trkpt lat="60.0356901" lon="17.5265818">
        <ele>35.7061</ele>
        <time>2013-05-05T12:38:14Z</time>
      </trkpt>
      <trkpt lat="60.0356337" lon="17.5267297">
        <ele>35.7061</ele>
        <time>2013-05-05T12:38:15Z</time>
      </trkpt>
      <trkpt lat="60.0355799" lon="17.5268816">
        <ele>35.7061</ele>
        <time>2013-05-05T12:38:16Z</time>
      </trkpt>
      <trkpt lat="60.0355282" lon="17.5270369">
        <ele>36.1868</ele>
        <time>2013-05-05T12:38:17Z</time>
      </trkpt>
      <trkpt lat="60.0354795" lon="17.5271936">
        <ele>36.1868</ele>
        <time>2013-05-05T12:38:18Z</time>
      </trkpt>
      <trkpt lat="60.0354334" lon="17.5273503">
        <ele>36.6675</ele>
        <time>2013-05-05T12:38:19Z</time>
      </trkpt>
      <trkpt lat="60.0353901" lon="17.5275079">
        <ele>36.6675</ele>
        <time>2013-05-05T12:38:20Z</time>
      </trkpt>
      <trkpt lat="60.03535" lon="17.527669">
        <ele>36.6675</ele>
        <time>2013-05-05T12:38:21Z</time>
      </trkpt>
      <trkpt lat="60.0353138" lon="17.5278327">
        <ele>36.6675</ele>
        <time>2013-05-05T12:38:22Z</time>
      </trkpt>
      <trkpt lat="60.0352814" lon="17.527998">
        <ele>37.1481</ele>
        <time>2013-05-05T12:38:23Z</time>
      </trkpt>
      <trkpt lat="60.035251" lon="17.5281667">
        <ele>37.1481</ele>
        <time>2013-05-05T12:38:24Z</time>
      </trkpt>
      <trkpt lat="60.0352225" lon="17.5283388">
        <ele>37.1481</ele>
        <time>2013-05-05T12:38:25Z</time>
      </trkpt>
      <trkpt lat="60.035195" lon="17.5285124">
        <ele>37.1481</ele>
        <time>2013-05-05T12:38:26Z</time>
      </trkpt>
      <trkpt lat="60.0351685" lon="17.5286874">
        <ele>37.1481</ele>
        <time>2013-05-05T12:38:27Z</time>
      </trkpt>
      <trkpt lat="60.0351432" lon="17.5288625">
        <ele>37.1481</ele>
        <time>2013-05-05T12:38:28Z</time>
      </trkpt>
      <trkpt lat="60.0351197" lon="17.5290355">
        <ele>37.1481</ele>
        <time>2013-05-05T12:38:29Z</time>
      </trkpt>
      <trkpt lat="60.0350971" lon="17.5292063">
        <ele>37.1481</ele>
        <time>2013-05-05T12:38:30Z</time>
      </trkpt>
      <trkpt lat="60.0350749" lon="17.5293742">
        <ele>36.6675</ele>
        <time>2013-05-05T12:38:31Z</time>
      </trkpt>
      <trkpt lat="60.0350514" lon="17.5295412">
        <ele>36.6675</ele>
        <time>2013-05-05T12:38:32Z</time>
      </trkpt>
      <trkpt lat="60.0350263" lon="17.5297075">
        <ele>37.1481</ele>
        <time>2013-05-05T12:38:33Z</time>
      </trkpt>
      <trkpt lat="60.0349999" lon="17.5298726">
        <ele>37.1481</ele>
        <time>2013-05-05T12:38:34Z</time>
      </trkpt>
      <trkpt lat="60.0349739" lon="17.5300335">
        <ele>37.1481</ele>
        <time>2013-05-05T12:38:35Z</time>
      </trkpt>
      <trkpt lat="60.0349458" lon="17.5301939">
        <ele>36.6675</ele>
        <time>2013-05-05T12:38:36Z</time>
      </trkpt>
      <trkpt lat="60.0349148" lon="17.5303552">
        <ele>36.6675</ele>
        <time>2013-05-05T12:38:37Z</time>
      </trkpt>
      <trkpt lat="60.0348799" lon="17.5305191">
        <ele>36.6675</ele>
        <time>2013-05-05T12:38:38Z</time>
      </trkpt>
      <trkpt lat="60.0348406" lon="17.5306868">
        <ele>36.1868</ele>
        <time>2013-05-05T12:38:39Z</time>
      </trkpt>
      <trkpt lat="60.0347971" lon="17.530858">
        <ele>36.1868</ele>
        <time>2013-05-05T12:38:40Z</time>
      </trkpt>
      <trkpt lat="60.0347499" lon="17.5310279">
        <ele>35.7061</ele>
        <time>2013-05-05T12:38:41Z</time>
      </trkpt>
      <trkpt lat="60.0346993" lon="17.5311968">
        <ele>35.2255</ele>
        <time>2013-05-05T12:38:42Z</time>
      </trkpt>
      <trkpt lat="60.0346463" lon="17.5313666">
        <ele>35.2255</ele>
        <time>2013-05-05T12:38:43Z</time>
      </trkpt>
      <trkpt lat="60.0345926" lon="17.5315366">
        <ele>34.7449</ele>
        <time>2013-05-05T12:38:44Z</time>
      </trkpt>
      <trkpt lat="60.0345382" lon="17.5317033">
        <ele>34.7449</ele>
        <time>2013-05-05T12:38:45Z</time>
      </trkpt>
      <trkpt lat="60.0344806" lon="17.5318649">
        <ele>34.2642</ele>
        <time>2013-05-05T12:38:46Z</time>
      </trkpt>
      <trkpt lat="60.0344212" lon="17.532024">
        <ele>34.2642</ele>
        <time>2013-05-05T12:38:47Z</time>
      </trkpt>
      <trkpt lat="60.0343612" lon="17.5321827">
        <ele>33.7834</ele>
        <time>2013-05-05T12:38:48Z</time>
      </trkpt>
      <trkpt lat="60.0343025" lon="17.5323423">
        <ele>33.7834</ele>
        <time>2013-05-05T12:38:49Z</time>
      </trkpt>
      <trkpt lat="60.0342461" lon="17.5325037">
        <ele>33.3029</ele>
        <time>2013-05-05T12:38:50Z</time>
      </trkpt>
      <trkpt lat="60.0341906" lon="17.5326672">
        <ele>33.3029</ele>
        <time>2013-05-05T12:38:51Z</time>
      </trkpt>
      <trkpt lat="60.034136" lon="17.5328295">
        <ele>33.3029</ele>
        <time>2013-05-05T12:38:52Z</time>
      </trkpt>
      <trkpt lat="60.0340837" lon="17.5329882">
        <ele>33.3029</ele>
        <time>2013-05-05T12:38:53Z</time>
      </trkpt>
      <trkpt lat="60.0340347" lon="17.5331453">
        <ele>33.3029</ele>
        <time>2013-05-05T12:38:54Z</time>
      </trkpt>
      <trkpt lat="60.0339902" lon="17.5332989">
        <ele>33.3029</ele>
        <time>2013-05-05T12:38:55Z</time>
      </trkpt>
      <trkpt lat="60.033952" lon="17.5334475">
        <ele>33.3029</ele>
        <time>2013-05-05T12:38:56Z</time>
      </trkpt>
      <trkpt lat="60.0339216" lon="17.5335936">
        <ele>33.3029</ele>
        <time>2013-05-05T12:38:57Z</time>
      </trkpt>
      <trkpt lat="60.0338959" lon="17.5337361">
        <ele>33.3029</ele>
        <time>2013-05-05T12:38:58Z</time>
      </trkpt>
      <trkpt lat="60.0338691" lon="17.5338686">
        <ele>33.3029</ele>
        <time>2013-05-05T12:38:59Z</time>
      </trkpt>
      <trkpt lat="60.0338353" lon="17.5339821">
        <ele>33.3029</ele>
        <time>2013-05-05T12:39:00Z</time>
      </trkpt>
      <trkpt lat="60.0337913" lon="17.534064">
        <ele>33.3029</ele>
        <time>2013-05-05T12:39:01Z</time>
      </trkpt>
      <trkpt lat="60.0337372" lon="17.5341053">
        <ele>33.7834</ele>
        <time>2013-05-05T12:39:02Z</time>
      </trkpt>
      <trkpt lat="60.0336774" lon="17.5341092">
        <ele>33.7834</ele>
        <time>2013-05-05T12:39:03Z</time>
      </trkpt>
      <trkpt lat="60.0336145" lon="17.5340939">
        <ele>33.3029</ele>
        <time>2013-05-05T12:39:04Z</time>
      </trkpt>
      <trkpt lat="60.0335482" lon="17.5340637">
        <ele>33.3029</ele>
        <time>2013-05-05T12:39:05Z</time>
      </trkpt>
      <trkpt lat="60.0334775" lon="17.5340333">
        <ele>33.3029</ele>
        <time>2013-05-05T12:39:06Z</time>
      </trkpt>
      <trkpt lat="60.0334033" lon="17.5340068">
        <ele>32.8223</ele>
        <time>2013-05-05T12:39:07Z</time>
      </trkpt>
      <trkpt lat="60.0333274" lon="17.5339802">
        <ele>32.3416</ele>
        <time>2013-05-05T12:39:08Z</time>
      </trkpt>
      <trkpt lat="60.0332513" lon="17.5339569">
        <ele>31.8607</ele>
        <time>2013-05-05T12:39:09Z</time>
      </trkpt>
      <trkpt lat="60.0331762" lon="17.5339338">
        <ele>31.8607</ele>
        <time>2013-05-05T12:39:10Z</time>
      </trkpt>
      <trkpt lat="60.0331028" lon="17.5339103">
        <ele>31.3801</ele>
        <time>2013-05-05T12:39:11Z</time>
      </trkpt>
      <trkpt lat="60.0330309" lon="17.5338862">
        <ele>31.3801</ele>
        <time>2013-05-05T12:39:12Z</time>
      </trkpt>
      <trkpt lat="60.0329597" lon="17.5338632">
        <ele>30.8995</ele>
        <time>2013-05-05T12:39:13Z</time>
      </trkpt>
      <trkpt lat="60.0328878" lon="17.5338401">
        <ele>30.8995</ele>
        <time>2013-05-05T12:39:14Z</time>
      </trkpt>
      <trkpt lat="60.0328151" lon="17.53382">
        <ele>30.8995</ele>
        <time>2013-05-05T12:39:15Z</time>
      </trkpt>
      <trkpt lat="60.0327418" lon="17.5338007">
        <ele>30.4188</ele>
        <time>2013-05-05T12:39:16Z</time>
      </trkpt>
      <trkpt lat="60.032668" lon="17.5337789">
        <ele>30.8995</ele>
        <time>2013-05-05T12:39:17Z</time>
      </trkpt>
      <trkpt lat="60.0325926" lon="17.5337573">
        <ele>30.8995</ele>
        <time>2013-05-05T12:39:18Z</time>
      </trkpt>
      <trkpt lat="60.0325171" lon="17.5337375">
        <ele>30.8995</ele>
        <time>2013-05-05T12:39:19Z</time>
      </trkpt>
      <trkpt lat="60.0324416" lon="17.5337178">
        <ele>30.4188</ele>
        <time>2013-05-05T12:39:20Z</time>
      </trkpt>
      <trkpt lat="60.0323657" lon="17.5336961">
        <ele>29.9381</ele>
        <time>2013-05-05T12:39:21Z</time>
      </trkpt>
      <trkpt lat="60.0322767" lon="17.5336518">
        <ele>29.9381</ele>
        <time>2013-05-05T12:39:22Z</time>
      </trkpt>
      <trkpt lat="60.0321839" lon="17.5336264">
        <ele>29.4575</ele>
        <time>2013-05-05T12:39:23Z</time>
      </trkpt>
      <trkpt lat="60.0320931" lon="17.5336106">
        <ele>28.9769</ele>
        <time>2013-05-05T12:39:24Z</time>
      </trkpt>
      <trkpt lat="60.0320005" lon="17.5335959">
        <ele>28.4962</ele>
        <time>2013-05-05T12:39:25Z</time>
      </trkpt>
      <trkpt lat="60.0319078" lon="17.533575">
        <ele>28.4962</ele>
        <time>2013-05-05T12:39:26Z</time>
      </trkpt>
      <trkpt lat="60.0318161" lon="17.5335499">
        <ele>28.0155</ele>
        <time>2013-05-05T12:39:27Z</time>
      </trkpt>
      <trkpt lat="60.0317249" lon="17.533524">
        <ele>28.0155</ele>
        <time>2013-05-05T12:39:28Z</time>
      </trkpt>
      <trkpt lat="60.0316341" lon="17.5335">
        <ele>28.0155</ele>
        <time>2013-05-05T12:39:29Z</time>
      </trkpt>
      <trkpt lat="60.0315437" lon="17.5334767">
        <ele>27.5349</ele>
        <time>2013-05-05T12:39:30Z</time>
      </trkpt>
      <trkpt lat="60.0314544" lon="17.5334525">
        <ele>27.5349</ele>
        <time>2013-05-05T12:39:31Z</time>
      </trkpt>
      <trkpt lat="60.0313657" lon="17.5334288">
        <ele>27.5349</ele>
        <time>2013-05-05T12:39:32Z</time>
      </trkpt>
      <trkpt lat="60.0312778" lon="17.533405">
        <ele>27.5349</ele>
        <time>2013-05-05T12:39:33Z</time>
      </trkpt>
      <trkpt lat="60.0311901" lon="17.5333816">
        <ele>27.5349</ele>
        <time>2013-05-05T12:39:34Z</time>
      </trkpt>
      <trkpt lat="60.0311024" lon="17.5333591">
        <ele>27.5349</ele>
        <time>2013-05-05T12:39:35Z</time>
      </trkpt>
      <trkpt lat="60.0310147" lon="17.533338">
        <ele>27.5349</ele>
        <time>2013-05-05T12:39:36Z</time>
      </trkpt>
      <trkpt lat="60.0309261" lon="17.5333195">
        <ele>27.5349</ele>
        <time>2013-05-05T12:39:37Z</time>
      </trkpt>
      <trkpt lat="60.030837" lon="17.5333029">
        <ele>27.5349</ele>
        <time>2013-05-05T12:39:38Z</time>
      </trkpt>
      <trkpt lat="60.0307481" lon="17.5332864">
        <ele>28.0155</ele>
        <time>2013-05-05T12:39:39Z</time>
      </trkpt>
      <trkpt lat="60.0306607" lon="17.5332697">
        <ele>28.0155</ele>
        <time>2013-05-05T12:39:40Z</time>
      </trkpt>
      <trkpt lat="60.0305749" lon="17.5332479">
        <ele>28.4962</ele>
        <time>2013-05-05T12:39:41Z</time>
      </trkpt>
      <trkpt lat="60.0304905" lon="17.5332226">
        <ele>28.4962</ele>
        <time>2013-05-05T12:39:42Z</time>
      </trkpt>
      <trkpt lat="60.0304077" lon="17.5331993">
        <ele>28.4962</ele>
        <time>2013-05-05T12:39:43Z</time>
      </trkpt>
      <trkpt lat="60.0303282" lon="17.5331775">
        <ele>28.9769</ele>
        <time>2013-05-05T12:39:44Z</time>
      </trkpt>
      <trkpt lat="60.030252" lon="17.5331569">
        <ele>29.4575</ele>
        <time>2013-05-05T12:39:45Z</time>
      </trkpt>
      <trkpt lat="60.0301782" lon="17.5331387">
        <ele>29.4575</ele>
        <time>2013-05-05T12:39:46Z</time>
      </trkpt>
      <trkpt lat="60.0301051" lon="17.5331206">
        <ele>29.9381</ele>
        <time>2013-05-05T12:39:47Z</time>
      </trkpt>
      <trkpt lat="60.0300321" lon="17.5331049">
        <ele>30.4188</ele>
        <time>2013-05-05T12:39:48Z</time>
      </trkpt>
      <trkpt lat="60.0299589" lon="17.5330935">
        <ele>30.4188</ele>
        <time>2013-05-05T12:39:49Z</time>
      </trkpt>
      <trkpt lat="60.0298855" lon="17.5330882">
        <ele>30.4188</ele>
        <time>2013-05-05T12:39:50Z</time>
      </trkpt>
      <trkpt lat="60.0298129" lon="17.5330921">
        <ele>30.4188</ele>
        <time>2013-05-05T12:39:51Z</time>
      </trkpt>
      <trkpt lat="60.0297387" lon="17.5331025">
        <ele>30.4188</ele>
        <time>2013-05-05T12:39:52Z</time>
      </trkpt>
      <trkpt lat="60.0296626" lon="17.5331169">
        <ele>30.4188</ele>
        <time>2013-05-05T12:39:53Z</time>
      </trkpt>
      <trkpt lat="60.0295861" lon="17.533136">
        <ele>30.8995</ele>
        <time>2013-05-05T12:39:54Z</time>
      </trkpt>
      <trkpt lat="60.0295087" lon="17.5331511">
        <ele>31.3801</ele>
        <time>2013-05-05T12:39:55Z</time>
      </trkpt>
      <trkpt lat="60.0294299" lon="17.5331605">
        <ele>31.3801</ele>
        <time>2013-05-05T12:39:56Z</time>
      </trkpt>
      <trkpt lat="60.029351" lon="17.5331729">
        <ele>31.3801</ele>
        <time>2013-05-05T12:39:57Z</time>
      </trkpt>
      <trkpt lat="60.0292714" lon="17.5331895">
        <ele>31.3801</ele>
        <time>2013-05-05T12:39:58Z</time>
      </trkpt>
      <trkpt lat="60.0291902" lon="17.5332107">
        <ele>31.8607</ele>
        <time>2013-05-05T12:39:59Z</time>
      </trkpt>
      <trkpt lat="60.0291073" lon="17.533235">
        <ele>31.8607</ele>
        <time>2013-05-05T12:40:00Z</time>
      </trkpt>
      <trkpt lat="60.0290229" lon="17.5332595">
        <ele>31.8607</ele>
        <time>2013-05-05T12:40:01Z</time>
      </trkpt>
      <trkpt lat="60.0289376" lon="17.5332848">
        <ele>31.3801</ele>
        <time>2013-05-05T12:40:02Z</time>
      </trkpt>
      <trkpt lat="60.0288514" lon="17.5333076">
        <ele>31.3801</ele>
        <time>2013-05-05T12:40:03Z</time>
      </trkpt>
      <trkpt lat="60.0287638" lon="17.5333257">
        <ele>31.3801</ele>
        <time>2013-05-05T12:40:04Z</time>
      </trkpt>
      <trkpt lat="60.0286758" lon="17.5333432">
        <ele>31.3801</ele>
        <time>2013-05-05T12:40:05Z</time>
      </trkpt>
      <trkpt lat="60.0285876" lon="17.5333651">
        <ele>31.3801</ele>
        <time>2013-05-05T12:40:06Z</time>
      </trkpt>
      <trkpt lat="60.0284983" lon="17.5333892">
        <ele>30.8995</ele>
        <time>2013-05-05T12:40:07Z</time>
      </trkpt>
      <trkpt lat="60.0284084" lon="17.5334111">
        <ele>30.8995</ele>
        <time>2013-05-05T12:40:08Z</time>
      </trkpt>
      <trkpt lat="60.0283178" lon="17.5334329">
        <ele>30.4188</ele>
        <time>2013-05-05T12:40:09Z</time>
      </trkpt>
      <trkpt lat="60.0282268" lon="17.5334561">
        <ele>30.4188</ele>
        <time>2013-05-05T12:40:10Z</time>
      </trkpt>
      <trkpt lat="60.0281359" lon="17.5334778">
        <ele>30.4188</ele>
        <time>2013-05-05T12:40:11Z</time>
      </trkpt>
      <trkpt lat="60.0280456" lon="17.5334998">
        <ele>30.4188</ele>
        <time>2013-05-05T12:40:12Z</time>
      </trkpt>
      <trkpt lat="60.0279565" lon="17.5335225">
        <ele>30.4188</ele>
        <time>2013-05-05T12:40:13Z</time>
      </trkpt>
      <trkpt lat="60.0278687" lon="17.5335457">
        <ele>29.9381</ele>
        <time>2013-05-05T12:40:14Z</time>
      </trkpt>
      <trkpt lat="60.0277833" lon="17.5335684">
        <ele>29.9381</ele>
        <time>2013-05-05T12:40:15Z</time>
      </trkpt>
      <trkpt lat="60.0277014" lon="17.5335894">
        <ele>29.9381</ele>
        <time>2013-05-05T12:40:16Z</time>
      </trkpt>
      <trkpt lat="60.0276213" lon="17.5336099">
        <ele>29.9381</ele>
        <time>2013-05-05T12:40:17Z</time>
      </trkpt>
      <trkpt lat="60.027543" lon="17.533629">
        <ele>29.9381</ele>
        <time>2013-05-05T12:40:18Z</time>
      </trkpt>
      <trkpt lat="60.0274651" lon="17.5336472">
        <ele>29.4575</ele>
        <time>2013-05-05T12:40:19Z</time>
      </trkpt>
      <trkpt lat="60.0273861" lon="17.5336669">
        <ele>29.4575</ele>
        <time>2013-05-05T12:40:20Z</time>
      </trkpt>
      <trkpt lat="60.0273058" lon="17.5336872">
        <ele>29.9381</ele>
        <time>2013-05-05T12:40:21Z</time>
      </trkpt>
      <trkpt lat="60.0272253" lon="17.5337073">
        <ele>29.9381</ele>
        <time>2013-05-05T12:40:22Z</time>
      </trkpt>
      <trkpt lat="60.0271445" lon="17.5337266">
        <ele>29.9381</ele>
        <time>2013-05-05T12:40:23Z</time>
      </trkpt>
      <trkpt lat="60.0270639" lon="17.5337447">
        <ele>29.9381</ele>
        <time>2013-05-05T12:40:24Z</time>
      </trkpt>
      <trkpt lat="60.0269834" lon="17.5337624">
        <ele>30.4188</ele>
        <time>2013-05-05T12:40:25Z</time>
      </trkpt>
      <trkpt lat="60.0269036" lon="17.5337794">
        <ele>30.4188</ele>
        <time>2013-05-05T12:40:26Z</time>
      </trkpt>
      <trkpt lat="60.0268245" lon="17.5337974">
        <ele>30.4188</ele>
        <time>2013-05-05T12:40:27Z</time>
      </trkpt>
      <trkpt lat="60.0267466" lon="17.5338193">
        <ele>30.4188</ele>
        <time>2013-05-05T12:40:28Z</time>
      </trkpt>
      <trkpt lat="60.0266675" lon="17.5338357">
        <ele>30.4188</ele>
        <time>2013-05-05T12:40:29Z</time>
      </trkpt>
      <trkpt lat="60.026586" lon="17.533851">
        <ele>29.9381</ele>
        <time>2013-05-05T12:40:30Z</time>
      </trkpt>
      <trkpt lat="60.0265023" lon="17.5338727">
        <ele>29.9381</ele>
        <time>2013-05-05T12:40:31Z</time>
      </trkpt>
      <trkpt lat="60.026418" lon="17.5338975">
        <ele>29.9381</ele>
        <time>2013-05-05T12:40:32Z</time>
      </trkpt>
      <trkpt lat="60.0263322" lon="17.5339256">
        <ele>29.4575</ele>
        <time>2013-05-05T12:40:33Z</time>
      </trkpt>
      <trkpt lat="60.0262458" lon="17.5339632">
        <ele>29.4575</ele>
        <time>2013-05-05T12:40:34Z</time>
      </trkpt>
      <trkpt lat="60.0261598" lon="17.5340105">
        <ele>28.9769</ele>
        <time>2013-05-05T12:40:35Z</time>
      </trkpt>
      <trkpt lat="60.026075" lon="17.5340722">
        <ele>28.4962</ele>
        <time>2013-05-05T12:40:36Z</time>
      </trkpt>
      <trkpt lat="60.0259929" lon="17.5341497">
        <ele>28.9769</ele>
        <time>2013-05-05T12:40:37Z</time>
      </trkpt>
      <trkpt lat="60.0259133" lon="17.5342362">
        <ele>28.9769</ele>
        <time>2013-05-05T12:40:38Z</time>
      </trkpt>
      <trkpt lat="60.0258355" lon="17.5343255">
        <ele>28.9769</ele>
        <time>2013-05-05T12:40:39Z</time>
      </trkpt>
      <trkpt lat="60.0257645" lon="17.5344258">
        <ele>29.9381</ele>
        <time>2013-05-05T12:40:40Z</time>
      </trkpt>
      <trkpt lat="60.0256967" lon="17.5345229">
        <ele>29.9381</ele>
        <time>2013-05-05T12:40:41Z</time>
      </trkpt>
      <trkpt lat="60.0256321" lon="17.5346348">
        <ele>30.4188</ele>
        <time>2013-05-05T12:40:42Z</time>
      </trkpt>
      <trkpt lat="60.0255719" lon="17.5347491">
        <ele>30.4188</ele>
        <time>2013-05-05T12:40:43Z</time>
      </trkpt>
      <trkpt lat="60.0255135" lon="17.5348681">
        <ele>30.8995</ele>
        <time>2013-05-05T12:40:44Z</time>
      </trkpt>
      <trkpt lat="60.0254569" lon="17.5349904">
        <ele>30.8995</ele>
        <time>2013-05-05T12:40:45Z</time>
      </trkpt>
      <trkpt lat="60.0254031" lon="17.5351174">
        <ele>30.8995</ele>
        <time>2013-05-05T12:40:46Z</time>
      </trkpt>
      <trkpt lat="60.0253487" lon="17.5352438">
        <ele>31.3801</ele>
        <time>2013-05-05T12:40:47Z</time>
      </trkpt>
      <trkpt lat="60.025295" lon="17.5353672">
        <ele>31.3801</ele>
        <time>2013-05-05T12:40:48Z</time>
      </trkpt>
      <trkpt lat="60.0252419" lon="17.5354921">
        <ele>31.8607</ele>
        <time>2013-05-05T12:40:49Z</time>
      </trkpt>
      <trkpt lat="60.0251901" lon="17.5356235">
        <ele>32.3416</ele>
        <time>2013-05-05T12:40:50Z</time>
      </trkpt>
      <trkpt lat="60.025138" lon="17.5357525">
        <ele>31.8607</ele>
        <time>2013-05-05T12:40:51Z</time>
      </trkpt>
      <trkpt lat="60.0250843" lon="17.5358817">
        <ele>32.3416</ele>
        <time>2013-05-05T12:40:52Z</time>
      </trkpt>
      <trkpt lat="60.0250295" lon="17.5360085">
        <ele>31.8607</ele>
        <time>2013-05-05T12:40:53Z</time>
      </trkpt>
      <trkpt lat="60.0249746" lon="17.536128">
        <ele>31.8607</ele>
        <time>2013-05-05T12:40:54Z</time>
      </trkpt>
      <trkpt lat="60.0249167" lon="17.5362317">
        <ele>31.3801</ele>
        <time>2013-05-05T12:40:55Z</time>
      </trkpt>
      <trkpt lat="60.0248543" lon="17.5363208">
        <ele>31.3801</ele>
        <time>2013-05-05T12:40:56Z</time>
      </trkpt>
      <trkpt lat="60.0247883" lon="17.5364027">
        <ele>30.8995</ele>
        <time>2013-05-05T12:40:57Z</time>
      </trkpt>
      <trkpt lat="60.0247187" lon="17.5364817">
        <ele>30.4188</ele>
        <time>2013-05-05T12:40:58Z</time>
      </trkpt>
      <trkpt lat="60.0246437" lon="17.536555">
        <ele>30.4188</ele>
        <time>2013-05-05T12:40:59Z</time>
      </trkpt>
      <trkpt lat="60.0245629" lon="17.5366223">
        <ele>29.9381</ele>
        <time>2013-05-05T12:41:00Z</time>
      </trkpt>
      <trkpt lat="60.0244769" lon="17.536687">
        <ele>29.4575</ele>
        <time>2013-05-05T12:41:01Z</time>
      </trkpt>
      <trkpt lat="60.0243889" lon="17.5367447">
        <ele>29.4575</ele>
        <time>2013-05-05T12:41:02Z</time>
      </trkpt>
      <trkpt lat="60.0243019" lon="17.5367944">
        <ele>28.9769</ele>
        <time>2013-05-05T12:41:03Z</time>
      </trkpt>
      <trkpt lat="60.0242148" lon="17.5368301">
        <ele>28.9769</ele>
        <time>2013-05-05T12:41:04Z</time>
      </trkpt>
      <trkpt lat="60.0241267" lon="17.5368549">
        <ele>28.9769</ele>
        <time>2013-05-05T12:41:05Z</time>
      </trkpt>
      <trkpt lat="60.0240403" lon="17.5368671">
        <ele>28.9769</ele>
        <time>2013-05-05T12:41:06Z</time>
      </trkpt>
      <trkpt lat="60.0239558" lon="17.5368792">
        <ele>28.9769</ele>
        <time>2013-05-05T12:41:07Z</time>
      </trkpt>
      <trkpt lat="60.0238727" lon="17.5368958">
        <ele>28.9769</ele>
        <time>2013-05-05T12:41:08Z</time>
      </trkpt>
      <trkpt lat="60.0237901" lon="17.5369148">
        <ele>29.4575</ele>
        <time>2013-05-05T12:41:09Z</time>
      </trkpt>
      <trkpt lat="60.0237069" lon="17.5369308">
        <ele>29.9381</ele>
        <time>2013-05-05T12:41:10Z</time>
      </trkpt>
      <trkpt lat="60.0236239" lon="17.536941">
        <ele>30.4188</ele>
        <time>2013-05-05T12:41:11Z</time>
      </trkpt>
      <trkpt lat="60.0235404" lon="17.5369451">
        <ele>30.8995</ele>
        <time>2013-05-05T12:41:12Z</time>
      </trkpt>
      <trkpt lat="60.0234553" lon="17.5369445">
        <ele>31.3801</ele>
        <time>2013-05-05T12:41:13Z</time>
      </trkpt>
      <trkpt lat="60.0233679" lon="17.5369438">
        <ele>31.8607</ele>
        <time>2013-05-05T12:41:14Z</time>
      </trkpt>
      <trkpt lat="60.0232777" lon="17.5369414">
        <ele>32.8223</ele>
        <time>2013-05-05T12:41:15Z</time>
      </trkpt>
      <trkpt lat="60.023185" lon="17.5369337">
        <ele>33.3029</ele>
        <time>2013-05-05T12:41:16Z</time>
      </trkpt>
      <trkpt lat="60.0230903" lon="17.5369194">
        <ele>33.3029</ele>
        <time>2013-05-05T12:41:17Z</time>
      </trkpt>
      <trkpt lat="60.0229945" lon="17.5368998">
        <ele>33.7834</ele>
        <time>2013-05-05T12:41:18Z</time>
      </trkpt>
      <trkpt lat="60.0228969" lon="17.5368705">
        <ele>34.2642</ele>
        <time>2013-05-05T12:41:19Z</time>
      </trkpt>
      <trkpt lat="60.0227951" lon="17.5368348">
        <ele>34.7449</ele>
        <time>2013-05-05T12:41:20Z</time>
      </trkpt>
      <trkpt lat="60.0226934" lon="17.5367943">
        <ele>35.7061</ele>
        <time>2013-05-05T12:41:21Z</time>
      </trkpt>
      <trkpt lat="60.0225941" lon="17.5367445">
        <ele>36.1868</ele>
        <time>2013-05-05T12:41:22Z</time>
      </trkpt>
      <trkpt lat="60.0224975" lon="17.536686">
        <ele>36.6675</ele>
        <time>2013-05-05T12:41:23Z</time>
      </trkpt>
      <trkpt lat="60.022404" lon="17.5366197">
        <ele>36.6675</ele>
        <time>2013-05-05T12:41:24Z</time>
      </trkpt>
      <trkpt lat="60.0223152" lon="17.5365487">
        <ele>36.6675</ele>
        <time>2013-05-05T12:41:25Z</time>
      </trkpt>
      <trkpt lat="60.0222306" lon="17.536476">
        <ele>36.1868</ele>
        <time>2013-05-05T12:41:26Z</time>
      </trkpt>
      <trkpt lat="60.0221498" lon="17.5364052">
        <ele>36.6675</ele>
        <time>2013-05-05T12:41:27Z</time>
      </trkpt>
      <trkpt lat="60.0220721" lon="17.5363338">
        <ele>37.1481</ele>
        <time>2013-05-05T12:41:28Z</time>
      </trkpt>
      <trkpt lat="60.0219966" lon="17.5362618">
        <ele>37.1481</ele>
        <time>2013-05-05T12:41:29Z</time>
      </trkpt>
      <trkpt lat="60.0219224" lon="17.5361896">
        <ele>37.1481</ele>
        <time>2013-05-05T12:41:30Z</time>
      </trkpt>
      <trkpt lat="60.0218497" lon="17.5361163">
        <ele>37.6287</ele>
        <time>2013-05-05T12:41:31Z</time>
      </trkpt>
      <trkpt lat="60.0217779" lon="17.5360419">
        <ele>38.1094</ele>
        <time>2013-05-05T12:41:32Z</time>
      </trkpt>
      <trkpt lat="60.0217059" lon="17.5359674">
        <ele>38.1094</ele>
        <time>2013-05-05T12:41:33Z</time>
      </trkpt>
      <trkpt lat="60.0216359" lon="17.5358887">
        <ele>38.5901</ele>
        <time>2013-05-05T12:41:34Z</time>
      </trkpt>
      <trkpt lat="60.0215692" lon="17.5358034">
        <ele>39.0707</ele>
        <time>2013-05-05T12:41:35Z</time>
      </trkpt>
      <trkpt lat="60.0215013" lon="17.5357172">
        <ele>39.5513</ele>
        <time>2013-05-05T12:41:36Z</time>
      </trkpt>
      <trkpt lat="60.0214324" lon="17.5356293">
        <ele>39.5513</ele>
        <time>2013-05-05T12:41:37Z</time>
      </trkpt>
      <trkpt lat="60.0213598" lon="17.5355417">
        <ele>39.5513</ele>
        <time>2013-05-05T12:41:38Z</time>
      </trkpt>
      <trkpt lat="60.0212891" lon="17.5354521">
        <ele>39.5513</ele>
        <time>2013-05-05T12:41:39Z</time>
      </trkpt>
      <trkpt lat="60.0212182" lon="17.5353626">
        <ele>39.5513</ele>
        <time>2013-05-05T12:41:40Z</time>
      </trkpt>
      <trkpt lat="60.0211461" lon="17.5352719">
        <ele>39.0707</ele>
        <time>2013-05-05T12:41:41Z</time>
      </trkpt>
      <trkpt lat="60.0210749" lon="17.5351832">
        <ele>39.0707</ele>
        <time>2013-05-05T12:41:42Z</time>
      </trkpt>
      <trkpt lat="60.021005" lon="17.5350952">
        <ele>38.5901</ele>
        <time>2013-05-05T12:41:43Z</time>
      </trkpt>
      <trkpt lat="60.0209351" lon="17.5350097">
        <ele>38.5901</ele>
        <time>2013-05-05T12:41:44Z</time>
      </trkpt>
      <trkpt lat="60.0208664" lon="17.5349294">
        <ele>38.5901</ele>
        <time>2013-05-05T12:41:45Z</time>
      </trkpt>
      <trkpt lat="60.0207976" lon="17.5348534">
        <ele>39.0707</ele>
        <time>2013-05-05T12:41:46Z</time>
      </trkpt>
      <trkpt lat="60.0207275" lon="17.5347798">
        <ele>39.5513</ele>
        <time>2013-05-05T12:41:47Z</time>
      </trkpt>
      <trkpt lat="60.0206556" lon="17.5347122">
        <ele>39.5513</ele>
        <time>2013-05-05T12:41:48Z</time>
      </trkpt>
      <trkpt lat="60.0205809" lon="17.5346446">
        <ele>39.0707</ele>
        <time>2013-05-05T12:41:49Z</time>
      </trkpt>
      <trkpt lat="60.0205047" lon="17.5345823">
        <ele>38.1094</ele>
        <time>2013-05-05T12:41:50Z</time>
      </trkpt>
      <trkpt lat="60.0204274" lon="17.5345248">
        <ele>37.6287</ele>
        <time>2013-05-05T12:41:51Z</time>
      </trkpt>
      <trkpt lat="60.0203484" lon="17.5344726">
        <ele>36.6675</ele>
        <time>2013-05-05T12:41:52Z</time>
      </trkpt>
      <trkpt lat="60.0202681" lon="17.534426">
        <ele>36.1868</ele>
        <time>2013-05-05T12:41:53Z</time>
      </trkpt>
      <trkpt lat="60.0201881" lon="17.5343867">
        <ele>35.7061</ele>
        <time>2013-05-05T12:41:54Z</time>
      </trkpt>
      <trkpt lat="60.0201089" lon="17.53436">
        <ele>34.7449</ele>
        <time>2013-05-05T12:41:55Z</time>
      </trkpt>
      <trkpt lat="60.0200299" lon="17.534346">
        <ele>34.2642</ele>
        <time>2013-05-05T12:41:56Z</time>
      </trkpt>
      <trkpt lat="60.0199524" lon="17.5343342">
        <ele>33.7834</ele>
        <time>2013-05-05T12:41:57Z</time>
      </trkpt>
      <trkpt lat="60.0198765" lon="17.5343242">
        <ele>33.7834</ele>
        <time>2013-05-05T12:41:58Z</time>
      </trkpt>
      <trkpt lat="60.0198022" lon="17.5343197">
        <ele>33.3029</ele>
        <time>2013-05-05T12:41:59Z</time>
      </trkpt>
      <trkpt lat="60.0197282" lon="17.5343138">
        <ele>32.8223</ele>
        <time>2013-05-05T12:42:00Z</time>
      </trkpt>
      <trkpt lat="60.0196517" lon="17.534301">
        <ele>32.8223</ele>
        <time>2013-05-05T12:42:01Z</time>
      </trkpt>
      <trkpt lat="60.0195754" lon="17.5342902">
        <ele>32.3416</ele>
        <time>2013-05-05T12:42:02Z</time>
      </trkpt>
      <trkpt lat="60.0194967" lon="17.5342881">
        <ele>32.3416</ele>
        <time>2013-05-05T12:42:03Z</time>
      </trkpt>
      <trkpt lat="60.0194153" lon="17.5342928">
        <ele>32.3416</ele>
        <time>2013-05-05T12:42:04Z</time>
      </trkpt>
      <trkpt lat="60.0193324" lon="17.5343011">
        <ele>32.3416</ele>
        <time>2013-05-05T12:42:05Z</time>
      </trkpt>
      <trkpt lat="60.0192497" lon="17.5343131">
        <ele>32.3416</ele>
        <time>2013-05-05T12:42:06Z</time>
      </trkpt>
      <trkpt lat="60.0191672" lon="17.5343265">
        <ele>32.3416</ele>
        <time>2013-05-05T12:42:07Z</time>
      </trkpt>
      <trkpt lat="60.019084" lon="17.5343405">
        <ele>32.3416</ele>
        <time>2013-05-05T12:42:08Z</time>
      </trkpt>
      <trkpt lat="60.0189999" lon="17.534354">
        <ele>31.8607</ele>
        <time>2013-05-05T12:42:09Z</time>
      </trkpt>
      <trkpt lat="60.018915" lon="17.5343685">
        <ele>31.8607</ele>
        <time>2013-05-05T12:42:10Z</time>
      </trkpt>
      <trkpt lat="60.0188315" lon="17.5343818">
        <ele>31.8607</ele>
        <time>2013-05-05T12:42:11Z</time>
      </trkpt>
      <trkpt lat="60.0187488" lon="17.5343934">
        <ele>31.8607</ele>
        <time>2013-05-05T12:42:12Z</time>
      </trkpt>
      <trkpt lat="60.0186659" lon="17.5344068">
        <ele>31.8607</ele>
        <time>2013-05-05T12:42:13Z</time>
      </trkpt>
      <trkpt lat="60.0185831" lon="17.5344208">
        <ele>31.8607</ele>
        <time>2013-05-05T12:42:14Z</time>
      </trkpt>
      <trkpt lat="60.0185022" lon="17.5344337">
        <ele>31.8607</ele>
        <time>2013-05-05T12:42:15Z</time>
      </trkpt>
      <trkpt lat="60.0184229" lon="17.5344459">
        <ele>31.8607</ele>
        <time>2013-05-05T12:42:16Z</time>
      </trkpt>
      <trkpt lat="60.0183448" lon="17.5344586">
        <ele>31.8607</ele>
        <time>2013-05-05T12:42:17Z</time>
      </trkpt>
      <trkpt lat="60.0182669" lon="17.5344684">
        <ele>31.8607</ele>
        <time>2013-05-05T12:42:18Z</time>
      </trkpt>
      <trkpt lat="60.0181894" lon="17.5344808">
        <ele>32.8223</ele>
        <time>2013-05-05T12:42:19Z</time>
      </trkpt>
      <trkpt lat="60.0181117" lon="17.5344942">
        <ele>33.3029</ele>
        <time>2013-05-05T12:42:20Z</time>
      </trkpt>
      <trkpt lat="60.018034" lon="17.5345032">
        <ele>33.3029</ele>
        <time>2013-05-05T12:42:21Z</time>
      </trkpt>
      <trkpt lat="60.0179577" lon="17.5345114">
        <ele>33.7834</ele>
        <time>2013-05-05T12:42:22Z</time>
      </trkpt>
      <trkpt lat="60.0178812" lon="17.5345187">
        <ele>33.7834</ele>
        <time>2013-05-05T12:42:23Z</time>
      </trkpt>
      <trkpt lat="60.0178029" lon="17.5345275">
        <ele>34.2642</ele>
        <time>2013-05-05T12:42:24Z</time>
      </trkpt>
      <trkpt lat="60.0177257" lon="17.5345306">
        <ele>34.2642</ele>
        <time>2013-05-05T12:42:25Z</time>
      </trkpt>
      <trkpt lat="60.0176489" lon="17.5345295">
        <ele>34.2642</ele>
        <time>2013-05-05T12:42:26Z</time>
      </trkpt>
      <trkpt lat="60.0175706" lon="17.5345301">
        <ele>34.2642</ele>
        <time>2013-05-05T12:42:27Z</time>
      </trkpt>
      <trkpt lat="60.0174926" lon="17.5345295">
        <ele>34.2642</ele>
        <time>2013-05-05T12:42:28Z</time>
      </trkpt>
      <trkpt lat="60.0174155" lon="17.5345264">
        <ele>34.2642</ele>
        <time>2013-05-05T12:42:29Z</time>
      </trkpt>
      <trkpt lat="60.0173392" lon="17.5345207">
        <ele>34.2642</ele>
        <time>2013-05-05T12:42:30Z</time>
      </trkpt>
      <trkpt lat="60.0172629" lon="17.5345151">
        <ele>34.2642</ele>
        <time>2013-05-05T12:42:31Z</time>
      </trkpt>
      <trkpt lat="60.017187" lon="17.5345066">
        <ele>34.2642</ele>
        <time>2013-05-05T12:42:32Z</time>
      </trkpt>
      <trkpt lat="60.0171113" lon="17.5344969">
        <ele>34.2642</ele>
        <time>2013-05-05T12:42:33Z</time>
      </trkpt>
      <trkpt lat="60.0170358" lon="17.534486">
        <ele>34.2642</ele>
        <time>2013-05-05T12:42:34Z</time>
      </trkpt>
      <trkpt lat="60.0169591" lon="17.5344714">
        <ele>34.2642</ele>
        <time>2013-05-05T12:42:35Z</time>
      </trkpt>
      <trkpt lat="60.0168813" lon="17.5344544">
        <ele>34.2642</ele>
        <time>2013-05-05T12:42:36Z</time>
      </trkpt>
      <trkpt lat="60.0168024" lon="17.5344347">
        <ele>34.2642</ele>
        <time>2013-05-05T12:42:37Z</time>
      </trkpt>
      <trkpt lat="60.0167239" lon="17.534409">
        <ele>33.7834</ele>
        <time>2013-05-05T12:42:38Z</time>
      </trkpt>
      <trkpt lat="60.0166456" lon="17.5343809">
        <ele>33.7834</ele>
        <time>2013-05-05T12:42:39Z</time>
      </trkpt>
      <trkpt lat="60.0165672" lon="17.5343509">
        <ele>33.3029</ele>
        <time>2013-05-05T12:42:40Z</time>
      </trkpt>
      <trkpt lat="60.0164883" lon="17.5343181">
        <ele>33.3029</ele>
        <time>2013-05-05T12:42:41Z</time>
      </trkpt>
      <trkpt lat="60.01641" lon="17.534285">
        <ele>32.8223</ele>
        <time>2013-05-05T12:42:42Z</time>
      </trkpt>
      <trkpt lat="60.0163315" lon="17.534253">
        <ele>32.8223</ele>
        <time>2013-05-05T12:42:43Z</time>
      </trkpt>
      <trkpt lat="60.0162545" lon="17.5342208">
        <ele>32.3416</ele>
        <time>2013-05-05T12:42:44Z</time>
      </trkpt>
      <trkpt lat="60.0161794" lon="17.5341902">
        <ele>32.3416</ele>
        <time>2013-05-05T12:42:45Z</time>
      </trkpt>
      <trkpt lat="60.0161059" lon="17.5341618">
        <ele>31.8607</ele>
        <time>2013-05-05T12:42:46Z</time>
      </trkpt>
      <trkpt lat="60.0160344" lon="17.5341363">
        <ele>31.8607</ele>
        <time>2013-05-05T12:42:47Z</time>
      </trkpt>
      <trkpt lat="60.0159646" lon="17.534111">
        <ele>31.8607</ele>
        <time>2013-05-05T12:42:48Z</time>
      </trkpt>
      <trkpt lat="60.0158946" lon="17.5340859">
        <ele>31.8607</ele>
        <time>2013-05-05T12:42:49Z</time>
      </trkpt>
      <trkpt lat="60.0158239" lon="17.5340596">
        <ele>31.8607</ele>
        <time>2013-05-05T12:42:50Z</time>
      </trkpt>
      <trkpt lat="60.0157537" lon="17.5340333">
        <ele>31.8607</ele>
        <time>2013-05-05T12:42:51Z</time>
      </trkpt>
      <trkpt lat="60.0156851" lon="17.5340067">
        <ele>31.8607</ele>
        <time>2013-05-05T12:42:52Z</time>
      </trkpt>
      <trkpt lat="60.015617" lon="17.5339815">
        <ele>31.8607</ele>
        <time>2013-05-05T12:42:53Z</time>
      </trkpt>
      <trkpt lat="60.0155491" lon="17.533958">
        <ele>31.8607</ele>
        <time>2013-05-05T12:42:54Z</time>
      </trkpt>
      <trkpt lat="60.015481" lon="17.5339337">
        <ele>31.8607</ele>
        <time>2013-05-05T12:42:55Z</time>
      </trkpt>
      <trkpt lat="60.0154123" lon="17.53391">
        <ele>31.8607</ele>
        <time>2013-05-05T12:42:56Z</time>
      </trkpt>
      <trkpt lat="60.015343" lon="17.5338832">
        <ele>31.8607</ele>
        <time>2013-05-05T12:42:57Z</time>
      </trkpt>
      <trkpt lat="60.0152739" lon="17.5338541">
        <ele>31.3801</ele>
        <time>2013-05-05T12:42:58Z</time>
      </trkpt>
      <trkpt lat="60.0152051" lon="17.5338264">
        <ele>31.3801</ele>
        <time>2013-05-05T12:42:59Z</time>
      </trkpt>
      <trkpt lat="60.0151367" lon="17.5338032">
        <ele>31.8607</ele>
        <time>2013-05-05T12:43:00Z</time>
      </trkpt>
      <trkpt lat="60.0150663" lon="17.5337825">
        <ele>31.8607</ele>
        <time>2013-05-05T12:43:01Z</time>
      </trkpt>
      <trkpt lat="60.0149951" lon="17.5337585">
        <ele>31.8607</ele>
        <time>2013-05-05T12:43:02Z</time>
      </trkpt>
      <trkpt lat="60.0149229" lon="17.53373">
        <ele>31.8607</ele>
        <time>2013-05-05T12:43:03Z</time>
      </trkpt>
      <trkpt lat="60.0148497" lon="17.5337008">
        <ele>32.3416</ele>
        <time>2013-05-05T12:43:04Z</time>
      </trkpt>
      <trkpt lat="60.0147751" lon="17.5336746">
        <ele>32.3416</ele>
        <time>2013-05-05T12:43:05Z</time>
      </trkpt>
      <trkpt lat="60.0146998" lon="17.5336488">
        <ele>32.3416</ele>
        <time>2013-05-05T12:43:06Z</time>
      </trkpt>
      <trkpt lat="60.0146248" lon="17.5336207">
        <ele>32.3416</ele>
        <time>2013-05-05T12:43:07Z</time>
      </trkpt>
      <trkpt lat="60.0145494" lon="17.5335925">
        <ele>32.3416</ele>
        <time>2013-05-05T12:43:08Z</time>
      </trkpt>
      <trkpt lat="60.0144731" lon="17.533565">
        <ele>32.3416</ele>
        <time>2013-05-05T12:43:09Z</time>
      </trkpt>
      <trkpt lat="60.0143954" lon="17.5335363">
        <ele>31.8607</ele>
        <time>2013-05-05T12:43:10Z</time>
      </trkpt>
      <trkpt lat="60.0143177" lon="17.5335063">
        <ele>31.8607</ele>
        <time>2013-05-05T12:43:11Z</time>
      </trkpt>
      <trkpt lat="60.0142401" lon="17.5334749">
        <ele>31.8607</ele>
        <time>2013-05-05T12:43:12Z</time>
      </trkpt>
      <trkpt lat="60.0141614" lon="17.5334417">
        <ele>31.3801</ele>
        <time>2013-05-05T12:43:13Z</time>
      </trkpt>
      <trkpt lat="60.0140819" lon="17.5334112">
        <ele>31.3801</ele>
        <time>2013-05-05T12:43:14Z</time>
      </trkpt>
      <trkpt lat="60.0140001" lon="17.5333853">
        <ele>30.8995</ele>
        <time>2013-05-05T12:43:15Z</time>
      </trkpt>
      <trkpt lat="60.0139177" lon="17.5333609">
        <ele>30.4188</ele>
        <time>2013-05-05T12:43:16Z</time>
      </trkpt>
      <trkpt lat="60.0138354" lon="17.5333324">
        <ele>30.4188</ele>
        <time>2013-05-05T12:43:17Z</time>
      </trkpt>
      <trkpt lat="60.0137531" lon="17.5332981">
        <ele>29.9381</ele>
        <time>2013-05-05T12:43:18Z</time>
      </trkpt>
      <trkpt lat="60.0136697" lon="17.5332614">
        <ele>29.9381</ele>
        <time>2013-05-05T12:43:19Z</time>
      </trkpt>
      <trkpt lat="60.0135856" lon="17.5332241">
        <ele>29.4575</ele>
        <time>2013-05-05T12:43:20Z</time>
      </trkpt>
      <trkpt lat="60.0135007" lon="17.53319">
        <ele>28.9769</ele>
        <time>2013-05-05T12:43:21Z</time>
      </trkpt>
      <trkpt lat="60.0134153" lon="17.5331577">
        <ele>28.9769</ele>
        <time>2013-05-05T12:43:22Z</time>
      </trkpt>
      <trkpt lat="60.0133304" lon="17.5331241">
        <ele>28.4962</ele>
        <time>2013-05-05T12:43:23Z</time>
      </trkpt>
      <trkpt lat="60.0132465" lon="17.5330887">
        <ele>28.4962</ele>
        <time>2013-05-05T12:43:24Z</time>
      </trkpt>
      <trkpt lat="60.0131636" lon="17.5330501">
        <ele>28.0155</ele>
        <time>2013-05-05T12:43:25Z</time>
      </trkpt>
      <trkpt lat="60.0130813" lon="17.5330102">
        <ele>28.0155</ele>
        <time>2013-05-05T12:43:26Z</time>
      </trkpt>
      <trkpt lat="60.0129997" lon="17.5329698">
        <ele>28.0155</ele>
        <time>2013-05-05T12:43:27Z</time>
      </trkpt>
      <trkpt lat="60.0129194" lon="17.5329254">
        <ele>27.5349</ele>
        <time>2013-05-05T12:43:28Z</time>
      </trkpt>
      <trkpt lat="60.0128409" lon="17.5328761">
        <ele>27.5349</ele>
        <time>2013-05-05T12:43:29Z</time>
      </trkpt>
      <trkpt lat="60.0127637" lon="17.5328248">
        <ele>27.5349</ele>
        <time>2013-05-05T12:43:30Z</time>
      </trkpt>
      <trkpt lat="60.0126876" lon="17.532774">
        <ele>27.5349</ele>
        <time>2013-05-05T12:43:31Z</time>
      </trkpt>
      <trkpt lat="60.0126135" lon="17.5327243">
        <ele>27.0543</ele>
        <time>2013-05-05T12:43:32Z</time>
      </trkpt>
      <trkpt lat="60.0125423" lon="17.532673">
        <ele>27.0543</ele>
        <time>2013-05-05T12:43:33Z</time>
      </trkpt>
      <trkpt lat="60.0124732" lon="17.5326239">
        <ele>27.5349</ele>
        <time>2013-05-05T12:43:34Z</time>
      </trkpt>
      <trkpt lat="60.0124053" lon="17.5325781">
        <ele>27.5349</ele>
        <time>2013-05-05T12:43:35Z</time>
      </trkpt>
      <trkpt lat="60.0123389" lon="17.532533">
        <ele>27.5349</ele>
        <time>2013-05-05T12:43:36Z</time>
      </trkpt>
      <trkpt lat="60.0122738" lon="17.5324859">
        <ele>28.0155</ele>
        <time>2013-05-05T12:43:37Z</time>
      </trkpt>
      <trkpt lat="60.0122098" lon="17.5324399">
        <ele>28.0155</ele>
        <time>2013-05-05T12:43:38Z</time>
      </trkpt>
      <trkpt lat="60.0121458" lon="17.5323983">
        <ele>28.0155</ele>
        <time>2013-05-05T12:43:39Z</time>
      </trkpt>
      <trkpt lat="60.0120825" lon="17.5323549">
        <ele>28.4962</ele>
        <time>2013-05-05T12:43:40Z</time>
      </trkpt>
      <trkpt lat="60.0120206" lon="17.532306">
        <ele>28.4962</ele>
        <time>2013-05-05T12:43:41Z</time>
      </trkpt>
      <trkpt lat="60.0119595" lon="17.5322579">
        <ele>28.4962</ele>
        <time>2013-05-05T12:43:42Z</time>
      </trkpt>
      <trkpt lat="60.0118982" lon="17.532213">
        <ele>28.4962</ele>
        <time>2013-05-05T12:43:43Z</time>
      </trkpt>
      <trkpt lat="60.0118363" lon="17.5321698">
        <ele>28.9769</ele>
        <time>2013-05-05T12:43:44Z</time>
      </trkpt>
      <trkpt lat="60.0117733" lon="17.5321279">
        <ele>28.9769</ele>
        <time>2013-05-05T12:43:45Z</time>
      </trkpt>
      <trkpt lat="60.0117107" lon="17.5320859">
        <ele>28.9769</ele>
        <time>2013-05-05T12:43:46Z</time>
      </trkpt>
      <trkpt lat="60.0116485" lon="17.5320426">
        <ele>29.4575</ele>
        <time>2013-05-05T12:43:47Z</time>
      </trkpt>
      <trkpt lat="60.0115864" lon="17.5319971">
        <ele>29.4575</ele>
        <time>2013-05-05T12:43:48Z</time>
      </trkpt>
      <trkpt lat="60.0115244" lon="17.5319509">
        <ele>29.9381</ele>
        <time>2013-05-05T12:43:49Z</time>
      </trkpt>
      <trkpt lat="60.0114614" lon="17.5319053">
        <ele>29.9381</ele>
        <time>2013-05-05T12:43:50Z</time>
      </trkpt>
      <trkpt lat="60.0113983" lon="17.5318597">
        <ele>29.9381</ele>
        <time>2013-05-05T12:43:51Z</time>
      </trkpt>
      <trkpt lat="60.0113351" lon="17.531812">
        <ele>29.9381</ele>
        <time>2013-05-05T12:43:52Z</time>
      </trkpt>
      <trkpt lat="60.0112713" lon="17.5317623">
        <ele>29.9381</ele>
        <time>2013-05-05T12:43:53Z</time>
      </trkpt>
      <trkpt lat="60.0112061" lon="17.5317127">
        <ele>29.9381</ele>
        <time>2013-05-05T12:43:54Z</time>
      </trkpt>
      <trkpt lat="60.01114" lon="17.5316629">
        <ele>29.9381</ele>
        <time>2013-05-05T12:43:55Z</time>
      </trkpt>
      <trkpt lat="60.0110728" lon="17.5316117">
        <ele>29.9381</ele>
        <time>2013-05-05T12:43:56Z</time>
      </trkpt>
      <trkpt lat="60.0110045" lon="17.5315624">
        <ele>29.9381</ele>
        <time>2013-05-05T12:43:57Z</time>
      </trkpt>
      <trkpt lat="60.0109368" lon="17.5315132">
        <ele>29.9381</ele>
        <time>2013-05-05T12:43:58Z</time>
      </trkpt>
      <trkpt lat="60.0108701" lon="17.531464">
        <ele>29.9381</ele>
        <time>2013-05-05T12:43:59Z</time>
      </trkpt>
      <trkpt lat="60.0108035" lon="17.531418">
        <ele>29.9381</ele>
        <time>2013-05-05T12:44:00Z</time>
      </trkpt>
      <trkpt lat="60.0107361" lon="17.5313754">
        <ele>29.9381</ele>
        <time>2013-05-05T12:44:01Z</time>
      </trkpt>
      <trkpt lat="60.010669" lon="17.5313314">
        <ele>29.9381</ele>
        <time>2013-05-05T12:44:02Z</time>
      </trkpt>
      <trkpt lat="60.0106026" lon="17.5312843">
        <ele>29.9381</ele>
        <time>2013-05-05T12:44:03Z</time>
      </trkpt>
      <trkpt lat="60.010536" lon="17.5312367">
        <ele>29.9381</ele>
        <time>2013-05-05T12:44:04Z</time>
      </trkpt>
      <trkpt lat="60.0104684" lon="17.5311894">
        <ele>29.9381</ele>
        <time>2013-05-05T12:44:05Z</time>
      </trkpt>
      <trkpt lat="60.0104003" lon="17.5311429">
        <ele>29.9381</ele>
        <time>2013-05-05T12:44:06Z</time>
      </trkpt>
      <trkpt lat="60.0103317" lon="17.5310981">
        <ele>29.9381</ele>
        <time>2013-05-05T12:44:07Z</time>
      </trkpt>
      <trkpt lat="60.0102626" lon="17.531054">
        <ele>29.9381</ele>
        <time>2013-05-05T12:44:08Z</time>
      </trkpt>
      <trkpt lat="60.0101932" lon="17.5310082">
        <ele>29.9381</ele>
        <time>2013-05-05T12:44:09Z</time>
      </trkpt>
      <trkpt lat="60.0101235" lon="17.5309616">
        <ele>29.4575</ele>
        <time>2013-05-05T12:44:10Z</time>
      </trkpt>
      <trkpt lat="60.0100529" lon="17.5309169">
        <ele>29.4575</ele>
        <time>2013-05-05T12:44:11Z</time>
      </trkpt>
      <trkpt lat="60.0099809" lon="17.5308743">
        <ele>29.4575</ele>
        <time>2013-05-05T12:44:12Z</time>
      </trkpt>
      <trkpt lat="60.0099083" lon="17.5308309">
        <ele>29.4575</ele>
        <time>2013-05-05T12:44:13Z</time>
      </trkpt>
      <trkpt lat="60.0098354" lon="17.5307852">
        <ele>29.4575</ele>
        <time>2013-05-05T12:44:14Z</time>
      </trkpt>
      <trkpt lat="60.0097622" lon="17.5307389">
        <ele>28.9769</ele>
        <time>2013-05-05T12:44:15Z</time>
      </trkpt>
      <trkpt lat="60.0096877" lon="17.530693">
        <ele>28.9769</ele>
        <time>2013-05-05T12:44:16Z</time>
      </trkpt>
      <trkpt lat="60.0096129" lon="17.530646">
        <ele>28.9769</ele>
        <time>2013-05-05T12:44:17Z</time>
      </trkpt>
      <trkpt lat="60.0095378" lon="17.5305983">
        <ele>28.9769</ele>
        <time>2013-05-05T12:44:18Z</time>
      </trkpt>
      <trkpt lat="60.0094625" lon="17.5305493">
        <ele>28.4962</ele>
        <time>2013-05-05T12:44:19Z</time>
      </trkpt>
      <trkpt lat="60.0093871" lon="17.5305015">
        <ele>28.4962</ele>
        <time>2013-05-05T12:44:20Z</time>
      </trkpt>
      <trkpt lat="60.0093113" lon="17.5304553">
        <ele>28.4962</ele>
        <time>2013-05-05T12:44:21Z</time>
      </trkpt>
      <trkpt lat="60.0092355" lon="17.5304073">
        <ele>28.4962</ele>
        <time>2013-05-05T12:44:22Z</time>
      </trkpt>
      <trkpt lat="60.0091598" lon="17.5303575">
        <ele>28.4962</ele>
        <time>2013-05-05T12:44:23Z</time>
      </trkpt>
      <trkpt lat="60.0090842" lon="17.5303083">
        <ele>28.0155</ele>
        <time>2013-05-05T12:44:24Z</time>
      </trkpt>
      <trkpt lat="60.0090081" lon="17.5302617">
        <ele>28.0155</ele>
        <time>2013-05-05T12:44:25Z</time>
      </trkpt>
      <trkpt lat="60.0089321" lon="17.5302165">
        <ele>28.0155</ele>
        <time>2013-05-05T12:44:26Z</time>
      </trkpt>
      <trkpt lat="60.0088575" lon="17.5301694">
        <ele>28.0155</ele>
        <time>2013-05-05T12:44:27Z</time>
      </trkpt>
      <trkpt lat="60.0087838" lon="17.5301213">
        <ele>28.0155</ele>
        <time>2013-05-05T12:44:28Z</time>
      </trkpt>
      <trkpt lat="60.0087095" lon="17.5300744">
        <ele>28.0155</ele>
        <time>2013-05-05T12:44:29Z</time>
      </trkpt>
      <trkpt lat="60.0086351" lon="17.5300315">
        <ele>28.0155</ele>
        <time>2013-05-05T12:44:30Z</time>
      </trkpt>
      <trkpt lat="60.0085616" lon="17.5299902">
        <ele>28.0155</ele>
        <time>2013-05-05T12:44:31Z</time>
      </trkpt>
      <trkpt lat="60.0084891" lon="17.5299449">
        <ele>27.5349</ele>
        <time>2013-05-05T12:44:32Z</time>
      </trkpt>
      <trkpt lat="60.0084171" lon="17.5298985">
        <ele>27.5349</ele>
        <time>2013-05-05T12:44:33Z</time>
      </trkpt>
      <trkpt lat="60.008345" lon="17.5298548">
        <ele>27.5349</ele>
        <time>2013-05-05T12:44:34Z</time>
      </trkpt>
      <trkpt lat="60.0082731" lon="17.5298089">
        <ele>27.5349</ele>
        <time>2013-05-05T12:44:35Z</time>
      </trkpt>
      <trkpt lat="60.0082016" lon="17.5297592">
        <ele>27.5349</ele>
        <time>2013-05-05T12:44:36Z</time>
      </trkpt>
      <trkpt lat="60.00813" lon="17.529708">
        <ele>27.5349</ele>
        <time>2013-05-05T12:44:37Z</time>
      </trkpt>
      <trkpt lat="60.0080577" lon="17.5296603">
        <ele>27.5349</ele>
        <time>2013-05-05T12:44:38Z</time>
      </trkpt>
      <trkpt lat="60.0079849" lon="17.529616">
        <ele>27.5349</ele>
        <time>2013-05-05T12:44:39Z</time>
      </trkpt>
      <trkpt lat="60.0079115" lon="17.5295717">
        <ele>27.0543</ele>
        <time>2013-05-05T12:44:40Z</time>
      </trkpt>
      <trkpt lat="60.0078375" lon="17.5295292">
        <ele>27.0543</ele>
        <time>2013-05-05T12:44:41Z</time>
      </trkpt>
      <trkpt lat="60.0077644" lon="17.5294872">
        <ele>27.0543</ele>
        <time>2013-05-05T12:44:42Z</time>
      </trkpt>
      <trkpt lat="60.0076932" lon="17.5294422">
        <ele>27.0543</ele>
        <time>2013-05-05T12:44:43Z</time>
      </trkpt>
      <trkpt lat="60.0076231" lon="17.5293924">
        <ele>26.5736</ele>
        <time>2013-05-05T12:44:44Z</time>
      </trkpt>
      <trkpt lat="60.0075536" lon="17.529341">
        <ele>26.5736</ele>
        <time>2013-05-05T12:44:45Z</time>
      </trkpt>
      <trkpt lat="60.007485" lon="17.5292872">
        <ele>26.0929</ele>
        <time>2013-05-05T12:44:46Z</time>
      </trkpt>
      <trkpt lat="60.0074174" lon="17.5292302">
        <ele>26.0929</ele>
        <time>2013-05-05T12:44:47Z</time>
      </trkpt>
      <trkpt lat="60.0073505" lon="17.5291703">
        <ele>26.0929</ele>
        <time>2013-05-05T12:44:48Z</time>
      </trkpt>
      <trkpt lat="60.0072837" lon="17.5291063">
        <ele>25.6123</ele>
        <time>2013-05-05T12:44:49Z</time>
      </trkpt>
      <trkpt lat="60.0072174" lon="17.5290387">
        <ele>25.6123</ele>
        <time>2013-05-05T12:44:50Z</time>
      </trkpt>
      <trkpt lat="60.0071534" lon="17.5289707">
        <ele>25.6123</ele>
        <time>2013-05-05T12:44:51Z</time>
      </trkpt>
      <trkpt lat="60.0070911" lon="17.5288972">
        <ele>26.0929</ele>
        <time>2013-05-05T12:44:52Z</time>
      </trkpt>
      <trkpt lat="60.0070296" lon="17.52882">
        <ele>26.0929</ele>
        <time>2013-05-05T12:44:53Z</time>
      </trkpt>
      <trkpt lat="60.0069687" lon="17.5287395">
        <ele>26.0929</ele>
        <time>2013-05-05T12:44:54Z</time>
      </trkpt>
      <trkpt lat="60.0069081" lon="17.5286543">
        <ele>26.0929</ele>
        <time>2013-05-05T12:44:55Z</time>
      </trkpt>
      <trkpt lat="60.0068474" lon="17.5285648">
        <ele>25.6123</ele>
        <time>2013-05-05T12:44:56Z</time>
      </trkpt>
      <trkpt lat="60.0067879" lon="17.5284608">
        <ele>26.0929</ele>
        <time>2013-05-05T12:44:57Z</time>
      </trkpt>
      <trkpt lat="60.0067326" lon="17.5283507">
        <ele>26.0929</ele>
        <time>2013-05-05T12:44:58Z</time>
      </trkpt>
      <trkpt lat="60.0066853" lon="17.5282249">
        <ele>26.0929</ele>
        <time>2013-05-05T12:44:59Z</time>
      </trkpt>
      <trkpt lat="60.0066387" lon="17.5280894">
        <ele>26.5736</ele>
        <time>2013-05-05T12:45:00Z</time>
      </trkpt>
      <trkpt lat="60.0065847" lon="17.5279693">
        <ele>26.5736</ele>
        <time>2013-05-05T12:45:01Z</time>
      </trkpt>
      <trkpt lat="60.0065332" lon="17.5278525">
        <ele>27.0543</ele>
        <time>2013-05-05T12:45:02Z</time>
      </trkpt>
      <trkpt lat="60.0064817" lon="17.5277299">
        <ele>27.0543</ele>
        <time>2013-05-05T12:45:03Z</time>
      </trkpt>
      <trkpt lat="60.0064315" lon="17.5276079">
        <ele>27.0543</ele>
        <time>2013-05-05T12:45:04Z</time>
      </trkpt>
      <trkpt lat="60.0063863" lon="17.5274955">
        <ele>27.5349</ele>
        <time>2013-05-05T12:45:05Z</time>
      </trkpt>
      <trkpt lat="60.0063446" lon="17.527379">
        <ele>28.0155</ele>
        <time>2013-05-05T12:45:06Z</time>
      </trkpt>
      <trkpt lat="60.0063058" lon="17.5272562">
        <ele>28.4962</ele>
        <time>2013-05-05T12:45:07Z</time>
      </trkpt>
      <trkpt lat="60.0062647" lon="17.5271407">
        <ele>28.4962</ele>
        <time>2013-05-05T12:45:08Z</time>
      </trkpt>
      <trkpt lat="60.0062265" lon="17.5270229">
        <ele>28.9769</ele>
        <time>2013-05-05T12:45:09Z</time>
      </trkpt>
      <trkpt lat="60.0061905" lon="17.5269039">
        <ele>28.9769</ele>
        <time>2013-05-05T12:45:10Z</time>
      </trkpt>
      <trkpt lat="60.0061511" lon="17.5267775">
        <ele>28.9769</ele>
        <time>2013-05-05T12:45:11Z</time>
      </trkpt>
      <trkpt lat="60.0061134" lon="17.5266552">
        <ele>28.9769</ele>
        <time>2013-05-05T12:45:12Z</time>
      </trkpt>
      <trkpt lat="60.0060772" lon="17.5265347">
        <ele>28.9769</ele>
        <time>2013-05-05T12:45:13Z</time>
      </trkpt>
      <trkpt lat="60.0060424" lon="17.526417">
        <ele>28.4962</ele>
        <time>2013-05-05T12:45:14Z</time>
      </trkpt>
      <trkpt lat="60.0060086" lon="17.5263005">
        <ele>28.4962</ele>
        <time>2013-05-05T12:45:15Z</time>
      </trkpt>
      <trkpt lat="60.0059766" lon="17.5261854">
        <ele>28.9769</ele>
        <time>2013-05-05T12:45:16Z</time>
      </trkpt>
      <trkpt lat="60.0059457" lon="17.526072">
        <ele>28.9769</ele>
        <time>2013-05-05T12:45:17Z</time>
      </trkpt>
      <trkpt lat="60.0059143" lon="17.525961">
        <ele>28.9769</ele>
        <time>2013-05-05T12:45:18Z</time>
      </trkpt>
      <trkpt lat="60.0058827" lon="17.5258513">
        <ele>28.9769</ele>
        <time>2013-05-05T12:45:19Z</time>
      </trkpt>
      <trkpt lat="60.0058513" lon="17.5257434">
        <ele>28.9769</ele>
        <time>2013-05-05T12:45:20Z</time>
      </trkpt>
      <trkpt lat="60.0058199" lon="17.5256379">
        <ele>28.9769</ele>
        <time>2013-05-05T12:45:21Z</time>
      </trkpt>
      <trkpt lat="60.0057896" lon="17.5255311">
        <ele>28.9769</ele>
        <time>2013-05-05T12:45:22Z</time>
      </trkpt>
      <trkpt lat="60.0057593" lon="17.5254244">
        <ele>29.4575</ele>
        <time>2013-05-05T12:45:23Z</time>
      </trkpt>
      <trkpt lat="60.0057296" lon="17.5253178">
        <ele>29.4575</ele>
        <time>2013-05-05T12:45:24Z</time>
      </trkpt>
      <trkpt lat="60.0057006" lon="17.5252101">
        <ele>29.4575</ele>
        <time>2013-05-05T12:45:25Z</time>
      </trkpt>
      <trkpt lat="60.0056707" lon="17.5251023">
        <ele>29.9381</ele>
        <time>2013-05-05T12:45:26Z</time>
      </trkpt>
      <trkpt lat="60.0056426" lon="17.5249967">
        <ele>29.9381</ele>
        <time>2013-05-05T12:45:27Z</time>
      </trkpt>
      <trkpt lat="60.0056115" lon="17.524894">
        <ele>30.4188</ele>
        <time>2013-05-05T12:45:28Z</time>
      </trkpt>
      <trkpt lat="60.0055773" lon="17.5247835">
        <ele>29.9381</ele>
        <time>2013-05-05T12:45:29Z</time>
      </trkpt>
      <trkpt lat="60.0055435" lon="17.5246721">
        <ele>29.4575</ele>
        <time>2013-05-05T12:45:30Z</time>
      </trkpt>
      <trkpt lat="60.0055113" lon="17.5245593">
        <ele>29.4575</ele>
        <time>2013-05-05T12:45:31Z</time>
      </trkpt>
      <trkpt lat="60.0054794" lon="17.5244476">
        <ele>28.9769</ele>
        <time>2013-05-05T12:45:32Z</time>
      </trkpt>
      <trkpt lat="60.0054445" lon="17.5243135">
        <ele>28.9769</ele>
        <time>2013-05-05T12:45:33Z</time>
      </trkpt>
      <trkpt lat="60.0054086" lon="17.5241884">
        <ele>28.9769</ele>
        <time>2013-05-05T12:45:34Z</time>
      </trkpt>
      <trkpt lat="60.0053756" lon="17.5240652">
        <ele>28.9769</ele>
        <time>2013-05-05T12:45:35Z</time>
      </trkpt>
      <trkpt lat="60.0053432" lon="17.5239559">
        <ele>29.4575</ele>
        <time>2013-05-05T12:45:36Z</time>
      </trkpt>
      <trkpt lat="60.0053107" lon="17.5238414">
        <ele>29.9381</ele>
        <time>2013-05-05T12:45:37Z</time>
      </trkpt>
      <trkpt lat="60.0052779" lon="17.5237223">
        <ele>29.9381</ele>
        <time>2013-05-05T12:45:38Z</time>
      </trkpt>
      <trkpt lat="60.0052453" lon="17.5236073">
        <ele>30.4188</ele>
        <time>2013-05-05T12:45:39Z</time>
      </trkpt>
      <trkpt lat="60.0052137" lon="17.5234913">
        <ele>30.4188</ele>
        <time>2013-05-05T12:45:40Z</time>
      </trkpt>
      <trkpt lat="60.0051834" lon="17.5233745">
        <ele>30.4188</ele>
        <time>2013-05-05T12:45:41Z</time>
      </trkpt>
      <trkpt lat="60.0051483" lon="17.5232493">
        <ele>30.4188</ele>
        <time>2013-05-05T12:45:42Z</time>
      </trkpt>
      <trkpt lat="60.005114" lon="17.5231288">
        <ele>30.4188</ele>
        <time>2013-05-05T12:45:43Z</time>
      </trkpt>
      <trkpt lat="60.0050796" lon="17.5230099">
        <ele>30.4188</ele>
        <time>2013-05-05T12:45:44Z</time>
      </trkpt>
      <trkpt lat="60.0050454" lon="17.5228914">
        <ele>30.4188</ele>
        <time>2013-05-05T12:45:45Z</time>
      </trkpt>
      <trkpt lat="60.0050121" lon="17.5227734">
        <ele>29.9381</ele>
        <time>2013-05-05T12:45:46Z</time>
      </trkpt>
      <trkpt lat="60.0049791" lon="17.5226538">
        <ele>29.9381</ele>
        <time>2013-05-05T12:45:47Z</time>
      </trkpt>
      <trkpt lat="60.0049436" lon="17.522541">
        <ele>29.4575</ele>
        <time>2013-05-05T12:45:48Z</time>
      </trkpt>
      <trkpt lat="60.0049094" lon="17.5224279">
        <ele>28.9769</ele>
        <time>2013-05-05T12:45:49Z</time>
      </trkpt>
      <trkpt lat="60.0048754" lon="17.522315">
        <ele>28.9769</ele>
        <time>2013-05-05T12:45:50Z</time>
      </trkpt>
      <trkpt lat="60.0048412" lon="17.522204">
        <ele>28.9769</ele>
        <time>2013-05-05T12:45:51Z</time>
      </trkpt>
      <trkpt lat="60.0048101" lon="17.5220942">
        <ele>29.4575</ele>
        <time>2013-05-05T12:45:52Z</time>
      </trkpt>
      <trkpt lat="60.004778" lon="17.5219852">
        <ele>29.4575</ele>
        <time>2013-05-05T12:45:53Z</time>
      </trkpt>
      <trkpt lat="60.0047463" lon="17.5218746">
        <ele>29.4575</ele>
        <time>2013-05-05T12:45:54Z</time>
      </trkpt>
      <trkpt lat="60.0047155" lon="17.5217643">
        <ele>29.4575</ele>
        <time>2013-05-05T12:45:55Z</time>
      </trkpt>
      <trkpt lat="60.0046843" lon="17.5216565">
        <ele>29.9381</ele>
        <time>2013-05-05T12:45:56Z</time>
      </trkpt>
      <trkpt lat="60.0046536" lon="17.5215511">
        <ele>30.4188</ele>
        <time>2013-05-05T12:45:57Z</time>
      </trkpt>
      <trkpt lat="60.0046217" lon="17.5214461">
        <ele>29.9381</ele>
        <time>2013-05-05T12:45:58Z</time>
      </trkpt>
      <trkpt lat="60.0045889" lon="17.5213388">
        <ele>30.4188</ele>
        <time>2013-05-05T12:45:59Z</time>
      </trkpt>
      <trkpt lat="60.0045535" lon="17.5212364">
        <ele>30.8995</ele>
        <time>2013-05-05T12:46:00Z</time>
      </trkpt>
      <trkpt lat="60.0045157" lon="17.5211317">
        <ele>30.4188</ele>
        <time>2013-05-05T12:46:01Z</time>
      </trkpt>
      <trkpt lat="60.0044885" lon="17.5210275">
        <ele>30.4188</ele>
        <time>2013-05-05T12:46:02Z</time>
      </trkpt>
      <trkpt lat="60.0044651" lon="17.5209191">
        <ele>30.8995</ele>
        <time>2013-05-05T12:46:03Z</time>
      </trkpt>
      <trkpt lat="60.0044408" lon="17.5208111">
        <ele>30.8995</ele>
        <time>2013-05-05T12:46:04Z</time>
      </trkpt>
      <trkpt lat="60.0044113" lon="17.520704">
        <ele>30.8995</ele>
        <time>2013-05-05T12:46:05Z</time>
      </trkpt>
      <trkpt lat="60.0043813" lon="17.5206028">
        <ele>31.3801</ele>
        <time>2013-05-05T12:46:06Z</time>
      </trkpt>
      <trkpt lat="60.0043521" lon="17.5205023">
        <ele>31.3801</ele>
        <time>2013-05-05T12:46:07Z</time>
      </trkpt>
      <trkpt lat="60.004323" lon="17.5204054">
        <ele>31.8607</ele>
        <time>2013-05-05T12:46:08Z</time>
      </trkpt>
      <trkpt lat="60.0042921" lon="17.5203108">
        <ele>31.8607</ele>
        <time>2013-05-05T12:46:09Z</time>
      </trkpt>
      <trkpt lat="60.0042588" lon="17.5202149">
        <ele>31.3801</ele>
        <time>2013-05-05T12:46:10Z</time>
      </trkpt>
      <trkpt lat="60.0042264" lon="17.5201196">
        <ele>31.3801</ele>
        <time>2013-05-05T12:46:11Z</time>
      </trkpt>
      <trkpt lat="60.0041951" lon="17.5200233">
        <ele>30.8995</ele>
        <time>2013-05-05T12:46:12Z</time>
      </trkpt>
      <trkpt lat="60.004163" lon="17.5199268">
        <ele>30.8995</ele>
        <time>2013-05-05T12:46:13Z</time>
      </trkpt>
      <trkpt lat="60.0041303" lon="17.5198318">
        <ele>30.8995</ele>
        <time>2013-05-05T12:46:14Z</time>
      </trkpt>
      <trkpt lat="60.0040974" lon="17.5197378">
        <ele>30.8995</ele>
        <time>2013-05-05T12:46:15Z</time>
      </trkpt>
      <trkpt lat="60.0040646" lon="17.5196448">
        <ele>30.8995</ele>
        <time>2013-05-05T12:46:16Z</time>
      </trkpt>
      <trkpt lat="60.0040329" lon="17.5195513">
        <ele>30.8995</ele>
        <time>2013-05-05T12:46:17Z</time>
      </trkpt>
      <trkpt lat="60.0040013" lon="17.5194586">
        <ele>30.4188</ele>
        <time>2013-05-05T12:46:18Z</time>
      </trkpt>
      <trkpt lat="60.0039669" lon="17.5193696">
        <ele>30.4188</ele>
        <time>2013-05-05T12:46:19Z</time>
      </trkpt>
      <trkpt lat="60.0039321" lon="17.5192824">
        <ele>30.4188</ele>
        <time>2013-05-05T12:46:20Z</time>
      </trkpt>
      <trkpt lat="60.0038984" lon="17.5191942">
        <ele>30.4188</ele>
        <time>2013-05-05T12:46:21Z</time>
      </trkpt>
      <trkpt lat="60.0038639" lon="17.5191088">
        <ele>30.4188</ele>
        <time>2013-05-05T12:46:22Z</time>
      </trkpt>
      <trkpt lat="60.0038283" lon="17.519028">
        <ele>30.8995</ele>
        <time>2013-05-05T12:46:23Z</time>
      </trkpt>
      <trkpt lat="60.0037918" lon="17.51895">
        <ele>30.8995</ele>
        <time>2013-05-05T12:46:24Z</time>
      </trkpt>
      <trkpt lat="60.0037555" lon="17.5188727">
        <ele>30.8995</ele>
        <time>2013-05-05T12:46:25Z</time>
      </trkpt>
      <trkpt lat="60.0037188" lon="17.5187954">
        <ele>30.8995</ele>
        <time>2013-05-05T12:46:26Z</time>
      </trkpt>
      <trkpt lat="60.0036824" lon="17.5187174">
        <ele>30.8995</ele>
        <time>2013-05-05T12:46:27Z</time>
      </trkpt>
      <trkpt lat="60.0036457" lon="17.5186389">
        <ele>30.8995</ele>
        <time>2013-05-05T12:46:28Z</time>
      </trkpt>
      <trkpt lat="60.0036083" lon="17.5185628">
        <ele>30.8995</ele>
        <time>2013-05-05T12:46:29Z</time>
      </trkpt>
      <trkpt lat="60.00357" lon="17.5184889">
        <ele>31.3801</ele>
        <time>2013-05-05T12:46:30Z</time>
      </trkpt>
      <trkpt lat="60.0035315" lon="17.5184168">
        <ele>31.3801</ele>
        <time>2013-05-05T12:46:31Z</time>
      </trkpt>
      <trkpt lat="60.003493" lon="17.5183457">
        <ele>31.3801</ele>
        <time>2013-05-05T12:46:32Z</time>
      </trkpt>
      <trkpt lat="60.0034557" lon="17.5182745">
        <ele>31.3801</ele>
        <time>2013-05-05T12:46:33Z</time>
      </trkpt>
      <trkpt lat="60.0034201" lon="17.5182019">
        <ele>31.3801</ele>
        <time>2013-05-05T12:46:34Z</time>
      </trkpt>
      <trkpt lat="60.0033846" lon="17.5181312">
        <ele>31.3801</ele>
        <time>2013-05-05T12:46:35Z</time>
      </trkpt>
      <trkpt lat="60.0033477" lon="17.5180656">
        <ele>31.3801</ele>
        <time>2013-05-05T12:46:36Z</time>
      </trkpt>
      <trkpt lat="60.0033096" lon="17.5180022">
        <ele>31.3801</ele>
        <time>2013-05-05T12:46:37Z</time>
      </trkpt>
      <trkpt lat="60.0032736" lon="17.5179464">
        <ele>31.3801</ele>
        <time>2013-05-05T12:46:38Z</time>
      </trkpt>
      <trkpt lat="60.003237" lon="17.5178811">
        <ele>30.8995</ele>
        <time>2013-05-05T12:46:39Z</time>
      </trkpt>
      <trkpt lat="60.0032006" lon="17.5178145">
        <ele>30.8995</ele>
        <time>2013-05-05T12:46:40Z</time>
      </trkpt>
      <trkpt lat="60.0031638" lon="17.5177477">
        <ele>30.8995</ele>
        <time>2013-05-05T12:46:41Z</time>
      </trkpt>
      <trkpt lat="60.0031247" lon="17.5176857">
        <ele>30.8995</ele>
        <time>2013-05-05T12:46:42Z</time>
      </trkpt>
      <trkpt lat="60.0030846" lon="17.5176257">
        <ele>30.8995</ele>
        <time>2013-05-05T12:46:43Z</time>
      </trkpt>
      <trkpt lat="60.0030462" lon="17.5175611">
        <ele>31.3801</ele>
        <time>2013-05-05T12:46:44Z</time>
      </trkpt>
      <trkpt lat="60.00301" lon="17.5174925">
        <ele>31.3801</ele>
        <time>2013-05-05T12:46:45Z</time>
      </trkpt>
      <trkpt lat="60.0029738" lon="17.5174223">
        <ele>31.3801</ele>
        <time>2013-05-05T12:46:46Z</time>
      </trkpt>
      <trkpt lat="60.0029371" lon="17.5173514">
        <ele>31.3801</ele>
        <time>2013-05-05T12:46:47Z</time>
      </trkpt>
      <trkpt lat="60.0028997" lon="17.5172824">
        <ele>31.3801</ele>
        <time>2013-05-05T12:46:48Z</time>
      </trkpt>
      <trkpt lat="60.0028617" lon="17.517216">
        <ele>31.3801</ele>
        <time>2013-05-05T12:46:49Z</time>
      </trkpt>
      <trkpt lat="60.0028244" lon="17.5171607">
        <ele>31.8607</ele>
        <time>2013-05-05T12:46:50Z</time>
      </trkpt>
      <trkpt lat="60.0027842" lon="17.5170941">
        <ele>31.8607</ele>
        <time>2013-05-05T12:46:51Z</time>
      </trkpt>
      <trkpt lat="60.0027449" lon="17.51703">
        <ele>31.8607</ele>
        <time>2013-05-05T12:46:52Z</time>
      </trkpt>
      <trkpt lat="60.0027051" lon="17.5169633">
        <ele>31.8607</ele>
        <time>2013-05-05T12:46:53Z</time>
      </trkpt>
      <trkpt lat="60.002664" lon="17.5168956">
        <ele>31.8607</ele>
        <time>2013-05-05T12:46:54Z</time>
      </trkpt>
      <trkpt lat="60.0026221" lon="17.5168272">
        <ele>31.8607</ele>
        <time>2013-05-05T12:46:55Z</time>
      </trkpt>
      <trkpt lat="60.0025795" lon="17.5167586">
        <ele>31.8607</ele>
        <time>2013-05-05T12:46:56Z</time>
      </trkpt>
      <trkpt lat="60.002536" lon="17.5166898">
        <ele>31.8607</ele>
        <time>2013-05-05T12:46:57Z</time>
      </trkpt>
      <trkpt lat="60.0024931" lon="17.5166189">
        <ele>31.8607</ele>
        <time>2013-05-05T12:46:58Z</time>
      </trkpt>
      <trkpt lat="60.0024506" lon="17.5165513">
        <ele>31.8607</ele>
        <time>2013-05-05T12:46:59Z</time>
      </trkpt>
      <trkpt lat="60.0024097" lon="17.5164877">
        <ele>31.8607</ele>
        <time>2013-05-05T12:47:00Z</time>
      </trkpt>
      <trkpt lat="60.0023675" lon="17.516426">
        <ele>32.3416</ele>
        <time>2013-05-05T12:47:01Z</time>
      </trkpt>
      <trkpt lat="60.0023288" lon="17.5163672">
        <ele>32.3416</ele>
        <time>2013-05-05T12:47:02Z</time>
      </trkpt>
      <trkpt lat="60.0022933" lon="17.5163127">
        <ele>32.3416</ele>
        <time>2013-05-05T12:47:03Z</time>
      </trkpt>
      <trkpt lat="60.0022601" lon="17.5162613">
        <ele>32.3416</ele>
        <time>2013-05-05T12:47:04Z</time>
      </trkpt>
      <trkpt lat="60.0022292" lon="17.5162169">
        <ele>32.8223</ele>
        <time>2013-05-05T12:47:05Z</time>
      </trkpt>
      <trkpt lat="60.0021955" lon="17.5161739">
        <ele>32.3416</ele>
        <time>2013-05-05T12:47:06Z</time>
      </trkpt>
      <trkpt lat="60.0021614" lon="17.5161298">
        <ele>32.3416</ele>
        <time>2013-05-05T12:47:07Z</time>
      </trkpt>
      <trkpt lat="60.0021247" lon="17.5160963">
        <ele>31.8607</ele>
        <time>2013-05-05T12:47:08Z</time>
      </trkpt>
      <trkpt lat="60.0020868" lon="17.5160584">
        <ele>31.3801</ele>
        <time>2013-05-05T12:47:09Z</time>
      </trkpt>
      <trkpt lat="60.0020465" lon="17.5160153">
        <ele>31.3801</ele>
        <time>2013-05-05T12:47:10Z</time>
      </trkpt>
      <trkpt lat="60.0020036" lon="17.5159685">
        <ele>30.8995</ele>
        <time>2013-05-05T12:47:11Z</time>
      </trkpt>
      <trkpt lat="60.0019595" lon="17.5159263">
        <ele>30.8995</ele>
        <time>2013-05-05T12:47:12Z</time>
      </trkpt>
      <trkpt lat="60.0019092" lon="17.5158878">
        <ele>29.9381</ele>
        <time>2013-05-05T12:47:13Z</time>
      </trkpt>
      <trkpt lat="60.0018563" lon="17.5158506">
        <ele>29.4575</ele>
        <time>2013-05-05T12:47:14Z</time>
      </trkpt>
      <trkpt lat="60.0018003" lon="17.5158123">
        <ele>28.4962</ele>
        <time>2013-05-05T12:47:15Z</time>
      </trkpt>
      <trkpt lat="60.001741" lon="17.5157718">
        <ele>27.5349</ele>
        <time>2013-05-05T12:47:16Z</time>
      </trkpt>
      <trkpt lat="60.0016815" lon="17.5157346">
        <ele>26.5736</ele>
        <time>2013-05-05T12:47:17Z</time>
      </trkpt>
      <trkpt lat="60.0016187" lon="17.5156964">
        <ele>26.0929</ele>
        <time>2013-05-05T12:47:18Z</time>
      </trkpt>
      <trkpt lat="60.0015549" lon="17.5156548">
        <ele>24.651</ele>
        <time>2013-05-05T12:47:19Z</time>
      </trkpt>
      <trkpt lat="60.0014906" lon="17.5156124">
        <ele>24.1703</ele>
        <time>2013-05-05T12:47:20Z</time>
      </trkpt>
      <trkpt lat="60.0014289" lon="17.5155662">
        <ele>23.209</ele>
        <time>2013-05-05T12:47:21Z</time>
      </trkpt>
      <trkpt lat="60.0013694" lon="17.5155253">
        <ele>22.2476</ele>
        <time>2013-05-05T12:47:22Z</time>
      </trkpt>
      <trkpt lat="60.0013093" lon="17.5154926">
        <ele>21.2864</ele>
        <time>2013-05-05T12:47:23Z</time>
      </trkpt>
      <trkpt lat="60.0012494" lon="17.5154674">
        <ele>21.2864</ele>
        <time>2013-05-05T12:47:24Z</time>
      </trkpt>
      <trkpt lat="60.0011924" lon="17.5154489">
        <ele>20.325</ele>
        <time>2013-05-05T12:47:25Z</time>
      </trkpt>
      <trkpt lat="60.0011353" lon="17.51543">
        <ele>19.8444</ele>
        <time>2013-05-05T12:47:26Z</time>
      </trkpt>
      <trkpt lat="60.0010775" lon="17.5154072">
        <ele>18.8831</ele>
        <time>2013-05-05T12:47:27Z</time>
      </trkpt>
      <trkpt lat="60.0010199" lon="17.5153817">
        <ele>18.4023</ele>
        <time>2013-05-05T12:47:28Z</time>
      </trkpt>
      <trkpt lat="60.0009593" lon="17.5153513">
        <ele>18.4023</ele>
        <time>2013-05-05T12:47:29Z</time>
      </trkpt>
      <trkpt lat="60.0008983" lon="17.5153207">
        <ele>19.3638</ele>
        <time>2013-05-05T12:47:30Z</time>
      </trkpt>
      <trkpt lat="60.0008343" lon="17.5152879">
        <ele>19.8444</ele>
        <time>2013-05-05T12:47:31Z</time>
      </trkpt>
      <trkpt lat="60.0007717" lon="17.5152558">
        <ele>20.325</ele>
        <time>2013-05-05T12:47:32Z</time>
      </trkpt>
      <trkpt lat="60.0007091" lon="17.5152238">
        <ele>20.325</ele>
        <time>2013-05-05T12:47:33Z</time>
      </trkpt>
      <trkpt lat="60.0006454" lon="17.5151933">
        <ele>20.8057</ele>
        <time>2013-05-05T12:47:34Z</time>
      </trkpt>
      <trkpt lat="60.0005805" lon="17.515171">
        <ele>21.2864</ele>
        <time>2013-05-05T12:47:35Z</time>
      </trkpt>
      <trkpt lat="60.0005144" lon="17.5151548">
        <ele>21.767</ele>
        <time>2013-05-05T12:47:36Z</time>
      </trkpt>
      <trkpt lat="60.0004475" lon="17.5151528">
        <ele>22.2476</ele>
        <time>2013-05-05T12:47:37Z</time>
      </trkpt>
      <trkpt lat="60.0003801" lon="17.5151667">
        <ele>22.7283</ele>
        <time>2013-05-05T12:47:38Z</time>
      </trkpt>
      <trkpt lat="60.0003123" lon="17.515191">
        <ele>22.7283</ele>
        <time>2013-05-05T12:47:39Z</time>
      </trkpt>
      <trkpt lat="60.0002433" lon="17.5152347">
        <ele>22.2476</ele>
        <time>2013-05-05T12:47:40Z</time>
      </trkpt>
      <trkpt lat="60.0001739" lon="17.5152943">
        <ele>22.2476</ele>
        <time>2013-05-05T12:47:41Z</time>
      </trkpt>
      <trkpt lat="60.000102" lon="17.5153591">
        <ele>22.2476</ele>
        <time>2013-05-05T12:47:42Z</time>
      </trkpt>
      <trkpt lat="60.0000242" lon="17.5154238">
        <ele>22.2476</ele>
        <time>2013-05-05T12:47:43Z</time>
      </trkpt>
      <trkpt lat="59.9999434" lon="17.5154808">
        <ele>22.7283</ele>
        <time>2013-05-05T12:47:44Z</time>
      </trkpt>
      <trkpt lat="59.999859" lon="17.5155192">
        <ele>22.7283</ele>
        <time>2013-05-05T12:47:45Z</time>
      </trkpt>
      <trkpt lat="59.999772" lon="17.5155346">
        <ele>23.209</ele>
        <time>2013-05-05T12:47:46Z</time>
      </trkpt>
      <trkpt lat="59.9996855" lon="17.5155263">
        <ele>23.209</ele>
        <time>2013-05-05T12:47:47Z</time>
      </trkpt>
      <trkpt lat="59.9996016" lon="17.5154946">
        <ele>24.1703</ele>
        <time>2013-05-05T12:47:48Z</time>
      </trkpt>
      <trkpt lat="59.9995212" lon="17.515444">
        <ele>24.1703</ele>
        <time>2013-05-05T12:47:49Z</time>
      </trkpt>
      <trkpt lat="59.9994439" lon="17.5153795">
        <ele>24.1703</ele>
        <time>2013-05-05T12:47:50Z</time>
      </trkpt>
      <trkpt lat="59.9993685" lon="17.5153093">
        <ele>24.1703</ele>
        <time>2013-05-05T12:47:51Z</time>
      </trkpt>
      <trkpt lat="59.9992224" lon="17.5151631">
        <ele>24.1703</ele>
        <time>2013-05-05T12:47:53Z</time>
      </trkpt>
      <trkpt lat="59.9991556" lon="17.5150757">
        <ele>24.651</ele>
        <time>2013-05-05T12:47:54Z</time>
      </trkpt>
      <trkpt lat="59.9990965" lon="17.5149742">
        <ele>24.651</ele>
        <time>2013-05-05T12:47:55Z</time>
      </trkpt>
      <trkpt lat="59.9990435" lon="17.5148657">
        <ele>24.651</ele>
        <time>2013-05-05T12:47:56Z</time>
      </trkpt>
      <trkpt lat="59.9989965" lon="17.5147544">
        <ele>24.1703</ele>
        <time>2013-05-05T12:47:57Z</time>
      </trkpt>
      <trkpt lat="59.9989539" lon="17.5146429">
        <ele>24.651</ele>
        <time>2013-05-05T12:47:58Z</time>
      </trkpt>
      <trkpt lat="59.9989178" lon="17.5145269">
        <ele>25.1317</ele>
        <time>2013-05-05T12:47:59Z</time>
      </trkpt>
      <trkpt lat="59.9988796" lon="17.514416">
        <ele>25.1317</ele>
        <time>2013-05-05T12:48:00Z</time>
      </trkpt>
      <trkpt lat="59.9988355" lon="17.5143146">
        <ele>25.6123</ele>
        <time>2013-05-05T12:48:01Z</time>
      </trkpt>
      <trkpt lat="59.9987873" lon="17.5142272">
        <ele>26.0929</ele>
        <time>2013-05-05T12:48:02Z</time>
      </trkpt>
      <trkpt lat="59.9987361" lon="17.5141364">
        <ele>25.6123</ele>
        <time>2013-05-05T12:48:03Z</time>
      </trkpt>
      <trkpt lat="59.998683" lon="17.5140428">
        <ele>25.1317</ele>
        <time>2013-05-05T12:48:04Z</time>
      </trkpt>
      <trkpt lat="59.9986273" lon="17.5139537">
        <ele>25.6123</ele>
        <time>2013-05-05T12:48:05Z</time>
      </trkpt>
      <trkpt lat="59.9985707" lon="17.5138647">
        <ele>25.1317</ele>
        <time>2013-05-05T12:48:06Z</time>
      </trkpt>
      <trkpt lat="59.9985121" lon="17.5137826">
        <ele>25.1317</ele>
        <time>2013-05-05T12:48:07Z</time>
      </trkpt>
      <trkpt lat="59.9984489" lon="17.5137102">
        <ele>25.1317</ele>
        <time>2013-05-05T12:48:08Z</time>
      </trkpt>
      <trkpt lat="59.9983828" lon="17.5136404">
        <ele>24.651</ele>
        <time>2013-05-05T12:48:09Z</time>
      </trkpt>
      <trkpt lat="59.9983117" lon="17.5135776">
        <ele>24.1703</ele>
        <time>2013-05-05T12:48:10Z</time>
      </trkpt>
      <trkpt lat="59.9982341" lon="17.5135274">
        <ele>23.6896</ele>
        <time>2013-05-05T12:48:11Z</time>
      </trkpt>
      <trkpt lat="59.9981522" lon="17.513493">
        <ele>23.6896</ele>
        <time>2013-05-05T12:48:12Z</time>
      </trkpt>
      <trkpt lat="59.9980678" lon="17.5134652">
        <ele>24.1703</ele>
        <time>2013-05-05T12:48:13Z</time>
      </trkpt>
      <trkpt lat="59.9979832" lon="17.5134398">
        <ele>24.1703</ele>
        <time>2013-05-05T12:48:14Z</time>
      </trkpt>
      <trkpt lat="59.9978989" lon="17.5134134">
        <ele>24.651</ele>
        <time>2013-05-05T12:48:15Z</time>
      </trkpt>
      <trkpt lat="59.9978145" lon="17.5133879">
        <ele>24.651</ele>
        <time>2013-05-05T12:48:16Z</time>
      </trkpt>
      <trkpt lat="59.9977306" lon="17.5133631">
        <ele>24.651</ele>
        <time>2013-05-05T12:48:17Z</time>
      </trkpt>
      <trkpt lat="59.997648" lon="17.5133382">
        <ele>25.1317</ele>
        <time>2013-05-05T12:48:18Z</time>
      </trkpt>
      <trkpt lat="59.9975659" lon="17.5133147">
        <ele>25.1317</ele>
        <time>2013-05-05T12:48:19Z</time>
      </trkpt>
      <trkpt lat="59.9974839" lon="17.5132935">
        <ele>25.6123</ele>
        <time>2013-05-05T12:48:20Z</time>
      </trkpt>
      <trkpt lat="59.9974017" lon="17.5132761">
        <ele>25.6123</ele>
        <time>2013-05-05T12:48:21Z</time>
      </trkpt>
      <trkpt lat="59.9973192" lon="17.5132611">
        <ele>25.6123</ele>
        <time>2013-05-05T12:48:22Z</time>
      </trkpt>
      <trkpt lat="59.9972363" lon="17.5132435">
        <ele>25.6123</ele>
        <time>2013-05-05T12:48:23Z</time>
      </trkpt>
      <trkpt lat="59.9971536" lon="17.5132226">
        <ele>26.0929</ele>
        <time>2013-05-05T12:48:24Z</time>
      </trkpt>
      <trkpt lat="59.9970711" lon="17.5131983">
        <ele>26.0929</ele>
        <time>2013-05-05T12:48:25Z</time>
      </trkpt>
      <trkpt lat="59.9969891" lon="17.5131741">
        <ele>26.0929</ele>
        <time>2013-05-05T12:48:26Z</time>
      </trkpt>
      <trkpt lat="59.9969069" lon="17.5131524">
        <ele>26.5736</ele>
        <time>2013-05-05T12:48:27Z</time>
      </trkpt>
      <trkpt lat="59.996825" lon="17.5131311">
        <ele>26.5736</ele>
        <time>2013-05-05T12:48:28Z</time>
      </trkpt>
      <trkpt lat="59.9967436" lon="17.5131083">
        <ele>26.5736</ele>
        <time>2013-05-05T12:48:29Z</time>
      </trkpt>
      <trkpt lat="59.9966629" lon="17.5130839">
        <ele>26.5736</ele>
        <time>2013-05-05T12:48:30Z</time>
      </trkpt>
      <trkpt lat="59.996583" lon="17.5130601">
        <ele>27.0543</ele>
        <time>2013-05-05T12:48:31Z</time>
      </trkpt>
      <trkpt lat="59.9965033" lon="17.5130378">
        <ele>27.0543</ele>
        <time>2013-05-05T12:48:32Z</time>
      </trkpt>
      <trkpt lat="59.9964242" lon="17.5130155">
        <ele>27.0543</ele>
        <time>2013-05-05T12:48:33Z</time>
      </trkpt>
      <trkpt lat="59.9963459" lon="17.5129931">
        <ele>27.0543</ele>
        <time>2013-05-05T12:48:34Z</time>
      </trkpt>
      <trkpt lat="59.996268" lon="17.5129731">
        <ele>27.5349</ele>
        <time>2013-05-05T12:48:35Z</time>
      </trkpt>
      <trkpt lat="59.9961904" lon="17.5129545">
        <ele>27.5349</ele>
        <time>2013-05-05T12:48:36Z</time>
      </trkpt>
      <trkpt lat="59.9961134" lon="17.5129336">
        <ele>27.5349</ele>
        <time>2013-05-05T12:48:37Z</time>
      </trkpt>
      <trkpt lat="59.9960377" lon="17.5129114">
        <ele>28.0155</ele>
        <time>2013-05-05T12:48:38Z</time>
      </trkpt>
      <trkpt lat="59.9959631" lon="17.5128908">
        <ele>28.0155</ele>
        <time>2013-05-05T12:48:39Z</time>
      </trkpt>
      <trkpt lat="59.9958888" lon="17.5128727">
        <ele>28.0155</ele>
        <time>2013-05-05T12:48:40Z</time>
      </trkpt>
      <trkpt lat="59.9958149" lon="17.5128529">
        <ele>28.4962</ele>
        <time>2013-05-05T12:48:41Z</time>
      </trkpt>
      <trkpt lat="59.9957419" lon="17.5128285">
        <ele>28.4962</ele>
        <time>2013-05-05T12:48:42Z</time>
      </trkpt>
      <trkpt lat="59.9956692" lon="17.5128005">
        <ele>28.4962</ele>
        <time>2013-05-05T12:48:43Z</time>
      </trkpt>
      <trkpt lat="59.9955984" lon="17.5127638">
        <ele>28.4962</ele>
        <time>2013-05-05T12:48:44Z</time>
      </trkpt>
      <trkpt lat="59.99553" lon="17.5127107">
        <ele>28.4962</ele>
        <time>2013-05-05T12:48:45Z</time>
      </trkpt>
      <trkpt lat="59.995464" lon="17.5126432">
        <ele>28.4962</ele>
        <time>2013-05-05T12:48:46Z</time>
      </trkpt>
      <trkpt lat="59.995402" lon="17.5125616">
        <ele>28.4962</ele>
        <time>2013-05-05T12:48:47Z</time>
      </trkpt>
      <trkpt lat="59.9953461" lon="17.5124662">
        <ele>28.0155</ele>
        <time>2013-05-05T12:48:48Z</time>
      </trkpt>
      <trkpt lat="59.995296" lon="17.5123599">
        <ele>28.4962</ele>
        <time>2013-05-05T12:48:49Z</time>
      </trkpt>
      <trkpt lat="59.9952527" lon="17.5122417">
        <ele>28.4962</ele>
        <time>2013-05-05T12:48:50Z</time>
      </trkpt>
      <trkpt lat="59.9952162" lon="17.5121141">
        <ele>28.4962</ele>
        <time>2013-05-05T12:48:51Z</time>
      </trkpt>
      <trkpt lat="59.9951866" lon="17.5119796">
        <ele>28.9769</ele>
        <time>2013-05-05T12:48:52Z</time>
      </trkpt>
      <trkpt lat="59.9951653" lon="17.5118395">
        <ele>28.9769</ele>
        <time>2013-05-05T12:48:53Z</time>
      </trkpt>
      <trkpt lat="59.9951519" lon="17.5116962">
        <ele>28.9769</ele>
        <time>2013-05-05T12:48:54Z</time>
      </trkpt>
      <trkpt lat="59.9951457" lon="17.5115494">
        <ele>28.9769</ele>
        <time>2013-05-05T12:48:55Z</time>
      </trkpt>
      <trkpt lat="59.9951441" lon="17.5114024">
        <ele>29.4575</ele>
        <time>2013-05-05T12:48:56Z</time>
      </trkpt>
      <trkpt lat="59.9951472" lon="17.5112546">
        <ele>29.4575</ele>
        <time>2013-05-05T12:48:57Z</time>
      </trkpt>
      <trkpt lat="59.9951534" lon="17.5111067">
        <ele>29.4575</ele>
        <time>2013-05-05T12:48:58Z</time>
      </trkpt>
      <trkpt lat="59.9951605" lon="17.5109586">
        <ele>29.4575</ele>
        <time>2013-05-05T12:48:59Z</time>
      </trkpt>
      <trkpt lat="59.9951669" lon="17.5108113">
        <ele>29.9381</ele>
        <time>2013-05-05T12:49:00Z</time>
      </trkpt>
      <trkpt lat="59.9951747" lon="17.5106622">
        <ele>29.9381</ele>
        <time>2013-05-05T12:49:01Z</time>
      </trkpt>
      <trkpt lat="59.9951835" lon="17.5105123">
        <ele>29.9381</ele>
        <time>2013-05-05T12:49:02Z</time>
      </trkpt>
      <trkpt lat="59.9951917" lon="17.5103649">
        <ele>29.9381</ele>
        <time>2013-05-05T12:49:03Z</time>
      </trkpt>
      <trkpt lat="59.9952011" lon="17.5102153">
        <ele>29.9381</ele>
        <time>2013-05-05T12:49:04Z</time>
      </trkpt>
      <trkpt lat="59.9952109" lon="17.5100676">
        <ele>30.4188</ele>
        <time>2013-05-05T12:49:05Z</time>
      </trkpt>
      <trkpt lat="59.9952207" lon="17.5099247">
        <ele>30.4188</ele>
        <time>2013-05-05T12:49:06Z</time>
      </trkpt>
      <trkpt lat="59.9952311" lon="17.5097852">
        <ele>30.8995</ele>
        <time>2013-05-05T12:49:07Z</time>
      </trkpt>
      <trkpt lat="59.9952433" lon="17.50965">
        <ele>30.8995</ele>
        <time>2013-05-05T12:49:08Z</time>
      </trkpt>
      <trkpt lat="59.9952568" lon="17.5095138">
        <ele>31.3801</ele>
        <time>2013-05-05T12:49:09Z</time>
      </trkpt>
      <trkpt lat="59.9952718" lon="17.5093816">
        <ele>31.3801</ele>
        <time>2013-05-05T12:49:10Z</time>
      </trkpt>
      <trkpt lat="59.995289" lon="17.5092531">
        <ele>31.3801</ele>
        <time>2013-05-05T12:49:11Z</time>
      </trkpt>
      <trkpt lat="59.9953068" lon="17.5091266">
        <ele>31.8607</ele>
        <time>2013-05-05T12:49:12Z</time>
      </trkpt>
      <trkpt lat="59.9953248" lon="17.5090041">
        <ele>31.8607</ele>
        <time>2013-05-05T12:49:13Z</time>
      </trkpt>
      <trkpt lat="59.9953416" lon="17.508887">
        <ele>31.8607</ele>
        <time>2013-05-05T12:49:14Z</time>
      </trkpt>
      <trkpt lat="59.9953571" lon="17.5087725">
        <ele>32.3416</ele>
        <time>2013-05-05T12:49:15Z</time>
      </trkpt>
      <trkpt lat="59.9953737" lon="17.5086589">
        <ele>32.3416</ele>
        <time>2013-05-05T12:49:16Z</time>
      </trkpt>
      <trkpt lat="59.9953915" lon="17.5085451">
        <ele>32.8223</ele>
        <time>2013-05-05T12:49:17Z</time>
      </trkpt>
      <trkpt lat="59.9954077" lon="17.5084363">
        <ele>32.8223</ele>
        <time>2013-05-05T12:49:18Z</time>
      </trkpt>
      <trkpt lat="59.9954227" lon="17.5083273">
        <ele>32.8223</ele>
        <time>2013-05-05T12:49:19Z</time>
      </trkpt>
      <trkpt lat="59.9954393" lon="17.508217">
        <ele>33.3029</ele>
        <time>2013-05-05T12:49:20Z</time>
      </trkpt>
      <trkpt lat="59.9954562" lon="17.5081039">
        <ele>33.3029</ele>
        <time>2013-05-05T12:49:21Z</time>
      </trkpt>
      <trkpt lat="59.9954734" lon="17.5079908">
        <ele>33.7834</ele>
        <time>2013-05-05T12:49:22Z</time>
      </trkpt>
      <trkpt lat="59.9954911" lon="17.5078753">
        <ele>34.2642</ele>
        <time>2013-05-05T12:49:23Z</time>
      </trkpt>
      <trkpt lat="59.9955086" lon="17.5077628">
        <ele>34.2642</ele>
        <time>2013-05-05T12:49:24Z</time>
      </trkpt>
      <trkpt lat="59.9955272" lon="17.5076501">
        <ele>34.2642</ele>
        <time>2013-05-05T12:49:25Z</time>
      </trkpt>
      <trkpt lat="59.9955465" lon="17.5075391">
        <ele>34.7449</ele>
        <time>2013-05-05T12:49:26Z</time>
      </trkpt>
      <trkpt lat="59.9955682" lon="17.5074298">
        <ele>34.7449</ele>
        <time>2013-05-05T12:49:27Z</time>
      </trkpt>
      <trkpt lat="59.9955901" lon="17.5073247">
        <ele>35.2255</ele>
        <time>2013-05-05T12:49:28Z</time>
      </trkpt>
      <trkpt lat="59.9956134" lon="17.5072169">
        <ele>35.7061</ele>
        <time>2013-05-05T12:49:29Z</time>
      </trkpt>
      <trkpt lat="59.9956352" lon="17.5071074">
        <ele>35.7061</ele>
        <time>2013-05-05T12:49:30Z</time>
      </trkpt>
      <trkpt lat="59.995658" lon="17.5070013">
        <ele>35.7061</ele>
        <time>2013-05-05T12:49:31Z</time>
      </trkpt>
      <trkpt lat="59.9956838" lon="17.5068988">
        <ele>35.7061</ele>
        <time>2013-05-05T12:49:32Z</time>
      </trkpt>
      <trkpt lat="59.9957103" lon="17.5067989">
        <ele>35.7061</ele>
        <time>2013-05-05T12:49:33Z</time>
      </trkpt>
      <trkpt lat="59.9957381" lon="17.5067024">
        <ele>35.7061</ele>
        <time>2013-05-05T12:49:34Z</time>
      </trkpt>
      <trkpt lat="59.9957666" lon="17.5066081">
        <ele>36.1868</ele>
        <time>2013-05-05T12:49:35Z</time>
      </trkpt>
      <trkpt lat="59.9957959" lon="17.5065141">
        <ele>36.1868</ele>
        <time>2013-05-05T12:49:36Z</time>
      </trkpt>
      <trkpt lat="59.9958267" lon="17.5064218">
        <ele>36.1868</ele>
        <time>2013-05-05T12:49:37Z</time>
      </trkpt>
      <trkpt lat="59.9958569" lon="17.5063301">
        <ele>36.1868</ele>
        <time>2013-05-05T12:49:38Z</time>
      </trkpt>
      <trkpt lat="59.995886" lon="17.5062389">
        <ele>36.1868</ele>
        <time>2013-05-05T12:49:39Z</time>
      </trkpt>
      <trkpt lat="59.9959164" lon="17.5061479">
        <ele>36.6675</ele>
        <time>2013-05-05T12:49:40Z</time>
      </trkpt>
      <trkpt lat="59.9959465" lon="17.5060612">
        <ele>36.6675</ele>
        <time>2013-05-05T12:49:41Z</time>
      </trkpt>
      <trkpt lat="59.9959758" lon="17.505972">
        <ele>36.6675</ele>
        <time>2013-05-05T12:49:42Z</time>
      </trkpt>
      <trkpt lat="59.9960043" lon="17.5058798">
        <ele>36.1868</ele>
        <time>2013-05-05T12:49:43Z</time>
      </trkpt>
      <trkpt lat="59.9960324" lon="17.5057862">
        <ele>36.1868</ele>
        <time>2013-05-05T12:49:44Z</time>
      </trkpt>
      <trkpt lat="59.9960602" lon="17.5056935">
        <ele>36.1868</ele>
        <time>2013-05-05T12:49:45Z</time>
      </trkpt>
      <trkpt lat="59.9960901" lon="17.5056039">
        <ele>36.1868</ele>
        <time>2013-05-05T12:49:46Z</time>
      </trkpt>
      <trkpt lat="59.9961195" lon="17.5055112">
        <ele>36.1868</ele>
        <time>2013-05-05T12:49:47Z</time>
      </trkpt>
      <trkpt lat="59.996147" lon="17.5054179">
        <ele>36.1868</ele>
        <time>2013-05-05T12:49:48Z</time>
      </trkpt>
      <trkpt lat="59.9961739" lon="17.5053252">
        <ele>36.1868</ele>
        <time>2013-05-05T12:49:49Z</time>
      </trkpt>
      <trkpt lat="59.9962013" lon="17.5052355">
        <ele>36.1868</ele>
        <time>2013-05-05T12:49:50Z</time>
      </trkpt>
      <trkpt lat="59.9962283" lon="17.5051449">
        <ele>36.1868</ele>
        <time>2013-05-05T12:49:51Z</time>
      </trkpt>
      <trkpt lat="59.9962567" lon="17.505052">
        <ele>36.6675</ele>
        <time>2013-05-05T12:49:52Z</time>
      </trkpt>
      <trkpt lat="59.9962827" lon="17.5049573">
        <ele>36.6675</ele>
        <time>2013-05-05T12:49:53Z</time>
      </trkpt>
      <trkpt lat="59.9963074" lon="17.5048604">
        <ele>36.6675</ele>
        <time>2013-05-05T12:49:54Z</time>
      </trkpt>
      <trkpt lat="59.9963308" lon="17.5047631">
        <ele>36.6675</ele>
        <time>2013-05-05T12:49:55Z</time>
      </trkpt>
      <trkpt lat="59.9963516" lon="17.5046633">
        <ele>36.1868</ele>
        <time>2013-05-05T12:49:56Z</time>
      </trkpt>
      <trkpt lat="59.9963649" lon="17.5045631">
        <ele>36.1868</ele>
        <time>2013-05-05T12:49:57Z</time>
      </trkpt>
      <trkpt lat="59.9963646" lon="17.5044694">
        <ele>36.1868</ele>
        <time>2013-05-05T12:49:58Z</time>
      </trkpt>
      <trkpt lat="59.9963211" lon="17.5043804">
        <ele>35.7061</ele>
        <time>2013-05-05T12:49:59Z</time>
      </trkpt>
      <trkpt lat="59.9962802" lon="17.5042508">
        <ele>34.2642</ele>
        <time>2013-05-05T12:50:00Z</time>
      </trkpt>
      <trkpt lat="59.996241" lon="17.5042159">
        <ele>33.7834</ele>
        <time>2013-05-05T12:50:01Z</time>
      </trkpt>
      <trkpt lat="59.9961889" lon="17.5041529">
        <ele>33.7834</ele>
        <time>2013-05-05T12:50:02Z</time>
      </trkpt>
      <trkpt lat="59.9961258" lon="17.5041043">
        <ele>33.3029</ele>
        <time>2013-05-05T12:50:03Z</time>
      </trkpt>
      <trkpt lat="59.9960642" lon="17.5040499">
        <ele>33.3029</ele>
        <time>2013-05-05T12:50:04Z</time>
      </trkpt>
      <trkpt lat="59.9960019" lon="17.5039891">
        <ele>32.8223</ele>
        <time>2013-05-05T12:50:05Z</time>
      </trkpt>
      <trkpt lat="59.9959401" lon="17.5039218">
        <ele>31.8607</ele>
        <time>2013-05-05T12:50:06Z</time>
      </trkpt>
      <trkpt lat="59.9958786" lon="17.5038665">
        <ele>30.8995</ele>
        <time>2013-05-05T12:50:07Z</time>
      </trkpt>
      <trkpt lat="59.9958159" lon="17.5038034">
        <ele>30.4188</ele>
        <time>2013-05-05T12:50:08Z</time>
      </trkpt>
      <trkpt lat="59.9957549" lon="17.5037291">
        <ele>29.9381</ele>
        <time>2013-05-05T12:50:09Z</time>
      </trkpt>
      <trkpt lat="59.9957024" lon="17.50363">
        <ele>29.4575</ele>
        <time>2013-05-05T12:50:10Z</time>
      </trkpt>
      <trkpt lat="59.9956688" lon="17.5035122">
        <ele>28.9769</ele>
        <time>2013-05-05T12:50:11Z</time>
      </trkpt>
      <trkpt lat="59.995651" lon="17.5033769">
        <ele>28.9769</ele>
        <time>2013-05-05T12:50:12Z</time>
      </trkpt>
      <trkpt lat="59.9956516" lon="17.5032391">
        <ele>29.4575</ele>
        <time>2013-05-05T12:50:13Z</time>
      </trkpt>
      <trkpt lat="59.9956686" lon="17.5031019">
        <ele>29.4575</ele>
        <time>2013-05-05T12:50:14Z</time>
      </trkpt>
      <trkpt lat="59.9956922" lon="17.5029561">
        <ele>29.9381</ele>
        <time>2013-05-05T12:50:15Z</time>
      </trkpt>
      <trkpt lat="59.9957047" lon="17.5028144">
        <ele>29.4575</ele>
        <time>2013-05-05T12:50:16Z</time>
      </trkpt>
      <trkpt lat="59.9957124" lon="17.5026703">
        <ele>29.4575</ele>
        <time>2013-05-05T12:50:17Z</time>
      </trkpt>
      <trkpt lat="59.9957077" lon="17.5025475">
        <ele>28.9769</ele>
        <time>2013-05-05T12:50:18Z</time>
      </trkpt>
      <trkpt lat="59.9957015" lon="17.5023725">
        <ele>28.9769</ele>
        <time>2013-05-05T12:50:19Z</time>
      </trkpt>
      <trkpt lat="59.9956864" lon="17.5022211">
        <ele>28.9769</ele>
        <time>2013-05-05T12:50:20Z</time>
      </trkpt>
      <trkpt lat="59.9956564" lon="17.5020445">
        <ele>28.0155</ele>
        <time>2013-05-05T12:50:21Z</time>
      </trkpt>
      <trkpt lat="59.9956078" lon="17.5018767">
        <ele>27.0543</ele>
        <time>2013-05-05T12:50:22Z</time>
      </trkpt>
      <trkpt lat="59.9955373" lon="17.5018229">
        <ele>26.5736</ele>
        <time>2013-05-05T12:50:23Z</time>
      </trkpt>
      <trkpt lat="59.9954757" lon="17.5017622">
        <ele>26.5736</ele>
        <time>2013-05-05T12:50:24Z</time>
      </trkpt>
      <trkpt lat="59.9954077" lon="17.5016718">
        <ele>26.0929</ele>
        <time>2013-05-05T12:50:25Z</time>
      </trkpt>
      <trkpt lat="59.99533" lon="17.501629">
        <ele>25.6123</ele>
        <time>2013-05-05T12:50:26Z</time>
      </trkpt>
      <trkpt lat="59.9952703" lon="17.5016049">
        <ele>25.1317</ele>
        <time>2013-05-05T12:50:27Z</time>
      </trkpt>
      <trkpt lat="59.9952093" lon="17.5015634">
        <ele>23.6896</ele>
        <time>2013-05-05T12:50:28Z</time>
      </trkpt>
      <trkpt lat="59.9951576" lon="17.5015135">
        <ele>23.209</ele>
        <time>2013-05-05T12:50:29Z</time>
      </trkpt>
      <trkpt lat="59.9951042" lon="17.5014789">
        <ele>22.7283</ele>
        <time>2013-05-05T12:50:30Z</time>
      </trkpt>
      <trkpt lat="59.9950663" lon="17.5014446">
        <ele>22.7283</ele>
        <time>2013-05-05T12:50:31Z</time>
      </trkpt>
      <trkpt lat="59.9950343" lon="17.5014116">
        <ele>22.7283</ele>
        <time>2013-05-05T12:50:32Z</time>
      </trkpt>
      <trkpt lat="59.9950006" lon="17.5013815">
        <ele>22.7283</ele>
        <time>2013-05-05T12:50:33Z</time>
      </trkpt>
      <trkpt lat="59.9949629" lon="17.5013572">
        <ele>22.7283</ele>
        <time>2013-05-05T12:50:34Z</time>
      </trkpt>
      <trkpt lat="59.9949208" lon="17.5013324">
        <ele>23.209</ele>
        <time>2013-05-05T12:50:35Z</time>
      </trkpt>
      <trkpt lat="59.9948763" lon="17.5012949">
        <ele>23.209</ele>
        <time>2013-05-05T12:50:36Z</time>
      </trkpt>
      <trkpt lat="59.994826" lon="17.5012333">
        <ele>23.209</ele>
        <time>2013-05-05T12:50:37Z</time>
      </trkpt>
      <trkpt lat="59.9947771" lon="17.5011558">
        <ele>23.6896</ele>
        <time>2013-05-05T12:50:38Z</time>
      </trkpt>
      <trkpt lat="59.9947215" lon="17.5010819">
        <ele>25.1317</ele>
        <time>2013-05-05T12:50:39Z</time>
      </trkpt>
      <trkpt lat="59.9946721" lon="17.5010081">
        <ele>25.1317</ele>
        <time>2013-05-05T12:50:40Z</time>
      </trkpt>
      <trkpt lat="59.9946223" lon="17.5009361">
        <ele>25.1317</ele>
        <time>2013-05-05T12:50:41Z</time>
      </trkpt>
      <trkpt lat="59.9945594" lon="17.5008525">
        <ele>25.1317</ele>
        <time>2013-05-05T12:50:42Z</time>
      </trkpt>
      <trkpt lat="59.9944924" lon="17.5007966">
        <ele>24.651</ele>
        <time>2013-05-05T12:50:43Z</time>
      </trkpt>
      <trkpt lat="59.9943862" lon="17.5007501">
        <ele>24.651</ele>
        <time>2013-05-05T12:50:44Z</time>
      </trkpt>
      <trkpt lat="59.9943183" lon="17.5008008">
        <ele>24.651</ele>
        <time>2013-05-05T12:50:45Z</time>
      </trkpt>
      <trkpt lat="59.994262" lon="17.500888">
        <ele>24.1703</ele>
        <time>2013-05-05T12:50:46Z</time>
      </trkpt>
      <trkpt lat="59.9942153" lon="17.5010142">
        <ele>24.1703</ele>
        <time>2013-05-05T12:50:47Z</time>
      </trkpt>
      <trkpt lat="59.9941697" lon="17.5011477">
        <ele>24.1703</ele>
        <time>2013-05-05T12:50:48Z</time>
      </trkpt>
      <trkpt lat="59.994125" lon="17.5012801">
        <ele>24.1703</ele>
        <time>2013-05-05T12:50:49Z</time>
      </trkpt>
      <trkpt lat="59.9940795" lon="17.5013955">
        <ele>24.1703</ele>
        <time>2013-05-05T12:50:50Z</time>
      </trkpt>
      <trkpt lat="59.9940349" lon="17.5015111">
        <ele>23.6896</ele>
        <time>2013-05-05T12:50:51Z</time>
      </trkpt>
      <trkpt lat="59.9939905" lon="17.5016251">
        <ele>23.6896</ele>
        <time>2013-05-05T12:50:52Z</time>
      </trkpt>
      <trkpt lat="59.9939463" lon="17.5017404">
        <ele>23.6896</ele>
        <time>2013-05-05T12:50:53Z</time>
      </trkpt>
      <trkpt lat="59.9939009" lon="17.5018581">
        <ele>23.6896</ele>
        <time>2013-05-05T12:50:54Z</time>
      </trkpt>
      <trkpt lat="59.9938558" lon="17.5019779">
        <ele>23.209</ele>
        <time>2013-05-05T12:50:55Z</time>
      </trkpt>
      <trkpt lat="59.9938108" lon="17.5021">
        <ele>23.209</ele>
        <time>2013-05-05T12:50:56Z</time>
      </trkpt>
      <trkpt lat="59.9937632" lon="17.5022231">
        <ele>23.209</ele>
        <time>2013-05-05T12:50:57Z</time>
      </trkpt>
      <trkpt lat="59.9937134" lon="17.5023456">
        <ele>22.7283</ele>
        <time>2013-05-05T12:50:58Z</time>
      </trkpt>
      <trkpt lat="59.9936621" lon="17.5024663">
        <ele>22.7283</ele>
        <time>2013-05-05T12:50:59Z</time>
      </trkpt>
      <trkpt lat="59.9936124" lon="17.5025883">
        <ele>22.7283</ele>
        <time>2013-05-05T12:51:00Z</time>
      </trkpt>
      <trkpt lat="59.9935657" lon="17.5027175">
        <ele>22.7283</ele>
        <time>2013-05-05T12:51:01Z</time>
      </trkpt>
      <trkpt lat="59.9935186" lon="17.5028458">
        <ele>22.7283</ele>
        <time>2013-05-05T12:51:02Z</time>
      </trkpt>
      <trkpt lat="59.9934637" lon="17.5029858">
        <ele>22.7283</ele>
        <time>2013-05-05T12:51:03Z</time>
      </trkpt>
      <trkpt lat="59.9934122" lon="17.5031055">
        <ele>22.7283</ele>
        <time>2013-05-05T12:51:04Z</time>
      </trkpt>
      <trkpt lat="59.99336" lon="17.5032304">
        <ele>22.2476</ele>
        <time>2013-05-05T12:51:05Z</time>
      </trkpt>
      <trkpt lat="59.9933098" lon="17.5033505">
        <ele>22.2476</ele>
        <time>2013-05-05T12:51:06Z</time>
      </trkpt>
      <trkpt lat="59.9932554" lon="17.5034644">
        <ele>22.2476</ele>
        <time>2013-05-05T12:51:07Z</time>
      </trkpt>
      <trkpt lat="59.9931974" lon="17.5035938">
        <ele>21.767</ele>
        <time>2013-05-05T12:51:08Z</time>
      </trkpt>
      <trkpt lat="59.9931387" lon="17.5037215">
        <ele>21.767</ele>
        <time>2013-05-05T12:51:09Z</time>
      </trkpt>
      <trkpt lat="59.9930801" lon="17.5038457">
        <ele>21.767</ele>
        <time>2013-05-05T12:51:10Z</time>
      </trkpt>
      <trkpt lat="59.993016" lon="17.5039425">
        <ele>21.2864</ele>
        <time>2013-05-05T12:51:11Z</time>
      </trkpt>
      <trkpt lat="59.9929514" lon="17.5040567">
        <ele>21.2864</ele>
        <time>2013-05-05T12:51:12Z</time>
      </trkpt>
      <trkpt lat="59.9928874" lon="17.5041752">
        <ele>21.2864</ele>
        <time>2013-05-05T12:51:13Z</time>
      </trkpt>
      <trkpt lat="59.9928232" lon="17.5042923">
        <ele>21.2864</ele>
        <time>2013-05-05T12:51:14Z</time>
      </trkpt>
      <trkpt lat="59.9927584" lon="17.5044066">
        <ele>20.8057</ele>
        <time>2013-05-05T12:51:15Z</time>
      </trkpt>
      <trkpt lat="59.9926934" lon="17.5045197">
        <ele>20.8057</ele>
        <time>2013-05-05T12:51:16Z</time>
      </trkpt>
      <trkpt lat="59.9926289" lon="17.504635">
        <ele>20.8057</ele>
        <time>2013-05-05T12:51:17Z</time>
      </trkpt>
      <trkpt lat="59.9925655" lon="17.5047517">
        <ele>20.8057</ele>
        <time>2013-05-05T12:51:18Z</time>
      </trkpt>
      <trkpt lat="59.9925027" lon="17.5048674">
        <ele>20.8057</ele>
        <time>2013-05-05T12:51:19Z</time>
      </trkpt>
      <trkpt lat="59.992439" lon="17.5049828">
        <ele>20.8057</ele>
        <time>2013-05-05T12:51:20Z</time>
      </trkpt>
      <trkpt lat="59.9923749" lon="17.5050984">
        <ele>20.8057</ele>
        <time>2013-05-05T12:51:21Z</time>
      </trkpt>
      <trkpt lat="59.9923106" lon="17.5052158">
        <ele>20.8057</ele>
        <time>2013-05-05T12:51:22Z</time>
      </trkpt>
      <trkpt lat="59.9922467" lon="17.5053349">
        <ele>21.2864</ele>
        <time>2013-05-05T12:51:23Z</time>
      </trkpt>
      <trkpt lat="59.9921829" lon="17.5054558">
        <ele>21.2864</ele>
        <time>2013-05-05T12:51:24Z</time>
      </trkpt>
      <trkpt lat="59.9921193" lon="17.5055763">
        <ele>21.2864</ele>
        <time>2013-05-05T12:51:25Z</time>
      </trkpt>
      <trkpt lat="59.9920543" lon="17.5056935">
        <ele>21.2864</ele>
        <time>2013-05-05T12:51:26Z</time>
      </trkpt>
      <trkpt lat="59.9919873" lon="17.5058036">
        <ele>21.2864</ele>
        <time>2013-05-05T12:51:27Z</time>
      </trkpt>
      <trkpt lat="59.9919184" lon="17.5059027">
        <ele>21.767</ele>
        <time>2013-05-05T12:51:28Z</time>
      </trkpt>
      <trkpt lat="59.9918475" lon="17.505993">
        <ele>21.767</ele>
        <time>2013-05-05T12:51:29Z</time>
      </trkpt>
      <trkpt lat="59.9917743" lon="17.5060652">
        <ele>21.767</ele>
        <time>2013-05-05T12:51:30Z</time>
      </trkpt>
      <trkpt lat="59.9916994" lon="17.5061208">
        <ele>22.2476</ele>
        <time>2013-05-05T12:51:31Z</time>
      </trkpt>
      <trkpt lat="59.9916242" lon="17.5061615">
        <ele>22.2476</ele>
        <time>2013-05-05T12:51:32Z</time>
      </trkpt>
      <trkpt lat="59.9915499" lon="17.5061887">
        <ele>22.7283</ele>
        <time>2013-05-05T12:51:33Z</time>
      </trkpt>
      <trkpt lat="59.9914766" lon="17.5062047">
        <ele>22.7283</ele>
        <time>2013-05-05T12:51:34Z</time>
      </trkpt>
      <trkpt lat="59.9914046" lon="17.5062121">
        <ele>22.7283</ele>
        <time>2013-05-05T12:51:35Z</time>
      </trkpt>
      <trkpt lat="59.9913337" lon="17.5062175">
        <ele>22.7283</ele>
        <time>2013-05-05T12:51:36Z</time>
      </trkpt>
      <trkpt lat="59.9912641" lon="17.5062213">
        <ele>23.209</ele>
        <time>2013-05-05T12:51:37Z</time>
      </trkpt>
      <trkpt lat="59.9911953" lon="17.5062224">
        <ele>23.209</ele>
        <time>2013-05-05T12:51:38Z</time>
      </trkpt>
      <trkpt lat="59.9911274" lon="17.5062218">
        <ele>23.209</ele>
        <time>2013-05-05T12:51:39Z</time>
      </trkpt>
      <trkpt lat="59.99106" lon="17.5062206">
        <ele>23.209</ele>
        <time>2013-05-05T12:51:40Z</time>
      </trkpt>
      <trkpt lat="59.9909922" lon="17.5062208">
        <ele>22.7283</ele>
        <time>2013-05-05T12:51:41Z</time>
      </trkpt>
      <trkpt lat="59.990924" lon="17.506226">
        <ele>22.7283</ele>
        <time>2013-05-05T12:51:42Z</time>
      </trkpt>
      <trkpt lat="59.9908555" lon="17.5062344">
        <ele>22.7283</ele>
        <time>2013-05-05T12:51:43Z</time>
      </trkpt>
      <trkpt lat="59.9907869" lon="17.5062451">
        <ele>22.7283</ele>
        <time>2013-05-05T12:51:44Z</time>
      </trkpt>
      <trkpt lat="59.9907164" lon="17.506262">
        <ele>22.7283</ele>
        <time>2013-05-05T12:51:45Z</time>
      </trkpt>
      <trkpt lat="59.9906448" lon="17.5062906">
        <ele>22.7283</ele>
        <time>2013-05-05T12:51:46Z</time>
      </trkpt>
      <trkpt lat="59.9905733" lon="17.5063317">
        <ele>22.7283</ele>
        <time>2013-05-05T12:51:47Z</time>
      </trkpt>
      <trkpt lat="59.9905022" lon="17.5063828">
        <ele>23.209</ele>
        <time>2013-05-05T12:51:48Z</time>
      </trkpt>
      <trkpt lat="59.9904318" lon="17.5064442">
        <ele>23.209</ele>
        <time>2013-05-05T12:51:49Z</time>
      </trkpt>
      <trkpt lat="59.9903627" lon="17.5065186">
        <ele>23.209</ele>
        <time>2013-05-05T12:51:50Z</time>
      </trkpt>
      <trkpt lat="59.9902953" lon="17.5066041">
        <ele>23.209</ele>
        <time>2013-05-05T12:51:51Z</time>
      </trkpt>
      <trkpt lat="59.9902292" lon="17.5066956">
        <ele>23.209</ele>
        <time>2013-05-05T12:51:52Z</time>
      </trkpt>
      <trkpt lat="59.9901649" lon="17.5067865">
        <ele>23.6896</ele>
        <time>2013-05-05T12:51:53Z</time>
      </trkpt>
      <trkpt lat="59.9901021" lon="17.5068795">
        <ele>23.6896</ele>
        <time>2013-05-05T12:51:54Z</time>
      </trkpt>
      <trkpt lat="59.9900422" lon="17.5069811">
        <ele>23.6896</ele>
        <time>2013-05-05T12:51:55Z</time>
      </trkpt>
      <trkpt lat="59.9899822" lon="17.5070839">
        <ele>23.6896</ele>
        <time>2013-05-05T12:51:56Z</time>
      </trkpt>
      <trkpt lat="59.9899197" lon="17.5071829">
        <ele>24.1703</ele>
        <time>2013-05-05T12:51:57Z</time>
      </trkpt>
      <trkpt lat="59.9898562" lon="17.5072801">
        <ele>24.1703</ele>
        <time>2013-05-05T12:51:58Z</time>
      </trkpt>
      <trkpt lat="59.9897941" lon="17.5073781">
        <ele>24.1703</ele>
        <time>2013-05-05T12:51:59Z</time>
      </trkpt>
      <trkpt lat="59.9897324" lon="17.5074776">
        <ele>24.651</ele>
        <time>2013-05-05T12:52:00Z</time>
      </trkpt>
      <trkpt lat="59.9896712" lon="17.5075785">
        <ele>24.651</ele>
        <time>2013-05-05T12:52:01Z</time>
      </trkpt>
      <trkpt lat="59.9896107" lon="17.5076781">
        <ele>24.651</ele>
        <time>2013-05-05T12:52:02Z</time>
      </trkpt>
      <trkpt lat="59.9895496" lon="17.5077748">
        <ele>25.1317</ele>
        <time>2013-05-05T12:52:03Z</time>
      </trkpt>
      <trkpt lat="59.9894864" lon="17.5078691">
        <ele>25.1317</ele>
        <time>2013-05-05T12:52:04Z</time>
      </trkpt>
      <trkpt lat="59.9894221" lon="17.5079611">
        <ele>25.6123</ele>
        <time>2013-05-05T12:52:05Z</time>
      </trkpt>
      <trkpt lat="59.9893564" lon="17.5080509">
        <ele>26.0929</ele>
        <time>2013-05-05T12:52:06Z</time>
      </trkpt>
      <trkpt lat="59.9892895" lon="17.5081384">
        <ele>26.0929</ele>
        <time>2013-05-05T12:52:07Z</time>
      </trkpt>
      <trkpt lat="59.9892247" lon="17.5082229">
        <ele>26.5736</ele>
        <time>2013-05-05T12:52:08Z</time>
      </trkpt>
      <trkpt lat="59.9891598" lon="17.5083054">
        <ele>27.5349</ele>
        <time>2013-05-05T12:52:09Z</time>
      </trkpt>
      <trkpt lat="59.9890941" lon="17.5083812">
        <ele>28.0155</ele>
        <time>2013-05-05T12:52:10Z</time>
      </trkpt>
      <trkpt lat="59.9890277" lon="17.5084456">
        <ele>28.4962</ele>
        <time>2013-05-05T12:52:11Z</time>
      </trkpt>
      <trkpt lat="59.988961" lon="17.5085004">
        <ele>28.9769</ele>
        <time>2013-05-05T12:52:12Z</time>
      </trkpt>
      <trkpt lat="59.9888941" lon="17.5085512">
        <ele>29.4575</ele>
        <time>2013-05-05T12:52:13Z</time>
      </trkpt>
      <trkpt lat="59.9888263" lon="17.5085949">
        <ele>29.9381</ele>
        <time>2013-05-05T12:52:14Z</time>
      </trkpt>
      <trkpt lat="59.988757" lon="17.5086382">
        <ele>30.4188</ele>
        <time>2013-05-05T12:52:15Z</time>
      </trkpt>
      <trkpt lat="59.9886858" lon="17.5086819">
        <ele>29.9381</ele>
        <time>2013-05-05T12:52:16Z</time>
      </trkpt>
      <trkpt lat="59.9886154" lon="17.5087187">
        <ele>30.4188</ele>
        <time>2013-05-05T12:52:17Z</time>
      </trkpt>
      <trkpt lat="59.9885436" lon="17.5087539">
        <ele>30.8995</ele>
        <time>2013-05-05T12:52:18Z</time>
      </trkpt>
      <trkpt lat="59.9884672" lon="17.5087754">
        <ele>30.4188</ele>
        <time>2013-05-05T12:52:19Z</time>
      </trkpt>
      <trkpt lat="59.9883886" lon="17.5087973">
        <ele>30.4188</ele>
        <time>2013-05-05T12:52:20Z</time>
      </trkpt>
      <trkpt lat="59.9883121" lon="17.5088338">
        <ele>30.8995</ele>
        <time>2013-05-05T12:52:21Z</time>
      </trkpt>
      <trkpt lat="59.9882203" lon="17.5088166">
        <ele>29.4575</ele>
        <time>2013-05-05T12:52:22Z</time>
      </trkpt>
      <trkpt lat="59.9881349" lon="17.5088286">
        <ele>28.9769</ele>
        <time>2013-05-05T12:52:23Z</time>
      </trkpt>
      <trkpt lat="59.9880609" lon="17.5088657">
        <ele>28.0155</ele>
        <time>2013-05-05T12:52:24Z</time>
      </trkpt>
      <trkpt lat="59.9879834" lon="17.5089026">
        <ele>27.5349</ele>
        <time>2013-05-05T12:52:25Z</time>
      </trkpt>
      <trkpt lat="59.987908" lon="17.5089469">
        <ele>27.5349</ele>
        <time>2013-05-05T12:52:26Z</time>
      </trkpt>
      <trkpt lat="59.987835" lon="17.5089942">
        <ele>27.0543</ele>
        <time>2013-05-05T12:52:27Z</time>
      </trkpt>
      <trkpt lat="59.9877624" lon="17.5090448">
        <ele>26.5736</ele>
        <time>2013-05-05T12:52:28Z</time>
      </trkpt>
      <trkpt lat="59.987692" lon="17.509103">
        <ele>26.0929</ele>
        <time>2013-05-05T12:52:29Z</time>
      </trkpt>
      <trkpt lat="59.9876226" lon="17.5091631">
        <ele>25.1317</ele>
        <time>2013-05-05T12:52:30Z</time>
      </trkpt>
      <trkpt lat="59.9875552" lon="17.5092316">
        <ele>24.651</ele>
        <time>2013-05-05T12:52:31Z</time>
      </trkpt>
      <trkpt lat="59.987487" lon="17.5093014">
        <ele>24.1703</ele>
        <time>2013-05-05T12:52:32Z</time>
      </trkpt>
      <trkpt lat="59.9874194" lon="17.5093781">
        <ele>23.6896</ele>
        <time>2013-05-05T12:52:33Z</time>
      </trkpt>
      <trkpt lat="59.9873531" lon="17.5094642">
        <ele>23.209</ele>
        <time>2013-05-05T12:52:34Z</time>
      </trkpt>
      <trkpt lat="59.9872837" lon="17.50954">
        <ele>22.7283</ele>
        <time>2013-05-05T12:52:35Z</time>
      </trkpt>
      <trkpt lat="59.9872138" lon="17.5096094">
        <ele>22.2476</ele>
        <time>2013-05-05T12:52:36Z</time>
      </trkpt>
      <trkpt lat="59.9871438" lon="17.5096792">
        <ele>22.2476</ele>
        <time>2013-05-05T12:52:37Z</time>
      </trkpt>
      <trkpt lat="59.9870724" lon="17.5097421">
        <ele>21.767</ele>
        <time>2013-05-05T12:52:38Z</time>
      </trkpt>
      <trkpt lat="59.9870014" lon="17.5098013">
        <ele>21.767</ele>
        <time>2013-05-05T12:52:39Z</time>
      </trkpt>
      <trkpt lat="59.9869321" lon="17.5098536">
        <ele>21.2864</ele>
        <time>2013-05-05T12:52:40Z</time>
      </trkpt>
      <trkpt lat="59.9868645" lon="17.5099022">
        <ele>21.2864</ele>
        <time>2013-05-05T12:52:41Z</time>
      </trkpt>
      <trkpt lat="59.9867965" lon="17.5099598">
        <ele>21.2864</ele>
        <time>2013-05-05T12:52:42Z</time>
      </trkpt>
      <trkpt lat="59.986732" lon="17.5100578">
        <ele>22.2476</ele>
        <time>2013-05-05T12:52:43Z</time>
      </trkpt>
      <trkpt lat="59.9866694" lon="17.5101682">
        <ele>22.2476</ele>
        <time>2013-05-05T12:52:44Z</time>
      </trkpt>
      <trkpt lat="59.9866081" lon="17.5102798">
        <ele>22.7283</ele>
        <time>2013-05-05T12:52:45Z</time>
      </trkpt>
      <trkpt lat="59.9865467" lon="17.5103992">
        <ele>22.2476</ele>
        <time>2013-05-05T12:52:46Z</time>
      </trkpt>
      <trkpt lat="59.9864866" lon="17.5105255">
        <ele>22.2476</ele>
        <time>2013-05-05T12:52:47Z</time>
      </trkpt>
      <trkpt lat="59.9864247" lon="17.510656">
        <ele>21.767</ele>
        <time>2013-05-05T12:52:48Z</time>
      </trkpt>
      <trkpt lat="59.9863611" lon="17.5107716">
        <ele>21.2864</ele>
        <time>2013-05-05T12:52:49Z</time>
      </trkpt>
      <trkpt lat="59.9862968" lon="17.5108892">
        <ele>20.8057</ele>
        <time>2013-05-05T12:52:50Z</time>
      </trkpt>
      <trkpt lat="59.9862279" lon="17.511002">
        <ele>20.325</ele>
        <time>2013-05-05T12:52:51Z</time>
      </trkpt>
      <trkpt lat="59.9861557" lon="17.5111098">
        <ele>20.325</ele>
        <time>2013-05-05T12:52:52Z</time>
      </trkpt>
      <trkpt lat="59.9860841" lon="17.5112189">
        <ele>20.325</ele>
        <time>2013-05-05T12:52:53Z</time>
      </trkpt>
      <trkpt lat="59.9860132" lon="17.5113253">
        <ele>20.325</ele>
        <time>2013-05-05T12:52:54Z</time>
      </trkpt>
      <trkpt lat="59.9859419" lon="17.5114259">
        <ele>20.325</ele>
        <time>2013-05-05T12:52:55Z</time>
      </trkpt>
      <trkpt lat="59.9858703" lon="17.5115207">
        <ele>20.325</ele>
        <time>2013-05-05T12:52:56Z</time>
      </trkpt>
      <trkpt lat="59.9857998" lon="17.5116127">
        <ele>20.325</ele>
        <time>2013-05-05T12:52:57Z</time>
      </trkpt>
      <trkpt lat="59.9857303" lon="17.5117034">
        <ele>20.325</ele>
        <time>2013-05-05T12:52:58Z</time>
      </trkpt>
      <trkpt lat="59.9856609" lon="17.5117937">
        <ele>19.8444</ele>
        <time>2013-05-05T12:52:59Z</time>
      </trkpt>
      <trkpt lat="59.9855919" lon="17.5118837">
        <ele>19.8444</ele>
        <time>2013-05-05T12:53:00Z</time>
      </trkpt>
      <trkpt lat="59.9855227" lon="17.5119723">
        <ele>19.8444</ele>
        <time>2013-05-05T12:53:01Z</time>
      </trkpt>
      <trkpt lat="59.9854525" lon="17.5120562">
        <ele>20.325</ele>
        <time>2013-05-05T12:53:02Z</time>
      </trkpt>
      <trkpt lat="59.9853807" lon="17.512134">
        <ele>20.325</ele>
        <time>2013-05-05T12:53:03Z</time>
      </trkpt>
      <trkpt lat="59.9853087" lon="17.512207">
        <ele>20.325</ele>
        <time>2013-05-05T12:53:04Z</time>
      </trkpt>
      <trkpt lat="59.9852367" lon="17.5122765">
        <ele>20.325</ele>
        <time>2013-05-05T12:53:05Z</time>
      </trkpt>
      <trkpt lat="59.985166" lon="17.5123453">
        <ele>20.325</ele>
        <time>2013-05-05T12:53:06Z</time>
      </trkpt>
      <trkpt lat="59.9850957" lon="17.5124155">
        <ele>20.325</ele>
        <time>2013-05-05T12:53:07Z</time>
      </trkpt>
      <trkpt lat="59.9850262" lon="17.512489">
        <ele>20.325</ele>
        <time>2013-05-05T12:53:08Z</time>
      </trkpt>
      <trkpt lat="59.9849578" lon="17.5125673">
        <ele>20.325</ele>
        <time>2013-05-05T12:53:09Z</time>
      </trkpt>
      <trkpt lat="59.9848906" lon="17.5126535">
        <ele>20.325</ele>
        <time>2013-05-05T12:53:10Z</time>
      </trkpt>
      <trkpt lat="59.9848262" lon="17.5127416">
        <ele>21.2864</ele>
        <time>2013-05-05T12:53:11Z</time>
      </trkpt>
      <trkpt lat="59.9847637" lon="17.512831">
        <ele>21.2864</ele>
        <time>2013-05-05T12:53:12Z</time>
      </trkpt>
      <trkpt lat="59.9847056" lon="17.5129322">
        <ele>20.8057</ele>
        <time>2013-05-05T12:53:13Z</time>
      </trkpt>
      <trkpt lat="59.9846539" lon="17.5130526">
        <ele>21.2864</ele>
        <time>2013-05-05T12:53:14Z</time>
      </trkpt>
      <trkpt lat="59.9846078" lon="17.513184">
        <ele>21.2864</ele>
        <time>2013-05-05T12:53:15Z</time>
      </trkpt>
      <trkpt lat="59.9845649" lon="17.5133234">
        <ele>20.8057</ele>
        <time>2013-05-05T12:53:16Z</time>
      </trkpt>
      <trkpt lat="59.9845288" lon="17.5134823">
        <ele>20.8057</ele>
        <time>2013-05-05T12:53:17Z</time>
      </trkpt>
      <trkpt lat="59.9845118" lon="17.5137175">
        <ele>20.8057</ele>
        <time>2013-05-05T12:53:18Z</time>
      </trkpt>
      <trkpt lat="59.9844794" lon="17.5139188">
        <ele>20.325</ele>
        <time>2013-05-05T12:53:19Z</time>
      </trkpt>
      <trkpt lat="59.9844449" lon="17.5140722">
        <ele>19.8444</ele>
        <time>2013-05-05T12:53:20Z</time>
      </trkpt>
      <trkpt lat="59.9844088" lon="17.5142163">
        <ele>18.8831</ele>
        <time>2013-05-05T12:53:21Z</time>
      </trkpt>
      <trkpt lat="59.9843735" lon="17.5143622">
        <ele>18.8831</ele>
        <time>2013-05-05T12:53:22Z</time>
      </trkpt>
      <trkpt lat="59.9843394" lon="17.5145011">
        <ele>18.4023</ele>
        <time>2013-05-05T12:53:23Z</time>
      </trkpt>
      <trkpt lat="59.9843011" lon="17.5146362">
        <ele>18.4023</ele>
        <time>2013-05-05T12:53:24Z</time>
      </trkpt>
      <trkpt lat="59.9842598" lon="17.5147544">
        <ele>18.8831</ele>
        <time>2013-05-05T12:53:25Z</time>
      </trkpt>
      <trkpt lat="59.9842178" lon="17.5148861">
        <ele>19.3638</ele>
        <time>2013-05-05T12:53:26Z</time>
      </trkpt>
      <trkpt lat="59.9841798" lon="17.5150266">
        <ele>19.3638</ele>
        <time>2013-05-05T12:53:27Z</time>
      </trkpt>
      <trkpt lat="59.984143" lon="17.5151739">
        <ele>18.8831</ele>
        <time>2013-05-05T12:53:28Z</time>
      </trkpt>
      <trkpt lat="59.9841022" lon="17.5153197">
        <ele>18.4023</ele>
        <time>2013-05-05T12:53:29Z</time>
      </trkpt>
      <trkpt lat="59.9840607" lon="17.5154606">
        <ele>18.4023</ele>
        <time>2013-05-05T12:53:30Z</time>
      </trkpt>
      <trkpt lat="59.9840193" lon="17.5155985">
        <ele>18.8831</ele>
        <time>2013-05-05T12:53:31Z</time>
      </trkpt>
      <trkpt lat="59.9839764" lon="17.5157482">
        <ele>18.8831</ele>
        <time>2013-05-05T12:53:32Z</time>
      </trkpt>
      <trkpt lat="59.9839336" lon="17.5158989">
        <ele>18.8831</ele>
        <time>2013-05-05T12:53:33Z</time>
      </trkpt>
      <trkpt lat="59.9838907" lon="17.5160522">
        <ele>18.8831</ele>
        <time>2013-05-05T12:53:34Z</time>
      </trkpt>
      <trkpt lat="59.9838479" lon="17.5162028">
        <ele>18.4023</ele>
        <time>2013-05-05T12:53:35Z</time>
      </trkpt>
      <trkpt lat="59.9838052" lon="17.5163489">
        <ele>18.8831</ele>
        <time>2013-05-05T12:53:36Z</time>
      </trkpt>
      <trkpt lat="59.9837529" lon="17.5165018">
        <ele>19.3638</ele>
        <time>2013-05-05T12:53:37Z</time>
      </trkpt>
      <trkpt lat="59.9837114" lon="17.516658">
        <ele>19.3638</ele>
        <time>2013-05-05T12:53:38Z</time>
      </trkpt>
      <trkpt lat="59.983663" lon="17.5167916">
        <ele>19.3638</ele>
        <time>2013-05-05T12:53:39Z</time>
      </trkpt>
      <trkpt lat="59.9836204" lon="17.5169544">
        <ele>19.3638</ele>
        <time>2013-05-05T12:53:40Z</time>
      </trkpt>
      <trkpt lat="59.9835793" lon="17.5171244">
        <ele>18.8831</ele>
        <time>2013-05-05T12:53:41Z</time>
      </trkpt>
      <trkpt lat="59.9835368" lon="17.51729">
        <ele>18.8831</ele>
        <time>2013-05-05T12:53:42Z</time>
      </trkpt>
      <trkpt lat="59.9834931" lon="17.5174767">
        <ele>18.4023</ele>
        <time>2013-05-05T12:53:43Z</time>
      </trkpt>
      <trkpt lat="59.9834402" lon="17.5176247">
        <ele>18.4023</ele>
        <time>2013-05-05T12:53:44Z</time>
      </trkpt>
      <trkpt lat="59.9833811" lon="17.517745">
        <ele>18.4023</ele>
        <time>2013-05-05T12:53:45Z</time>
      </trkpt>
      <trkpt lat="59.983312" lon="17.5178218">
        <ele>17.9218</ele>
        <time>2013-05-05T12:53:46Z</time>
      </trkpt>
      <trkpt lat="59.9832338" lon="17.5178824">
        <ele>17.9218</ele>
        <time>2013-05-05T12:53:47Z</time>
      </trkpt>
      <trkpt lat="59.9831479" lon="17.5179168">
        <ele>17.9218</ele>
        <time>2013-05-05T12:53:48Z</time>
      </trkpt>
      <trkpt lat="59.9830584" lon="17.5179402">
        <ele>17.9218</ele>
        <time>2013-05-05T12:53:49Z</time>
      </trkpt>
      <trkpt lat="59.9829677" lon="17.5179608">
        <ele>17.9218</ele>
        <time>2013-05-05T12:53:50Z</time>
      </trkpt>
      <trkpt lat="59.9828765" lon="17.5179849">
        <ele>17.9218</ele>
        <time>2013-05-05T12:53:51Z</time>
      </trkpt>
      <trkpt lat="59.9827849" lon="17.5180133">
        <ele>18.4023</ele>
        <time>2013-05-05T12:53:52Z</time>
      </trkpt>
      <trkpt lat="59.9826931" lon="17.5180438">
        <ele>18.4023</ele>
        <time>2013-05-05T12:53:53Z</time>
      </trkpt>
      <trkpt lat="59.9826" lon="17.5180755">
        <ele>18.8831</ele>
        <time>2013-05-05T12:53:54Z</time>
      </trkpt>
      <trkpt lat="59.9825065" lon="17.5181076">
        <ele>18.8831</ele>
        <time>2013-05-05T12:53:55Z</time>
      </trkpt>
      <trkpt lat="59.9824148" lon="17.518131">
        <ele>18.8831</ele>
        <time>2013-05-05T12:53:56Z</time>
      </trkpt>
      <trkpt lat="59.9823229" lon="17.5181527">
        <ele>19.3638</ele>
        <time>2013-05-05T12:53:57Z</time>
      </trkpt>
      <trkpt lat="59.9822312" lon="17.5181749">
        <ele>19.3638</ele>
        <time>2013-05-05T12:53:58Z</time>
      </trkpt>
      <trkpt lat="59.982141" lon="17.5181972">
        <ele>19.8444</ele>
        <time>2013-05-05T12:53:59Z</time>
      </trkpt>
      <trkpt lat="59.982053" lon="17.5182201">
        <ele>20.325</ele>
        <time>2013-05-05T12:54:00Z</time>
      </trkpt>
      <trkpt lat="59.9819576" lon="17.518235">
        <ele>20.325</ele>
        <time>2013-05-05T12:54:01Z</time>
      </trkpt>
      <trkpt lat="59.981867" lon="17.518239">
        <ele>20.8057</ele>
        <time>2013-05-05T12:54:02Z</time>
      </trkpt>
      <trkpt lat="59.9817795" lon="17.5182336">
        <ele>20.8057</ele>
        <time>2013-05-05T12:54:03Z</time>
      </trkpt>
      <trkpt lat="59.9816935" lon="17.5182232">
        <ele>21.2864</ele>
        <time>2013-05-05T12:54:04Z</time>
      </trkpt>
      <trkpt lat="59.9816076" lon="17.5182094">
        <ele>21.2864</ele>
        <time>2013-05-05T12:54:05Z</time>
      </trkpt>
      <trkpt lat="59.9815215" lon="17.5181945">
        <ele>21.2864</ele>
        <time>2013-05-05T12:54:06Z</time>
      </trkpt>
      <trkpt lat="59.9814348" lon="17.5181781">
        <ele>21.2864</ele>
        <time>2013-05-05T12:54:07Z</time>
      </trkpt>
      <trkpt lat="59.9813477" lon="17.5181599">
        <ele>21.2864</ele>
        <time>2013-05-05T12:54:08Z</time>
      </trkpt>
      <trkpt lat="59.9812604" lon="17.5181422">
        <ele>21.2864</ele>
        <time>2013-05-05T12:54:09Z</time>
      </trkpt>
      <trkpt lat="59.9811733" lon="17.5181231">
        <ele>21.2864</ele>
        <time>2013-05-05T12:54:10Z</time>
      </trkpt>
      <trkpt lat="59.9810853" lon="17.5181045">
        <ele>21.2864</ele>
        <time>2013-05-05T12:54:11Z</time>
      </trkpt>
      <trkpt lat="59.9809962" lon="17.5180873">
        <ele>21.2864</ele>
        <time>2013-05-05T12:54:12Z</time>
      </trkpt>
      <trkpt lat="59.9809065" lon="17.5180682">
        <ele>21.2864</ele>
        <time>2013-05-05T12:54:13Z</time>
      </trkpt>
      <trkpt lat="59.980817" lon="17.518049">
        <ele>21.2864</ele>
        <time>2013-05-05T12:54:14Z</time>
      </trkpt>
      <trkpt lat="59.9807285" lon="17.5180313">
        <ele>21.2864</ele>
        <time>2013-05-05T12:54:15Z</time>
      </trkpt>
      <trkpt lat="59.9806407" lon="17.5180123">
        <ele>21.2864</ele>
        <time>2013-05-05T12:54:16Z</time>
      </trkpt>
      <trkpt lat="59.9805531" lon="17.5179934">
        <ele>21.2864</ele>
        <time>2013-05-05T12:54:17Z</time>
      </trkpt>
      <trkpt lat="59.9804659" lon="17.5179806">
        <ele>21.2864</ele>
        <time>2013-05-05T12:54:18Z</time>
      </trkpt>
      <trkpt lat="59.9803794" lon="17.5179774">
        <ele>21.767</ele>
        <time>2013-05-05T12:54:19Z</time>
      </trkpt>
      <trkpt lat="59.9802941" lon="17.5179852">
        <ele>21.767</ele>
        <time>2013-05-05T12:54:20Z</time>
      </trkpt>
      <trkpt lat="59.9802091" lon="17.5180049">
        <ele>21.767</ele>
        <time>2013-05-05T12:54:21Z</time>
      </trkpt>
      <trkpt lat="59.9801249" lon="17.5180357">
        <ele>21.767</ele>
        <time>2013-05-05T12:54:22Z</time>
      </trkpt>
      <trkpt lat="59.980041" lon="17.518076">
        <ele>21.2864</ele>
        <time>2013-05-05T12:54:23Z</time>
      </trkpt>
      <trkpt lat="59.9799558" lon="17.5181232">
        <ele>21.2864</ele>
        <time>2013-05-05T12:54:24Z</time>
      </trkpt>
      <trkpt lat="59.9798699" lon="17.5181779">
        <ele>21.2864</ele>
        <time>2013-05-05T12:54:25Z</time>
      </trkpt>
      <trkpt lat="59.9797846" lon="17.51824">
        <ele>21.2864</ele>
        <time>2013-05-05T12:54:26Z</time>
      </trkpt>
      <trkpt lat="59.9797004" lon="17.5183087">
        <ele>21.2864</ele>
        <time>2013-05-05T12:54:27Z</time>
      </trkpt>
      <trkpt lat="59.9796168" lon="17.5183821">
        <ele>21.2864</ele>
        <time>2013-05-05T12:54:28Z</time>
      </trkpt>
      <trkpt lat="59.979534" lon="17.5184591">
        <ele>21.2864</ele>
        <time>2013-05-05T12:54:29Z</time>
      </trkpt>
      <trkpt lat="59.9794529" lon="17.5185391">
        <ele>21.2864</ele>
        <time>2013-05-05T12:54:30Z</time>
      </trkpt>
      <trkpt lat="59.9793728" lon="17.5186173">
        <ele>21.2864</ele>
        <time>2013-05-05T12:54:31Z</time>
      </trkpt>
      <trkpt lat="59.9792933" lon="17.5186954">
        <ele>21.2864</ele>
        <time>2013-05-05T12:54:32Z</time>
      </trkpt>
      <trkpt lat="59.9792143" lon="17.5187727">
        <ele>21.2864</ele>
        <time>2013-05-05T12:54:33Z</time>
      </trkpt>
      <trkpt lat="59.9791354" lon="17.518845">
        <ele>21.767</ele>
        <time>2013-05-05T12:54:34Z</time>
      </trkpt>
      <trkpt lat="59.9790571" lon="17.5189121">
        <ele>21.767</ele>
        <time>2013-05-05T12:54:35Z</time>
      </trkpt>
      <trkpt lat="59.9789799" lon="17.5189731">
        <ele>21.767</ele>
        <time>2013-05-05T12:54:36Z</time>
      </trkpt>
      <trkpt lat="59.9789029" lon="17.5190291">
        <ele>21.767</ele>
        <time>2013-05-05T12:54:37Z</time>
      </trkpt>
      <trkpt lat="59.9788264" lon="17.519082">
        <ele>22.2476</ele>
        <time>2013-05-05T12:54:38Z</time>
      </trkpt>
      <trkpt lat="59.9787502" lon="17.5191305">
        <ele>22.2476</ele>
        <time>2013-05-05T12:54:39Z</time>
      </trkpt>
      <trkpt lat="59.9786749" lon="17.5191765">
        <ele>22.2476</ele>
        <time>2013-05-05T12:54:40Z</time>
      </trkpt>
      <trkpt lat="59.9786008" lon="17.5192234">
        <ele>22.7283</ele>
        <time>2013-05-05T12:54:41Z</time>
      </trkpt>
      <trkpt lat="59.9785279" lon="17.5192714">
        <ele>22.7283</ele>
        <time>2013-05-05T12:54:42Z</time>
      </trkpt>
      <trkpt lat="59.9784574" lon="17.5193222">
        <ele>22.7283</ele>
        <time>2013-05-05T12:54:43Z</time>
      </trkpt>
      <trkpt lat="59.97839" lon="17.5193798">
        <ele>22.7283</ele>
        <time>2013-05-05T12:54:44Z</time>
      </trkpt>
      <trkpt lat="59.9783248" lon="17.5194451">
        <ele>23.209</ele>
        <time>2013-05-05T12:54:45Z</time>
      </trkpt>
      <trkpt lat="59.9782621" lon="17.5195181">
        <ele>23.209</ele>
        <time>2013-05-05T12:54:46Z</time>
      </trkpt>
      <trkpt lat="59.9782015" lon="17.5195993">
        <ele>23.209</ele>
        <time>2013-05-05T12:54:47Z</time>
      </trkpt>
      <trkpt lat="59.9781423" lon="17.5196874">
        <ele>23.209</ele>
        <time>2013-05-05T12:54:48Z</time>
      </trkpt>
      <trkpt lat="59.9780837" lon="17.5197792">
        <ele>23.209</ele>
        <time>2013-05-05T12:54:49Z</time>
      </trkpt>
      <trkpt lat="59.9780265" lon="17.5198743">
        <ele>23.209</ele>
        <time>2013-05-05T12:54:50Z</time>
      </trkpt>
      <trkpt lat="59.9779725" lon="17.5199771">
        <ele>23.209</ele>
        <time>2013-05-05T12:54:51Z</time>
      </trkpt>
      <trkpt lat="59.9779213" lon="17.520088">
        <ele>23.209</ele>
        <time>2013-05-05T12:54:52Z</time>
      </trkpt>
      <trkpt lat="59.9778739" lon="17.520205">
        <ele>23.209</ele>
        <time>2013-05-05T12:54:53Z</time>
      </trkpt>
      <trkpt lat="59.9778292" lon="17.5203273">
        <ele>23.209</ele>
        <time>2013-05-05T12:54:54Z</time>
      </trkpt>
      <trkpt lat="59.9777851" lon="17.5204505">
        <ele>23.209</ele>
        <time>2013-05-05T12:54:55Z</time>
      </trkpt>
      <trkpt lat="59.9777404" lon="17.5205745">
        <ele>23.209</ele>
        <time>2013-05-05T12:54:56Z</time>
      </trkpt>
      <trkpt lat="59.9776966" lon="17.5206979">
        <ele>23.209</ele>
        <time>2013-05-05T12:54:57Z</time>
      </trkpt>
      <trkpt lat="59.9776544" lon="17.5208228">
        <ele>23.209</ele>
        <time>2013-05-05T12:54:58Z</time>
      </trkpt>
      <trkpt lat="59.97761" lon="17.5209454">
        <ele>23.209</ele>
        <time>2013-05-05T12:54:59Z</time>
      </trkpt>
      <trkpt lat="59.9775627" lon="17.5210623">
        <ele>22.7283</ele>
        <time>2013-05-05T12:55:00Z</time>
      </trkpt>
      <trkpt lat="59.9775152" lon="17.5211802">
        <ele>22.7283</ele>
        <time>2013-05-05T12:55:01Z</time>
      </trkpt>
      <trkpt lat="59.9774691" lon="17.5213016">
        <ele>22.7283</ele>
        <time>2013-05-05T12:55:02Z</time>
      </trkpt>
      <trkpt lat="59.9774233" lon="17.5214264">
        <ele>23.209</ele>
        <time>2013-05-05T12:55:03Z</time>
      </trkpt>
      <trkpt lat="59.9773762" lon="17.5215503">
        <ele>23.209</ele>
        <time>2013-05-05T12:55:04Z</time>
      </trkpt>
      <trkpt lat="59.9773277" lon="17.5216723">
        <ele>23.209</ele>
        <time>2013-05-05T12:55:05Z</time>
      </trkpt>
      <trkpt lat="59.977279" lon="17.5217932">
        <ele>23.209</ele>
        <time>2013-05-05T12:55:06Z</time>
      </trkpt>
      <trkpt lat="59.9772288" lon="17.5219135">
        <ele>23.209</ele>
        <time>2013-05-05T12:55:07Z</time>
      </trkpt>
      <trkpt lat="59.9771744" lon="17.5220351">
        <ele>23.209</ele>
        <time>2013-05-05T12:55:08Z</time>
      </trkpt>
      <trkpt lat="59.9771173" lon="17.5221577">
        <ele>23.209</ele>
        <time>2013-05-05T12:55:09Z</time>
      </trkpt>
      <trkpt lat="59.9770599" lon="17.5222787">
        <ele>23.209</ele>
        <time>2013-05-05T12:55:10Z</time>
      </trkpt>
      <trkpt lat="59.9770033" lon="17.5224004">
        <ele>23.209</ele>
        <time>2013-05-05T12:55:11Z</time>
      </trkpt>
      <trkpt lat="59.9769467" lon="17.5225253">
        <ele>23.209</ele>
        <time>2013-05-05T12:55:12Z</time>
      </trkpt>
      <trkpt lat="59.9768879" lon="17.5226486">
        <ele>22.7283</ele>
        <time>2013-05-05T12:55:13Z</time>
      </trkpt>
      <trkpt lat="59.9768268" lon="17.5227708">
        <ele>22.7283</ele>
        <time>2013-05-05T12:55:14Z</time>
      </trkpt>
      <trkpt lat="59.976766" lon="17.5228993">
        <ele>22.7283</ele>
        <time>2013-05-05T12:55:15Z</time>
      </trkpt>
      <trkpt lat="59.9767051" lon="17.5230292">
        <ele>22.7283</ele>
        <time>2013-05-05T12:55:16Z</time>
      </trkpt>
      <trkpt lat="59.9766434" lon="17.5231578">
        <ele>22.7283</ele>
        <time>2013-05-05T12:55:17Z</time>
      </trkpt>
      <trkpt lat="59.976581" lon="17.5232856">
        <ele>22.7283</ele>
        <time>2013-05-05T12:55:18Z</time>
      </trkpt>
      <trkpt lat="59.9765176" lon="17.523413">
        <ele>22.7283</ele>
        <time>2013-05-05T12:55:19Z</time>
      </trkpt>
      <trkpt lat="59.9764538" lon="17.5235403">
        <ele>22.7283</ele>
        <time>2013-05-05T12:55:20Z</time>
      </trkpt>
      <trkpt lat="59.9763895" lon="17.5236662">
        <ele>23.209</ele>
        <time>2013-05-05T12:55:21Z</time>
      </trkpt>
      <trkpt lat="59.9763253" lon="17.5237906">
        <ele>23.209</ele>
        <time>2013-05-05T12:55:22Z</time>
      </trkpt>
      <trkpt lat="59.9762621" lon="17.523914">
        <ele>23.209</ele>
        <time>2013-05-05T12:55:23Z</time>
      </trkpt>
      <trkpt lat="59.9761997" lon="17.5240361">
        <ele>23.209</ele>
        <time>2013-05-05T12:55:24Z</time>
      </trkpt>
      <trkpt lat="59.9761384" lon="17.524159">
        <ele>23.209</ele>
        <time>2013-05-05T12:55:25Z</time>
      </trkpt>
      <trkpt lat="59.9760792" lon="17.5242847">
        <ele>23.6896</ele>
        <time>2013-05-05T12:55:26Z</time>
      </trkpt>
      <trkpt lat="59.9760215" lon="17.524409">
        <ele>23.6896</ele>
        <time>2013-05-05T12:55:27Z</time>
      </trkpt>
      <trkpt lat="59.9759654" lon="17.5245352">
        <ele>23.6896</ele>
        <time>2013-05-05T12:55:28Z</time>
      </trkpt>
      <trkpt lat="59.9759112" lon="17.5246609">
        <ele>23.6896</ele>
        <time>2013-05-05T12:55:29Z</time>
      </trkpt>
      <trkpt lat="59.9758568" lon="17.5247857">
        <ele>23.6896</ele>
        <time>2013-05-05T12:55:30Z</time>
      </trkpt>
      <trkpt lat="59.9758014" lon="17.5249075">
        <ele>23.6896</ele>
        <time>2013-05-05T12:55:31Z</time>
      </trkpt>
      <trkpt lat="59.975745" lon="17.5250256">
        <ele>24.1703</ele>
        <time>2013-05-05T12:55:32Z</time>
      </trkpt>
      <trkpt lat="59.9756871" lon="17.5251383">
        <ele>24.1703</ele>
        <time>2013-05-05T12:55:33Z</time>
      </trkpt>
      <trkpt lat="59.9756258" lon="17.5252426">
        <ele>24.1703</ele>
        <time>2013-05-05T12:55:34Z</time>
      </trkpt>
      <trkpt lat="59.9755626" lon="17.5253405">
        <ele>24.651</ele>
        <time>2013-05-05T12:55:35Z</time>
      </trkpt>
      <trkpt lat="59.9754987" lon="17.5254337">
        <ele>24.651</ele>
        <time>2013-05-05T12:55:36Z</time>
      </trkpt>
      <trkpt lat="59.9754354" lon="17.5255243">
        <ele>24.651</ele>
        <time>2013-05-05T12:55:37Z</time>
      </trkpt>
      <trkpt lat="59.975372" lon="17.5256146">
        <ele>24.651</ele>
        <time>2013-05-05T12:55:38Z</time>
      </trkpt>
      <trkpt lat="59.9753022" lon="17.525699">
        <ele>24.651</ele>
        <time>2013-05-05T12:55:39Z</time>
      </trkpt>
      <trkpt lat="59.9752321" lon="17.5257788">
        <ele>24.651</ele>
        <time>2013-05-05T12:55:40Z</time>
      </trkpt>
      <trkpt lat="59.975162" lon="17.5258542">
        <ele>24.651</ele>
        <time>2013-05-05T12:55:41Z</time>
      </trkpt>
      <trkpt lat="59.9750922" lon="17.5259299">
        <ele>24.651</ele>
        <time>2013-05-05T12:55:42Z</time>
      </trkpt>
      <trkpt lat="59.9750214" lon="17.526001">
        <ele>24.651</ele>
        <time>2013-05-05T12:55:43Z</time>
      </trkpt>
      <trkpt lat="59.974951" lon="17.5260699">
        <ele>24.651</ele>
        <time>2013-05-05T12:55:44Z</time>
      </trkpt>
      <trkpt lat="59.9748809" lon="17.5261399">
        <ele>24.651</ele>
        <time>2013-05-05T12:55:45Z</time>
      </trkpt>
      <trkpt lat="59.9748115" lon="17.5262099">
        <ele>24.651</ele>
        <time>2013-05-05T12:55:46Z</time>
      </trkpt>
      <trkpt lat="59.9747424" lon="17.5262787">
        <ele>24.1703</ele>
        <time>2013-05-05T12:55:47Z</time>
      </trkpt>
      <trkpt lat="59.9746734" lon="17.526348">
        <ele>24.1703</ele>
        <time>2013-05-05T12:55:48Z</time>
      </trkpt>
      <trkpt lat="59.9746041" lon="17.5264192">
        <ele>24.1703</ele>
        <time>2013-05-05T12:55:49Z</time>
      </trkpt>
      <trkpt lat="59.9745349" lon="17.526494">
        <ele>23.6896</ele>
        <time>2013-05-05T12:55:50Z</time>
      </trkpt>
      <trkpt lat="59.9744649" lon="17.5265714">
        <ele>24.1703</ele>
        <time>2013-05-05T12:55:51Z</time>
      </trkpt>
      <trkpt lat="59.9743953" lon="17.5266479">
        <ele>24.1703</ele>
        <time>2013-05-05T12:55:52Z</time>
      </trkpt>
      <trkpt lat="59.9743268" lon="17.5267257">
        <ele>24.1703</ele>
        <time>2013-05-05T12:55:53Z</time>
      </trkpt>
      <trkpt lat="59.9742583" lon="17.5268029">
        <ele>24.1703</ele>
        <time>2013-05-05T12:55:54Z</time>
      </trkpt>
      <trkpt lat="59.9741894" lon="17.5268776">
        <ele>24.1703</ele>
        <time>2013-05-05T12:55:55Z</time>
      </trkpt>
      <trkpt lat="59.9741204" lon="17.526951">
        <ele>24.1703</ele>
        <time>2013-05-05T12:55:56Z</time>
      </trkpt>
      <trkpt lat="59.9740523" lon="17.5270251">
        <ele>24.651</ele>
        <time>2013-05-05T12:55:57Z</time>
      </trkpt>
      <trkpt lat="59.9739844" lon="17.5270947">
        <ele>24.651</ele>
        <time>2013-05-05T12:55:58Z</time>
      </trkpt>
      <trkpt lat="59.9739155" lon="17.5271587">
        <ele>25.1317</ele>
        <time>2013-05-05T12:55:59Z</time>
      </trkpt>
      <trkpt lat="59.9738456" lon="17.5272189">
        <ele>25.1317</ele>
        <time>2013-05-05T12:56:00Z</time>
      </trkpt>
      <trkpt lat="59.9737751" lon="17.5272787">
        <ele>25.1317</ele>
        <time>2013-05-05T12:56:01Z</time>
      </trkpt>
      <trkpt lat="59.9737057" lon="17.5273385">
        <ele>25.1317</ele>
        <time>2013-05-05T12:56:02Z</time>
      </trkpt>
      <trkpt lat="59.9736362" lon="17.5273982">
        <ele>25.1317</ele>
        <time>2013-05-05T12:56:03Z</time>
      </trkpt>
      <trkpt lat="59.9735653" lon="17.5274569">
        <ele>25.1317</ele>
        <time>2013-05-05T12:56:04Z</time>
      </trkpt>
      <trkpt lat="59.9734931" lon="17.5275183">
        <ele>25.1317</ele>
        <time>2013-05-05T12:56:05Z</time>
      </trkpt>
      <trkpt lat="59.9734201" lon="17.5275835">
        <ele>25.1317</ele>
        <time>2013-05-05T12:56:06Z</time>
      </trkpt>
      <trkpt lat="59.9733461" lon="17.5276509">
        <ele>25.1317</ele>
        <time>2013-05-05T12:56:07Z</time>
      </trkpt>
      <trkpt lat="59.9732715" lon="17.5277211">
        <ele>25.6123</ele>
        <time>2013-05-05T12:56:08Z</time>
      </trkpt>
      <trkpt lat="59.973198" lon="17.5277897">
        <ele>25.6123</ele>
        <time>2013-05-05T12:56:09Z</time>
      </trkpt>
      <trkpt lat="59.9731239" lon="17.5278545">
        <ele>25.1317</ele>
        <time>2013-05-05T12:56:10Z</time>
      </trkpt>
      <trkpt lat="59.9730503" lon="17.527918">
        <ele>25.1317</ele>
        <time>2013-05-05T12:56:11Z</time>
      </trkpt>
      <trkpt lat="59.9729779" lon="17.5279854">
        <ele>25.1317</ele>
        <time>2013-05-05T12:56:12Z</time>
      </trkpt>
      <trkpt lat="59.9729064" lon="17.5280553">
        <ele>24.651</ele>
        <time>2013-05-05T12:56:13Z</time>
      </trkpt>
      <trkpt lat="59.9728354" lon="17.5281247">
        <ele>24.651</ele>
        <time>2013-05-05T12:56:14Z</time>
      </trkpt>
      <trkpt lat="59.972764" lon="17.5281926">
        <ele>24.651</ele>
        <time>2013-05-05T12:56:15Z</time>
      </trkpt>
      <trkpt lat="59.9726929" lon="17.5282611">
        <ele>24.651</ele>
        <time>2013-05-05T12:56:16Z</time>
      </trkpt>
      <trkpt lat="59.972622" lon="17.5283308">
        <ele>24.651</ele>
        <time>2013-05-05T12:56:17Z</time>
      </trkpt>
      <trkpt lat="59.972551" lon="17.5283995">
        <ele>24.651</ele>
        <time>2013-05-05T12:56:18Z</time>
      </trkpt>
      <trkpt lat="59.9724791" lon="17.5284676">
        <ele>24.651</ele>
        <time>2013-05-05T12:56:19Z</time>
      </trkpt>
      <trkpt lat="59.9724081" lon="17.5285367">
        <ele>24.651</ele>
        <time>2013-05-05T12:56:20Z</time>
      </trkpt>
      <trkpt lat="59.9723376" lon="17.5286077">
        <ele>24.1703</ele>
        <time>2013-05-05T12:56:21Z</time>
      </trkpt>
      <trkpt lat="59.9722677" lon="17.5286808">
        <ele>24.1703</ele>
        <time>2013-05-05T12:56:22Z</time>
      </trkpt>
      <trkpt lat="59.9721994" lon="17.5287523">
        <ele>24.1703</ele>
        <time>2013-05-05T12:56:23Z</time>
      </trkpt>
      <trkpt lat="59.9721292" lon="17.5288194">
        <ele>23.6896</ele>
        <time>2013-05-05T12:56:24Z</time>
      </trkpt>
      <trkpt lat="59.9720594" lon="17.5288915">
        <ele>23.6896</ele>
        <time>2013-05-05T12:56:25Z</time>
      </trkpt>
      <trkpt lat="59.9719906" lon="17.5289651">
        <ele>23.209</ele>
        <time>2013-05-05T12:56:26Z</time>
      </trkpt>
      <trkpt lat="59.9719233" lon="17.5290395">
        <ele>22.7283</ele>
        <time>2013-05-05T12:56:27Z</time>
      </trkpt>
      <trkpt lat="59.9718552" lon="17.5291138">
        <ele>22.2476</ele>
        <time>2013-05-05T12:56:28Z</time>
      </trkpt>
      <trkpt lat="59.971788" lon="17.5291907">
        <ele>22.2476</ele>
        <time>2013-05-05T12:56:29Z</time>
      </trkpt>
      <trkpt lat="59.9717202" lon="17.5292716">
        <ele>22.2476</ele>
        <time>2013-05-05T12:56:30Z</time>
      </trkpt>
      <trkpt lat="59.9716511" lon="17.5293593">
        <ele>22.2476</ele>
        <time>2013-05-05T12:56:31Z</time>
      </trkpt>
      <trkpt lat="59.9715808" lon="17.529456">
        <ele>21.767</ele>
        <time>2013-05-05T12:56:32Z</time>
      </trkpt>
      <trkpt lat="59.9715093" lon="17.5295572">
        <ele>21.767</ele>
        <time>2013-05-05T12:56:33Z</time>
      </trkpt>
      <trkpt lat="59.9714387" lon="17.5296607">
        <ele>21.767</ele>
        <time>2013-05-05T12:56:34Z</time>
      </trkpt>
      <trkpt lat="59.97137" lon="17.5297621">
        <ele>21.2864</ele>
        <time>2013-05-05T12:56:35Z</time>
      </trkpt>
      <trkpt lat="59.9713025" lon="17.5298623">
        <ele>21.2864</ele>
        <time>2013-05-05T12:56:36Z</time>
      </trkpt>
      <trkpt lat="59.9712359" lon="17.5299659">
        <ele>20.325</ele>
        <time>2013-05-05T12:56:37Z</time>
      </trkpt>
      <trkpt lat="59.971169" lon="17.5300695">
        <ele>19.8444</ele>
        <time>2013-05-05T12:56:38Z</time>
      </trkpt>
      <trkpt lat="59.9711007" lon="17.5301715">
        <ele>19.8444</ele>
        <time>2013-05-05T12:56:39Z</time>
      </trkpt>
      <trkpt lat="59.9710319" lon="17.5302741">
        <ele>20.325</ele>
        <time>2013-05-05T12:56:40Z</time>
      </trkpt>
      <trkpt lat="59.9709638" lon="17.530383">
        <ele>20.325</ele>
        <time>2013-05-05T12:56:41Z</time>
      </trkpt>
      <trkpt lat="59.9708949" lon="17.5304935">
        <ele>19.8444</ele>
        <time>2013-05-05T12:56:42Z</time>
      </trkpt>
      <trkpt lat="59.9708251" lon="17.5306065">
        <ele>19.3638</ele>
        <time>2013-05-05T12:56:43Z</time>
      </trkpt>
      <trkpt lat="59.9707562" lon="17.5307201">
        <ele>19.3638</ele>
        <time>2013-05-05T12:56:44Z</time>
      </trkpt>
      <trkpt lat="59.9706857" lon="17.5308333">
        <ele>19.3638</ele>
        <time>2013-05-05T12:56:45Z</time>
      </trkpt>
      <trkpt lat="59.9706142" lon="17.5309506">
        <ele>19.3638</ele>
        <time>2013-05-05T12:56:46Z</time>
      </trkpt>
      <trkpt lat="59.9705441" lon="17.5310718">
        <ele>19.3638</ele>
        <time>2013-05-05T12:56:47Z</time>
      </trkpt>
      <trkpt lat="59.9704763" lon="17.5311986">
        <ele>18.8831</ele>
        <time>2013-05-05T12:56:48Z</time>
      </trkpt>
      <trkpt lat="59.9704127" lon="17.531335">
        <ele>19.3638</ele>
        <time>2013-05-05T12:56:49Z</time>
      </trkpt>
      <trkpt lat="59.9703521" lon="17.5314791">
        <ele>19.3638</ele>
        <time>2013-05-05T12:56:50Z</time>
      </trkpt>
      <trkpt lat="59.9702958" lon="17.5316234">
        <ele>19.3638</ele>
        <time>2013-05-05T12:56:51Z</time>
      </trkpt>
      <trkpt lat="59.9702408" lon="17.5317732">
        <ele>18.8831</ele>
        <time>2013-05-05T12:56:52Z</time>
      </trkpt>
      <trkpt lat="59.9701889" lon="17.5319237">
        <ele>17.9218</ele>
        <time>2013-05-05T12:56:53Z</time>
      </trkpt>
      <trkpt lat="59.9701377" lon="17.532072">
        <ele>16.4797</ele>
        <time>2013-05-05T12:56:54Z</time>
      </trkpt>
      <trkpt lat="59.9700889" lon="17.5322232">
        <ele>15.999</ele>
        <time>2013-05-05T12:56:55Z</time>
      </trkpt>
      <trkpt lat="59.9700443" lon="17.5323731">
        <ele>16.4797</ele>
        <time>2013-05-05T12:56:56Z</time>
      </trkpt>
      <trkpt lat="59.9700013" lon="17.532518">
        <ele>15.999</ele>
        <time>2013-05-05T12:56:57Z</time>
      </trkpt>
      <trkpt lat="59.9699567" lon="17.5326606">
        <ele>15.5184</ele>
        <time>2013-05-05T12:56:58Z</time>
      </trkpt>
      <trkpt lat="59.9699082" lon="17.5327911">
        <ele>15.0377</ele>
        <time>2013-05-05T12:56:59Z</time>
      </trkpt>
      <trkpt lat="59.9698585" lon="17.5329176">
        <ele>14.0764</ele>
        <time>2013-05-05T12:57:00Z</time>
      </trkpt>
      <trkpt lat="59.9698075" lon="17.5330541">
        <ele>14.0764</ele>
        <time>2013-05-05T12:57:01Z</time>
      </trkpt>
      <trkpt lat="59.9697537" lon="17.5331832">
        <ele>14.557</ele>
        <time>2013-05-05T12:57:02Z</time>
      </trkpt>
      <trkpt lat="59.9696957" lon="17.5332954">
        <ele>15.0377</ele>
        <time>2013-05-05T12:57:03Z</time>
      </trkpt>
      <trkpt lat="59.9696353" lon="17.5333909">
        <ele>15.0377</ele>
        <time>2013-05-05T12:57:04Z</time>
      </trkpt>
      <trkpt lat="59.9695745" lon="17.5334837">
        <ele>15.0377</ele>
        <time>2013-05-05T12:57:05Z</time>
      </trkpt>
      <trkpt lat="59.9695128" lon="17.5335785">
        <ele>15.5184</ele>
        <time>2013-05-05T12:57:06Z</time>
      </trkpt>
      <trkpt lat="59.9694513" lon="17.5336737">
        <ele>15.5184</ele>
        <time>2013-05-05T12:57:07Z</time>
      </trkpt>
      <trkpt lat="59.9693903" lon="17.5337725">
        <ele>15.999</ele>
        <time>2013-05-05T12:57:08Z</time>
      </trkpt>
      <trkpt lat="59.9693169" lon="17.5338783">
        <ele>16.4797</ele>
        <time>2013-05-05T12:57:09Z</time>
      </trkpt>
      <trkpt lat="59.9692511" lon="17.533988">
        <ele>16.4797</ele>
        <time>2013-05-05T12:57:10Z</time>
      </trkpt>
      <trkpt lat="59.9691791" lon="17.5340869">
        <ele>15.999</ele>
        <time>2013-05-05T12:57:11Z</time>
      </trkpt>
      <trkpt lat="59.9691181" lon="17.5341983">
        <ele>15.5184</ele>
        <time>2013-05-05T12:57:12Z</time>
      </trkpt>
      <trkpt lat="59.9690566" lon="17.5343071">
        <ele>15.0377</ele>
        <time>2013-05-05T12:57:13Z</time>
      </trkpt>
      <trkpt lat="59.9689955" lon="17.5344155">
        <ele>14.557</ele>
        <time>2013-05-05T12:57:14Z</time>
      </trkpt>
      <trkpt lat="59.9689357" lon="17.5345169">
        <ele>14.557</ele>
        <time>2013-05-05T12:57:15Z</time>
      </trkpt>
      <trkpt lat="59.9688783" lon="17.5346196">
        <ele>14.0764</ele>
        <time>2013-05-05T12:57:16Z</time>
      </trkpt>
      <trkpt lat="59.9688219" lon="17.5347169">
        <ele>14.0764</ele>
        <time>2013-05-05T12:57:17Z</time>
      </trkpt>
      <trkpt lat="59.9687664" lon="17.5348104">
        <ele>14.0764</ele>
        <time>2013-05-05T12:57:18Z</time>
      </trkpt>
      <trkpt lat="59.9687109" lon="17.534917">
        <ele>14.557</ele>
        <time>2013-05-05T12:57:19Z</time>
      </trkpt>
      <trkpt lat="59.9686563" lon="17.5350261">
        <ele>15.0377</ele>
        <time>2013-05-05T12:57:20Z</time>
      </trkpt>
      <trkpt lat="59.9686024" lon="17.535135">
        <ele>15.5184</ele>
        <time>2013-05-05T12:57:21Z</time>
      </trkpt>
      <trkpt lat="59.9685487" lon="17.5352418">
        <ele>15.5184</ele>
        <time>2013-05-05T12:57:22Z</time>
      </trkpt>
      <trkpt lat="59.9684931" lon="17.5353521">
        <ele>15.5184</ele>
        <time>2013-05-05T12:57:23Z</time>
      </trkpt>
      <trkpt lat="59.968436" lon="17.5354541">
        <ele>15.5184</ele>
        <time>2013-05-05T12:57:24Z</time>
      </trkpt>
      <trkpt lat="59.968379" lon="17.5355612">
        <ele>15.999</ele>
        <time>2013-05-05T12:57:25Z</time>
      </trkpt>
      <trkpt lat="59.9683215" lon="17.5356729">
        <ele>15.999</ele>
        <time>2013-05-05T12:57:26Z</time>
      </trkpt>
      <trkpt lat="59.968264" lon="17.5357852">
        <ele>16.4797</ele>
        <time>2013-05-05T12:57:27Z</time>
      </trkpt>
      <trkpt lat="59.968207" lon="17.5359086">
        <ele>16.9604</ele>
        <time>2013-05-05T12:57:28Z</time>
      </trkpt>
      <trkpt lat="59.9681511" lon="17.5360222">
        <ele>16.4797</ele>
        <time>2013-05-05T12:57:29Z</time>
      </trkpt>
      <trkpt lat="59.9680977" lon="17.5361342">
        <ele>16.9604</ele>
        <time>2013-05-05T12:57:30Z</time>
      </trkpt>
      <trkpt lat="59.9680453" lon="17.5362504">
        <ele>17.4412</ele>
        <time>2013-05-05T12:57:31Z</time>
      </trkpt>
      <trkpt lat="59.9679946" lon="17.5363774">
        <ele>17.4412</ele>
        <time>2013-05-05T12:57:32Z</time>
      </trkpt>
      <trkpt lat="59.967947" lon="17.5365258">
        <ele>17.9218</ele>
        <time>2013-05-05T12:57:33Z</time>
      </trkpt>
      <trkpt lat="59.9679014" lon="17.5366694">
        <ele>17.9218</ele>
        <time>2013-05-05T12:57:34Z</time>
      </trkpt>
      <trkpt lat="59.9678553" lon="17.5368249">
        <ele>18.4023</ele>
        <time>2013-05-05T12:57:35Z</time>
      </trkpt>
      <trkpt lat="59.9678088" lon="17.5369718">
        <ele>18.4023</ele>
        <time>2013-05-05T12:57:36Z</time>
      </trkpt>
      <trkpt lat="59.9677577" lon="17.5371042">
        <ele>18.8831</ele>
        <time>2013-05-05T12:57:37Z</time>
      </trkpt>
      <trkpt lat="59.9677014" lon="17.5372314">
        <ele>18.8831</ele>
        <time>2013-05-05T12:57:38Z</time>
      </trkpt>
      <trkpt lat="59.9676398" lon="17.5373631">
        <ele>18.8831</ele>
        <time>2013-05-05T12:57:39Z</time>
      </trkpt>
      <trkpt lat="59.9675759" lon="17.5374804">
        <ele>18.8831</ele>
        <time>2013-05-05T12:57:40Z</time>
      </trkpt>
      <trkpt lat="59.967511" lon="17.5375898">
        <ele>18.8831</ele>
        <time>2013-05-05T12:57:41Z</time>
      </trkpt>
      <trkpt lat="59.9674452" lon="17.5376931">
        <ele>18.8831</ele>
        <time>2013-05-05T12:57:42Z</time>
      </trkpt>
      <trkpt lat="59.9673793" lon="17.5377946">
        <ele>18.8831</ele>
        <time>2013-05-05T12:57:43Z</time>
      </trkpt>
      <trkpt lat="59.9673119" lon="17.537893">
        <ele>18.4023</ele>
        <time>2013-05-05T12:57:44Z</time>
      </trkpt>
      <trkpt lat="59.9672436" lon="17.53799">
        <ele>18.4023</ele>
        <time>2013-05-05T12:57:45Z</time>
      </trkpt>
      <trkpt lat="59.9671757" lon="17.5380879">
        <ele>18.4023</ele>
        <time>2013-05-05T12:57:46Z</time>
      </trkpt>
      <trkpt lat="59.9671084" lon="17.5381873">
        <ele>18.4023</ele>
        <time>2013-05-05T12:57:47Z</time>
      </trkpt>
      <trkpt lat="59.9670404" lon="17.5382881">
        <ele>18.4023</ele>
        <time>2013-05-05T12:57:48Z</time>
      </trkpt>
      <trkpt lat="59.9669722" lon="17.5383903">
        <ele>18.4023</ele>
        <time>2013-05-05T12:57:49Z</time>
      </trkpt>
      <trkpt lat="59.9669049" lon="17.5384959">
        <ele>18.4023</ele>
        <time>2013-05-05T12:57:50Z</time>
      </trkpt>
      <trkpt lat="59.966838" lon="17.5386051">
        <ele>18.4023</ele>
        <time>2013-05-05T12:57:51Z</time>
      </trkpt>
      <trkpt lat="59.9667715" lon="17.5387154">
        <ele>18.4023</ele>
        <time>2013-05-05T12:57:52Z</time>
      </trkpt>
      <trkpt lat="59.9667048" lon="17.5388286">
        <ele>17.9218</ele>
        <time>2013-05-05T12:57:53Z</time>
      </trkpt>
      <trkpt lat="59.9666389" lon="17.5389454">
        <ele>17.9218</ele>
        <time>2013-05-05T12:57:54Z</time>
      </trkpt>
      <trkpt lat="59.9665747" lon="17.5390646">
        <ele>17.9218</ele>
        <time>2013-05-05T12:57:55Z</time>
      </trkpt>
      <trkpt lat="59.9665111" lon="17.5391833">
        <ele>17.9218</ele>
        <time>2013-05-05T12:57:56Z</time>
      </trkpt>
      <trkpt lat="59.9664458" lon="17.5393004">
        <ele>17.9218</ele>
        <time>2013-05-05T12:57:57Z</time>
      </trkpt>
      <trkpt lat="59.9663804" lon="17.5394159">
        <ele>17.9218</ele>
        <time>2013-05-05T12:57:58Z</time>
      </trkpt>
      <trkpt lat="59.9663144" lon="17.539529">
        <ele>17.9218</ele>
        <time>2013-05-05T12:57:59Z</time>
      </trkpt>
      <trkpt lat="59.9662469" lon="17.5396413">
        <ele>17.9218</ele>
        <time>2013-05-05T12:58:00Z</time>
      </trkpt>
      <trkpt lat="59.966178" lon="17.5397488">
        <ele>17.9218</ele>
        <time>2013-05-05T12:58:01Z</time>
      </trkpt>
      <trkpt lat="59.9661086" lon="17.539854">
        <ele>17.9218</ele>
        <time>2013-05-05T12:58:02Z</time>
      </trkpt>
      <trkpt lat="59.9660395" lon="17.5399593">
        <ele>17.9218</ele>
        <time>2013-05-05T12:58:03Z</time>
      </trkpt>
      <trkpt lat="59.9659702" lon="17.5400648">
        <ele>17.9218</ele>
        <time>2013-05-05T12:58:04Z</time>
      </trkpt>
      <trkpt lat="59.9659013" lon="17.5401672">
        <ele>17.9218</ele>
        <time>2013-05-05T12:58:05Z</time>
      </trkpt>
      <trkpt lat="59.9658321" lon="17.5402606">
        <ele>17.9218</ele>
        <time>2013-05-05T12:58:06Z</time>
      </trkpt>
      <trkpt lat="59.9657601" lon="17.5403524">
        <ele>17.9218</ele>
        <time>2013-05-05T12:58:07Z</time>
      </trkpt>
      <trkpt lat="59.965688" lon="17.54044">
        <ele>17.9218</ele>
        <time>2013-05-05T12:58:08Z</time>
      </trkpt>
      <trkpt lat="59.9656165" lon="17.5405258">
        <ele>17.9218</ele>
        <time>2013-05-05T12:58:09Z</time>
      </trkpt>
      <trkpt lat="59.9655471" lon="17.5406092">
        <ele>17.9218</ele>
        <time>2013-05-05T12:58:10Z</time>
      </trkpt>
      <trkpt lat="59.9654781" lon="17.5406942">
        <ele>17.9218</ele>
        <time>2013-05-05T12:58:11Z</time>
      </trkpt>
      <trkpt lat="59.9654078" lon="17.5407834">
        <ele>17.9218</ele>
        <time>2013-05-05T12:58:12Z</time>
      </trkpt>
      <trkpt lat="59.9653369" lon="17.5408714">
        <ele>17.9218</ele>
        <time>2013-05-05T12:58:13Z</time>
      </trkpt>
      <trkpt lat="59.9652653" lon="17.5409556">
        <ele>17.9218</ele>
        <time>2013-05-05T12:58:14Z</time>
      </trkpt>
      <trkpt lat="59.9651937" lon="17.5410379">
        <ele>17.9218</ele>
        <time>2013-05-05T12:58:15Z</time>
      </trkpt>
      <trkpt lat="59.9651224" lon="17.5411202">
        <ele>17.9218</ele>
        <time>2013-05-05T12:58:16Z</time>
      </trkpt>
      <trkpt lat="59.9650513" lon="17.5412041">
        <ele>17.9218</ele>
        <time>2013-05-05T12:58:17Z</time>
      </trkpt>
      <trkpt lat="59.9649804" lon="17.5412896">
        <ele>17.9218</ele>
        <time>2013-05-05T12:58:18Z</time>
      </trkpt>
      <trkpt lat="59.9649085" lon="17.5413753">
        <ele>17.4412</ele>
        <time>2013-05-05T12:58:19Z</time>
      </trkpt>
      <trkpt lat="59.9648347" lon="17.541458">
        <ele>17.4412</ele>
        <time>2013-05-05T12:58:20Z</time>
      </trkpt>
      <trkpt lat="59.9647592" lon="17.5415385">
        <ele>17.4412</ele>
        <time>2013-05-05T12:58:21Z</time>
      </trkpt>
      <trkpt lat="59.9646835" lon="17.5416169">
        <ele>17.4412</ele>
        <time>2013-05-05T12:58:22Z</time>
      </trkpt>
      <trkpt lat="59.9646072" lon="17.5416942">
        <ele>17.4412</ele>
        <time>2013-05-05T12:58:23Z</time>
      </trkpt>
      <trkpt lat="59.9645302" lon="17.5417702">
        <ele>17.4412</ele>
        <time>2013-05-05T12:58:24Z</time>
      </trkpt>
      <trkpt lat="59.964453" lon="17.5418428">
        <ele>17.9218</ele>
        <time>2013-05-05T12:58:25Z</time>
      </trkpt>
      <trkpt lat="59.9643763" lon="17.5419132">
        <ele>17.9218</ele>
        <time>2013-05-05T12:58:26Z</time>
      </trkpt>
      <trkpt lat="59.9643023" lon="17.541984">
        <ele>17.9218</ele>
        <time>2013-05-05T12:58:27Z</time>
      </trkpt>
      <trkpt lat="59.9642303" lon="17.5420536">
        <ele>17.9218</ele>
        <time>2013-05-05T12:58:28Z</time>
      </trkpt>
      <trkpt lat="59.9641596" lon="17.5421175">
        <ele>17.9218</ele>
        <time>2013-05-05T12:58:29Z</time>
      </trkpt>
      <trkpt lat="59.9640899" lon="17.5421784">
        <ele>17.9218</ele>
        <time>2013-05-05T12:58:30Z</time>
      </trkpt>
      <trkpt lat="59.9640215" lon="17.5422406">
        <ele>17.9218</ele>
        <time>2013-05-05T12:58:31Z</time>
      </trkpt>
      <trkpt lat="59.9639536" lon="17.5423003">
        <ele>17.9218</ele>
        <time>2013-05-05T12:58:32Z</time>
      </trkpt>
      <trkpt lat="59.9638838" lon="17.5423598">
        <ele>17.9218</ele>
        <time>2013-05-05T12:58:33Z</time>
      </trkpt>
      <trkpt lat="59.9638142" lon="17.5424234">
        <ele>17.9218</ele>
        <time>2013-05-05T12:58:34Z</time>
      </trkpt>
      <trkpt lat="59.9637447" lon="17.5424888">
        <ele>17.9218</ele>
        <time>2013-05-05T12:58:35Z</time>
      </trkpt>
      <trkpt lat="59.963674" lon="17.5425518">
        <ele>18.4023</ele>
        <time>2013-05-05T12:58:36Z</time>
      </trkpt>
      <trkpt lat="59.963603" lon="17.5426151">
        <ele>18.4023</ele>
        <time>2013-05-05T12:58:37Z</time>
      </trkpt>
      <trkpt lat="59.9635316" lon="17.5426821">
        <ele>18.4023</ele>
        <time>2013-05-05T12:58:38Z</time>
      </trkpt>
      <trkpt lat="59.9634595" lon="17.5427558">
        <ele>18.4023</ele>
        <time>2013-05-05T12:58:39Z</time>
      </trkpt>
      <trkpt lat="59.9633902" lon="17.5428341">
        <ele>17.9218</ele>
        <time>2013-05-05T12:58:40Z</time>
      </trkpt>
      <trkpt lat="59.9633264" lon="17.5429237">
        <ele>17.9218</ele>
        <time>2013-05-05T12:58:41Z</time>
      </trkpt>
      <trkpt lat="59.9632693" lon="17.5430254">
        <ele>17.9218</ele>
        <time>2013-05-05T12:58:42Z</time>
      </trkpt>
      <trkpt lat="59.963219" lon="17.5431382">
        <ele>18.4023</ele>
        <time>2013-05-05T12:58:43Z</time>
      </trkpt>
      <trkpt lat="59.9631734" lon="17.5432575">
        <ele>18.4023</ele>
        <time>2013-05-05T12:58:44Z</time>
      </trkpt>
      <trkpt lat="59.9631325" lon="17.5433866">
        <ele>18.4023</ele>
        <time>2013-05-05T12:58:45Z</time>
      </trkpt>
      <trkpt lat="59.9630954" lon="17.5435209">
        <ele>18.8831</ele>
        <time>2013-05-05T12:58:46Z</time>
      </trkpt>
      <trkpt lat="59.9630622" lon="17.543658">
        <ele>18.8831</ele>
        <time>2013-05-05T12:58:47Z</time>
      </trkpt>
      <trkpt lat="59.9630316" lon="17.5437981">
        <ele>18.8831</ele>
        <time>2013-05-05T12:58:48Z</time>
      </trkpt>
      <trkpt lat="59.9630026" lon="17.5439418">
        <ele>18.8831</ele>
        <time>2013-05-05T12:58:49Z</time>
      </trkpt>
      <trkpt lat="59.9629745" lon="17.5440894">
        <ele>18.8831</ele>
        <time>2013-05-05T12:58:50Z</time>
      </trkpt>
      <trkpt lat="59.9629482" lon="17.5442387">
        <ele>18.8831</ele>
        <time>2013-05-05T12:58:51Z</time>
      </trkpt>
      <trkpt lat="59.9629188" lon="17.5443877">
        <ele>18.8831</ele>
        <time>2013-05-05T12:58:52Z</time>
      </trkpt>
      <trkpt lat="59.9628827" lon="17.5445293">
        <ele>18.8831</ele>
        <time>2013-05-05T12:58:53Z</time>
      </trkpt>
      <trkpt lat="59.9628414" lon="17.5446618">
        <ele>18.8831</ele>
        <time>2013-05-05T12:58:54Z</time>
      </trkpt>
      <trkpt lat="59.9627817" lon="17.5447903">
        <ele>18.8831</ele>
        <time>2013-05-05T12:58:55Z</time>
      </trkpt>
      <trkpt lat="59.9627209" lon="17.5448888">
        <ele>19.3638</ele>
        <time>2013-05-05T12:58:56Z</time>
      </trkpt>
      <trkpt lat="59.9626505" lon="17.5449577">
        <ele>19.8444</ele>
        <time>2013-05-05T12:58:57Z</time>
      </trkpt>
      <trkpt lat="59.9625644" lon="17.5449964">
        <ele>19.8444</ele>
        <time>2013-05-05T12:58:58Z</time>
      </trkpt>
      <trkpt lat="59.9624794" lon="17.5450294">
        <ele>20.325</ele>
        <time>2013-05-05T12:58:59Z</time>
      </trkpt>
      <trkpt lat="59.962395" lon="17.5450755">
        <ele>20.8057</ele>
        <time>2013-05-05T12:59:00Z</time>
      </trkpt>
      <trkpt lat="59.9623103" lon="17.5451128">
        <ele>20.325</ele>
        <time>2013-05-05T12:59:01Z</time>
      </trkpt>
      <trkpt lat="59.9622278" lon="17.5451506">
        <ele>20.325</ele>
        <time>2013-05-05T12:59:02Z</time>
      </trkpt>
      <trkpt lat="59.9621453" lon="17.5451853">
        <ele>20.8057</ele>
        <time>2013-05-05T12:59:03Z</time>
      </trkpt>
      <trkpt lat="59.9620624" lon="17.5452166">
        <ele>20.8057</ele>
        <time>2013-05-05T12:59:04Z</time>
      </trkpt>
      <trkpt lat="59.9619795" lon="17.5452446">
        <ele>20.8057</ele>
        <time>2013-05-05T12:59:05Z</time>
      </trkpt>
      <trkpt lat="59.9618961" lon="17.5452644">
        <ele>21.2864</ele>
        <time>2013-05-05T12:59:06Z</time>
      </trkpt>
      <trkpt lat="59.9618117" lon="17.5452713">
        <ele>21.2864</ele>
        <time>2013-05-05T12:59:07Z</time>
      </trkpt>
      <trkpt lat="59.9617267" lon="17.5452602">
        <ele>21.2864</ele>
        <time>2013-05-05T12:59:08Z</time>
      </trkpt>
      <trkpt lat="59.9616418" lon="17.5452301">
        <ele>21.767</ele>
        <time>2013-05-05T12:59:09Z</time>
      </trkpt>
      <trkpt lat="59.9615574" lon="17.5451867">
        <ele>21.767</ele>
        <time>2013-05-05T12:59:10Z</time>
      </trkpt>
      <trkpt lat="59.961473" lon="17.5451371">
        <ele>21.767</ele>
        <time>2013-05-05T12:59:11Z</time>
      </trkpt>
      <trkpt lat="59.9613952" lon="17.5450732">
        <ele>22.7283</ele>
        <time>2013-05-05T12:59:12Z</time>
      </trkpt>
      <trkpt lat="59.9613161" lon="17.5450092">
        <ele>23.6896</ele>
        <time>2013-05-05T12:59:13Z</time>
      </trkpt>
      <trkpt lat="59.9612363" lon="17.5449467">
        <ele>24.1703</ele>
        <time>2013-05-05T12:59:14Z</time>
      </trkpt>
      <trkpt lat="59.9611557" lon="17.544889">
        <ele>24.1703</ele>
        <time>2013-05-05T12:59:15Z</time>
      </trkpt>
      <trkpt lat="59.9610752" lon="17.5448349">
        <ele>24.651</ele>
        <time>2013-05-05T12:59:16Z</time>
      </trkpt>
      <trkpt lat="59.9609954" lon="17.5447861">
        <ele>25.1317</ele>
        <time>2013-05-05T12:59:17Z</time>
      </trkpt>
      <trkpt lat="59.960913" lon="17.5447446">
        <ele>24.1703</ele>
        <time>2013-05-05T12:59:18Z</time>
      </trkpt>
      <trkpt lat="59.9608316" lon="17.5447121">
        <ele>24.1703</ele>
        <time>2013-05-05T12:59:19Z</time>
      </trkpt>
      <trkpt lat="59.9607511" lon="17.5446841">
        <ele>24.1703</ele>
        <time>2013-05-05T12:59:20Z</time>
      </trkpt>
      <trkpt lat="59.960671" lon="17.5446582">
        <ele>24.1703</ele>
        <time>2013-05-05T12:59:21Z</time>
      </trkpt>
      <trkpt lat="59.9605902" lon="17.5446328">
        <ele>24.1703</ele>
        <time>2013-05-05T12:59:22Z</time>
      </trkpt>
      <trkpt lat="59.9605097" lon="17.5446091">
        <ele>24.651</ele>
        <time>2013-05-05T12:59:23Z</time>
      </trkpt>
      <trkpt lat="59.9604296" lon="17.5445857">
        <ele>24.651</ele>
        <time>2013-05-05T12:59:24Z</time>
      </trkpt>
      <trkpt lat="59.9603494" lon="17.5445622">
        <ele>24.651</ele>
        <time>2013-05-05T12:59:25Z</time>
      </trkpt>
      <trkpt lat="59.9602692" lon="17.544538">
        <ele>24.651</ele>
        <time>2013-05-05T12:59:26Z</time>
      </trkpt>
      <trkpt lat="59.9601888" lon="17.5445153">
        <ele>24.651</ele>
        <time>2013-05-05T12:59:27Z</time>
      </trkpt>
      <trkpt lat="59.9601084" lon="17.5444953">
        <ele>24.651</ele>
        <time>2013-05-05T12:59:28Z</time>
      </trkpt>
      <trkpt lat="59.9600285" lon="17.5444725">
        <ele>24.651</ele>
        <time>2013-05-05T12:59:29Z</time>
      </trkpt>
      <trkpt lat="59.9599492" lon="17.5444456">
        <ele>24.1703</ele>
        <time>2013-05-05T12:59:30Z</time>
      </trkpt>
      <trkpt lat="59.9598716" lon="17.5444122">
        <ele>24.1703</ele>
        <time>2013-05-05T12:59:31Z</time>
      </trkpt>
      <trkpt lat="59.959794" lon="17.5443815">
        <ele>24.1703</ele>
        <time>2013-05-05T12:59:32Z</time>
      </trkpt>
      <trkpt lat="59.9597157" lon="17.5443529">
        <ele>24.651</ele>
        <time>2013-05-05T12:59:33Z</time>
      </trkpt>
      <trkpt lat="59.9596349" lon="17.5443302">
        <ele>24.1703</ele>
        <time>2013-05-05T12:59:34Z</time>
      </trkpt>
      <trkpt lat="59.9595527" lon="17.5443127">
        <ele>24.1703</ele>
        <time>2013-05-05T12:59:35Z</time>
      </trkpt>
      <trkpt lat="59.9594696" lon="17.5442974">
        <ele>24.1703</ele>
        <time>2013-05-05T12:59:36Z</time>
      </trkpt>
      <trkpt lat="59.9593857" lon="17.5442829">
        <ele>24.1703</ele>
        <time>2013-05-05T12:59:37Z</time>
      </trkpt>
      <trkpt lat="59.9593018" lon="17.5442662">
        <ele>23.6896</ele>
        <time>2013-05-05T12:59:38Z</time>
      </trkpt>
      <trkpt lat="59.9592186" lon="17.5442513">
        <ele>24.1703</ele>
        <time>2013-05-05T12:59:39Z</time>
      </trkpt>
      <trkpt lat="59.9591358" lon="17.5442386">
        <ele>24.651</ele>
        <time>2013-05-05T12:59:40Z</time>
      </trkpt>
      <trkpt lat="59.9590528" lon="17.544228">
        <ele>24.651</ele>
        <time>2013-05-05T12:59:41Z</time>
      </trkpt>
      <trkpt lat="59.9589693" lon="17.5442168">
        <ele>25.1317</ele>
        <time>2013-05-05T12:59:42Z</time>
      </trkpt>
      <trkpt lat="59.9588881" lon="17.5442012">
        <ele>25.1317</ele>
        <time>2013-05-05T12:59:43Z</time>
      </trkpt>
      <trkpt lat="59.9588076" lon="17.5441833">
        <ele>25.1317</ele>
        <time>2013-05-05T12:59:44Z</time>
      </trkpt>
      <trkpt lat="59.9587269" lon="17.5441698">
        <ele>24.651</ele>
        <time>2013-05-05T12:59:45Z</time>
      </trkpt>
      <trkpt lat="59.958646" lon="17.5441634">
        <ele>24.651</ele>
        <time>2013-05-05T12:59:46Z</time>
      </trkpt>
      <trkpt lat="59.9585654" lon="17.5441636">
        <ele>24.651</ele>
        <time>2013-05-05T12:59:47Z</time>
      </trkpt>
      <trkpt lat="59.9584859" lon="17.54417">
        <ele>24.651</ele>
        <time>2013-05-05T12:59:48Z</time>
      </trkpt>
      <trkpt lat="59.9584054" lon="17.5441845">
        <ele>24.651</ele>
        <time>2013-05-05T12:59:49Z</time>
      </trkpt>
      <trkpt lat="59.9583255" lon="17.5442054">
        <ele>24.1703</ele>
        <time>2013-05-05T12:59:50Z</time>
      </trkpt>
      <trkpt lat="59.958246" lon="17.5442334">
        <ele>24.1703</ele>
        <time>2013-05-05T12:59:51Z</time>
      </trkpt>
      <trkpt lat="59.9581659" lon="17.5442645">
        <ele>24.1703</ele>
        <time>2013-05-05T12:59:52Z</time>
      </trkpt>
      <trkpt lat="59.9580849" lon="17.5442962">
        <ele>24.1703</ele>
        <time>2013-05-05T12:59:53Z</time>
      </trkpt>
      <trkpt lat="59.9580028" lon="17.5443277">
        <ele>23.6896</ele>
        <time>2013-05-05T12:59:54Z</time>
      </trkpt>
      <trkpt lat="59.9579189" lon="17.5443583">
        <ele>23.6896</ele>
        <time>2013-05-05T12:59:55Z</time>
      </trkpt>
      <trkpt lat="59.9578344" lon="17.544379">
        <ele>22.7283</ele>
        <time>2013-05-05T12:59:56Z</time>
      </trkpt>
      <trkpt lat="59.9577491" lon="17.544399">
        <ele>21.767</ele>
        <time>2013-05-05T12:59:57Z</time>
      </trkpt>
      <trkpt lat="59.9576645" lon="17.5444197">
        <ele>20.8057</ele>
        <time>2013-05-05T12:59:58Z</time>
      </trkpt>
      <trkpt lat="59.9575814" lon="17.5444432">
        <ele>20.325</ele>
        <time>2013-05-05T12:59:59Z</time>
      </trkpt>
      <trkpt lat="59.9574998" lon="17.5444682">
        <ele>19.8444</ele>
        <time>2013-05-05T13:00:00Z</time>
      </trkpt>
      <trkpt lat="59.9574177" lon="17.5444951">
        <ele>19.3638</ele>
        <time>2013-05-05T13:00:01Z</time>
      </trkpt>
      <trkpt lat="59.9573357" lon="17.5445209">
        <ele>18.8831</ele>
        <time>2013-05-05T13:00:02Z</time>
      </trkpt>
      <trkpt lat="59.9572535" lon="17.544544">
        <ele>18.8831</ele>
        <time>2013-05-05T13:00:03Z</time>
      </trkpt>
      <trkpt lat="59.9571698" lon="17.5445665">
        <ele>18.4023</ele>
        <time>2013-05-05T13:00:04Z</time>
      </trkpt>
      <trkpt lat="59.9570834" lon="17.5445873">
        <ele>17.9218</ele>
        <time>2013-05-05T13:00:05Z</time>
      </trkpt>
      <trkpt lat="59.9569952" lon="17.5446036">
        <ele>17.9218</ele>
        <time>2013-05-05T13:00:06Z</time>
      </trkpt>
      <trkpt lat="59.9569061" lon="17.544612">
        <ele>17.9218</ele>
        <time>2013-05-05T13:00:07Z</time>
      </trkpt>
      <trkpt lat="59.9568179" lon="17.5446188">
        <ele>17.9218</ele>
        <time>2013-05-05T13:00:08Z</time>
      </trkpt>
      <trkpt lat="59.9567311" lon="17.5446303">
        <ele>17.9218</ele>
        <time>2013-05-05T13:00:09Z</time>
      </trkpt>
      <trkpt lat="59.956646" lon="17.5446483">
        <ele>17.9218</ele>
        <time>2013-05-05T13:00:10Z</time>
      </trkpt>
      <trkpt lat="59.9565623" lon="17.5446702">
        <ele>17.4412</ele>
        <time>2013-05-05T13:00:11Z</time>
      </trkpt>
      <trkpt lat="59.9564802" lon="17.5446923">
        <ele>17.4412</ele>
        <time>2013-05-05T13:00:12Z</time>
      </trkpt>
      <trkpt lat="59.9563995" lon="17.5447131">
        <ele>17.4412</ele>
        <time>2013-05-05T13:00:13Z</time>
      </trkpt>
      <trkpt lat="59.9563207" lon="17.5447321">
        <ele>17.4412</ele>
        <time>2013-05-05T13:00:14Z</time>
      </trkpt>
      <trkpt lat="59.9562441" lon="17.5447486">
        <ele>17.4412</ele>
        <time>2013-05-05T13:00:15Z</time>
      </trkpt>
      <trkpt lat="59.9561701" lon="17.5447647">
        <ele>17.4412</ele>
        <time>2013-05-05T13:00:16Z</time>
      </trkpt>
      <trkpt lat="59.9560989" lon="17.5447841">
        <ele>17.4412</ele>
        <time>2013-05-05T13:00:17Z</time>
      </trkpt>
      <trkpt lat="59.9560315" lon="17.544813">
        <ele>17.9218</ele>
        <time>2013-05-05T13:00:18Z</time>
      </trkpt>
      <trkpt lat="59.9559696" lon="17.5448484">
        <ele>17.9218</ele>
        <time>2013-05-05T13:00:19Z</time>
      </trkpt>
      <trkpt lat="59.955911" lon="17.544893">
        <ele>17.9218</ele>
        <time>2013-05-05T13:00:20Z</time>
      </trkpt>
      <trkpt lat="59.9558542" lon="17.5449481">
        <ele>17.9218</ele>
        <time>2013-05-05T13:00:21Z</time>
      </trkpt>
      <trkpt lat="59.9558002" lon="17.5450123">
        <ele>18.4023</ele>
        <time>2013-05-05T13:00:22Z</time>
      </trkpt>
      <trkpt lat="59.9557474" lon="17.5450835">
        <ele>18.8831</ele>
        <time>2013-05-05T13:00:23Z</time>
      </trkpt>
      <trkpt lat="59.9556959" lon="17.5451597">
        <ele>18.8831</ele>
        <time>2013-05-05T13:00:24Z</time>
      </trkpt>
      <trkpt lat="59.9556438" lon="17.5452357">
        <ele>18.8831</ele>
        <time>2013-05-05T13:00:25Z</time>
      </trkpt>
      <trkpt lat="59.9555907" lon="17.5453109">
        <ele>18.8831</ele>
        <time>2013-05-05T13:00:26Z</time>
      </trkpt>
      <trkpt lat="59.955536" lon="17.5453806">
        <ele>19.3638</ele>
        <time>2013-05-05T13:00:27Z</time>
      </trkpt>
      <trkpt lat="59.9554796" lon="17.5454433">
        <ele>19.3638</ele>
        <time>2013-05-05T13:00:28Z</time>
      </trkpt>
      <trkpt lat="59.955424" lon="17.5454966">
        <ele>19.8444</ele>
        <time>2013-05-05T13:00:29Z</time>
      </trkpt>
      <trkpt lat="59.9553676" lon="17.5455404">
        <ele>19.8444</ele>
        <time>2013-05-05T13:00:30Z</time>
      </trkpt>
      <trkpt lat="59.9553116" lon="17.5455766">
        <ele>20.325</ele>
        <time>2013-05-05T13:00:31Z</time>
      </trkpt>
      <trkpt lat="59.9552562" lon="17.5456098">
        <ele>20.8057</ele>
        <time>2013-05-05T13:00:32Z</time>
      </trkpt>
      <trkpt lat="59.9552012" lon="17.5456381">
        <ele>20.8057</ele>
        <time>2013-05-05T13:00:33Z</time>
      </trkpt>
      <trkpt lat="59.9551465" lon="17.5456616">
        <ele>20.8057</ele>
        <time>2013-05-05T13:00:34Z</time>
      </trkpt>
      <trkpt lat="59.9550931" lon="17.5456859">
        <ele>21.2864</ele>
        <time>2013-05-05T13:00:35Z</time>
      </trkpt>
      <trkpt lat="59.9550373" lon="17.5457143">
        <ele>20.8057</ele>
        <time>2013-05-05T13:00:36Z</time>
      </trkpt>
      <trkpt lat="59.9549806" lon="17.5457455">
        <ele>20.325</ele>
        <time>2013-05-05T13:00:37Z</time>
      </trkpt>
      <trkpt lat="59.9549237" lon="17.5457787">
        <ele>19.8444</ele>
        <time>2013-05-05T13:00:38Z</time>
      </trkpt>
      <trkpt lat="59.9548671" lon="17.5458143">
        <ele>19.3638</ele>
        <time>2013-05-05T13:00:39Z</time>
      </trkpt>
      <trkpt lat="59.9548103" lon="17.5458486">
        <ele>18.8831</ele>
        <time>2013-05-05T13:00:40Z</time>
      </trkpt>
      <trkpt lat="59.9547533" lon="17.5458807">
        <ele>18.4023</ele>
        <time>2013-05-05T13:00:41Z</time>
      </trkpt>
      <trkpt lat="59.9546967" lon="17.5459096">
        <ele>18.4023</ele>
        <time>2013-05-05T13:00:42Z</time>
      </trkpt>
      <trkpt lat="59.9546409" lon="17.5459357">
        <ele>17.9218</ele>
        <time>2013-05-05T13:00:43Z</time>
      </trkpt>
      <trkpt lat="59.9545865" lon="17.5459608">
        <ele>17.9218</ele>
        <time>2013-05-05T13:00:44Z</time>
      </trkpt>
      <trkpt lat="59.9545325" lon="17.5459853">
        <ele>17.9218</ele>
        <time>2013-05-05T13:00:45Z</time>
      </trkpt>
      <trkpt lat="59.9544777" lon="17.546006">
        <ele>17.4412</ele>
        <time>2013-05-05T13:00:46Z</time>
      </trkpt>
      <trkpt lat="59.9544218" lon="17.5460263">
        <ele>17.4412</ele>
        <time>2013-05-05T13:00:47Z</time>
      </trkpt>
      <trkpt lat="59.9543648" lon="17.5460463">
        <ele>17.4412</ele>
        <time>2013-05-05T13:00:48Z</time>
      </trkpt>
      <trkpt lat="59.9543068" lon="17.5460672">
        <ele>17.9218</ele>
        <time>2013-05-05T13:00:49Z</time>
      </trkpt>
      <trkpt lat="59.9542478" lon="17.546089">
        <ele>17.9218</ele>
        <time>2013-05-05T13:00:50Z</time>
      </trkpt>
      <trkpt lat="59.9541895" lon="17.5461124">
        <ele>18.8831</ele>
        <time>2013-05-05T13:00:51Z</time>
      </trkpt>
      <trkpt lat="59.9541296" lon="17.5461366">
        <ele>19.3638</ele>
        <time>2013-05-05T13:00:52Z</time>
      </trkpt>
      <trkpt lat="59.9540685" lon="17.5461633">
        <ele>19.3638</ele>
        <time>2013-05-05T13:00:53Z</time>
      </trkpt>
      <trkpt lat="59.9540074" lon="17.5461918">
        <ele>19.8444</ele>
        <time>2013-05-05T13:00:54Z</time>
      </trkpt>
      <trkpt lat="59.9539482" lon="17.5462116">
        <ele>19.8444</ele>
        <time>2013-05-05T13:00:55Z</time>
      </trkpt>
      <trkpt lat="59.9538886" lon="17.5462329">
        <ele>20.325</ele>
        <time>2013-05-05T13:00:56Z</time>
      </trkpt>
      <trkpt lat="59.9538297" lon="17.5462636">
        <ele>20.325</ele>
        <time>2013-05-05T13:00:57Z</time>
      </trkpt>
      <trkpt lat="59.9537721" lon="17.5462992">
        <ele>20.325</ele>
        <time>2013-05-05T13:00:58Z</time>
      </trkpt>
      <trkpt lat="59.953715" lon="17.5463317">
        <ele>20.8057</ele>
        <time>2013-05-05T13:00:59Z</time>
      </trkpt>
      <trkpt lat="59.9536576" lon="17.5463592">
        <ele>20.8057</ele>
        <time>2013-05-05T13:01:00Z</time>
      </trkpt>
      <trkpt lat="59.9536018" lon="17.5463809">
        <ele>21.2864</ele>
        <time>2013-05-05T13:01:01Z</time>
      </trkpt>
      <trkpt lat="59.9535483" lon="17.5464012">
        <ele>22.2476</ele>
        <time>2013-05-05T13:01:02Z</time>
      </trkpt>
      <trkpt lat="59.953494" lon="17.5464193">
        <ele>22.7283</ele>
        <time>2013-05-05T13:01:03Z</time>
      </trkpt>
      <trkpt lat="59.95344" lon="17.546436">
        <ele>23.6896</ele>
        <time>2013-05-05T13:01:04Z</time>
      </trkpt>
      <trkpt lat="59.9533866" lon="17.5464448">
        <ele>24.1703</ele>
        <time>2013-05-05T13:01:05Z</time>
      </trkpt>
      <trkpt lat="59.9533341" lon="17.5464514">
        <ele>24.1703</ele>
        <time>2013-05-05T13:01:06Z</time>
      </trkpt>
      <trkpt lat="59.9532831" lon="17.546455">
        <ele>24.651</ele>
        <time>2013-05-05T13:01:07Z</time>
      </trkpt>
      <trkpt lat="59.953232" lon="17.5464542">
        <ele>24.651</ele>
        <time>2013-05-05T13:01:08Z</time>
      </trkpt>
      <trkpt lat="59.9531825" lon="17.5464524">
        <ele>25.1317</ele>
        <time>2013-05-05T13:01:09Z</time>
      </trkpt>
      <trkpt lat="59.9531339" lon="17.5464522">
        <ele>25.1317</ele>
        <time>2013-05-05T13:01:10Z</time>
      </trkpt>
      <trkpt lat="59.9530869" lon="17.5464504">
        <ele>25.6123</ele>
        <time>2013-05-05T13:01:11Z</time>
      </trkpt>
      <trkpt lat="59.9530402" lon="17.5464474">
        <ele>26.0929</ele>
        <time>2013-05-05T13:01:12Z</time>
      </trkpt>
      <trkpt lat="59.9529934" lon="17.5464422">
        <ele>27.0543</ele>
        <time>2013-05-05T13:01:13Z</time>
      </trkpt>
      <trkpt lat="59.9529457" lon="17.5464353">
        <ele>27.5349</ele>
        <time>2013-05-05T13:01:14Z</time>
      </trkpt>
      <trkpt lat="59.9528978" lon="17.5464236">
        <ele>28.0155</ele>
        <time>2013-05-05T13:01:15Z</time>
      </trkpt>
      <trkpt lat="59.9528475" lon="17.5464085">
        <ele>28.4962</ele>
        <time>2013-05-05T13:01:16Z</time>
      </trkpt>
      <trkpt lat="59.9527927" lon="17.5463915">
        <ele>28.4962</ele>
        <time>2013-05-05T13:01:17Z</time>
      </trkpt>
      <trkpt lat="59.9527378" lon="17.5463768">
        <ele>28.4962</ele>
        <time>2013-05-05T13:01:18Z</time>
      </trkpt>
      <trkpt lat="59.9526845" lon="17.5463628">
        <ele>28.4962</ele>
        <time>2013-05-05T13:01:19Z</time>
      </trkpt>
      <trkpt lat="59.9526289" lon="17.546346">
        <ele>27.5349</ele>
        <time>2013-05-05T13:01:20Z</time>
      </trkpt>
      <trkpt lat="59.9525702" lon="17.5463288">
        <ele>27.0543</ele>
        <time>2013-05-05T13:01:21Z</time>
      </trkpt>
      <trkpt lat="59.9525107" lon="17.5463116">
        <ele>26.5736</ele>
        <time>2013-05-05T13:01:22Z</time>
      </trkpt>
      <trkpt lat="59.9524503" lon="17.5462951">
        <ele>26.0929</ele>
        <time>2013-05-05T13:01:23Z</time>
      </trkpt>
      <trkpt lat="59.9523891" lon="17.5462826">
        <ele>25.6123</ele>
        <time>2013-05-05T13:01:24Z</time>
      </trkpt>
      <trkpt lat="59.9523248" lon="17.5462744">
        <ele>24.651</ele>
        <time>2013-05-05T13:01:25Z</time>
      </trkpt>
      <trkpt lat="59.9522601" lon="17.5462722">
        <ele>23.6896</ele>
        <time>2013-05-05T13:01:26Z</time>
      </trkpt>
      <trkpt lat="59.9521923" lon="17.5462774">
        <ele>22.7283</ele>
        <time>2013-05-05T13:01:27Z</time>
      </trkpt>
      <trkpt lat="59.9521242" lon="17.5462867">
        <ele>21.767</ele>
        <time>2013-05-05T13:01:28Z</time>
      </trkpt>
      <trkpt lat="59.9520555" lon="17.5462996">
        <ele>21.2864</ele>
        <time>2013-05-05T13:01:29Z</time>
      </trkpt>
      <trkpt lat="59.9519857" lon="17.5463199">
        <ele>20.325</ele>
        <time>2013-05-05T13:01:30Z</time>
      </trkpt>
      <trkpt lat="59.9519141" lon="17.5463485">
        <ele>20.325</ele>
        <time>2013-05-05T13:01:31Z</time>
      </trkpt>
      <trkpt lat="59.951842" lon="17.5463815">
        <ele>19.8444</ele>
        <time>2013-05-05T13:01:32Z</time>
      </trkpt>
      <trkpt lat="59.9517699" lon="17.5464189">
        <ele>19.8444</ele>
        <time>2013-05-05T13:01:33Z</time>
      </trkpt>
      <trkpt lat="59.9516992" lon="17.5464608">
        <ele>19.8444</ele>
        <time>2013-05-05T13:01:34Z</time>
      </trkpt>
      <trkpt lat="59.9516291" lon="17.5465064">
        <ele>19.8444</ele>
        <time>2013-05-05T13:01:35Z</time>
      </trkpt>
      <trkpt lat="59.9515596" lon="17.5465557">
        <ele>20.325</ele>
        <time>2013-05-05T13:01:36Z</time>
      </trkpt>
      <trkpt lat="59.9514907" lon="17.5466076">
        <ele>20.325</ele>
        <time>2013-05-05T13:01:37Z</time>
      </trkpt>
      <trkpt lat="59.9514212" lon="17.5466598">
        <ele>20.325</ele>
        <time>2013-05-05T13:01:38Z</time>
      </trkpt>
      <trkpt lat="59.9513508" lon="17.5467096">
        <ele>20.325</ele>
        <time>2013-05-05T13:01:39Z</time>
      </trkpt>
      <trkpt lat="59.951279" lon="17.5467562">
        <ele>20.325</ele>
        <time>2013-05-05T13:01:40Z</time>
      </trkpt>
      <trkpt lat="59.9512068" lon="17.5468027">
        <ele>20.325</ele>
        <time>2013-05-05T13:01:41Z</time>
      </trkpt>
      <trkpt lat="59.951136" lon="17.5468524">
        <ele>20.325</ele>
        <time>2013-05-05T13:01:42Z</time>
      </trkpt>
      <trkpt lat="59.9510669" lon="17.5469095">
        <ele>19.8444</ele>
        <time>2013-05-05T13:01:43Z</time>
      </trkpt>
      <trkpt lat="59.9509973" lon="17.5469662">
        <ele>19.8444</ele>
        <time>2013-05-05T13:01:44Z</time>
      </trkpt>
      <trkpt lat="59.9509256" lon="17.5470186">
        <ele>19.3638</ele>
        <time>2013-05-05T13:01:45Z</time>
      </trkpt>
      <trkpt lat="59.9508516" lon="17.5470675">
        <ele>19.3638</ele>
        <time>2013-05-05T13:01:46Z</time>
      </trkpt>
      <trkpt lat="59.9507766" lon="17.5471167">
        <ele>19.3638</ele>
        <time>2013-05-05T13:01:47Z</time>
      </trkpt>
      <trkpt lat="59.9507025" lon="17.5471685">
        <ele>19.3638</ele>
        <time>2013-05-05T13:01:48Z</time>
      </trkpt>
      <trkpt lat="59.9506284" lon="17.5472191">
        <ele>18.8831</ele>
        <time>2013-05-05T13:01:49Z</time>
      </trkpt>
      <trkpt lat="59.9505553" lon="17.5472704">
        <ele>18.8831</ele>
        <time>2013-05-05T13:01:50Z</time>
      </trkpt>
      <trkpt lat="59.9504836" lon="17.5473289">
        <ele>18.8831</ele>
        <time>2013-05-05T13:01:51Z</time>
      </trkpt>
      <trkpt lat="59.9504124" lon="17.5473957">
        <ele>18.8831</ele>
        <time>2013-05-05T13:01:52Z</time>
      </trkpt>
      <trkpt lat="59.9503422" lon="17.5474674">
        <ele>18.8831</ele>
        <time>2013-05-05T13:01:53Z</time>
      </trkpt>
      <trkpt lat="59.9502719" lon="17.5475394">
        <ele>18.8831</ele>
        <time>2013-05-05T13:01:54Z</time>
      </trkpt>
      <trkpt lat="59.9502005" lon="17.5476088">
        <ele>18.8831</ele>
        <time>2013-05-05T13:01:55Z</time>
      </trkpt>
      <trkpt lat="59.950128" lon="17.5476741">
        <ele>19.3638</ele>
        <time>2013-05-05T13:01:56Z</time>
      </trkpt>
      <trkpt lat="59.9500548" lon="17.5477341">
        <ele>19.3638</ele>
        <time>2013-05-05T13:01:57Z</time>
      </trkpt>
      <trkpt lat="59.9499813" lon="17.5477884">
        <ele>19.8444</ele>
        <time>2013-05-05T13:01:58Z</time>
      </trkpt>
      <trkpt lat="59.9499073" lon="17.5478367">
        <ele>19.8444</ele>
        <time>2013-05-05T13:01:59Z</time>
      </trkpt>
      <trkpt lat="59.9498327" lon="17.5478787">
        <ele>20.325</ele>
        <time>2013-05-05T13:02:00Z</time>
      </trkpt>
      <trkpt lat="59.9497575" lon="17.5479139">
        <ele>20.325</ele>
        <time>2013-05-05T13:02:01Z</time>
      </trkpt>
      <trkpt lat="59.9496823" lon="17.5479419">
        <ele>20.8057</ele>
        <time>2013-05-05T13:02:02Z</time>
      </trkpt>
      <trkpt lat="59.9496074" lon="17.5479629">
        <ele>21.2864</ele>
        <time>2013-05-05T13:02:03Z</time>
      </trkpt>
      <trkpt lat="59.9495319" lon="17.547976">
        <ele>21.2864</ele>
        <time>2013-05-05T13:02:04Z</time>
      </trkpt>
      <trkpt lat="59.9494562" lon="17.5479813">
        <ele>21.767</ele>
        <time>2013-05-05T13:02:05Z</time>
      </trkpt>
      <trkpt lat="59.9493805" lon="17.5479787">
        <ele>22.2476</ele>
        <time>2013-05-05T13:02:06Z</time>
      </trkpt>
      <trkpt lat="59.9493054" lon="17.5479704">
        <ele>22.2476</ele>
        <time>2013-05-05T13:02:07Z</time>
      </trkpt>
      <trkpt lat="59.9492311" lon="17.5479563">
        <ele>22.7283</ele>
        <time>2013-05-05T13:02:08Z</time>
      </trkpt>
      <trkpt lat="59.9491571" lon="17.5479356">
        <ele>23.209</ele>
        <time>2013-05-05T13:02:09Z</time>
      </trkpt>
      <trkpt lat="59.9490831" lon="17.5479092">
        <ele>23.209</ele>
        <time>2013-05-05T13:02:10Z</time>
      </trkpt>
      <trkpt lat="59.9490091" lon="17.5478774">
        <ele>23.6896</ele>
        <time>2013-05-05T13:02:11Z</time>
      </trkpt>
      <trkpt lat="59.948936" lon="17.5478377">
        <ele>24.1703</ele>
        <time>2013-05-05T13:02:12Z</time>
      </trkpt>
      <trkpt lat="59.9488646" lon="17.5477922">
        <ele>24.651</ele>
        <time>2013-05-05T13:02:13Z</time>
      </trkpt>
      <trkpt lat="59.9487941" lon="17.5477393">
        <ele>24.651</ele>
        <time>2013-05-05T13:02:14Z</time>
      </trkpt>
      <trkpt lat="59.9487247" lon="17.5476827">
        <ele>24.651</ele>
        <time>2013-05-05T13:02:15Z</time>
      </trkpt>
      <trkpt lat="59.9486574" lon="17.54762">
        <ele>25.1317</ele>
        <time>2013-05-05T13:02:16Z</time>
      </trkpt>
      <trkpt lat="59.9485927" lon="17.5475505">
        <ele>25.1317</ele>
        <time>2013-05-05T13:02:17Z</time>
      </trkpt>
      <trkpt lat="59.948529" lon="17.5474775">
        <ele>25.1317</ele>
        <time>2013-05-05T13:02:18Z</time>
      </trkpt>
      <trkpt lat="59.9484665" lon="17.5474015">
        <ele>25.1317</ele>
        <time>2013-05-05T13:02:19Z</time>
      </trkpt>
      <trkpt lat="59.948405" lon="17.5473209">
        <ele>25.1317</ele>
        <time>2013-05-05T13:02:20Z</time>
      </trkpt>
      <trkpt lat="59.9483437" lon="17.5472399">
        <ele>25.1317</ele>
        <time>2013-05-05T13:02:21Z</time>
      </trkpt>
      <trkpt lat="59.9482848" lon="17.5471524">
        <ele>25.1317</ele>
        <time>2013-05-05T13:02:22Z</time>
      </trkpt>
      <trkpt lat="59.9482279" lon="17.5470561">
        <ele>25.1317</ele>
        <time>2013-05-05T13:02:23Z</time>
      </trkpt>
      <trkpt lat="59.9481735" lon="17.5469528">
        <ele>25.1317</ele>
        <time>2013-05-05T13:02:24Z</time>
      </trkpt>
      <trkpt lat="59.9481212" lon="17.5468467">
        <ele>25.1317</ele>
        <time>2013-05-05T13:02:25Z</time>
      </trkpt>
      <trkpt lat="59.9480694" lon="17.5467395">
        <ele>25.1317</ele>
        <time>2013-05-05T13:02:26Z</time>
      </trkpt>
      <trkpt lat="59.9480174" lon="17.5466333">
        <ele>25.1317</ele>
        <time>2013-05-05T13:02:27Z</time>
      </trkpt>
      <trkpt lat="59.9479643" lon="17.5465298">
        <ele>25.6123</ele>
        <time>2013-05-05T13:02:28Z</time>
      </trkpt>
      <trkpt lat="59.9479118" lon="17.5464255">
        <ele>25.6123</ele>
        <time>2013-05-05T13:02:29Z</time>
      </trkpt>
      <trkpt lat="59.9478595" lon="17.5463219">
        <ele>25.6123</ele>
        <time>2013-05-05T13:02:30Z</time>
      </trkpt>
      <trkpt lat="59.9478055" lon="17.5462209">
        <ele>25.6123</ele>
        <time>2013-05-05T13:02:31Z</time>
      </trkpt>
      <trkpt lat="59.9477517" lon="17.5461193">
        <ele>25.6123</ele>
        <time>2013-05-05T13:02:32Z</time>
      </trkpt>
      <trkpt lat="59.9476975" lon="17.5460205">
        <ele>25.6123</ele>
        <time>2013-05-05T13:02:33Z</time>
      </trkpt>
      <trkpt lat="59.9476442" lon="17.5459258">
        <ele>25.6123</ele>
        <time>2013-05-05T13:02:34Z</time>
      </trkpt>
      <trkpt lat="59.9475934" lon="17.545832">
        <ele>26.0929</ele>
        <time>2013-05-05T13:02:35Z</time>
      </trkpt>
      <trkpt lat="59.9475442" lon="17.5457368">
        <ele>26.0929</ele>
        <time>2013-05-05T13:02:36Z</time>
      </trkpt>
      <trkpt lat="59.9474964" lon="17.5456415">
        <ele>26.0929</ele>
        <time>2013-05-05T13:02:37Z</time>
      </trkpt>
      <trkpt lat="59.9474486" lon="17.545548">
        <ele>26.0929</ele>
        <time>2013-05-05T13:02:38Z</time>
      </trkpt>
      <trkpt lat="59.9474" lon="17.5454566">
        <ele>26.0929</ele>
        <time>2013-05-05T13:02:39Z</time>
      </trkpt>
      <trkpt lat="59.947351" lon="17.5453667">
        <ele>26.5736</ele>
        <time>2013-05-05T13:02:40Z</time>
      </trkpt>
      <trkpt lat="59.9473011" lon="17.545278">
        <ele>26.5736</ele>
        <time>2013-05-05T13:02:41Z</time>
      </trkpt>
      <trkpt lat="59.9472494" lon="17.5451908">
        <ele>26.5736</ele>
        <time>2013-05-05T13:02:42Z</time>
      </trkpt>
      <trkpt lat="59.947196" lon="17.545104">
        <ele>26.5736</ele>
        <time>2013-05-05T13:02:43Z</time>
      </trkpt>
      <trkpt lat="59.9471399" lon="17.5450191">
        <ele>26.5736</ele>
        <time>2013-05-05T13:02:44Z</time>
      </trkpt>
      <trkpt lat="59.9470826" lon="17.5449347">
        <ele>26.5736</ele>
        <time>2013-05-05T13:02:45Z</time>
      </trkpt>
      <trkpt lat="59.9470228" lon="17.5448535">
        <ele>26.5736</ele>
        <time>2013-05-05T13:02:46Z</time>
      </trkpt>
      <trkpt lat="59.9469629" lon="17.5447714">
        <ele>26.5736</ele>
        <time>2013-05-05T13:02:47Z</time>
      </trkpt>
      <trkpt lat="59.9469009" lon="17.5446916">
        <ele>26.5736</ele>
        <time>2013-05-05T13:02:48Z</time>
      </trkpt>
      <trkpt lat="59.9468365" lon="17.5446182">
        <ele>26.0929</ele>
        <time>2013-05-05T13:02:49Z</time>
      </trkpt>
      <trkpt lat="59.9467702" lon="17.5445488">
        <ele>26.0929</ele>
        <time>2013-05-05T13:02:50Z</time>
      </trkpt>
      <trkpt lat="59.9467038" lon="17.544481">
        <ele>26.0929</ele>
        <time>2013-05-05T13:02:51Z</time>
      </trkpt>
      <trkpt lat="59.9466357" lon="17.5444145">
        <ele>26.0929</ele>
        <time>2013-05-05T13:02:52Z</time>
      </trkpt>
      <trkpt lat="59.946566" lon="17.5443515">
        <ele>26.0929</ele>
        <time>2013-05-05T13:02:53Z</time>
      </trkpt>
      <trkpt lat="59.9464948" lon="17.5442952">
        <ele>26.0929</ele>
        <time>2013-05-05T13:02:54Z</time>
      </trkpt>
      <trkpt lat="59.9464226" lon="17.5442449">
        <ele>26.5736</ele>
        <time>2013-05-05T13:02:55Z</time>
      </trkpt>
      <trkpt lat="59.9463499" lon="17.5441985">
        <ele>26.5736</ele>
        <time>2013-05-05T13:02:56Z</time>
      </trkpt>
      <trkpt lat="59.9462771" lon="17.5441557">
        <ele>26.5736</ele>
        <time>2013-05-05T13:02:57Z</time>
      </trkpt>
      <trkpt lat="59.9462034" lon="17.5441201">
        <ele>26.5736</ele>
        <time>2013-05-05T13:02:58Z</time>
      </trkpt>
      <trkpt lat="59.9461282" lon="17.5440916">
        <ele>27.0543</ele>
        <time>2013-05-05T13:02:59Z</time>
      </trkpt>
      <trkpt lat="59.9460523" lon="17.5440708">
        <ele>27.5349</ele>
        <time>2013-05-05T13:03:00Z</time>
      </trkpt>
      <trkpt lat="59.9459771" lon="17.5440568">
        <ele>28.0155</ele>
        <time>2013-05-05T13:03:01Z</time>
      </trkpt>
      <trkpt lat="59.945902" lon="17.5440444">
        <ele>28.0155</ele>
        <time>2013-05-05T13:03:02Z</time>
      </trkpt>
      <trkpt lat="59.9458273" lon="17.5440346">
        <ele>28.4962</ele>
        <time>2013-05-05T13:03:03Z</time>
      </trkpt>
      <trkpt lat="59.9457528" lon="17.5440258">
        <ele>28.4962</ele>
        <time>2013-05-05T13:03:04Z</time>
      </trkpt>
      <trkpt lat="59.9456787" lon="17.544019">
        <ele>28.4962</ele>
        <time>2013-05-05T13:03:05Z</time>
      </trkpt>
      <trkpt lat="59.9456048" lon="17.5440186">
        <ele>28.9769</ele>
        <time>2013-05-05T13:03:06Z</time>
      </trkpt>
      <trkpt lat="59.9455331" lon="17.5440203">
        <ele>28.9769</ele>
        <time>2013-05-05T13:03:07Z</time>
      </trkpt>
      <trkpt lat="59.9454632" lon="17.5440148">
        <ele>28.4962</ele>
        <time>2013-05-05T13:03:08Z</time>
      </trkpt>
      <trkpt lat="59.9453958" lon="17.544007">
        <ele>28.4962</ele>
        <time>2013-05-05T13:03:09Z</time>
      </trkpt>
      <trkpt lat="59.9453307" lon="17.5440055">
        <ele>28.0155</ele>
        <time>2013-05-05T13:03:10Z</time>
      </trkpt>
      <trkpt lat="59.9452671" lon="17.5440077">
        <ele>28.0155</ele>
        <time>2013-05-05T13:03:11Z</time>
      </trkpt>
      <trkpt lat="59.9452048" lon="17.5440089">
        <ele>27.5349</ele>
        <time>2013-05-05T13:03:12Z</time>
      </trkpt>
      <trkpt lat="59.9451432" lon="17.544007">
        <ele>27.5349</ele>
        <time>2013-05-05T13:03:13Z</time>
      </trkpt>
      <trkpt lat="59.9450827" lon="17.5440014">
        <ele>27.5349</ele>
        <time>2013-05-05T13:03:14Z</time>
      </trkpt>
      <trkpt lat="59.9450207" lon="17.5439989">
        <ele>27.5349</ele>
        <time>2013-05-05T13:03:15Z</time>
      </trkpt>
      <trkpt lat="59.9449562" lon="17.5440009">
        <ele>27.5349</ele>
        <time>2013-05-05T13:03:16Z</time>
      </trkpt>
      <trkpt lat="59.9448908" lon="17.5440044">
        <ele>28.0155</ele>
        <time>2013-05-05T13:03:17Z</time>
      </trkpt>
      <trkpt lat="59.9448246" lon="17.5440081">
        <ele>28.0155</ele>
        <time>2013-05-05T13:03:18Z</time>
      </trkpt>
      <trkpt lat="59.9447596" lon="17.5440159">
        <ele>28.0155</ele>
        <time>2013-05-05T13:03:19Z</time>
      </trkpt>
      <trkpt lat="59.9446956" lon="17.5440229">
        <ele>28.4962</ele>
        <time>2013-05-05T13:03:20Z</time>
      </trkpt>
      <trkpt lat="59.9446313" lon="17.5440209">
        <ele>28.4962</ele>
        <time>2013-05-05T13:03:21Z</time>
      </trkpt>
      <trkpt lat="59.9445665" lon="17.5440125">
        <ele>28.4962</ele>
        <time>2013-05-05T13:03:22Z</time>
      </trkpt>
      <trkpt lat="59.9445006" lon="17.5440059">
        <ele>28.9769</ele>
        <time>2013-05-05T13:03:23Z</time>
      </trkpt>
      <trkpt lat="59.9444335" lon="17.5440024">
        <ele>28.9769</ele>
        <time>2013-05-05T13:03:24Z</time>
      </trkpt>
      <trkpt lat="59.9443641" lon="17.5440032">
        <ele>28.9769</ele>
        <time>2013-05-05T13:03:25Z</time>
      </trkpt>
      <trkpt lat="59.9442935" lon="17.5440038">
        <ele>28.9769</ele>
        <time>2013-05-05T13:03:26Z</time>
      </trkpt>
      <trkpt lat="59.9442216" lon="17.5440033">
        <ele>29.4575</ele>
        <time>2013-05-05T13:03:27Z</time>
      </trkpt>
      <trkpt lat="59.944149" lon="17.5439983">
        <ele>29.4575</ele>
        <time>2013-05-05T13:03:28Z</time>
      </trkpt>
      <trkpt lat="59.9440771" lon="17.5439921">
        <ele>29.4575</ele>
        <time>2013-05-05T13:03:29Z</time>
      </trkpt>
      <trkpt lat="59.9440065" lon="17.543991">
        <ele>29.4575</ele>
        <time>2013-05-05T13:03:30Z</time>
      </trkpt>
      <trkpt lat="59.9439363" lon="17.5439889">
        <ele>29.4575</ele>
        <time>2013-05-05T13:03:31Z</time>
      </trkpt>
      <trkpt lat="59.9438673" lon="17.5439775">
        <ele>29.4575</ele>
        <time>2013-05-05T13:03:32Z</time>
      </trkpt>
      <trkpt lat="59.9437982" lon="17.543961">
        <ele>29.9381</ele>
        <time>2013-05-05T13:03:33Z</time>
      </trkpt>
      <trkpt lat="59.9437285" lon="17.5439454">
        <ele>29.9381</ele>
        <time>2013-05-05T13:03:34Z</time>
      </trkpt>
      <trkpt lat="59.9436585" lon="17.543931">
        <ele>29.9381</ele>
        <time>2013-05-05T13:03:35Z</time>
      </trkpt>
      <trkpt lat="59.9435881" lon="17.5439136">
        <ele>29.9381</ele>
        <time>2013-05-05T13:03:36Z</time>
      </trkpt>
      <trkpt lat="59.9435181" lon="17.5438908">
        <ele>29.9381</ele>
        <time>2013-05-05T13:03:37Z</time>
      </trkpt>
      <trkpt lat="59.9434472" lon="17.5438672">
        <ele>29.9381</ele>
        <time>2013-05-05T13:03:38Z</time>
      </trkpt>
      <trkpt lat="59.9433752" lon="17.5438448">
        <ele>30.4188</ele>
        <time>2013-05-05T13:03:39Z</time>
      </trkpt>
      <trkpt lat="59.9433032" lon="17.5438183">
        <ele>30.4188</ele>
        <time>2013-05-05T13:03:40Z</time>
      </trkpt>
      <trkpt lat="59.9432313" lon="17.5437859">
        <ele>30.4188</ele>
        <time>2013-05-05T13:03:41Z</time>
      </trkpt>
      <trkpt lat="59.9431597" lon="17.5437497">
        <ele>30.8995</ele>
        <time>2013-05-05T13:03:42Z</time>
      </trkpt>
      <trkpt lat="59.9430882" lon="17.5437126">
        <ele>30.8995</ele>
        <time>2013-05-05T13:03:43Z</time>
      </trkpt>
      <trkpt lat="59.9430168" lon="17.5436749">
        <ele>30.8995</ele>
        <time>2013-05-05T13:03:44Z</time>
      </trkpt>
      <trkpt lat="59.9429457" lon="17.5436349">
        <ele>30.8995</ele>
        <time>2013-05-05T13:03:45Z</time>
      </trkpt>
      <trkpt lat="59.9428749" lon="17.5435921">
        <ele>30.8995</ele>
        <time>2013-05-05T13:03:46Z</time>
      </trkpt>
      <trkpt lat="59.9428044" lon="17.5435486">
        <ele>30.8995</ele>
        <time>2013-05-05T13:03:47Z</time>
      </trkpt>
      <trkpt lat="59.9427342" lon="17.5435025">
        <ele>30.8995</ele>
        <time>2013-05-05T13:03:48Z</time>
      </trkpt>
      <trkpt lat="59.9426645" lon="17.5434537">
        <ele>30.8995</ele>
        <time>2013-05-05T13:03:49Z</time>
      </trkpt>
      <trkpt lat="59.9425956" lon="17.5433997">
        <ele>30.8995</ele>
        <time>2013-05-05T13:03:50Z</time>
      </trkpt>
      <trkpt lat="59.942527" lon="17.5433415">
        <ele>30.8995</ele>
        <time>2013-05-05T13:03:51Z</time>
      </trkpt>
      <trkpt lat="59.9424582" lon="17.5432829">
        <ele>30.8995</ele>
        <time>2013-05-05T13:03:52Z</time>
      </trkpt>
      <trkpt lat="59.9423903" lon="17.5432232">
        <ele>30.8995</ele>
        <time>2013-05-05T13:03:53Z</time>
      </trkpt>
      <trkpt lat="59.9423231" lon="17.5431626">
        <ele>30.8995</ele>
        <time>2013-05-05T13:03:54Z</time>
      </trkpt>
      <trkpt lat="59.9422571" lon="17.5431026">
        <ele>30.8995</ele>
        <time>2013-05-05T13:03:55Z</time>
      </trkpt>
      <trkpt lat="59.9421934" lon="17.5430441">
        <ele>30.8995</ele>
        <time>2013-05-05T13:03:56Z</time>
      </trkpt>
      <trkpt lat="59.9421305" lon="17.5429902">
        <ele>30.8995</ele>
        <time>2013-05-05T13:03:57Z</time>
      </trkpt>
      <trkpt lat="59.9420683" lon="17.5429395">
        <ele>30.8995</ele>
        <time>2013-05-05T13:03:58Z</time>
      </trkpt>
      <trkpt lat="59.9420078" lon="17.5428871">
        <ele>30.8995</ele>
        <time>2013-05-05T13:03:59Z</time>
      </trkpt>
      <trkpt lat="59.9419497" lon="17.5428318">
        <ele>30.8995</ele>
        <time>2013-05-05T13:04:00Z</time>
      </trkpt>
      <trkpt lat="59.9418923" lon="17.5427766">
        <ele>30.8995</ele>
        <time>2013-05-05T13:04:01Z</time>
      </trkpt>
      <trkpt lat="59.9418348" lon="17.5427222">
        <ele>30.4188</ele>
        <time>2013-05-05T13:04:02Z</time>
      </trkpt>
      <trkpt lat="59.9417771" lon="17.5426648">
        <ele>30.4188</ele>
        <time>2013-05-05T13:04:03Z</time>
      </trkpt>
      <trkpt lat="59.9417222" lon="17.5425944">
        <ele>29.9381</ele>
        <time>2013-05-05T13:04:04Z</time>
      </trkpt>
      <trkpt lat="59.941673" lon="17.5425022">
        <ele>28.9769</ele>
        <time>2013-05-05T13:04:05Z</time>
      </trkpt>
      <trkpt lat="59.9416392" lon="17.5423934">
        <ele>28.9769</ele>
        <time>2013-05-05T13:04:06Z</time>
      </trkpt>
      <trkpt lat="59.9416275" lon="17.5422703">
        <ele>28.4962</ele>
        <time>2013-05-05T13:04:07Z</time>
      </trkpt>
      <trkpt lat="59.9416383" lon="17.54215">
        <ele>28.4962</ele>
        <time>2013-05-05T13:04:08Z</time>
      </trkpt>
      <trkpt lat="59.9416678" lon="17.5420407">
        <ele>28.9769</ele>
        <time>2013-05-05T13:04:09Z</time>
      </trkpt>
      <trkpt lat="59.9417089" lon="17.5419494">
        <ele>29.4575</ele>
        <time>2013-05-05T13:04:10Z</time>
      </trkpt>
      <trkpt lat="59.9417513" lon="17.5418599">
        <ele>28.9769</ele>
        <time>2013-05-05T13:04:11Z</time>
      </trkpt>
      <trkpt lat="59.9417943" lon="17.5417692">
        <ele>29.4575</ele>
        <time>2013-05-05T13:04:12Z</time>
      </trkpt>
      <trkpt lat="59.9418392" lon="17.5416781">
        <ele>29.4575</ele>
        <time>2013-05-05T13:04:13Z</time>
      </trkpt>
      <trkpt lat="59.9418853" lon="17.5415812">
        <ele>29.4575</ele>
        <time>2013-05-05T13:04:14Z</time>
      </trkpt>
      <trkpt lat="59.9419316" lon="17.5414807">
        <ele>29.4575</ele>
        <time>2013-05-05T13:04:15Z</time>
      </trkpt>
      <trkpt lat="59.9419781" lon="17.5413821">
        <ele>29.4575</ele>
        <time>2013-05-05T13:04:16Z</time>
      </trkpt>
      <trkpt lat="59.9420237" lon="17.5412828">
        <ele>29.9381</ele>
        <time>2013-05-05T13:04:17Z</time>
      </trkpt>
      <trkpt lat="59.9420686" lon="17.5411833">
        <ele>29.9381</ele>
        <time>2013-05-05T13:04:18Z</time>
      </trkpt>
      <trkpt lat="59.9421136" lon="17.5410822">
        <ele>29.9381</ele>
        <time>2013-05-05T13:04:19Z</time>
      </trkpt>
      <trkpt lat="59.9421588" lon="17.5409798">
        <ele>29.9381</ele>
        <time>2013-05-05T13:04:20Z</time>
      </trkpt>
      <trkpt lat="59.9422039" lon="17.5408788">
        <ele>29.9381</ele>
        <time>2013-05-05T13:04:21Z</time>
      </trkpt>
      <trkpt lat="59.9422486" lon="17.5407778">
        <ele>29.9381</ele>
        <time>2013-05-05T13:04:22Z</time>
      </trkpt>
      <trkpt lat="59.9422932" lon="17.5406773">
        <ele>29.9381</ele>
        <time>2013-05-05T13:04:23Z</time>
      </trkpt>
      <trkpt lat="59.9423372" lon="17.5405778">
        <ele>29.9381</ele>
        <time>2013-05-05T13:04:24Z</time>
      </trkpt>
      <trkpt lat="59.9423804" lon="17.5404774">
        <ele>29.9381</ele>
        <time>2013-05-05T13:04:25Z</time>
      </trkpt>
      <trkpt lat="59.9424231" lon="17.5403756">
        <ele>29.9381</ele>
        <time>2013-05-05T13:04:26Z</time>
      </trkpt>
      <trkpt lat="59.9424661" lon="17.5402743">
        <ele>29.9381</ele>
        <time>2013-05-05T13:04:27Z</time>
      </trkpt>
      <trkpt lat="59.9425096" lon="17.5401743">
        <ele>29.9381</ele>
        <time>2013-05-05T13:04:28Z</time>
      </trkpt>
      <trkpt lat="59.942552" lon="17.5400687">
        <ele>29.9381</ele>
        <time>2013-05-05T13:04:29Z</time>
      </trkpt>
      <trkpt lat="59.9425941" lon="17.5399597">
        <ele>29.9381</ele>
        <time>2013-05-05T13:04:30Z</time>
      </trkpt>
      <trkpt lat="59.9426365" lon="17.5398514">
        <ele>29.4575</ele>
        <time>2013-05-05T13:04:31Z</time>
      </trkpt>
      <trkpt lat="59.942678" lon="17.5397416">
        <ele>29.4575</ele>
        <time>2013-05-05T13:04:32Z</time>
      </trkpt>
      <trkpt lat="59.9427213" lon="17.5396317">
        <ele>29.4575</ele>
        <time>2013-05-05T13:04:33Z</time>
      </trkpt>
      <trkpt lat="59.9427627" lon="17.5395226">
        <ele>28.9769</ele>
        <time>2013-05-05T13:04:34Z</time>
      </trkpt>
      <trkpt lat="59.9428049" lon="17.5394126">
        <ele>28.9769</ele>
        <time>2013-05-05T13:04:35Z</time>
      </trkpt>
      <trkpt lat="59.9428459" lon="17.5393009">
        <ele>28.9769</ele>
        <time>2013-05-05T13:04:36Z</time>
      </trkpt>
      <trkpt lat="59.9428858" lon="17.5391884">
        <ele>28.9769</ele>
        <time>2013-05-05T13:04:37Z</time>
      </trkpt>
      <trkpt lat="59.9429251" lon="17.5390746">
        <ele>28.4962</ele>
        <time>2013-05-05T13:04:38Z</time>
      </trkpt>
      <trkpt lat="59.9429638" lon="17.5389589">
        <ele>28.4962</ele>
        <time>2013-05-05T13:04:39Z</time>
      </trkpt>
      <trkpt lat="59.9430013" lon="17.5388435">
        <ele>28.0155</ele>
        <time>2013-05-05T13:04:40Z</time>
      </trkpt>
      <trkpt lat="59.943038" lon="17.538724">
        <ele>28.0155</ele>
        <time>2013-05-05T13:04:41Z</time>
      </trkpt>
      <trkpt lat="59.9430743" lon="17.5386052">
        <ele>28.0155</ele>
        <time>2013-05-05T13:04:42Z</time>
      </trkpt>
      <trkpt lat="59.94311" lon="17.5384871">
        <ele>28.0155</ele>
        <time>2013-05-05T13:04:43Z</time>
      </trkpt>
      <trkpt lat="59.9431441" lon="17.5383668">
        <ele>28.0155</ele>
        <time>2013-05-05T13:04:44Z</time>
      </trkpt>
      <trkpt lat="59.9431797" lon="17.5382456">
        <ele>27.5349</ele>
        <time>2013-05-05T13:04:45Z</time>
      </trkpt>
      <trkpt lat="59.9432187" lon="17.5381272">
        <ele>28.0155</ele>
        <time>2013-05-05T13:04:46Z</time>
      </trkpt>
      <trkpt lat="59.9432553" lon="17.5380038">
        <ele>28.0155</ele>
        <time>2013-05-05T13:04:47Z</time>
      </trkpt>
      <trkpt lat="59.9432891" lon="17.5378774">
        <ele>28.0155</ele>
        <time>2013-05-05T13:04:48Z</time>
      </trkpt>
      <trkpt lat="59.9433208" lon="17.5377521">
        <ele>28.0155</ele>
        <time>2013-05-05T13:04:49Z</time>
      </trkpt>
      <trkpt lat="59.9433517" lon="17.5376242">
        <ele>28.0155</ele>
        <time>2013-05-05T13:04:50Z</time>
      </trkpt>
      <trkpt lat="59.9433829" lon="17.5374791">
        <ele>28.4962</ele>
        <time>2013-05-05T13:04:51Z</time>
      </trkpt>
      <trkpt lat="59.9434204" lon="17.5373264">
        <ele>28.9769</ele>
        <time>2013-05-05T13:04:52Z</time>
      </trkpt>
      <trkpt lat="59.9434528" lon="17.5371869">
        <ele>29.4575</ele>
        <time>2013-05-05T13:04:53Z</time>
      </trkpt>
      <trkpt lat="59.9434834" lon="17.5370548">
        <ele>29.4575</ele>
        <time>2013-05-05T13:04:54Z</time>
      </trkpt>
      <trkpt lat="59.9435114" lon="17.5369259">
        <ele>29.9381</ele>
        <time>2013-05-05T13:04:55Z</time>
      </trkpt>
      <trkpt lat="59.9435368" lon="17.5367979">
        <ele>29.9381</ele>
        <time>2013-05-05T13:04:56Z</time>
      </trkpt>
      <trkpt lat="59.943561" lon="17.5366705">
        <ele>29.9381</ele>
        <time>2013-05-05T13:04:57Z</time>
      </trkpt>
      <trkpt lat="59.9435856" lon="17.5365466">
        <ele>30.4188</ele>
        <time>2013-05-05T13:04:58Z</time>
      </trkpt>
      <trkpt lat="59.9436093" lon="17.5364234">
        <ele>30.4188</ele>
        <time>2013-05-05T13:04:59Z</time>
      </trkpt>
      <trkpt lat="59.9436321" lon="17.5363">
        <ele>30.8995</ele>
        <time>2013-05-05T13:05:00Z</time>
      </trkpt>
      <trkpt lat="59.9436534" lon="17.5361766">
        <ele>30.8995</ele>
        <time>2013-05-05T13:05:01Z</time>
      </trkpt>
      <trkpt lat="59.9436734" lon="17.536053">
        <ele>30.8995</ele>
        <time>2013-05-05T13:05:02Z</time>
      </trkpt>
      <trkpt lat="59.9436929" lon="17.5359287">
        <ele>31.3801</ele>
        <time>2013-05-05T13:05:03Z</time>
      </trkpt>
      <trkpt lat="59.943714" lon="17.5358029">
        <ele>31.3801</ele>
        <time>2013-05-05T13:05:04Z</time>
      </trkpt>
      <trkpt lat="59.9437356" lon="17.5356762">
        <ele>31.8607</ele>
        <time>2013-05-05T13:05:05Z</time>
      </trkpt>
      <trkpt lat="59.9437569" lon="17.5355478">
        <ele>31.8607</ele>
        <time>2013-05-05T13:05:06Z</time>
      </trkpt>
      <trkpt lat="59.9437771" lon="17.535419">
        <ele>31.8607</ele>
        <time>2013-05-05T13:05:07Z</time>
      </trkpt>
      <trkpt lat="59.9437946" lon="17.5352903">
        <ele>31.8607</ele>
        <time>2013-05-05T13:05:08Z</time>
      </trkpt>
      <trkpt lat="59.9438133" lon="17.5351683">
        <ele>31.8607</ele>
        <time>2013-05-05T13:05:09Z</time>
      </trkpt>
      <trkpt lat="59.9438312" lon="17.5350495">
        <ele>32.3416</ele>
        <time>2013-05-05T13:05:10Z</time>
      </trkpt>
      <trkpt lat="59.9438497" lon="17.5349356">
        <ele>32.3416</ele>
        <time>2013-05-05T13:05:11Z</time>
      </trkpt>
      <trkpt lat="59.9438692" lon="17.5348253">
        <ele>32.3416</ele>
        <time>2013-05-05T13:05:12Z</time>
      </trkpt>
      <trkpt lat="59.943891" lon="17.5347175">
        <ele>31.8607</ele>
        <time>2013-05-05T13:05:13Z</time>
      </trkpt>
      <trkpt lat="59.9439196" lon="17.5346238">
        <ele>31.8607</ele>
        <time>2013-05-05T13:05:14Z</time>
      </trkpt>
      <trkpt lat="59.9439554" lon="17.5345555">
        <ele>31.3801</ele>
        <time>2013-05-05T13:05:15Z</time>
      </trkpt>
      <trkpt lat="59.9440051" lon="17.534506">
        <ele>31.3801</ele>
        <time>2013-05-05T13:05:16Z</time>
      </trkpt>
      <trkpt lat="59.9440609" lon="17.534486">
        <ele>31.8607</ele>
        <time>2013-05-05T13:05:17Z</time>
      </trkpt>
      <trkpt lat="59.944119" lon="17.534486">
        <ele>31.8607</ele>
        <time>2013-05-05T13:05:18Z</time>
      </trkpt>
      <trkpt lat="59.9441772" lon="17.5344924">
        <ele>32.3416</ele>
        <time>2013-05-05T13:05:19Z</time>
      </trkpt>
      <trkpt lat="59.9442361" lon="17.5344975">
        <ele>32.8223</ele>
        <time>2013-05-05T13:05:20Z</time>
      </trkpt>
      <trkpt lat="59.9442951" lon="17.5345035">
        <ele>32.8223</ele>
        <time>2013-05-05T13:05:21Z</time>
      </trkpt>
      <trkpt lat="59.9443538" lon="17.5345062">
        <ele>32.8223</ele>
        <time>2013-05-05T13:05:22Z</time>
      </trkpt>
      <trkpt lat="59.9444157" lon="17.5345079">
        <ele>32.8223</ele>
        <time>2013-05-05T13:05:23Z</time>
      </trkpt>
      <trkpt lat="59.9444778" lon="17.5345031">
        <ele>32.8223</ele>
        <time>2013-05-05T13:05:24Z</time>
      </trkpt>
      <trkpt lat="59.9445403" lon="17.5344902">
        <ele>32.8223</ele>
        <time>2013-05-05T13:05:25Z</time>
      </trkpt>
      <trkpt lat="59.9445998" lon="17.5344677">
        <ele>31.3801</ele>
        <time>2013-05-05T13:05:26Z</time>
      </trkpt>
      <trkpt lat="59.9446588" lon="17.5344316">
        <ele>30.4188</ele>
        <time>2013-05-05T13:05:27Z</time>
      </trkpt>
      <trkpt lat="59.9447179" lon="17.5343937">
        <ele>29.4575</ele>
        <time>2013-05-05T13:05:28Z</time>
      </trkpt>
      <trkpt lat="59.9447805" lon="17.5343564">
        <ele>29.9381</ele>
        <time>2013-05-05T13:05:29Z</time>
      </trkpt>
      <trkpt lat="59.9448443" lon="17.5343134">
        <ele>30.4188</ele>
        <time>2013-05-05T13:05:30Z</time>
      </trkpt>
      <trkpt lat="59.944909" lon="17.5342705">
        <ele>30.8995</ele>
        <time>2013-05-05T13:05:31Z</time>
      </trkpt>
      <trkpt lat="59.9449712" lon="17.5342275">
        <ele>30.8995</ele>
        <time>2013-05-05T13:05:32Z</time>
      </trkpt>
      <trkpt lat="59.9450354" lon="17.5341813">
        <ele>30.8995</ele>
        <time>2013-05-05T13:05:33Z</time>
      </trkpt>
      <trkpt lat="59.9451013" lon="17.5341352">
        <ele>31.3801</ele>
        <time>2013-05-05T13:05:34Z</time>
      </trkpt>
      <trkpt lat="59.9451645" lon="17.5340986">
        <ele>31.3801</ele>
        <time>2013-05-05T13:05:35Z</time>
      </trkpt>
      <trkpt lat="59.9452292" lon="17.5340538">
        <ele>31.3801</ele>
        <time>2013-05-05T13:05:36Z</time>
      </trkpt>
      <trkpt lat="59.9452943" lon="17.5340067">
        <ele>31.3801</ele>
        <time>2013-05-05T13:05:37Z</time>
      </trkpt>
      <trkpt lat="59.945364" lon="17.5339544">
        <ele>32.3416</ele>
        <time>2013-05-05T13:05:38Z</time>
      </trkpt>
      <trkpt lat="59.945431" lon="17.5338996">
        <ele>31.8607</ele>
        <time>2013-05-05T13:05:39Z</time>
      </trkpt>
      <trkpt lat="59.9454997" lon="17.5338489">
        <ele>31.8607</ele>
        <time>2013-05-05T13:05:40Z</time>
      </trkpt>
      <trkpt lat="59.9455669" lon="17.533798">
        <ele>31.8607</ele>
        <time>2013-05-05T13:05:41Z</time>
      </trkpt>
      <trkpt lat="59.9456373" lon="17.5337386">
        <ele>32.8223</ele>
        <time>2013-05-05T13:05:42Z</time>
      </trkpt>
      <trkpt lat="59.9457042" lon="17.5336816">
        <ele>33.3029</ele>
        <time>2013-05-05T13:05:43Z</time>
      </trkpt>
      <trkpt lat="59.9457714" lon="17.5336246">
        <ele>34.2642</ele>
        <time>2013-05-05T13:05:44Z</time>
      </trkpt>
      <trkpt lat="59.9458342" lon="17.5335669">
        <ele>34.2642</ele>
        <time>2013-05-05T13:05:45Z</time>
      </trkpt>
      <trkpt lat="59.9458931" lon="17.5335065">
        <ele>33.3029</ele>
        <time>2013-05-05T13:05:46Z</time>
      </trkpt>
      <trkpt lat="59.9459528" lon="17.533438">
        <ele>33.7834</ele>
        <time>2013-05-05T13:05:47Z</time>
      </trkpt>
      <trkpt lat="59.9460063" lon="17.5333645">
        <ele>33.7834</ele>
        <time>2013-05-05T13:05:48Z</time>
      </trkpt>
      <trkpt lat="59.9460549" lon="17.5332857">
        <ele>33.3029</ele>
        <time>2013-05-05T13:05:49Z</time>
      </trkpt>
      <trkpt lat="59.9461044" lon="17.5331987">
        <ele>33.3029</ele>
        <time>2013-05-05T13:05:50Z</time>
      </trkpt>
      <trkpt lat="59.9461496" lon="17.5330981">
        <ele>32.3416</ele>
        <time>2013-05-05T13:05:51Z</time>
      </trkpt>
      <trkpt lat="59.9461916" lon="17.5329961">
        <ele>31.3801</ele>
        <time>2013-05-05T13:05:52Z</time>
      </trkpt>
      <trkpt lat="59.9462356" lon="17.5328849">
        <ele>30.8995</ele>
        <time>2013-05-05T13:05:53Z</time>
      </trkpt>
      <trkpt lat="59.9462791" lon="17.5327673">
        <ele>30.4188</ele>
        <time>2013-05-05T13:05:54Z</time>
      </trkpt>
      <trkpt lat="59.9463228" lon="17.5326458">
        <ele>29.9381</ele>
        <time>2013-05-05T13:05:55Z</time>
      </trkpt>
      <trkpt lat="59.946366" lon="17.5325222">
        <ele>28.4962</ele>
        <time>2013-05-05T13:05:56Z</time>
      </trkpt>
      <trkpt lat="59.9464093" lon="17.5323954">
        <ele>27.5349</ele>
        <time>2013-05-05T13:05:57Z</time>
      </trkpt>
      <trkpt lat="59.9464479" lon="17.5322809">
        <ele>24.1703</ele>
        <time>2013-05-05T13:05:58Z</time>
      </trkpt>
      <trkpt lat="59.9464986" lon="17.532171">
        <ele>22.7283</ele>
        <time>2013-05-05T13:05:59Z</time>
      </trkpt>
      <trkpt lat="59.9465554" lon="17.5320756">
        <ele>21.767</ele>
        <time>2013-05-05T13:06:00Z</time>
      </trkpt>
      <trkpt lat="59.946616" lon="17.5319929">
        <ele>21.2864</ele>
        <time>2013-05-05T13:06:01Z</time>
      </trkpt>
      <trkpt lat="59.9466821" lon="17.5319199">
        <ele>21.767</ele>
        <time>2013-05-05T13:06:02Z</time>
      </trkpt>
      <trkpt lat="59.9467526" lon="17.5318612">
        <ele>22.2476</ele>
        <time>2013-05-05T13:06:03Z</time>
      </trkpt>
      <trkpt lat="59.9468246" lon="17.5318172">
        <ele>22.2476</ele>
        <time>2013-05-05T13:06:04Z</time>
      </trkpt>
      <trkpt lat="59.9468992" lon="17.5317811">
        <ele>22.2476</ele>
        <time>2013-05-05T13:06:05Z</time>
      </trkpt>
      <trkpt lat="59.9469749" lon="17.5317565">
        <ele>22.2476</ele>
        <time>2013-05-05T13:06:06Z</time>
      </trkpt>
      <trkpt lat="59.9470513" lon="17.5317389">
        <ele>21.767</ele>
        <time>2013-05-05T13:06:07Z</time>
      </trkpt>
      <trkpt lat="59.9471272" lon="17.5317209">
        <ele>21.2864</ele>
        <time>2013-05-05T13:06:08Z</time>
      </trkpt>
      <trkpt lat="59.9472024" lon="17.5317007">
        <ele>21.2864</ele>
        <time>2013-05-05T13:06:09Z</time>
      </trkpt>
      <trkpt lat="59.9472768" lon="17.5316806">
        <ele>21.2864</ele>
        <time>2013-05-05T13:06:10Z</time>
      </trkpt>
      <trkpt lat="59.947351" lon="17.5316616">
        <ele>20.8057</ele>
        <time>2013-05-05T13:06:11Z</time>
      </trkpt>
      <trkpt lat="59.9474286" lon="17.531642">
        <ele>21.767</ele>
        <time>2013-05-05T13:06:12Z</time>
      </trkpt>
      <trkpt lat="59.9475048" lon="17.5316229">
        <ele>22.7283</ele>
        <time>2013-05-05T13:06:13Z</time>
      </trkpt>
      <trkpt lat="59.947579" lon="17.5316043">
        <ele>23.6896</ele>
        <time>2013-05-05T13:06:14Z</time>
      </trkpt>
      <trkpt lat="59.947651" lon="17.5315841">
        <ele>24.1703</ele>
        <time>2013-05-05T13:06:15Z</time>
      </trkpt>
      <trkpt lat="59.9477212" lon="17.5315646">
        <ele>25.1317</ele>
        <time>2013-05-05T13:06:16Z</time>
      </trkpt>
      <trkpt lat="59.9477888" lon="17.531548">
        <ele>25.6123</ele>
        <time>2013-05-05T13:06:17Z</time>
      </trkpt>
      <trkpt lat="59.9478533" lon="17.5315291">
        <ele>26.0929</ele>
        <time>2013-05-05T13:06:18Z</time>
      </trkpt>
      <trkpt lat="59.9479136" lon="17.5315074">
        <ele>26.5736</ele>
        <time>2013-05-05T13:06:19Z</time>
      </trkpt>
      <trkpt lat="59.9479688" lon="17.5314829">
        <ele>27.0543</ele>
        <time>2013-05-05T13:06:20Z</time>
      </trkpt>
      <trkpt lat="59.9480202" lon="17.5314496">
        <ele>27.0543</ele>
        <time>2013-05-05T13:06:21Z</time>
      </trkpt>
      <trkpt lat="59.9480694" lon="17.5314143">
        <ele>27.0543</ele>
        <time>2013-05-05T13:06:22Z</time>
      </trkpt>
      <trkpt lat="59.9481186" lon="17.5314027">
        <ele>26.5736</ele>
        <time>2013-05-05T13:06:23Z</time>
      </trkpt>
      <trkpt lat="59.9481678" lon="17.5314164">
        <ele>26.5736</ele>
        <time>2013-05-05T13:06:24Z</time>
      </trkpt>
      <trkpt lat="59.9482155" lon="17.5314541">
        <ele>27.5349</ele>
        <time>2013-05-05T13:06:25Z</time>
      </trkpt>
      <trkpt lat="59.9482568" lon="17.531507">
        <ele>28.4962</ele>
        <time>2013-05-05T13:06:26Z</time>
      </trkpt>
      <trkpt lat="59.948289" lon="17.53158">
        <ele>28.4962</ele>
        <time>2013-05-05T13:06:27Z</time>
      </trkpt>
      <trkpt lat="59.9483194" lon="17.5316635">
        <ele>28.4962</ele>
        <time>2013-05-05T13:06:28Z</time>
      </trkpt>
      <trkpt lat="59.9483486" lon="17.5317567">
        <ele>29.4575</ele>
        <time>2013-05-05T13:06:29Z</time>
      </trkpt>
      <trkpt lat="59.9483696" lon="17.5318633">
        <ele>30.4188</ele>
        <time>2013-05-05T13:06:30Z</time>
      </trkpt>
      <trkpt lat="59.9483831" lon="17.531975">
        <ele>30.8995</ele>
        <time>2013-05-05T13:06:31Z</time>
      </trkpt>
      <trkpt lat="59.9483878" lon="17.5320906">
        <ele>31.3801</ele>
        <time>2013-05-05T13:06:32Z</time>
      </trkpt>
      <trkpt lat="59.9483883" lon="17.5322095">
        <ele>31.3801</ele>
        <time>2013-05-05T13:06:33Z</time>
      </trkpt>
      <trkpt lat="59.9483817" lon="17.5323285">
        <ele>31.3801</ele>
        <time>2013-05-05T13:06:34Z</time>
      </trkpt>
      <trkpt lat="59.9483707" lon="17.5324552">
        <ele>31.3801</ele>
        <time>2013-05-05T13:06:35Z</time>
      </trkpt>
      <trkpt lat="59.9483605" lon="17.5325909">
        <ele>31.3801</ele>
        <time>2013-05-05T13:06:36Z</time>
      </trkpt>
      <trkpt lat="59.9483593" lon="17.5327272">
        <ele>31.8607</ele>
        <time>2013-05-05T13:06:37Z</time>
      </trkpt>
      <trkpt lat="59.9483508" lon="17.5328724">
        <ele>30.8995</ele>
        <time>2013-05-05T13:06:38Z</time>
      </trkpt>
      <trkpt lat="59.9483453" lon="17.5330107">
        <ele>29.4575</ele>
        <time>2013-05-05T13:06:39Z</time>
      </trkpt>
      <trkpt lat="59.9483549" lon="17.5331459">
        <ele>29.9381</ele>
        <time>2013-05-05T13:06:40Z</time>
      </trkpt>
      <trkpt lat="59.9483583" lon="17.5332785">
        <ele>29.9381</ele>
        <time>2013-05-05T13:06:41Z</time>
      </trkpt>
      <trkpt lat="59.9483579" lon="17.5334063">
        <ele>29.9381</ele>
        <time>2013-05-05T13:06:42Z</time>
      </trkpt>
      <trkpt lat="59.9483579" lon="17.5335316">
        <ele>29.9381</ele>
        <time>2013-05-05T13:06:43Z</time>
      </trkpt>
      <trkpt lat="59.9483554" lon="17.5336422">
        <ele>29.9381</ele>
        <time>2013-05-05T13:06:44Z</time>
      </trkpt>
      <trkpt lat="59.9483563" lon="17.5337442">
        <ele>29.4575</ele>
        <time>2013-05-05T13:06:45Z</time>
      </trkpt>
      <trkpt lat="59.9483599" lon="17.5338262">
        <ele>28.4962</ele>
        <time>2013-05-05T13:06:46Z</time>
      </trkpt>
      <trkpt lat="59.9484014" lon="17.5338353">
        <ele>26.5736</ele>
        <time>2013-05-05T13:06:47Z</time>
      </trkpt>
      <trkpt lat="59.9484453" lon="17.5338141">
        <ele>26.5736</ele>
        <time>2013-05-05T13:06:48Z</time>
      </trkpt>
      <trkpt lat="59.9484839" lon="17.5337945">
        <ele>26.0929</ele>
        <time>2013-05-05T13:06:49Z</time>
      </trkpt>
      <trkpt lat="59.9485302" lon="17.5337964">
        <ele>25.6123</ele>
        <time>2013-05-05T13:06:50Z</time>
      </trkpt>
      <trkpt lat="59.9485732" lon="17.5337834">
        <ele>24.1703</ele>
        <time>2013-05-05T13:06:51Z</time>
      </trkpt>
      <trkpt lat="59.9486202" lon="17.5337647">
        <ele>22.7283</ele>
        <time>2013-05-05T13:06:52Z</time>
      </trkpt>
      <trkpt lat="59.9486626" lon="17.5337145">
        <ele>21.2864</ele>
        <time>2013-05-05T13:06:53Z</time>
      </trkpt>
      <trkpt lat="59.9487054" lon="17.5336409">
        <ele>21.767</ele>
        <time>2013-05-05T13:06:54Z</time>
      </trkpt>
      <trkpt lat="59.9487528" lon="17.5335487">
        <ele>22.2476</ele>
        <time>2013-05-05T13:06:55Z</time>
      </trkpt>
      <trkpt lat="59.9488098" lon="17.5334588">
        <ele>25.6123</ele>
        <time>2013-05-05T13:06:56Z</time>
      </trkpt>
      <trkpt lat="59.948848" lon="17.5333739">
        <ele>25.1317</ele>
        <time>2013-05-05T13:06:57Z</time>
      </trkpt>
      <trkpt lat="59.9488888" lon="17.5332939">
        <ele>25.1317</ele>
        <time>2013-05-05T13:06:58Z</time>
      </trkpt>
      <trkpt lat="59.9489261" lon="17.5332281">
        <ele>24.651</ele>
        <time>2013-05-05T13:06:59Z</time>
      </trkpt>
      <trkpt lat="59.9489562" lon="17.5331759">
        <ele>24.1703</ele>
        <time>2013-05-05T13:07:00Z</time>
      </trkpt>
      <trkpt lat="59.948983" lon="17.53314">
        <ele>23.6896</ele>
        <time>2013-05-05T13:07:01Z</time>
      </trkpt>
      <trkpt lat="59.9490123" lon="17.5331283">
        <ele>24.1703</ele>
        <time>2013-05-05T13:07:02Z</time>
      </trkpt>
      <trkpt lat="59.9490255" lon="17.5331224">
        <ele>24.651</ele>
        <time>2013-05-05T13:07:03Z</time>
      </trkpt>
      <trkpt lat="59.9490276" lon="17.5331206">
        <ele>24.1703</ele>
        <time>2013-05-05T13:07:04Z</time>
      </trkpt>
      <trkpt lat="59.9490311" lon="17.5331157">
        <ele>24.1703</ele>
        <time>2013-05-05T13:07:05Z</time>
      </trkpt>
      <trkpt lat="59.9490369" lon="17.5331108">
        <ele>24.1703</ele>
        <time>2013-05-05T13:07:06Z</time>
      </trkpt>
      <trkpt lat="59.949039" lon="17.5331041">
        <ele>23.6896</ele>
        <time>2013-05-05T13:07:07Z</time>
      </trkpt>
      <trkpt lat="59.9490398" lon="17.533105">
        <ele>24.1703</ele>
        <time>2013-05-05T13:07:08Z</time>
      </trkpt>
      <trkpt lat="59.9490356" lon="17.5331058">
        <ele>23.6896</ele>
        <time>2013-05-05T13:07:09Z</time>
      </trkpt>
      <trkpt lat="59.9490303" lon="17.5331048">
        <ele>22.7283</ele>
        <time>2013-05-05T13:07:10Z</time>
      </trkpt>
      <trkpt lat="59.9490327" lon="17.5331041">
        <ele>23.6896</ele>
        <time>2013-05-05T13:07:11Z</time>
      </trkpt>
    </trkseg>
  </trk>
</gpx>